<?xml version="1.0" encoding="UTF-8" standalone="no" ?>
<gpx xmlns="http://www.topografix.com/GPX/1/1" xmlns:xsi="http://www.w3.org/2001/XMLSchema-instance" xsi:schemaLocation="http://www.topografix.com/GPX/1/1 http://www.topografix.com/GPX/1/1/gpx.xsd" version="1.1" creator="VisuGPX - https://www.visugpx.com">
  <metadata>
    <name>Tour de la vallée de la Thur 2014</name>
    <desc><![CDATA[Trace AlpineQuest 21/06/2014 14:05:46]]></desc>
  </metadata>
  <trk>
    <name><![CDATA[Tour de la vallée de la Thur 2014_1]]></name>
    <trkseg>
      <trkpt lat="47.82893" lon="7.08">
        <ele>356</ele>
        <time>2014-06-21T12:05:46Z</time>
      </trkpt>
      <trkpt lat="47.82896" lon="7.07998">
        <ele>356</ele>
        <time>2014-06-21T12:06:05Z</time>
      </trkpt>
      <trkpt lat="47.82895" lon="7.08003">
        <ele>355</ele>
        <time>2014-06-21T12:06:44Z</time>
      </trkpt>
      <trkpt lat="47.82894" lon="7.08009">
        <ele>355</ele>
        <time>2014-06-21T12:06:46Z</time>
      </trkpt>
      <trkpt lat="47.82892" lon="7.08014">
        <ele>355</ele>
        <time>2014-06-21T12:06:48Z</time>
      </trkpt>
      <trkpt lat="47.82891" lon="7.08018">
        <ele>355</ele>
        <time>2014-06-21T12:06:50Z</time>
      </trkpt>
      <trkpt lat="47.82893" lon="7.08031">
        <ele>355</ele>
        <time>2014-06-21T12:06:56Z</time>
      </trkpt>
      <trkpt lat="47.82895" lon="7.08058">
        <ele>356</ele>
        <time>2014-06-21T12:07:06Z</time>
      </trkpt>
      <trkpt lat="47.82897" lon="7.08062">
        <ele>356</ele>
        <time>2014-06-21T12:07:09Z</time>
      </trkpt>
      <trkpt lat="47.82898" lon="7.08067">
        <ele>356</ele>
        <time>2014-06-21T12:07:14Z</time>
      </trkpt>
      <trkpt lat="47.82908" lon="7.08085">
        <ele>356</ele>
        <time>2014-06-21T12:07:23Z</time>
      </trkpt>
      <trkpt lat="47.8292" lon="7.08099">
        <ele>356</ele>
        <time>2014-06-21T12:07:36Z</time>
      </trkpt>
      <trkpt lat="47.8293" lon="7.08109">
        <ele>356</ele>
        <time>2014-06-21T12:07:44Z</time>
      </trkpt>
      <trkpt lat="47.82939" lon="7.08122">
        <ele>355</ele>
        <time>2014-06-21T12:07:56Z</time>
      </trkpt>
      <trkpt lat="47.82941" lon="7.08127">
        <ele>355</ele>
        <time>2014-06-21T12:07:59Z</time>
      </trkpt>
      <trkpt lat="47.8295" lon="7.08139">
        <ele>355</ele>
        <time>2014-06-21T12:08:09Z</time>
      </trkpt>
      <trkpt lat="47.8297" lon="7.08162">
        <ele>355</ele>
        <time>2014-06-21T12:08:21Z</time>
      </trkpt>
      <trkpt lat="47.82975" lon="7.08171">
        <ele>355</ele>
        <time>2014-06-21T12:08:26Z</time>
      </trkpt>
      <trkpt lat="47.82974" lon="7.0818">
        <ele>355</ele>
        <time>2014-06-21T12:08:32Z</time>
      </trkpt>
      <trkpt lat="47.82981" lon="7.08196">
        <ele>355</ele>
        <time>2014-06-21T12:08:42Z</time>
      </trkpt>
      <trkpt lat="47.82985" lon="7.082">
        <ele>355</ele>
        <time>2014-06-21T12:08:44Z</time>
      </trkpt>
      <trkpt lat="47.82987" lon="7.08203">
        <ele>355</ele>
        <time>2014-06-21T12:08:46Z</time>
      </trkpt>
      <trkpt lat="47.82991" lon="7.08206">
        <ele>355</ele>
        <time>2014-06-21T12:08:49Z</time>
      </trkpt>
      <trkpt lat="47.82993" lon="7.08211">
        <ele>355</ele>
        <time>2014-06-21T12:08:54Z</time>
      </trkpt>
      <trkpt lat="47.83012" lon="7.0822">
        <ele>357</ele>
        <time>2014-06-21T12:09:06Z</time>
      </trkpt>
      <trkpt lat="47.83021" lon="7.08223">
        <ele>357</ele>
        <time>2014-06-21T12:09:16Z</time>
      </trkpt>
      <trkpt lat="47.83028" lon="7.08221">
        <ele>357</ele>
        <time>2014-06-21T12:09:26Z</time>
      </trkpt>
      <trkpt lat="47.83034" lon="7.08227">
        <ele>357</ele>
        <time>2014-06-21T12:09:30Z</time>
      </trkpt>
      <trkpt lat="47.83035" lon="7.08232">
        <ele>357</ele>
        <time>2014-06-21T12:09:32Z</time>
      </trkpt>
      <trkpt lat="47.83037" lon="7.08242">
        <ele>357</ele>
        <time>2014-06-21T12:09:36Z</time>
      </trkpt>
      <trkpt lat="47.83044" lon="7.08266">
        <ele>362</ele>
        <time>2014-06-21T12:09:48Z</time>
      </trkpt>
      <trkpt lat="47.83039" lon="7.08292">
        <ele>363</ele>
        <time>2014-06-21T12:09:58Z</time>
      </trkpt>
      <trkpt lat="47.83038" lon="7.08315">
        <ele>364</ele>
        <time>2014-06-21T12:10:10Z</time>
      </trkpt>
      <trkpt lat="47.83038" lon="7.08329">
        <ele>364</ele>
        <time>2014-06-21T12:10:19Z</time>
      </trkpt>
      <trkpt lat="47.83036" lon="7.08346">
        <ele>370</ele>
        <time>2014-06-21T12:10:25Z</time>
      </trkpt>
      <trkpt lat="47.83035" lon="7.08351">
        <ele>371</ele>
        <time>2014-06-21T12:10:27Z</time>
      </trkpt>
      <trkpt lat="47.83034" lon="7.08356">
        <ele>371</ele>
        <time>2014-06-21T12:10:29Z</time>
      </trkpt>
      <trkpt lat="47.83029" lon="7.08373">
        <ele>371</ele>
        <time>2014-06-21T12:10:39Z</time>
      </trkpt>
      <trkpt lat="47.83032" lon="7.08394">
        <ele>373</ele>
        <time>2014-06-21T12:10:49Z</time>
      </trkpt>
      <trkpt lat="47.83026" lon="7.08416">
        <ele>372</ele>
        <time>2014-06-21T12:11:01Z</time>
      </trkpt>
      <trkpt lat="47.83018" lon="7.08432">
        <ele>376</ele>
        <time>2014-06-21T12:11:12Z</time>
      </trkpt>
      <trkpt lat="47.83017" lon="7.08452">
        <ele>378</ele>
        <time>2014-06-21T12:11:23Z</time>
      </trkpt>
      <trkpt lat="47.83024" lon="7.08471">
        <ele>380</ele>
        <time>2014-06-21T12:11:35Z</time>
      </trkpt>
      <trkpt lat="47.83024" lon="7.08476">
        <ele>380</ele>
        <time>2014-06-21T12:11:37Z</time>
      </trkpt>
      <trkpt lat="47.83023" lon="7.08481">
        <ele>380</ele>
        <time>2014-06-21T12:11:40Z</time>
      </trkpt>
      <trkpt lat="47.83023" lon="7.08503">
        <ele>384</ele>
        <time>2014-06-21T12:11:52Z</time>
      </trkpt>
      <trkpt lat="47.83023" lon="7.08507">
        <ele>384</ele>
        <time>2014-06-21T12:11:54Z</time>
      </trkpt>
      <trkpt lat="47.83029" lon="7.08529">
        <ele>387</ele>
        <time>2014-06-21T12:12:04Z</time>
      </trkpt>
      <trkpt lat="47.83036" lon="7.08545">
        <ele>388</ele>
        <time>2014-06-21T12:12:15Z</time>
      </trkpt>
      <trkpt lat="47.8304" lon="7.08563">
        <ele>389</ele>
        <time>2014-06-21T12:12:25Z</time>
      </trkpt>
      <trkpt lat="47.83043" lon="7.08566">
        <ele>389</ele>
        <time>2014-06-21T12:12:28Z</time>
      </trkpt>
      <trkpt lat="47.83046" lon="7.08584">
        <ele>394</ele>
        <time>2014-06-21T12:12:37Z</time>
      </trkpt>
      <trkpt lat="47.83047" lon="7.08603">
        <ele>394</ele>
        <time>2014-06-21T12:12:48Z</time>
      </trkpt>
      <trkpt lat="47.83051" lon="7.08622">
        <ele>395</ele>
        <time>2014-06-21T12:12:59Z</time>
      </trkpt>
      <trkpt lat="47.83055" lon="7.08641">
        <ele>396</ele>
        <time>2014-06-21T12:13:11Z</time>
      </trkpt>
      <trkpt lat="47.83056" lon="7.08666">
        <ele>396</ele>
        <time>2014-06-21T12:13:23Z</time>
      </trkpt>
      <trkpt lat="47.83058" lon="7.08686">
        <ele>401</ele>
        <time>2014-06-21T12:13:34Z</time>
      </trkpt>
      <trkpt lat="47.8306" lon="7.08707">
        <ele>402</ele>
        <time>2014-06-21T12:13:46Z</time>
      </trkpt>
      <trkpt lat="47.83056" lon="7.0872">
        <ele>403</ele>
        <time>2014-06-21T12:13:55Z</time>
      </trkpt>
      <trkpt lat="47.83055" lon="7.08739">
        <ele>403</ele>
        <time>2014-06-21T12:14:06Z</time>
      </trkpt>
      <trkpt lat="47.83053" lon="7.08747">
        <ele>404</ele>
        <time>2014-06-21T12:14:10Z</time>
      </trkpt>
      <trkpt lat="47.83054" lon="7.08765">
        <ele>408</ele>
        <time>2014-06-21T12:14:19Z</time>
      </trkpt>
      <trkpt lat="47.83054" lon="7.08769">
        <ele>409</ele>
        <time>2014-06-21T12:14:21Z</time>
      </trkpt>
      <trkpt lat="47.83052" lon="7.08788">
        <ele>410</ele>
        <time>2014-06-21T12:14:32Z</time>
      </trkpt>
      <trkpt lat="47.83053" lon="7.08792">
        <ele>410</ele>
        <time>2014-06-21T12:14:34Z</time>
      </trkpt>
      <trkpt lat="47.83051" lon="7.08813">
        <ele>411</ele>
        <time>2014-06-21T12:14:47Z</time>
      </trkpt>
      <trkpt lat="47.83047" lon="7.08815">
        <ele>411</ele>
        <time>2014-06-21T12:14:49Z</time>
      </trkpt>
      <trkpt lat="47.83045" lon="7.0882">
        <ele>411</ele>
        <time>2014-06-21T12:14:52Z</time>
      </trkpt>
      <trkpt lat="47.83043" lon="7.08824">
        <ele>412</ele>
        <time>2014-06-21T12:14:55Z</time>
      </trkpt>
      <trkpt lat="47.83044" lon="7.08834">
        <ele>416</ele>
        <time>2014-06-21T12:15:00Z</time>
      </trkpt>
      <trkpt lat="47.83041" lon="7.08855">
        <ele>417</ele>
        <time>2014-06-21T12:15:13Z</time>
      </trkpt>
      <trkpt lat="47.83043" lon="7.08868">
        <ele>417</ele>
        <time>2014-06-21T12:15:19Z</time>
      </trkpt>
      <trkpt lat="47.83044" lon="7.08889">
        <ele>418</ele>
        <time>2014-06-21T12:15:29Z</time>
      </trkpt>
      <trkpt lat="47.83051" lon="7.08908">
        <ele>418</ele>
        <time>2014-06-21T12:15:40Z</time>
      </trkpt>
      <trkpt lat="47.83051" lon="7.08912">
        <ele>418</ele>
        <time>2014-06-21T12:15:43Z</time>
      </trkpt>
      <trkpt lat="47.83048" lon="7.08913">
        <ele>418</ele>
        <time>2014-06-21T12:15:46Z</time>
      </trkpt>
      <trkpt lat="47.83045" lon="7.08914">
        <ele>418</ele>
        <time>2014-06-21T12:15:48Z</time>
      </trkpt>
      <trkpt lat="47.8304" lon="7.08929">
        <ele>423</ele>
        <time>2014-06-21T12:15:58Z</time>
      </trkpt>
      <trkpt lat="47.83047" lon="7.08941">
        <ele>423</ele>
        <time>2014-06-21T12:16:02Z</time>
      </trkpt>
      <trkpt lat="47.8305" lon="7.0895">
        <ele>423</ele>
        <time>2014-06-21T12:16:06Z</time>
      </trkpt>
      <trkpt lat="47.8305" lon="7.08957">
        <ele>423</ele>
        <time>2014-06-21T12:16:14Z</time>
      </trkpt>
      <trkpt lat="47.83041" lon="7.08979">
        <ele>424</ele>
        <time>2014-06-21T12:16:25Z</time>
      </trkpt>
      <trkpt lat="47.83046" lon="7.08995">
        <ele>424</ele>
        <time>2014-06-21T12:16:31Z</time>
      </trkpt>
      <trkpt lat="47.83045" lon="7.09003">
        <ele>431</ele>
        <time>2014-06-21T12:16:37Z</time>
      </trkpt>
      <trkpt lat="47.83045" lon="7.09009">
        <ele>432</ele>
        <time>2014-06-21T12:16:40Z</time>
      </trkpt>
      <trkpt lat="47.83044" lon="7.09014">
        <ele>432</ele>
        <time>2014-06-21T12:16:43Z</time>
      </trkpt>
      <trkpt lat="47.83047" lon="7.09038">
        <ele>434</ele>
        <time>2014-06-21T12:16:54Z</time>
      </trkpt>
      <trkpt lat="47.83049" lon="7.09043">
        <ele>434</ele>
        <time>2014-06-21T12:16:56Z</time>
      </trkpt>
      <trkpt lat="47.83059" lon="7.09064">
        <ele>436</ele>
        <time>2014-06-21T12:17:06Z</time>
      </trkpt>
      <trkpt lat="47.8306" lon="7.09068">
        <ele>436</ele>
        <time>2014-06-21T12:17:08Z</time>
      </trkpt>
      <trkpt lat="47.83065" lon="7.09079">
        <ele>437</ele>
        <time>2014-06-21T12:17:19Z</time>
      </trkpt>
      <trkpt lat="47.83078" lon="7.09069">
        <ele>436</ele>
        <time>2014-06-21T12:17:30Z</time>
      </trkpt>
      <trkpt lat="47.83076" lon="7.09052">
        <ele>434</ele>
        <time>2014-06-21T12:17:40Z</time>
      </trkpt>
      <trkpt lat="47.83074" lon="7.09048">
        <ele>434</ele>
        <time>2014-06-21T12:17:42Z</time>
      </trkpt>
      <trkpt lat="47.83072" lon="7.09045">
        <ele>434</ele>
        <time>2014-06-21T12:17:44Z</time>
      </trkpt>
      <trkpt lat="47.83065" lon="7.09029">
        <ele>432</ele>
        <time>2014-06-21T12:17:55Z</time>
      </trkpt>
      <trkpt lat="47.8304" lon="7.09019">
        <ele>433</ele>
        <time>2014-06-21T12:18:06Z</time>
      </trkpt>
      <trkpt lat="47.83028" lon="7.09015">
        <ele>433</ele>
        <time>2014-06-21T12:18:18Z</time>
      </trkpt>
      <trkpt lat="47.83015" lon="7.09005">
        <ele>431</ele>
        <time>2014-06-21T12:18:30Z</time>
      </trkpt>
      <trkpt lat="47.83014" lon="7.08999">
        <ele>427</ele>
        <time>2014-06-21T12:18:32Z</time>
      </trkpt>
      <trkpt lat="47.83013" lon="7.08993">
        <ele>427</ele>
        <time>2014-06-21T12:18:34Z</time>
      </trkpt>
      <trkpt lat="47.83011" lon="7.08988">
        <ele>426</ele>
        <time>2014-06-21T12:18:36Z</time>
      </trkpt>
      <trkpt lat="47.8301" lon="7.08978">
        <ele>426</ele>
        <time>2014-06-21T12:18:40Z</time>
      </trkpt>
      <trkpt lat="47.83008" lon="7.08973">
        <ele>425</ele>
        <time>2014-06-21T12:18:43Z</time>
      </trkpt>
      <trkpt lat="47.83006" lon="7.08969">
        <ele>425</ele>
        <time>2014-06-21T12:18:46Z</time>
      </trkpt>
      <trkpt lat="47.83011" lon="7.08953">
        <ele>424</ele>
        <time>2014-06-21T12:18:56Z</time>
      </trkpt>
      <trkpt lat="47.83023" lon="7.08942">
        <ele>424</ele>
        <time>2014-06-21T12:19:01Z</time>
      </trkpt>
      <trkpt lat="47.83023" lon="7.08936">
        <ele>424</ele>
        <time>2014-06-21T12:19:05Z</time>
      </trkpt>
      <trkpt lat="47.8302" lon="7.08935">
        <ele>424</ele>
        <time>2014-06-21T12:19:07Z</time>
      </trkpt>
      <trkpt lat="47.83016" lon="7.08934">
        <ele>424</ele>
        <time>2014-06-21T12:19:09Z</time>
      </trkpt>
      <trkpt lat="47.83013" lon="7.08931">
        <ele>424</ele>
        <time>2014-06-21T12:19:12Z</time>
      </trkpt>
      <trkpt lat="47.83007" lon="7.08916">
        <ele>422</ele>
        <time>2014-06-21T12:19:23Z</time>
      </trkpt>
      <trkpt lat="47.83002" lon="7.08904">
        <ele>421</ele>
        <time>2014-06-21T12:19:34Z</time>
      </trkpt>
      <trkpt lat="47.83" lon="7.089">
        <ele>432</ele>
        <time>2014-06-21T12:19:37Z</time>
      </trkpt>
      <trkpt lat="47.83003" lon="7.08879">
        <ele>419</ele>
        <time>2014-06-21T12:19:47Z</time>
      </trkpt>
      <trkpt lat="47.83011" lon="7.08854">
        <ele>418</ele>
        <time>2014-06-21T12:19:58Z</time>
      </trkpt>
      <trkpt lat="47.83005" lon="7.08841">
        <ele>419</ele>
        <time>2014-06-21T12:20:06Z</time>
      </trkpt>
      <trkpt lat="47.83002" lon="7.08837">
        <ele>420</ele>
        <time>2014-06-21T12:20:08Z</time>
      </trkpt>
      <trkpt lat="47.83001" lon="7.08833">
        <ele>420</ele>
        <time>2014-06-21T12:20:11Z</time>
      </trkpt>
      <trkpt lat="47.83004" lon="7.08832">
        <ele>418</ele>
        <time>2014-06-21T12:20:12Z</time>
      </trkpt>
      <trkpt lat="47.83013" lon="7.08818">
        <ele>415</ele>
        <time>2014-06-21T12:20:19Z</time>
      </trkpt>
      <trkpt lat="47.83006" lon="7.08813">
        <ele>415</ele>
        <time>2014-06-21T12:20:21Z</time>
      </trkpt>
      <trkpt lat="47.83003" lon="7.08811">
        <ele>415</ele>
        <time>2014-06-21T12:20:22Z</time>
      </trkpt>
      <trkpt lat="47.82997" lon="7.08808">
        <ele>428</ele>
        <time>2014-06-21T12:20:25Z</time>
      </trkpt>
      <trkpt lat="47.82985" lon="7.08791">
        <ele>429</ele>
        <time>2014-06-21T12:20:36Z</time>
      </trkpt>
      <trkpt lat="47.82979" lon="7.08779">
        <ele>429</ele>
        <time>2014-06-21T12:20:42Z</time>
      </trkpt>
      <trkpt lat="47.82967" lon="7.08756">
        <ele>430</ele>
        <time>2014-06-21T12:20:53Z</time>
      </trkpt>
      <trkpt lat="47.82968" lon="7.08749">
        <ele>423</ele>
        <time>2014-06-21T12:21:03Z</time>
      </trkpt>
      <trkpt lat="47.82963" lon="7.0874">
        <ele>423</ele>
        <time>2014-06-21T12:21:08Z</time>
      </trkpt>
      <trkpt lat="47.8295" lon="7.08722">
        <ele>425</ele>
        <time>2014-06-21T12:21:18Z</time>
      </trkpt>
      <trkpt lat="47.82943" lon="7.08723">
        <ele>426</ele>
        <time>2014-06-21T12:21:22Z</time>
      </trkpt>
      <trkpt lat="47.8294" lon="7.08724">
        <ele>427</ele>
        <time>2014-06-21T12:21:24Z</time>
      </trkpt>
      <trkpt lat="47.82929" lon="7.08739">
        <ele>433</ele>
        <time>2014-06-21T12:21:35Z</time>
      </trkpt>
      <trkpt lat="47.82924" lon="7.0875">
        <ele>441</ele>
        <time>2014-06-21T12:21:41Z</time>
      </trkpt>
      <trkpt lat="47.82917" lon="7.08773">
        <ele>440</ele>
        <time>2014-06-21T12:21:51Z</time>
      </trkpt>
      <trkpt lat="47.82915" lon="7.08783">
        <ele>456</ele>
        <time>2014-06-21T12:21:55Z</time>
      </trkpt>
      <trkpt lat="47.82911" lon="7.08795">
        <ele>458</ele>
        <time>2014-06-21T12:22:10Z</time>
      </trkpt>
      <trkpt lat="47.82907" lon="7.08793">
        <ele>458</ele>
        <time>2014-06-21T12:22:13Z</time>
      </trkpt>
      <trkpt lat="47.82905" lon="7.08791">
        <ele>458</ele>
        <time>2014-06-21T12:22:15Z</time>
      </trkpt>
      <trkpt lat="47.82897" lon="7.08787">
        <ele>458</ele>
        <time>2014-06-21T12:22:19Z</time>
      </trkpt>
      <trkpt lat="47.8288" lon="7.08778">
        <ele>459</ele>
        <time>2014-06-21T12:22:29Z</time>
      </trkpt>
      <trkpt lat="47.82881" lon="7.08775">
        <ele>458</ele>
        <time>2014-06-21T12:22:33Z</time>
      </trkpt>
      <trkpt lat="47.82877" lon="7.08774">
        <ele>459</ele>
        <time>2014-06-21T12:22:43Z</time>
      </trkpt>
      <trkpt lat="47.82873" lon="7.08772">
        <ele>459</ele>
        <time>2014-06-21T12:22:45Z</time>
      </trkpt>
      <trkpt lat="47.82864" lon="7.08768">
        <ele>460</ele>
        <time>2014-06-21T12:22:52Z</time>
      </trkpt>
      <trkpt lat="47.82861" lon="7.08767">
        <ele>460</ele>
        <time>2014-06-21T12:22:54Z</time>
      </trkpt>
      <trkpt lat="47.82851" lon="7.0876">
        <ele>460</ele>
        <time>2014-06-21T12:23:05Z</time>
      </trkpt>
      <trkpt lat="47.82848" lon="7.08758">
        <ele>460</ele>
        <time>2014-06-21T12:23:08Z</time>
      </trkpt>
      <trkpt lat="47.82836" lon="7.08751">
        <ele>459</ele>
        <time>2014-06-21T12:23:17Z</time>
      </trkpt>
      <trkpt lat="47.8283" lon="7.0875">
        <ele>461</ele>
        <time>2014-06-21T12:23:25Z</time>
      </trkpt>
      <trkpt lat="47.82818" lon="7.08746">
        <ele>455</ele>
        <time>2014-06-21T12:23:36Z</time>
      </trkpt>
      <trkpt lat="47.82804" lon="7.08741">
        <ele>454</ele>
        <time>2014-06-21T12:23:47Z</time>
      </trkpt>
      <trkpt lat="47.828" lon="7.08741">
        <ele>454</ele>
        <time>2014-06-21T12:23:50Z</time>
      </trkpt>
      <trkpt lat="47.82798" lon="7.08743">
        <ele>455</ele>
        <time>2014-06-21T12:23:53Z</time>
      </trkpt>
      <trkpt lat="47.82794" lon="7.08743">
        <ele>455</ele>
        <time>2014-06-21T12:23:56Z</time>
      </trkpt>
      <trkpt lat="47.82779" lon="7.08746">
        <ele>457</ele>
        <time>2014-06-21T12:24:07Z</time>
      </trkpt>
      <trkpt lat="47.82776" lon="7.08749">
        <ele>458</ele>
        <time>2014-06-21T12:24:09Z</time>
      </trkpt>
      <trkpt lat="47.82769" lon="7.08755">
        <ele>472</ele>
        <time>2014-06-21T12:24:20Z</time>
      </trkpt>
      <trkpt lat="47.82768" lon="7.08771">
        <ele>474</ele>
        <time>2014-06-21T12:24:30Z</time>
      </trkpt>
      <trkpt lat="47.82766" lon="7.08786">
        <ele>476</ele>
        <time>2014-06-21T12:24:39Z</time>
      </trkpt>
      <trkpt lat="47.8276" lon="7.08803">
        <ele>480</ele>
        <time>2014-06-21T12:24:50Z</time>
      </trkpt>
      <trkpt lat="47.82755" lon="7.08808">
        <ele>482</ele>
        <time>2014-06-21T12:24:55Z</time>
      </trkpt>
      <trkpt lat="47.82742" lon="7.08817">
        <ele>483</ele>
        <time>2014-06-21T12:25:07Z</time>
      </trkpt>
      <trkpt lat="47.82729" lon="7.08823">
        <ele>481</ele>
        <time>2014-06-21T12:25:18Z</time>
      </trkpt>
      <trkpt lat="47.82724" lon="7.08827">
        <ele>480</ele>
        <time>2014-06-21T12:25:28Z</time>
      </trkpt>
      <trkpt lat="47.82721" lon="7.08827">
        <ele>479</ele>
        <time>2014-06-21T12:25:31Z</time>
      </trkpt>
      <trkpt lat="47.82713" lon="7.08829">
        <ele>478</ele>
        <time>2014-06-21T12:25:37Z</time>
      </trkpt>
      <trkpt lat="47.82711" lon="7.08829">
        <ele>477</ele>
        <time>2014-06-21T12:25:41Z</time>
      </trkpt>
      <trkpt lat="47.82705" lon="7.08833">
        <ele>493</ele>
        <time>2014-06-21T12:26:55Z</time>
      </trkpt>
      <trkpt lat="47.82697" lon="7.08837">
        <ele>492</ele>
        <time>2014-06-21T12:26:58Z</time>
      </trkpt>
      <trkpt lat="47.82692" lon="7.08837">
        <ele>490</ele>
        <time>2014-06-21T12:26:59Z</time>
      </trkpt>
      <trkpt lat="47.82689" lon="7.08838">
        <ele>489</ele>
        <time>2014-06-21T12:27:00Z</time>
      </trkpt>
      <trkpt lat="47.82685" lon="7.08839">
        <ele>488</ele>
        <time>2014-06-21T12:27:01Z</time>
      </trkpt>
      <trkpt lat="47.82675" lon="7.08844">
        <ele>485</ele>
        <time>2014-06-21T12:27:05Z</time>
      </trkpt>
      <trkpt lat="47.82672" lon="7.08856">
        <ele>490</ele>
        <time>2014-06-21T12:27:11Z</time>
      </trkpt>
      <trkpt lat="47.82666" lon="7.08885">
        <ele>482</ele>
        <time>2014-06-21T12:27:22Z</time>
      </trkpt>
      <trkpt lat="47.82664" lon="7.0889">
        <ele>484</ele>
        <time>2014-06-21T12:27:26Z</time>
      </trkpt>
      <trkpt lat="47.82664" lon="7.089">
        <ele>488</ele>
        <time>2014-06-21T12:27:32Z</time>
      </trkpt>
      <trkpt lat="47.82661" lon="7.08913">
        <ele>495</ele>
        <time>2014-06-21T12:27:42Z</time>
      </trkpt>
      <trkpt lat="47.82659" lon="7.08923">
        <ele>500</ele>
        <time>2014-06-21T12:27:46Z</time>
      </trkpt>
      <trkpt lat="47.82657" lon="7.08927">
        <ele>500</ele>
        <time>2014-06-21T12:27:49Z</time>
      </trkpt>
      <trkpt lat="47.82658" lon="7.08952">
        <ele>502</ele>
        <time>2014-06-21T12:28:00Z</time>
      </trkpt>
      <trkpt lat="47.82653" lon="7.08958">
        <ele>502</ele>
        <time>2014-06-21T12:28:05Z</time>
      </trkpt>
      <trkpt lat="47.8265" lon="7.0896">
        <ele>502</ele>
        <time>2014-06-21T12:28:07Z</time>
      </trkpt>
      <trkpt lat="47.82641" lon="7.08979">
        <ele>505</ele>
        <time>2014-06-21T12:28:18Z</time>
      </trkpt>
      <trkpt lat="47.82638" lon="7.08997">
        <ele>507</ele>
        <time>2014-06-21T12:28:28Z</time>
      </trkpt>
      <trkpt lat="47.8263" lon="7.09013">
        <ele>519</ele>
        <time>2014-06-21T12:28:40Z</time>
      </trkpt>
      <trkpt lat="47.82626" lon="7.09021">
        <ele>519</ele>
        <time>2014-06-21T12:28:46Z</time>
      </trkpt>
      <trkpt lat="47.82622" lon="7.09041">
        <ele>521</ele>
        <time>2014-06-21T12:28:54Z</time>
      </trkpt>
      <trkpt lat="47.82616" lon="7.09059">
        <ele>522</ele>
        <time>2014-06-21T12:29:06Z</time>
      </trkpt>
      <trkpt lat="47.82612" lon="7.09067">
        <ele>521</ele>
        <time>2014-06-21T12:29:12Z</time>
      </trkpt>
      <trkpt lat="47.82611" lon="7.09073">
        <ele>522</ele>
        <time>2014-06-21T12:29:15Z</time>
      </trkpt>
      <trkpt lat="47.82608" lon="7.09077">
        <ele>521</ele>
        <time>2014-06-21T12:29:18Z</time>
      </trkpt>
      <trkpt lat="47.82595" lon="7.09087">
        <ele>526</ele>
        <time>2014-06-21T12:29:28Z</time>
      </trkpt>
      <trkpt lat="47.82594" lon="7.09091">
        <ele>526</ele>
        <time>2014-06-21T12:29:30Z</time>
      </trkpt>
      <trkpt lat="47.82585" lon="7.09107">
        <ele>530</ele>
        <time>2014-06-21T12:29:41Z</time>
      </trkpt>
      <trkpt lat="47.82582" lon="7.09111">
        <ele>519</ele>
        <time>2014-06-21T12:29:44Z</time>
      </trkpt>
      <trkpt lat="47.82574" lon="7.09126">
        <ele>520</ele>
        <time>2014-06-21T12:29:55Z</time>
      </trkpt>
      <trkpt lat="47.82565" lon="7.09133">
        <ele>520</ele>
        <time>2014-06-21T12:30:02Z</time>
      </trkpt>
      <trkpt lat="47.8256" lon="7.09138">
        <ele>520</ele>
        <time>2014-06-21T12:30:06Z</time>
      </trkpt>
      <trkpt lat="47.82557" lon="7.09144">
        <ele>521</ele>
        <time>2014-06-21T12:30:08Z</time>
      </trkpt>
      <trkpt lat="47.82556" lon="7.09148">
        <ele>521</ele>
        <time>2014-06-21T12:30:10Z</time>
      </trkpt>
      <trkpt lat="47.82551" lon="7.09155">
        <ele>520</ele>
        <time>2014-06-21T12:30:16Z</time>
      </trkpt>
      <trkpt lat="47.82546" lon="7.09172">
        <ele>518</ele>
        <time>2014-06-21T12:30:29Z</time>
      </trkpt>
      <trkpt lat="47.82555" lon="7.09185">
        <ele>519</ele>
        <time>2014-06-21T12:30:40Z</time>
      </trkpt>
      <trkpt lat="47.82558" lon="7.09188">
        <ele>519</ele>
        <time>2014-06-21T12:30:42Z</time>
      </trkpt>
      <trkpt lat="47.82572" lon="7.09199">
        <ele>520</ele>
        <time>2014-06-21T12:30:54Z</time>
      </trkpt>
      <trkpt lat="47.82575" lon="7.09201">
        <ele>520</ele>
        <time>2014-06-21T12:30:57Z</time>
      </trkpt>
      <trkpt lat="47.82581" lon="7.09214">
        <ele>519</ele>
        <time>2014-06-21T12:31:10Z</time>
      </trkpt>
      <trkpt lat="47.82581" lon="7.09221">
        <ele>519</ele>
        <time>2014-06-21T12:31:13Z</time>
      </trkpt>
      <trkpt lat="47.82581" lon="7.09225">
        <ele>519</ele>
        <time>2014-06-21T12:31:15Z</time>
      </trkpt>
      <trkpt lat="47.82582" lon="7.09229">
        <ele>519</ele>
        <time>2014-06-21T12:31:18Z</time>
      </trkpt>
      <trkpt lat="47.82591" lon="7.09242">
        <ele>532</ele>
        <time>2014-06-21T12:31:29Z</time>
      </trkpt>
      <trkpt lat="47.82593" lon="7.09245">
        <ele>532</ele>
        <time>2014-06-21T12:31:31Z</time>
      </trkpt>
      <trkpt lat="47.82599" lon="7.09264">
        <ele>535</ele>
        <time>2014-06-21T12:31:43Z</time>
      </trkpt>
      <trkpt lat="47.82602" lon="7.09284">
        <ele>538</ele>
        <time>2014-06-21T12:31:54Z</time>
      </trkpt>
      <trkpt lat="47.82605" lon="7.09307">
        <ele>538</ele>
        <time>2014-06-21T12:32:02Z</time>
      </trkpt>
      <trkpt lat="47.82609" lon="7.0932">
        <ele>537</ele>
        <time>2014-06-21T12:32:12Z</time>
      </trkpt>
      <trkpt lat="47.82611" lon="7.09336">
        <ele>534</ele>
        <time>2014-06-21T12:32:21Z</time>
      </trkpt>
      <trkpt lat="47.82612" lon="7.09355">
        <ele>535</ele>
        <time>2014-06-21T12:32:31Z</time>
      </trkpt>
      <trkpt lat="47.82614" lon="7.09359">
        <ele>536</ele>
        <time>2014-06-21T12:32:33Z</time>
      </trkpt>
      <trkpt lat="47.82616" lon="7.09378">
        <ele>536</ele>
        <time>2014-06-21T12:32:43Z</time>
      </trkpt>
      <trkpt lat="47.82615" lon="7.09383">
        <ele>535</ele>
        <time>2014-06-21T12:32:45Z</time>
      </trkpt>
      <trkpt lat="47.82615" lon="7.09388">
        <ele>535</ele>
        <time>2014-06-21T12:32:47Z</time>
      </trkpt>
      <trkpt lat="47.82619" lon="7.09403">
        <ele>535</ele>
        <time>2014-06-21T12:32:58Z</time>
      </trkpt>
      <trkpt lat="47.82623" lon="7.09421">
        <ele>532</ele>
        <time>2014-06-21T12:33:09Z</time>
      </trkpt>
      <trkpt lat="47.82626" lon="7.0944">
        <ele>533</ele>
        <time>2014-06-21T12:33:19Z</time>
      </trkpt>
      <trkpt lat="47.82633" lon="7.09461">
        <ele>534</ele>
        <time>2014-06-21T12:33:30Z</time>
      </trkpt>
      <trkpt lat="47.82635" lon="7.09464">
        <ele>534</ele>
        <time>2014-06-21T12:33:33Z</time>
      </trkpt>
      <trkpt lat="47.82637" lon="7.09468">
        <ele>535</ele>
        <time>2014-06-21T12:33:35Z</time>
      </trkpt>
      <trkpt lat="47.82639" lon="7.09473">
        <ele>535</ele>
        <time>2014-06-21T12:33:38Z</time>
      </trkpt>
      <trkpt lat="47.82647" lon="7.09492">
        <ele>539</ele>
        <time>2014-06-21T12:33:50Z</time>
      </trkpt>
      <trkpt lat="47.82652" lon="7.09505">
        <ele>537</ele>
        <time>2014-06-21T12:33:56Z</time>
      </trkpt>
      <trkpt lat="47.82657" lon="7.09523">
        <ele>534</ele>
        <time>2014-06-21T12:34:06Z</time>
      </trkpt>
      <trkpt lat="47.82657" lon="7.09531">
        <ele>532</ele>
        <time>2014-06-21T12:34:11Z</time>
      </trkpt>
      <trkpt lat="47.82663" lon="7.09542">
        <ele>531</ele>
        <time>2014-06-21T12:34:22Z</time>
      </trkpt>
      <trkpt lat="47.82667" lon="7.09563">
        <ele>532</ele>
        <time>2014-06-21T12:34:32Z</time>
      </trkpt>
      <trkpt lat="47.8267" lon="7.0957">
        <ele>551</ele>
        <time>2014-06-21T12:34:36Z</time>
      </trkpt>
      <trkpt lat="47.82676" lon="7.09575">
        <ele>551</ele>
        <time>2014-06-21T12:34:41Z</time>
      </trkpt>
      <trkpt lat="47.82686" lon="7.09592">
        <ele>552</ele>
        <time>2014-06-21T12:34:53Z</time>
      </trkpt>
      <trkpt lat="47.82691" lon="7.09607">
        <ele>555</ele>
        <time>2014-06-21T12:35:05Z</time>
      </trkpt>
      <trkpt lat="47.82693" lon="7.09612">
        <ele>556</ele>
        <time>2014-06-21T12:35:07Z</time>
      </trkpt>
      <trkpt lat="47.82695" lon="7.09624">
        <ele>556</ele>
        <time>2014-06-21T12:35:12Z</time>
      </trkpt>
      <trkpt lat="47.82695" lon="7.09629">
        <ele>556</ele>
        <time>2014-06-21T12:35:15Z</time>
      </trkpt>
      <trkpt lat="47.82699" lon="7.09652">
        <ele>555</ele>
        <time>2014-06-21T12:35:29Z</time>
      </trkpt>
      <trkpt lat="47.82698" lon="7.09657">
        <ele>554</ele>
        <time>2014-06-21T12:35:35Z</time>
      </trkpt>
      <trkpt lat="47.82699" lon="7.09662">
        <ele>555</ele>
        <time>2014-06-21T12:35:38Z</time>
      </trkpt>
      <trkpt lat="47.82705" lon="7.09683">
        <ele>554</ele>
        <time>2014-06-21T12:35:49Z</time>
      </trkpt>
      <trkpt lat="47.8271" lon="7.09702">
        <ele>554</ele>
        <time>2014-06-21T12:36:00Z</time>
      </trkpt>
      <trkpt lat="47.82712" lon="7.09712">
        <ele>555</ele>
        <time>2014-06-21T12:36:05Z</time>
      </trkpt>
      <trkpt lat="47.82714" lon="7.09716">
        <ele>555</ele>
        <time>2014-06-21T12:36:07Z</time>
      </trkpt>
      <trkpt lat="47.82717" lon="7.09731">
        <ele>556</ele>
        <time>2014-06-21T12:36:18Z</time>
      </trkpt>
      <trkpt lat="47.82717" lon="7.09736">
        <ele>556</ele>
        <time>2014-06-21T12:36:21Z</time>
      </trkpt>
      <trkpt lat="47.82726" lon="7.09767">
        <ele>556</ele>
        <time>2014-06-21T12:36:32Z</time>
      </trkpt>
      <trkpt lat="47.82727" lon="7.09772">
        <ele>556</ele>
        <time>2014-06-21T12:36:35Z</time>
      </trkpt>
      <trkpt lat="47.82733" lon="7.09787">
        <ele>557</ele>
        <time>2014-06-21T12:36:47Z</time>
      </trkpt>
      <trkpt lat="47.82734" lon="7.09793">
        <ele>557</ele>
        <time>2014-06-21T12:36:50Z</time>
      </trkpt>
      <trkpt lat="47.82741" lon="7.09802">
        <ele>558</ele>
        <time>2014-06-21T12:36:59Z</time>
      </trkpt>
      <trkpt lat="47.82746" lon="7.09825">
        <ele>565</ele>
        <time>2014-06-21T12:37:11Z</time>
      </trkpt>
      <trkpt lat="47.82752" lon="7.09839">
        <ele>577</ele>
        <time>2014-06-21T12:37:21Z</time>
      </trkpt>
      <trkpt lat="47.82754" lon="7.09843">
        <ele>580</ele>
        <time>2014-06-21T12:37:24Z</time>
      </trkpt>
      <trkpt lat="47.82758" lon="7.09861">
        <ele>588</ele>
        <time>2014-06-21T12:37:37Z</time>
      </trkpt>
      <trkpt lat="47.82755" lon="7.09869">
        <ele>590</ele>
        <time>2014-06-21T12:37:44Z</time>
      </trkpt>
      <trkpt lat="47.82746" lon="7.09889">
        <ele>567</ele>
        <time>2014-06-21T12:37:55Z</time>
      </trkpt>
      <trkpt lat="47.82745" lon="7.09894">
        <ele>569</ele>
        <time>2014-06-21T12:37:57Z</time>
      </trkpt>
      <trkpt lat="47.82737" lon="7.09909">
        <ele>572</ele>
        <time>2014-06-21T12:38:08Z</time>
      </trkpt>
      <trkpt lat="47.82729" lon="7.09926">
        <ele>575</ele>
        <time>2014-06-21T12:38:19Z</time>
      </trkpt>
      <trkpt lat="47.82728" lon="7.09929">
        <ele>575</ele>
        <time>2014-06-21T12:38:21Z</time>
      </trkpt>
      <trkpt lat="47.8272" lon="7.09946">
        <ele>573</ele>
        <time>2014-06-21T12:38:33Z</time>
      </trkpt>
      <trkpt lat="47.82714" lon="7.09964">
        <ele>573</ele>
        <time>2014-06-21T12:38:44Z</time>
      </trkpt>
      <trkpt lat="47.82714" lon="7.09986">
        <ele>575</ele>
        <time>2014-06-21T12:38:55Z</time>
      </trkpt>
      <trkpt lat="47.82712" lon="7.0999">
        <ele>574</ele>
        <time>2014-06-21T12:38:58Z</time>
      </trkpt>
      <trkpt lat="47.82707" lon="7.10007">
        <ele>582</ele>
        <time>2014-06-21T12:39:08Z</time>
      </trkpt>
      <trkpt lat="47.82703" lon="7.10024">
        <ele>582</ele>
        <time>2014-06-21T12:39:19Z</time>
      </trkpt>
      <trkpt lat="47.82703" lon="7.10029">
        <ele>582</ele>
        <time>2014-06-21T12:39:21Z</time>
      </trkpt>
      <trkpt lat="47.82697" lon="7.10049">
        <ele>583</ele>
        <time>2014-06-21T12:39:31Z</time>
      </trkpt>
      <trkpt lat="47.82697" lon="7.10054">
        <ele>583</ele>
        <time>2014-06-21T12:39:33Z</time>
      </trkpt>
      <trkpt lat="47.82696" lon="7.10059">
        <ele>583</ele>
        <time>2014-06-21T12:39:35Z</time>
      </trkpt>
      <trkpt lat="47.82695" lon="7.10064">
        <ele>582</ele>
        <time>2014-06-21T12:39:38Z</time>
      </trkpt>
      <trkpt lat="47.82692" lon="7.10079">
        <ele>581</ele>
        <time>2014-06-21T12:39:47Z</time>
      </trkpt>
      <trkpt lat="47.82686" lon="7.10094">
        <ele>588</ele>
        <time>2014-06-21T12:39:57Z</time>
      </trkpt>
      <trkpt lat="47.82678" lon="7.10106">
        <ele>589</ele>
        <time>2014-06-21T12:40:07Z</time>
      </trkpt>
      <trkpt lat="47.82671" lon="7.10121">
        <ele>591</ele>
        <time>2014-06-21T12:40:17Z</time>
      </trkpt>
      <trkpt lat="47.82669" lon="7.10123">
        <ele>591</ele>
        <time>2014-06-21T12:40:19Z</time>
      </trkpt>
      <trkpt lat="47.82664" lon="7.1014">
        <ele>571</ele>
        <time>2014-06-21T12:40:27Z</time>
      </trkpt>
      <trkpt lat="47.82663" lon="7.10145">
        <ele>572</ele>
        <time>2014-06-21T12:40:30Z</time>
      </trkpt>
      <trkpt lat="47.82658" lon="7.10153">
        <ele>575</ele>
        <time>2014-06-21T12:40:35Z</time>
      </trkpt>
      <trkpt lat="47.82658" lon="7.10176">
        <ele>582</ele>
        <time>2014-06-21T12:40:47Z</time>
      </trkpt>
      <trkpt lat="47.8265" lon="7.10199">
        <ele>580</ele>
        <time>2014-06-21T12:40:58Z</time>
      </trkpt>
      <trkpt lat="47.82649" lon="7.10203">
        <ele>580</ele>
        <time>2014-06-21T12:41:00Z</time>
      </trkpt>
      <trkpt lat="47.82648" lon="7.10208">
        <ele>580</ele>
        <time>2014-06-21T12:41:03Z</time>
      </trkpt>
      <trkpt lat="47.82645" lon="7.10225">
        <ele>582</ele>
        <time>2014-06-21T12:41:14Z</time>
      </trkpt>
      <trkpt lat="47.82641" lon="7.10243">
        <ele>583</ele>
        <time>2014-06-21T12:41:23Z</time>
      </trkpt>
      <trkpt lat="47.82641" lon="7.10247">
        <ele>583</ele>
        <time>2014-06-21T12:41:26Z</time>
      </trkpt>
      <trkpt lat="47.8264" lon="7.10252">
        <ele>589</ele>
        <time>2014-06-21T12:41:29Z</time>
      </trkpt>
      <trkpt lat="47.82638" lon="7.10276">
        <ele>588</ele>
        <time>2014-06-21T12:41:39Z</time>
      </trkpt>
      <trkpt lat="47.82635" lon="7.10298">
        <ele>589</ele>
        <time>2014-06-21T12:41:49Z</time>
      </trkpt>
      <trkpt lat="47.8263" lon="7.10311">
        <ele>588</ele>
        <time>2014-06-21T12:41:56Z</time>
      </trkpt>
      <trkpt lat="47.82626" lon="7.10329">
        <ele>588</ele>
        <time>2014-06-21T12:42:07Z</time>
      </trkpt>
      <trkpt lat="47.8262" lon="7.10345">
        <ele>586</ele>
        <time>2014-06-21T12:42:17Z</time>
      </trkpt>
      <trkpt lat="47.8262" lon="7.1035">
        <ele>586</ele>
        <time>2014-06-21T12:42:19Z</time>
      </trkpt>
      <trkpt lat="47.82617" lon="7.10371">
        <ele>585</ele>
        <time>2014-06-21T12:42:28Z</time>
      </trkpt>
      <trkpt lat="47.82612" lon="7.10378">
        <ele>584</ele>
        <time>2014-06-21T12:42:34Z</time>
      </trkpt>
      <trkpt lat="47.82604" lon="7.10384">
        <ele>583</ele>
        <time>2014-06-21T12:42:44Z</time>
      </trkpt>
      <trkpt lat="47.82601" lon="7.10388">
        <ele>583</ele>
        <time>2014-06-21T12:42:47Z</time>
      </trkpt>
      <trkpt lat="47.82599" lon="7.10392">
        <ele>582</ele>
        <time>2014-06-21T12:42:49Z</time>
      </trkpt>
      <trkpt lat="47.82592" lon="7.10407">
        <ele>580</ele>
        <time>2014-06-21T12:43:07Z</time>
      </trkpt>
      <trkpt lat="47.82589" lon="7.10408">
        <ele>580</ele>
        <time>2014-06-21T12:43:10Z</time>
      </trkpt>
      <trkpt lat="47.82584" lon="7.10412">
        <ele>578</ele>
        <time>2014-06-21T12:43:19Z</time>
      </trkpt>
      <trkpt lat="47.8257" lon="7.10427">
        <ele>574</ele>
        <time>2014-06-21T12:43:30Z</time>
      </trkpt>
      <trkpt lat="47.82561" lon="7.1044">
        <ele>573</ele>
        <time>2014-06-21T12:43:42Z</time>
      </trkpt>
      <trkpt lat="47.82555" lon="7.10442">
        <ele>573</ele>
        <time>2014-06-21T12:43:47Z</time>
      </trkpt>
      <trkpt lat="47.8254" lon="7.10448">
        <ele>573</ele>
        <time>2014-06-21T12:43:59Z</time>
      </trkpt>
      <trkpt lat="47.82536" lon="7.10451">
        <ele>573</ele>
        <time>2014-06-21T12:44:02Z</time>
      </trkpt>
      <trkpt lat="47.82522" lon="7.10459">
        <ele>573</ele>
        <time>2014-06-21T12:44:17Z</time>
      </trkpt>
      <trkpt lat="47.82521" lon="7.10463">
        <ele>573</ele>
        <time>2014-06-21T12:44:28Z</time>
      </trkpt>
      <trkpt lat="47.82516" lon="7.1047">
        <ele>572</ele>
        <time>2014-06-21T12:44:39Z</time>
      </trkpt>
      <trkpt lat="47.82505" lon="7.10487">
        <ele>570</ele>
        <time>2014-06-21T12:44:43Z</time>
      </trkpt>
      <trkpt lat="47.82503" lon="7.10491">
        <ele>570</ele>
        <time>2014-06-21T12:44:44Z</time>
      </trkpt>
      <trkpt lat="47.825" lon="7.10494">
        <ele>570</ele>
        <time>2014-06-21T12:44:45Z</time>
      </trkpt>
      <trkpt lat="47.82496" lon="7.10499">
        <ele>572</ele>
        <time>2014-06-21T12:44:47Z</time>
      </trkpt>
      <trkpt lat="47.82495" lon="7.10503">
        <ele>569</ele>
        <time>2014-06-21T12:44:49Z</time>
      </trkpt>
      <trkpt lat="47.82493" lon="7.10507">
        <ele>568</ele>
        <time>2014-06-21T12:44:51Z</time>
      </trkpt>
      <trkpt lat="47.82484" lon="7.10535">
        <ele>565</ele>
        <time>2014-06-21T12:45:03Z</time>
      </trkpt>
      <trkpt lat="47.82477" lon="7.10559">
        <ele>560</ele>
        <time>2014-06-21T12:45:14Z</time>
      </trkpt>
      <trkpt lat="47.82477" lon="7.10565">
        <ele>559</ele>
        <time>2014-06-21T12:45:17Z</time>
      </trkpt>
      <trkpt lat="47.82467" lon="7.10593">
        <ele>540</ele>
        <time>2014-06-21T12:45:29Z</time>
      </trkpt>
      <trkpt lat="47.82455" lon="7.10597">
        <ele>542</ele>
        <time>2014-06-21T12:45:40Z</time>
      </trkpt>
      <trkpt lat="47.82448" lon="7.10597">
        <ele>544</ele>
        <time>2014-06-21T12:45:46Z</time>
      </trkpt>
      <trkpt lat="47.82438" lon="7.10615">
        <ele>541</ele>
        <time>2014-06-21T12:45:58Z</time>
      </trkpt>
      <trkpt lat="47.82434" lon="7.10632">
        <ele>537</ele>
        <time>2014-06-21T12:46:07Z</time>
      </trkpt>
      <trkpt lat="47.82431" lon="7.10641">
        <ele>535</ele>
        <time>2014-06-21T12:46:11Z</time>
      </trkpt>
      <trkpt lat="47.82423" lon="7.10648">
        <ele>533</ele>
        <time>2014-06-21T12:46:23Z</time>
      </trkpt>
      <trkpt lat="47.82414" lon="7.10655">
        <ele>536</ele>
        <time>2014-06-21T12:46:33Z</time>
      </trkpt>
      <trkpt lat="47.82411" lon="7.10654">
        <ele>537</ele>
        <time>2014-06-21T12:46:43Z</time>
      </trkpt>
      <trkpt lat="47.82402" lon="7.10664">
        <ele>537</ele>
        <time>2014-06-21T12:46:54Z</time>
      </trkpt>
      <trkpt lat="47.82399" lon="7.10668">
        <ele>521</ele>
        <time>2014-06-21T12:46:56Z</time>
      </trkpt>
      <trkpt lat="47.82396" lon="7.10671">
        <ele>521</ele>
        <time>2014-06-21T12:46:58Z</time>
      </trkpt>
      <trkpt lat="47.82391" lon="7.10672">
        <ele>520</ele>
        <time>2014-06-21T12:47:00Z</time>
      </trkpt>
      <trkpt lat="47.8238" lon="7.10671">
        <ele>520</ele>
        <time>2014-06-21T12:47:07Z</time>
      </trkpt>
      <trkpt lat="47.82375" lon="7.10681">
        <ele>520</ele>
        <time>2014-06-21T12:47:18Z</time>
      </trkpt>
      <trkpt lat="47.8236" lon="7.10693">
        <ele>519</ele>
        <time>2014-06-21T12:47:29Z</time>
      </trkpt>
      <trkpt lat="47.8235" lon="7.10704">
        <ele>516</ele>
        <time>2014-06-21T12:47:39Z</time>
      </trkpt>
      <trkpt lat="47.82339" lon="7.1072">
        <ele>511</ele>
        <time>2014-06-21T12:47:53Z</time>
      </trkpt>
      <trkpt lat="47.82332" lon="7.10732">
        <ele>508</ele>
        <time>2014-06-21T12:48:03Z</time>
      </trkpt>
      <trkpt lat="47.82327" lon="7.10737">
        <ele>506</ele>
        <time>2014-06-21T12:48:19Z</time>
      </trkpt>
      <trkpt lat="47.82322" lon="7.10744">
        <ele>505</ele>
        <time>2014-06-21T12:48:30Z</time>
      </trkpt>
      <trkpt lat="47.82319" lon="7.10747">
        <ele>506</ele>
        <time>2014-06-21T12:48:32Z</time>
      </trkpt>
      <trkpt lat="47.82302" lon="7.10761">
        <ele>488</ele>
        <time>2014-06-21T12:48:43Z</time>
      </trkpt>
      <trkpt lat="47.82299" lon="7.10759">
        <ele>488</ele>
        <time>2014-06-21T12:48:46Z</time>
      </trkpt>
      <trkpt lat="47.82279" lon="7.10765">
        <ele>489</ele>
        <time>2014-06-21T12:48:57Z</time>
      </trkpt>
      <trkpt lat="47.8226" lon="7.10766">
        <ele>492</ele>
        <time>2014-06-21T12:49:08Z</time>
      </trkpt>
      <trkpt lat="47.82257" lon="7.10767">
        <ele>492</ele>
        <time>2014-06-21T12:49:10Z</time>
      </trkpt>
      <trkpt lat="47.82243" lon="7.10778">
        <ele>489</ele>
        <time>2014-06-21T12:49:19Z</time>
      </trkpt>
      <trkpt lat="47.82241" lon="7.10787">
        <ele>487</ele>
        <time>2014-06-21T12:49:24Z</time>
      </trkpt>
      <trkpt lat="47.8223" lon="7.10807">
        <ele>482</ele>
        <time>2014-06-21T12:49:35Z</time>
      </trkpt>
      <trkpt lat="47.82228" lon="7.10811">
        <ele>482</ele>
        <time>2014-06-21T12:49:37Z</time>
      </trkpt>
      <trkpt lat="47.82225" lon="7.10815">
        <ele>481</ele>
        <time>2014-06-21T12:49:40Z</time>
      </trkpt>
      <trkpt lat="47.82223" lon="7.10817">
        <ele>481</ele>
        <time>2014-06-21T12:49:42Z</time>
      </trkpt>
      <trkpt lat="47.82215" lon="7.10825">
        <ele>481</ele>
        <time>2014-06-21T12:49:53Z</time>
      </trkpt>
      <trkpt lat="47.82207" lon="7.10835">
        <ele>462</ele>
        <time>2014-06-21T12:50:01Z</time>
      </trkpt>
      <trkpt lat="47.82193" lon="7.10848">
        <ele>462</ele>
        <time>2014-06-21T12:50:12Z</time>
      </trkpt>
      <trkpt lat="47.8219" lon="7.10852">
        <ele>461</ele>
        <time>2014-06-21T12:50:15Z</time>
      </trkpt>
      <trkpt lat="47.82179" lon="7.10865">
        <ele>459</ele>
        <time>2014-06-21T12:50:33Z</time>
      </trkpt>
      <trkpt lat="47.82173" lon="7.10867">
        <ele>459</ele>
        <time>2014-06-21T12:50:38Z</time>
      </trkpt>
      <trkpt lat="47.82153" lon="7.10881">
        <ele>451</ele>
        <time>2014-06-21T12:50:47Z</time>
      </trkpt>
      <trkpt lat="47.82145" lon="7.10889">
        <ele>449</ele>
        <time>2014-06-21T12:50:55Z</time>
      </trkpt>
      <trkpt lat="47.82134" lon="7.10894">
        <ele>448</ele>
        <time>2014-06-21T12:51:08Z</time>
      </trkpt>
      <trkpt lat="47.82127" lon="7.10898">
        <ele>447</ele>
        <time>2014-06-21T12:51:12Z</time>
      </trkpt>
      <trkpt lat="47.82115" lon="7.10905">
        <ele>445</ele>
        <time>2014-06-21T12:51:23Z</time>
      </trkpt>
      <trkpt lat="47.82102" lon="7.10905">
        <ele>443</ele>
        <time>2014-06-21T12:51:31Z</time>
      </trkpt>
      <trkpt lat="47.82092" lon="7.10903">
        <ele>441</ele>
        <time>2014-06-21T12:51:40Z</time>
      </trkpt>
      <trkpt lat="47.82079" lon="7.10904">
        <ele>434</ele>
        <time>2014-06-21T12:51:50Z</time>
      </trkpt>
      <trkpt lat="47.82067" lon="7.10903">
        <ele>434</ele>
        <time>2014-06-21T12:52:00Z</time>
      </trkpt>
      <trkpt lat="47.82064" lon="7.10902">
        <ele>434</ele>
        <time>2014-06-21T12:52:02Z</time>
      </trkpt>
      <trkpt lat="47.82061" lon="7.109">
        <ele>434</ele>
        <time>2014-06-21T12:52:05Z</time>
      </trkpt>
      <trkpt lat="47.82059" lon="7.10895">
        <ele>434</ele>
        <time>2014-06-21T12:52:08Z</time>
      </trkpt>
      <trkpt lat="47.82043" lon="7.10885">
        <ele>434</ele>
        <time>2014-06-21T12:52:19Z</time>
      </trkpt>
      <trkpt lat="47.82041" lon="7.10884">
        <ele>434</ele>
        <time>2014-06-21T12:52:21Z</time>
      </trkpt>
      <trkpt lat="47.82035" lon="7.1087">
        <ele>435</ele>
        <time>2014-06-21T12:52:31Z</time>
      </trkpt>
      <trkpt lat="47.82017" lon="7.10873">
        <ele>433</ele>
        <time>2014-06-21T12:52:44Z</time>
      </trkpt>
      <trkpt lat="47.82014" lon="7.10872">
        <ele>433</ele>
        <time>2014-06-21T12:52:50Z</time>
      </trkpt>
      <trkpt lat="47.82002" lon="7.10875">
        <ele>431</ele>
        <time>2014-06-21T12:52:59Z</time>
      </trkpt>
      <trkpt lat="47.81984" lon="7.10883">
        <ele>416</ele>
        <time>2014-06-21T12:53:10Z</time>
      </trkpt>
      <trkpt lat="47.81967" lon="7.10884">
        <ele>414</ele>
        <time>2014-06-21T12:53:20Z</time>
      </trkpt>
      <trkpt lat="47.81964" lon="7.10883">
        <ele>414</ele>
        <time>2014-06-21T12:53:23Z</time>
      </trkpt>
      <trkpt lat="47.81942" lon="7.10889">
        <ele>410</ele>
        <time>2014-06-21T12:53:34Z</time>
      </trkpt>
      <trkpt lat="47.81939" lon="7.10888">
        <ele>409</ele>
        <time>2014-06-21T12:53:36Z</time>
      </trkpt>
      <trkpt lat="47.81936" lon="7.10887">
        <ele>409</ele>
        <time>2014-06-21T12:53:39Z</time>
      </trkpt>
      <trkpt lat="47.81925" lon="7.1088">
        <ele>409</ele>
        <time>2014-06-21T12:53:50Z</time>
      </trkpt>
      <trkpt lat="47.81922" lon="7.1088">
        <ele>409</ele>
        <time>2014-06-21T12:53:52Z</time>
      </trkpt>
      <trkpt lat="47.81913" lon="7.10877">
        <ele>395</ele>
        <time>2014-06-21T12:54:01Z</time>
      </trkpt>
      <trkpt lat="47.81899" lon="7.10869">
        <ele>395</ele>
        <time>2014-06-21T12:54:13Z</time>
      </trkpt>
      <trkpt lat="47.81884" lon="7.10866">
        <ele>393</ele>
        <time>2014-06-21T12:54:21Z</time>
      </trkpt>
      <trkpt lat="47.81871" lon="7.10854">
        <ele>392</ele>
        <time>2014-06-21T12:54:33Z</time>
      </trkpt>
      <trkpt lat="47.81857" lon="7.10843">
        <ele>390</ele>
        <time>2014-06-21T12:54:44Z</time>
      </trkpt>
      <trkpt lat="47.81852" lon="7.10841">
        <ele>389</ele>
        <time>2014-06-21T12:54:52Z</time>
      </trkpt>
      <trkpt lat="47.81848" lon="7.10841">
        <ele>388</ele>
        <time>2014-06-21T12:54:55Z</time>
      </trkpt>
      <trkpt lat="47.81833" lon="7.1083">
        <ele>384</ele>
        <time>2014-06-21T12:55:06Z</time>
      </trkpt>
      <trkpt lat="47.81816" lon="7.10827">
        <ele>384</ele>
        <time>2014-06-21T12:55:15Z</time>
      </trkpt>
      <trkpt lat="47.81802" lon="7.10815">
        <ele>384</ele>
        <time>2014-06-21T12:55:27Z</time>
      </trkpt>
      <trkpt lat="47.81799" lon="7.10811">
        <ele>384</ele>
        <time>2014-06-21T12:55:30Z</time>
      </trkpt>
      <trkpt lat="47.81788" lon="7.10801">
        <ele>383</ele>
        <time>2014-06-21T12:55:42Z</time>
      </trkpt>
      <trkpt lat="47.81785" lon="7.10804">
        <ele>383</ele>
        <time>2014-06-21T12:55:47Z</time>
      </trkpt>
      <trkpt lat="47.81768" lon="7.10793">
        <ele>382</ele>
        <time>2014-06-21T12:55:57Z</time>
      </trkpt>
      <trkpt lat="47.8175" lon="7.10794">
        <ele>375</ele>
        <time>2014-06-21T12:56:08Z</time>
      </trkpt>
      <trkpt lat="47.81747" lon="7.10793">
        <ele>375</ele>
        <time>2014-06-21T12:56:11Z</time>
      </trkpt>
      <trkpt lat="47.81734" lon="7.10787">
        <ele>375</ele>
        <time>2014-06-21T12:56:21Z</time>
      </trkpt>
      <trkpt lat="47.81731" lon="7.10786">
        <ele>375</ele>
        <time>2014-06-21T12:56:23Z</time>
      </trkpt>
      <trkpt lat="47.81717" lon="7.10782">
        <ele>374</ele>
        <time>2014-06-21T12:56:32Z</time>
      </trkpt>
      <trkpt lat="47.81708" lon="7.10782">
        <ele>374</ele>
        <time>2014-06-21T12:56:39Z</time>
      </trkpt>
      <trkpt lat="47.81695" lon="7.10775">
        <ele>373</ele>
        <time>2014-06-21T12:56:52Z</time>
      </trkpt>
      <trkpt lat="47.81692" lon="7.10773">
        <ele>373</ele>
        <time>2014-06-21T12:56:55Z</time>
      </trkpt>
      <trkpt lat="47.81678" lon="7.10764">
        <ele>371</ele>
        <time>2014-06-21T12:57:05Z</time>
      </trkpt>
      <trkpt lat="47.81663" lon="7.10748">
        <ele>367</ele>
        <time>2014-06-21T12:57:17Z</time>
      </trkpt>
      <trkpt lat="47.81653" lon="7.10731">
        <ele>371</ele>
        <time>2014-06-21T12:57:27Z</time>
      </trkpt>
      <trkpt lat="47.81642" lon="7.10719">
        <ele>372</ele>
        <time>2014-06-21T12:57:37Z</time>
      </trkpt>
      <trkpt lat="47.81633" lon="7.10709">
        <ele>372</ele>
        <time>2014-06-21T12:57:47Z</time>
      </trkpt>
      <trkpt lat="47.8163" lon="7.10705">
        <ele>372</ele>
        <time>2014-06-21T12:57:50Z</time>
      </trkpt>
      <trkpt lat="47.8162" lon="7.10687">
        <ele>371</ele>
        <time>2014-06-21T12:58:02Z</time>
      </trkpt>
      <trkpt lat="47.81613" lon="7.10669">
        <ele>370</ele>
        <time>2014-06-21T12:58:12Z</time>
      </trkpt>
      <trkpt lat="47.8161" lon="7.10667">
        <ele>370</ele>
        <time>2014-06-21T12:58:14Z</time>
      </trkpt>
      <trkpt lat="47.81604" lon="7.10662">
        <ele>366</ele>
        <time>2014-06-21T12:58:18Z</time>
      </trkpt>
      <trkpt lat="47.8159" lon="7.10645">
        <ele>366</ele>
        <time>2014-06-21T12:58:29Z</time>
      </trkpt>
      <trkpt lat="47.81588" lon="7.10641">
        <ele>366</ele>
        <time>2014-06-21T12:58:31Z</time>
      </trkpt>
      <trkpt lat="47.8158" lon="7.10631">
        <ele>367</ele>
        <time>2014-06-21T12:58:41Z</time>
      </trkpt>
      <trkpt lat="47.81579" lon="7.10627">
        <ele>367</ele>
        <time>2014-06-21T12:58:43Z</time>
      </trkpt>
      <trkpt lat="47.81578" lon="7.10621">
        <ele>366</ele>
        <time>2014-06-21T12:58:45Z</time>
      </trkpt>
      <trkpt lat="47.81574" lon="7.10613">
        <ele>366</ele>
        <time>2014-06-21T12:58:49Z</time>
      </trkpt>
      <trkpt lat="47.81566" lon="7.10599">
        <ele>364</ele>
        <time>2014-06-21T12:58:58Z</time>
      </trkpt>
      <trkpt lat="47.81552" lon="7.10594">
        <ele>366</ele>
        <time>2014-06-21T12:59:10Z</time>
      </trkpt>
      <trkpt lat="47.81542" lon="7.1057">
        <ele>359</ele>
        <time>2014-06-21T12:59:20Z</time>
      </trkpt>
      <trkpt lat="47.8154" lon="7.10567">
        <ele>359</ele>
        <time>2014-06-21T12:59:22Z</time>
      </trkpt>
      <trkpt lat="47.81536" lon="7.10559">
        <ele>359</ele>
        <time>2014-06-21T12:59:27Z</time>
      </trkpt>
      <trkpt lat="47.81524" lon="7.1055">
        <ele>359</ele>
        <time>2014-06-21T12:59:37Z</time>
      </trkpt>
      <trkpt lat="47.81521" lon="7.10544">
        <ele>358</ele>
        <time>2014-06-21T12:59:40Z</time>
      </trkpt>
      <trkpt lat="47.81514" lon="7.10529">
        <ele>356</ele>
        <time>2014-06-21T12:59:49Z</time>
      </trkpt>
      <trkpt lat="47.815" lon="7.10516">
        <ele>354</ele>
        <time>2014-06-21T13:00:01Z</time>
      </trkpt>
      <trkpt lat="47.81497" lon="7.10515">
        <ele>354</ele>
        <time>2014-06-21T13:00:04Z</time>
      </trkpt>
      <trkpt lat="47.81483" lon="7.10511">
        <ele>355</ele>
        <time>2014-06-21T13:00:14Z</time>
      </trkpt>
      <trkpt lat="47.8148" lon="7.10509">
        <ele>355</ele>
        <time>2014-06-21T13:00:16Z</time>
      </trkpt>
      <trkpt lat="47.81473" lon="7.105">
        <ele>350</ele>
        <time>2014-06-21T13:00:26Z</time>
      </trkpt>
      <trkpt lat="47.81466" lon="7.10497">
        <ele>350</ele>
        <time>2014-06-21T13:00:30Z</time>
      </trkpt>
      <trkpt lat="47.81462" lon="7.10498">
        <ele>350</ele>
        <time>2014-06-21T13:00:32Z</time>
      </trkpt>
      <trkpt lat="47.81447" lon="7.10493">
        <ele>350</ele>
        <time>2014-06-21T13:00:43Z</time>
      </trkpt>
      <trkpt lat="47.81434" lon="7.10483">
        <ele>350</ele>
        <time>2014-06-21T13:00:55Z</time>
      </trkpt>
      <trkpt lat="47.81431" lon="7.10481">
        <ele>350</ele>
        <time>2014-06-21T13:00:57Z</time>
      </trkpt>
      <trkpt lat="47.81428" lon="7.10481">
        <ele>350</ele>
        <time>2014-06-21T13:01:01Z</time>
      </trkpt>
      <trkpt lat="47.81414" lon="7.10476">
        <ele>348</ele>
        <time>2014-06-21T13:01:09Z</time>
      </trkpt>
      <trkpt lat="47.81403" lon="7.10465">
        <ele>347</ele>
        <time>2014-06-21T13:01:20Z</time>
      </trkpt>
      <trkpt lat="47.81399" lon="7.10463">
        <ele>347</ele>
        <time>2014-06-21T13:01:23Z</time>
      </trkpt>
      <trkpt lat="47.81391" lon="7.1046">
        <ele>347</ele>
        <time>2014-06-21T13:01:29Z</time>
      </trkpt>
      <trkpt lat="47.81374" lon="7.10455">
        <ele>346</ele>
        <time>2014-06-21T13:01:40Z</time>
      </trkpt>
      <trkpt lat="47.81372" lon="7.10454">
        <ele>346</ele>
        <time>2014-06-21T13:01:42Z</time>
      </trkpt>
      <trkpt lat="47.81369" lon="7.10452">
        <ele>346</ele>
        <time>2014-06-21T13:01:44Z</time>
      </trkpt>
      <trkpt lat="47.81366" lon="7.1045">
        <ele>345</ele>
        <time>2014-06-21T13:01:46Z</time>
      </trkpt>
      <trkpt lat="47.81357" lon="7.10439">
        <ele>345</ele>
        <time>2014-06-21T13:01:59Z</time>
      </trkpt>
      <trkpt lat="47.81354" lon="7.10441">
        <ele>345</ele>
        <time>2014-06-21T13:02:02Z</time>
      </trkpt>
      <trkpt lat="47.8134" lon="7.10453">
        <ele>345</ele>
        <time>2014-06-21T13:02:12Z</time>
      </trkpt>
      <trkpt lat="47.81338" lon="7.10455">
        <ele>345</ele>
        <time>2014-06-21T13:02:18Z</time>
      </trkpt>
      <trkpt lat="47.81328" lon="7.10473">
        <ele>341</ele>
        <time>2014-06-21T13:02:28Z</time>
      </trkpt>
      <trkpt lat="47.81325" lon="7.10475">
        <ele>341</ele>
        <time>2014-06-21T13:02:29Z</time>
      </trkpt>
      <trkpt lat="47.81316" lon="7.10486">
        <ele>341</ele>
        <time>2014-06-21T13:02:34Z</time>
      </trkpt>
      <trkpt lat="47.81313" lon="7.10487">
        <ele>341</ele>
        <time>2014-06-21T13:02:36Z</time>
      </trkpt>
      <trkpt lat="47.81305" lon="7.10492">
        <ele>341</ele>
        <time>2014-06-21T13:02:46Z</time>
      </trkpt>
      <trkpt lat="47.81285" lon="7.10495">
        <ele>339</ele>
        <time>2014-06-21T13:02:56Z</time>
      </trkpt>
      <trkpt lat="47.81272" lon="7.10499">
        <ele>339</ele>
        <time>2014-06-21T13:03:05Z</time>
      </trkpt>
      <trkpt lat="47.81269" lon="7.10499">
        <ele>338</ele>
        <time>2014-06-21T13:03:09Z</time>
      </trkpt>
      <trkpt lat="47.81252" lon="7.10492">
        <ele>338</ele>
        <time>2014-06-21T13:03:21Z</time>
      </trkpt>
      <trkpt lat="47.81236" lon="7.10483">
        <ele>336</ele>
        <time>2014-06-21T13:03:33Z</time>
      </trkpt>
      <trkpt lat="47.81223" lon="7.1047">
        <ele>336</ele>
        <time>2014-06-21T13:03:43Z</time>
      </trkpt>
      <trkpt lat="47.8122" lon="7.10469">
        <ele>335</ele>
        <time>2014-06-21T13:03:45Z</time>
      </trkpt>
      <trkpt lat="47.81216" lon="7.10469">
        <ele>335</ele>
        <time>2014-06-21T13:03:47Z</time>
      </trkpt>
      <trkpt lat="47.81213" lon="7.1047">
        <ele>335</ele>
        <time>2014-06-21T13:03:49Z</time>
      </trkpt>
      <trkpt lat="47.8121" lon="7.1047">
        <ele>335</ele>
        <time>2014-06-21T13:03:51Z</time>
      </trkpt>
      <trkpt lat="47.81196" lon="7.1047">
        <ele>335</ele>
        <time>2014-06-21T13:04:00Z</time>
      </trkpt>
      <trkpt lat="47.81183" lon="7.10467">
        <ele>335</ele>
        <time>2014-06-21T13:04:12Z</time>
      </trkpt>
      <trkpt lat="47.81174" lon="7.10463">
        <ele>335</ele>
        <time>2014-06-21T13:04:22Z</time>
      </trkpt>
      <trkpt lat="47.81173" lon="7.10454">
        <ele>335</ele>
        <time>2014-06-21T13:04:28Z</time>
      </trkpt>
      <trkpt lat="47.81171" lon="7.1044">
        <ele>335</ele>
        <time>2014-06-21T13:04:37Z</time>
      </trkpt>
      <trkpt lat="47.81168" lon="7.10432">
        <ele>335</ele>
        <time>2014-06-21T13:04:42Z</time>
      </trkpt>
      <trkpt lat="47.81159" lon="7.10413">
        <ele>335</ele>
        <time>2014-06-21T13:04:52Z</time>
      </trkpt>
      <trkpt lat="47.81157" lon="7.10408">
        <ele>335</ele>
        <time>2014-06-21T13:04:54Z</time>
      </trkpt>
      <trkpt lat="47.81147" lon="7.10385">
        <ele>335</ele>
        <time>2014-06-21T13:05:04Z</time>
      </trkpt>
      <trkpt lat="47.81141" lon="7.10362">
        <ele>336</ele>
        <time>2014-06-21T13:05:15Z</time>
      </trkpt>
      <trkpt lat="47.81126" lon="7.10352">
        <ele>336</ele>
        <time>2014-06-21T13:05:25Z</time>
      </trkpt>
      <trkpt lat="47.81124" lon="7.10349">
        <ele>336</ele>
        <time>2014-06-21T13:05:27Z</time>
      </trkpt>
      <trkpt lat="47.81121" lon="7.10345">
        <ele>336</ele>
        <time>2014-06-21T13:05:30Z</time>
      </trkpt>
      <trkpt lat="47.81109" lon="7.10332">
        <ele>337</ele>
        <time>2014-06-21T13:05:41Z</time>
      </trkpt>
      <trkpt lat="47.81103" lon="7.10327">
        <ele>337</ele>
        <time>2014-06-21T13:05:46Z</time>
      </trkpt>
      <trkpt lat="47.81093" lon="7.10316">
        <ele>337</ele>
        <time>2014-06-21T13:05:57Z</time>
      </trkpt>
      <trkpt lat="47.81079" lon="7.10306">
        <ele>337</ele>
        <time>2014-06-21T13:06:08Z</time>
      </trkpt>
      <trkpt lat="47.81075" lon="7.10307">
        <ele>337</ele>
        <time>2014-06-21T13:06:10Z</time>
      </trkpt>
      <trkpt lat="47.81072" lon="7.10299">
        <ele>337</ele>
        <time>2014-06-21T13:06:14Z</time>
      </trkpt>
      <trkpt lat="47.81068" lon="7.10276">
        <ele>337</ele>
        <time>2014-06-21T13:06:25Z</time>
      </trkpt>
      <trkpt lat="47.81055" lon="7.10271">
        <ele>337</ele>
        <time>2014-06-21T13:06:34Z</time>
      </trkpt>
      <trkpt lat="47.81052" lon="7.10268">
        <ele>337</ele>
        <time>2014-06-21T13:06:36Z</time>
      </trkpt>
      <trkpt lat="47.81041" lon="7.10252">
        <ele>338</ele>
        <time>2014-06-21T13:06:47Z</time>
      </trkpt>
      <trkpt lat="47.81037" lon="7.10246">
        <ele>339</ele>
        <time>2014-06-21T13:06:51Z</time>
      </trkpt>
      <trkpt lat="47.81034" lon="7.10244">
        <ele>339</ele>
        <time>2014-06-21T13:06:53Z</time>
      </trkpt>
      <trkpt lat="47.81028" lon="7.1024">
        <ele>339</ele>
        <time>2014-06-21T13:06:58Z</time>
      </trkpt>
      <trkpt lat="47.81014" lon="7.10234">
        <ele>339</ele>
        <time>2014-06-21T13:07:08Z</time>
      </trkpt>
      <trkpt lat="47.81002" lon="7.10222">
        <ele>339</ele>
        <time>2014-06-21T13:07:19Z</time>
      </trkpt>
      <trkpt lat="47.80991" lon="7.1021">
        <ele>340</ele>
        <time>2014-06-21T13:07:29Z</time>
      </trkpt>
      <trkpt lat="47.80986" lon="7.10199">
        <ele>341</ele>
        <time>2014-06-21T13:08:09Z</time>
      </trkpt>
      <trkpt lat="47.8098" lon="7.10192">
        <ele>341</ele>
        <time>2014-06-21T13:08:14Z</time>
      </trkpt>
      <trkpt lat="47.80978" lon="7.10193">
        <ele>341</ele>
        <time>2014-06-21T13:08:17Z</time>
      </trkpt>
      <trkpt lat="47.80971" lon="7.10201">
        <ele>341</ele>
        <time>2014-06-21T13:08:27Z</time>
      </trkpt>
      <trkpt lat="47.8097" lon="7.10184">
        <ele>341</ele>
        <time>2014-06-21T13:08:39Z</time>
      </trkpt>
      <trkpt lat="47.8097" lon="7.10163">
        <ele>343</ele>
        <time>2014-06-21T13:08:49Z</time>
      </trkpt>
      <trkpt lat="47.80973" lon="7.10142">
        <ele>344</ele>
        <time>2014-06-21T13:08:59Z</time>
      </trkpt>
      <trkpt lat="47.80969" lon="7.1013">
        <ele>344</ele>
        <time>2014-06-21T13:09:08Z</time>
      </trkpt>
      <trkpt lat="47.8096" lon="7.10124">
        <ele>344</ele>
        <time>2014-06-21T13:09:20Z</time>
      </trkpt>
      <trkpt lat="47.80965" lon="7.10106">
        <ele>345</ele>
        <time>2014-06-21T13:09:32Z</time>
      </trkpt>
      <trkpt lat="47.80963" lon="7.10098">
        <ele>345</ele>
        <time>2014-06-21T13:09:42Z</time>
      </trkpt>
      <trkpt lat="47.80968" lon="7.10078">
        <ele>351</ele>
        <time>2014-06-21T13:09:52Z</time>
      </trkpt>
      <trkpt lat="47.80973" lon="7.10059">
        <ele>353</ele>
        <time>2014-06-21T13:10:02Z</time>
      </trkpt>
      <trkpt lat="47.80967" lon="7.1005">
        <ele>354</ele>
        <time>2014-06-21T13:10:09Z</time>
      </trkpt>
      <trkpt lat="47.80964" lon="7.10052">
        <ele>353</ele>
        <time>2014-06-21T13:10:11Z</time>
      </trkpt>
      <trkpt lat="47.80962" lon="7.10054">
        <ele>353</ele>
        <time>2014-06-21T13:10:12Z</time>
      </trkpt>
      <trkpt lat="47.80959" lon="7.10054">
        <ele>353</ele>
        <time>2014-06-21T13:10:14Z</time>
      </trkpt>
      <trkpt lat="47.80955" lon="7.10053">
        <ele>353</ele>
        <time>2014-06-21T13:10:17Z</time>
      </trkpt>
      <trkpt lat="47.80943" lon="7.10048">
        <ele>354</ele>
        <time>2014-06-21T13:10:27Z</time>
      </trkpt>
      <trkpt lat="47.80936" lon="7.10037">
        <ele>355</ele>
        <time>2014-06-21T13:10:37Z</time>
      </trkpt>
      <trkpt lat="47.80936" lon="7.10033">
        <ele>355</ele>
        <time>2014-06-21T13:10:39Z</time>
      </trkpt>
      <trkpt lat="47.80927" lon="7.10023">
        <ele>357</ele>
        <time>2014-06-21T13:10:55Z</time>
      </trkpt>
      <trkpt lat="47.80922" lon="7.10018">
        <ele>358</ele>
        <time>2014-06-21T13:11:02Z</time>
      </trkpt>
      <trkpt lat="47.80917" lon="7.10011">
        <ele>359</ele>
        <time>2014-06-21T13:11:09Z</time>
      </trkpt>
      <trkpt lat="47.80908" lon="7.10003">
        <ele>358</ele>
        <time>2014-06-21T13:11:19Z</time>
      </trkpt>
      <trkpt lat="47.809" lon="7.09996">
        <ele>366</ele>
        <time>2014-06-21T13:11:29Z</time>
      </trkpt>
      <trkpt lat="47.80895" lon="7.09991">
        <ele>367</ele>
        <time>2014-06-21T13:11:35Z</time>
      </trkpt>
      <trkpt lat="47.80884" lon="7.09982">
        <ele>369</ele>
        <time>2014-06-21T13:11:45Z</time>
      </trkpt>
      <trkpt lat="47.80882" lon="7.09981">
        <ele>369</ele>
        <time>2014-06-21T13:11:47Z</time>
      </trkpt>
      <trkpt lat="47.80873" lon="7.09974">
        <ele>370</ele>
        <time>2014-06-21T13:11:57Z</time>
      </trkpt>
      <trkpt lat="47.80869" lon="7.09967">
        <ele>371</ele>
        <time>2014-06-21T13:12:03Z</time>
      </trkpt>
      <trkpt lat="47.80862" lon="7.09962">
        <ele>371</ele>
        <time>2014-06-21T13:12:13Z</time>
      </trkpt>
      <trkpt lat="47.80859" lon="7.0996">
        <ele>371</ele>
        <time>2014-06-21T13:12:31Z</time>
      </trkpt>
      <trkpt lat="47.80852" lon="7.09944">
        <ele>374</ele>
        <time>2014-06-21T13:12:42Z</time>
      </trkpt>
      <trkpt lat="47.80845" lon="7.09941">
        <ele>375</ele>
        <time>2014-06-21T13:12:46Z</time>
      </trkpt>
      <trkpt lat="47.80843" lon="7.09939">
        <ele>376</ele>
        <time>2014-06-21T13:12:48Z</time>
      </trkpt>
      <trkpt lat="47.8083" lon="7.09925">
        <ele>377</ele>
        <time>2014-06-21T13:12:59Z</time>
      </trkpt>
      <trkpt lat="47.80823" lon="7.0992">
        <ele>377</ele>
        <time>2014-06-21T13:13:05Z</time>
      </trkpt>
      <trkpt lat="47.80813" lon="7.09905">
        <ele>387</ele>
        <time>2014-06-21T13:13:17Z</time>
      </trkpt>
      <trkpt lat="47.80811" lon="7.09903">
        <ele>387</ele>
        <time>2014-06-21T13:13:19Z</time>
      </trkpt>
      <trkpt lat="47.80806" lon="7.09899">
        <ele>388</ele>
        <time>2014-06-21T13:13:26Z</time>
      </trkpt>
      <trkpt lat="47.80798" lon="7.09901">
        <ele>387</ele>
        <time>2014-06-21T13:13:32Z</time>
      </trkpt>
      <trkpt lat="47.80784" lon="7.09904">
        <ele>385</ele>
        <time>2014-06-21T13:13:43Z</time>
      </trkpt>
      <trkpt lat="47.80773" lon="7.099">
        <ele>384</ele>
        <time>2014-06-21T13:13:50Z</time>
      </trkpt>
      <trkpt lat="47.80761" lon="7.09896">
        <ele>382</ele>
        <time>2014-06-21T13:13:59Z</time>
      </trkpt>
      <trkpt lat="47.80757" lon="7.09889">
        <ele>384</ele>
        <time>2014-06-21T13:14:06Z</time>
      </trkpt>
      <trkpt lat="47.80744" lon="7.09883">
        <ele>372</ele>
        <time>2014-06-21T13:14:17Z</time>
      </trkpt>
      <trkpt lat="47.80742" lon="7.09879">
        <ele>373</ele>
        <time>2014-06-21T13:14:20Z</time>
      </trkpt>
      <trkpt lat="47.80741" lon="7.09875">
        <ele>373</ele>
        <time>2014-06-21T13:14:22Z</time>
      </trkpt>
      <trkpt lat="47.80738" lon="7.09872">
        <ele>374</ele>
        <time>2014-06-21T13:14:24Z</time>
      </trkpt>
      <trkpt lat="47.80727" lon="7.09856">
        <ele>375</ele>
        <time>2014-06-21T13:14:35Z</time>
      </trkpt>
      <trkpt lat="47.80728" lon="7.09852">
        <ele>376</ele>
        <time>2014-06-21T13:14:36Z</time>
      </trkpt>
      <trkpt lat="47.80724" lon="7.09831">
        <ele>386</ele>
        <time>2014-06-21T13:14:48Z</time>
      </trkpt>
      <trkpt lat="47.80715" lon="7.09809">
        <ele>386</ele>
        <time>2014-06-21T13:15:01Z</time>
      </trkpt>
      <trkpt lat="47.80711" lon="7.09789">
        <ele>387</ele>
        <time>2014-06-21T13:15:10Z</time>
      </trkpt>
      <trkpt lat="47.80711" lon="7.0978">
        <ele>388</ele>
        <time>2014-06-21T13:15:15Z</time>
      </trkpt>
      <trkpt lat="47.80707" lon="7.09766">
        <ele>388</ele>
        <time>2014-06-21T13:15:25Z</time>
      </trkpt>
      <trkpt lat="47.80706" lon="7.09749">
        <ele>399</ele>
        <time>2014-06-21T13:15:35Z</time>
      </trkpt>
      <trkpt lat="47.80706" lon="7.0974">
        <ele>400</ele>
        <time>2014-06-21T13:15:39Z</time>
      </trkpt>
      <trkpt lat="47.80704" lon="7.0972">
        <ele>401</ele>
        <time>2014-06-21T13:15:50Z</time>
      </trkpt>
      <trkpt lat="47.80704" lon="7.09715">
        <ele>402</ele>
        <time>2014-06-21T13:15:53Z</time>
      </trkpt>
      <trkpt lat="47.80701" lon="7.09696">
        <ele>403</ele>
        <time>2014-06-21T13:16:06Z</time>
      </trkpt>
      <trkpt lat="47.807" lon="7.09691">
        <ele>403</ele>
        <time>2014-06-21T13:16:11Z</time>
      </trkpt>
      <trkpt lat="47.80692" lon="7.09675">
        <ele>400</ele>
        <time>2014-06-21T13:16:22Z</time>
      </trkpt>
      <trkpt lat="47.80692" lon="7.09656">
        <ele>410</ele>
        <time>2014-06-21T13:16:33Z</time>
      </trkpt>
      <trkpt lat="47.8069" lon="7.09653">
        <ele>409</ele>
        <time>2014-06-21T13:16:37Z</time>
      </trkpt>
      <trkpt lat="47.8069" lon="7.09634">
        <ele>413</ele>
        <time>2014-06-21T13:16:49Z</time>
      </trkpt>
      <trkpt lat="47.80689" lon="7.09629">
        <ele>413</ele>
        <time>2014-06-21T13:16:52Z</time>
      </trkpt>
      <trkpt lat="47.80683" lon="7.09611">
        <ele>414</ele>
        <time>2014-06-21T13:17:02Z</time>
      </trkpt>
      <trkpt lat="47.80683" lon="7.09606">
        <ele>413</ele>
        <time>2014-06-21T13:17:04Z</time>
      </trkpt>
      <trkpt lat="47.80683" lon="7.09596">
        <ele>413</ele>
        <time>2014-06-21T13:17:16Z</time>
      </trkpt>
      <trkpt lat="47.80681" lon="7.09594">
        <ele>412</ele>
        <time>2014-06-21T13:17:28Z</time>
      </trkpt>
      <trkpt lat="47.8068" lon="7.09588">
        <ele>411</ele>
        <time>2014-06-21T13:17:30Z</time>
      </trkpt>
      <trkpt lat="47.80678" lon="7.09564">
        <ele>418</ele>
        <time>2014-06-21T13:17:41Z</time>
      </trkpt>
      <trkpt lat="47.80674" lon="7.09543">
        <ele>422</ele>
        <time>2014-06-21T13:17:53Z</time>
      </trkpt>
      <trkpt lat="47.80674" lon="7.09521">
        <ele>420</ele>
        <time>2014-06-21T13:18:05Z</time>
      </trkpt>
      <trkpt lat="47.80675" lon="7.09501">
        <ele>416</ele>
        <time>2014-06-21T13:18:17Z</time>
      </trkpt>
      <trkpt lat="47.80679" lon="7.09476">
        <ele>424</ele>
        <time>2014-06-21T13:18:27Z</time>
      </trkpt>
      <trkpt lat="47.80691" lon="7.09457">
        <ele>427</ele>
        <time>2014-06-21T13:18:39Z</time>
      </trkpt>
      <trkpt lat="47.80693" lon="7.09453">
        <ele>428</ele>
        <time>2014-06-21T13:18:41Z</time>
      </trkpt>
      <trkpt lat="47.80693" lon="7.09435">
        <ele>427</ele>
        <time>2014-06-21T13:18:51Z</time>
      </trkpt>
      <trkpt lat="47.80694" lon="7.09431">
        <ele>426</ele>
        <time>2014-06-21T13:18:53Z</time>
      </trkpt>
      <trkpt lat="47.80694" lon="7.09418">
        <ele>426</ele>
        <time>2014-06-21T13:19:05Z</time>
      </trkpt>
      <trkpt lat="47.80695" lon="7.09414">
        <ele>425</ele>
        <time>2014-06-21T13:19:08Z</time>
      </trkpt>
      <trkpt lat="47.80697" lon="7.09398">
        <ele>426</ele>
        <time>2014-06-21T13:19:17Z</time>
      </trkpt>
      <trkpt lat="47.80697" lon="7.09379">
        <ele>426</ele>
        <time>2014-06-21T13:19:29Z</time>
      </trkpt>
      <trkpt lat="47.80699" lon="7.09376">
        <ele>427</ele>
        <time>2014-06-21T13:19:35Z</time>
      </trkpt>
      <trkpt lat="47.80702" lon="7.09366">
        <ele>427</ele>
        <time>2014-06-21T13:19:39Z</time>
      </trkpt>
      <trkpt lat="47.80707" lon="7.09342">
        <ele>428</ele>
        <time>2014-06-21T13:19:50Z</time>
      </trkpt>
      <trkpt lat="47.80706" lon="7.09325">
        <ele>423</ele>
        <time>2014-06-21T13:20:02Z</time>
      </trkpt>
      <trkpt lat="47.80709" lon="7.09321">
        <ele>424</ele>
        <time>2014-06-21T13:20:05Z</time>
      </trkpt>
      <trkpt lat="47.80712" lon="7.09318">
        <ele>425</ele>
        <time>2014-06-21T13:20:07Z</time>
      </trkpt>
      <trkpt lat="47.80715" lon="7.09314">
        <ele>426</ele>
        <time>2014-06-21T13:20:09Z</time>
      </trkpt>
      <trkpt lat="47.80721" lon="7.09303">
        <ele>427</ele>
        <time>2014-06-21T13:20:18Z</time>
      </trkpt>
      <trkpt lat="47.8072" lon="7.09299">
        <ele>426</ele>
        <time>2014-06-21T13:20:22Z</time>
      </trkpt>
      <trkpt lat="47.80731" lon="7.0928">
        <ele>428</ele>
        <time>2014-06-21T13:20:32Z</time>
      </trkpt>
      <trkpt lat="47.8073" lon="7.09275">
        <ele>428</ele>
        <time>2014-06-21T13:20:35Z</time>
      </trkpt>
      <trkpt lat="47.8073" lon="7.09271">
        <ele>428</ele>
        <time>2014-06-21T13:20:38Z</time>
      </trkpt>
      <trkpt lat="47.80733" lon="7.09261">
        <ele>430</ele>
        <time>2014-06-21T13:20:43Z</time>
      </trkpt>
      <trkpt lat="47.80739" lon="7.09242">
        <ele>429</ele>
        <time>2014-06-21T13:20:54Z</time>
      </trkpt>
      <trkpt lat="47.80744" lon="7.09224">
        <ele>424</ele>
        <time>2014-06-21T13:21:04Z</time>
      </trkpt>
      <trkpt lat="47.80749" lon="7.09204">
        <ele>421</ele>
        <time>2014-06-21T13:21:15Z</time>
      </trkpt>
      <trkpt lat="47.80756" lon="7.09181">
        <ele>443</ele>
        <time>2014-06-21T13:21:26Z</time>
      </trkpt>
      <trkpt lat="47.80756" lon="7.09176">
        <ele>441</ele>
        <time>2014-06-21T13:21:29Z</time>
      </trkpt>
      <trkpt lat="47.80762" lon="7.09164">
        <ele>436</ele>
        <time>2014-06-21T13:21:36Z</time>
      </trkpt>
      <trkpt lat="47.80769" lon="7.09153">
        <ele>439</ele>
        <time>2014-06-21T13:21:47Z</time>
      </trkpt>
      <trkpt lat="47.80771" lon="7.09149">
        <ele>440</ele>
        <time>2014-06-21T13:21:50Z</time>
      </trkpt>
      <trkpt lat="47.8078" lon="7.09134">
        <ele>442</ele>
        <time>2014-06-21T13:22:03Z</time>
      </trkpt>
      <trkpt lat="47.80784" lon="7.09125">
        <ele>442</ele>
        <time>2014-06-21T13:22:10Z</time>
      </trkpt>
      <trkpt lat="47.80792" lon="7.09115">
        <ele>443</ele>
        <time>2014-06-21T13:22:20Z</time>
      </trkpt>
      <trkpt lat="47.80795" lon="7.09112">
        <ele>444</ele>
        <time>2014-06-21T13:22:30Z</time>
      </trkpt>
      <trkpt lat="47.80802" lon="7.09099">
        <ele>445</ele>
        <time>2014-06-21T13:22:43Z</time>
      </trkpt>
      <trkpt lat="47.80804" lon="7.09096">
        <ele>446</ele>
        <time>2014-06-21T13:22:45Z</time>
      </trkpt>
      <trkpt lat="47.80805" lon="7.09092">
        <ele>446</ele>
        <time>2014-06-21T13:22:47Z</time>
      </trkpt>
      <trkpt lat="47.80816" lon="7.09076">
        <ele>443</ele>
        <time>2014-06-21T13:22:59Z</time>
      </trkpt>
      <trkpt lat="47.80819" lon="7.09074">
        <ele>444</ele>
        <time>2014-06-21T13:23:01Z</time>
      </trkpt>
      <trkpt lat="47.80821" lon="7.0907">
        <ele>444</ele>
        <time>2014-06-21T13:23:03Z</time>
      </trkpt>
      <trkpt lat="47.80823" lon="7.09066">
        <ele>443</ele>
        <time>2014-06-21T13:23:14Z</time>
      </trkpt>
      <trkpt lat="47.80833" lon="7.09049">
        <ele>439</ele>
        <time>2014-06-21T13:23:25Z</time>
      </trkpt>
      <trkpt lat="47.80838" lon="7.09034">
        <ele>460</ele>
        <time>2014-06-21T13:23:44Z</time>
      </trkpt>
      <trkpt lat="47.80845" lon="7.09025">
        <ele>459</ele>
        <time>2014-06-21T13:23:54Z</time>
      </trkpt>
      <trkpt lat="47.80847" lon="7.09022">
        <ele>459</ele>
        <time>2014-06-21T13:24:00Z</time>
      </trkpt>
      <trkpt lat="47.80853" lon="7.09017">
        <ele>459</ele>
        <time>2014-06-21T13:24:06Z</time>
      </trkpt>
      <trkpt lat="47.8086" lon="7.09009">
        <ele>460</ele>
        <time>2014-06-21T13:24:17Z</time>
      </trkpt>
      <trkpt lat="47.80866" lon="7.09001">
        <ele>462</ele>
        <time>2014-06-21T13:24:23Z</time>
      </trkpt>
      <trkpt lat="47.80877" lon="7.0899">
        <ele>458</ele>
        <time>2014-06-21T13:24:35Z</time>
      </trkpt>
      <trkpt lat="47.80886" lon="7.08983">
        <ele>460</ele>
        <time>2014-06-21T13:24:42Z</time>
      </trkpt>
      <trkpt lat="47.80895" lon="7.08968">
        <ele>460</ele>
        <time>2014-06-21T13:24:53Z</time>
      </trkpt>
      <trkpt lat="47.80903" lon="7.08958">
        <ele>460</ele>
        <time>2014-06-21T13:25:03Z</time>
      </trkpt>
      <trkpt lat="47.80907" lon="7.08953">
        <ele>460</ele>
        <time>2014-06-21T13:25:15Z</time>
      </trkpt>
      <trkpt lat="47.80916" lon="7.08946">
        <ele>461</ele>
        <time>2014-06-21T13:25:26Z</time>
      </trkpt>
      <trkpt lat="47.8092" lon="7.08945">
        <ele>472</ele>
        <time>2014-06-21T13:25:29Z</time>
      </trkpt>
      <trkpt lat="47.80925" lon="7.08946">
        <ele>472</ele>
        <time>2014-06-21T13:25:34Z</time>
      </trkpt>
      <trkpt lat="47.80929" lon="7.08945">
        <ele>472</ele>
        <time>2014-06-21T13:25:36Z</time>
      </trkpt>
      <trkpt lat="47.80933" lon="7.08942">
        <ele>472</ele>
        <time>2014-06-21T13:25:39Z</time>
      </trkpt>
      <trkpt lat="47.80943" lon="7.08938">
        <ele>472</ele>
        <time>2014-06-21T13:25:49Z</time>
      </trkpt>
      <trkpt lat="47.80946" lon="7.08937">
        <ele>472</ele>
        <time>2014-06-21T13:25:51Z</time>
      </trkpt>
      <trkpt lat="47.80951" lon="7.08936">
        <ele>473</ele>
        <time>2014-06-21T13:26:06Z</time>
      </trkpt>
      <trkpt lat="47.80952" lon="7.08941">
        <ele>473</ele>
        <time>2014-06-21T13:26:12Z</time>
      </trkpt>
      <trkpt lat="47.80959" lon="7.0896">
        <ele>474</ele>
        <time>2014-06-21T13:26:23Z</time>
      </trkpt>
      <trkpt lat="47.80961" lon="7.08962">
        <ele>474</ele>
        <time>2014-06-21T13:26:35Z</time>
      </trkpt>
      <trkpt lat="47.80966" lon="7.08966">
        <ele>474</ele>
        <time>2014-06-21T13:26:48Z</time>
      </trkpt>
      <trkpt lat="47.80979" lon="7.08952">
        <ele>474</ele>
        <time>2014-06-21T13:26:58Z</time>
      </trkpt>
      <trkpt lat="47.80989" lon="7.08947">
        <ele>475</ele>
        <time>2014-06-21T13:27:18Z</time>
      </trkpt>
      <trkpt lat="47.80996" lon="7.08944">
        <ele>475</ele>
        <time>2014-06-21T13:27:24Z</time>
      </trkpt>
      <trkpt lat="47.81002" lon="7.08939">
        <ele>475</ele>
        <time>2014-06-21T13:27:28Z</time>
      </trkpt>
      <trkpt lat="47.81015" lon="7.08918">
        <ele>475</ele>
        <time>2014-06-21T13:27:40Z</time>
      </trkpt>
      <trkpt lat="47.81017" lon="7.08915">
        <ele>477</ele>
        <time>2014-06-21T13:27:42Z</time>
      </trkpt>
      <trkpt lat="47.81027" lon="7.08901">
        <ele>477</ele>
        <time>2014-06-21T13:27:54Z</time>
      </trkpt>
      <trkpt lat="47.81034" lon="7.08891">
        <ele>477</ele>
        <time>2014-06-21T13:28:05Z</time>
      </trkpt>
      <trkpt lat="47.81037" lon="7.08887">
        <ele>477</ele>
        <time>2014-06-21T13:28:08Z</time>
      </trkpt>
      <trkpt lat="47.81039" lon="7.08883">
        <ele>477</ele>
        <time>2014-06-21T13:28:10Z</time>
      </trkpt>
      <trkpt lat="47.81044" lon="7.0887">
        <ele>477</ele>
        <time>2014-06-21T13:28:21Z</time>
      </trkpt>
      <trkpt lat="47.81046" lon="7.08861">
        <ele>477</ele>
        <time>2014-06-21T13:28:26Z</time>
      </trkpt>
      <trkpt lat="47.81047" lon="7.08851">
        <ele>477</ele>
        <time>2014-06-21T13:28:33Z</time>
      </trkpt>
      <trkpt lat="47.81052" lon="7.08838">
        <ele>478</ele>
        <time>2014-06-21T13:28:43Z</time>
      </trkpt>
      <trkpt lat="47.81054" lon="7.08834">
        <ele>479</ele>
        <time>2014-06-21T13:28:45Z</time>
      </trkpt>
      <trkpt lat="47.81059" lon="7.08815">
        <ele>477</ele>
        <time>2014-06-21T13:28:55Z</time>
      </trkpt>
      <trkpt lat="47.81061" lon="7.08811">
        <ele>476</ele>
        <time>2014-06-21T13:28:57Z</time>
      </trkpt>
      <trkpt lat="47.81062" lon="7.08806">
        <ele>476</ele>
        <time>2014-06-21T13:29:00Z</time>
      </trkpt>
      <trkpt lat="47.81067" lon="7.08788">
        <ele>476</ele>
        <time>2014-06-21T13:29:15Z</time>
      </trkpt>
      <trkpt lat="47.8107" lon="7.08784">
        <ele>476</ele>
        <time>2014-06-21T13:29:17Z</time>
      </trkpt>
      <trkpt lat="47.81077" lon="7.08762">
        <ele>478</ele>
        <time>2014-06-21T13:29:27Z</time>
      </trkpt>
      <trkpt lat="47.81078" lon="7.08758">
        <ele>479</ele>
        <time>2014-06-21T13:29:28Z</time>
      </trkpt>
      <trkpt lat="47.81082" lon="7.08742">
        <ele>479</ele>
        <time>2014-06-21T13:29:34Z</time>
      </trkpt>
      <trkpt lat="47.81083" lon="7.08727">
        <ele>476</ele>
        <time>2014-06-21T13:29:44Z</time>
      </trkpt>
      <trkpt lat="47.81089" lon="7.08702">
        <ele>475</ele>
        <time>2014-06-21T13:29:55Z</time>
      </trkpt>
      <trkpt lat="47.8109" lon="7.08698">
        <ele>475</ele>
        <time>2014-06-21T13:29:57Z</time>
      </trkpt>
      <trkpt lat="47.81091" lon="7.08689">
        <ele>475</ele>
        <time>2014-06-21T13:30:11Z</time>
      </trkpt>
      <trkpt lat="47.81094" lon="7.08679">
        <ele>476</ele>
        <time>2014-06-21T13:30:15Z</time>
      </trkpt>
      <trkpt lat="47.81098" lon="7.08651">
        <ele>480</ele>
        <time>2014-06-21T13:30:26Z</time>
      </trkpt>
      <trkpt lat="47.81102" lon="7.08636">
        <ele>480</ele>
        <time>2014-06-21T13:30:32Z</time>
      </trkpt>
      <trkpt lat="47.81103" lon="7.08632">
        <ele>481</ele>
        <time>2014-06-21T13:30:34Z</time>
      </trkpt>
      <trkpt lat="47.81106" lon="7.08606">
        <ele>482</ele>
        <time>2014-06-21T13:30:46Z</time>
      </trkpt>
      <trkpt lat="47.81102" lon="7.08603">
        <ele>483</ele>
        <time>2014-06-21T13:30:50Z</time>
      </trkpt>
      <trkpt lat="47.81095" lon="7.08582">
        <ele>490</ele>
        <time>2014-06-21T13:31:00Z</time>
      </trkpt>
      <trkpt lat="47.81092" lon="7.08567">
        <ele>492</ele>
        <time>2014-06-21T13:31:11Z</time>
      </trkpt>
      <trkpt lat="47.81097" lon="7.08562">
        <ele>492</ele>
        <time>2014-06-21T13:31:13Z</time>
      </trkpt>
      <trkpt lat="47.81097" lon="7.08558">
        <ele>493</ele>
        <time>2014-06-21T13:31:17Z</time>
      </trkpt>
      <trkpt lat="47.81103" lon="7.08549">
        <ele>494</ele>
        <time>2014-06-21T13:31:31Z</time>
      </trkpt>
      <trkpt lat="47.81105" lon="7.08547">
        <ele>494</ele>
        <time>2014-06-21T13:31:34Z</time>
      </trkpt>
      <trkpt lat="47.81105" lon="7.08541">
        <ele>495</ele>
        <time>2014-06-21T13:31:48Z</time>
      </trkpt>
      <trkpt lat="47.81105" lon="7.08534">
        <ele>495</ele>
        <time>2014-06-21T13:31:50Z</time>
      </trkpt>
      <trkpt lat="47.81109" lon="7.08525">
        <ele>496</ele>
        <time>2014-06-21T13:31:52Z</time>
      </trkpt>
      <trkpt lat="47.81111" lon="7.08521">
        <ele>497</ele>
        <time>2014-06-21T13:31:53Z</time>
      </trkpt>
      <trkpt lat="47.81114" lon="7.08514">
        <ele>497</ele>
        <time>2014-06-21T13:31:55Z</time>
      </trkpt>
      <trkpt lat="47.8113" lon="7.08467">
        <ele>515</ele>
        <time>2014-06-21T13:32:05Z</time>
      </trkpt>
      <trkpt lat="47.8113" lon="7.08462">
        <ele>515</ele>
        <time>2014-06-21T13:32:06Z</time>
      </trkpt>
      <trkpt lat="47.81131" lon="7.08457">
        <ele>516</ele>
        <time>2014-06-21T13:32:07Z</time>
      </trkpt>
      <trkpt lat="47.81131" lon="7.08453">
        <ele>517</ele>
        <time>2014-06-21T13:32:08Z</time>
      </trkpt>
      <trkpt lat="47.81129" lon="7.08449">
        <ele>517</ele>
        <time>2014-06-21T13:32:09Z</time>
      </trkpt>
      <trkpt lat="47.81127" lon="7.08444">
        <ele>518</ele>
        <time>2014-06-21T13:32:11Z</time>
      </trkpt>
      <trkpt lat="47.81122" lon="7.08443">
        <ele>518</ele>
        <time>2014-06-21T13:32:13Z</time>
      </trkpt>
      <trkpt lat="47.81119" lon="7.08443">
        <ele>518</ele>
        <time>2014-06-21T13:32:14Z</time>
      </trkpt>
      <trkpt lat="47.81114" lon="7.08443">
        <ele>517</ele>
        <time>2014-06-21T13:32:16Z</time>
      </trkpt>
      <trkpt lat="47.8111" lon="7.08444">
        <ele>517</ele>
        <time>2014-06-21T13:32:18Z</time>
      </trkpt>
      <trkpt lat="47.81098" lon="7.0844">
        <ele>518</ele>
        <time>2014-06-21T13:32:31Z</time>
      </trkpt>
      <trkpt lat="47.8109" lon="7.08431">
        <ele>520</ele>
        <time>2014-06-21T13:32:38Z</time>
      </trkpt>
      <trkpt lat="47.81076" lon="7.08425">
        <ele>518</ele>
        <time>2014-06-21T13:32:50Z</time>
      </trkpt>
      <trkpt lat="47.81072" lon="7.08411">
        <ele>527</ele>
        <time>2014-06-21T13:32:57Z</time>
      </trkpt>
      <trkpt lat="47.81066" lon="7.08407">
        <ele>528</ele>
        <time>2014-06-21T13:33:01Z</time>
      </trkpt>
      <trkpt lat="47.81051" lon="7.08405">
        <ele>528</ele>
        <time>2014-06-21T13:33:13Z</time>
      </trkpt>
      <trkpt lat="47.81047" lon="7.08404">
        <ele>528</ele>
        <time>2014-06-21T13:33:16Z</time>
      </trkpt>
      <trkpt lat="47.81037" lon="7.08395">
        <ele>528</ele>
        <time>2014-06-21T13:33:26Z</time>
      </trkpt>
      <trkpt lat="47.81023" lon="7.08401">
        <ele>526</ele>
        <time>2014-06-21T13:33:36Z</time>
      </trkpt>
      <trkpt lat="47.81021" lon="7.08398">
        <ele>526</ele>
        <time>2014-06-21T13:33:40Z</time>
      </trkpt>
      <trkpt lat="47.81018" lon="7.08397">
        <ele>526</ele>
        <time>2014-06-21T13:33:44Z</time>
      </trkpt>
      <trkpt lat="47.81001" lon="7.08394">
        <ele>525</ele>
        <time>2014-06-21T13:33:55Z</time>
      </trkpt>
      <trkpt lat="47.80997" lon="7.08392">
        <ele>513</ele>
        <time>2014-06-21T13:33:57Z</time>
      </trkpt>
      <trkpt lat="47.80982" lon="7.08385">
        <ele>511</ele>
        <time>2014-06-21T13:34:07Z</time>
      </trkpt>
      <trkpt lat="47.80982" lon="7.08376">
        <ele>511</ele>
        <time>2014-06-21T13:34:12Z</time>
      </trkpt>
      <trkpt lat="47.80988" lon="7.08355">
        <ele>515</ele>
        <time>2014-06-21T13:34:22Z</time>
      </trkpt>
      <trkpt lat="47.80989" lon="7.0835">
        <ele>516</ele>
        <time>2014-06-21T13:34:24Z</time>
      </trkpt>
      <trkpt lat="47.80992" lon="7.08332">
        <ele>522</ele>
        <time>2014-06-21T13:34:33Z</time>
      </trkpt>
      <trkpt lat="47.8099" lon="7.08313">
        <ele>518</ele>
        <time>2014-06-21T13:34:45Z</time>
      </trkpt>
      <trkpt lat="47.80989" lon="7.08309">
        <ele>517</ele>
        <time>2014-06-21T13:34:48Z</time>
      </trkpt>
      <trkpt lat="47.80989" lon="7.08301">
        <ele>516</ele>
        <time>2014-06-21T13:34:55Z</time>
      </trkpt>
      <trkpt lat="47.80993" lon="7.08282">
        <ele>517</ele>
        <time>2014-06-21T13:35:07Z</time>
      </trkpt>
      <trkpt lat="47.80995" lon="7.08276">
        <ele>519</ele>
        <time>2014-06-21T13:35:10Z</time>
      </trkpt>
      <trkpt lat="47.80996" lon="7.08271">
        <ele>520</ele>
        <time>2014-06-21T13:35:13Z</time>
      </trkpt>
      <trkpt lat="47.81007" lon="7.08247">
        <ele>536</ele>
        <time>2014-06-21T13:35:26Z</time>
      </trkpt>
      <trkpt lat="47.81007" lon="7.08241">
        <ele>537</ele>
        <time>2014-06-21T13:35:29Z</time>
      </trkpt>
      <trkpt lat="47.81008" lon="7.0822">
        <ele>542</ele>
        <time>2014-06-21T13:35:40Z</time>
      </trkpt>
      <trkpt lat="47.8101" lon="7.08207">
        <ele>542</ele>
        <time>2014-06-21T13:35:47Z</time>
      </trkpt>
      <trkpt lat="47.8101" lon="7.08188">
        <ele>540</ele>
        <time>2014-06-21T13:36:02Z</time>
      </trkpt>
      <trkpt lat="47.81012" lon="7.08165">
        <ele>537</ele>
        <time>2014-06-21T13:36:12Z</time>
      </trkpt>
      <trkpt lat="47.81017" lon="7.08141">
        <ele>542</ele>
        <time>2014-06-21T13:36:23Z</time>
      </trkpt>
      <trkpt lat="47.81027" lon="7.0811">
        <ele>545</ele>
        <time>2014-06-21T13:36:33Z</time>
      </trkpt>
      <trkpt lat="47.81034" lon="7.08088">
        <ele>546</ele>
        <time>2014-06-21T13:36:43Z</time>
      </trkpt>
      <trkpt lat="47.81027" lon="7.08078">
        <ele>544</ele>
        <time>2014-06-21T13:36:54Z</time>
      </trkpt>
      <trkpt lat="47.81028" lon="7.08073">
        <ele>545</ele>
        <time>2014-06-21T13:37:07Z</time>
      </trkpt>
      <trkpt lat="47.81029" lon="7.08052">
        <ele>548</ele>
        <time>2014-06-21T13:37:18Z</time>
      </trkpt>
      <trkpt lat="47.81029" lon="7.08032">
        <ele>548</ele>
        <time>2014-06-21T13:37:28Z</time>
      </trkpt>
      <trkpt lat="47.8103" lon="7.08029">
        <ele>548</ele>
        <time>2014-06-21T13:37:30Z</time>
      </trkpt>
      <trkpt lat="47.81031" lon="7.08024">
        <ele>549</ele>
        <time>2014-06-21T13:37:33Z</time>
      </trkpt>
      <trkpt lat="47.81031" lon="7.08009">
        <ele>548</ele>
        <time>2014-06-21T13:37:43Z</time>
      </trkpt>
      <trkpt lat="47.81034" lon="7.07992">
        <ele>553</ele>
        <time>2014-06-21T13:37:53Z</time>
      </trkpt>
      <trkpt lat="47.81032" lon="7.07988">
        <ele>553</ele>
        <time>2014-06-21T13:37:56Z</time>
      </trkpt>
      <trkpt lat="47.81029" lon="7.07979">
        <ele>552</ele>
        <time>2014-06-21T13:38:02Z</time>
      </trkpt>
      <trkpt lat="47.8103" lon="7.07969">
        <ele>554</ele>
        <time>2014-06-21T13:38:08Z</time>
      </trkpt>
      <trkpt lat="47.81024" lon="7.07949">
        <ele>554</ele>
        <time>2014-06-21T13:38:19Z</time>
      </trkpt>
      <trkpt lat="47.81023" lon="7.07945">
        <ele>554</ele>
        <time>2014-06-21T13:38:22Z</time>
      </trkpt>
      <trkpt lat="47.81019" lon="7.07927">
        <ele>551</ele>
        <time>2014-06-21T13:38:32Z</time>
      </trkpt>
      <trkpt lat="47.81019" lon="7.07922">
        <ele>551</ele>
        <time>2014-06-21T13:38:34Z</time>
      </trkpt>
      <trkpt lat="47.81016" lon="7.07902">
        <ele>556</ele>
        <time>2014-06-21T13:38:46Z</time>
      </trkpt>
      <trkpt lat="47.81009" lon="7.07887">
        <ele>559</ele>
        <time>2014-06-21T13:38:57Z</time>
      </trkpt>
      <trkpt lat="47.81009" lon="7.07873">
        <ele>561</ele>
        <time>2014-06-21T13:39:04Z</time>
      </trkpt>
      <trkpt lat="47.8101" lon="7.07867">
        <ele>561</ele>
        <time>2014-06-21T13:39:07Z</time>
      </trkpt>
      <trkpt lat="47.8101" lon="7.07852">
        <ele>561</ele>
        <time>2014-06-21T13:39:17Z</time>
      </trkpt>
      <trkpt lat="47.81006" lon="7.07844">
        <ele>558</ele>
        <time>2014-06-21T13:39:24Z</time>
      </trkpt>
      <trkpt lat="47.80995" lon="7.07827">
        <ele>549</ele>
        <time>2014-06-21T13:39:34Z</time>
      </trkpt>
      <trkpt lat="47.80992" lon="7.07811">
        <ele>544</ele>
        <time>2014-06-21T13:39:42Z</time>
      </trkpt>
      <trkpt lat="47.80989" lon="7.0779">
        <ele>544</ele>
        <time>2014-06-21T13:39:53Z</time>
      </trkpt>
      <trkpt lat="47.80988" lon="7.07786">
        <ele>545</ele>
        <time>2014-06-21T13:39:55Z</time>
      </trkpt>
      <trkpt lat="47.80988" lon="7.07781">
        <ele>545</ele>
        <time>2014-06-21T13:39:57Z</time>
      </trkpt>
      <trkpt lat="47.80982" lon="7.07763">
        <ele>549</ele>
        <time>2014-06-21T13:40:08Z</time>
      </trkpt>
      <trkpt lat="47.80983" lon="7.07754">
        <ele>551</ele>
        <time>2014-06-21T13:40:15Z</time>
      </trkpt>
      <trkpt lat="47.80985" lon="7.07741">
        <ele>557</ele>
        <time>2014-06-21T13:40:24Z</time>
      </trkpt>
      <trkpt lat="47.80983" lon="7.07733">
        <ele>555</ele>
        <time>2014-06-21T13:40:31Z</time>
      </trkpt>
      <trkpt lat="47.80976" lon="7.07714">
        <ele>553</ele>
        <time>2014-06-21T13:40:43Z</time>
      </trkpt>
      <trkpt lat="47.80975" lon="7.07704">
        <ele>553</ele>
        <time>2014-06-21T13:40:53Z</time>
      </trkpt>
      <trkpt lat="47.80964" lon="7.0769">
        <ele>551</ele>
        <time>2014-06-21T13:41:01Z</time>
      </trkpt>
      <trkpt lat="47.80959" lon="7.07675">
        <ele>551</ele>
        <time>2014-06-21T13:41:07Z</time>
      </trkpt>
      <trkpt lat="47.80953" lon="7.07658">
        <ele>552</ele>
        <time>2014-06-21T13:41:17Z</time>
      </trkpt>
      <trkpt lat="47.80945" lon="7.07642">
        <ele>550</ele>
        <time>2014-06-21T13:41:28Z</time>
      </trkpt>
      <trkpt lat="47.8094" lon="7.0762">
        <ele>551</ele>
        <time>2014-06-21T13:41:41Z</time>
      </trkpt>
      <trkpt lat="47.80938" lon="7.07602">
        <ele>550</ele>
        <time>2014-06-21T13:41:53Z</time>
      </trkpt>
      <trkpt lat="47.80938" lon="7.07597">
        <ele>550</ele>
        <time>2014-06-21T13:41:55Z</time>
      </trkpt>
      <trkpt lat="47.80938" lon="7.07593">
        <ele>550</ele>
        <time>2014-06-21T13:41:57Z</time>
      </trkpt>
      <trkpt lat="47.80939" lon="7.07572">
        <ele>544</ele>
        <time>2014-06-21T13:42:06Z</time>
      </trkpt>
      <trkpt lat="47.80941" lon="7.07567">
        <ele>544</ele>
        <time>2014-06-21T13:42:09Z</time>
      </trkpt>
      <trkpt lat="47.80944" lon="7.07564">
        <ele>543</ele>
        <time>2014-06-21T13:42:12Z</time>
      </trkpt>
      <trkpt lat="47.80947" lon="7.07561">
        <ele>543</ele>
        <time>2014-06-21T13:42:15Z</time>
      </trkpt>
      <trkpt lat="47.8096" lon="7.07555">
        <ele>544</ele>
        <time>2014-06-21T13:42:26Z</time>
      </trkpt>
      <trkpt lat="47.80971" lon="7.07558">
        <ele>545</ele>
        <time>2014-06-21T13:42:38Z</time>
      </trkpt>
      <trkpt lat="47.80974" lon="7.0756">
        <ele>546</ele>
        <time>2014-06-21T13:42:40Z</time>
      </trkpt>
      <trkpt lat="47.80978" lon="7.0756">
        <ele>546</ele>
        <time>2014-06-21T13:42:43Z</time>
      </trkpt>
      <trkpt lat="47.80991" lon="7.07562">
        <ele>548</ele>
        <time>2014-06-21T13:42:53Z</time>
      </trkpt>
      <trkpt lat="47.81008" lon="7.07559">
        <ele>551</ele>
        <time>2014-06-21T13:43:03Z</time>
      </trkpt>
      <trkpt lat="47.81016" lon="7.0756">
        <ele>550</ele>
        <time>2014-06-21T13:43:07Z</time>
      </trkpt>
      <trkpt lat="47.81028" lon="7.07563">
        <ele>550</ele>
        <time>2014-06-21T13:43:17Z</time>
      </trkpt>
      <trkpt lat="47.81033" lon="7.07565">
        <ele>550</ele>
        <time>2014-06-21T13:43:28Z</time>
      </trkpt>
      <trkpt lat="47.81052" lon="7.07566">
        <ele>550</ele>
        <time>2014-06-21T13:43:38Z</time>
      </trkpt>
      <trkpt lat="47.81059" lon="7.07568">
        <ele>551</ele>
        <time>2014-06-21T13:43:42Z</time>
      </trkpt>
      <trkpt lat="47.81072" lon="7.07571">
        <ele>552</ele>
        <time>2014-06-21T13:43:52Z</time>
      </trkpt>
      <trkpt lat="47.81086" lon="7.0757">
        <ele>555</ele>
        <time>2014-06-21T13:44:01Z</time>
      </trkpt>
      <trkpt lat="47.81101" lon="7.07576">
        <ele>555</ele>
        <time>2014-06-21T13:44:11Z</time>
      </trkpt>
      <trkpt lat="47.81104" lon="7.07577">
        <ele>555</ele>
        <time>2014-06-21T13:44:14Z</time>
      </trkpt>
      <trkpt lat="47.81112" lon="7.07578">
        <ele>554</ele>
        <time>2014-06-21T13:44:26Z</time>
      </trkpt>
      <trkpt lat="47.81127" lon="7.07582">
        <ele>554</ele>
        <time>2014-06-21T13:44:38Z</time>
      </trkpt>
      <trkpt lat="47.81135" lon="7.07585">
        <ele>563</ele>
        <time>2014-06-21T13:44:49Z</time>
      </trkpt>
      <trkpt lat="47.81138" lon="7.07585">
        <ele>563</ele>
        <time>2014-06-21T13:44:52Z</time>
      </trkpt>
      <trkpt lat="47.81149" lon="7.07584">
        <ele>562</ele>
        <time>2014-06-21T13:45:07Z</time>
      </trkpt>
      <trkpt lat="47.81152" lon="7.07583">
        <ele>556</ele>
        <time>2014-06-21T13:45:08Z</time>
      </trkpt>
      <trkpt lat="47.81158" lon="7.07581">
        <ele>557</ele>
        <time>2014-06-21T13:45:10Z</time>
      </trkpt>
      <trkpt lat="47.81166" lon="7.07575">
        <ele>557</ele>
        <time>2014-06-21T13:45:14Z</time>
      </trkpt>
      <trkpt lat="47.81182" lon="7.07557">
        <ele>563</ele>
        <time>2014-06-21T13:45:25Z</time>
      </trkpt>
      <trkpt lat="47.81184" lon="7.07554">
        <ele>564</ele>
        <time>2014-06-21T13:45:27Z</time>
      </trkpt>
      <trkpt lat="47.8119" lon="7.07544">
        <ele>564</ele>
        <time>2014-06-21T13:45:37Z</time>
      </trkpt>
      <trkpt lat="47.8119" lon="7.07521">
        <ele>564</ele>
        <time>2014-06-21T13:45:48Z</time>
      </trkpt>
      <trkpt lat="47.81187" lon="7.07518">
        <ele>564</ele>
        <time>2014-06-21T13:45:50Z</time>
      </trkpt>
      <trkpt lat="47.81183" lon="7.07507">
        <ele>562</ele>
        <time>2014-06-21T13:45:56Z</time>
      </trkpt>
      <trkpt lat="47.81181" lon="7.07503">
        <ele>561</ele>
        <time>2014-06-21T13:45:58Z</time>
      </trkpt>
      <trkpt lat="47.81182" lon="7.07478">
        <ele>572</ele>
        <time>2014-06-21T13:46:08Z</time>
      </trkpt>
      <trkpt lat="47.81183" lon="7.07465">
        <ele>575</ele>
        <time>2014-06-21T13:46:14Z</time>
      </trkpt>
      <trkpt lat="47.81166" lon="7.07458">
        <ele>556</ele>
        <time>2014-06-21T13:46:24Z</time>
      </trkpt>
      <trkpt lat="47.81164" lon="7.07454">
        <ele>557</ele>
        <time>2014-06-21T13:46:27Z</time>
      </trkpt>
      <trkpt lat="47.8116" lon="7.07441">
        <ele>559</ele>
        <time>2014-06-21T13:46:34Z</time>
      </trkpt>
      <trkpt lat="47.8116" lon="7.07436">
        <ele>561</ele>
        <time>2014-06-21T13:46:37Z</time>
      </trkpt>
      <trkpt lat="47.81157" lon="7.07414">
        <ele>570</ele>
        <time>2014-06-21T13:46:48Z</time>
      </trkpt>
      <trkpt lat="47.81155" lon="7.07399">
        <ele>569</ele>
        <time>2014-06-21T13:46:57Z</time>
      </trkpt>
      <trkpt lat="47.81155" lon="7.07393">
        <ele>569</ele>
        <time>2014-06-21T13:47:00Z</time>
      </trkpt>
      <trkpt lat="47.81149" lon="7.07378">
        <ele>569</ele>
        <time>2014-06-21T13:47:12Z</time>
      </trkpt>
      <trkpt lat="47.81139" lon="7.07361">
        <ele>569</ele>
        <time>2014-06-21T13:47:23Z</time>
      </trkpt>
      <trkpt lat="47.81136" lon="7.07351">
        <ele>570</ele>
        <time>2014-06-21T13:47:27Z</time>
      </trkpt>
      <trkpt lat="47.81136" lon="7.07347">
        <ele>570</ele>
        <time>2014-06-21T13:47:29Z</time>
      </trkpt>
      <trkpt lat="47.81136" lon="7.07333">
        <ele>579</ele>
        <time>2014-06-21T13:47:44Z</time>
      </trkpt>
      <trkpt lat="47.81134" lon="7.07315">
        <ele>578</ele>
        <time>2014-06-21T13:47:55Z</time>
      </trkpt>
      <trkpt lat="47.8113" lon="7.07296">
        <ele>577</ele>
        <time>2014-06-21T13:48:05Z</time>
      </trkpt>
      <trkpt lat="47.81128" lon="7.07292">
        <ele>577</ele>
        <time>2014-06-21T13:48:07Z</time>
      </trkpt>
      <trkpt lat="47.81129" lon="7.07268">
        <ele>578</ele>
        <time>2014-06-21T13:48:18Z</time>
      </trkpt>
      <trkpt lat="47.81131" lon="7.07264">
        <ele>579</ele>
        <time>2014-06-21T13:48:20Z</time>
      </trkpt>
      <trkpt lat="47.81128" lon="7.07241">
        <ele>581</ele>
        <time>2014-06-21T13:48:31Z</time>
      </trkpt>
      <trkpt lat="47.81127" lon="7.07237">
        <ele>581</ele>
        <time>2014-06-21T13:48:33Z</time>
      </trkpt>
      <trkpt lat="47.81119" lon="7.07214">
        <ele>579</ele>
        <time>2014-06-21T13:48:43Z</time>
      </trkpt>
      <trkpt lat="47.81122" lon="7.07195">
        <ele>580</ele>
        <time>2014-06-21T13:48:54Z</time>
      </trkpt>
      <trkpt lat="47.81123" lon="7.07175">
        <ele>580</ele>
        <time>2014-06-21T13:49:05Z</time>
      </trkpt>
      <trkpt lat="47.81125" lon="7.07161">
        <ele>579</ele>
        <time>2014-06-21T13:49:13Z</time>
      </trkpt>
      <trkpt lat="47.81127" lon="7.07141">
        <ele>579</ele>
        <time>2014-06-21T13:49:25Z</time>
      </trkpt>
      <trkpt lat="47.81128" lon="7.07137">
        <ele>579</ele>
        <time>2014-06-21T13:49:28Z</time>
      </trkpt>
      <trkpt lat="47.8113" lon="7.07133">
        <ele>580</ele>
        <time>2014-06-21T13:49:30Z</time>
      </trkpt>
      <trkpt lat="47.81135" lon="7.07119">
        <ele>580</ele>
        <time>2014-06-21T13:49:37Z</time>
      </trkpt>
      <trkpt lat="47.8114" lon="7.07099">
        <ele>581</ele>
        <time>2014-06-21T13:49:47Z</time>
      </trkpt>
      <trkpt lat="47.81144" lon="7.0709">
        <ele>583</ele>
        <time>2014-06-21T13:49:52Z</time>
      </trkpt>
      <trkpt lat="47.81148" lon="7.07071">
        <ele>579</ele>
        <time>2014-06-21T13:50:02Z</time>
      </trkpt>
      <trkpt lat="47.81153" lon="7.07053">
        <ele>576</ele>
        <time>2014-06-21T13:50:12Z</time>
      </trkpt>
      <trkpt lat="47.81155" lon="7.07048">
        <ele>576</ele>
        <time>2014-06-21T13:50:15Z</time>
      </trkpt>
      <trkpt lat="47.8116" lon="7.07042">
        <ele>575</ele>
        <time>2014-06-21T13:50:23Z</time>
      </trkpt>
      <trkpt lat="47.81162" lon="7.07039">
        <ele>575</ele>
        <time>2014-06-21T13:50:26Z</time>
      </trkpt>
      <trkpt lat="47.8117" lon="7.07034">
        <ele>592</ele>
        <time>2014-06-21T13:50:36Z</time>
      </trkpt>
      <trkpt lat="47.81181" lon="7.07028">
        <ele>592</ele>
        <time>2014-06-21T13:50:46Z</time>
      </trkpt>
      <trkpt lat="47.812" lon="7.07028">
        <ele>595</ele>
        <time>2014-06-21T13:50:57Z</time>
      </trkpt>
      <trkpt lat="47.81203" lon="7.07028">
        <ele>595</ele>
        <time>2014-06-21T13:51:00Z</time>
      </trkpt>
      <trkpt lat="47.81208" lon="7.07022">
        <ele>596</ele>
        <time>2014-06-21T13:51:10Z</time>
      </trkpt>
      <trkpt lat="47.81211" lon="7.0702">
        <ele>596</ele>
        <time>2014-06-21T13:51:12Z</time>
      </trkpt>
      <trkpt lat="47.81217" lon="7.07013">
        <ele>597</ele>
        <time>2014-06-21T13:51:16Z</time>
      </trkpt>
      <trkpt lat="47.8123" lon="7.06998">
        <ele>590</ele>
        <time>2014-06-21T13:51:29Z</time>
      </trkpt>
      <trkpt lat="47.81233" lon="7.06995">
        <ele>591</ele>
        <time>2014-06-21T13:51:32Z</time>
      </trkpt>
      <trkpt lat="47.81236" lon="7.06993">
        <ele>592</ele>
        <time>2014-06-21T13:51:35Z</time>
      </trkpt>
      <trkpt lat="47.81245" lon="7.06987">
        <ele>592</ele>
        <time>2014-06-21T13:51:45Z</time>
      </trkpt>
      <trkpt lat="47.81256" lon="7.06979">
        <ele>607</ele>
        <time>2014-06-21T13:51:56Z</time>
      </trkpt>
      <trkpt lat="47.81272" lon="7.06969">
        <ele>609</ele>
        <time>2014-06-21T13:52:05Z</time>
      </trkpt>
      <trkpt lat="47.81278" lon="7.06962">
        <ele>610</ele>
        <time>2014-06-21T13:52:09Z</time>
      </trkpt>
      <trkpt lat="47.81283" lon="7.06953">
        <ele>611</ele>
        <time>2014-06-21T13:52:19Z</time>
      </trkpt>
      <trkpt lat="47.81279" lon="7.06933">
        <ele>607</ele>
        <time>2014-06-21T13:52:29Z</time>
      </trkpt>
      <trkpt lat="47.81278" lon="7.06928">
        <ele>606</ele>
        <time>2014-06-21T13:52:32Z</time>
      </trkpt>
      <trkpt lat="47.81277" lon="7.06924">
        <ele>606</ele>
        <time>2014-06-21T13:52:34Z</time>
      </trkpt>
      <trkpt lat="47.81279" lon="7.06906">
        <ele>601</ele>
        <time>2014-06-21T13:52:46Z</time>
      </trkpt>
      <trkpt lat="47.8128" lon="7.069">
        <ele>601</ele>
        <time>2014-06-21T13:52:49Z</time>
      </trkpt>
      <trkpt lat="47.81284" lon="7.0689">
        <ele>602</ele>
        <time>2014-06-21T13:52:53Z</time>
      </trkpt>
      <trkpt lat="47.81288" lon="7.06871">
        <ele>602</ele>
        <time>2014-06-21T13:53:03Z</time>
      </trkpt>
      <trkpt lat="47.81289" lon="7.06852">
        <ele>601</ele>
        <time>2014-06-21T13:53:14Z</time>
      </trkpt>
      <trkpt lat="47.81292" lon="7.06845">
        <ele>601</ele>
        <time>2014-06-21T13:53:19Z</time>
      </trkpt>
      <trkpt lat="47.81299" lon="7.06831">
        <ele>595</ele>
        <time>2014-06-21T13:53:28Z</time>
      </trkpt>
      <trkpt lat="47.81302" lon="7.06826">
        <ele>596</ele>
        <time>2014-06-21T13:53:31Z</time>
      </trkpt>
      <trkpt lat="47.81314" lon="7.06812">
        <ele>598</ele>
        <time>2014-06-21T13:53:43Z</time>
      </trkpt>
      <trkpt lat="47.81317" lon="7.06808">
        <ele>597</ele>
        <time>2014-06-21T13:53:46Z</time>
      </trkpt>
      <trkpt lat="47.81319" lon="7.06804">
        <ele>597</ele>
        <time>2014-06-21T13:53:49Z</time>
      </trkpt>
      <trkpt lat="47.81326" lon="7.06787">
        <ele>595</ele>
        <time>2014-06-21T13:54:01Z</time>
      </trkpt>
      <trkpt lat="47.81328" lon="7.06784">
        <ele>595</ele>
        <time>2014-06-21T13:54:05Z</time>
      </trkpt>
      <trkpt lat="47.81339" lon="7.0677">
        <ele>609</ele>
        <time>2014-06-21T13:54:18Z</time>
      </trkpt>
      <trkpt lat="47.8134" lon="7.06766">
        <ele>607</ele>
        <time>2014-06-21T13:54:22Z</time>
      </trkpt>
      <trkpt lat="47.81351" lon="7.06758">
        <ele>608</ele>
        <time>2014-06-21T13:54:34Z</time>
      </trkpt>
      <trkpt lat="47.81366" lon="7.06745">
        <ele>600</ele>
        <time>2014-06-21T13:54:44Z</time>
      </trkpt>
      <trkpt lat="47.81385" lon="7.06731">
        <ele>603</ele>
        <time>2014-06-21T13:54:55Z</time>
      </trkpt>
      <trkpt lat="47.81387" lon="7.0673">
        <ele>603</ele>
        <time>2014-06-21T13:55:01Z</time>
      </trkpt>
      <trkpt lat="47.81391" lon="7.06727">
        <ele>603</ele>
        <time>2014-06-21T13:55:03Z</time>
      </trkpt>
      <trkpt lat="47.81407" lon="7.0672">
        <ele>605</ele>
        <time>2014-06-21T13:55:13Z</time>
      </trkpt>
      <trkpt lat="47.81409" lon="7.06718">
        <ele>604</ele>
        <time>2014-06-21T13:55:19Z</time>
      </trkpt>
      <trkpt lat="47.81412" lon="7.06717">
        <ele>604</ele>
        <time>2014-06-21T13:55:21Z</time>
      </trkpt>
      <trkpt lat="47.81425" lon="7.06717">
        <ele>614</ele>
        <time>2014-06-21T13:55:34Z</time>
      </trkpt>
      <trkpt lat="47.8143" lon="7.06716">
        <ele>614</ele>
        <time>2014-06-21T13:55:50Z</time>
      </trkpt>
      <trkpt lat="47.81437" lon="7.06715">
        <ele>614</ele>
        <time>2014-06-21T13:55:54Z</time>
      </trkpt>
      <trkpt lat="47.81443" lon="7.06716">
        <ele>615</ele>
        <time>2014-06-21T13:55:58Z</time>
      </trkpt>
      <trkpt lat="47.81458" lon="7.06717">
        <ele>616</ele>
        <time>2014-06-21T13:56:09Z</time>
      </trkpt>
      <trkpt lat="47.81464" lon="7.06717">
        <ele>616</ele>
        <time>2014-06-21T13:56:13Z</time>
      </trkpt>
      <trkpt lat="47.81473" lon="7.0671">
        <ele>616</ele>
        <time>2014-06-21T13:56:24Z</time>
      </trkpt>
      <trkpt lat="47.81476" lon="7.06708">
        <ele>616</ele>
        <time>2014-06-21T13:56:34Z</time>
      </trkpt>
      <trkpt lat="47.81484" lon="7.06703">
        <ele>616</ele>
        <time>2014-06-21T13:56:46Z</time>
      </trkpt>
      <trkpt lat="47.81499" lon="7.06691">
        <ele>615</ele>
        <time>2014-06-21T13:56:56Z</time>
      </trkpt>
      <trkpt lat="47.81501" lon="7.0669">
        <ele>619</ele>
        <time>2014-06-21T13:56:57Z</time>
      </trkpt>
      <trkpt lat="47.81512" lon="7.06684">
        <ele>619</ele>
        <time>2014-06-21T13:57:01Z</time>
      </trkpt>
      <trkpt lat="47.81519" lon="7.06682">
        <ele>619</ele>
        <time>2014-06-21T13:57:04Z</time>
      </trkpt>
      <trkpt lat="47.81522" lon="7.06681">
        <ele>619</ele>
        <time>2014-06-21T13:57:06Z</time>
      </trkpt>
      <trkpt lat="47.81534" lon="7.06678">
        <ele>620</ele>
        <time>2014-06-21T13:57:12Z</time>
      </trkpt>
      <trkpt lat="47.81553" lon="7.06658">
        <ele>617</ele>
        <time>2014-06-21T13:57:22Z</time>
      </trkpt>
      <trkpt lat="47.81559" lon="7.0665">
        <ele>618</ele>
        <time>2014-06-21T13:57:26Z</time>
      </trkpt>
      <trkpt lat="47.81566" lon="7.06641">
        <ele>618</ele>
        <time>2014-06-21T13:57:33Z</time>
      </trkpt>
      <trkpt lat="47.81571" lon="7.06635">
        <ele>618</ele>
        <time>2014-06-21T13:57:39Z</time>
      </trkpt>
      <trkpt lat="47.81576" lon="7.0662">
        <ele>618</ele>
        <time>2014-06-21T13:57:51Z</time>
      </trkpt>
      <trkpt lat="47.81576" lon="7.06598">
        <ele>619</ele>
        <time>2014-06-21T13:58:01Z</time>
      </trkpt>
      <trkpt lat="47.81576" lon="7.06594">
        <ele>620</ele>
        <time>2014-06-21T13:58:03Z</time>
      </trkpt>
      <trkpt lat="47.81577" lon="7.0659">
        <ele>621</ele>
        <time>2014-06-21T13:58:06Z</time>
      </trkpt>
      <trkpt lat="47.81583" lon="7.06575">
        <ele>620</ele>
        <time>2014-06-21T13:58:13Z</time>
      </trkpt>
      <trkpt lat="47.81585" lon="7.06555">
        <ele>622</ele>
        <time>2014-06-21T13:58:24Z</time>
      </trkpt>
      <trkpt lat="47.81591" lon="7.06542">
        <ele>622</ele>
        <time>2014-06-21T13:58:31Z</time>
      </trkpt>
      <trkpt lat="47.81592" lon="7.06521">
        <ele>623</ele>
        <time>2014-06-21T13:58:41Z</time>
      </trkpt>
      <trkpt lat="47.81591" lon="7.06517">
        <ele>623</ele>
        <time>2014-06-21T13:58:45Z</time>
      </trkpt>
      <trkpt lat="47.8159" lon="7.06513">
        <ele>623</ele>
        <time>2014-06-21T13:58:49Z</time>
      </trkpt>
      <trkpt lat="47.81588" lon="7.06497">
        <ele>624</ele>
        <time>2014-06-21T13:58:59Z</time>
      </trkpt>
      <trkpt lat="47.8159" lon="7.06483">
        <ele>625</ele>
        <time>2014-06-21T13:59:05Z</time>
      </trkpt>
      <trkpt lat="47.81586" lon="7.06464">
        <ele>626</ele>
        <time>2014-06-21T13:59:17Z</time>
      </trkpt>
      <trkpt lat="47.81583" lon="7.06454">
        <ele>627</ele>
        <time>2014-06-21T13:59:21Z</time>
      </trkpt>
      <trkpt lat="47.81579" lon="7.06435">
        <ele>618</ele>
        <time>2014-06-21T13:59:31Z</time>
      </trkpt>
      <trkpt lat="47.81578" lon="7.06431">
        <ele>619</ele>
        <time>2014-06-21T13:59:33Z</time>
      </trkpt>
      <trkpt lat="47.81569" lon="7.06411">
        <ele>621</ele>
        <time>2014-06-21T13:59:44Z</time>
      </trkpt>
      <trkpt lat="47.81565" lon="7.06388">
        <ele>619</ele>
        <time>2014-06-21T13:59:55Z</time>
      </trkpt>
      <trkpt lat="47.8156" lon="7.06369">
        <ele>619</ele>
        <time>2014-06-21T14:00:05Z</time>
      </trkpt>
      <trkpt lat="47.81557" lon="7.0636">
        <ele>619</ele>
        <time>2014-06-21T14:00:11Z</time>
      </trkpt>
      <trkpt lat="47.81553" lon="7.06347">
        <ele>620</ele>
        <time>2014-06-21T14:00:20Z</time>
      </trkpt>
      <trkpt lat="47.8155" lon="7.0633">
        <ele>624</ele>
        <time>2014-06-21T14:00:31Z</time>
      </trkpt>
      <trkpt lat="47.81545" lon="7.06322">
        <ele>623</ele>
        <time>2014-06-21T14:00:35Z</time>
      </trkpt>
      <trkpt lat="47.81543" lon="7.06319">
        <ele>622</ele>
        <time>2014-06-21T14:00:37Z</time>
      </trkpt>
      <trkpt lat="47.81536" lon="7.06307">
        <ele>622</ele>
        <time>2014-06-21T14:00:43Z</time>
      </trkpt>
      <trkpt lat="47.81526" lon="7.06292">
        <ele>621</ele>
        <time>2014-06-21T14:00:52Z</time>
      </trkpt>
      <trkpt lat="47.81521" lon="7.06273">
        <ele>621</ele>
        <time>2014-06-21T14:01:03Z</time>
      </trkpt>
      <trkpt lat="47.81521" lon="7.06264">
        <ele>620</ele>
        <time>2014-06-21T14:01:08Z</time>
      </trkpt>
      <trkpt lat="47.81522" lon="7.06259">
        <ele>620</ele>
        <time>2014-06-21T14:01:12Z</time>
      </trkpt>
      <trkpt lat="47.8152" lon="7.0624">
        <ele>625</ele>
        <time>2014-06-21T14:01:23Z</time>
      </trkpt>
      <trkpt lat="47.81518" lon="7.06218">
        <ele>627</ele>
        <time>2014-06-21T14:01:34Z</time>
      </trkpt>
      <trkpt lat="47.81516" lon="7.06216">
        <ele>627</ele>
        <time>2014-06-21T14:01:37Z</time>
      </trkpt>
      <trkpt lat="47.81513" lon="7.06208">
        <ele>628</ele>
        <time>2014-06-21T14:01:41Z</time>
      </trkpt>
      <trkpt lat="47.81509" lon="7.06181">
        <ele>627</ele>
        <time>2014-06-21T14:01:53Z</time>
      </trkpt>
      <trkpt lat="47.81506" lon="7.06173">
        <ele>625</ele>
        <time>2014-06-21T14:01:57Z</time>
      </trkpt>
      <trkpt lat="47.81505" lon="7.06168">
        <ele>624</ele>
        <time>2014-06-21T14:01:59Z</time>
      </trkpt>
      <trkpt lat="47.81504" lon="7.06143">
        <ele>631</ele>
        <time>2014-06-21T14:02:11Z</time>
      </trkpt>
      <trkpt lat="47.81499" lon="7.06121">
        <ele>617</ele>
        <time>2014-06-21T14:02:24Z</time>
      </trkpt>
      <trkpt lat="47.81495" lon="7.06112">
        <ele>617</ele>
        <time>2014-06-21T14:02:37Z</time>
      </trkpt>
      <trkpt lat="47.81497" lon="7.06102">
        <ele>619</ele>
        <time>2014-06-21T14:02:42Z</time>
      </trkpt>
      <trkpt lat="47.81497" lon="7.06096">
        <ele>620</ele>
        <time>2014-06-21T14:02:44Z</time>
      </trkpt>
      <trkpt lat="47.81496" lon="7.06092">
        <ele>621</ele>
        <time>2014-06-21T14:02:46Z</time>
      </trkpt>
      <trkpt lat="47.8149" lon="7.06072">
        <ele>622</ele>
        <time>2014-06-21T14:02:58Z</time>
      </trkpt>
      <trkpt lat="47.8149" lon="7.06068">
        <ele>621</ele>
        <time>2014-06-21T14:03:00Z</time>
      </trkpt>
      <trkpt lat="47.81485" lon="7.06048">
        <ele>620</ele>
        <time>2014-06-21T14:03:11Z</time>
      </trkpt>
      <trkpt lat="47.81484" lon="7.0603">
        <ele>621</ele>
        <time>2014-06-21T14:03:22Z</time>
      </trkpt>
      <trkpt lat="47.81481" lon="7.06027">
        <ele>621</ele>
        <time>2014-06-21T14:03:25Z</time>
      </trkpt>
      <trkpt lat="47.81474" lon="7.06007">
        <ele>621</ele>
        <time>2014-06-21T14:03:37Z</time>
      </trkpt>
      <trkpt lat="47.81473" lon="7.06001">
        <ele>621</ele>
        <time>2014-06-21T14:03:39Z</time>
      </trkpt>
      <trkpt lat="47.8147" lon="7.05984">
        <ele>623</ele>
        <time>2014-06-21T14:03:49Z</time>
      </trkpt>
      <trkpt lat="47.81466" lon="7.05974">
        <ele>622</ele>
        <time>2014-06-21T14:03:58Z</time>
      </trkpt>
      <trkpt lat="47.81464" lon="7.05967">
        <ele>622</ele>
        <time>2014-06-21T14:04:09Z</time>
      </trkpt>
      <trkpt lat="47.81462" lon="7.05958">
        <ele>622</ele>
        <time>2014-06-21T14:04:19Z</time>
      </trkpt>
      <trkpt lat="47.81459" lon="7.05956">
        <ele>622</ele>
        <time>2014-06-21T14:05:17Z</time>
      </trkpt>
      <trkpt lat="47.81456" lon="7.05939">
        <ele>622</ele>
        <time>2014-06-21T14:05:29Z</time>
      </trkpt>
      <trkpt lat="47.8146" lon="7.05926">
        <ele>622</ele>
        <time>2014-06-21T14:05:39Z</time>
      </trkpt>
      <trkpt lat="47.81461" lon="7.05921">
        <ele>622</ele>
        <time>2014-06-21T14:05:42Z</time>
      </trkpt>
      <trkpt lat="47.81458" lon="7.05912">
        <ele>624</ele>
        <time>2014-06-21T14:05:56Z</time>
      </trkpt>
      <trkpt lat="47.81453" lon="7.05909">
        <ele>624</ele>
        <time>2014-06-21T14:07:25Z</time>
      </trkpt>
      <trkpt lat="47.81445" lon="7.05903">
        <ele>623</ele>
        <time>2014-06-21T14:07:48Z</time>
      </trkpt>
      <trkpt lat="47.81442" lon="7.05903">
        <ele>623</ele>
        <time>2014-06-21T14:08:13Z</time>
      </trkpt>
      <trkpt lat="47.81427" lon="7.05905">
        <ele>622</ele>
        <time>2014-06-21T14:08:29Z</time>
      </trkpt>
      <trkpt lat="47.81425" lon="7.059">
        <ele>622</ele>
        <time>2014-06-21T14:08:32Z</time>
      </trkpt>
      <trkpt lat="47.81425" lon="7.05884">
        <ele>624</ele>
        <time>2014-06-21T14:08:39Z</time>
      </trkpt>
      <trkpt lat="47.81426" lon="7.05881">
        <ele>624</ele>
        <time>2014-06-21T14:08:41Z</time>
      </trkpt>
      <trkpt lat="47.81426" lon="7.05871">
        <ele>624</ele>
        <time>2014-06-21T14:08:46Z</time>
      </trkpt>
      <trkpt lat="47.81424" lon="7.05867">
        <ele>625</ele>
        <time>2014-06-21T14:08:48Z</time>
      </trkpt>
      <trkpt lat="47.81419" lon="7.05855">
        <ele>626</ele>
        <time>2014-06-21T14:08:58Z</time>
      </trkpt>
      <trkpt lat="47.8141" lon="7.05835">
        <ele>628</ele>
        <time>2014-06-21T14:09:10Z</time>
      </trkpt>
      <trkpt lat="47.81397" lon="7.05825">
        <ele>637</ele>
        <time>2014-06-21T14:09:21Z</time>
      </trkpt>
      <trkpt lat="47.81393" lon="7.05819">
        <ele>639</ele>
        <time>2014-06-21T14:09:32Z</time>
      </trkpt>
      <trkpt lat="47.81396" lon="7.05817">
        <ele>638</ele>
        <time>2014-06-21T14:09:43Z</time>
      </trkpt>
      <trkpt lat="47.81392" lon="7.05814">
        <ele>640</ele>
        <time>2014-06-21T14:10:01Z</time>
      </trkpt>
      <trkpt lat="47.81386" lon="7.05799">
        <ele>642</ele>
        <time>2014-06-21T14:10:12Z</time>
      </trkpt>
      <trkpt lat="47.81385" lon="7.05794">
        <ele>643</ele>
        <time>2014-06-21T14:10:15Z</time>
      </trkpt>
      <trkpt lat="47.81383" lon="7.05789">
        <ele>644</ele>
        <time>2014-06-21T14:10:18Z</time>
      </trkpt>
      <trkpt lat="47.81381" lon="7.05786">
        <ele>644</ele>
        <time>2014-06-21T14:10:20Z</time>
      </trkpt>
      <trkpt lat="47.81375" lon="7.05769">
        <ele>647</ele>
        <time>2014-06-21T14:10:31Z</time>
      </trkpt>
      <trkpt lat="47.81373" lon="7.05766">
        <ele>647</ele>
        <time>2014-06-21T14:10:44Z</time>
      </trkpt>
      <trkpt lat="47.81368" lon="7.05768">
        <ele>648</ele>
        <time>2014-06-21T14:10:50Z</time>
      </trkpt>
      <trkpt lat="47.81362" lon="7.05768">
        <ele>649</ele>
        <time>2014-06-21T14:11:00Z</time>
      </trkpt>
      <trkpt lat="47.81353" lon="7.05772">
        <ele>650</ele>
        <time>2014-06-21T14:11:12Z</time>
      </trkpt>
      <trkpt lat="47.81348" lon="7.05775">
        <ele>650</ele>
        <time>2014-06-21T14:11:18Z</time>
      </trkpt>
      <trkpt lat="47.81345" lon="7.05777">
        <ele>650</ele>
        <time>2014-06-21T14:11:22Z</time>
      </trkpt>
      <trkpt lat="47.81342" lon="7.05779">
        <ele>650</ele>
        <time>2014-06-21T14:11:27Z</time>
      </trkpt>
      <trkpt lat="47.81332" lon="7.05785">
        <ele>659</ele>
        <time>2014-06-21T14:11:39Z</time>
      </trkpt>
      <trkpt lat="47.81328" lon="7.05784">
        <ele>659</ele>
        <time>2014-06-21T14:11:42Z</time>
      </trkpt>
      <trkpt lat="47.81325" lon="7.05782">
        <ele>660</ele>
        <time>2014-06-21T14:11:47Z</time>
      </trkpt>
      <trkpt lat="47.81322" lon="7.05779">
        <ele>660</ele>
        <time>2014-06-21T14:11:57Z</time>
      </trkpt>
      <trkpt lat="47.81317" lon="7.05773">
        <ele>661</ele>
        <time>2014-06-21T14:12:05Z</time>
      </trkpt>
      <trkpt lat="47.81319" lon="7.05756">
        <ele>662</ele>
        <time>2014-06-21T14:12:17Z</time>
      </trkpt>
      <trkpt lat="47.81321" lon="7.05743">
        <ele>671</ele>
        <time>2014-06-21T14:12:28Z</time>
      </trkpt>
      <trkpt lat="47.81323" lon="7.0574">
        <ele>671</ele>
        <time>2014-06-21T14:12:32Z</time>
      </trkpt>
      <trkpt lat="47.81331" lon="7.05718">
        <ele>676</ele>
        <time>2014-06-21T14:12:42Z</time>
      </trkpt>
      <trkpt lat="47.81332" lon="7.05714">
        <ele>677</ele>
        <time>2014-06-21T14:12:44Z</time>
      </trkpt>
      <trkpt lat="47.81334" lon="7.05704">
        <ele>667</ele>
        <time>2014-06-21T14:12:50Z</time>
      </trkpt>
      <trkpt lat="47.81344" lon="7.05691">
        <ele>669</ele>
        <time>2014-06-21T14:13:01Z</time>
      </trkpt>
      <trkpt lat="47.81348" lon="7.05678">
        <ele>671</ele>
        <time>2014-06-21T14:13:12Z</time>
      </trkpt>
      <trkpt lat="47.81349" lon="7.05675">
        <ele>671</ele>
        <time>2014-06-21T14:13:14Z</time>
      </trkpt>
      <trkpt lat="47.81351" lon="7.05661">
        <ele>678</ele>
        <time>2014-06-21T14:13:21Z</time>
      </trkpt>
      <trkpt lat="47.81358" lon="7.05645">
        <ele>677</ele>
        <time>2014-06-21T14:13:32Z</time>
      </trkpt>
      <trkpt lat="47.81359" lon="7.05641">
        <ele>677</ele>
        <time>2014-06-21T14:13:35Z</time>
      </trkpt>
      <trkpt lat="47.81361" lon="7.05627">
        <ele>678</ele>
        <time>2014-06-21T14:13:46Z</time>
      </trkpt>
      <trkpt lat="47.81361" lon="7.05622">
        <ele>678</ele>
        <time>2014-06-21T14:13:49Z</time>
      </trkpt>
      <trkpt lat="47.81361" lon="7.05618">
        <ele>678</ele>
        <time>2014-06-21T14:13:52Z</time>
      </trkpt>
      <trkpt lat="47.8136" lon="7.05598">
        <ele>681</ele>
        <time>2014-06-21T14:14:03Z</time>
      </trkpt>
      <trkpt lat="47.81361" lon="7.05589">
        <ele>681</ele>
        <time>2014-06-21T14:14:08Z</time>
      </trkpt>
      <trkpt lat="47.81366" lon="7.05584">
        <ele>680</ele>
        <time>2014-06-21T14:14:12Z</time>
      </trkpt>
      <trkpt lat="47.81368" lon="7.05581">
        <ele>684</ele>
        <time>2014-06-21T14:14:15Z</time>
      </trkpt>
      <trkpt lat="47.8137" lon="7.05563">
        <ele>684</ele>
        <time>2014-06-21T14:14:26Z</time>
      </trkpt>
      <trkpt lat="47.81369" lon="7.05548">
        <ele>684</ele>
        <time>2014-06-21T14:14:32Z</time>
      </trkpt>
      <trkpt lat="47.81362" lon="7.05525">
        <ele>686</ele>
        <time>2014-06-21T14:14:44Z</time>
      </trkpt>
      <trkpt lat="47.8136" lon="7.05506">
        <ele>688</ele>
        <time>2014-06-21T14:14:57Z</time>
      </trkpt>
      <trkpt lat="47.8135" lon="7.05485">
        <ele>687</ele>
        <time>2014-06-21T14:15:08Z</time>
      </trkpt>
      <trkpt lat="47.81351" lon="7.0548">
        <ele>686</ele>
        <time>2014-06-21T14:15:12Z</time>
      </trkpt>
      <trkpt lat="47.81349" lon="7.05476">
        <ele>686</ele>
        <time>2014-06-21T14:15:17Z</time>
      </trkpt>
      <trkpt lat="47.81343" lon="7.05464">
        <ele>685</ele>
        <time>2014-06-21T14:15:28Z</time>
      </trkpt>
      <trkpt lat="47.81339" lon="7.05457">
        <ele>685</ele>
        <time>2014-06-21T14:15:40Z</time>
      </trkpt>
      <trkpt lat="47.8133" lon="7.05439">
        <ele>706</ele>
        <time>2014-06-21T14:15:50Z</time>
      </trkpt>
      <trkpt lat="47.81323" lon="7.05425">
        <ele>703</ele>
        <time>2014-06-21T14:15:56Z</time>
      </trkpt>
      <trkpt lat="47.81315" lon="7.05411">
        <ele>704</ele>
        <time>2014-06-21T14:16:02Z</time>
      </trkpt>
      <trkpt lat="47.81314" lon="7.05407">
        <ele>705</ele>
        <time>2014-06-21T14:16:05Z</time>
      </trkpt>
      <trkpt lat="47.81315" lon="7.05392">
        <ele>706</ele>
        <time>2014-06-21T14:16:16Z</time>
      </trkpt>
      <trkpt lat="47.81313" lon="7.05387">
        <ele>707</ele>
        <time>2014-06-21T14:16:19Z</time>
      </trkpt>
      <trkpt lat="47.81311" lon="7.05385">
        <ele>707</ele>
        <time>2014-06-21T14:16:21Z</time>
      </trkpt>
      <trkpt lat="47.81305" lon="7.05372">
        <ele>709</ele>
        <time>2014-06-21T14:16:34Z</time>
      </trkpt>
      <trkpt lat="47.81301" lon="7.0536">
        <ele>709</ele>
        <time>2014-06-21T14:16:44Z</time>
      </trkpt>
      <trkpt lat="47.81294" lon="7.05347">
        <ele>711</ele>
        <time>2014-06-21T14:16:51Z</time>
      </trkpt>
      <trkpt lat="47.8129" lon="7.05339">
        <ele>712</ele>
        <time>2014-06-21T14:16:57Z</time>
      </trkpt>
      <trkpt lat="47.81289" lon="7.05335">
        <ele>713</ele>
        <time>2014-06-21T14:16:59Z</time>
      </trkpt>
      <trkpt lat="47.81288" lon="7.05331">
        <ele>709</ele>
        <time>2014-06-21T14:17:02Z</time>
      </trkpt>
      <trkpt lat="47.81285" lon="7.05316">
        <ele>710</ele>
        <time>2014-06-21T14:17:12Z</time>
      </trkpt>
      <trkpt lat="47.81283" lon="7.05312">
        <ele>710</ele>
        <time>2014-06-21T14:17:15Z</time>
      </trkpt>
      <trkpt lat="47.81282" lon="7.05296">
        <ele>709</ele>
        <time>2014-06-21T14:17:25Z</time>
      </trkpt>
      <trkpt lat="47.81281" lon="7.05292">
        <ele>709</ele>
        <time>2014-06-21T14:17:27Z</time>
      </trkpt>
      <trkpt lat="47.8128" lon="7.05288">
        <ele>709</ele>
        <time>2014-06-21T14:17:29Z</time>
      </trkpt>
      <trkpt lat="47.81278" lon="7.05282">
        <ele>710</ele>
        <time>2014-06-21T14:17:32Z</time>
      </trkpt>
      <trkpt lat="47.81267" lon="7.05273">
        <ele>714</ele>
        <time>2014-06-21T14:18:48Z</time>
      </trkpt>
      <trkpt lat="47.81269" lon="7.0528">
        <ele>712</ele>
        <time>2014-06-21T14:19:01Z</time>
      </trkpt>
      <trkpt lat="47.8127" lon="7.05277">
        <ele>712</ele>
        <time>2014-06-21T14:19:27Z</time>
      </trkpt>
      <trkpt lat="47.81272" lon="7.05273">
        <ele>712</ele>
        <time>2014-06-21T14:19:31Z</time>
      </trkpt>
      <trkpt lat="47.81279" lon="7.05247">
        <ele>704</ele>
        <time>2014-06-21T14:19:43Z</time>
      </trkpt>
      <trkpt lat="47.81277" lon="7.05242">
        <ele>705</ele>
        <time>2014-06-21T14:19:45Z</time>
      </trkpt>
      <trkpt lat="47.81271" lon="7.05226">
        <ele>705</ele>
        <time>2014-06-21T14:19:55Z</time>
      </trkpt>
      <trkpt lat="47.81263" lon="7.05218">
        <ele>705</ele>
        <time>2014-06-21T14:20:01Z</time>
      </trkpt>
      <trkpt lat="47.81253" lon="7.05205">
        <ele>705</ele>
        <time>2014-06-21T14:20:12Z</time>
      </trkpt>
      <trkpt lat="47.81256" lon="7.05204">
        <ele>705</ele>
        <time>2014-06-21T14:20:13Z</time>
      </trkpt>
      <trkpt lat="47.8126" lon="7.05193">
        <ele>704</ele>
        <time>2014-06-21T14:20:30Z</time>
      </trkpt>
      <trkpt lat="47.8125" lon="7.05171">
        <ele>713</ele>
        <time>2014-06-21T14:20:40Z</time>
      </trkpt>
      <trkpt lat="47.81248" lon="7.05169">
        <ele>720</ele>
        <time>2014-06-21T14:20:43Z</time>
      </trkpt>
      <trkpt lat="47.81239" lon="7.0515">
        <ele>722</ele>
        <time>2014-06-21T14:20:53Z</time>
      </trkpt>
      <trkpt lat="47.8123" lon="7.05136">
        <ele>724</ele>
        <time>2014-06-21T14:21:13Z</time>
      </trkpt>
      <trkpt lat="47.8122" lon="7.05123">
        <ele>725</ele>
        <time>2014-06-21T14:21:23Z</time>
      </trkpt>
      <trkpt lat="47.81214" lon="7.05112">
        <ele>725</ele>
        <time>2014-06-21T14:21:34Z</time>
      </trkpt>
      <trkpt lat="47.81207" lon="7.05103">
        <ele>726</ele>
        <time>2014-06-21T14:21:44Z</time>
      </trkpt>
      <trkpt lat="47.8119" lon="7.05082">
        <ele>716</ele>
        <time>2014-06-21T14:21:54Z</time>
      </trkpt>
      <trkpt lat="47.81182" lon="7.05069">
        <ele>718</ele>
        <time>2014-06-21T14:22:04Z</time>
      </trkpt>
      <trkpt lat="47.81165" lon="7.05051">
        <ele>742</ele>
        <time>2014-06-21T14:22:14Z</time>
      </trkpt>
      <trkpt lat="47.81162" lon="7.05041">
        <ele>741</ele>
        <time>2014-06-21T14:22:35Z</time>
      </trkpt>
      <trkpt lat="47.81156" lon="7.05026">
        <ele>737</ele>
        <time>2014-06-21T14:22:46Z</time>
      </trkpt>
      <trkpt lat="47.81143" lon="7.04994">
        <ele>721</ele>
        <time>2014-06-21T14:22:53Z</time>
      </trkpt>
      <trkpt lat="47.8114" lon="7.0499">
        <ele>722</ele>
        <time>2014-06-21T14:22:54Z</time>
      </trkpt>
      <trkpt lat="47.81137" lon="7.04987">
        <ele>723</ele>
        <time>2014-06-21T14:22:55Z</time>
      </trkpt>
      <trkpt lat="47.81134" lon="7.04984">
        <ele>724</ele>
        <time>2014-06-21T14:22:56Z</time>
      </trkpt>
      <trkpt lat="47.81122" lon="7.04974">
        <ele>727</ele>
        <time>2014-06-21T14:23:02Z</time>
      </trkpt>
      <trkpt lat="47.81115" lon="7.04962">
        <ele>728</ele>
        <time>2014-06-21T14:23:13Z</time>
      </trkpt>
      <trkpt lat="47.81113" lon="7.04956">
        <ele>727</ele>
        <time>2014-06-21T14:23:36Z</time>
      </trkpt>
      <trkpt lat="47.81093" lon="7.04937">
        <ele>728</ele>
        <time>2014-06-21T14:23:46Z</time>
      </trkpt>
      <trkpt lat="47.8109" lon="7.04934">
        <ele>729</ele>
        <time>2014-06-21T14:23:49Z</time>
      </trkpt>
      <trkpt lat="47.81086" lon="7.04931">
        <ele>729</ele>
        <time>2014-06-21T14:24:04Z</time>
      </trkpt>
      <trkpt lat="47.81057" lon="7.04909">
        <ele>732</ele>
        <time>2014-06-21T14:24:15Z</time>
      </trkpt>
      <trkpt lat="47.81049" lon="7.04903">
        <ele>733</ele>
        <time>2014-06-21T14:24:31Z</time>
      </trkpt>
      <trkpt lat="47.81023" lon="7.04883">
        <ele>735</ele>
        <time>2014-06-21T14:24:42Z</time>
      </trkpt>
      <trkpt lat="47.81021" lon="7.0488">
        <ele>735</ele>
        <time>2014-06-21T14:24:47Z</time>
      </trkpt>
      <trkpt lat="47.81018" lon="7.04877">
        <ele>734</ele>
        <time>2014-06-21T14:25:08Z</time>
      </trkpt>
      <trkpt lat="47.81006" lon="7.04874">
        <ele>735</ele>
        <time>2014-06-21T14:25:18Z</time>
      </trkpt>
      <trkpt lat="47.81003" lon="7.04872">
        <ele>734</ele>
        <time>2014-06-21T14:25:22Z</time>
      </trkpt>
      <trkpt lat="47.80985" lon="7.0486">
        <ele>751</ele>
        <time>2014-06-21T14:25:31Z</time>
      </trkpt>
      <trkpt lat="47.80968" lon="7.04844">
        <ele>753</ele>
        <time>2014-06-21T14:25:42Z</time>
      </trkpt>
      <trkpt lat="47.80958" lon="7.04837">
        <ele>756</ele>
        <time>2014-06-21T14:25:49Z</time>
      </trkpt>
      <trkpt lat="47.80955" lon="7.04835">
        <ele>757</ele>
        <time>2014-06-21T14:25:51Z</time>
      </trkpt>
      <trkpt lat="47.8095" lon="7.04833">
        <ele>758</ele>
        <time>2014-06-21T14:25:54Z</time>
      </trkpt>
      <trkpt lat="47.80947" lon="7.04833">
        <ele>744</ele>
        <time>2014-06-21T14:25:55Z</time>
      </trkpt>
      <trkpt lat="47.80938" lon="7.04831">
        <ele>749</ele>
        <time>2014-06-21T14:25:57Z</time>
      </trkpt>
      <trkpt lat="47.80935" lon="7.04831">
        <ele>750</ele>
        <time>2014-06-21T14:25:58Z</time>
      </trkpt>
      <trkpt lat="47.8093" lon="7.04828">
        <ele>753</ele>
        <time>2014-06-21T14:26:01Z</time>
      </trkpt>
      <trkpt lat="47.80933" lon="7.04811">
        <ele>746</ele>
        <time>2014-06-21T14:26:10Z</time>
      </trkpt>
      <trkpt lat="47.8094" lon="7.04798">
        <ele>742</ele>
        <time>2014-06-21T14:26:16Z</time>
      </trkpt>
      <trkpt lat="47.80954" lon="7.04784">
        <ele>736</ele>
        <time>2014-06-21T14:26:25Z</time>
      </trkpt>
      <trkpt lat="47.80953" lon="7.0478">
        <ele>736</ele>
        <time>2014-06-21T14:26:27Z</time>
      </trkpt>
      <trkpt lat="47.80953" lon="7.04776">
        <ele>736</ele>
        <time>2014-06-21T14:26:29Z</time>
      </trkpt>
      <trkpt lat="47.80946" lon="7.04767">
        <ele>737</ele>
        <time>2014-06-21T14:26:36Z</time>
      </trkpt>
      <trkpt lat="47.80947" lon="7.04761">
        <ele>737</ele>
        <time>2014-06-21T14:26:38Z</time>
      </trkpt>
      <trkpt lat="47.80946" lon="7.04751">
        <ele>737</ele>
        <time>2014-06-21T14:26:42Z</time>
      </trkpt>
      <trkpt lat="47.80929" lon="7.04731">
        <ele>730</ele>
        <time>2014-06-21T14:26:54Z</time>
      </trkpt>
      <trkpt lat="47.80927" lon="7.04727">
        <ele>729</ele>
        <time>2014-06-21T14:26:56Z</time>
      </trkpt>
      <trkpt lat="47.80923" lon="7.04705">
        <ele>724</ele>
        <time>2014-06-21T14:27:07Z</time>
      </trkpt>
      <trkpt lat="47.80912" lon="7.04689">
        <ele>748</ele>
        <time>2014-06-21T14:27:18Z</time>
      </trkpt>
      <trkpt lat="47.8091" lon="7.04685">
        <ele>746</ele>
        <time>2014-06-21T14:27:21Z</time>
      </trkpt>
      <trkpt lat="47.809" lon="7.04678">
        <ele>747</ele>
        <time>2014-06-21T14:27:32Z</time>
      </trkpt>
      <trkpt lat="47.80897" lon="7.04674">
        <ele>748</ele>
        <time>2014-06-21T14:27:34Z</time>
      </trkpt>
      <trkpt lat="47.80885" lon="7.04662">
        <ele>736</ele>
        <time>2014-06-21T14:27:45Z</time>
      </trkpt>
      <trkpt lat="47.80882" lon="7.04655">
        <ele>736</ele>
        <time>2014-06-21T14:28:10Z</time>
      </trkpt>
      <trkpt lat="47.80872" lon="7.04637">
        <ele>736</ele>
        <time>2014-06-21T14:28:15Z</time>
      </trkpt>
      <trkpt lat="47.8087" lon="7.04633">
        <ele>736</ele>
        <time>2014-06-21T14:28:16Z</time>
      </trkpt>
      <trkpt lat="47.80866" lon="7.04627">
        <ele>735</ele>
        <time>2014-06-21T14:28:18Z</time>
      </trkpt>
      <trkpt lat="47.80844" lon="7.04612">
        <ele>736</ele>
        <time>2014-06-21T14:28:29Z</time>
      </trkpt>
      <trkpt lat="47.8083" lon="7.04619">
        <ele>760</ele>
        <time>2014-06-21T14:28:39Z</time>
      </trkpt>
      <trkpt lat="47.80827" lon="7.04623">
        <ele>761</ele>
        <time>2014-06-21T14:28:41Z</time>
      </trkpt>
      <trkpt lat="47.80824" lon="7.04624">
        <ele>762</ele>
        <time>2014-06-21T14:28:57Z</time>
      </trkpt>
      <trkpt lat="47.80821" lon="7.04624">
        <ele>762</ele>
        <time>2014-06-21T14:29:09Z</time>
      </trkpt>
      <trkpt lat="47.80818" lon="7.0462">
        <ele>761</ele>
        <time>2014-06-21T14:29:23Z</time>
      </trkpt>
      <trkpt lat="47.80816" lon="7.04615">
        <ele>761</ele>
        <time>2014-06-21T14:29:24Z</time>
      </trkpt>
      <trkpt lat="47.80813" lon="7.04612">
        <ele>760</ele>
        <time>2014-06-21T14:29:26Z</time>
      </trkpt>
      <trkpt lat="47.80811" lon="7.04609">
        <ele>760</ele>
        <time>2014-06-21T14:29:28Z</time>
      </trkpt>
      <trkpt lat="47.80805" lon="7.04605">
        <ele>760</ele>
        <time>2014-06-21T14:29:41Z</time>
      </trkpt>
      <trkpt lat="47.80802" lon="7.04603">
        <ele>761</ele>
        <time>2014-06-21T14:29:45Z</time>
      </trkpt>
      <trkpt lat="47.808" lon="7.04598">
        <ele>761</ele>
        <time>2014-06-21T14:29:49Z</time>
      </trkpt>
      <trkpt lat="47.80795" lon="7.04594">
        <ele>762</ele>
        <time>2014-06-21T14:29:51Z</time>
      </trkpt>
      <trkpt lat="47.80792" lon="7.04592">
        <ele>762</ele>
        <time>2014-06-21T14:29:52Z</time>
      </trkpt>
      <trkpt lat="47.80783" lon="7.04587">
        <ele>765</ele>
        <time>2014-06-21T14:30:02Z</time>
      </trkpt>
      <trkpt lat="47.80783" lon="7.0458">
        <ele>749</ele>
        <time>2014-06-21T14:30:17Z</time>
      </trkpt>
      <trkpt lat="47.80781" lon="7.04577">
        <ele>749</ele>
        <time>2014-06-21T14:30:19Z</time>
      </trkpt>
      <trkpt lat="47.80777" lon="7.04554">
        <ele>747</ele>
        <time>2014-06-21T14:30:30Z</time>
      </trkpt>
      <trkpt lat="47.8077" lon="7.04534">
        <ele>745</ele>
        <time>2014-06-21T14:30:40Z</time>
      </trkpt>
      <trkpt lat="47.80761" lon="7.04522">
        <ele>746</ele>
        <time>2014-06-21T14:30:51Z</time>
      </trkpt>
      <trkpt lat="47.8075" lon="7.045">
        <ele>752</ele>
        <time>2014-06-21T14:31:01Z</time>
      </trkpt>
      <trkpt lat="47.80749" lon="7.04482">
        <ele>758</ele>
        <time>2014-06-21T14:31:12Z</time>
      </trkpt>
      <trkpt lat="47.80739" lon="7.04465">
        <ele>760</ele>
        <time>2014-06-21T14:31:23Z</time>
      </trkpt>
      <trkpt lat="47.80728" lon="7.04451">
        <ele>761</ele>
        <time>2014-06-21T14:31:31Z</time>
      </trkpt>
      <trkpt lat="47.80724" lon="7.04438">
        <ele>760</ele>
        <time>2014-06-21T14:31:42Z</time>
      </trkpt>
      <trkpt lat="47.80726" lon="7.04427">
        <ele>757</ele>
        <time>2014-06-21T14:31:46Z</time>
      </trkpt>
      <trkpt lat="47.80727" lon="7.04421">
        <ele>755</ele>
        <time>2014-06-21T14:31:48Z</time>
      </trkpt>
      <trkpt lat="47.80726" lon="7.04415">
        <ele>746</ele>
        <time>2014-06-21T14:31:50Z</time>
      </trkpt>
      <trkpt lat="47.80725" lon="7.04411">
        <ele>747</ele>
        <time>2014-06-21T14:31:52Z</time>
      </trkpt>
      <trkpt lat="47.80722" lon="7.04409">
        <ele>748</ele>
        <time>2014-06-21T14:31:55Z</time>
      </trkpt>
      <trkpt lat="47.8072" lon="7.04404">
        <ele>748</ele>
        <time>2014-06-21T14:31:58Z</time>
      </trkpt>
      <trkpt lat="47.80719" lon="7.04397">
        <ele>749</ele>
        <time>2014-06-21T14:32:01Z</time>
      </trkpt>
      <trkpt lat="47.80716" lon="7.04394">
        <ele>749</ele>
        <time>2014-06-21T14:32:03Z</time>
      </trkpt>
      <trkpt lat="47.80711" lon="7.04378">
        <ele>749</ele>
        <time>2014-06-21T14:32:09Z</time>
      </trkpt>
      <trkpt lat="47.80711" lon="7.04373">
        <ele>749</ele>
        <time>2014-06-21T14:32:11Z</time>
      </trkpt>
      <trkpt lat="47.8071" lon="7.0437">
        <ele>749</ele>
        <time>2014-06-21T14:32:13Z</time>
      </trkpt>
      <trkpt lat="47.80705" lon="7.04363">
        <ele>749</ele>
        <time>2014-06-21T14:32:18Z</time>
      </trkpt>
      <trkpt lat="47.80704" lon="7.04338">
        <ele>748</ele>
        <time>2014-06-21T14:32:28Z</time>
      </trkpt>
      <trkpt lat="47.80703" lon="7.04334">
        <ele>748</ele>
        <time>2014-06-21T14:32:30Z</time>
      </trkpt>
      <trkpt lat="47.80697" lon="7.04317">
        <ele>746</ele>
        <time>2014-06-21T14:32:39Z</time>
      </trkpt>
      <trkpt lat="47.80685" lon="7.04304">
        <ele>747</ele>
        <time>2014-06-21T14:32:45Z</time>
      </trkpt>
      <trkpt lat="47.80683" lon="7.04301">
        <ele>747</ele>
        <time>2014-06-21T14:32:47Z</time>
      </trkpt>
      <trkpt lat="47.80681" lon="7.04296">
        <ele>748</ele>
        <time>2014-06-21T14:32:49Z</time>
      </trkpt>
      <trkpt lat="47.80679" lon="7.04293">
        <ele>748</ele>
        <time>2014-06-21T14:32:51Z</time>
      </trkpt>
      <trkpt lat="47.80671" lon="7.04275">
        <ele>749</ele>
        <time>2014-06-21T14:33:00Z</time>
      </trkpt>
      <trkpt lat="47.80659" lon="7.04274">
        <ele>750</ele>
        <time>2014-06-21T14:33:12Z</time>
      </trkpt>
      <trkpt lat="47.80657" lon="7.04276">
        <ele>750</ele>
        <time>2014-06-21T14:33:48Z</time>
      </trkpt>
      <trkpt lat="47.80654" lon="7.04277">
        <ele>750</ele>
        <time>2014-06-21T14:36:21Z</time>
      </trkpt>
      <trkpt lat="47.80653" lon="7.04273">
        <ele>750</ele>
        <time>2014-06-21T14:36:31Z</time>
      </trkpt>
      <trkpt lat="47.80654" lon="7.04277">
        <ele>750</ele>
        <time>2014-06-21T14:38:01Z</time>
      </trkpt>
      <trkpt lat="47.80653" lon="7.04273">
        <ele>750</ele>
        <time>2014-06-21T14:38:28Z</time>
      </trkpt>
      <trkpt lat="47.80654" lon="7.04268">
        <ele>750</ele>
        <time>2014-06-21T14:38:33Z</time>
      </trkpt>
      <trkpt lat="47.80657" lon="7.04258">
        <ele>750</ele>
        <time>2014-06-21T14:38:39Z</time>
      </trkpt>
      <trkpt lat="47.80658" lon="7.04253">
        <ele>751</ele>
        <time>2014-06-21T14:38:42Z</time>
      </trkpt>
      <trkpt lat="47.80666" lon="7.04248">
        <ele>752</ele>
        <time>2014-06-21T14:38:53Z</time>
      </trkpt>
      <trkpt lat="47.80677" lon="7.04245">
        <ele>755</ele>
        <time>2014-06-21T14:39:05Z</time>
      </trkpt>
      <trkpt lat="47.80688" lon="7.04236">
        <ele>757</ele>
        <time>2014-06-21T14:39:16Z</time>
      </trkpt>
      <trkpt lat="47.80689" lon="7.04233">
        <ele>757</ele>
        <time>2014-06-21T14:39:19Z</time>
      </trkpt>
      <trkpt lat="47.807" lon="7.04218">
        <ele>759</ele>
        <time>2014-06-21T14:39:30Z</time>
      </trkpt>
      <trkpt lat="47.8071" lon="7.04208">
        <ele>760</ele>
        <time>2014-06-21T14:39:42Z</time>
      </trkpt>
      <trkpt lat="47.80712" lon="7.04206">
        <ele>760</ele>
        <time>2014-06-21T14:39:45Z</time>
      </trkpt>
      <trkpt lat="47.8072" lon="7.04193">
        <ele>762</ele>
        <time>2014-06-21T14:39:58Z</time>
      </trkpt>
      <trkpt lat="47.80726" lon="7.04177">
        <ele>764</ele>
        <time>2014-06-21T14:40:08Z</time>
      </trkpt>
      <trkpt lat="47.8074" lon="7.04163">
        <ele>774</ele>
        <time>2014-06-21T14:40:19Z</time>
      </trkpt>
      <trkpt lat="47.80742" lon="7.04159">
        <ele>775</ele>
        <time>2014-06-21T14:40:22Z</time>
      </trkpt>
      <trkpt lat="47.80749" lon="7.04148">
        <ele>777</ele>
        <time>2014-06-21T14:40:30Z</time>
      </trkpt>
      <trkpt lat="47.80754" lon="7.04138">
        <ele>774</ele>
        <time>2014-06-21T14:40:40Z</time>
      </trkpt>
      <trkpt lat="47.8076" lon="7.04129">
        <ele>776</ele>
        <time>2014-06-21T14:40:46Z</time>
      </trkpt>
      <trkpt lat="47.80771" lon="7.04116">
        <ele>778</ele>
        <time>2014-06-21T14:40:57Z</time>
      </trkpt>
      <trkpt lat="47.80772" lon="7.04096">
        <ele>783</ele>
        <time>2014-06-21T14:41:07Z</time>
      </trkpt>
      <trkpt lat="47.80772" lon="7.04091">
        <ele>784</ele>
        <time>2014-06-21T14:41:08Z</time>
      </trkpt>
      <trkpt lat="47.80773" lon="7.0408">
        <ele>800</ele>
        <time>2014-06-21T14:41:11Z</time>
      </trkpt>
      <trkpt lat="47.80775" lon="7.04076">
        <ele>800</ele>
        <time>2014-06-21T14:41:13Z</time>
      </trkpt>
      <trkpt lat="47.8078" lon="7.04072">
        <ele>799</ele>
        <time>2014-06-21T14:41:17Z</time>
      </trkpt>
      <trkpt lat="47.80797" lon="7.0407">
        <ele>797</ele>
        <time>2014-06-21T14:41:27Z</time>
      </trkpt>
      <trkpt lat="47.80816" lon="7.0406">
        <ele>794</ele>
        <time>2014-06-21T14:41:41Z</time>
      </trkpt>
      <trkpt lat="47.80821" lon="7.04043">
        <ele>798</ele>
        <time>2014-06-21T14:41:49Z</time>
      </trkpt>
      <trkpt lat="47.80823" lon="7.04039">
        <ele>799</ele>
        <time>2014-06-21T14:41:51Z</time>
      </trkpt>
      <trkpt lat="47.80831" lon="7.04024">
        <ele>802</ele>
        <time>2014-06-21T14:42:03Z</time>
      </trkpt>
      <trkpt lat="47.80842" lon="7.0402">
        <ele>787</ele>
        <time>2014-06-21T14:42:14Z</time>
      </trkpt>
      <trkpt lat="47.80846" lon="7.03991">
        <ele>799</ele>
        <time>2014-06-21T14:42:24Z</time>
      </trkpt>
      <trkpt lat="47.80847" lon="7.03987">
        <ele>799</ele>
        <time>2014-06-21T14:42:26Z</time>
      </trkpt>
      <trkpt lat="47.80842" lon="7.03968">
        <ele>799</ele>
        <time>2014-06-21T14:42:37Z</time>
      </trkpt>
      <trkpt lat="47.80842" lon="7.03961">
        <ele>799</ele>
        <time>2014-06-21T14:42:40Z</time>
      </trkpt>
      <trkpt lat="47.80841" lon="7.03938">
        <ele>804</ele>
        <time>2014-06-21T14:42:52Z</time>
      </trkpt>
      <trkpt lat="47.80842" lon="7.03934">
        <ele>805</ele>
        <time>2014-06-21T14:42:55Z</time>
      </trkpt>
      <trkpt lat="47.80843" lon="7.0393">
        <ele>806</ele>
        <time>2014-06-21T14:42:57Z</time>
      </trkpt>
      <trkpt lat="47.80846" lon="7.03922">
        <ele>807</ele>
        <time>2014-06-21T14:43:01Z</time>
      </trkpt>
      <trkpt lat="47.80851" lon="7.0391">
        <ele>812</ele>
        <time>2014-06-21T14:43:11Z</time>
      </trkpt>
      <trkpt lat="47.80859" lon="7.03904">
        <ele>811</ele>
        <time>2014-06-21T14:43:21Z</time>
      </trkpt>
      <trkpt lat="47.80867" lon="7.03897">
        <ele>809</ele>
        <time>2014-06-21T14:43:32Z</time>
      </trkpt>
      <trkpt lat="47.8087" lon="7.03894">
        <ele>809</ele>
        <time>2014-06-21T14:43:35Z</time>
      </trkpt>
      <trkpt lat="47.80871" lon="7.03882">
        <ele>809</ele>
        <time>2014-06-21T14:43:45Z</time>
      </trkpt>
      <trkpt lat="47.80871" lon="7.03878">
        <ele>810</ele>
        <time>2014-06-21T14:43:49Z</time>
      </trkpt>
      <trkpt lat="47.80872" lon="7.03874">
        <ele>810</ele>
        <time>2014-06-21T14:44:00Z</time>
      </trkpt>
      <trkpt lat="47.80877" lon="7.03855">
        <ele>811</ele>
        <time>2014-06-21T14:44:10Z</time>
      </trkpt>
      <trkpt lat="47.8088" lon="7.03842">
        <ele>811</ele>
        <time>2014-06-21T14:44:14Z</time>
      </trkpt>
      <trkpt lat="47.80881" lon="7.03836">
        <ele>811</ele>
        <time>2014-06-21T14:44:16Z</time>
      </trkpt>
      <trkpt lat="47.80884" lon="7.03826">
        <ele>818</ele>
        <time>2014-06-21T14:44:20Z</time>
      </trkpt>
      <trkpt lat="47.8089" lon="7.03806">
        <ele>818</ele>
        <time>2014-06-21T14:44:30Z</time>
      </trkpt>
      <trkpt lat="47.80891" lon="7.03802">
        <ele>819</ele>
        <time>2014-06-21T14:44:33Z</time>
      </trkpt>
      <trkpt lat="47.80895" lon="7.03799">
        <ele>819</ele>
        <time>2014-06-21T14:44:49Z</time>
      </trkpt>
      <trkpt lat="47.80896" lon="7.03795">
        <ele>819</ele>
        <time>2014-06-21T14:44:52Z</time>
      </trkpt>
      <trkpt lat="47.80899" lon="7.03791">
        <ele>819</ele>
        <time>2014-06-21T14:44:55Z</time>
      </trkpt>
      <trkpt lat="47.80905" lon="7.03786">
        <ele>820</ele>
        <time>2014-06-21T14:45:00Z</time>
      </trkpt>
      <trkpt lat="47.8092" lon="7.03783">
        <ele>821</ele>
        <time>2014-06-21T14:45:09Z</time>
      </trkpt>
      <trkpt lat="47.80938" lon="7.03776">
        <ele>822</ele>
        <time>2014-06-21T14:45:21Z</time>
      </trkpt>
      <trkpt lat="47.80938" lon="7.0377">
        <ele>823</ele>
        <time>2014-06-21T14:45:23Z</time>
      </trkpt>
      <trkpt lat="47.80949" lon="7.03771">
        <ele>823</ele>
        <time>2014-06-21T14:45:36Z</time>
      </trkpt>
      <trkpt lat="47.80966" lon="7.03775">
        <ele>824</ele>
        <time>2014-06-21T14:45:46Z</time>
      </trkpt>
      <trkpt lat="47.80975" lon="7.03774">
        <ele>824</ele>
        <time>2014-06-21T14:45:56Z</time>
      </trkpt>
      <trkpt lat="47.80983" lon="7.03771">
        <ele>826</ele>
        <time>2014-06-21T14:46:01Z</time>
      </trkpt>
      <trkpt lat="47.80995" lon="7.03771">
        <ele>827</ele>
        <time>2014-06-21T14:46:11Z</time>
      </trkpt>
      <trkpt lat="47.81001" lon="7.03776">
        <ele>822</ele>
        <time>2014-06-21T14:46:15Z</time>
      </trkpt>
      <trkpt lat="47.81013" lon="7.03771">
        <ele>823</ele>
        <time>2014-06-21T14:46:26Z</time>
      </trkpt>
      <trkpt lat="47.81024" lon="7.03759">
        <ele>823</ele>
        <time>2014-06-21T14:46:36Z</time>
      </trkpt>
      <trkpt lat="47.81031" lon="7.03759">
        <ele>821</ele>
        <time>2014-06-21T14:46:40Z</time>
      </trkpt>
      <trkpt lat="47.81034" lon="7.03756">
        <ele>820</ele>
        <time>2014-06-21T14:46:42Z</time>
      </trkpt>
      <trkpt lat="47.81036" lon="7.03753">
        <ele>820</ele>
        <time>2014-06-21T14:46:44Z</time>
      </trkpt>
      <trkpt lat="47.81045" lon="7.0374">
        <ele>832</ele>
        <time>2014-06-21T14:46:54Z</time>
      </trkpt>
      <trkpt lat="47.81048" lon="7.03732">
        <ele>833</ele>
        <time>2014-06-21T14:47:00Z</time>
      </trkpt>
      <trkpt lat="47.81053" lon="7.0372">
        <ele>833</ele>
        <time>2014-06-21T14:47:09Z</time>
      </trkpt>
      <trkpt lat="47.81055" lon="7.03716">
        <ele>834</ele>
        <time>2014-06-21T14:47:12Z</time>
      </trkpt>
      <trkpt lat="47.8106" lon="7.03697">
        <ele>836</ele>
        <time>2014-06-21T14:47:22Z</time>
      </trkpt>
      <trkpt lat="47.81061" lon="7.03692">
        <ele>836</ele>
        <time>2014-06-21T14:47:24Z</time>
      </trkpt>
      <trkpt lat="47.81062" lon="7.03688">
        <ele>837</ele>
        <time>2014-06-21T14:47:26Z</time>
      </trkpt>
      <trkpt lat="47.81064" lon="7.03677">
        <ele>838</ele>
        <time>2014-06-21T14:47:32Z</time>
      </trkpt>
      <trkpt lat="47.81065" lon="7.03658">
        <ele>844</ele>
        <time>2014-06-21T14:47:43Z</time>
      </trkpt>
      <trkpt lat="47.81068" lon="7.03636">
        <ele>846</ele>
        <time>2014-06-21T14:47:55Z</time>
      </trkpt>
      <trkpt lat="47.81073" lon="7.03623">
        <ele>848</ele>
        <time>2014-06-21T14:48:03Z</time>
      </trkpt>
      <trkpt lat="47.81084" lon="7.03618">
        <ele>841</ele>
        <time>2014-06-21T14:48:15Z</time>
      </trkpt>
      <trkpt lat="47.81088" lon="7.03617">
        <ele>841</ele>
        <time>2014-06-21T14:48:17Z</time>
      </trkpt>
      <trkpt lat="47.81099" lon="7.03604">
        <ele>843</ele>
        <time>2014-06-21T14:48:27Z</time>
      </trkpt>
      <trkpt lat="47.81101" lon="7.03601">
        <ele>843</ele>
        <time>2014-06-21T14:48:30Z</time>
      </trkpt>
      <trkpt lat="47.81111" lon="7.03594">
        <ele>842</ele>
        <time>2014-06-21T14:48:37Z</time>
      </trkpt>
      <trkpt lat="47.8112" lon="7.03581">
        <ele>849</ele>
        <time>2014-06-21T14:48:47Z</time>
      </trkpt>
      <trkpt lat="47.8112" lon="7.03576">
        <ele>850</ele>
        <time>2014-06-21T14:48:50Z</time>
      </trkpt>
      <trkpt lat="47.81124" lon="7.0356">
        <ele>850</ele>
        <time>2014-06-21T14:49:00Z</time>
      </trkpt>
      <trkpt lat="47.81129" lon="7.03542">
        <ele>850</ele>
        <time>2014-06-21T14:49:11Z</time>
      </trkpt>
      <trkpt lat="47.81135" lon="7.03528">
        <ele>851</ele>
        <time>2014-06-21T14:49:22Z</time>
      </trkpt>
      <trkpt lat="47.81138" lon="7.03525">
        <ele>851</ele>
        <time>2014-06-21T14:49:25Z</time>
      </trkpt>
      <trkpt lat="47.81142" lon="7.03522">
        <ele>851</ele>
        <time>2014-06-21T14:49:28Z</time>
      </trkpt>
      <trkpt lat="47.81149" lon="7.03506">
        <ele>852</ele>
        <time>2014-06-21T14:49:38Z</time>
      </trkpt>
      <trkpt lat="47.8115" lon="7.03502">
        <ele>852</ele>
        <time>2014-06-21T14:49:41Z</time>
      </trkpt>
      <trkpt lat="47.81153" lon="7.03501">
        <ele>853</ele>
        <time>2014-06-21T14:49:45Z</time>
      </trkpt>
      <trkpt lat="47.81158" lon="7.03489">
        <ele>855</ele>
        <time>2014-06-21T14:49:53Z</time>
      </trkpt>
      <trkpt lat="47.81159" lon="7.03483">
        <ele>856</ele>
        <time>2014-06-21T14:49:55Z</time>
      </trkpt>
      <trkpt lat="47.81162" lon="7.03465">
        <ele>857</ele>
        <time>2014-06-21T14:50:05Z</time>
      </trkpt>
      <trkpt lat="47.81163" lon="7.03442">
        <ele>859</ele>
        <time>2014-06-21T14:50:15Z</time>
      </trkpt>
      <trkpt lat="47.81164" lon="7.03436">
        <ele>860</ele>
        <time>2014-06-21T14:50:17Z</time>
      </trkpt>
      <trkpt lat="47.81166" lon="7.03431">
        <ele>860</ele>
        <time>2014-06-21T14:50:19Z</time>
      </trkpt>
      <trkpt lat="47.81168" lon="7.03412">
        <ele>865</ele>
        <time>2014-06-21T14:50:29Z</time>
      </trkpt>
      <trkpt lat="47.81169" lon="7.03408">
        <ele>865</ele>
        <time>2014-06-21T14:50:32Z</time>
      </trkpt>
      <trkpt lat="47.81171" lon="7.03395">
        <ele>866</ele>
        <time>2014-06-21T14:50:47Z</time>
      </trkpt>
      <trkpt lat="47.81174" lon="7.03392">
        <ele>867</ele>
        <time>2014-06-21T14:50:55Z</time>
      </trkpt>
      <trkpt lat="47.81179" lon="7.03388">
        <ele>867</ele>
        <time>2014-06-21T14:51:33Z</time>
      </trkpt>
      <trkpt lat="47.81179" lon="7.03382">
        <ele>867</ele>
        <time>2014-06-21T14:51:37Z</time>
      </trkpt>
      <trkpt lat="47.81178" lon="7.03378">
        <ele>867</ele>
        <time>2014-06-21T14:51:42Z</time>
      </trkpt>
      <trkpt lat="47.81171" lon="7.03367">
        <ele>867</ele>
        <time>2014-06-21T14:51:51Z</time>
      </trkpt>
      <trkpt lat="47.81172" lon="7.03358">
        <ele>867</ele>
        <time>2014-06-21T14:51:57Z</time>
      </trkpt>
      <trkpt lat="47.81173" lon="7.03343">
        <ele>866</ele>
        <time>2014-06-21T14:52:08Z</time>
      </trkpt>
      <trkpt lat="47.81174" lon="7.03333">
        <ele>866</ele>
        <time>2014-06-21T14:52:13Z</time>
      </trkpt>
      <trkpt lat="47.81173" lon="7.03324">
        <ele>866</ele>
        <time>2014-06-21T14:52:17Z</time>
      </trkpt>
      <trkpt lat="47.81173" lon="7.03307">
        <ele>868</ele>
        <time>2014-06-21T14:52:29Z</time>
      </trkpt>
      <trkpt lat="47.8118" lon="7.03285">
        <ele>868</ele>
        <time>2014-06-21T14:52:41Z</time>
      </trkpt>
      <trkpt lat="47.81182" lon="7.03275">
        <ele>867</ele>
        <time>2014-06-21T14:52:47Z</time>
      </trkpt>
      <trkpt lat="47.81185" lon="7.03257">
        <ele>867</ele>
        <time>2014-06-21T14:52:59Z</time>
      </trkpt>
      <trkpt lat="47.81188" lon="7.03256">
        <ele>867</ele>
        <time>2014-06-21T14:53:02Z</time>
      </trkpt>
      <trkpt lat="47.81198" lon="7.03253">
        <ele>868</ele>
        <time>2014-06-21T14:53:14Z</time>
      </trkpt>
      <trkpt lat="47.81202" lon="7.03254">
        <ele>869</ele>
        <time>2014-06-21T14:53:18Z</time>
      </trkpt>
      <trkpt lat="47.81205" lon="7.03253">
        <ele>869</ele>
        <time>2014-06-21T14:53:22Z</time>
      </trkpt>
      <trkpt lat="47.81214" lon="7.03249">
        <ele>863</ele>
        <time>2014-06-21T14:53:36Z</time>
      </trkpt>
      <trkpt lat="47.81224" lon="7.03241">
        <ele>864</ele>
        <time>2014-06-21T14:53:45Z</time>
      </trkpt>
      <trkpt lat="47.8123" lon="7.0324">
        <ele>865</ele>
        <time>2014-06-21T14:53:56Z</time>
      </trkpt>
      <trkpt lat="47.8125" lon="7.03245">
        <ele>873</ele>
        <time>2014-06-21T14:54:07Z</time>
      </trkpt>
      <trkpt lat="47.81253" lon="7.03247">
        <ele>875</ele>
        <time>2014-06-21T14:54:10Z</time>
      </trkpt>
      <trkpt lat="47.81266" lon="7.0324">
        <ele>872</ele>
        <time>2014-06-21T14:54:21Z</time>
      </trkpt>
      <trkpt lat="47.8127" lon="7.03239">
        <ele>872</ele>
        <time>2014-06-21T14:54:23Z</time>
      </trkpt>
      <trkpt lat="47.8128" lon="7.03236">
        <ele>872</ele>
        <time>2014-06-21T14:54:33Z</time>
      </trkpt>
      <trkpt lat="47.81283" lon="7.03237">
        <ele>872</ele>
        <time>2014-06-21T14:54:36Z</time>
      </trkpt>
      <trkpt lat="47.81297" lon="7.03238">
        <ele>873</ele>
        <time>2014-06-21T14:54:46Z</time>
      </trkpt>
      <trkpt lat="47.813" lon="7.03237">
        <ele>874</ele>
        <time>2014-06-21T14:54:48Z</time>
      </trkpt>
      <trkpt lat="47.81304" lon="7.03238">
        <ele>874</ele>
        <time>2014-06-21T14:54:50Z</time>
      </trkpt>
      <trkpt lat="47.81308" lon="7.0324">
        <ele>875</ele>
        <time>2014-06-21T14:54:52Z</time>
      </trkpt>
      <trkpt lat="47.81312" lon="7.03241">
        <ele>877</ele>
        <time>2014-06-21T14:54:54Z</time>
      </trkpt>
      <trkpt lat="47.81334" lon="7.03239">
        <ele>886</ele>
        <time>2014-06-21T14:55:11Z</time>
      </trkpt>
      <trkpt lat="47.8134" lon="7.0324">
        <ele>886</ele>
        <time>2014-06-21T14:55:22Z</time>
      </trkpt>
      <trkpt lat="47.81355" lon="7.03238">
        <ele>885</ele>
        <time>2014-06-21T14:55:32Z</time>
      </trkpt>
      <trkpt lat="47.81358" lon="7.03236">
        <ele>885</ele>
        <time>2014-06-21T14:55:34Z</time>
      </trkpt>
      <trkpt lat="47.81379" lon="7.03232">
        <ele>886</ele>
        <time>2014-06-21T14:55:45Z</time>
      </trkpt>
      <trkpt lat="47.81384" lon="7.03233">
        <ele>887</ele>
        <time>2014-06-21T14:55:47Z</time>
      </trkpt>
      <trkpt lat="47.81391" lon="7.03238">
        <ele>889</ele>
        <time>2014-06-21T14:55:54Z</time>
      </trkpt>
      <trkpt lat="47.81407" lon="7.03239">
        <ele>893</ele>
        <time>2014-06-21T14:56:05Z</time>
      </trkpt>
      <trkpt lat="47.81422" lon="7.03234">
        <ele>901</ele>
        <time>2014-06-21T14:56:16Z</time>
      </trkpt>
      <trkpt lat="47.81425" lon="7.03233">
        <ele>901</ele>
        <time>2014-06-21T14:56:18Z</time>
      </trkpt>
      <trkpt lat="47.81435" lon="7.03236">
        <ele>901</ele>
        <time>2014-06-21T14:56:29Z</time>
      </trkpt>
      <trkpt lat="47.8145" lon="7.03232">
        <ele>902</ele>
        <time>2014-06-21T14:56:39Z</time>
      </trkpt>
      <trkpt lat="47.81462" lon="7.03232">
        <ele>904</ele>
        <time>2014-06-21T14:56:53Z</time>
      </trkpt>
      <trkpt lat="47.81469" lon="7.0323">
        <ele>905</ele>
        <time>2014-06-21T14:56:58Z</time>
      </trkpt>
      <trkpt lat="47.81476" lon="7.03231">
        <ele>906</ele>
        <time>2014-06-21T14:57:07Z</time>
      </trkpt>
      <trkpt lat="47.8148" lon="7.03231">
        <ele>907</ele>
        <time>2014-06-21T14:57:10Z</time>
      </trkpt>
      <trkpt lat="47.815" lon="7.03219">
        <ele>920</ele>
        <time>2014-06-21T14:57:20Z</time>
      </trkpt>
      <trkpt lat="47.81515" lon="7.03209">
        <ele>920</ele>
        <time>2014-06-21T14:57:31Z</time>
      </trkpt>
      <trkpt lat="47.81521" lon="7.03199">
        <ele>920</ele>
        <time>2014-06-21T14:57:44Z</time>
      </trkpt>
      <trkpt lat="47.81528" lon="7.03192">
        <ele>920</ele>
        <time>2014-06-21T14:57:48Z</time>
      </trkpt>
      <trkpt lat="47.81532" lon="7.0319">
        <ele>921</ele>
        <time>2014-06-21T14:57:50Z</time>
      </trkpt>
      <trkpt lat="47.81545" lon="7.03167">
        <ele>918</ele>
        <time>2014-06-21T14:58:00Z</time>
      </trkpt>
      <trkpt lat="47.81549" lon="7.03166">
        <ele>919</ele>
        <time>2014-06-21T14:58:02Z</time>
      </trkpt>
      <trkpt lat="47.81553" lon="7.03163">
        <ele>920</ele>
        <time>2014-06-21T14:58:04Z</time>
      </trkpt>
      <trkpt lat="47.81558" lon="7.03157">
        <ele>921</ele>
        <time>2014-06-21T14:58:08Z</time>
      </trkpt>
      <trkpt lat="47.81565" lon="7.03141">
        <ele>921</ele>
        <time>2014-06-21T14:58:21Z</time>
      </trkpt>
      <trkpt lat="47.8157" lon="7.03121">
        <ele>920</ele>
        <time>2014-06-21T14:58:31Z</time>
      </trkpt>
      <trkpt lat="47.81576" lon="7.03111">
        <ele>921</ele>
        <time>2014-06-21T14:58:42Z</time>
      </trkpt>
      <trkpt lat="47.8158" lon="7.03109">
        <ele>922</ele>
        <time>2014-06-21T14:58:44Z</time>
      </trkpt>
      <trkpt lat="47.81587" lon="7.03103">
        <ele>942</ele>
        <time>2014-06-21T14:58:49Z</time>
      </trkpt>
      <trkpt lat="47.81589" lon="7.03099">
        <ele>941</ele>
        <time>2014-06-21T14:58:52Z</time>
      </trkpt>
      <trkpt lat="47.81589" lon="7.03076">
        <ele>937</ele>
        <time>2014-06-21T14:59:07Z</time>
      </trkpt>
      <trkpt lat="47.81593" lon="7.0307">
        <ele>940</ele>
        <time>2014-06-21T14:59:11Z</time>
      </trkpt>
      <trkpt lat="47.81593" lon="7.03066">
        <ele>942</ele>
        <time>2014-06-21T14:59:15Z</time>
      </trkpt>
      <trkpt lat="47.81596" lon="7.03064">
        <ele>943</ele>
        <time>2014-06-21T14:59:20Z</time>
      </trkpt>
      <trkpt lat="47.816" lon="7.03059">
        <ele>945</ele>
        <time>2014-06-21T14:59:25Z</time>
      </trkpt>
      <trkpt lat="47.81597" lon="7.03039">
        <ele>945</ele>
        <time>2014-06-21T14:59:35Z</time>
      </trkpt>
      <trkpt lat="47.81599" lon="7.03035">
        <ele>945</ele>
        <time>2014-06-21T14:59:40Z</time>
      </trkpt>
      <trkpt lat="47.81607" lon="7.03012">
        <ele>945</ele>
        <time>2014-06-21T14:59:50Z</time>
      </trkpt>
      <trkpt lat="47.81612" lon="7.02993">
        <ele>951</ele>
        <time>2014-06-21T15:00:01Z</time>
      </trkpt>
      <trkpt lat="47.8162" lon="7.02973">
        <ele>957</ele>
        <time>2014-06-21T15:00:12Z</time>
      </trkpt>
      <trkpt lat="47.81622" lon="7.02971">
        <ele>958</ele>
        <time>2014-06-21T15:00:15Z</time>
      </trkpt>
      <trkpt lat="47.81622" lon="7.02957">
        <ele>959</ele>
        <time>2014-06-21T15:00:26Z</time>
      </trkpt>
      <trkpt lat="47.81631" lon="7.02929">
        <ele>964</ele>
        <time>2014-06-21T15:00:36Z</time>
      </trkpt>
      <trkpt lat="47.81622" lon="7.02926">
        <ele>961</ele>
        <time>2014-06-21T15:02:34Z</time>
      </trkpt>
      <trkpt lat="47.8162" lon="7.0292">
        <ele>961</ele>
        <time>2014-06-21T15:02:36Z</time>
      </trkpt>
      <trkpt lat="47.81618" lon="7.02908">
        <ele>974</ele>
        <time>2014-06-21T15:02:59Z</time>
      </trkpt>
      <trkpt lat="47.81623" lon="7.02898">
        <ele>976</ele>
        <time>2014-06-21T15:03:03Z</time>
      </trkpt>
      <trkpt lat="47.81627" lon="7.02885">
        <ele>979</ele>
        <time>2014-06-21T15:03:36Z</time>
      </trkpt>
      <trkpt lat="47.81623" lon="7.0288">
        <ele>978</ele>
        <time>2014-06-21T15:03:38Z</time>
      </trkpt>
      <trkpt lat="47.81601" lon="7.02864">
        <ele>977</ele>
        <time>2014-06-21T15:03:49Z</time>
      </trkpt>
      <trkpt lat="47.81597" lon="7.02857">
        <ele>977</ele>
        <time>2014-06-21T15:03:56Z</time>
      </trkpt>
      <trkpt lat="47.81592" lon="7.02849">
        <ele>977</ele>
        <time>2014-06-21T15:04:05Z</time>
      </trkpt>
      <trkpt lat="47.81588" lon="7.02845">
        <ele>976</ele>
        <time>2014-06-21T15:04:08Z</time>
      </trkpt>
      <trkpt lat="47.81582" lon="7.02842">
        <ele>966</ele>
        <time>2014-06-21T15:04:13Z</time>
      </trkpt>
      <trkpt lat="47.81573" lon="7.02832">
        <ele>974</ele>
        <time>2014-06-21T15:04:25Z</time>
      </trkpt>
      <trkpt lat="47.81568" lon="7.02826">
        <ele>974</ele>
        <time>2014-06-21T15:04:34Z</time>
      </trkpt>
      <trkpt lat="47.81566" lon="7.02822">
        <ele>973</ele>
        <time>2014-06-21T15:04:38Z</time>
      </trkpt>
      <trkpt lat="47.81564" lon="7.02818">
        <ele>973</ele>
        <time>2014-06-21T15:04:41Z</time>
      </trkpt>
      <trkpt lat="47.81559" lon="7.02805">
        <ele>974</ele>
        <time>2014-06-21T15:05:00Z</time>
      </trkpt>
      <trkpt lat="47.81558" lon="7.02801">
        <ele>975</ele>
        <time>2014-06-21T15:05:04Z</time>
      </trkpt>
      <trkpt lat="47.81546" lon="7.02788">
        <ele>975</ele>
        <time>2014-06-21T15:05:16Z</time>
      </trkpt>
      <trkpt lat="47.81544" lon="7.02785">
        <ele>975</ele>
        <time>2014-06-21T15:05:18Z</time>
      </trkpt>
      <trkpt lat="47.81541" lon="7.0278">
        <ele>975</ele>
        <time>2014-06-21T15:05:20Z</time>
      </trkpt>
      <trkpt lat="47.81534" lon="7.02766">
        <ele>976</ele>
        <time>2014-06-21T15:05:33Z</time>
      </trkpt>
      <trkpt lat="47.81532" lon="7.02762">
        <ele>975</ele>
        <time>2014-06-21T15:05:36Z</time>
      </trkpt>
      <trkpt lat="47.81529" lon="7.02758">
        <ele>975</ele>
        <time>2014-06-21T15:05:40Z</time>
      </trkpt>
      <trkpt lat="47.81523" lon="7.02748">
        <ele>987</ele>
        <time>2014-06-21T15:05:51Z</time>
      </trkpt>
      <trkpt lat="47.81517" lon="7.02733">
        <ele>987</ele>
        <time>2014-06-21T15:06:02Z</time>
      </trkpt>
      <trkpt lat="47.81507" lon="7.02719">
        <ele>990</ele>
        <time>2014-06-21T15:06:16Z</time>
      </trkpt>
      <trkpt lat="47.81505" lon="7.02694">
        <ele>994</ele>
        <time>2014-06-21T15:06:28Z</time>
      </trkpt>
      <trkpt lat="47.81501" lon="7.02682">
        <ele>994</ele>
        <time>2014-06-21T15:06:39Z</time>
      </trkpt>
      <trkpt lat="47.81498" lon="7.02667">
        <ele>991</ele>
        <time>2014-06-21T15:06:48Z</time>
      </trkpt>
      <trkpt lat="47.81498" lon="7.02663">
        <ele>989</ele>
        <time>2014-06-21T15:06:50Z</time>
      </trkpt>
      <trkpt lat="47.81502" lon="7.02648">
        <ele>1000</ele>
        <time>2014-06-21T15:07:02Z</time>
      </trkpt>
      <trkpt lat="47.81502" lon="7.02644">
        <ele>1000</ele>
        <time>2014-06-21T15:07:05Z</time>
      </trkpt>
      <trkpt lat="47.81505" lon="7.02632">
        <ele>1002</ele>
        <time>2014-06-21T15:07:16Z</time>
      </trkpt>
      <trkpt lat="47.81514" lon="7.02613">
        <ele>1002</ele>
        <time>2014-06-21T15:07:28Z</time>
      </trkpt>
      <trkpt lat="47.81515" lon="7.02608">
        <ele>1002</ele>
        <time>2014-06-21T15:07:31Z</time>
      </trkpt>
      <trkpt lat="47.81519" lon="7.02599">
        <ele>1001</ele>
        <time>2014-06-21T15:07:36Z</time>
      </trkpt>
      <trkpt lat="47.81536" lon="7.02589">
        <ele>1005</ele>
        <time>2014-06-21T15:07:51Z</time>
      </trkpt>
      <trkpt lat="47.81543" lon="7.0258">
        <ele>1004</ele>
        <time>2014-06-21T15:08:03Z</time>
      </trkpt>
      <trkpt lat="47.81549" lon="7.02575">
        <ele>1006</ele>
        <time>2014-06-21T15:08:19Z</time>
      </trkpt>
      <trkpt lat="47.81554" lon="7.02563">
        <ele>1006</ele>
        <time>2014-06-21T15:08:30Z</time>
      </trkpt>
      <trkpt lat="47.81556" lon="7.0256">
        <ele>1006</ele>
        <time>2014-06-21T15:08:32Z</time>
      </trkpt>
      <trkpt lat="47.8157" lon="7.02541">
        <ele>1007</ele>
        <time>2014-06-21T15:08:43Z</time>
      </trkpt>
      <trkpt lat="47.81572" lon="7.02537">
        <ele>1007</ele>
        <time>2014-06-21T15:08:47Z</time>
      </trkpt>
      <trkpt lat="47.81583" lon="7.02526">
        <ele>1008</ele>
        <time>2014-06-21T15:08:58Z</time>
      </trkpt>
      <trkpt lat="47.816" lon="7.02503">
        <ele>1024</ele>
        <time>2014-06-21T15:09:11Z</time>
      </trkpt>
      <trkpt lat="47.81612" lon="7.02495">
        <ele>1019</ele>
        <time>2014-06-21T15:09:20Z</time>
      </trkpt>
      <trkpt lat="47.81618" lon="7.02489">
        <ele>1020</ele>
        <time>2014-06-21T15:09:25Z</time>
      </trkpt>
      <trkpt lat="47.81626" lon="7.02475">
        <ele>1021</ele>
        <time>2014-06-21T15:09:36Z</time>
      </trkpt>
      <trkpt lat="47.81632" lon="7.02472">
        <ele>1021</ele>
        <time>2014-06-21T15:09:41Z</time>
      </trkpt>
      <trkpt lat="47.8165" lon="7.02476">
        <ele>1026</ele>
        <time>2014-06-21T15:09:57Z</time>
      </trkpt>
      <trkpt lat="47.81663" lon="7.0246">
        <ele>1024</ele>
        <time>2014-06-21T15:10:09Z</time>
      </trkpt>
      <trkpt lat="47.81678" lon="7.0247">
        <ele>1040</ele>
        <time>2014-06-21T15:10:20Z</time>
      </trkpt>
      <trkpt lat="47.8168" lon="7.02466">
        <ele>1040</ele>
        <time>2014-06-21T15:10:32Z</time>
      </trkpt>
      <trkpt lat="47.81692" lon="7.02465">
        <ele>1041</ele>
        <time>2014-06-21T15:10:39Z</time>
      </trkpt>
      <trkpt lat="47.81696" lon="7.02466">
        <ele>1041</ele>
        <time>2014-06-21T15:10:41Z</time>
      </trkpt>
      <trkpt lat="47.81703" lon="7.02467">
        <ele>1042</ele>
        <time>2014-06-21T15:10:45Z</time>
      </trkpt>
      <trkpt lat="47.81718" lon="7.02459">
        <ele>1043</ele>
        <time>2014-06-21T15:10:55Z</time>
      </trkpt>
      <trkpt lat="47.81723" lon="7.02465">
        <ele>1044</ele>
        <time>2014-06-21T15:11:00Z</time>
      </trkpt>
      <trkpt lat="47.81727" lon="7.02462">
        <ele>1044</ele>
        <time>2014-06-21T15:11:10Z</time>
      </trkpt>
      <trkpt lat="47.81743" lon="7.02457">
        <ele>1044</ele>
        <time>2014-06-21T15:11:19Z</time>
      </trkpt>
      <trkpt lat="47.81756" lon="7.02454">
        <ele>1054</ele>
        <time>2014-06-21T15:11:35Z</time>
      </trkpt>
      <trkpt lat="47.81771" lon="7.02455">
        <ele>1055</ele>
        <time>2014-06-21T15:11:46Z</time>
      </trkpt>
      <trkpt lat="47.81785" lon="7.02455">
        <ele>1056</ele>
        <time>2014-06-21T15:11:55Z</time>
      </trkpt>
      <trkpt lat="47.81795" lon="7.02453">
        <ele>1057</ele>
        <time>2014-06-21T15:12:06Z</time>
      </trkpt>
      <trkpt lat="47.81798" lon="7.02453">
        <ele>1057</ele>
        <time>2014-06-21T15:12:12Z</time>
      </trkpt>
      <trkpt lat="47.81814" lon="7.02459">
        <ele>1059</ele>
        <time>2014-06-21T15:12:23Z</time>
      </trkpt>
      <trkpt lat="47.81817" lon="7.02463">
        <ele>1060</ele>
        <time>2014-06-21T15:12:25Z</time>
      </trkpt>
      <trkpt lat="47.81824" lon="7.02466">
        <ele>1062</ele>
        <time>2014-06-21T15:12:32Z</time>
      </trkpt>
      <trkpt lat="47.81834" lon="7.02469">
        <ele>1068</ele>
        <time>2014-06-21T15:12:42Z</time>
      </trkpt>
      <trkpt lat="47.81842" lon="7.02471">
        <ele>1069</ele>
        <time>2014-06-21T15:12:53Z</time>
      </trkpt>
      <trkpt lat="47.81855" lon="7.02473">
        <ele>1069</ele>
        <time>2014-06-21T15:13:02Z</time>
      </trkpt>
      <trkpt lat="47.81861" lon="7.02474">
        <ele>1069</ele>
        <time>2014-06-21T15:13:09Z</time>
      </trkpt>
      <trkpt lat="47.81872" lon="7.02474">
        <ele>1069</ele>
        <time>2014-06-21T15:13:20Z</time>
      </trkpt>
      <trkpt lat="47.81883" lon="7.02475">
        <ele>1069</ele>
        <time>2014-06-21T15:13:30Z</time>
      </trkpt>
      <trkpt lat="47.81891" lon="7.02481">
        <ele>1070</ele>
        <time>2014-06-21T15:13:34Z</time>
      </trkpt>
      <trkpt lat="47.81895" lon="7.02481">
        <ele>1071</ele>
        <time>2014-06-21T15:13:36Z</time>
      </trkpt>
      <trkpt lat="47.81899" lon="7.02479">
        <ele>1071</ele>
        <time>2014-06-21T15:13:40Z</time>
      </trkpt>
      <trkpt lat="47.81911" lon="7.02477">
        <ele>1071</ele>
        <time>2014-06-21T15:13:54Z</time>
      </trkpt>
      <trkpt lat="47.81914" lon="7.02478">
        <ele>1071</ele>
        <time>2014-06-21T15:15:07Z</time>
      </trkpt>
      <trkpt lat="47.81917" lon="7.02479">
        <ele>1075</ele>
        <time>2014-06-21T15:15:26Z</time>
      </trkpt>
      <trkpt lat="47.81914" lon="7.02479">
        <ele>1071</ele>
        <time>2014-06-21T15:20:44Z</time>
      </trkpt>
      <trkpt lat="47.81916" lon="7.02483">
        <ele>1072</ele>
        <time>2014-06-21T15:21:41Z</time>
      </trkpt>
      <trkpt lat="47.81925" lon="7.02476">
        <ele>1074</ele>
        <time>2014-06-21T15:21:53Z</time>
      </trkpt>
      <trkpt lat="47.81925" lon="7.02472">
        <ele>1074</ele>
        <time>2014-06-21T15:21:56Z</time>
      </trkpt>
      <trkpt lat="47.81929" lon="7.02471">
        <ele>1074</ele>
        <time>2014-06-21T15:21:59Z</time>
      </trkpt>
      <trkpt lat="47.81932" lon="7.0247">
        <ele>1074</ele>
        <time>2014-06-21T15:22:01Z</time>
      </trkpt>
      <trkpt lat="47.81948" lon="7.02457">
        <ele>1073</ele>
        <time>2014-06-21T15:22:13Z</time>
      </trkpt>
      <trkpt lat="47.81961" lon="7.02449">
        <ele>1073</ele>
        <time>2014-06-21T15:22:25Z</time>
      </trkpt>
      <trkpt lat="47.81964" lon="7.02448">
        <ele>1073</ele>
        <time>2014-06-21T15:22:27Z</time>
      </trkpt>
      <trkpt lat="47.81976" lon="7.02443">
        <ele>1073</ele>
        <time>2014-06-21T15:22:35Z</time>
      </trkpt>
      <trkpt lat="47.81991" lon="7.02438">
        <ele>1072</ele>
        <time>2014-06-21T15:22:46Z</time>
      </trkpt>
      <trkpt lat="47.82003" lon="7.02431">
        <ele>1076</ele>
        <time>2014-06-21T15:22:57Z</time>
      </trkpt>
      <trkpt lat="47.82014" lon="7.02426">
        <ele>1077</ele>
        <time>2014-06-21T15:23:06Z</time>
      </trkpt>
      <trkpt lat="47.82017" lon="7.02425">
        <ele>1078</ele>
        <time>2014-06-21T15:23:09Z</time>
      </trkpt>
      <trkpt lat="47.82019" lon="7.02422">
        <ele>1079</ele>
        <time>2014-06-21T15:23:11Z</time>
      </trkpt>
      <trkpt lat="47.82033" lon="7.02408">
        <ele>1074</ele>
        <time>2014-06-21T15:23:23Z</time>
      </trkpt>
      <trkpt lat="47.82035" lon="7.02404">
        <ele>1074</ele>
        <time>2014-06-21T15:23:26Z</time>
      </trkpt>
      <trkpt lat="47.8204" lon="7.0239">
        <ele>1074</ele>
        <time>2014-06-21T15:23:34Z</time>
      </trkpt>
      <trkpt lat="47.8205" lon="7.02372">
        <ele>1074</ele>
        <time>2014-06-21T15:23:46Z</time>
      </trkpt>
      <trkpt lat="47.82067" lon="7.02371">
        <ele>1076</ele>
        <time>2014-06-21T15:23:57Z</time>
      </trkpt>
      <trkpt lat="47.82069" lon="7.02366">
        <ele>1076</ele>
        <time>2014-06-21T15:24:00Z</time>
      </trkpt>
      <trkpt lat="47.82071" lon="7.02363">
        <ele>1076</ele>
        <time>2014-06-21T15:24:02Z</time>
      </trkpt>
      <trkpt lat="47.82073" lon="7.0236">
        <ele>1076</ele>
        <time>2014-06-21T15:24:04Z</time>
      </trkpt>
      <trkpt lat="47.82081" lon="7.02353">
        <ele>1077</ele>
        <time>2014-06-21T15:24:11Z</time>
      </trkpt>
      <trkpt lat="47.82081" lon="7.02344">
        <ele>1077</ele>
        <time>2014-06-21T15:24:16Z</time>
      </trkpt>
      <trkpt lat="47.82086" lon="7.02328">
        <ele>1080</ele>
        <time>2014-06-21T15:24:28Z</time>
      </trkpt>
      <trkpt lat="47.8209" lon="7.02327">
        <ele>1080</ele>
        <time>2014-06-21T15:24:45Z</time>
      </trkpt>
      <trkpt lat="47.82101" lon="7.02314">
        <ele>1082</ele>
        <time>2014-06-21T15:24:56Z</time>
      </trkpt>
      <trkpt lat="47.82105" lon="7.02307">
        <ele>1082</ele>
        <time>2014-06-21T15:25:01Z</time>
      </trkpt>
      <trkpt lat="47.82118" lon="7.02292">
        <ele>1082</ele>
        <time>2014-06-21T15:25:15Z</time>
      </trkpt>
      <trkpt lat="47.82124" lon="7.02281">
        <ele>1082</ele>
        <time>2014-06-21T15:25:22Z</time>
      </trkpt>
      <trkpt lat="47.82131" lon="7.02263">
        <ele>1083</ele>
        <time>2014-06-21T15:25:32Z</time>
      </trkpt>
      <trkpt lat="47.82144" lon="7.02248">
        <ele>1080</ele>
        <time>2014-06-21T15:25:43Z</time>
      </trkpt>
      <trkpt lat="47.82148" lon="7.0224">
        <ele>1081</ele>
        <time>2014-06-21T15:25:47Z</time>
      </trkpt>
      <trkpt lat="47.82155" lon="7.02227">
        <ele>1081</ele>
        <time>2014-06-21T15:25:56Z</time>
      </trkpt>
      <trkpt lat="47.82156" lon="7.02222">
        <ele>1080</ele>
        <time>2014-06-21T15:25:59Z</time>
      </trkpt>
      <trkpt lat="47.82157" lon="7.02217">
        <ele>1080</ele>
        <time>2014-06-21T15:26:02Z</time>
      </trkpt>
      <trkpt lat="47.82159" lon="7.02213">
        <ele>1080</ele>
        <time>2014-06-21T15:26:05Z</time>
      </trkpt>
      <trkpt lat="47.82167" lon="7.02196">
        <ele>1090</ele>
        <time>2014-06-21T15:26:17Z</time>
      </trkpt>
      <trkpt lat="47.8217" lon="7.02187">
        <ele>1089</ele>
        <time>2014-06-21T15:26:22Z</time>
      </trkpt>
      <trkpt lat="47.82179" lon="7.0217">
        <ele>1088</ele>
        <time>2014-06-21T15:26:33Z</time>
      </trkpt>
      <trkpt lat="47.8218" lon="7.02166">
        <ele>1087</ele>
        <time>2014-06-21T15:26:36Z</time>
      </trkpt>
      <trkpt lat="47.82184" lon="7.02151">
        <ele>1089</ele>
        <time>2014-06-21T15:26:43Z</time>
      </trkpt>
      <trkpt lat="47.82194" lon="7.02133">
        <ele>1091</ele>
        <time>2014-06-21T15:26:54Z</time>
      </trkpt>
      <trkpt lat="47.82196" lon="7.02128">
        <ele>1091</ele>
        <time>2014-06-21T15:26:57Z</time>
      </trkpt>
      <trkpt lat="47.82201" lon="7.02114">
        <ele>1091</ele>
        <time>2014-06-21T15:27:06Z</time>
      </trkpt>
      <trkpt lat="47.82206" lon="7.02103">
        <ele>1091</ele>
        <time>2014-06-21T15:27:18Z</time>
      </trkpt>
      <trkpt lat="47.82212" lon="7.02092">
        <ele>1092</ele>
        <time>2014-06-21T15:27:36Z</time>
      </trkpt>
      <trkpt lat="47.82214" lon="7.02088">
        <ele>1092</ele>
        <time>2014-06-21T15:27:39Z</time>
      </trkpt>
      <trkpt lat="47.8222" lon="7.02072">
        <ele>1093</ele>
        <time>2014-06-21T15:27:50Z</time>
      </trkpt>
      <trkpt lat="47.82227" lon="7.02054">
        <ele>1093</ele>
        <time>2014-06-21T15:28:02Z</time>
      </trkpt>
      <trkpt lat="47.82232" lon="7.02043">
        <ele>1093</ele>
        <time>2014-06-21T15:28:12Z</time>
      </trkpt>
      <trkpt lat="47.82246" lon="7.02032">
        <ele>1094</ele>
        <time>2014-06-21T15:28:23Z</time>
      </trkpt>
      <trkpt lat="47.82248" lon="7.02029">
        <ele>1094</ele>
        <time>2014-06-21T15:28:25Z</time>
      </trkpt>
      <trkpt lat="47.82259" lon="7.02019">
        <ele>1097</ele>
        <time>2014-06-21T15:28:35Z</time>
      </trkpt>
      <trkpt lat="47.8227" lon="7.02006">
        <ele>1097</ele>
        <time>2014-06-21T15:28:46Z</time>
      </trkpt>
      <trkpt lat="47.82272" lon="7.02004">
        <ele>1097</ele>
        <time>2014-06-21T15:28:48Z</time>
      </trkpt>
      <trkpt lat="47.82285" lon="7.01998">
        <ele>1097</ele>
        <time>2014-06-21T15:28:59Z</time>
      </trkpt>
      <trkpt lat="47.82289" lon="7.01991">
        <ele>1097</ele>
        <time>2014-06-21T15:29:09Z</time>
      </trkpt>
      <trkpt lat="47.82288" lon="7.01978">
        <ele>1097</ele>
        <time>2014-06-21T15:29:21Z</time>
      </trkpt>
      <trkpt lat="47.8228" lon="7.01957">
        <ele>1097</ele>
        <time>2014-06-21T15:29:32Z</time>
      </trkpt>
      <trkpt lat="47.82275" lon="7.01942">
        <ele>1097</ele>
        <time>2014-06-21T15:29:39Z</time>
      </trkpt>
      <trkpt lat="47.82271" lon="7.01925">
        <ele>1097</ele>
        <time>2014-06-21T15:29:50Z</time>
      </trkpt>
      <trkpt lat="47.82269" lon="7.01906">
        <ele>1098</ele>
        <time>2014-06-21T15:30:00Z</time>
      </trkpt>
      <trkpt lat="47.82265" lon="7.01892">
        <ele>1098</ele>
        <time>2014-06-21T15:30:07Z</time>
      </trkpt>
      <trkpt lat="47.82262" lon="7.01873">
        <ele>1098</ele>
        <time>2014-06-21T15:30:17Z</time>
      </trkpt>
      <trkpt lat="47.82258" lon="7.0185">
        <ele>1099</ele>
        <time>2014-06-21T15:30:28Z</time>
      </trkpt>
      <trkpt lat="47.82256" lon="7.01846">
        <ele>1099</ele>
        <time>2014-06-21T15:30:30Z</time>
      </trkpt>
      <trkpt lat="47.82255" lon="7.01825">
        <ele>1100</ele>
        <time>2014-06-21T15:30:41Z</time>
      </trkpt>
      <trkpt lat="47.82255" lon="7.01803">
        <ele>1098</ele>
        <time>2014-06-21T15:30:52Z</time>
      </trkpt>
      <trkpt lat="47.82254" lon="7.01797">
        <ele>1098</ele>
        <time>2014-06-21T15:30:55Z</time>
      </trkpt>
      <trkpt lat="47.82245" lon="7.01772">
        <ele>1100</ele>
        <time>2014-06-21T15:31:08Z</time>
      </trkpt>
      <trkpt lat="47.82244" lon="7.01767">
        <ele>1101</ele>
        <time>2014-06-21T15:31:11Z</time>
      </trkpt>
      <trkpt lat="47.82243" lon="7.01761">
        <ele>1101</ele>
        <time>2014-06-21T15:31:14Z</time>
      </trkpt>
      <trkpt lat="47.82242" lon="7.01744">
        <ele>1101</ele>
        <time>2014-06-21T15:31:23Z</time>
      </trkpt>
      <trkpt lat="47.82241" lon="7.01739">
        <ele>1101</ele>
        <time>2014-06-21T15:31:25Z</time>
      </trkpt>
      <trkpt lat="47.82238" lon="7.0172">
        <ele>1101</ele>
        <time>2014-06-21T15:31:35Z</time>
      </trkpt>
      <trkpt lat="47.82236" lon="7.01704">
        <ele>1101</ele>
        <time>2014-06-21T15:31:44Z</time>
      </trkpt>
      <trkpt lat="47.82236" lon="7.01683">
        <ele>1102</ele>
        <time>2014-06-21T15:31:56Z</time>
      </trkpt>
      <trkpt lat="47.82239" lon="7.01673">
        <ele>1103</ele>
        <time>2014-06-21T15:32:02Z</time>
      </trkpt>
      <trkpt lat="47.8224" lon="7.01662">
        <ele>1103</ele>
        <time>2014-06-21T15:32:14Z</time>
      </trkpt>
      <trkpt lat="47.8224" lon="7.01641">
        <ele>1102</ele>
        <time>2014-06-21T15:32:24Z</time>
      </trkpt>
      <trkpt lat="47.82238" lon="7.01627">
        <ele>1101</ele>
        <time>2014-06-21T15:32:31Z</time>
      </trkpt>
      <trkpt lat="47.82239" lon="7.01608">
        <ele>1101</ele>
        <time>2014-06-21T15:32:41Z</time>
      </trkpt>
      <trkpt lat="47.82238" lon="7.01593">
        <ele>1101</ele>
        <time>2014-06-21T15:32:49Z</time>
      </trkpt>
      <trkpt lat="47.82243" lon="7.01571">
        <ele>1102</ele>
        <time>2014-06-21T15:33:01Z</time>
      </trkpt>
      <trkpt lat="47.82246" lon="7.01547">
        <ele>1102</ele>
        <time>2014-06-21T15:33:13Z</time>
      </trkpt>
      <trkpt lat="47.82246" lon="7.01541">
        <ele>1102</ele>
        <time>2014-06-21T15:33:16Z</time>
      </trkpt>
      <trkpt lat="47.82243" lon="7.0152">
        <ele>1103</ele>
        <time>2014-06-21T15:33:26Z</time>
      </trkpt>
      <trkpt lat="47.82242" lon="7.01497">
        <ele>1106</ele>
        <time>2014-06-21T15:33:38Z</time>
      </trkpt>
      <trkpt lat="47.82243" lon="7.01474">
        <ele>1108</ele>
        <time>2014-06-21T15:33:50Z</time>
      </trkpt>
      <trkpt lat="47.82247" lon="7.01456">
        <ele>1110</ele>
        <time>2014-06-21T15:33:59Z</time>
      </trkpt>
      <trkpt lat="47.82254" lon="7.01438">
        <ele>1111</ele>
        <time>2014-06-21T15:34:10Z</time>
      </trkpt>
      <trkpt lat="47.82256" lon="7.01433">
        <ele>1112</ele>
        <time>2014-06-21T15:34:13Z</time>
      </trkpt>
      <trkpt lat="47.82263" lon="7.01416">
        <ele>1117</ele>
        <time>2014-06-21T15:34:30Z</time>
      </trkpt>
      <trkpt lat="47.82268" lon="7.01403">
        <ele>1117</ele>
        <time>2014-06-21T15:34:37Z</time>
      </trkpt>
      <trkpt lat="47.82268" lon="7.01399">
        <ele>1117</ele>
        <time>2014-06-21T15:34:40Z</time>
      </trkpt>
      <trkpt lat="47.82278" lon="7.01386">
        <ele>1117</ele>
        <time>2014-06-21T15:34:52Z</time>
      </trkpt>
      <trkpt lat="47.82284" lon="7.01366">
        <ele>1118</ele>
        <time>2014-06-21T15:35:04Z</time>
      </trkpt>
      <trkpt lat="47.82284" lon="7.01354">
        <ele>1119</ele>
        <time>2014-06-21T15:35:10Z</time>
      </trkpt>
      <trkpt lat="47.82283" lon="7.01344">
        <ele>1120</ele>
        <time>2014-06-21T15:35:16Z</time>
      </trkpt>
      <trkpt lat="47.82284" lon="7.0133">
        <ele>1126</ele>
        <time>2014-06-21T15:35:27Z</time>
      </trkpt>
      <trkpt lat="47.82288" lon="7.01317">
        <ele>1126</ele>
        <time>2014-06-21T15:35:37Z</time>
      </trkpt>
      <trkpt lat="47.82289" lon="7.01311">
        <ele>1126</ele>
        <time>2014-06-21T15:35:40Z</time>
      </trkpt>
      <trkpt lat="47.8229" lon="7.01307">
        <ele>1126</ele>
        <time>2014-06-21T15:35:42Z</time>
      </trkpt>
      <trkpt lat="47.82294" lon="7.013">
        <ele>1126</ele>
        <time>2014-06-21T15:35:46Z</time>
      </trkpt>
      <trkpt lat="47.82298" lon="7.01293">
        <ele>1127</ele>
        <time>2014-06-21T15:35:52Z</time>
      </trkpt>
      <trkpt lat="47.823" lon="7.01287">
        <ele>1127</ele>
        <time>2014-06-21T15:35:55Z</time>
      </trkpt>
      <trkpt lat="47.82304" lon="7.01274">
        <ele>1127</ele>
        <time>2014-06-21T15:36:06Z</time>
      </trkpt>
      <trkpt lat="47.82306" lon="7.01257">
        <ele>1127</ele>
        <time>2014-06-21T15:36:17Z</time>
      </trkpt>
      <trkpt lat="47.82312" lon="7.01236">
        <ele>1133</ele>
        <time>2014-06-21T15:36:28Z</time>
      </trkpt>
      <trkpt lat="47.82316" lon="7.01221">
        <ele>1134</ele>
        <time>2014-06-21T15:36:38Z</time>
      </trkpt>
      <trkpt lat="47.82317" lon="7.01212">
        <ele>1135</ele>
        <time>2014-06-21T15:36:42Z</time>
      </trkpt>
      <trkpt lat="47.82321" lon="7.01188">
        <ele>1136</ele>
        <time>2014-06-21T15:36:52Z</time>
      </trkpt>
      <trkpt lat="47.82322" lon="7.01183">
        <ele>1136</ele>
        <time>2014-06-21T15:36:55Z</time>
      </trkpt>
      <trkpt lat="47.82323" lon="7.01178">
        <ele>1136</ele>
        <time>2014-06-21T15:36:58Z</time>
      </trkpt>
      <trkpt lat="47.82325" lon="7.01173">
        <ele>1135</ele>
        <time>2014-06-21T15:37:01Z</time>
      </trkpt>
      <trkpt lat="47.82327" lon="7.0117">
        <ele>1135</ele>
        <time>2014-06-21T15:37:03Z</time>
      </trkpt>
      <trkpt lat="47.82339" lon="7.01158">
        <ele>1133</ele>
        <time>2014-06-21T15:37:12Z</time>
      </trkpt>
      <trkpt lat="47.82345" lon="7.01142">
        <ele>1132</ele>
        <time>2014-06-21T15:37:22Z</time>
      </trkpt>
      <trkpt lat="47.82353" lon="7.01126">
        <ele>1133</ele>
        <time>2014-06-21T15:37:32Z</time>
      </trkpt>
      <trkpt lat="47.82358" lon="7.01114">
        <ele>1133</ele>
        <time>2014-06-21T15:37:39Z</time>
      </trkpt>
      <trkpt lat="47.82363" lon="7.01095">
        <ele>1134</ele>
        <time>2014-06-21T15:37:51Z</time>
      </trkpt>
      <trkpt lat="47.82367" lon="7.0107">
        <ele>1139</ele>
        <time>2014-06-21T15:38:01Z</time>
      </trkpt>
      <trkpt lat="47.82366" lon="7.01065">
        <ele>1139</ele>
        <time>2014-06-21T15:38:03Z</time>
      </trkpt>
      <trkpt lat="47.82365" lon="7.01057">
        <ele>1140</ele>
        <time>2014-06-21T15:38:08Z</time>
      </trkpt>
      <trkpt lat="47.82368" lon="7.01054">
        <ele>1139</ele>
        <time>2014-06-21T15:38:12Z</time>
      </trkpt>
      <trkpt lat="47.82371" lon="7.0105">
        <ele>1139</ele>
        <time>2014-06-21T15:38:15Z</time>
      </trkpt>
      <trkpt lat="47.82377" lon="7.01038">
        <ele>1139</ele>
        <time>2014-06-21T15:38:24Z</time>
      </trkpt>
      <trkpt lat="47.8238" lon="7.01034">
        <ele>1139</ele>
        <time>2014-06-21T15:38:27Z</time>
      </trkpt>
      <trkpt lat="47.82391" lon="7.01012">
        <ele>1138</ele>
        <time>2014-06-21T15:38:40Z</time>
      </trkpt>
      <trkpt lat="47.824" lon="7.00993">
        <ele>1141</ele>
        <time>2014-06-21T15:38:51Z</time>
      </trkpt>
      <trkpt lat="47.82403" lon="7.00985">
        <ele>1141</ele>
        <time>2014-06-21T15:38:56Z</time>
      </trkpt>
      <trkpt lat="47.82408" lon="7.00978">
        <ele>1141</ele>
        <time>2014-06-21T15:39:01Z</time>
      </trkpt>
      <trkpt lat="47.82417" lon="7.00965">
        <ele>1138</ele>
        <time>2014-06-21T15:39:10Z</time>
      </trkpt>
      <trkpt lat="47.82428" lon="7.0095">
        <ele>1139</ele>
        <time>2014-06-21T15:39:21Z</time>
      </trkpt>
      <trkpt lat="47.82434" lon="7.00944">
        <ele>1139</ele>
        <time>2014-06-21T15:39:27Z</time>
      </trkpt>
      <trkpt lat="47.82442" lon="7.00935">
        <ele>1139</ele>
        <time>2014-06-21T15:39:36Z</time>
      </trkpt>
      <trkpt lat="47.82454" lon="7.00916">
        <ele>1143</ele>
        <time>2014-06-21T15:39:47Z</time>
      </trkpt>
      <trkpt lat="47.82459" lon="7.00909">
        <ele>1143</ele>
        <time>2014-06-21T15:39:52Z</time>
      </trkpt>
      <trkpt lat="47.82467" lon="7.00897">
        <ele>1143</ele>
        <time>2014-06-21T15:40:03Z</time>
      </trkpt>
      <trkpt lat="47.82477" lon="7.00883">
        <ele>1143</ele>
        <time>2014-06-21T15:40:14Z</time>
      </trkpt>
      <trkpt lat="47.82487" lon="7.00872">
        <ele>1143</ele>
        <time>2014-06-21T15:40:23Z</time>
      </trkpt>
      <trkpt lat="47.82496" lon="7.00858">
        <ele>1144</ele>
        <time>2014-06-21T15:40:35Z</time>
      </trkpt>
      <trkpt lat="47.82502" lon="7.00852">
        <ele>1143</ele>
        <time>2014-06-21T15:40:46Z</time>
      </trkpt>
      <trkpt lat="47.82515" lon="7.00839">
        <ele>1144</ele>
        <time>2014-06-21T15:40:56Z</time>
      </trkpt>
      <trkpt lat="47.82526" lon="7.00826">
        <ele>1148</ele>
        <time>2014-06-21T15:41:06Z</time>
      </trkpt>
      <trkpt lat="47.82532" lon="7.0082">
        <ele>1148</ele>
        <time>2014-06-21T15:41:12Z</time>
      </trkpt>
      <trkpt lat="47.82543" lon="7.0081">
        <ele>1149</ele>
        <time>2014-06-21T15:41:22Z</time>
      </trkpt>
      <trkpt lat="47.82545" lon="7.00807">
        <ele>1149</ele>
        <time>2014-06-21T15:41:24Z</time>
      </trkpt>
      <trkpt lat="47.82557" lon="7.00792">
        <ele>1149</ele>
        <time>2014-06-21T15:41:35Z</time>
      </trkpt>
      <trkpt lat="47.82569" lon="7.00775">
        <ele>1151</ele>
        <time>2014-06-21T15:41:47Z</time>
      </trkpt>
      <trkpt lat="47.82575" lon="7.00763">
        <ele>1151</ele>
        <time>2014-06-21T15:41:56Z</time>
      </trkpt>
      <trkpt lat="47.82581" lon="7.00749">
        <ele>1153</ele>
        <time>2014-06-21T15:42:07Z</time>
      </trkpt>
      <trkpt lat="47.82588" lon="7.00738">
        <ele>1153</ele>
        <time>2014-06-21T15:42:13Z</time>
      </trkpt>
      <trkpt lat="47.826" lon="7.00726">
        <ele>1153</ele>
        <time>2014-06-21T15:42:24Z</time>
      </trkpt>
      <trkpt lat="47.82609" lon="7.00716">
        <ele>1153</ele>
        <time>2014-06-21T15:42:33Z</time>
      </trkpt>
      <trkpt lat="47.82619" lon="7.00704">
        <ele>1153</ele>
        <time>2014-06-21T15:42:44Z</time>
      </trkpt>
      <trkpt lat="47.82616" lon="7.00703">
        <ele>1154</ele>
        <time>2014-06-21T15:42:54Z</time>
      </trkpt>
      <trkpt lat="47.82613" lon="7.00702">
        <ele>1154</ele>
        <time>2014-06-21T15:43:05Z</time>
      </trkpt>
      <trkpt lat="47.8261" lon="7.00702">
        <ele>1154</ele>
        <time>2014-06-21T15:44:05Z</time>
      </trkpt>
      <trkpt lat="47.82596" lon="7.00709">
        <ele>1154</ele>
        <time>2014-06-21T15:44:10Z</time>
      </trkpt>
      <trkpt lat="47.82592" lon="7.00711">
        <ele>1154</ele>
        <time>2014-06-21T15:44:12Z</time>
      </trkpt>
      <trkpt lat="47.82596" lon="7.00709">
        <ele>1154</ele>
        <time>2014-06-21T15:45:26Z</time>
      </trkpt>
      <trkpt lat="47.82598" lon="7.00707">
        <ele>1154</ele>
        <time>2014-06-21T15:45:29Z</time>
      </trkpt>
      <trkpt lat="47.82601" lon="7.00705">
        <ele>1154</ele>
        <time>2014-06-21T15:45:32Z</time>
      </trkpt>
      <trkpt lat="47.82604" lon="7.00704">
        <ele>1154</ele>
        <time>2014-06-21T15:45:34Z</time>
      </trkpt>
      <trkpt lat="47.82608" lon="7.00703">
        <ele>1154</ele>
        <time>2014-06-21T15:45:35Z</time>
      </trkpt>
      <trkpt lat="47.82632" lon="7.00686">
        <ele>1154</ele>
        <time>2014-06-21T15:45:46Z</time>
      </trkpt>
      <trkpt lat="47.8264" lon="7.00676">
        <ele>1154</ele>
        <time>2014-06-21T15:45:53Z</time>
      </trkpt>
      <trkpt lat="47.82643" lon="7.00673">
        <ele>1154</ele>
        <time>2014-06-21T15:45:56Z</time>
      </trkpt>
      <trkpt lat="47.82645" lon="7.00671">
        <ele>1154</ele>
        <time>2014-06-21T15:45:59Z</time>
      </trkpt>
      <trkpt lat="47.82652" lon="7.00658">
        <ele>1157</ele>
        <time>2014-06-21T15:46:08Z</time>
      </trkpt>
      <trkpt lat="47.82663" lon="7.00645">
        <ele>1157</ele>
        <time>2014-06-21T15:46:18Z</time>
      </trkpt>
      <trkpt lat="47.82665" lon="7.00642">
        <ele>1157</ele>
        <time>2014-06-21T15:46:20Z</time>
      </trkpt>
      <trkpt lat="47.82668" lon="7.00639">
        <ele>1157</ele>
        <time>2014-06-21T15:46:23Z</time>
      </trkpt>
      <trkpt lat="47.82679" lon="7.00626">
        <ele>1158</ele>
        <time>2014-06-21T15:46:35Z</time>
      </trkpt>
      <trkpt lat="47.82681" lon="7.00628">
        <ele>1158</ele>
        <time>2014-06-21T15:46:41Z</time>
      </trkpt>
      <trkpt lat="47.82692" lon="7.00627">
        <ele>1158</ele>
        <time>2014-06-21T15:46:51Z</time>
      </trkpt>
      <trkpt lat="47.82709" lon="7.00619">
        <ele>1159</ele>
        <time>2014-06-21T15:47:02Z</time>
      </trkpt>
      <trkpt lat="47.8272" lon="7.00613">
        <ele>1159</ele>
        <time>2014-06-21T15:47:13Z</time>
      </trkpt>
      <trkpt lat="47.82725" lon="7.0061">
        <ele>1160</ele>
        <time>2014-06-21T15:47:17Z</time>
      </trkpt>
      <trkpt lat="47.82738" lon="7.00601">
        <ele>1161</ele>
        <time>2014-06-21T15:47:27Z</time>
      </trkpt>
      <trkpt lat="47.82741" lon="7.006">
        <ele>1161</ele>
        <time>2014-06-21T15:47:29Z</time>
      </trkpt>
      <trkpt lat="47.82744" lon="7.00599">
        <ele>1162</ele>
        <time>2014-06-21T15:47:32Z</time>
      </trkpt>
      <trkpt lat="47.82756" lon="7.00588">
        <ele>1162</ele>
        <time>2014-06-21T15:47:44Z</time>
      </trkpt>
      <trkpt lat="47.82766" lon="7.00581">
        <ele>1165</ele>
        <time>2014-06-21T15:47:52Z</time>
      </trkpt>
      <trkpt lat="47.82768" lon="7.00577">
        <ele>1164</ele>
        <time>2014-06-21T15:47:55Z</time>
      </trkpt>
      <trkpt lat="47.82775" lon="7.00566">
        <ele>1164</ele>
        <time>2014-06-21T15:48:02Z</time>
      </trkpt>
      <trkpt lat="47.82781" lon="7.0056">
        <ele>1164</ele>
        <time>2014-06-21T15:48:07Z</time>
      </trkpt>
      <trkpt lat="47.82793" lon="7.0055">
        <ele>1164</ele>
        <time>2014-06-21T15:48:18Z</time>
      </trkpt>
      <trkpt lat="47.82805" lon="7.00541">
        <ele>1165</ele>
        <time>2014-06-21T15:48:29Z</time>
      </trkpt>
      <trkpt lat="47.82808" lon="7.0054">
        <ele>1165</ele>
        <time>2014-06-21T15:48:31Z</time>
      </trkpt>
      <trkpt lat="47.82812" lon="7.00538">
        <ele>1165</ele>
        <time>2014-06-21T15:48:34Z</time>
      </trkpt>
      <trkpt lat="47.82825" lon="7.00531">
        <ele>1165</ele>
        <time>2014-06-21T15:48:44Z</time>
      </trkpt>
      <trkpt lat="47.8284" lon="7.00524">
        <ele>1164</ele>
        <time>2014-06-21T15:48:56Z</time>
      </trkpt>
      <trkpt lat="47.82852" lon="7.0052">
        <ele>1164</ele>
        <time>2014-06-21T15:49:06Z</time>
      </trkpt>
      <trkpt lat="47.82855" lon="7.00518">
        <ele>1164</ele>
        <time>2014-06-21T15:49:09Z</time>
      </trkpt>
      <trkpt lat="47.82859" lon="7.00518">
        <ele>1164</ele>
        <time>2014-06-21T15:49:12Z</time>
      </trkpt>
      <trkpt lat="47.82873" lon="7.00516">
        <ele>1163</ele>
        <time>2014-06-21T15:49:22Z</time>
      </trkpt>
      <trkpt lat="47.82883" lon="7.00512">
        <ele>1163</ele>
        <time>2014-06-21T15:49:30Z</time>
      </trkpt>
      <trkpt lat="47.82898" lon="7.00508">
        <ele>1163</ele>
        <time>2014-06-21T15:49:41Z</time>
      </trkpt>
      <trkpt lat="47.82911" lon="7.00496">
        <ele>1166</ele>
        <time>2014-06-21T15:49:53Z</time>
      </trkpt>
      <trkpt lat="47.82915" lon="7.00483">
        <ele>1166</ele>
        <time>2014-06-21T15:50:08Z</time>
      </trkpt>
      <trkpt lat="47.8292" lon="7.00475">
        <ele>1159</ele>
        <time>2014-06-21T15:50:28Z</time>
      </trkpt>
      <trkpt lat="47.8292" lon="7.0047">
        <ele>1159</ele>
        <time>2014-06-21T15:51:05Z</time>
      </trkpt>
      <trkpt lat="47.82925" lon="7.00451">
        <ele>1159</ele>
        <time>2014-06-21T15:51:17Z</time>
      </trkpt>
      <trkpt lat="47.82932" lon="7.0043">
        <ele>1160</ele>
        <time>2014-06-21T15:51:29Z</time>
      </trkpt>
      <trkpt lat="47.82935" lon="7.00412">
        <ele>1160</ele>
        <time>2014-06-21T15:51:39Z</time>
      </trkpt>
      <trkpt lat="47.82935" lon="7.00407">
        <ele>1160</ele>
        <time>2014-06-21T15:51:49Z</time>
      </trkpt>
      <trkpt lat="47.8294" lon="7.00384">
        <ele>1157</ele>
        <time>2014-06-21T15:52:00Z</time>
      </trkpt>
      <trkpt lat="47.82943" lon="7.00374">
        <ele>1156</ele>
        <time>2014-06-21T15:52:04Z</time>
      </trkpt>
      <trkpt lat="47.82949" lon="7.00355">
        <ele>1156</ele>
        <time>2014-06-21T15:52:14Z</time>
      </trkpt>
      <trkpt lat="47.82955" lon="7.00331">
        <ele>1154</ele>
        <time>2014-06-21T15:52:25Z</time>
      </trkpt>
      <trkpt lat="47.82963" lon="7.0031">
        <ele>1154</ele>
        <time>2014-06-21T15:52:36Z</time>
      </trkpt>
      <trkpt lat="47.82966" lon="7.00286">
        <ele>1153</ele>
        <time>2014-06-21T15:52:47Z</time>
      </trkpt>
      <trkpt lat="47.82967" lon="7.00281">
        <ele>1153</ele>
        <time>2014-06-21T15:52:49Z</time>
      </trkpt>
      <trkpt lat="47.82971" lon="7.00273">
        <ele>1153</ele>
        <time>2014-06-21T15:52:53Z</time>
      </trkpt>
      <trkpt lat="47.82979" lon="7.00256">
        <ele>1153</ele>
        <time>2014-06-21T15:53:04Z</time>
      </trkpt>
      <trkpt lat="47.82989" lon="7.0024">
        <ele>1150</ele>
        <time>2014-06-21T15:53:15Z</time>
      </trkpt>
      <trkpt lat="47.82997" lon="7.00224">
        <ele>1149</ele>
        <time>2014-06-21T15:53:26Z</time>
      </trkpt>
      <trkpt lat="47.82999" lon="7.0022">
        <ele>1149</ele>
        <time>2014-06-21T15:53:28Z</time>
      </trkpt>
      <trkpt lat="47.83007" lon="7.00204">
        <ele>1146</ele>
        <time>2014-06-21T15:53:38Z</time>
      </trkpt>
      <trkpt lat="47.83017" lon="7.00189">
        <ele>1145</ele>
        <time>2014-06-21T15:53:49Z</time>
      </trkpt>
      <trkpt lat="47.8302" lon="7.00175">
        <ele>1145</ele>
        <time>2014-06-21T15:53:59Z</time>
      </trkpt>
      <trkpt lat="47.83022" lon="7.00162">
        <ele>1141</ele>
        <time>2014-06-21T15:54:14Z</time>
      </trkpt>
      <trkpt lat="47.83025" lon="7.00158">
        <ele>1140</ele>
        <time>2014-06-21T15:54:17Z</time>
      </trkpt>
      <trkpt lat="47.83034" lon="7.00143">
        <ele>1138</ele>
        <time>2014-06-21T15:54:28Z</time>
      </trkpt>
      <trkpt lat="47.83036" lon="7.00139">
        <ele>1138</ele>
        <time>2014-06-21T15:54:31Z</time>
      </trkpt>
      <trkpt lat="47.83037" lon="7.00125">
        <ele>1136</ele>
        <time>2014-06-21T15:54:54Z</time>
      </trkpt>
      <trkpt lat="47.83038" lon="7.00119">
        <ele>1136</ele>
        <time>2014-06-21T15:55:16Z</time>
      </trkpt>
      <trkpt lat="47.83034" lon="7.00123">
        <ele>1136</ele>
        <time>2014-06-21T15:55:35Z</time>
      </trkpt>
      <trkpt lat="47.8303" lon="7.0013">
        <ele>1137</ele>
        <time>2014-06-21T15:56:29Z</time>
      </trkpt>
      <trkpt lat="47.83032" lon="7.00133">
        <ele>1137</ele>
        <time>2014-06-21T15:56:44Z</time>
      </trkpt>
      <trkpt lat="47.83035" lon="7.00132">
        <ele>1137</ele>
        <time>2014-06-21T15:57:21Z</time>
      </trkpt>
      <trkpt lat="47.83044" lon="7.0013">
        <ele>1136</ele>
        <time>2014-06-21T15:57:26Z</time>
      </trkpt>
      <trkpt lat="47.83054" lon="7.00141">
        <ele>1137</ele>
        <time>2014-06-21T15:57:38Z</time>
      </trkpt>
      <trkpt lat="47.83055" lon="7.00146">
        <ele>1137</ele>
        <time>2014-06-21T15:57:45Z</time>
      </trkpt>
      <trkpt lat="47.83056" lon="7.00157">
        <ele>1138</ele>
        <time>2014-06-21T15:57:52Z</time>
      </trkpt>
      <trkpt lat="47.83058" lon="7.0017">
        <ele>1142</ele>
        <time>2014-06-21T15:58:03Z</time>
      </trkpt>
      <trkpt lat="47.83059" lon="7.00174">
        <ele>1142</ele>
        <time>2014-06-21T15:58:06Z</time>
      </trkpt>
      <trkpt lat="47.83061" lon="7.00178">
        <ele>1142</ele>
        <time>2014-06-21T15:58:08Z</time>
      </trkpt>
      <trkpt lat="47.83068" lon="7.00178">
        <ele>1142</ele>
        <time>2014-06-21T15:58:19Z</time>
      </trkpt>
      <trkpt lat="47.8307" lon="7.00174">
        <ele>1141</ele>
        <time>2014-06-21T15:58:22Z</time>
      </trkpt>
      <trkpt lat="47.83076" lon="7.00169">
        <ele>1141</ele>
        <time>2014-06-21T15:58:28Z</time>
      </trkpt>
      <trkpt lat="47.83082" lon="7.00154">
        <ele>1138</ele>
        <time>2014-06-21T15:58:38Z</time>
      </trkpt>
      <trkpt lat="47.83083" lon="7.0015">
        <ele>1138</ele>
        <time>2014-06-21T15:58:40Z</time>
      </trkpt>
      <trkpt lat="47.83085" lon="7.00131">
        <ele>1121</ele>
        <time>2014-06-21T15:58:52Z</time>
      </trkpt>
      <trkpt lat="47.83087" lon="7.00122">
        <ele>1120</ele>
        <time>2014-06-21T15:59:00Z</time>
      </trkpt>
      <trkpt lat="47.83101" lon="7.00097">
        <ele>1118</ele>
        <time>2014-06-21T15:59:10Z</time>
      </trkpt>
      <trkpt lat="47.83099" lon="7.0008">
        <ele>1115</ele>
        <time>2014-06-21T15:59:22Z</time>
      </trkpt>
      <trkpt lat="47.831" lon="7.00076">
        <ele>1114</ele>
        <time>2014-06-21T15:59:24Z</time>
      </trkpt>
      <trkpt lat="47.831" lon="7.00072">
        <ele>1113</ele>
        <time>2014-06-21T15:59:26Z</time>
      </trkpt>
      <trkpt lat="47.831" lon="7.00067">
        <ele>1112</ele>
        <time>2014-06-21T15:59:29Z</time>
      </trkpt>
      <trkpt lat="47.831" lon="7.00051">
        <ele>1108</ele>
        <time>2014-06-21T15:59:39Z</time>
      </trkpt>
      <trkpt lat="47.83096" lon="7.00044">
        <ele>1107</ele>
        <time>2014-06-21T15:59:52Z</time>
      </trkpt>
      <trkpt lat="47.83095" lon="7.0002">
        <ele>1106</ele>
        <time>2014-06-21T16:00:02Z</time>
      </trkpt>
      <trkpt lat="47.83101" lon="7.00002">
        <ele>1106</ele>
        <time>2014-06-21T16:00:14Z</time>
      </trkpt>
      <trkpt lat="47.83099" lon="6.99994">
        <ele>1101</ele>
        <time>2014-06-21T16:00:20Z</time>
      </trkpt>
      <trkpt lat="47.831" lon="6.99988">
        <ele>1100</ele>
        <time>2014-06-21T16:00:24Z</time>
      </trkpt>
      <trkpt lat="47.83102" lon="6.99983">
        <ele>1099</ele>
        <time>2014-06-21T16:00:26Z</time>
      </trkpt>
      <trkpt lat="47.83105" lon="6.9997">
        <ele>1096</ele>
        <time>2014-06-21T16:00:36Z</time>
      </trkpt>
      <trkpt lat="47.83113" lon="6.99955">
        <ele>1094</ele>
        <time>2014-06-21T16:00:43Z</time>
      </trkpt>
      <trkpt lat="47.83121" lon="6.99933">
        <ele>1092</ele>
        <time>2014-06-21T16:00:53Z</time>
      </trkpt>
      <trkpt lat="47.83123" lon="6.99928">
        <ele>1092</ele>
        <time>2014-06-21T16:00:56Z</time>
      </trkpt>
      <trkpt lat="47.83126" lon="6.99921">
        <ele>1091</ele>
        <time>2014-06-21T16:01:06Z</time>
      </trkpt>
      <trkpt lat="47.83129" lon="6.99909">
        <ele>1084</ele>
        <time>2014-06-21T16:01:16Z</time>
      </trkpt>
      <trkpt lat="47.83138" lon="6.9989">
        <ele>1084</ele>
        <time>2014-06-21T16:01:26Z</time>
      </trkpt>
      <trkpt lat="47.8314" lon="6.99887">
        <ele>1083</ele>
        <time>2014-06-21T16:01:28Z</time>
      </trkpt>
      <trkpt lat="47.83154" lon="6.99867">
        <ele>1083</ele>
        <time>2014-06-21T16:01:40Z</time>
      </trkpt>
      <trkpt lat="47.83157" lon="6.99865">
        <ele>1083</ele>
        <time>2014-06-21T16:01:43Z</time>
      </trkpt>
      <trkpt lat="47.83159" lon="6.9986">
        <ele>1083</ele>
        <time>2014-06-21T16:01:46Z</time>
      </trkpt>
      <trkpt lat="47.83169" lon="6.99839">
        <ele>1080</ele>
        <time>2014-06-21T16:01:57Z</time>
      </trkpt>
      <trkpt lat="47.83172" lon="6.99837">
        <ele>1079</ele>
        <time>2014-06-21T16:02:00Z</time>
      </trkpt>
      <trkpt lat="47.8318" lon="6.99822">
        <ele>1071</ele>
        <time>2014-06-21T16:02:11Z</time>
      </trkpt>
      <trkpt lat="47.83182" lon="6.99818">
        <ele>1069</ele>
        <time>2014-06-21T16:02:13Z</time>
      </trkpt>
      <trkpt lat="47.83183" lon="6.99805">
        <ele>1065</ele>
        <time>2014-06-21T16:02:24Z</time>
      </trkpt>
      <trkpt lat="47.83181" lon="6.99801">
        <ele>1065</ele>
        <time>2014-06-21T16:02:26Z</time>
      </trkpt>
      <trkpt lat="47.83181" lon="6.99791">
        <ele>1063</ele>
        <time>2014-06-21T16:02:30Z</time>
      </trkpt>
      <trkpt lat="47.83179" lon="6.99766">
        <ele>1062</ele>
        <time>2014-06-21T16:02:41Z</time>
      </trkpt>
      <trkpt lat="47.83174" lon="6.99736">
        <ele>1058</ele>
        <time>2014-06-21T16:02:51Z</time>
      </trkpt>
      <trkpt lat="47.83167" lon="6.99717">
        <ele>1055</ele>
        <time>2014-06-21T16:03:02Z</time>
      </trkpt>
      <trkpt lat="47.83163" lon="6.99706">
        <ele>1054</ele>
        <time>2014-06-21T16:03:08Z</time>
      </trkpt>
      <trkpt lat="47.83163" lon="6.99685">
        <ele>1054</ele>
        <time>2014-06-21T16:03:18Z</time>
      </trkpt>
      <trkpt lat="47.83173" lon="6.99663">
        <ele>1055</ele>
        <time>2014-06-21T16:03:28Z</time>
      </trkpt>
      <trkpt lat="47.83183" lon="6.99643">
        <ele>1052</ele>
        <time>2014-06-21T16:03:38Z</time>
      </trkpt>
      <trkpt lat="47.83188" lon="6.99635">
        <ele>1051</ele>
        <time>2014-06-21T16:03:42Z</time>
      </trkpt>
      <trkpt lat="47.83197" lon="6.99618">
        <ele>1051</ele>
        <time>2014-06-21T16:03:52Z</time>
      </trkpt>
      <trkpt lat="47.83199" lon="6.99615">
        <ele>1051</ele>
        <time>2014-06-21T16:03:54Z</time>
      </trkpt>
      <trkpt lat="47.83201" lon="6.99611">
        <ele>1051</ele>
        <time>2014-06-21T16:03:56Z</time>
      </trkpt>
      <trkpt lat="47.83212" lon="6.99598">
        <ele>1049</ele>
        <time>2014-06-21T16:04:04Z</time>
      </trkpt>
      <trkpt lat="47.8322" lon="6.99583">
        <ele>1052</ele>
        <time>2014-06-21T16:04:13Z</time>
      </trkpt>
      <trkpt lat="47.83227" lon="6.99564">
        <ele>1052</ele>
        <time>2014-06-21T16:04:23Z</time>
      </trkpt>
      <trkpt lat="47.83229" lon="6.99559">
        <ele>1052</ele>
        <time>2014-06-21T16:04:25Z</time>
      </trkpt>
      <trkpt lat="47.8324" lon="6.99542">
        <ele>1054</ele>
        <time>2014-06-21T16:04:35Z</time>
      </trkpt>
      <trkpt lat="47.83243" lon="6.99539">
        <ele>1054</ele>
        <time>2014-06-21T16:04:37Z</time>
      </trkpt>
      <trkpt lat="47.83246" lon="6.99536">
        <ele>1054</ele>
        <time>2014-06-21T16:04:39Z</time>
      </trkpt>
      <trkpt lat="47.8326" lon="6.99523">
        <ele>1047</ele>
        <time>2014-06-21T16:04:49Z</time>
      </trkpt>
      <trkpt lat="47.83271" lon="6.99515">
        <ele>1047</ele>
        <time>2014-06-21T16:04:59Z</time>
      </trkpt>
      <trkpt lat="47.83275" lon="6.99514">
        <ele>1046</ele>
        <time>2014-06-21T16:05:02Z</time>
      </trkpt>
      <trkpt lat="47.83278" lon="6.99513">
        <ele>1046</ele>
        <time>2014-06-21T16:05:04Z</time>
      </trkpt>
      <trkpt lat="47.83292" lon="6.99502">
        <ele>1044</ele>
        <time>2014-06-21T16:05:14Z</time>
      </trkpt>
      <trkpt lat="47.83309" lon="6.99493">
        <ele>1050</ele>
        <time>2014-06-21T16:05:26Z</time>
      </trkpt>
      <trkpt lat="47.83319" lon="6.9949">
        <ele>1048</ele>
        <time>2014-06-21T16:05:33Z</time>
      </trkpt>
      <trkpt lat="47.83326" lon="6.99486">
        <ele>1048</ele>
        <time>2014-06-21T16:05:39Z</time>
      </trkpt>
      <trkpt lat="47.8334" lon="6.99471">
        <ele>1042</ele>
        <time>2014-06-21T16:05:49Z</time>
      </trkpt>
      <trkpt lat="47.83342" lon="6.99467">
        <ele>1042</ele>
        <time>2014-06-21T16:05:51Z</time>
      </trkpt>
      <trkpt lat="47.83353" lon="6.99458">
        <ele>1043</ele>
        <time>2014-06-21T16:06:01Z</time>
      </trkpt>
      <trkpt lat="47.83359" lon="6.99452">
        <ele>1043</ele>
        <time>2014-06-21T16:06:07Z</time>
      </trkpt>
      <trkpt lat="47.83372" lon="6.99446">
        <ele>1042</ele>
        <time>2014-06-21T16:06:16Z</time>
      </trkpt>
      <trkpt lat="47.83386" lon="6.99441">
        <ele>1041</ele>
        <time>2014-06-21T16:06:28Z</time>
      </trkpt>
      <trkpt lat="47.834" lon="6.9943">
        <ele>1041</ele>
        <time>2014-06-21T16:06:39Z</time>
      </trkpt>
      <trkpt lat="47.83414" lon="6.99429">
        <ele>1040</ele>
        <time>2014-06-21T16:06:49Z</time>
      </trkpt>
      <trkpt lat="47.83417" lon="6.99428">
        <ele>1040</ele>
        <time>2014-06-21T16:06:51Z</time>
      </trkpt>
      <trkpt lat="47.83423" lon="6.99424">
        <ele>1035</ele>
        <time>2014-06-21T16:06:55Z</time>
      </trkpt>
      <trkpt lat="47.83437" lon="6.99416">
        <ele>1035</ele>
        <time>2014-06-21T16:07:07Z</time>
      </trkpt>
      <trkpt lat="47.83444" lon="6.99413">
        <ele>1034</ele>
        <time>2014-06-21T16:07:12Z</time>
      </trkpt>
      <trkpt lat="47.83447" lon="6.99412">
        <ele>1033</ele>
        <time>2014-06-21T16:07:14Z</time>
      </trkpt>
      <trkpt lat="47.83459" lon="6.99404">
        <ele>1031</ele>
        <time>2014-06-21T16:07:22Z</time>
      </trkpt>
      <trkpt lat="47.83469" lon="6.99387">
        <ele>1030</ele>
        <time>2014-06-21T16:07:32Z</time>
      </trkpt>
      <trkpt lat="47.83472" lon="6.99365">
        <ele>1030</ele>
        <time>2014-06-21T16:08:34Z</time>
      </trkpt>
      <trkpt lat="47.83471" lon="6.99356">
        <ele>1030</ele>
        <time>2014-06-21T16:08:47Z</time>
      </trkpt>
      <trkpt lat="47.83475" lon="6.99336">
        <ele>1029</ele>
        <time>2014-06-21T16:08:57Z</time>
      </trkpt>
      <trkpt lat="47.83477" lon="6.99331">
        <ele>1028</ele>
        <time>2014-06-21T16:08:59Z</time>
      </trkpt>
      <trkpt lat="47.83479" lon="6.99321">
        <ele>1028</ele>
        <time>2014-06-21T16:09:03Z</time>
      </trkpt>
      <trkpt lat="47.83479" lon="6.993">
        <ele>1028</ele>
        <time>2014-06-21T16:09:13Z</time>
      </trkpt>
      <trkpt lat="47.83478" lon="6.99296">
        <ele>1028</ele>
        <time>2014-06-21T16:09:15Z</time>
      </trkpt>
      <trkpt lat="47.83477" lon="6.99272">
        <ele>1028</ele>
        <time>2014-06-21T16:09:26Z</time>
      </trkpt>
      <trkpt lat="47.83478" lon="6.99251">
        <ele>1028</ele>
        <time>2014-06-21T16:09:37Z</time>
      </trkpt>
      <trkpt lat="47.83482" lon="6.99243">
        <ele>1026</ele>
        <time>2014-06-21T16:09:43Z</time>
      </trkpt>
      <trkpt lat="47.83503" lon="6.99238">
        <ele>1022</ele>
        <time>2014-06-21T16:09:55Z</time>
      </trkpt>
      <trkpt lat="47.83507" lon="6.99238">
        <ele>1022</ele>
        <time>2014-06-21T16:09:57Z</time>
      </trkpt>
      <trkpt lat="47.83521" lon="6.99233">
        <ele>1019</ele>
        <time>2014-06-21T16:10:07Z</time>
      </trkpt>
      <trkpt lat="47.83528" lon="6.99213">
        <ele>1018</ele>
        <time>2014-06-21T16:10:19Z</time>
      </trkpt>
      <trkpt lat="47.83531" lon="6.99194">
        <ele>1018</ele>
        <time>2014-06-21T16:10:30Z</time>
      </trkpt>
      <trkpt lat="47.8353" lon="6.99189">
        <ele>1018</ele>
        <time>2014-06-21T16:10:33Z</time>
      </trkpt>
      <trkpt lat="47.83531" lon="6.99178">
        <ele>1019</ele>
        <time>2014-06-21T16:10:38Z</time>
      </trkpt>
      <trkpt lat="47.83537" lon="6.99163">
        <ele>1020</ele>
        <time>2014-06-21T16:10:44Z</time>
      </trkpt>
      <trkpt lat="47.83546" lon="6.99145">
        <ele>1019</ele>
        <time>2014-06-21T16:10:52Z</time>
      </trkpt>
      <trkpt lat="47.8356" lon="6.9913">
        <ele>1017</ele>
        <time>2014-06-21T16:11:02Z</time>
      </trkpt>
      <trkpt lat="47.83565" lon="6.99125">
        <ele>1017</ele>
        <time>2014-06-21T16:11:06Z</time>
      </trkpt>
      <trkpt lat="47.83579" lon="6.99112">
        <ele>1015</ele>
        <time>2014-06-21T16:11:17Z</time>
      </trkpt>
      <trkpt lat="47.8359" lon="6.99103">
        <ele>1004</ele>
        <time>2014-06-21T16:11:25Z</time>
      </trkpt>
      <trkpt lat="47.83602" lon="6.99091">
        <ele>1003</ele>
        <time>2014-06-21T16:11:35Z</time>
      </trkpt>
      <trkpt lat="47.83619" lon="6.99077">
        <ele>1005</ele>
        <time>2014-06-21T16:11:48Z</time>
      </trkpt>
      <trkpt lat="47.83628" lon="6.99057">
        <ele>1004</ele>
        <time>2014-06-21T16:12:00Z</time>
      </trkpt>
      <trkpt lat="47.83635" lon="6.99039">
        <ele>1005</ele>
        <time>2014-06-21T16:12:12Z</time>
      </trkpt>
      <trkpt lat="47.83641" lon="6.99018">
        <ele>1005</ele>
        <time>2014-06-21T16:12:23Z</time>
      </trkpt>
      <trkpt lat="47.83645" lon="6.99009">
        <ele>1005</ele>
        <time>2014-06-21T16:12:27Z</time>
      </trkpt>
      <trkpt lat="47.83655" lon="6.98992">
        <ele>1006</ele>
        <time>2014-06-21T16:12:37Z</time>
      </trkpt>
      <trkpt lat="47.83665" lon="6.98979">
        <ele>1007</ele>
        <time>2014-06-21T16:12:47Z</time>
      </trkpt>
      <trkpt lat="47.83679" lon="6.98971">
        <ele>1001</ele>
        <time>2014-06-21T16:12:57Z</time>
      </trkpt>
      <trkpt lat="47.8369" lon="6.98961">
        <ele>1001</ele>
        <time>2014-06-21T16:13:06Z</time>
      </trkpt>
      <trkpt lat="47.83703" lon="6.98955">
        <ele>1000</ele>
        <time>2014-06-21T16:13:16Z</time>
      </trkpt>
      <trkpt lat="47.83715" lon="6.98951">
        <ele>1000</ele>
        <time>2014-06-21T16:13:25Z</time>
      </trkpt>
      <trkpt lat="47.83732" lon="6.98939">
        <ele>1000</ele>
        <time>2014-06-21T16:13:37Z</time>
      </trkpt>
      <trkpt lat="47.83749" lon="6.98939">
        <ele>1000</ele>
        <time>2014-06-21T16:13:47Z</time>
      </trkpt>
      <trkpt lat="47.83762" lon="6.98941">
        <ele>995</ele>
        <time>2014-06-21T16:13:57Z</time>
      </trkpt>
      <trkpt lat="47.83774" lon="6.98949">
        <ele>994</ele>
        <time>2014-06-21T16:14:08Z</time>
      </trkpt>
      <trkpt lat="47.83789" lon="6.9896">
        <ele>993</ele>
        <time>2014-06-21T16:14:18Z</time>
      </trkpt>
      <trkpt lat="47.83803" lon="6.98969">
        <ele>991</ele>
        <time>2014-06-21T16:14:28Z</time>
      </trkpt>
      <trkpt lat="47.83816" lon="6.98975">
        <ele>990</ele>
        <time>2014-06-21T16:14:38Z</time>
      </trkpt>
      <trkpt lat="47.83819" lon="6.98976">
        <ele>990</ele>
        <time>2014-06-21T16:14:40Z</time>
      </trkpt>
      <trkpt lat="47.83834" lon="6.98981">
        <ele>985</ele>
        <time>2014-06-21T16:14:50Z</time>
      </trkpt>
      <trkpt lat="47.83843" lon="6.98978">
        <ele>985</ele>
        <time>2014-06-21T16:14:58Z</time>
      </trkpt>
      <trkpt lat="47.83854" lon="6.98967">
        <ele>985</ele>
        <time>2014-06-21T16:15:08Z</time>
      </trkpt>
      <trkpt lat="47.83859" lon="6.98964">
        <ele>985</ele>
        <time>2014-06-21T16:15:12Z</time>
      </trkpt>
      <trkpt lat="47.83874" lon="6.98953">
        <ele>984</ele>
        <time>2014-06-21T16:15:23Z</time>
      </trkpt>
      <trkpt lat="47.83887" lon="6.98943">
        <ele>984</ele>
        <time>2014-06-21T16:15:34Z</time>
      </trkpt>
      <trkpt lat="47.83897" lon="6.98939">
        <ele>983</ele>
        <time>2014-06-21T16:15:41Z</time>
      </trkpt>
      <trkpt lat="47.83913" lon="6.98937">
        <ele>983</ele>
        <time>2014-06-21T16:15:52Z</time>
      </trkpt>
      <trkpt lat="47.83927" lon="6.98939">
        <ele>980</ele>
        <time>2014-06-21T16:16:03Z</time>
      </trkpt>
      <trkpt lat="47.83944" lon="6.98941">
        <ele>979</ele>
        <time>2014-06-21T16:16:15Z</time>
      </trkpt>
      <trkpt lat="47.83964" lon="6.98944">
        <ele>978</ele>
        <time>2014-06-21T16:16:28Z</time>
      </trkpt>
      <trkpt lat="47.8397" lon="6.98944">
        <ele>978</ele>
        <time>2014-06-21T16:16:32Z</time>
      </trkpt>
      <trkpt lat="47.83983" lon="6.98944">
        <ele>978</ele>
        <time>2014-06-21T16:16:41Z</time>
      </trkpt>
      <trkpt lat="47.84001" lon="6.98936">
        <ele>979</ele>
        <time>2014-06-21T16:16:53Z</time>
      </trkpt>
      <trkpt lat="47.84014" lon="6.98932">
        <ele>980</ele>
        <time>2014-06-21T16:17:03Z</time>
      </trkpt>
      <trkpt lat="47.84026" lon="6.98926">
        <ele>980</ele>
        <time>2014-06-21T16:17:13Z</time>
      </trkpt>
      <trkpt lat="47.8403" lon="6.98908">
        <ele>980</ele>
        <time>2014-06-21T16:17:23Z</time>
      </trkpt>
      <trkpt lat="47.8403" lon="6.98887">
        <ele>979</ele>
        <time>2014-06-21T16:17:34Z</time>
      </trkpt>
      <trkpt lat="47.8403" lon="6.98873">
        <ele>979</ele>
        <time>2014-06-21T16:17:40Z</time>
      </trkpt>
      <trkpt lat="47.84043" lon="6.98854">
        <ele>979</ele>
        <time>2014-06-21T16:17:54Z</time>
      </trkpt>
      <trkpt lat="47.84048" lon="6.98847">
        <ele>979</ele>
        <time>2014-06-21T16:18:00Z</time>
      </trkpt>
      <trkpt lat="47.84051" lon="6.98844">
        <ele>979</ele>
        <time>2014-06-21T16:18:03Z</time>
      </trkpt>
      <trkpt lat="47.84062" lon="6.98833">
        <ele>976</ele>
        <time>2014-06-21T16:18:13Z</time>
      </trkpt>
      <trkpt lat="47.84075" lon="6.98821">
        <ele>977</ele>
        <time>2014-06-21T16:18:25Z</time>
      </trkpt>
      <trkpt lat="47.84079" lon="6.98813">
        <ele>976</ele>
        <time>2014-06-21T16:18:36Z</time>
      </trkpt>
      <trkpt lat="47.84081" lon="6.98804">
        <ele>975</ele>
        <time>2014-06-21T16:18:42Z</time>
      </trkpt>
      <trkpt lat="47.84085" lon="6.98791">
        <ele>990</ele>
        <time>2014-06-21T16:18:52Z</time>
      </trkpt>
      <trkpt lat="47.84087" lon="6.98771">
        <ele>987</ele>
        <time>2014-06-21T16:19:03Z</time>
      </trkpt>
      <trkpt lat="47.84089" lon="6.9875">
        <ele>979</ele>
        <time>2014-06-21T16:19:15Z</time>
      </trkpt>
      <trkpt lat="47.84089" lon="6.98745">
        <ele>979</ele>
        <time>2014-06-21T16:19:18Z</time>
      </trkpt>
      <trkpt lat="47.84089" lon="6.98743">
        <ele>979</ele>
        <time>2014-06-21T16:19:19Z</time>
      </trkpt>
      <trkpt lat="47.84089" lon="6.98739">
        <ele>980</ele>
        <time>2014-06-21T16:19:21Z</time>
      </trkpt>
      <trkpt lat="47.84089" lon="6.98737">
        <ele>981</ele>
        <time>2014-06-21T16:19:22Z</time>
      </trkpt>
      <trkpt lat="47.84089" lon="6.98735">
        <ele>981</ele>
        <time>2014-06-21T16:19:23Z</time>
      </trkpt>
      <trkpt lat="47.8409" lon="6.98733">
        <ele>981</ele>
        <time>2014-06-21T16:19:24Z</time>
      </trkpt>
      <trkpt lat="47.8409" lon="6.98732">
        <ele>982</ele>
        <time>2014-06-21T16:19:25Z</time>
      </trkpt>
      <trkpt lat="47.84091" lon="6.98729">
        <ele>982</ele>
        <time>2014-06-21T16:19:27Z</time>
      </trkpt>
      <trkpt lat="47.84091" lon="6.98727">
        <ele>982</ele>
        <time>2014-06-21T16:19:28Z</time>
      </trkpt>
      <trkpt lat="47.84092" lon="6.98722">
        <ele>983</ele>
        <time>2014-06-21T16:19:30Z</time>
      </trkpt>
      <trkpt lat="47.84092" lon="6.9872">
        <ele>983</ele>
        <time>2014-06-21T16:19:31Z</time>
      </trkpt>
      <trkpt lat="47.84092" lon="6.98718">
        <ele>983</ele>
        <time>2014-06-21T16:19:32Z</time>
      </trkpt>
      <trkpt lat="47.84092" lon="6.98716">
        <ele>983</ele>
        <time>2014-06-21T16:19:33Z</time>
      </trkpt>
      <trkpt lat="47.84092" lon="6.98711">
        <ele>982</ele>
        <time>2014-06-21T16:19:35Z</time>
      </trkpt>
      <trkpt lat="47.84092" lon="6.98709">
        <ele>982</ele>
        <time>2014-06-21T16:19:36Z</time>
      </trkpt>
      <trkpt lat="47.84093" lon="6.98707">
        <ele>982</ele>
        <time>2014-06-21T16:19:37Z</time>
      </trkpt>
      <trkpt lat="47.84093" lon="6.98705">
        <ele>982</ele>
        <time>2014-06-21T16:19:38Z</time>
      </trkpt>
      <trkpt lat="47.84093" lon="6.98704">
        <ele>982</ele>
        <time>2014-06-21T16:19:39Z</time>
      </trkpt>
      <trkpt lat="47.84094" lon="6.98702">
        <ele>981</ele>
        <time>2014-06-21T16:19:40Z</time>
      </trkpt>
      <trkpt lat="47.84094" lon="6.98701">
        <ele>981</ele>
        <time>2014-06-21T16:19:41Z</time>
      </trkpt>
      <trkpt lat="47.84095" lon="6.98699">
        <ele>981</ele>
        <time>2014-06-21T16:19:42Z</time>
      </trkpt>
      <trkpt lat="47.84095" lon="6.98697">
        <ele>981</ele>
        <time>2014-06-21T16:19:43Z</time>
      </trkpt>
      <trkpt lat="47.84095" lon="6.98695">
        <ele>980</ele>
        <time>2014-06-21T16:19:44Z</time>
      </trkpt>
      <trkpt lat="47.84095" lon="6.98694">
        <ele>980</ele>
        <time>2014-06-21T16:19:45Z</time>
      </trkpt>
      <trkpt lat="47.84096" lon="6.98692">
        <ele>980</ele>
        <time>2014-06-21T16:19:46Z</time>
      </trkpt>
      <trkpt lat="47.84096" lon="6.98688">
        <ele>979</ele>
        <time>2014-06-21T16:19:48Z</time>
      </trkpt>
      <trkpt lat="47.84097" lon="6.98685">
        <ele>978</ele>
        <time>2014-06-21T16:19:50Z</time>
      </trkpt>
      <trkpt lat="47.84097" lon="6.98683">
        <ele>977</ele>
        <time>2014-06-21T16:19:51Z</time>
      </trkpt>
      <trkpt lat="47.84097" lon="6.98682">
        <ele>977</ele>
        <time>2014-06-21T16:19:52Z</time>
      </trkpt>
      <trkpt lat="47.84098" lon="6.98681">
        <ele>977</ele>
        <time>2014-06-21T16:19:53Z</time>
      </trkpt>
      <trkpt lat="47.84098" lon="6.98679">
        <ele>977</ele>
        <time>2014-06-21T16:19:54Z</time>
      </trkpt>
      <trkpt lat="47.84099" lon="6.98677">
        <ele>976</ele>
        <time>2014-06-21T16:19:55Z</time>
      </trkpt>
      <trkpt lat="47.84099" lon="6.98676">
        <ele>976</ele>
        <time>2014-06-21T16:19:56Z</time>
      </trkpt>
      <trkpt lat="47.84101" lon="6.98674">
        <ele>976</ele>
        <time>2014-06-21T16:19:57Z</time>
      </trkpt>
      <trkpt lat="47.84101" lon="6.98673">
        <ele>976</ele>
        <time>2014-06-21T16:19:58Z</time>
      </trkpt>
      <trkpt lat="47.84101" lon="6.98671">
        <ele>976</ele>
        <time>2014-06-21T16:19:59Z</time>
      </trkpt>
      <trkpt lat="47.84107" lon="6.98652">
        <ele>971</ele>
        <time>2014-06-21T16:20:09Z</time>
      </trkpt>
      <trkpt lat="47.84109" lon="6.98648">
        <ele>971</ele>
        <time>2014-06-21T16:20:13Z</time>
      </trkpt>
      <trkpt lat="47.84118" lon="6.98629">
        <ele>972</ele>
        <time>2014-06-21T16:20:25Z</time>
      </trkpt>
      <trkpt lat="47.84127" lon="6.98608">
        <ele>972</ele>
        <time>2014-06-21T16:20:35Z</time>
      </trkpt>
      <trkpt lat="47.84129" lon="6.98605">
        <ele>972</ele>
        <time>2014-06-21T16:20:37Z</time>
      </trkpt>
      <trkpt lat="47.84134" lon="6.98596">
        <ele>973</ele>
        <time>2014-06-21T16:20:43Z</time>
      </trkpt>
      <trkpt lat="47.84146" lon="6.98584">
        <ele>976</ele>
        <time>2014-06-21T16:20:54Z</time>
      </trkpt>
      <trkpt lat="47.84149" lon="6.9858">
        <ele>971</ele>
        <time>2014-06-21T16:20:57Z</time>
      </trkpt>
      <trkpt lat="47.84159" lon="6.98561">
        <ele>970</ele>
        <time>2014-06-21T16:21:07Z</time>
      </trkpt>
      <trkpt lat="47.8416" lon="6.98542">
        <ele>967</ele>
        <time>2014-06-21T16:21:17Z</time>
      </trkpt>
      <trkpt lat="47.84159" lon="6.98523">
        <ele>968</ele>
        <time>2014-06-21T16:21:26Z</time>
      </trkpt>
      <trkpt lat="47.84158" lon="6.98514">
        <ele>970</ele>
        <time>2014-06-21T16:21:30Z</time>
      </trkpt>
      <trkpt lat="47.84157" lon="6.98498">
        <ele>973</ele>
        <time>2014-06-21T16:21:36Z</time>
      </trkpt>
      <trkpt lat="47.84156" lon="6.98483">
        <ele>970</ele>
        <time>2014-06-21T16:21:44Z</time>
      </trkpt>
      <trkpt lat="47.84153" lon="6.98459">
        <ele>969</ele>
        <time>2014-06-21T16:21:55Z</time>
      </trkpt>
      <trkpt lat="47.84153" lon="6.98455">
        <ele>969</ele>
        <time>2014-06-21T16:21:57Z</time>
      </trkpt>
      <trkpt lat="47.84152" lon="6.9845">
        <ele>969</ele>
        <time>2014-06-21T16:21:59Z</time>
      </trkpt>
      <trkpt lat="47.84145" lon="6.98428">
        <ele>972</ele>
        <time>2014-06-21T16:22:11Z</time>
      </trkpt>
      <trkpt lat="47.84137" lon="6.9842">
        <ele>969</ele>
        <time>2014-06-21T16:22:18Z</time>
      </trkpt>
      <trkpt lat="47.84126" lon="6.98408">
        <ele>972</ele>
        <time>2014-06-21T16:22:28Z</time>
      </trkpt>
      <trkpt lat="47.84119" lon="6.98398">
        <ele>970</ele>
        <time>2014-06-21T16:22:35Z</time>
      </trkpt>
      <trkpt lat="47.84116" lon="6.98383">
        <ele>971</ele>
        <time>2014-06-21T16:22:44Z</time>
      </trkpt>
      <trkpt lat="47.84111" lon="6.98375">
        <ele>970</ele>
        <time>2014-06-21T16:22:50Z</time>
      </trkpt>
      <trkpt lat="47.84111" lon="6.98352">
        <ele>971</ele>
        <time>2014-06-21T16:23:00Z</time>
      </trkpt>
      <trkpt lat="47.84111" lon="6.98348">
        <ele>970</ele>
        <time>2014-06-21T16:23:02Z</time>
      </trkpt>
      <trkpt lat="47.8411" lon="6.98326">
        <ele>975</ele>
        <time>2014-06-21T16:23:12Z</time>
      </trkpt>
      <trkpt lat="47.84109" lon="6.98307">
        <ele>976</ele>
        <time>2014-06-21T16:23:22Z</time>
      </trkpt>
      <trkpt lat="47.84111" lon="6.98284">
        <ele>978</ele>
        <time>2014-06-21T16:23:32Z</time>
      </trkpt>
      <trkpt lat="47.84111" lon="6.9828">
        <ele>978</ele>
        <time>2014-06-21T16:23:34Z</time>
      </trkpt>
      <trkpt lat="47.84111" lon="6.9826">
        <ele>977</ele>
        <time>2014-06-21T16:23:44Z</time>
      </trkpt>
      <trkpt lat="47.84111" lon="6.98255">
        <ele>977</ele>
        <time>2014-06-21T16:23:46Z</time>
      </trkpt>
      <trkpt lat="47.84113" lon="6.98232">
        <ele>981</ele>
        <time>2014-06-21T16:23:57Z</time>
      </trkpt>
      <trkpt lat="47.84114" lon="6.98226">
        <ele>982</ele>
        <time>2014-06-21T16:24:00Z</time>
      </trkpt>
      <trkpt lat="47.84113" lon="6.98218">
        <ele>982</ele>
        <time>2014-06-21T16:24:05Z</time>
      </trkpt>
      <trkpt lat="47.84109" lon="6.98214">
        <ele>982</ele>
        <time>2014-06-21T16:24:15Z</time>
      </trkpt>
      <trkpt lat="47.84109" lon="6.98209">
        <ele>982</ele>
        <time>2014-06-21T16:24:22Z</time>
      </trkpt>
      <trkpt lat="47.8411" lon="6.98197">
        <ele>982</ele>
        <time>2014-06-21T16:24:26Z</time>
      </trkpt>
      <trkpt lat="47.84105" lon="6.98172">
        <ele>980</ele>
        <time>2014-06-21T16:24:39Z</time>
      </trkpt>
      <trkpt lat="47.84103" lon="6.98168">
        <ele>979</ele>
        <time>2014-06-21T16:24:43Z</time>
      </trkpt>
      <trkpt lat="47.84098" lon="6.98145">
        <ele>977</ele>
        <time>2014-06-21T16:24:54Z</time>
      </trkpt>
      <trkpt lat="47.84093" lon="6.98136">
        <ele>977</ele>
        <time>2014-06-21T16:24:58Z</time>
      </trkpt>
      <trkpt lat="47.84091" lon="6.98122">
        <ele>976</ele>
        <time>2014-06-21T16:25:08Z</time>
      </trkpt>
      <trkpt lat="47.84092" lon="6.98101">
        <ele>972</ele>
        <time>2014-06-21T16:25:19Z</time>
      </trkpt>
      <trkpt lat="47.84092" lon="6.98095">
        <ele>970</ele>
        <time>2014-06-21T16:25:21Z</time>
      </trkpt>
      <trkpt lat="47.84094" lon="6.98084">
        <ele>968</ele>
        <time>2014-06-21T16:25:27Z</time>
      </trkpt>
      <trkpt lat="47.84096" lon="6.98076">
        <ele>964</ele>
        <time>2014-06-21T16:25:32Z</time>
      </trkpt>
      <trkpt lat="47.84098" lon="6.9807">
        <ele>964</ele>
        <time>2014-06-21T16:25:35Z</time>
      </trkpt>
      <trkpt lat="47.84105" lon="6.98053">
        <ele>964</ele>
        <time>2014-06-21T16:25:45Z</time>
      </trkpt>
      <trkpt lat="47.84106" lon="6.98049">
        <ele>964</ele>
        <time>2014-06-21T16:25:48Z</time>
      </trkpt>
      <trkpt lat="47.84114" lon="6.98039">
        <ele>964</ele>
        <time>2014-06-21T16:25:58Z</time>
      </trkpt>
      <trkpt lat="47.84116" lon="6.98036">
        <ele>964</ele>
        <time>2014-06-21T16:26:01Z</time>
      </trkpt>
      <trkpt lat="47.84124" lon="6.9802">
        <ele>963</ele>
        <time>2014-06-21T16:26:11Z</time>
      </trkpt>
      <trkpt lat="47.8413" lon="6.98008">
        <ele>964</ele>
        <time>2014-06-21T16:26:17Z</time>
      </trkpt>
      <trkpt lat="47.84138" lon="6.97993">
        <ele>953</ele>
        <time>2014-06-21T16:26:28Z</time>
      </trkpt>
      <trkpt lat="47.84146" lon="6.97979">
        <ele>953</ele>
        <time>2014-06-21T16:26:38Z</time>
      </trkpt>
      <trkpt lat="47.84153" lon="6.97975">
        <ele>953</ele>
        <time>2014-06-21T16:26:41Z</time>
      </trkpt>
      <trkpt lat="47.84159" lon="6.97964">
        <ele>951</ele>
        <time>2014-06-21T16:26:48Z</time>
      </trkpt>
      <trkpt lat="47.8416" lon="6.9796">
        <ele>950</ele>
        <time>2014-06-21T16:26:51Z</time>
      </trkpt>
      <trkpt lat="47.84166" lon="6.97942">
        <ele>948</ele>
        <time>2014-06-21T16:27:03Z</time>
      </trkpt>
      <trkpt lat="47.84168" lon="6.97937">
        <ele>955</ele>
        <time>2014-06-21T16:27:06Z</time>
      </trkpt>
      <trkpt lat="47.84167" lon="6.97915">
        <ele>949</ele>
        <time>2014-06-21T16:27:17Z</time>
      </trkpt>
      <trkpt lat="47.84168" lon="6.97904">
        <ele>945</ele>
        <time>2014-06-21T16:27:23Z</time>
      </trkpt>
      <trkpt lat="47.84173" lon="6.9788">
        <ele>941</ele>
        <time>2014-06-21T16:27:36Z</time>
      </trkpt>
      <trkpt lat="47.84174" lon="6.97875">
        <ele>940</ele>
        <time>2014-06-21T16:27:38Z</time>
      </trkpt>
      <trkpt lat="47.84175" lon="6.97871">
        <ele>940</ele>
        <time>2014-06-21T16:27:40Z</time>
      </trkpt>
      <trkpt lat="47.84179" lon="6.97859">
        <ele>938</ele>
        <time>2014-06-21T16:27:50Z</time>
      </trkpt>
      <trkpt lat="47.84185" lon="6.97842">
        <ele>937</ele>
        <time>2014-06-21T16:28:00Z</time>
      </trkpt>
      <trkpt lat="47.84188" lon="6.97818">
        <ele>930</ele>
        <time>2014-06-21T16:28:12Z</time>
      </trkpt>
      <trkpt lat="47.84188" lon="6.97813">
        <ele>930</ele>
        <time>2014-06-21T16:28:17Z</time>
      </trkpt>
      <trkpt lat="47.84194" lon="6.97793">
        <ele>929</ele>
        <time>2014-06-21T16:28:28Z</time>
      </trkpt>
      <trkpt lat="47.84193" lon="6.97787">
        <ele>929</ele>
        <time>2014-06-21T16:28:30Z</time>
      </trkpt>
      <trkpt lat="47.84193" lon="6.97781">
        <ele>929</ele>
        <time>2014-06-21T16:28:32Z</time>
      </trkpt>
      <trkpt lat="47.8419" lon="6.97763">
        <ele>929</ele>
        <time>2014-06-21T16:28:41Z</time>
      </trkpt>
      <trkpt lat="47.84188" lon="6.97757">
        <ele>929</ele>
        <time>2014-06-21T16:28:43Z</time>
      </trkpt>
      <trkpt lat="47.84185" lon="6.97747">
        <ele>930</ele>
        <time>2014-06-21T16:28:48Z</time>
      </trkpt>
      <trkpt lat="47.84186" lon="6.97732">
        <ele>930</ele>
        <time>2014-06-21T16:28:59Z</time>
      </trkpt>
      <trkpt lat="47.84186" lon="6.97723">
        <ele>930</ele>
        <time>2014-06-21T16:29:04Z</time>
      </trkpt>
      <trkpt lat="47.84192" lon="6.97706">
        <ele>931</ele>
        <time>2014-06-21T16:29:15Z</time>
      </trkpt>
      <trkpt lat="47.84194" lon="6.97702">
        <ele>931</ele>
        <time>2014-06-21T16:29:21Z</time>
      </trkpt>
      <trkpt lat="47.84195" lon="6.97697">
        <ele>931</ele>
        <time>2014-06-21T16:29:24Z</time>
      </trkpt>
      <trkpt lat="47.84195" lon="6.97693">
        <ele>932</ele>
        <time>2014-06-21T16:29:26Z</time>
      </trkpt>
      <trkpt lat="47.84203" lon="6.97657">
        <ele>937</ele>
        <time>2014-06-21T16:29:37Z</time>
      </trkpt>
      <trkpt lat="47.84203" lon="6.97652">
        <ele>937</ele>
        <time>2014-06-21T16:29:40Z</time>
      </trkpt>
      <trkpt lat="47.84203" lon="6.97643">
        <ele>937</ele>
        <time>2014-06-21T16:29:47Z</time>
      </trkpt>
      <trkpt lat="47.84202" lon="6.97629">
        <ele>937</ele>
        <time>2014-06-21T16:29:54Z</time>
      </trkpt>
      <trkpt lat="47.84202" lon="6.97619">
        <ele>938</ele>
        <time>2014-06-21T16:29:58Z</time>
      </trkpt>
      <trkpt lat="47.84203" lon="6.9761">
        <ele>938</ele>
        <time>2014-06-21T16:30:02Z</time>
      </trkpt>
      <trkpt lat="47.84198" lon="6.97591">
        <ele>940</ele>
        <time>2014-06-21T16:30:13Z</time>
      </trkpt>
      <trkpt lat="47.84194" lon="6.97569">
        <ele>942</ele>
        <time>2014-06-21T16:30:24Z</time>
      </trkpt>
      <trkpt lat="47.8419" lon="6.97561">
        <ele>943</ele>
        <time>2014-06-21T16:30:28Z</time>
      </trkpt>
      <trkpt lat="47.84184" lon="6.97543">
        <ele>943</ele>
        <time>2014-06-21T16:30:39Z</time>
      </trkpt>
      <trkpt lat="47.84182" lon="6.97538">
        <ele>943</ele>
        <time>2014-06-21T16:30:42Z</time>
      </trkpt>
      <trkpt lat="47.84178" lon="6.97514">
        <ele>947</ele>
        <time>2014-06-21T16:30:54Z</time>
      </trkpt>
      <trkpt lat="47.84175" lon="6.97495">
        <ele>948</ele>
        <time>2014-06-21T16:31:04Z</time>
      </trkpt>
      <trkpt lat="47.84169" lon="6.97466">
        <ele>942</ele>
        <time>2014-06-21T16:31:15Z</time>
      </trkpt>
      <trkpt lat="47.84163" lon="6.97457">
        <ele>957</ele>
        <time>2014-06-21T16:31:22Z</time>
      </trkpt>
      <trkpt lat="47.84158" lon="6.97443">
        <ele>957</ele>
        <time>2014-06-21T16:31:32Z</time>
      </trkpt>
      <trkpt lat="47.84154" lon="6.97427">
        <ele>957</ele>
        <time>2014-06-21T16:31:42Z</time>
      </trkpt>
      <trkpt lat="47.84149" lon="6.97417">
        <ele>959</ele>
        <time>2014-06-21T16:31:49Z</time>
      </trkpt>
      <trkpt lat="47.84146" lon="6.97403">
        <ele>960</ele>
        <time>2014-06-21T16:31:59Z</time>
      </trkpt>
      <trkpt lat="47.84146" lon="6.97398">
        <ele>960</ele>
        <time>2014-06-21T16:32:01Z</time>
      </trkpt>
      <trkpt lat="47.84132" lon="6.97387">
        <ele>962</ele>
        <time>2014-06-21T16:32:11Z</time>
      </trkpt>
      <trkpt lat="47.84132" lon="6.97383">
        <ele>962</ele>
        <time>2014-06-21T16:32:40Z</time>
      </trkpt>
      <trkpt lat="47.84134" lon="6.9738">
        <ele>962</ele>
        <time>2014-06-21T16:32:46Z</time>
      </trkpt>
      <trkpt lat="47.84134" lon="6.97375">
        <ele>962</ele>
        <time>2014-06-21T16:32:49Z</time>
      </trkpt>
      <trkpt lat="47.84131" lon="6.97355">
        <ele>961</ele>
        <time>2014-06-21T16:32:59Z</time>
      </trkpt>
      <trkpt lat="47.84124" lon="6.97336">
        <ele>963</ele>
        <time>2014-06-21T16:33:09Z</time>
      </trkpt>
      <trkpt lat="47.8412" lon="6.9732">
        <ele>961</ele>
        <time>2014-06-21T16:33:20Z</time>
      </trkpt>
      <trkpt lat="47.84121" lon="6.97304">
        <ele>960</ele>
        <time>2014-06-21T16:33:27Z</time>
      </trkpt>
      <trkpt lat="47.84119" lon="6.97279">
        <ele>960</ele>
        <time>2014-06-21T16:33:38Z</time>
      </trkpt>
      <trkpt lat="47.84118" lon="6.97266">
        <ele>960</ele>
        <time>2014-06-21T16:33:44Z</time>
      </trkpt>
      <trkpt lat="47.84118" lon="6.97248">
        <ele>959</ele>
        <time>2014-06-21T16:33:55Z</time>
      </trkpt>
      <trkpt lat="47.84115" lon="6.97238">
        <ele>960</ele>
        <time>2014-06-21T16:34:00Z</time>
      </trkpt>
      <trkpt lat="47.84112" lon="6.97231">
        <ele>960</ele>
        <time>2014-06-21T16:34:05Z</time>
      </trkpt>
      <trkpt lat="47.84112" lon="6.97227">
        <ele>960</ele>
        <time>2014-06-21T16:34:07Z</time>
      </trkpt>
      <trkpt lat="47.84111" lon="6.97201">
        <ele>960</ele>
        <time>2014-06-21T16:34:18Z</time>
      </trkpt>
      <trkpt lat="47.84115" lon="6.97188">
        <ele>959</ele>
        <time>2014-06-21T16:34:22Z</time>
      </trkpt>
      <trkpt lat="47.84115" lon="6.97184">
        <ele>959</ele>
        <time>2014-06-21T16:34:24Z</time>
      </trkpt>
      <trkpt lat="47.84112" lon="6.97168">
        <ele>960</ele>
        <time>2014-06-21T16:34:37Z</time>
      </trkpt>
      <trkpt lat="47.84113" lon="6.97143">
        <ele>961</ele>
        <time>2014-06-21T16:34:48Z</time>
      </trkpt>
      <trkpt lat="47.84114" lon="6.97138">
        <ele>960</ele>
        <time>2014-06-21T16:34:50Z</time>
      </trkpt>
      <trkpt lat="47.84116" lon="6.97133">
        <ele>960</ele>
        <time>2014-06-21T16:34:53Z</time>
      </trkpt>
      <trkpt lat="47.84117" lon="6.97115">
        <ele>960</ele>
        <time>2014-06-21T16:35:04Z</time>
      </trkpt>
      <trkpt lat="47.84114" lon="6.97088">
        <ele>961</ele>
        <time>2014-06-21T16:35:15Z</time>
      </trkpt>
      <trkpt lat="47.84117" lon="6.97077">
        <ele>963</ele>
        <time>2014-06-21T16:35:19Z</time>
      </trkpt>
      <trkpt lat="47.84118" lon="6.97065">
        <ele>963</ele>
        <time>2014-06-21T16:35:31Z</time>
      </trkpt>
      <trkpt lat="47.84118" lon="6.9706">
        <ele>963</ele>
        <time>2014-06-21T16:35:34Z</time>
      </trkpt>
      <trkpt lat="47.84119" lon="6.97032">
        <ele>963</ele>
        <time>2014-06-21T16:35:45Z</time>
      </trkpt>
      <trkpt lat="47.84118" lon="6.97029">
        <ele>964</ele>
        <time>2014-06-21T16:35:47Z</time>
      </trkpt>
      <trkpt lat="47.84116" lon="6.97019">
        <ele>964</ele>
        <time>2014-06-21T16:35:52Z</time>
      </trkpt>
      <trkpt lat="47.84116" lon="6.97008">
        <ele>964</ele>
        <time>2014-06-21T16:35:58Z</time>
      </trkpt>
      <trkpt lat="47.8412" lon="6.96988">
        <ele>970</ele>
        <time>2014-06-21T16:36:10Z</time>
      </trkpt>
      <trkpt lat="47.84122" lon="6.96984">
        <ele>970</ele>
        <time>2014-06-21T16:36:12Z</time>
      </trkpt>
      <trkpt lat="47.84124" lon="6.9696">
        <ele>971</ele>
        <time>2014-06-21T16:36:24Z</time>
      </trkpt>
      <trkpt lat="47.84131" lon="6.96934">
        <ele>972</ele>
        <time>2014-06-21T16:36:35Z</time>
      </trkpt>
      <trkpt lat="47.8413" lon="6.96929">
        <ele>973</ele>
        <time>2014-06-21T16:36:38Z</time>
      </trkpt>
      <trkpt lat="47.8413" lon="6.96925">
        <ele>973</ele>
        <time>2014-06-21T16:36:41Z</time>
      </trkpt>
      <trkpt lat="47.84133" lon="6.96909">
        <ele>980</ele>
        <time>2014-06-21T16:36:50Z</time>
      </trkpt>
      <trkpt lat="47.84132" lon="6.96885">
        <ele>981</ele>
        <time>2014-06-21T16:37:01Z</time>
      </trkpt>
      <trkpt lat="47.84136" lon="6.96864">
        <ele>982</ele>
        <time>2014-06-21T16:37:11Z</time>
      </trkpt>
      <trkpt lat="47.84137" lon="6.96858">
        <ele>983</ele>
        <time>2014-06-21T16:37:13Z</time>
      </trkpt>
      <trkpt lat="47.84139" lon="6.96841">
        <ele>983</ele>
        <time>2014-06-21T16:37:25Z</time>
      </trkpt>
      <trkpt lat="47.84142" lon="6.96822">
        <ele>988</ele>
        <time>2014-06-21T16:37:36Z</time>
      </trkpt>
      <trkpt lat="47.84146" lon="6.96803">
        <ele>990</ele>
        <time>2014-06-21T16:37:47Z</time>
      </trkpt>
      <trkpt lat="47.84148" lon="6.96799">
        <ele>990</ele>
        <time>2014-06-21T16:37:49Z</time>
      </trkpt>
      <trkpt lat="47.84149" lon="6.96794">
        <ele>990</ele>
        <time>2014-06-21T16:37:51Z</time>
      </trkpt>
      <trkpt lat="47.8415" lon="6.9679">
        <ele>990</ele>
        <time>2014-06-21T16:37:54Z</time>
      </trkpt>
      <trkpt lat="47.84155" lon="6.9677">
        <ele>992</ele>
        <time>2014-06-21T16:38:06Z</time>
      </trkpt>
      <trkpt lat="47.84165" lon="6.96749">
        <ele>993</ele>
        <time>2014-06-21T16:38:16Z</time>
      </trkpt>
      <trkpt lat="47.84165" lon="6.96744">
        <ele>993</ele>
        <time>2014-06-21T16:38:18Z</time>
      </trkpt>
      <trkpt lat="47.84165" lon="6.96738">
        <ele>993</ele>
        <time>2014-06-21T16:38:21Z</time>
      </trkpt>
      <trkpt lat="47.84167" lon="6.9673">
        <ele>985</ele>
        <time>2014-06-21T16:38:25Z</time>
      </trkpt>
      <trkpt lat="47.84171" lon="6.96717">
        <ele>983</ele>
        <time>2014-06-21T16:38:35Z</time>
      </trkpt>
      <trkpt lat="47.84181" lon="6.96691">
        <ele>983</ele>
        <time>2014-06-21T16:38:46Z</time>
      </trkpt>
      <trkpt lat="47.84183" lon="6.96687">
        <ele>983</ele>
        <time>2014-06-21T16:38:49Z</time>
      </trkpt>
      <trkpt lat="47.84183" lon="6.96682">
        <ele>984</ele>
        <time>2014-06-21T16:38:52Z</time>
      </trkpt>
      <trkpt lat="47.84182" lon="6.96662">
        <ele>988</ele>
        <time>2014-06-21T16:39:05Z</time>
      </trkpt>
      <trkpt lat="47.84183" lon="6.96657">
        <ele>988</ele>
        <time>2014-06-21T16:39:08Z</time>
      </trkpt>
      <trkpt lat="47.84191" lon="6.9664">
        <ele>985</ele>
        <time>2014-06-21T16:39:21Z</time>
      </trkpt>
      <trkpt lat="47.84194" lon="6.96639">
        <ele>985</ele>
        <time>2014-06-21T16:39:24Z</time>
      </trkpt>
      <trkpt lat="47.84206" lon="6.96627">
        <ele>984</ele>
        <time>2014-06-21T16:39:34Z</time>
      </trkpt>
      <trkpt lat="47.84208" lon="6.96622">
        <ele>984</ele>
        <time>2014-06-21T16:39:38Z</time>
      </trkpt>
      <trkpt lat="47.84213" lon="6.96618">
        <ele>983</ele>
        <time>2014-06-21T16:39:44Z</time>
      </trkpt>
      <trkpt lat="47.84224" lon="6.96602">
        <ele>984</ele>
        <time>2014-06-21T16:39:55Z</time>
      </trkpt>
      <trkpt lat="47.84242" lon="6.96588">
        <ele>986</ele>
        <time>2014-06-21T16:40:05Z</time>
      </trkpt>
      <trkpt lat="47.84245" lon="6.96588">
        <ele>986</ele>
        <time>2014-06-21T16:40:08Z</time>
      </trkpt>
      <trkpt lat="47.84249" lon="6.96587">
        <ele>986</ele>
        <time>2014-06-21T16:40:11Z</time>
      </trkpt>
      <trkpt lat="47.84252" lon="6.96587">
        <ele>984</ele>
        <time>2014-06-21T16:40:14Z</time>
      </trkpt>
      <trkpt lat="47.84266" lon="6.96583">
        <ele>988</ele>
        <time>2014-06-21T16:40:25Z</time>
      </trkpt>
      <trkpt lat="47.84284" lon="6.9657">
        <ele>988</ele>
        <time>2014-06-21T16:40:37Z</time>
      </trkpt>
      <trkpt lat="47.84288" lon="6.9657">
        <ele>987</ele>
        <time>2014-06-21T16:40:39Z</time>
      </trkpt>
      <trkpt lat="47.84292" lon="6.9657">
        <ele>987</ele>
        <time>2014-06-21T16:40:41Z</time>
      </trkpt>
      <trkpt lat="47.84303" lon="6.96559">
        <ele>987</ele>
        <time>2014-06-21T16:40:58Z</time>
      </trkpt>
      <trkpt lat="47.84321" lon="6.96548">
        <ele>988</ele>
        <time>2014-06-21T16:41:09Z</time>
      </trkpt>
      <trkpt lat="47.84324" lon="6.96547">
        <ele>988</ele>
        <time>2014-06-21T16:41:13Z</time>
      </trkpt>
      <trkpt lat="47.84327" lon="6.96545">
        <ele>988</ele>
        <time>2014-06-21T16:41:19Z</time>
      </trkpt>
      <trkpt lat="47.8433" lon="6.96541">
        <ele>989</ele>
        <time>2014-06-21T16:41:26Z</time>
      </trkpt>
      <trkpt lat="47.84344" lon="6.96512">
        <ele>989</ele>
        <time>2014-06-21T16:41:36Z</time>
      </trkpt>
      <trkpt lat="47.84365" lon="6.96492">
        <ele>994</ele>
        <time>2014-06-21T16:41:47Z</time>
      </trkpt>
      <trkpt lat="47.8437" lon="6.96488">
        <ele>994</ele>
        <time>2014-06-21T16:41:54Z</time>
      </trkpt>
      <trkpt lat="47.84372" lon="6.96474">
        <ele>994</ele>
        <time>2014-06-21T16:42:05Z</time>
      </trkpt>
      <trkpt lat="47.84373" lon="6.96468">
        <ele>994</ele>
        <time>2014-06-21T16:42:07Z</time>
      </trkpt>
      <trkpt lat="47.84378" lon="6.96453">
        <ele>994</ele>
        <time>2014-06-21T16:42:15Z</time>
      </trkpt>
      <trkpt lat="47.84383" lon="6.96425">
        <ele>995</ele>
        <time>2014-06-21T16:42:25Z</time>
      </trkpt>
      <trkpt lat="47.84388" lon="6.96404">
        <ele>1003</ele>
        <time>2014-06-21T16:42:36Z</time>
      </trkpt>
      <trkpt lat="47.84389" lon="6.96399">
        <ele>1003</ele>
        <time>2014-06-21T16:42:39Z</time>
      </trkpt>
      <trkpt lat="47.84387" lon="6.96381">
        <ele>1005</ele>
        <time>2014-06-21T16:42:50Z</time>
      </trkpt>
      <trkpt lat="47.84393" lon="6.96359">
        <ele>1006</ele>
        <time>2014-06-21T16:43:00Z</time>
      </trkpt>
      <trkpt lat="47.84399" lon="6.96343">
        <ele>1006</ele>
        <time>2014-06-21T16:43:12Z</time>
      </trkpt>
      <trkpt lat="47.84405" lon="6.96327">
        <ele>1012</ele>
        <time>2014-06-21T16:43:23Z</time>
      </trkpt>
      <trkpt lat="47.84407" lon="6.96322">
        <ele>1013</ele>
        <time>2014-06-21T16:43:26Z</time>
      </trkpt>
      <trkpt lat="47.84413" lon="6.96296">
        <ele>1018</ele>
        <time>2014-06-21T16:43:37Z</time>
      </trkpt>
      <trkpt lat="47.84414" lon="6.96292">
        <ele>1019</ele>
        <time>2014-06-21T16:43:39Z</time>
      </trkpt>
      <trkpt lat="47.84416" lon="6.96289">
        <ele>1020</ele>
        <time>2014-06-21T16:43:41Z</time>
      </trkpt>
      <trkpt lat="47.84418" lon="6.96286">
        <ele>1005</ele>
        <time>2014-06-21T16:43:43Z</time>
      </trkpt>
      <trkpt lat="47.84424" lon="6.96282">
        <ele>1005</ele>
        <time>2014-06-21T16:43:48Z</time>
      </trkpt>
      <trkpt lat="47.84431" lon="6.96263">
        <ele>1011</ele>
        <time>2014-06-21T16:43:59Z</time>
      </trkpt>
      <trkpt lat="47.84433" lon="6.96259">
        <ele>1011</ele>
        <time>2014-06-21T16:44:03Z</time>
      </trkpt>
      <trkpt lat="47.84438" lon="6.96252">
        <ele>1009</ele>
        <time>2014-06-21T16:44:09Z</time>
      </trkpt>
      <trkpt lat="47.84446" lon="6.96235">
        <ele>1020</ele>
        <time>2014-06-21T16:44:20Z</time>
      </trkpt>
      <trkpt lat="47.84447" lon="6.9623">
        <ele>1020</ele>
        <time>2014-06-21T16:44:24Z</time>
      </trkpt>
      <trkpt lat="47.84452" lon="6.96207">
        <ele>1022</ele>
        <time>2014-06-21T16:44:35Z</time>
      </trkpt>
      <trkpt lat="47.84461" lon="6.96185">
        <ele>1023</ele>
        <time>2014-06-21T16:44:46Z</time>
      </trkpt>
      <trkpt lat="47.84467" lon="6.96174">
        <ele>1022</ele>
        <time>2014-06-21T16:44:56Z</time>
      </trkpt>
      <trkpt lat="47.84468" lon="6.96169">
        <ele>1022</ele>
        <time>2014-06-21T16:44:59Z</time>
      </trkpt>
      <trkpt lat="47.84475" lon="6.96154">
        <ele>1034</ele>
        <time>2014-06-21T16:45:10Z</time>
      </trkpt>
      <trkpt lat="47.84479" lon="6.96153">
        <ele>1033</ele>
        <time>2014-06-21T16:45:12Z</time>
      </trkpt>
      <trkpt lat="47.84481" lon="6.9615">
        <ele>1033</ele>
        <time>2014-06-21T16:45:14Z</time>
      </trkpt>
      <trkpt lat="47.84484" lon="6.9614">
        <ele>1036</ele>
        <time>2014-06-21T16:45:18Z</time>
      </trkpt>
      <trkpt lat="47.84485" lon="6.96134">
        <ele>1037</ele>
        <time>2014-06-21T16:45:20Z</time>
      </trkpt>
      <trkpt lat="47.84497" lon="6.96117">
        <ele>1040</ele>
        <time>2014-06-21T16:45:30Z</time>
      </trkpt>
      <trkpt lat="47.845" lon="6.96117">
        <ele>1040</ele>
        <time>2014-06-21T16:45:33Z</time>
      </trkpt>
      <trkpt lat="47.84505" lon="6.96113">
        <ele>1029</ele>
        <time>2014-06-21T16:45:44Z</time>
      </trkpt>
      <trkpt lat="47.84512" lon="6.96106">
        <ele>1031</ele>
        <time>2014-06-21T16:45:53Z</time>
      </trkpt>
      <trkpt lat="47.84515" lon="6.96104">
        <ele>1031</ele>
        <time>2014-06-21T16:45:56Z</time>
      </trkpt>
      <trkpt lat="47.84527" lon="6.96102">
        <ele>1029</ele>
        <time>2014-06-21T16:46:09Z</time>
      </trkpt>
      <trkpt lat="47.8453" lon="6.96095">
        <ele>1030</ele>
        <time>2014-06-21T16:46:20Z</time>
      </trkpt>
      <trkpt lat="47.84541" lon="6.96091">
        <ele>1029</ele>
        <time>2014-06-21T16:46:28Z</time>
      </trkpt>
      <trkpt lat="47.84545" lon="6.96091">
        <ele>1028</ele>
        <time>2014-06-21T16:46:31Z</time>
      </trkpt>
      <trkpt lat="47.84557" lon="6.96078">
        <ele>1047</ele>
        <time>2014-06-21T16:46:43Z</time>
      </trkpt>
      <trkpt lat="47.8456" lon="6.96075">
        <ele>1046</ele>
        <time>2014-06-21T16:46:47Z</time>
      </trkpt>
      <trkpt lat="47.84564" lon="6.96073">
        <ele>1046</ele>
        <time>2014-06-21T16:46:49Z</time>
      </trkpt>
      <trkpt lat="47.84575" lon="6.96063">
        <ele>1046</ele>
        <time>2014-06-21T16:46:59Z</time>
      </trkpt>
      <trkpt lat="47.8459" lon="6.96047">
        <ele>1041</ele>
        <time>2014-06-21T16:47:09Z</time>
      </trkpt>
      <trkpt lat="47.84598" lon="6.96039">
        <ele>1042</ele>
        <time>2014-06-21T16:47:17Z</time>
      </trkpt>
      <trkpt lat="47.84604" lon="6.96022">
        <ele>1047</ele>
        <time>2014-06-21T16:47:30Z</time>
      </trkpt>
      <trkpt lat="47.84606" lon="6.96017">
        <ele>1048</ele>
        <time>2014-06-21T16:47:33Z</time>
      </trkpt>
      <trkpt lat="47.84617" lon="6.96005">
        <ele>1047</ele>
        <time>2014-06-21T16:47:42Z</time>
      </trkpt>
      <trkpt lat="47.84625" lon="6.95989">
        <ele>1064</ele>
        <time>2014-06-21T16:47:52Z</time>
      </trkpt>
      <trkpt lat="47.84634" lon="6.95975">
        <ele>1064</ele>
        <time>2014-06-21T16:48:04Z</time>
      </trkpt>
      <trkpt lat="47.84637" lon="6.95976">
        <ele>1063</ele>
        <time>2014-06-21T16:48:10Z</time>
      </trkpt>
      <trkpt lat="47.84644" lon="6.95969">
        <ele>1063</ele>
        <time>2014-06-21T16:48:17Z</time>
      </trkpt>
      <trkpt lat="47.84655" lon="6.95955">
        <ele>1066</ele>
        <time>2014-06-21T16:48:27Z</time>
      </trkpt>
      <trkpt lat="47.84662" lon="6.95938">
        <ele>1069</ele>
        <time>2014-06-21T16:48:38Z</time>
      </trkpt>
      <trkpt lat="47.84667" lon="6.95933">
        <ele>1060</ele>
        <time>2014-06-21T16:48:44Z</time>
      </trkpt>
      <trkpt lat="47.84677" lon="6.95927">
        <ele>1061</ele>
        <time>2014-06-21T16:48:53Z</time>
      </trkpt>
      <trkpt lat="47.84687" lon="6.95926">
        <ele>1056</ele>
        <time>2014-06-21T16:49:05Z</time>
      </trkpt>
      <trkpt lat="47.84692" lon="6.95921">
        <ele>1055</ele>
        <time>2014-06-21T16:49:12Z</time>
      </trkpt>
      <trkpt lat="47.84701" lon="6.95919">
        <ele>1052</ele>
        <time>2014-06-21T16:49:22Z</time>
      </trkpt>
      <trkpt lat="47.84704" lon="6.95921">
        <ele>1050</ele>
        <time>2014-06-21T16:49:24Z</time>
      </trkpt>
      <trkpt lat="47.84718" lon="6.95916">
        <ele>1061</ele>
        <time>2014-06-21T16:49:34Z</time>
      </trkpt>
      <trkpt lat="47.8472" lon="6.95913">
        <ele>1060</ele>
        <time>2014-06-21T16:49:37Z</time>
      </trkpt>
      <trkpt lat="47.84732" lon="6.95901">
        <ele>1057</ele>
        <time>2014-06-21T16:49:48Z</time>
      </trkpt>
      <trkpt lat="47.84742" lon="6.95901">
        <ele>1055</ele>
        <time>2014-06-21T16:49:58Z</time>
      </trkpt>
      <trkpt lat="47.84747" lon="6.95897">
        <ele>1055</ele>
        <time>2014-06-21T16:50:02Z</time>
      </trkpt>
      <trkpt lat="47.8475" lon="6.95885">
        <ele>1034</ele>
        <time>2014-06-21T16:50:16Z</time>
      </trkpt>
      <trkpt lat="47.84752" lon="6.95881">
        <ele>1034</ele>
        <time>2014-06-21T16:50:20Z</time>
      </trkpt>
      <trkpt lat="47.84757" lon="6.95883">
        <ele>1033</ele>
        <time>2014-06-21T16:51:19Z</time>
      </trkpt>
      <trkpt lat="47.84753" lon="6.95887">
        <ele>1034</ele>
        <time>2014-06-21T16:51:34Z</time>
      </trkpt>
      <trkpt lat="47.84755" lon="6.95884">
        <ele>1034</ele>
        <time>2014-06-21T16:52:00Z</time>
      </trkpt>
      <trkpt lat="47.84746" lon="6.95866">
        <ele>1060</ele>
        <time>2014-06-21T16:52:12Z</time>
      </trkpt>
      <trkpt lat="47.84745" lon="6.95856">
        <ele>1060</ele>
        <time>2014-06-21T16:52:17Z</time>
      </trkpt>
      <trkpt lat="47.84746" lon="6.95833">
        <ele>1057</ele>
        <time>2014-06-21T16:52:28Z</time>
      </trkpt>
      <trkpt lat="47.84737" lon="6.95818">
        <ele>1063</ele>
        <time>2014-06-21T16:52:39Z</time>
      </trkpt>
      <trkpt lat="47.84736" lon="6.95808">
        <ele>1064</ele>
        <time>2014-06-21T16:52:44Z</time>
      </trkpt>
      <trkpt lat="47.84734" lon="6.95785">
        <ele>1064</ele>
        <time>2014-06-21T16:52:55Z</time>
      </trkpt>
      <trkpt lat="47.84734" lon="6.95781">
        <ele>1064</ele>
        <time>2014-06-21T16:52:57Z</time>
      </trkpt>
      <trkpt lat="47.84734" lon="6.95775">
        <ele>1063</ele>
        <time>2014-06-21T16:53:00Z</time>
      </trkpt>
      <trkpt lat="47.84727" lon="6.95767">
        <ele>1063</ele>
        <time>2014-06-21T16:53:10Z</time>
      </trkpt>
      <trkpt lat="47.84725" lon="6.95747">
        <ele>1058</ele>
        <time>2014-06-21T16:53:21Z</time>
      </trkpt>
      <trkpt lat="47.8472" lon="6.95742">
        <ele>1060</ele>
        <time>2014-06-21T16:53:25Z</time>
      </trkpt>
      <trkpt lat="47.84714" lon="6.95731">
        <ele>1061</ele>
        <time>2014-06-21T16:53:35Z</time>
      </trkpt>
      <trkpt lat="47.84713" lon="6.95727">
        <ele>1061</ele>
        <time>2014-06-21T16:53:38Z</time>
      </trkpt>
      <trkpt lat="47.84708" lon="6.95722">
        <ele>1063</ele>
        <time>2014-06-21T16:53:43Z</time>
      </trkpt>
      <trkpt lat="47.84699" lon="6.95708">
        <ele>1064</ele>
        <time>2014-06-21T16:53:53Z</time>
      </trkpt>
      <trkpt lat="47.84691" lon="6.95691">
        <ele>1065</ele>
        <time>2014-06-21T16:54:07Z</time>
      </trkpt>
      <trkpt lat="47.84688" lon="6.95679">
        <ele>1066</ele>
        <time>2014-06-21T16:54:17Z</time>
      </trkpt>
      <trkpt lat="47.84691" lon="6.95674">
        <ele>1066</ele>
        <time>2014-06-21T16:54:20Z</time>
      </trkpt>
      <trkpt lat="47.84693" lon="6.95651">
        <ele>1058</ele>
        <time>2014-06-21T16:54:32Z</time>
      </trkpt>
      <trkpt lat="47.84686" lon="6.95637">
        <ele>1058</ele>
        <time>2014-06-21T16:54:42Z</time>
      </trkpt>
      <trkpt lat="47.84678" lon="6.95623">
        <ele>1058</ele>
        <time>2014-06-21T16:54:52Z</time>
      </trkpt>
      <trkpt lat="47.84677" lon="6.95618">
        <ele>1058</ele>
        <time>2014-06-21T16:54:55Z</time>
      </trkpt>
      <trkpt lat="47.84676" lon="6.95608">
        <ele>1058</ele>
        <time>2014-06-21T16:55:00Z</time>
      </trkpt>
      <trkpt lat="47.84674" lon="6.95587">
        <ele>1063</ele>
        <time>2014-06-21T16:55:11Z</time>
      </trkpt>
      <trkpt lat="47.84675" lon="6.95582">
        <ele>1061</ele>
        <time>2014-06-21T16:55:13Z</time>
      </trkpt>
      <trkpt lat="47.84678" lon="6.95575">
        <ele>1058</ele>
        <time>2014-06-21T16:55:17Z</time>
      </trkpt>
      <trkpt lat="47.8468" lon="6.95571">
        <ele>1055</ele>
        <time>2014-06-21T16:55:19Z</time>
      </trkpt>
      <trkpt lat="47.84682" lon="6.95547">
        <ele>1050</ele>
        <time>2014-06-21T16:55:30Z</time>
      </trkpt>
      <trkpt lat="47.84682" lon="6.95541">
        <ele>1050</ele>
        <time>2014-06-21T16:55:33Z</time>
      </trkpt>
      <trkpt lat="47.84679" lon="6.95533">
        <ele>1050</ele>
        <time>2014-06-21T16:55:37Z</time>
      </trkpt>
      <trkpt lat="47.84675" lon="6.9551">
        <ele>1055</ele>
        <time>2014-06-21T16:55:48Z</time>
      </trkpt>
      <trkpt lat="47.84671" lon="6.95497">
        <ele>1057</ele>
        <time>2014-06-21T16:55:54Z</time>
      </trkpt>
      <trkpt lat="47.84674" lon="6.9547">
        <ele>1046</ele>
        <time>2014-06-21T16:56:05Z</time>
      </trkpt>
      <trkpt lat="47.84674" lon="6.9546">
        <ele>1045</ele>
        <time>2014-06-21T16:56:08Z</time>
      </trkpt>
      <trkpt lat="47.84672" lon="6.95455">
        <ele>1045</ele>
        <time>2014-06-21T16:56:11Z</time>
      </trkpt>
      <trkpt lat="47.8467" lon="6.95451">
        <ele>1045</ele>
        <time>2014-06-21T16:56:15Z</time>
      </trkpt>
      <trkpt lat="47.8467" lon="6.95446">
        <ele>1045</ele>
        <time>2014-06-21T16:56:18Z</time>
      </trkpt>
      <trkpt lat="47.84669" lon="6.95419">
        <ele>1051</ele>
        <time>2014-06-21T16:56:28Z</time>
      </trkpt>
      <trkpt lat="47.84674" lon="6.95403">
        <ele>1045</ele>
        <time>2014-06-21T16:56:36Z</time>
      </trkpt>
      <trkpt lat="47.84675" lon="6.95397">
        <ele>1043</ele>
        <time>2014-06-21T16:56:39Z</time>
      </trkpt>
      <trkpt lat="47.84676" lon="6.95375">
        <ele>1041</ele>
        <time>2014-06-21T16:56:49Z</time>
      </trkpt>
      <trkpt lat="47.84686" lon="6.95355">
        <ele>1040</ele>
        <time>2014-06-21T16:56:59Z</time>
      </trkpt>
      <trkpt lat="47.8469" lon="6.95343">
        <ele>1040</ele>
        <time>2014-06-21T16:57:03Z</time>
      </trkpt>
      <trkpt lat="47.84694" lon="6.9533">
        <ele>1040</ele>
        <time>2014-06-21T16:57:07Z</time>
      </trkpt>
      <trkpt lat="47.84695" lon="6.95322">
        <ele>1039</ele>
        <time>2014-06-21T16:57:13Z</time>
      </trkpt>
      <trkpt lat="47.84697" lon="6.95308">
        <ele>1039</ele>
        <time>2014-06-21T16:57:24Z</time>
      </trkpt>
      <trkpt lat="47.84699" lon="6.95305">
        <ele>1038</ele>
        <time>2014-06-21T16:57:26Z</time>
      </trkpt>
      <trkpt lat="47.847" lon="6.9528">
        <ele>1038</ele>
        <time>2014-06-21T16:57:36Z</time>
      </trkpt>
      <trkpt lat="47.847" lon="6.95275">
        <ele>1038</ele>
        <time>2014-06-21T16:57:38Z</time>
      </trkpt>
      <trkpt lat="47.84694" lon="6.95251">
        <ele>1040</ele>
        <time>2014-06-21T16:57:48Z</time>
      </trkpt>
      <trkpt lat="47.84694" lon="6.95245">
        <ele>1042</ele>
        <time>2014-06-21T16:57:50Z</time>
      </trkpt>
      <trkpt lat="47.84695" lon="6.9524">
        <ele>1042</ele>
        <time>2014-06-21T16:57:52Z</time>
      </trkpt>
      <trkpt lat="47.84695" lon="6.95221">
        <ele>1042</ele>
        <time>2014-06-21T16:58:02Z</time>
      </trkpt>
      <trkpt lat="47.84696" lon="6.95196">
        <ele>1042</ele>
        <time>2014-06-21T16:58:12Z</time>
      </trkpt>
      <trkpt lat="47.84699" lon="6.95189">
        <ele>1042</ele>
        <time>2014-06-21T16:58:14Z</time>
      </trkpt>
      <trkpt lat="47.847" lon="6.95183">
        <ele>1042</ele>
        <time>2014-06-21T16:58:16Z</time>
      </trkpt>
      <trkpt lat="47.847" lon="6.95178">
        <ele>1042</ele>
        <time>2014-06-21T16:58:19Z</time>
      </trkpt>
      <trkpt lat="47.84703" lon="6.95159">
        <ele>1045</ele>
        <time>2014-06-21T16:58:31Z</time>
      </trkpt>
      <trkpt lat="47.84706" lon="6.95156">
        <ele>1044</ele>
        <time>2014-06-21T16:58:33Z</time>
      </trkpt>
      <trkpt lat="47.84714" lon="6.95141">
        <ele>1044</ele>
        <time>2014-06-21T16:58:41Z</time>
      </trkpt>
      <trkpt lat="47.84723" lon="6.9512">
        <ele>1045</ele>
        <time>2014-06-21T16:58:51Z</time>
      </trkpt>
      <trkpt lat="47.84732" lon="6.95105">
        <ele>1046</ele>
        <time>2014-06-21T16:59:00Z</time>
      </trkpt>
      <trkpt lat="47.84736" lon="6.95099">
        <ele>1046</ele>
        <time>2014-06-21T16:59:10Z</time>
      </trkpt>
      <trkpt lat="47.84738" lon="6.95095">
        <ele>1046</ele>
        <time>2014-06-21T16:59:12Z</time>
      </trkpt>
      <trkpt lat="47.84742" lon="6.95077">
        <ele>1049</ele>
        <time>2014-06-21T16:59:21Z</time>
      </trkpt>
      <trkpt lat="47.84743" lon="6.95064">
        <ele>1050</ele>
        <time>2014-06-21T16:59:30Z</time>
      </trkpt>
      <trkpt lat="47.84749" lon="6.95042">
        <ele>1051</ele>
        <time>2014-06-21T16:59:41Z</time>
      </trkpt>
      <trkpt lat="47.84751" lon="6.95032">
        <ele>1038</ele>
        <time>2014-06-21T16:59:45Z</time>
      </trkpt>
      <trkpt lat="47.84761" lon="6.95012">
        <ele>1042</ele>
        <time>2014-06-21T16:59:56Z</time>
      </trkpt>
      <trkpt lat="47.84752" lon="6.94989">
        <ele>1046</ele>
        <time>2014-06-21T17:00:06Z</time>
      </trkpt>
      <trkpt lat="47.84755" lon="6.94973">
        <ele>1040</ele>
        <time>2014-06-21T17:00:15Z</time>
      </trkpt>
      <trkpt lat="47.84758" lon="6.94947">
        <ele>1038</ele>
        <time>2014-06-21T17:00:25Z</time>
      </trkpt>
      <trkpt lat="47.84755" lon="6.94944">
        <ele>1039</ele>
        <time>2014-06-21T17:00:27Z</time>
      </trkpt>
      <trkpt lat="47.84751" lon="6.94942">
        <ele>1040</ele>
        <time>2014-06-21T17:00:29Z</time>
      </trkpt>
      <trkpt lat="47.84743" lon="6.94927">
        <ele>1052</ele>
        <time>2014-06-21T17:00:39Z</time>
      </trkpt>
      <trkpt lat="47.84744" lon="6.94909">
        <ele>1050</ele>
        <time>2014-06-21T17:00:50Z</time>
      </trkpt>
      <trkpt lat="47.84745" lon="6.94905">
        <ele>1050</ele>
        <time>2014-06-21T17:00:53Z</time>
      </trkpt>
      <trkpt lat="47.84744" lon="6.94885">
        <ele>1049</ele>
        <time>2014-06-21T17:01:03Z</time>
      </trkpt>
      <trkpt lat="47.84743" lon="6.94867">
        <ele>1048</ele>
        <time>2014-06-21T17:01:13Z</time>
      </trkpt>
      <trkpt lat="47.84744" lon="6.94863">
        <ele>1047</ele>
        <time>2014-06-21T17:01:15Z</time>
      </trkpt>
      <trkpt lat="47.84748" lon="6.94843">
        <ele>1046</ele>
        <time>2014-06-21T17:01:26Z</time>
      </trkpt>
      <trkpt lat="47.84746" lon="6.94833">
        <ele>1045</ele>
        <time>2014-06-21T17:01:32Z</time>
      </trkpt>
      <trkpt lat="47.84746" lon="6.94829">
        <ele>1044</ele>
        <time>2014-06-21T17:01:34Z</time>
      </trkpt>
      <trkpt lat="47.84746" lon="6.94824">
        <ele>1044</ele>
        <time>2014-06-21T17:01:36Z</time>
      </trkpt>
      <trkpt lat="47.84749" lon="6.948">
        <ele>1044</ele>
        <time>2014-06-21T17:01:47Z</time>
      </trkpt>
      <trkpt lat="47.84752" lon="6.94799">
        <ele>1039</ele>
        <time>2014-06-21T17:01:51Z</time>
      </trkpt>
      <trkpt lat="47.84769" lon="6.94781">
        <ele>1038</ele>
        <time>2014-06-21T17:02:03Z</time>
      </trkpt>
      <trkpt lat="47.84769" lon="6.94777">
        <ele>1039</ele>
        <time>2014-06-21T17:02:07Z</time>
      </trkpt>
      <trkpt lat="47.84771" lon="6.94771">
        <ele>1039</ele>
        <time>2014-06-21T17:02:10Z</time>
      </trkpt>
      <trkpt lat="47.84779" lon="6.9475">
        <ele>1046</ele>
        <time>2014-06-21T17:02:22Z</time>
      </trkpt>
      <trkpt lat="47.84783" lon="6.94744">
        <ele>1045</ele>
        <time>2014-06-21T17:02:30Z</time>
      </trkpt>
      <trkpt lat="47.84786" lon="6.94718">
        <ele>1046</ele>
        <time>2014-06-21T17:02:41Z</time>
      </trkpt>
      <trkpt lat="47.84786" lon="6.94713">
        <ele>1046</ele>
        <time>2014-06-21T17:02:45Z</time>
      </trkpt>
      <trkpt lat="47.84787" lon="6.94709">
        <ele>1047</ele>
        <time>2014-06-21T17:02:53Z</time>
      </trkpt>
      <trkpt lat="47.84789" lon="6.94679">
        <ele>1049</ele>
        <time>2014-06-21T17:03:02Z</time>
      </trkpt>
      <trkpt lat="47.84791" lon="6.94675">
        <ele>1049</ele>
        <time>2014-06-21T17:03:05Z</time>
      </trkpt>
      <trkpt lat="47.84796" lon="6.94666">
        <ele>1061</ele>
        <time>2014-06-21T17:03:12Z</time>
      </trkpt>
      <trkpt lat="47.84805" lon="6.94645">
        <ele>1062</ele>
        <time>2014-06-21T17:03:21Z</time>
      </trkpt>
      <trkpt lat="47.84806" lon="6.94634">
        <ele>1063</ele>
        <time>2014-06-21T17:03:25Z</time>
      </trkpt>
      <trkpt lat="47.84802" lon="6.94632">
        <ele>1064</ele>
        <time>2014-06-21T17:03:29Z</time>
      </trkpt>
      <trkpt lat="47.84793" lon="6.94635">
        <ele>1065</ele>
        <time>2014-06-21T17:03:33Z</time>
      </trkpt>
      <trkpt lat="47.84789" lon="6.94626">
        <ele>1066</ele>
        <time>2014-06-21T17:03:45Z</time>
      </trkpt>
      <trkpt lat="47.84788" lon="6.9462">
        <ele>1067</ele>
        <time>2014-06-21T17:03:48Z</time>
      </trkpt>
      <trkpt lat="47.84788" lon="6.94616">
        <ele>1068</ele>
        <time>2014-06-21T17:03:50Z</time>
      </trkpt>
      <trkpt lat="47.84781" lon="6.94616">
        <ele>1069</ele>
        <time>2014-06-21T17:04:01Z</time>
      </trkpt>
      <trkpt lat="47.84775" lon="6.94617">
        <ele>1069</ele>
        <time>2014-06-21T17:04:06Z</time>
      </trkpt>
      <trkpt lat="47.84776" lon="6.94613">
        <ele>1070</ele>
        <time>2014-06-21T17:04:23Z</time>
      </trkpt>
      <trkpt lat="47.84776" lon="6.94608">
        <ele>1070</ele>
        <time>2014-06-21T17:04:34Z</time>
      </trkpt>
      <trkpt lat="47.84775" lon="6.94603">
        <ele>1071</ele>
        <time>2014-06-21T17:04:39Z</time>
      </trkpt>
      <trkpt lat="47.8478" lon="6.94587">
        <ele>1073</ele>
        <time>2014-06-21T17:04:52Z</time>
      </trkpt>
      <trkpt lat="47.84785" lon="6.94569">
        <ele>1087</ele>
        <time>2014-06-21T17:05:04Z</time>
      </trkpt>
      <trkpt lat="47.84788" lon="6.94565">
        <ele>1087</ele>
        <time>2014-06-21T17:05:07Z</time>
      </trkpt>
      <trkpt lat="47.8479" lon="6.9456">
        <ele>1087</ele>
        <time>2014-06-21T17:05:10Z</time>
      </trkpt>
      <trkpt lat="47.84796" lon="6.94539">
        <ele>1090</ele>
        <time>2014-06-21T17:05:20Z</time>
      </trkpt>
      <trkpt lat="47.84798" lon="6.94535">
        <ele>1090</ele>
        <time>2014-06-21T17:05:22Z</time>
      </trkpt>
      <trkpt lat="47.848" lon="6.94533">
        <ele>1091</ele>
        <time>2014-06-21T17:05:25Z</time>
      </trkpt>
      <trkpt lat="47.84803" lon="6.94525">
        <ele>1092</ele>
        <time>2014-06-21T17:05:31Z</time>
      </trkpt>
      <trkpt lat="47.84808" lon="6.94515">
        <ele>1094</ele>
        <time>2014-06-21T17:05:43Z</time>
      </trkpt>
      <trkpt lat="47.8481" lon="6.94511">
        <ele>1094</ele>
        <time>2014-06-21T17:05:48Z</time>
      </trkpt>
      <trkpt lat="47.84812" lon="6.94507">
        <ele>1095</ele>
        <time>2014-06-21T17:05:51Z</time>
      </trkpt>
      <trkpt lat="47.84819" lon="6.94492">
        <ele>1106</ele>
        <time>2014-06-21T17:06:02Z</time>
      </trkpt>
      <trkpt lat="47.84822" lon="6.94467">
        <ele>1109</ele>
        <time>2014-06-21T17:06:13Z</time>
      </trkpt>
      <trkpt lat="47.84824" lon="6.94462">
        <ele>1110</ele>
        <time>2014-06-21T17:06:15Z</time>
      </trkpt>
      <trkpt lat="47.84827" lon="6.94457">
        <ele>1111</ele>
        <time>2014-06-21T17:06:17Z</time>
      </trkpt>
      <trkpt lat="47.8483" lon="6.94453">
        <ele>1112</ele>
        <time>2014-06-21T17:06:19Z</time>
      </trkpt>
      <trkpt lat="47.84835" lon="6.94451">
        <ele>1103</ele>
        <time>2014-06-21T17:06:23Z</time>
      </trkpt>
      <trkpt lat="47.84841" lon="6.94452">
        <ele>1102</ele>
        <time>2014-06-21T17:06:28Z</time>
      </trkpt>
      <trkpt lat="47.84848" lon="6.9445">
        <ele>1102</ele>
        <time>2014-06-21T17:06:39Z</time>
      </trkpt>
      <trkpt lat="47.84854" lon="6.94431">
        <ele>1105</ele>
        <time>2014-06-21T17:06:49Z</time>
      </trkpt>
      <trkpt lat="47.84855" lon="6.94426">
        <ele>1106</ele>
        <time>2014-06-21T17:06:52Z</time>
      </trkpt>
      <trkpt lat="47.84864" lon="6.94397">
        <ele>1115</ele>
        <time>2014-06-21T17:07:03Z</time>
      </trkpt>
      <trkpt lat="47.8487" lon="6.94379">
        <ele>1116</ele>
        <time>2014-06-21T17:07:13Z</time>
      </trkpt>
      <trkpt lat="47.84872" lon="6.94377">
        <ele>1116</ele>
        <time>2014-06-21T17:07:15Z</time>
      </trkpt>
      <trkpt lat="47.8488" lon="6.9436">
        <ele>1116</ele>
        <time>2014-06-21T17:07:26Z</time>
      </trkpt>
      <trkpt lat="47.84887" lon="6.94344">
        <ele>1117</ele>
        <time>2014-06-21T17:07:36Z</time>
      </trkpt>
      <trkpt lat="47.84888" lon="6.94339">
        <ele>1117</ele>
        <time>2014-06-21T17:07:40Z</time>
      </trkpt>
      <trkpt lat="47.8489" lon="6.94335">
        <ele>1117</ele>
        <time>2014-06-21T17:07:43Z</time>
      </trkpt>
      <trkpt lat="47.84894" lon="6.94323">
        <ele>1123</ele>
        <time>2014-06-21T17:07:54Z</time>
      </trkpt>
      <trkpt lat="47.84896" lon="6.94319">
        <ele>1123</ele>
        <time>2014-06-21T17:07:58Z</time>
      </trkpt>
      <trkpt lat="47.84903" lon="6.94318">
        <ele>1122</ele>
        <time>2014-06-21T17:08:08Z</time>
      </trkpt>
      <trkpt lat="47.84908" lon="6.94304">
        <ele>1123</ele>
        <time>2014-06-21T17:08:21Z</time>
      </trkpt>
      <trkpt lat="47.8491" lon="6.943">
        <ele>1124</ele>
        <time>2014-06-21T17:08:24Z</time>
      </trkpt>
      <trkpt lat="47.8492" lon="6.94284">
        <ele>1118</ele>
        <time>2014-06-21T17:08:35Z</time>
      </trkpt>
      <trkpt lat="47.84923" lon="6.9428">
        <ele>1119</ele>
        <time>2014-06-21T17:08:37Z</time>
      </trkpt>
      <trkpt lat="47.84928" lon="6.94273">
        <ele>1120</ele>
        <time>2014-06-21T17:08:42Z</time>
      </trkpt>
      <trkpt lat="47.84938" lon="6.94252">
        <ele>1121</ele>
        <time>2014-06-21T17:08:53Z</time>
      </trkpt>
      <trkpt lat="47.84943" lon="6.94248">
        <ele>1132</ele>
        <time>2014-06-21T17:09:01Z</time>
      </trkpt>
      <trkpt lat="47.84953" lon="6.94245">
        <ele>1132</ele>
        <time>2014-06-21T17:09:12Z</time>
      </trkpt>
      <trkpt lat="47.84972" lon="6.94229">
        <ele>1133</ele>
        <time>2014-06-21T17:09:22Z</time>
      </trkpt>
      <trkpt lat="47.84988" lon="6.94228">
        <ele>1132</ele>
        <time>2014-06-21T17:09:35Z</time>
      </trkpt>
      <trkpt lat="47.8499" lon="6.94223">
        <ele>1133</ele>
        <time>2014-06-21T17:09:41Z</time>
      </trkpt>
      <trkpt lat="47.84994" lon="6.94211">
        <ele>1136</ele>
        <time>2014-06-21T17:09:53Z</time>
      </trkpt>
      <trkpt lat="47.84997" lon="6.9421">
        <ele>1136</ele>
        <time>2014-06-21T17:09:55Z</time>
      </trkpt>
      <trkpt lat="47.85002" lon="6.9421">
        <ele>1135</ele>
        <time>2014-06-21T17:09:57Z</time>
      </trkpt>
      <trkpt lat="47.85011" lon="6.94215">
        <ele>1134</ele>
        <time>2014-06-21T17:10:02Z</time>
      </trkpt>
      <trkpt lat="47.85014" lon="6.94214">
        <ele>1134</ele>
        <time>2014-06-21T17:10:04Z</time>
      </trkpt>
      <trkpt lat="47.85019" lon="6.94209">
        <ele>1135</ele>
        <time>2014-06-21T17:10:19Z</time>
      </trkpt>
      <trkpt lat="47.85021" lon="6.94205">
        <ele>1136</ele>
        <time>2014-06-21T17:10:21Z</time>
      </trkpt>
      <trkpt lat="47.85028" lon="6.94204">
        <ele>1136</ele>
        <time>2014-06-21T17:10:36Z</time>
      </trkpt>
      <trkpt lat="47.85031" lon="6.94202">
        <ele>1136</ele>
        <time>2014-06-21T17:10:40Z</time>
      </trkpt>
      <trkpt lat="47.85033" lon="6.94199">
        <ele>1137</ele>
        <time>2014-06-21T17:10:44Z</time>
      </trkpt>
      <trkpt lat="47.85036" lon="6.94197">
        <ele>1137</ele>
        <time>2014-06-21T17:10:54Z</time>
      </trkpt>
      <trkpt lat="47.85037" lon="6.94201">
        <ele>1136</ele>
        <time>2014-06-21T17:11:04Z</time>
      </trkpt>
      <trkpt lat="47.85047" lon="6.94198">
        <ele>1137</ele>
        <time>2014-06-21T17:11:12Z</time>
      </trkpt>
      <trkpt lat="47.85055" lon="6.942">
        <ele>1136</ele>
        <time>2014-06-21T17:11:24Z</time>
      </trkpt>
      <trkpt lat="47.8506" lon="6.94194">
        <ele>1138</ele>
        <time>2014-06-21T17:11:29Z</time>
      </trkpt>
      <trkpt lat="47.8507" lon="6.94191">
        <ele>1139</ele>
        <time>2014-06-21T17:11:40Z</time>
      </trkpt>
      <trkpt lat="47.85073" lon="6.9419">
        <ele>1140</ele>
        <time>2014-06-21T17:11:46Z</time>
      </trkpt>
      <trkpt lat="47.85081" lon="6.94183">
        <ele>1143</ele>
        <time>2014-06-21T17:11:56Z</time>
      </trkpt>
      <trkpt lat="47.8509" lon="6.94171">
        <ele>1144</ele>
        <time>2014-06-21T17:12:06Z</time>
      </trkpt>
      <trkpt lat="47.85091" lon="6.94165">
        <ele>1152</ele>
        <time>2014-06-21T17:12:09Z</time>
      </trkpt>
      <trkpt lat="47.85101" lon="6.94143">
        <ele>1153</ele>
        <time>2014-06-21T17:12:19Z</time>
      </trkpt>
      <trkpt lat="47.85104" lon="6.9414">
        <ele>1154</ele>
        <time>2014-06-21T17:12:21Z</time>
      </trkpt>
      <trkpt lat="47.85119" lon="6.94143">
        <ele>1151</ele>
        <time>2014-06-21T17:12:31Z</time>
      </trkpt>
      <trkpt lat="47.85116" lon="6.94143">
        <ele>1152</ele>
        <time>2014-06-21T17:12:40Z</time>
      </trkpt>
      <trkpt lat="47.85125" lon="6.94122">
        <ele>1154</ele>
        <time>2014-06-21T17:12:50Z</time>
      </trkpt>
      <trkpt lat="47.85136" lon="6.9412">
        <ele>1153</ele>
        <time>2014-06-21T17:12:55Z</time>
      </trkpt>
      <trkpt lat="47.8513" lon="6.94108">
        <ele>1155</ele>
        <time>2014-06-21T17:13:07Z</time>
      </trkpt>
      <trkpt lat="47.85136" lon="6.94093">
        <ele>1156</ele>
        <time>2014-06-21T17:13:18Z</time>
      </trkpt>
      <trkpt lat="47.85133" lon="6.94084">
        <ele>1157</ele>
        <time>2014-06-21T17:13:23Z</time>
      </trkpt>
      <trkpt lat="47.85148" lon="6.94074">
        <ele>1166</ele>
        <time>2014-06-21T17:13:34Z</time>
      </trkpt>
      <trkpt lat="47.85155" lon="6.9408">
        <ele>1163</ele>
        <time>2014-06-21T17:13:43Z</time>
      </trkpt>
      <trkpt lat="47.85157" lon="6.94077">
        <ele>1163</ele>
        <time>2014-06-21T17:13:57Z</time>
      </trkpt>
      <trkpt lat="47.85159" lon="6.94074">
        <ele>1163</ele>
        <time>2014-06-21T17:14:01Z</time>
      </trkpt>
      <trkpt lat="47.85158" lon="6.9407">
        <ele>1164</ele>
        <time>2014-06-21T17:14:07Z</time>
      </trkpt>
      <trkpt lat="47.85158" lon="6.94065">
        <ele>1166</ele>
        <time>2014-06-21T17:14:10Z</time>
      </trkpt>
      <trkpt lat="47.8516" lon="6.9406">
        <ele>1167</ele>
        <time>2014-06-21T17:14:13Z</time>
      </trkpt>
      <trkpt lat="47.85164" lon="6.9405">
        <ele>1169</ele>
        <time>2014-06-21T17:14:19Z</time>
      </trkpt>
      <trkpt lat="47.85172" lon="6.9403">
        <ele>1159</ele>
        <time>2014-06-21T17:14:31Z</time>
      </trkpt>
      <trkpt lat="47.8517" lon="6.94004">
        <ele>1170</ele>
        <time>2014-06-21T17:14:41Z</time>
      </trkpt>
      <trkpt lat="47.85189" lon="6.93988">
        <ele>1164</ele>
        <time>2014-06-21T17:14:52Z</time>
      </trkpt>
      <trkpt lat="47.85187" lon="6.93967">
        <ele>1163</ele>
        <time>2014-06-21T17:15:02Z</time>
      </trkpt>
      <trkpt lat="47.85186" lon="6.93957">
        <ele>1163</ele>
        <time>2014-06-21T17:15:06Z</time>
      </trkpt>
      <trkpt lat="47.85185" lon="6.93953">
        <ele>1164</ele>
        <time>2014-06-21T17:15:08Z</time>
      </trkpt>
      <trkpt lat="47.85181" lon="6.93932">
        <ele>1167</ele>
        <time>2014-06-21T17:15:20Z</time>
      </trkpt>
      <trkpt lat="47.85171" lon="6.93918">
        <ele>1173</ele>
        <time>2014-06-21T17:15:31Z</time>
      </trkpt>
      <trkpt lat="47.85168" lon="6.93911">
        <ele>1172</ele>
        <time>2014-06-21T17:15:33Z</time>
      </trkpt>
      <trkpt lat="47.85164" lon="6.93906">
        <ele>1176</ele>
        <time>2014-06-21T17:15:35Z</time>
      </trkpt>
      <trkpt lat="47.85145" lon="6.93877">
        <ele>1176</ele>
        <time>2014-06-21T17:15:46Z</time>
      </trkpt>
      <trkpt lat="47.85142" lon="6.93871">
        <ele>1176</ele>
        <time>2014-06-21T17:15:48Z</time>
      </trkpt>
      <trkpt lat="47.85141" lon="6.93853">
        <ele>1175</ele>
        <time>2014-06-21T17:15:57Z</time>
      </trkpt>
      <trkpt lat="47.85137" lon="6.93846">
        <ele>1175</ele>
        <time>2014-06-21T17:16:01Z</time>
      </trkpt>
      <trkpt lat="47.85132" lon="6.93834">
        <ele>1175</ele>
        <time>2014-06-21T17:16:11Z</time>
      </trkpt>
      <trkpt lat="47.85131" lon="6.93828">
        <ele>1171</ele>
        <time>2014-06-21T17:16:14Z</time>
      </trkpt>
      <trkpt lat="47.85128" lon="6.93825">
        <ele>1171</ele>
        <time>2014-06-21T17:16:16Z</time>
      </trkpt>
      <trkpt lat="47.85125" lon="6.93823">
        <ele>1172</ele>
        <time>2014-06-21T17:16:17Z</time>
      </trkpt>
      <trkpt lat="47.8512" lon="6.9382">
        <ele>1172</ele>
        <time>2014-06-21T17:16:19Z</time>
      </trkpt>
      <trkpt lat="47.8511" lon="6.93814">
        <ele>1173</ele>
        <time>2014-06-21T17:16:31Z</time>
      </trkpt>
      <trkpt lat="47.85096" lon="6.93785">
        <ele>1174</ele>
        <time>2014-06-21T17:16:41Z</time>
      </trkpt>
      <trkpt lat="47.85093" lon="6.93774">
        <ele>1174</ele>
        <time>2014-06-21T17:16:45Z</time>
      </trkpt>
      <trkpt lat="47.85091" lon="6.93771">
        <ele>1175</ele>
        <time>2014-06-21T17:16:46Z</time>
      </trkpt>
      <trkpt lat="47.85087" lon="6.93764">
        <ele>1176</ele>
        <time>2014-06-21T17:16:48Z</time>
      </trkpt>
      <trkpt lat="47.85085" lon="6.9376">
        <ele>1177</ele>
        <time>2014-06-21T17:16:50Z</time>
      </trkpt>
      <trkpt lat="47.85074" lon="6.93735">
        <ele>1178</ele>
        <time>2014-06-21T17:17:00Z</time>
      </trkpt>
      <trkpt lat="47.85073" lon="6.9373">
        <ele>1177</ele>
        <time>2014-06-21T17:17:03Z</time>
      </trkpt>
      <trkpt lat="47.85066" lon="6.93717">
        <ele>1176</ele>
        <time>2014-06-21T17:17:16Z</time>
      </trkpt>
      <trkpt lat="47.8506" lon="6.93702">
        <ele>1176</ele>
        <time>2014-06-21T17:17:26Z</time>
      </trkpt>
      <trkpt lat="47.85057" lon="6.93698">
        <ele>1176</ele>
        <time>2014-06-21T17:17:28Z</time>
      </trkpt>
      <trkpt lat="47.85045" lon="6.9368">
        <ele>1176</ele>
        <time>2014-06-21T17:17:36Z</time>
      </trkpt>
      <trkpt lat="47.85041" lon="6.9367">
        <ele>1176</ele>
        <time>2014-06-21T17:17:41Z</time>
      </trkpt>
      <trkpt lat="47.85038" lon="6.93665">
        <ele>1174</ele>
        <time>2014-06-21T17:17:42Z</time>
      </trkpt>
      <trkpt lat="47.85024" lon="6.93641">
        <ele>1174</ele>
        <time>2014-06-21T17:17:52Z</time>
      </trkpt>
      <trkpt lat="47.8501" lon="6.93617">
        <ele>1174</ele>
        <time>2014-06-21T17:18:04Z</time>
      </trkpt>
      <trkpt lat="47.85007" lon="6.93612">
        <ele>1174</ele>
        <time>2014-06-21T17:18:06Z</time>
      </trkpt>
      <trkpt lat="47.84992" lon="6.9359">
        <ele>1173</ele>
        <time>2014-06-21T17:18:16Z</time>
      </trkpt>
      <trkpt lat="47.8499" lon="6.93588">
        <ele>1173</ele>
        <time>2014-06-21T17:18:17Z</time>
      </trkpt>
      <trkpt lat="47.84985" lon="6.93569">
        <ele>1173</ele>
        <time>2014-06-21T17:18:27Z</time>
      </trkpt>
      <trkpt lat="47.84981" lon="6.93551">
        <ele>1172</ele>
        <time>2014-06-21T17:18:38Z</time>
      </trkpt>
      <trkpt lat="47.84979" lon="6.93548">
        <ele>1171</ele>
        <time>2014-06-21T17:18:40Z</time>
      </trkpt>
      <trkpt lat="47.8497" lon="6.93532">
        <ele>1171</ele>
        <time>2014-06-21T17:18:52Z</time>
      </trkpt>
      <trkpt lat="47.84968" lon="6.93512">
        <ele>1171</ele>
        <time>2014-06-21T17:19:02Z</time>
      </trkpt>
      <trkpt lat="47.84966" lon="6.93507">
        <ele>1171</ele>
        <time>2014-06-21T17:19:05Z</time>
      </trkpt>
      <trkpt lat="47.84964" lon="6.93503">
        <ele>1171</ele>
        <time>2014-06-21T17:19:08Z</time>
      </trkpt>
      <trkpt lat="47.84958" lon="6.93493">
        <ele>1170</ele>
        <time>2014-06-21T17:19:15Z</time>
      </trkpt>
      <trkpt lat="47.84952" lon="6.9348">
        <ele>1171</ele>
        <time>2014-06-21T17:19:19Z</time>
      </trkpt>
      <trkpt lat="47.84947" lon="6.93467">
        <ele>1171</ele>
        <time>2014-06-21T17:19:22Z</time>
      </trkpt>
      <trkpt lat="47.8494" lon="6.93442">
        <ele>1171</ele>
        <time>2014-06-21T17:19:34Z</time>
      </trkpt>
      <trkpt lat="47.84934" lon="6.93419">
        <ele>1174</ele>
        <time>2014-06-21T17:19:45Z</time>
      </trkpt>
      <trkpt lat="47.8493" lon="6.93392">
        <ele>1169</ele>
        <time>2014-06-21T17:19:56Z</time>
      </trkpt>
      <trkpt lat="47.84933" lon="6.93389">
        <ele>1168</ele>
        <time>2014-06-21T17:19:58Z</time>
      </trkpt>
      <trkpt lat="47.8493" lon="6.93362">
        <ele>1168</ele>
        <time>2014-06-21T17:20:08Z</time>
      </trkpt>
      <trkpt lat="47.84926" lon="6.93345">
        <ele>1170</ele>
        <time>2014-06-21T17:20:20Z</time>
      </trkpt>
      <trkpt lat="47.84924" lon="6.93339">
        <ele>1173</ele>
        <time>2014-06-21T17:20:22Z</time>
      </trkpt>
      <trkpt lat="47.84919" lon="6.93314">
        <ele>1165</ele>
        <time>2014-06-21T17:20:32Z</time>
      </trkpt>
      <trkpt lat="47.84921" lon="6.93302">
        <ele>1162</ele>
        <time>2014-06-21T17:20:39Z</time>
      </trkpt>
      <trkpt lat="47.84918" lon="6.93296">
        <ele>1161</ele>
        <time>2014-06-21T17:20:47Z</time>
      </trkpt>
      <trkpt lat="47.8489" lon="6.93245">
        <ele>1168</ele>
        <time>2014-06-21T17:20:58Z</time>
      </trkpt>
      <trkpt lat="47.84892" lon="6.93242">
        <ele>1168</ele>
        <time>2014-06-21T17:21:00Z</time>
      </trkpt>
      <trkpt lat="47.84886" lon="6.93224">
        <ele>1167</ele>
        <time>2014-06-21T17:21:08Z</time>
      </trkpt>
      <trkpt lat="47.84887" lon="6.93201">
        <ele>1165</ele>
        <time>2014-06-21T17:21:18Z</time>
      </trkpt>
      <trkpt lat="47.84884" lon="6.93185">
        <ele>1163</ele>
        <time>2014-06-21T17:21:24Z</time>
      </trkpt>
      <trkpt lat="47.8488" lon="6.93167">
        <ele>1163</ele>
        <time>2014-06-21T17:21:36Z</time>
      </trkpt>
      <trkpt lat="47.84878" lon="6.93162">
        <ele>1153</ele>
        <time>2014-06-21T17:21:38Z</time>
      </trkpt>
      <trkpt lat="47.84872" lon="6.93147">
        <ele>1153</ele>
        <time>2014-06-21T17:21:43Z</time>
      </trkpt>
      <trkpt lat="47.84864" lon="6.93126">
        <ele>1151</ele>
        <time>2014-06-21T17:21:51Z</time>
      </trkpt>
      <trkpt lat="47.84862" lon="6.93123">
        <ele>1151</ele>
        <time>2014-06-21T17:21:52Z</time>
      </trkpt>
      <trkpt lat="47.8486" lon="6.93119">
        <ele>1151</ele>
        <time>2014-06-21T17:21:53Z</time>
      </trkpt>
      <trkpt lat="47.84848" lon="6.93097">
        <ele>1150</ele>
        <time>2014-06-21T17:22:04Z</time>
      </trkpt>
      <trkpt lat="47.84846" lon="6.93093">
        <ele>1150</ele>
        <time>2014-06-21T17:22:06Z</time>
      </trkpt>
      <trkpt lat="47.84839" lon="6.93084">
        <ele>1151</ele>
        <time>2014-06-21T17:22:10Z</time>
      </trkpt>
      <trkpt lat="47.84836" lon="6.93081">
        <ele>1149</ele>
        <time>2014-06-21T17:22:13Z</time>
      </trkpt>
      <trkpt lat="47.84832" lon="6.93074">
        <ele>1147</ele>
        <time>2014-06-21T17:22:19Z</time>
      </trkpt>
      <trkpt lat="47.84825" lon="6.93057">
        <ele>1143</ele>
        <time>2014-06-21T17:22:29Z</time>
      </trkpt>
      <trkpt lat="47.84823" lon="6.93052">
        <ele>1142</ele>
        <time>2014-06-21T17:22:31Z</time>
      </trkpt>
      <trkpt lat="47.8482" lon="6.93025">
        <ele>1139</ele>
        <time>2014-06-21T17:22:39Z</time>
      </trkpt>
      <trkpt lat="47.84822" lon="6.93015">
        <ele>1138</ele>
        <time>2014-06-21T17:22:43Z</time>
      </trkpt>
      <trkpt lat="47.84832" lon="6.92996">
        <ele>1136</ele>
        <time>2014-06-21T17:22:53Z</time>
      </trkpt>
      <trkpt lat="47.84841" lon="6.92974">
        <ele>1127</ele>
        <time>2014-06-21T17:23:03Z</time>
      </trkpt>
      <trkpt lat="47.84846" lon="6.92957">
        <ele>1125</ele>
        <time>2014-06-21T17:23:13Z</time>
      </trkpt>
      <trkpt lat="47.84855" lon="6.92933">
        <ele>1123</ele>
        <time>2014-06-21T17:23:23Z</time>
      </trkpt>
      <trkpt lat="47.84848" lon="6.92905">
        <ele>1120</ele>
        <time>2014-06-21T17:23:34Z</time>
      </trkpt>
      <trkpt lat="47.84855" lon="6.92879">
        <ele>1116</ele>
        <time>2014-06-21T17:23:44Z</time>
      </trkpt>
      <trkpt lat="47.84855" lon="6.92868">
        <ele>1115</ele>
        <time>2014-06-21T17:23:48Z</time>
      </trkpt>
      <trkpt lat="47.84855" lon="6.92857">
        <ele>1115</ele>
        <time>2014-06-21T17:23:52Z</time>
      </trkpt>
      <trkpt lat="47.84856" lon="6.92853">
        <ele>1114</ele>
        <time>2014-06-21T17:23:54Z</time>
      </trkpt>
      <trkpt lat="47.84848" lon="6.92828">
        <ele>1110</ele>
        <time>2014-06-21T17:24:06Z</time>
      </trkpt>
      <trkpt lat="47.84847" lon="6.92819">
        <ele>1108</ele>
        <time>2014-06-21T17:24:12Z</time>
      </trkpt>
      <trkpt lat="47.84848" lon="6.92797">
        <ele>1105</ele>
        <time>2014-06-21T17:24:22Z</time>
      </trkpt>
      <trkpt lat="47.8485" lon="6.92789">
        <ele>1103</ele>
        <time>2014-06-21T17:24:26Z</time>
      </trkpt>
      <trkpt lat="47.84854" lon="6.92776">
        <ele>1102</ele>
        <time>2014-06-21T17:24:33Z</time>
      </trkpt>
      <trkpt lat="47.84853" lon="6.92772">
        <ele>1102</ele>
        <time>2014-06-21T17:24:35Z</time>
      </trkpt>
      <trkpt lat="47.84844" lon="6.92756">
        <ele>1103</ele>
        <time>2014-06-21T17:24:45Z</time>
      </trkpt>
      <trkpt lat="47.84843" lon="6.92735">
        <ele>1097</ele>
        <time>2014-06-21T17:24:55Z</time>
      </trkpt>
      <trkpt lat="47.84847" lon="6.92727">
        <ele>1094</ele>
        <time>2014-06-21T17:25:00Z</time>
      </trkpt>
      <trkpt lat="47.84849" lon="6.92721">
        <ele>1093</ele>
        <time>2014-06-21T17:25:02Z</time>
      </trkpt>
      <trkpt lat="47.84846" lon="6.92691">
        <ele>1093</ele>
        <time>2014-06-21T17:25:12Z</time>
      </trkpt>
      <trkpt lat="47.84851" lon="6.92655">
        <ele>1089</ele>
        <time>2014-06-21T17:25:25Z</time>
      </trkpt>
      <trkpt lat="47.84852" lon="6.9265">
        <ele>1088</ele>
        <time>2014-06-21T17:25:27Z</time>
      </trkpt>
      <trkpt lat="47.84853" lon="6.92643">
        <ele>1086</ele>
        <time>2014-06-21T17:25:29Z</time>
      </trkpt>
      <trkpt lat="47.84856" lon="6.92636">
        <ele>1085</ele>
        <time>2014-06-21T17:25:33Z</time>
      </trkpt>
      <trkpt lat="47.84858" lon="6.92622">
        <ele>1084</ele>
        <time>2014-06-21T17:25:43Z</time>
      </trkpt>
      <trkpt lat="47.8486" lon="6.92591">
        <ele>1084</ele>
        <time>2014-06-21T17:25:52Z</time>
      </trkpt>
      <trkpt lat="47.8486" lon="6.92585">
        <ele>1084</ele>
        <time>2014-06-21T17:25:54Z</time>
      </trkpt>
      <trkpt lat="47.84861" lon="6.92579">
        <ele>1081</ele>
        <time>2014-06-21T17:25:56Z</time>
      </trkpt>
      <trkpt lat="47.84862" lon="6.92574">
        <ele>1080</ele>
        <time>2014-06-21T17:25:58Z</time>
      </trkpt>
      <trkpt lat="47.84864" lon="6.92564">
        <ele>1079</ele>
        <time>2014-06-21T17:26:03Z</time>
      </trkpt>
      <trkpt lat="47.84855" lon="6.92548">
        <ele>1078</ele>
        <time>2014-06-21T17:26:13Z</time>
      </trkpt>
      <trkpt lat="47.84852" lon="6.92544">
        <ele>1078</ele>
        <time>2014-06-21T17:26:16Z</time>
      </trkpt>
      <trkpt lat="47.84833" lon="6.92531">
        <ele>1074</ele>
        <time>2014-06-21T17:26:27Z</time>
      </trkpt>
      <trkpt lat="47.84836" lon="6.92517">
        <ele>1074</ele>
        <time>2014-06-21T17:26:37Z</time>
      </trkpt>
      <trkpt lat="47.84847" lon="6.92513">
        <ele>1074</ele>
        <time>2014-06-21T17:27:05Z</time>
      </trkpt>
      <trkpt lat="47.84856" lon="6.92508">
        <ele>1074</ele>
        <time>2014-06-21T17:27:08Z</time>
      </trkpt>
      <trkpt lat="47.84871" lon="6.92483">
        <ele>1073</ele>
        <time>2014-06-21T17:27:19Z</time>
      </trkpt>
      <trkpt lat="47.84871" lon="6.92477">
        <ele>1073</ele>
        <time>2014-06-21T17:27:21Z</time>
      </trkpt>
      <trkpt lat="47.8487" lon="6.92471">
        <ele>1072</ele>
        <time>2014-06-21T17:27:23Z</time>
      </trkpt>
      <trkpt lat="47.84871" lon="6.92462">
        <ele>1072</ele>
        <time>2014-06-21T17:27:28Z</time>
      </trkpt>
      <trkpt lat="47.84881" lon="6.92467">
        <ele>1074</ele>
        <time>2014-06-21T17:27:38Z</time>
      </trkpt>
      <trkpt lat="47.84891" lon="6.92468">
        <ele>1075</ele>
        <time>2014-06-21T17:27:47Z</time>
      </trkpt>
      <trkpt lat="47.84894" lon="6.92469">
        <ele>1075</ele>
        <time>2014-06-21T17:27:49Z</time>
      </trkpt>
      <trkpt lat="47.84895" lon="6.9246">
        <ele>1076</ele>
        <time>2014-06-21T17:28:02Z</time>
      </trkpt>
      <trkpt lat="47.84907" lon="6.92463">
        <ele>1076</ele>
        <time>2014-06-21T17:28:12Z</time>
      </trkpt>
      <trkpt lat="47.8491" lon="6.92464">
        <ele>1076</ele>
        <time>2014-06-21T17:28:14Z</time>
      </trkpt>
      <trkpt lat="47.84925" lon="6.92462">
        <ele>1089</ele>
        <time>2014-06-21T17:28:25Z</time>
      </trkpt>
      <trkpt lat="47.84932" lon="6.92461">
        <ele>1090</ele>
        <time>2014-06-21T17:28:29Z</time>
      </trkpt>
      <trkpt lat="47.84935" lon="6.92457">
        <ele>1091</ele>
        <time>2014-06-21T17:28:31Z</time>
      </trkpt>
      <trkpt lat="47.84936" lon="6.92454">
        <ele>1091</ele>
        <time>2014-06-21T17:28:36Z</time>
      </trkpt>
      <trkpt lat="47.84942" lon="6.92449">
        <ele>1092</ele>
        <time>2014-06-21T17:28:41Z</time>
      </trkpt>
      <trkpt lat="47.8495" lon="6.92446">
        <ele>1094</ele>
        <time>2014-06-21T17:28:51Z</time>
      </trkpt>
      <trkpt lat="47.84971" lon="6.92448">
        <ele>1096</ele>
        <time>2014-06-21T17:29:05Z</time>
      </trkpt>
      <trkpt lat="47.84972" lon="6.92452">
        <ele>1095</ele>
        <time>2014-06-21T17:29:11Z</time>
      </trkpt>
      <trkpt lat="47.84988" lon="6.92439">
        <ele>1101</ele>
        <time>2014-06-21T17:29:23Z</time>
      </trkpt>
      <trkpt lat="47.85001" lon="6.92422">
        <ele>1114</ele>
        <time>2014-06-21T17:29:37Z</time>
      </trkpt>
      <trkpt lat="47.85004" lon="6.9242">
        <ele>1114</ele>
        <time>2014-06-21T17:29:40Z</time>
      </trkpt>
      <trkpt lat="47.85025" lon="6.92417">
        <ele>1121</ele>
        <time>2014-06-21T17:29:50Z</time>
      </trkpt>
      <trkpt lat="47.8503" lon="6.92416">
        <ele>1121</ele>
        <time>2014-06-21T17:29:52Z</time>
      </trkpt>
      <trkpt lat="47.85042" lon="6.92403">
        <ele>1121</ele>
        <time>2014-06-21T17:30:04Z</time>
      </trkpt>
      <trkpt lat="47.85048" lon="6.92395">
        <ele>1121</ele>
        <time>2014-06-21T17:30:11Z</time>
      </trkpt>
      <trkpt lat="47.85051" lon="6.92393">
        <ele>1121</ele>
        <time>2014-06-21T17:30:13Z</time>
      </trkpt>
      <trkpt lat="47.85065" lon="6.92385">
        <ele>1121</ele>
        <time>2014-06-21T17:30:22Z</time>
      </trkpt>
      <trkpt lat="47.8508" lon="6.92377">
        <ele>1123</ele>
        <time>2014-06-21T17:30:33Z</time>
      </trkpt>
      <trkpt lat="47.85088" lon="6.92373">
        <ele>1108</ele>
        <time>2014-06-21T17:30:37Z</time>
      </trkpt>
      <trkpt lat="47.85091" lon="6.92372">
        <ele>1108</ele>
        <time>2014-06-21T17:30:39Z</time>
      </trkpt>
      <trkpt lat="47.85094" lon="6.92369">
        <ele>1109</ele>
        <time>2014-06-21T17:30:43Z</time>
      </trkpt>
      <trkpt lat="47.85103" lon="6.92349">
        <ele>1116</ele>
        <time>2014-06-21T17:30:54Z</time>
      </trkpt>
      <trkpt lat="47.85106" lon="6.92348">
        <ele>1115</ele>
        <time>2014-06-21T17:30:57Z</time>
      </trkpt>
      <trkpt lat="47.85113" lon="6.92344">
        <ele>1113</ele>
        <time>2014-06-21T17:31:01Z</time>
      </trkpt>
      <trkpt lat="47.85124" lon="6.92333">
        <ele>1136</ele>
        <time>2014-06-21T17:31:11Z</time>
      </trkpt>
      <trkpt lat="47.85142" lon="6.92324">
        <ele>1130</ele>
        <time>2014-06-21T17:31:20Z</time>
      </trkpt>
      <trkpt lat="47.85155" lon="6.92318">
        <ele>1126</ele>
        <time>2014-06-21T17:31:27Z</time>
      </trkpt>
      <trkpt lat="47.85163" lon="6.92301">
        <ele>1133</ele>
        <time>2014-06-21T17:31:38Z</time>
      </trkpt>
      <trkpt lat="47.85167" lon="6.92302">
        <ele>1114</ele>
        <time>2014-06-21T17:31:39Z</time>
      </trkpt>
      <trkpt lat="47.85177" lon="6.92297">
        <ele>1115</ele>
        <time>2014-06-21T17:31:45Z</time>
      </trkpt>
      <trkpt lat="47.8518" lon="6.92294">
        <ele>1116</ele>
        <time>2014-06-21T17:31:47Z</time>
      </trkpt>
      <trkpt lat="47.85184" lon="6.92285">
        <ele>1118</ele>
        <time>2014-06-21T17:31:51Z</time>
      </trkpt>
      <trkpt lat="47.85197" lon="6.92289">
        <ele>1114</ele>
        <time>2014-06-21T17:32:02Z</time>
      </trkpt>
      <trkpt lat="47.85206" lon="6.92286">
        <ele>1113</ele>
        <time>2014-06-21T17:32:06Z</time>
      </trkpt>
      <trkpt lat="47.85214" lon="6.92282">
        <ele>1113</ele>
        <time>2014-06-21T17:32:10Z</time>
      </trkpt>
      <trkpt lat="47.85222" lon="6.92273">
        <ele>1113</ele>
        <time>2014-06-21T17:32:18Z</time>
      </trkpt>
      <trkpt lat="47.85234" lon="6.92258">
        <ele>1114</ele>
        <time>2014-06-21T17:32:28Z</time>
      </trkpt>
      <trkpt lat="47.85248" lon="6.9225">
        <ele>1118</ele>
        <time>2014-06-21T17:32:38Z</time>
      </trkpt>
      <trkpt lat="47.85249" lon="6.92245">
        <ele>1121</ele>
        <time>2014-06-21T17:32:42Z</time>
      </trkpt>
      <trkpt lat="47.85258" lon="6.92227">
        <ele>1104</ele>
        <time>2014-06-21T17:32:52Z</time>
      </trkpt>
      <trkpt lat="47.85256" lon="6.92201">
        <ele>1106</ele>
        <time>2014-06-21T17:33:04Z</time>
      </trkpt>
      <trkpt lat="47.85253" lon="6.9219">
        <ele>1110</ele>
        <time>2014-06-21T17:33:09Z</time>
      </trkpt>
      <trkpt lat="47.85256" lon="6.92168">
        <ele>1122</ele>
        <time>2014-06-21T17:33:20Z</time>
      </trkpt>
      <trkpt lat="47.85262" lon="6.92146">
        <ele>1117</ele>
        <time>2014-06-21T17:33:30Z</time>
      </trkpt>
      <trkpt lat="47.8527" lon="6.9212">
        <ele>1116</ele>
        <time>2014-06-21T17:33:40Z</time>
      </trkpt>
      <trkpt lat="47.85273" lon="6.92094">
        <ele>1119</ele>
        <time>2014-06-21T17:33:48Z</time>
      </trkpt>
      <trkpt lat="47.85279" lon="6.92089">
        <ele>1117</ele>
        <time>2014-06-21T17:33:50Z</time>
      </trkpt>
      <trkpt lat="47.85281" lon="6.92087">
        <ele>1116</ele>
        <time>2014-06-21T17:33:51Z</time>
      </trkpt>
      <trkpt lat="47.85287" lon="6.92083">
        <ele>1126</ele>
        <time>2014-06-21T17:33:53Z</time>
      </trkpt>
      <trkpt lat="47.85289" lon="6.92079">
        <ele>1125</ele>
        <time>2014-06-21T17:33:55Z</time>
      </trkpt>
      <trkpt lat="47.8529" lon="6.92075">
        <ele>1125</ele>
        <time>2014-06-21T17:33:57Z</time>
      </trkpt>
      <trkpt lat="47.85291" lon="6.9207">
        <ele>1125</ele>
        <time>2014-06-21T17:34:00Z</time>
      </trkpt>
      <trkpt lat="47.85293" lon="6.92067">
        <ele>1124</ele>
        <time>2014-06-21T17:34:04Z</time>
      </trkpt>
      <trkpt lat="47.85305" lon="6.92051">
        <ele>1123</ele>
        <time>2014-06-21T17:34:16Z</time>
      </trkpt>
      <trkpt lat="47.85309" lon="6.92048">
        <ele>1123</ele>
        <time>2014-06-21T17:34:20Z</time>
      </trkpt>
      <trkpt lat="47.85318" lon="6.92041">
        <ele>1122</ele>
        <time>2014-06-21T17:34:27Z</time>
      </trkpt>
      <trkpt lat="47.85327" lon="6.92036">
        <ele>1121</ele>
        <time>2014-06-21T17:34:36Z</time>
      </trkpt>
      <trkpt lat="47.85348" lon="6.92025">
        <ele>1095</ele>
        <time>2014-06-21T17:34:48Z</time>
      </trkpt>
      <trkpt lat="47.8535" lon="6.92021">
        <ele>1096</ele>
        <time>2014-06-21T17:34:50Z</time>
      </trkpt>
      <trkpt lat="47.85352" lon="6.92018">
        <ele>1097</ele>
        <time>2014-06-21T17:34:52Z</time>
      </trkpt>
      <trkpt lat="47.85361" lon="6.91997">
        <ele>1113</ele>
        <time>2014-06-21T17:35:03Z</time>
      </trkpt>
      <trkpt lat="47.85374" lon="6.91989">
        <ele>1110</ele>
        <time>2014-06-21T17:35:15Z</time>
      </trkpt>
      <trkpt lat="47.85397" lon="6.91987">
        <ele>1101</ele>
        <time>2014-06-21T17:35:25Z</time>
      </trkpt>
      <trkpt lat="47.85402" lon="6.91985">
        <ele>1100</ele>
        <time>2014-06-21T17:35:27Z</time>
      </trkpt>
      <trkpt lat="47.85414" lon="6.9196">
        <ele>1107</ele>
        <time>2014-06-21T17:35:37Z</time>
      </trkpt>
      <trkpt lat="47.85419" lon="6.91952">
        <ele>1087</ele>
        <time>2014-06-21T17:35:41Z</time>
      </trkpt>
      <trkpt lat="47.85424" lon="6.91944">
        <ele>1089</ele>
        <time>2014-06-21T17:35:45Z</time>
      </trkpt>
      <trkpt lat="47.85428" lon="6.91941">
        <ele>1089</ele>
        <time>2014-06-21T17:35:47Z</time>
      </trkpt>
      <trkpt lat="47.85438" lon="6.91923">
        <ele>1092</ele>
        <time>2014-06-21T17:35:58Z</time>
      </trkpt>
      <trkpt lat="47.85439" lon="6.91897">
        <ele>1101</ele>
        <time>2014-06-21T17:36:09Z</time>
      </trkpt>
      <trkpt lat="47.85453" lon="6.91881">
        <ele>1099</ele>
        <time>2014-06-21T17:36:20Z</time>
      </trkpt>
      <trkpt lat="47.8545" lon="6.91855">
        <ele>1100</ele>
        <time>2014-06-21T17:36:32Z</time>
      </trkpt>
      <trkpt lat="47.85448" lon="6.91851">
        <ele>1101</ele>
        <time>2014-06-21T17:36:33Z</time>
      </trkpt>
      <trkpt lat="47.85472" lon="6.91834">
        <ele>1097</ele>
        <time>2014-06-21T17:36:40Z</time>
      </trkpt>
      <trkpt lat="47.85471" lon="6.91829">
        <ele>1097</ele>
        <time>2014-06-21T17:36:43Z</time>
      </trkpt>
      <trkpt lat="47.85473" lon="6.91824">
        <ele>1096</ele>
        <time>2014-06-21T17:36:46Z</time>
      </trkpt>
      <trkpt lat="47.85475" lon="6.91821">
        <ele>1096</ele>
        <time>2014-06-21T17:36:51Z</time>
      </trkpt>
      <trkpt lat="47.85482" lon="6.91828">
        <ele>1095</ele>
        <time>2014-06-21T17:37:03Z</time>
      </trkpt>
      <trkpt lat="47.85482" lon="6.91832">
        <ele>1094</ele>
        <time>2014-06-21T17:37:05Z</time>
      </trkpt>
      <trkpt lat="47.85485" lon="6.91842">
        <ele>1094</ele>
        <time>2014-06-21T17:37:10Z</time>
      </trkpt>
      <trkpt lat="47.85488" lon="6.91849">
        <ele>1094</ele>
        <time>2014-06-21T17:37:24Z</time>
      </trkpt>
      <trkpt lat="47.85486" lon="6.91846">
        <ele>1094</ele>
        <time>2014-06-21T17:38:58Z</time>
      </trkpt>
      <trkpt lat="47.85485" lon="6.91842">
        <ele>1094</ele>
        <time>2014-06-21T17:40:52Z</time>
      </trkpt>
      <trkpt lat="47.85484" lon="6.91843">
        <ele>1094</ele>
        <time>2014-06-21T18:09:22Z</time>
      </trkpt>
      <trkpt lat="47.85486" lon="6.9184">
        <ele>1094</ele>
        <time>2014-06-21T18:22:29Z</time>
      </trkpt>
      <trkpt lat="47.85489" lon="6.91837">
        <ele>1093</ele>
        <time>2014-06-21T18:23:08Z</time>
      </trkpt>
      <trkpt lat="47.85489" lon="6.91829">
        <ele>1093</ele>
        <time>2014-06-21T18:23:20Z</time>
      </trkpt>
      <trkpt lat="47.85488" lon="6.9181">
        <ele>1095</ele>
        <time>2014-06-21T18:23:30Z</time>
      </trkpt>
      <trkpt lat="47.85488" lon="6.91791">
        <ele>1095</ele>
        <time>2014-06-21T18:23:40Z</time>
      </trkpt>
      <trkpt lat="47.85484" lon="6.91774">
        <ele>1094</ele>
        <time>2014-06-21T18:23:52Z</time>
      </trkpt>
      <trkpt lat="47.85478" lon="6.91755">
        <ele>1093</ele>
        <time>2014-06-21T18:24:04Z</time>
      </trkpt>
      <trkpt lat="47.8547" lon="6.91745">
        <ele>1091</ele>
        <time>2014-06-21T18:24:15Z</time>
      </trkpt>
      <trkpt lat="47.85471" lon="6.91741">
        <ele>1091</ele>
        <time>2014-06-21T18:25:10Z</time>
      </trkpt>
      <trkpt lat="47.85478" lon="6.91745">
        <ele>1090</ele>
        <time>2014-06-21T18:25:20Z</time>
      </trkpt>
      <trkpt lat="47.85481" lon="6.91745">
        <ele>1090</ele>
        <time>2014-06-21T18:25:22Z</time>
      </trkpt>
      <trkpt lat="47.85484" lon="6.91746">
        <ele>1089</ele>
        <time>2014-06-21T18:25:25Z</time>
      </trkpt>
      <trkpt lat="47.85487" lon="6.91745">
        <ele>1089</ele>
        <time>2014-06-21T18:25:28Z</time>
      </trkpt>
      <trkpt lat="47.8549" lon="6.91744">
        <ele>1089</ele>
        <time>2014-06-21T18:25:36Z</time>
      </trkpt>
      <trkpt lat="47.85486" lon="6.91738">
        <ele>1089</ele>
        <time>2014-06-21T18:25:48Z</time>
      </trkpt>
      <trkpt lat="47.85628" lon="6.91512">
        <ele>1092</ele>
        <time>2014-06-21T18:43:17Z</time>
      </trkpt>
      <trkpt lat="47.85633" lon="6.91489">
        <ele>1088</ele>
        <time>2014-06-21T18:43:31Z</time>
      </trkpt>
      <trkpt lat="47.85635" lon="6.91484">
        <ele>1088</ele>
        <time>2014-06-21T18:43:34Z</time>
      </trkpt>
      <trkpt lat="47.85646" lon="6.91467">
        <ele>1089</ele>
        <time>2014-06-21T18:43:45Z</time>
      </trkpt>
      <trkpt lat="47.85648" lon="6.91464">
        <ele>1089</ele>
        <time>2014-06-21T18:43:47Z</time>
      </trkpt>
      <trkpt lat="47.85652" lon="6.91455">
        <ele>1088</ele>
        <time>2014-06-21T18:43:53Z</time>
      </trkpt>
      <trkpt lat="47.85659" lon="6.9144">
        <ele>1089</ele>
        <time>2014-06-21T18:44:04Z</time>
      </trkpt>
      <trkpt lat="47.85662" lon="6.91437">
        <ele>1090</ele>
        <time>2014-06-21T18:44:11Z</time>
      </trkpt>
      <trkpt lat="47.85669" lon="6.91421">
        <ele>1097</ele>
        <time>2014-06-21T18:44:21Z</time>
      </trkpt>
      <trkpt lat="47.85675" lon="6.91409">
        <ele>1098</ele>
        <time>2014-06-21T18:44:31Z</time>
      </trkpt>
      <trkpt lat="47.85679" lon="6.91405">
        <ele>1100</ele>
        <time>2014-06-21T18:44:34Z</time>
      </trkpt>
      <trkpt lat="47.85691" lon="6.9139">
        <ele>1103</ele>
        <time>2014-06-21T18:44:45Z</time>
      </trkpt>
      <trkpt lat="47.85698" lon="6.91374">
        <ele>1104</ele>
        <time>2014-06-21T18:44:55Z</time>
      </trkpt>
      <trkpt lat="47.85706" lon="6.91359">
        <ele>1105</ele>
        <time>2014-06-21T18:45:06Z</time>
      </trkpt>
      <trkpt lat="47.85711" lon="6.9135">
        <ele>1105</ele>
        <time>2014-06-21T18:45:12Z</time>
      </trkpt>
      <trkpt lat="47.85714" lon="6.91341">
        <ele>1106</ele>
        <time>2014-06-21T18:45:18Z</time>
      </trkpt>
      <trkpt lat="47.85715" lon="6.91328">
        <ele>1103</ele>
        <time>2014-06-21T18:45:28Z</time>
      </trkpt>
      <trkpt lat="47.85712" lon="6.91327">
        <ele>1102</ele>
        <time>2014-06-21T18:46:09Z</time>
      </trkpt>
      <trkpt lat="47.85712" lon="6.91323">
        <ele>1101</ele>
        <time>2014-06-21T18:46:14Z</time>
      </trkpt>
      <trkpt lat="47.85715" lon="6.91305">
        <ele>1102</ele>
        <time>2014-06-21T18:46:24Z</time>
      </trkpt>
      <trkpt lat="47.85715" lon="6.913">
        <ele>1101</ele>
        <time>2014-06-21T18:46:26Z</time>
      </trkpt>
      <trkpt lat="47.85729" lon="6.9128">
        <ele>1103</ele>
        <time>2014-06-21T18:46:36Z</time>
      </trkpt>
      <trkpt lat="47.85734" lon="6.91257">
        <ele>1106</ele>
        <time>2014-06-21T18:46:47Z</time>
      </trkpt>
      <trkpt lat="47.85734" lon="6.91252">
        <ele>1107</ele>
        <time>2014-06-21T18:46:49Z</time>
      </trkpt>
      <trkpt lat="47.85736" lon="6.91226">
        <ele>1101</ele>
        <time>2014-06-21T18:47:01Z</time>
      </trkpt>
      <trkpt lat="47.85742" lon="6.91209">
        <ele>1100</ele>
        <time>2014-06-21T18:47:11Z</time>
      </trkpt>
      <trkpt lat="47.85748" lon="6.91195">
        <ele>1101</ele>
        <time>2014-06-21T18:47:18Z</time>
      </trkpt>
      <trkpt lat="47.85761" lon="6.91179">
        <ele>1116</ele>
        <time>2014-06-21T18:47:28Z</time>
      </trkpt>
      <trkpt lat="47.85764" lon="6.91176">
        <ele>1116</ele>
        <time>2014-06-21T18:47:30Z</time>
      </trkpt>
      <trkpt lat="47.85777" lon="6.9116">
        <ele>1114</ele>
        <time>2014-06-21T18:47:38Z</time>
      </trkpt>
      <trkpt lat="47.85782" lon="6.91148">
        <ele>1115</ele>
        <time>2014-06-21T18:47:44Z</time>
      </trkpt>
      <trkpt lat="47.85794" lon="6.91128">
        <ele>1116</ele>
        <time>2014-06-21T18:47:54Z</time>
      </trkpt>
      <trkpt lat="47.85797" lon="6.9112">
        <ele>1116</ele>
        <time>2014-06-21T18:47:58Z</time>
      </trkpt>
      <trkpt lat="47.85804" lon="6.91103">
        <ele>1116</ele>
        <time>2014-06-21T18:48:08Z</time>
      </trkpt>
      <trkpt lat="47.85811" lon="6.91085">
        <ele>1116</ele>
        <time>2014-06-21T18:48:20Z</time>
      </trkpt>
      <trkpt lat="47.85814" lon="6.91082">
        <ele>1112</ele>
        <time>2014-06-21T18:48:22Z</time>
      </trkpt>
      <trkpt lat="47.85818" lon="6.91079">
        <ele>1113</ele>
        <time>2014-06-21T18:48:24Z</time>
      </trkpt>
      <trkpt lat="47.85842" lon="6.91067">
        <ele>1120</ele>
        <time>2014-06-21T18:48:34Z</time>
      </trkpt>
      <trkpt lat="47.85841" lon="6.91062">
        <ele>1120</ele>
        <time>2014-06-21T18:48:37Z</time>
      </trkpt>
      <trkpt lat="47.85844" lon="6.91047">
        <ele>1119</ele>
        <time>2014-06-21T18:48:48Z</time>
      </trkpt>
      <trkpt lat="47.8585" lon="6.91037">
        <ele>1118</ele>
        <time>2014-06-21T18:48:59Z</time>
      </trkpt>
      <trkpt lat="47.85859" lon="6.91021">
        <ele>1117</ele>
        <time>2014-06-21T18:49:09Z</time>
      </trkpt>
      <trkpt lat="47.85865" lon="6.9101">
        <ele>1117</ele>
        <time>2014-06-21T18:49:21Z</time>
      </trkpt>
      <trkpt lat="47.85868" lon="6.91009">
        <ele>1117</ele>
        <time>2014-06-21T18:49:26Z</time>
      </trkpt>
      <trkpt lat="47.85875" lon="6.91007">
        <ele>1118</ele>
        <time>2014-06-21T18:49:30Z</time>
      </trkpt>
      <trkpt lat="47.85884" lon="6.90995">
        <ele>1113</ele>
        <time>2014-06-21T18:49:41Z</time>
      </trkpt>
      <trkpt lat="47.85897" lon="6.90983">
        <ele>1113</ele>
        <time>2014-06-21T18:49:52Z</time>
      </trkpt>
      <trkpt lat="47.85913" lon="6.90969">
        <ele>1113</ele>
        <time>2014-06-21T18:50:05Z</time>
      </trkpt>
      <trkpt lat="47.85924" lon="6.90958">
        <ele>1110</ele>
        <time>2014-06-21T18:50:16Z</time>
      </trkpt>
      <trkpt lat="47.85927" lon="6.90955">
        <ele>1110</ele>
        <time>2014-06-21T18:50:18Z</time>
      </trkpt>
      <trkpt lat="47.85939" lon="6.90952">
        <ele>1109</ele>
        <time>2014-06-21T18:50:33Z</time>
      </trkpt>
      <trkpt lat="47.85944" lon="6.90956">
        <ele>1109</ele>
        <time>2014-06-21T18:50:43Z</time>
      </trkpt>
      <trkpt lat="47.85957" lon="6.90961">
        <ele>1109</ele>
        <time>2014-06-21T18:50:55Z</time>
      </trkpt>
      <trkpt lat="47.85959" lon="6.90965">
        <ele>1109</ele>
        <time>2014-06-21T18:50:57Z</time>
      </trkpt>
      <trkpt lat="47.8597" lon="6.90973">
        <ele>1109</ele>
        <time>2014-06-21T18:51:08Z</time>
      </trkpt>
      <trkpt lat="47.8598" lon="6.90974">
        <ele>1108</ele>
        <time>2014-06-21T18:51:20Z</time>
      </trkpt>
      <trkpt lat="47.85982" lon="6.90977">
        <ele>1108</ele>
        <time>2014-06-21T18:51:23Z</time>
      </trkpt>
      <trkpt lat="47.85996" lon="6.90975">
        <ele>1108</ele>
        <time>2014-06-21T18:51:36Z</time>
      </trkpt>
      <trkpt lat="47.86" lon="6.90981">
        <ele>1108</ele>
        <time>2014-06-21T18:51:46Z</time>
      </trkpt>
      <trkpt lat="47.86003" lon="6.90984">
        <ele>1102</ele>
        <time>2014-06-21T18:51:48Z</time>
      </trkpt>
      <trkpt lat="47.86007" lon="6.90984">
        <ele>1102</ele>
        <time>2014-06-21T18:51:50Z</time>
      </trkpt>
      <trkpt lat="47.86018" lon="6.90987">
        <ele>1100</ele>
        <time>2014-06-21T18:52:00Z</time>
      </trkpt>
      <trkpt lat="47.8602" lon="6.90984">
        <ele>1099</ele>
        <time>2014-06-21T18:52:02Z</time>
      </trkpt>
      <trkpt lat="47.86037" lon="6.90985">
        <ele>1096</ele>
        <time>2014-06-21T18:52:12Z</time>
      </trkpt>
      <trkpt lat="47.8605" lon="6.90987">
        <ele>1095</ele>
        <time>2014-06-21T18:52:22Z</time>
      </trkpt>
      <trkpt lat="47.86064" lon="6.90993">
        <ele>1094</ele>
        <time>2014-06-21T18:52:31Z</time>
      </trkpt>
      <trkpt lat="47.86067" lon="6.90993">
        <ele>1093</ele>
        <time>2014-06-21T18:52:34Z</time>
      </trkpt>
      <trkpt lat="47.86071" lon="6.90992">
        <ele>1093</ele>
        <time>2014-06-21T18:52:36Z</time>
      </trkpt>
      <trkpt lat="47.86075" lon="6.9099">
        <ele>1093</ele>
        <time>2014-06-21T18:52:39Z</time>
      </trkpt>
      <trkpt lat="47.86083" lon="6.9099">
        <ele>1087</ele>
        <time>2014-06-21T18:52:54Z</time>
      </trkpt>
      <trkpt lat="47.86096" lon="6.90993">
        <ele>1086</ele>
        <time>2014-06-21T18:53:04Z</time>
      </trkpt>
      <trkpt lat="47.86099" lon="6.90993">
        <ele>1085</ele>
        <time>2014-06-21T18:53:07Z</time>
      </trkpt>
      <trkpt lat="47.86103" lon="6.90993">
        <ele>1084</ele>
        <time>2014-06-21T18:53:09Z</time>
      </trkpt>
      <trkpt lat="47.8612" lon="6.90991">
        <ele>1080</ele>
        <time>2014-06-21T18:53:20Z</time>
      </trkpt>
      <trkpt lat="47.86132" lon="6.90994">
        <ele>1078</ele>
        <time>2014-06-21T18:53:29Z</time>
      </trkpt>
      <trkpt lat="47.86142" lon="6.91">
        <ele>1077</ele>
        <time>2014-06-21T18:53:36Z</time>
      </trkpt>
      <trkpt lat="47.86155" lon="6.91003">
        <ele>1083</ele>
        <time>2014-06-21T18:53:46Z</time>
      </trkpt>
      <trkpt lat="47.86164" lon="6.91003">
        <ele>1078</ele>
        <time>2014-06-21T18:53:53Z</time>
      </trkpt>
      <trkpt lat="47.86178" lon="6.91004">
        <ele>1075</ele>
        <time>2014-06-21T18:54:03Z</time>
      </trkpt>
      <trkpt lat="47.86181" lon="6.91004">
        <ele>1075</ele>
        <time>2014-06-21T18:54:05Z</time>
      </trkpt>
      <trkpt lat="47.8619" lon="6.91006">
        <ele>1074</ele>
        <time>2014-06-21T18:54:15Z</time>
      </trkpt>
      <trkpt lat="47.862" lon="6.91021">
        <ele>1074</ele>
        <time>2014-06-21T18:54:25Z</time>
      </trkpt>
      <trkpt lat="47.86205" lon="6.91022">
        <ele>1073</ele>
        <time>2014-06-21T18:54:31Z</time>
      </trkpt>
      <trkpt lat="47.86215" lon="6.91024">
        <ele>1072</ele>
        <time>2014-06-21T18:54:43Z</time>
      </trkpt>
      <trkpt lat="47.86224" lon="6.91025">
        <ele>1070</ele>
        <time>2014-06-21T18:54:53Z</time>
      </trkpt>
      <trkpt lat="47.8624" lon="6.91039">
        <ele>1071</ele>
        <time>2014-06-21T18:55:04Z</time>
      </trkpt>
      <trkpt lat="47.86253" lon="6.91045">
        <ele>1060</ele>
        <time>2014-06-21T18:55:16Z</time>
      </trkpt>
      <trkpt lat="47.8626" lon="6.91048">
        <ele>1060</ele>
        <time>2014-06-21T18:55:23Z</time>
      </trkpt>
      <trkpt lat="47.86271" lon="6.91052">
        <ele>1060</ele>
        <time>2014-06-21T18:55:34Z</time>
      </trkpt>
      <trkpt lat="47.86281" lon="6.91053">
        <ele>1059</ele>
        <time>2014-06-21T18:55:44Z</time>
      </trkpt>
      <trkpt lat="47.86298" lon="6.9105">
        <ele>1058</ele>
        <time>2014-06-21T18:55:56Z</time>
      </trkpt>
      <trkpt lat="47.86301" lon="6.9105">
        <ele>1058</ele>
        <time>2014-06-21T18:55:59Z</time>
      </trkpt>
      <trkpt lat="47.86314" lon="6.91045">
        <ele>1056</ele>
        <time>2014-06-21T18:56:10Z</time>
      </trkpt>
      <trkpt lat="47.86318" lon="6.91045">
        <ele>1056</ele>
        <time>2014-06-21T18:56:12Z</time>
      </trkpt>
      <trkpt lat="47.86328" lon="6.91045">
        <ele>1056</ele>
        <time>2014-06-21T18:56:21Z</time>
      </trkpt>
      <trkpt lat="47.86334" lon="6.91039">
        <ele>1051</ele>
        <time>2014-06-21T18:56:26Z</time>
      </trkpt>
      <trkpt lat="47.86342" lon="6.91019">
        <ele>1049</ele>
        <time>2014-06-21T18:56:36Z</time>
      </trkpt>
      <trkpt lat="47.8635" lon="6.91003">
        <ele>1048</ele>
        <time>2014-06-21T18:56:46Z</time>
      </trkpt>
      <trkpt lat="47.86351" lon="6.90985">
        <ele>1043</ele>
        <time>2014-06-21T18:56:55Z</time>
      </trkpt>
      <trkpt lat="47.86348" lon="6.90963">
        <ele>1042</ele>
        <time>2014-06-21T18:57:07Z</time>
      </trkpt>
      <trkpt lat="47.86346" lon="6.90943">
        <ele>1041</ele>
        <time>2014-06-21T18:57:17Z</time>
      </trkpt>
      <trkpt lat="47.86342" lon="6.90921">
        <ele>1039</ele>
        <time>2014-06-21T18:57:29Z</time>
      </trkpt>
      <trkpt lat="47.86337" lon="6.90901">
        <ele>1040</ele>
        <time>2014-06-21T18:57:40Z</time>
      </trkpt>
      <trkpt lat="47.86334" lon="6.90881">
        <ele>1041</ele>
        <time>2014-06-21T18:57:51Z</time>
      </trkpt>
      <trkpt lat="47.86335" lon="6.90876">
        <ele>1041</ele>
        <time>2014-06-21T18:57:54Z</time>
      </trkpt>
      <trkpt lat="47.86337" lon="6.90855">
        <ele>1042</ele>
        <time>2014-06-21T18:58:05Z</time>
      </trkpt>
      <trkpt lat="47.86344" lon="6.90834">
        <ele>1042</ele>
        <time>2014-06-21T18:58:16Z</time>
      </trkpt>
      <trkpt lat="47.86345" lon="6.90831">
        <ele>1045</ele>
        <time>2014-06-21T18:58:18Z</time>
      </trkpt>
      <trkpt lat="47.86345" lon="6.90811">
        <ele>1047</ele>
        <time>2014-06-21T18:58:29Z</time>
      </trkpt>
      <trkpt lat="47.86346" lon="6.90791">
        <ele>1049</ele>
        <time>2014-06-21T18:58:41Z</time>
      </trkpt>
      <trkpt lat="47.86354" lon="6.90772">
        <ele>1049</ele>
        <time>2014-06-21T18:58:52Z</time>
      </trkpt>
      <trkpt lat="47.86355" lon="6.90752">
        <ele>1049</ele>
        <time>2014-06-21T18:59:03Z</time>
      </trkpt>
      <trkpt lat="47.86354" lon="6.90744">
        <ele>1051</ele>
        <time>2014-06-21T18:59:08Z</time>
      </trkpt>
      <trkpt lat="47.86358" lon="6.90725">
        <ele>1053</ele>
        <time>2014-06-21T18:59:19Z</time>
      </trkpt>
      <trkpt lat="47.86365" lon="6.90705">
        <ele>1054</ele>
        <time>2014-06-21T18:59:30Z</time>
      </trkpt>
      <trkpt lat="47.86369" lon="6.90684">
        <ele>1054</ele>
        <time>2014-06-21T18:59:42Z</time>
      </trkpt>
      <trkpt lat="47.8637" lon="6.90665">
        <ele>1054</ele>
        <time>2014-06-21T18:59:54Z</time>
      </trkpt>
      <trkpt lat="47.86378" lon="6.90656">
        <ele>1056</ele>
        <time>2014-06-21T19:00:05Z</time>
      </trkpt>
      <trkpt lat="47.86394" lon="6.90649">
        <ele>1059</ele>
        <time>2014-06-21T19:00:17Z</time>
      </trkpt>
      <trkpt lat="47.864" lon="6.90639">
        <ele>1060</ele>
        <time>2014-06-21T19:00:28Z</time>
      </trkpt>
      <trkpt lat="47.86401" lon="6.90634">
        <ele>1060</ele>
        <time>2014-06-21T19:00:31Z</time>
      </trkpt>
      <trkpt lat="47.86399" lon="6.90617">
        <ele>1059</ele>
        <time>2014-06-21T19:00:40Z</time>
      </trkpt>
      <trkpt lat="47.864" lon="6.90594">
        <ele>1061</ele>
        <time>2014-06-21T19:00:52Z</time>
      </trkpt>
      <trkpt lat="47.86402" lon="6.90578">
        <ele>1062</ele>
        <time>2014-06-21T19:01:03Z</time>
      </trkpt>
      <trkpt lat="47.86414" lon="6.90563">
        <ele>1061</ele>
        <time>2014-06-21T19:01:14Z</time>
      </trkpt>
      <trkpt lat="47.86421" lon="6.90554">
        <ele>1070</ele>
        <time>2014-06-21T19:01:24Z</time>
      </trkpt>
      <trkpt lat="47.86425" lon="6.90556">
        <ele>1071</ele>
        <time>2014-06-21T19:01:34Z</time>
      </trkpt>
      <trkpt lat="47.86426" lon="6.90552">
        <ele>1071</ele>
        <time>2014-06-21T19:02:55Z</time>
      </trkpt>
      <trkpt lat="47.86431" lon="6.90539">
        <ele>1070</ele>
        <time>2014-06-21T19:03:05Z</time>
      </trkpt>
      <trkpt lat="47.86439" lon="6.90525">
        <ele>1070</ele>
        <time>2014-06-21T19:03:15Z</time>
      </trkpt>
      <trkpt lat="47.86447" lon="6.90508">
        <ele>1070</ele>
        <time>2014-06-21T19:03:27Z</time>
      </trkpt>
      <trkpt lat="47.86457" lon="6.9049">
        <ele>1065</ele>
        <time>2014-06-21T19:03:39Z</time>
      </trkpt>
      <trkpt lat="47.86468" lon="6.90474">
        <ele>1065</ele>
        <time>2014-06-21T19:03:51Z</time>
      </trkpt>
      <trkpt lat="47.86471" lon="6.90471">
        <ele>1065</ele>
        <time>2014-06-21T19:03:54Z</time>
      </trkpt>
      <trkpt lat="47.86475" lon="6.90468">
        <ele>1065</ele>
        <time>2014-06-21T19:04:18Z</time>
      </trkpt>
      <trkpt lat="47.8649" lon="6.90461">
        <ele>1066</ele>
        <time>2014-06-21T19:04:28Z</time>
      </trkpt>
      <trkpt lat="47.86507" lon="6.90458">
        <ele>1073</ele>
        <time>2014-06-21T19:04:40Z</time>
      </trkpt>
      <trkpt lat="47.86519" lon="6.90454">
        <ele>1074</ele>
        <time>2014-06-21T19:04:49Z</time>
      </trkpt>
      <trkpt lat="47.86537" lon="6.90449">
        <ele>1075</ele>
        <time>2014-06-21T19:05:00Z</time>
      </trkpt>
      <trkpt lat="47.86549" lon="6.9044">
        <ele>1076</ele>
        <time>2014-06-21T19:05:11Z</time>
      </trkpt>
      <trkpt lat="47.86551" lon="6.90438">
        <ele>1076</ele>
        <time>2014-06-21T19:05:13Z</time>
      </trkpt>
      <trkpt lat="47.86559" lon="6.90431">
        <ele>1076</ele>
        <time>2014-06-21T19:05:21Z</time>
      </trkpt>
      <trkpt lat="47.86571" lon="6.90427">
        <ele>1077</ele>
        <time>2014-06-21T19:05:34Z</time>
      </trkpt>
      <trkpt lat="47.86578" lon="6.90411">
        <ele>1075</ele>
        <time>2014-06-21T19:05:46Z</time>
      </trkpt>
      <trkpt lat="47.86588" lon="6.90398">
        <ele>1082</ele>
        <time>2014-06-21T19:05:56Z</time>
      </trkpt>
      <trkpt lat="47.86602" lon="6.90395">
        <ele>1083</ele>
        <time>2014-06-21T19:06:06Z</time>
      </trkpt>
      <trkpt lat="47.86616" lon="6.90389">
        <ele>1085</ele>
        <time>2014-06-21T19:06:17Z</time>
      </trkpt>
      <trkpt lat="47.8662" lon="6.90386">
        <ele>1085</ele>
        <time>2014-06-21T19:06:20Z</time>
      </trkpt>
      <trkpt lat="47.86627" lon="6.90369">
        <ele>1085</ele>
        <time>2014-06-21T19:06:31Z</time>
      </trkpt>
      <trkpt lat="47.86628" lon="6.90363">
        <ele>1085</ele>
        <time>2014-06-21T19:06:34Z</time>
      </trkpt>
      <trkpt lat="47.86628" lon="6.90358">
        <ele>1085</ele>
        <time>2014-06-21T19:06:37Z</time>
      </trkpt>
      <trkpt lat="47.86636" lon="6.90345">
        <ele>1086</ele>
        <time>2014-06-21T19:06:48Z</time>
      </trkpt>
      <trkpt lat="47.86643" lon="6.90335">
        <ele>1088</ele>
        <time>2014-06-21T19:06:59Z</time>
      </trkpt>
      <trkpt lat="47.86655" lon="6.90321">
        <ele>1087</ele>
        <time>2014-06-21T19:07:09Z</time>
      </trkpt>
      <trkpt lat="47.86655" lon="6.90316">
        <ele>1086</ele>
        <time>2014-06-21T19:07:11Z</time>
      </trkpt>
      <trkpt lat="47.8666" lon="6.90303">
        <ele>1084</ele>
        <time>2014-06-21T19:07:21Z</time>
      </trkpt>
      <trkpt lat="47.86664" lon="6.90283">
        <ele>1083</ele>
        <time>2014-06-21T19:07:31Z</time>
      </trkpt>
      <trkpt lat="47.86659" lon="6.90262">
        <ele>1085</ele>
        <time>2014-06-21T19:07:43Z</time>
      </trkpt>
      <trkpt lat="47.8666" lon="6.90257">
        <ele>1086</ele>
        <time>2014-06-21T19:07:46Z</time>
      </trkpt>
      <trkpt lat="47.86663" lon="6.90253">
        <ele>1087</ele>
        <time>2014-06-21T19:07:49Z</time>
      </trkpt>
      <trkpt lat="47.86663" lon="6.90249">
        <ele>1087</ele>
        <time>2014-06-21T19:07:51Z</time>
      </trkpt>
      <trkpt lat="47.86666" lon="6.90233">
        <ele>1081</ele>
        <time>2014-06-21T19:08:00Z</time>
      </trkpt>
      <trkpt lat="47.86668" lon="6.90228">
        <ele>1095</ele>
        <time>2014-06-21T19:08:03Z</time>
      </trkpt>
      <trkpt lat="47.8667" lon="6.90209">
        <ele>1095</ele>
        <time>2014-06-21T19:08:13Z</time>
      </trkpt>
      <trkpt lat="47.86671" lon="6.90205">
        <ele>1095</ele>
        <time>2014-06-21T19:08:16Z</time>
      </trkpt>
      <trkpt lat="47.86682" lon="6.90193">
        <ele>1094</ele>
        <time>2014-06-21T19:08:27Z</time>
      </trkpt>
      <trkpt lat="47.86684" lon="6.9019">
        <ele>1094</ele>
        <time>2014-06-21T19:08:29Z</time>
      </trkpt>
      <trkpt lat="47.86693" lon="6.90178">
        <ele>1095</ele>
        <time>2014-06-21T19:08:41Z</time>
      </trkpt>
      <trkpt lat="47.867" lon="6.90162">
        <ele>1089</ele>
        <time>2014-06-21T19:08:53Z</time>
      </trkpt>
      <trkpt lat="47.86701" lon="6.90144">
        <ele>1089</ele>
        <time>2014-06-21T19:09:01Z</time>
      </trkpt>
      <trkpt lat="47.86704" lon="6.90125">
        <ele>1088</ele>
        <time>2014-06-21T19:09:11Z</time>
      </trkpt>
      <trkpt lat="47.86709" lon="6.90108">
        <ele>1088</ele>
        <time>2014-06-21T19:09:21Z</time>
      </trkpt>
      <trkpt lat="47.86712" lon="6.90103">
        <ele>1088</ele>
        <time>2014-06-21T19:09:25Z</time>
      </trkpt>
      <trkpt lat="47.86718" lon="6.90084">
        <ele>1089</ele>
        <time>2014-06-21T19:09:35Z</time>
      </trkpt>
      <trkpt lat="47.86722" lon="6.90081">
        <ele>1084</ele>
        <time>2014-06-21T19:09:38Z</time>
      </trkpt>
      <trkpt lat="47.86738" lon="6.90067">
        <ele>1086</ele>
        <time>2014-06-21T19:09:49Z</time>
      </trkpt>
      <trkpt lat="47.8674" lon="6.90063">
        <ele>1086</ele>
        <time>2014-06-21T19:09:52Z</time>
      </trkpt>
      <trkpt lat="47.86745" lon="6.90052">
        <ele>1085</ele>
        <time>2014-06-21T19:10:02Z</time>
      </trkpt>
      <trkpt lat="47.86747" lon="6.90048">
        <ele>1084</ele>
        <time>2014-06-21T19:10:04Z</time>
      </trkpt>
      <trkpt lat="47.86756" lon="6.90035">
        <ele>1100</ele>
        <time>2014-06-21T19:10:13Z</time>
      </trkpt>
      <trkpt lat="47.86758" lon="6.90032">
        <ele>1100</ele>
        <time>2014-06-21T19:10:15Z</time>
      </trkpt>
      <trkpt lat="47.86763" lon="6.90015">
        <ele>1098</ele>
        <time>2014-06-21T19:10:25Z</time>
      </trkpt>
      <trkpt lat="47.86764" lon="6.90011">
        <ele>1097</ele>
        <time>2014-06-21T19:10:27Z</time>
      </trkpt>
      <trkpt lat="47.86768" lon="6.89988">
        <ele>1099</ele>
        <time>2014-06-21T19:10:39Z</time>
      </trkpt>
      <trkpt lat="47.86775" lon="6.8997">
        <ele>1102</ele>
        <time>2014-06-21T19:10:50Z</time>
      </trkpt>
      <trkpt lat="47.86776" lon="6.89965">
        <ele>1102</ele>
        <time>2014-06-21T19:10:53Z</time>
      </trkpt>
      <trkpt lat="47.86777" lon="6.8996">
        <ele>1102</ele>
        <time>2014-06-21T19:10:56Z</time>
      </trkpt>
      <trkpt lat="47.86774" lon="6.89944">
        <ele>1102</ele>
        <time>2014-06-21T19:11:06Z</time>
      </trkpt>
      <trkpt lat="47.86774" lon="6.89939">
        <ele>1102</ele>
        <time>2014-06-21T19:11:08Z</time>
      </trkpt>
      <trkpt lat="47.86771" lon="6.8992">
        <ele>1100</ele>
        <time>2014-06-21T19:11:17Z</time>
      </trkpt>
      <trkpt lat="47.86771" lon="6.89912">
        <ele>1103</ele>
        <time>2014-06-21T19:11:22Z</time>
      </trkpt>
      <trkpt lat="47.86769" lon="6.89892">
        <ele>1105</ele>
        <time>2014-06-21T19:11:34Z</time>
      </trkpt>
      <trkpt lat="47.86768" lon="6.89887">
        <ele>1105</ele>
        <time>2014-06-21T19:11:36Z</time>
      </trkpt>
      <trkpt lat="47.86766" lon="6.89865">
        <ele>1106</ele>
        <time>2014-06-21T19:11:48Z</time>
      </trkpt>
      <trkpt lat="47.86764" lon="6.8986">
        <ele>1106</ele>
        <time>2014-06-21T19:11:51Z</time>
      </trkpt>
      <trkpt lat="47.86763" lon="6.89849">
        <ele>1104</ele>
        <time>2014-06-21T19:11:56Z</time>
      </trkpt>
      <trkpt lat="47.86759" lon="6.89828">
        <ele>1104</ele>
        <time>2014-06-21T19:12:07Z</time>
      </trkpt>
      <trkpt lat="47.86759" lon="6.89818">
        <ele>1107</ele>
        <time>2014-06-21T19:12:13Z</time>
      </trkpt>
      <trkpt lat="47.86754" lon="6.89797">
        <ele>1111</ele>
        <time>2014-06-21T19:12:24Z</time>
      </trkpt>
      <trkpt lat="47.86752" lon="6.89788">
        <ele>1111</ele>
        <time>2014-06-21T19:12:32Z</time>
      </trkpt>
      <trkpt lat="47.8675" lon="6.89775">
        <ele>1094</ele>
        <time>2014-06-21T19:12:42Z</time>
      </trkpt>
      <trkpt lat="47.86749" lon="6.8977">
        <ele>1095</ele>
        <time>2014-06-21T19:12:46Z</time>
      </trkpt>
      <trkpt lat="47.86748" lon="6.89756">
        <ele>1101</ele>
        <time>2014-06-21T19:12:56Z</time>
      </trkpt>
      <trkpt lat="47.86744" lon="6.89734">
        <ele>1098</ele>
        <time>2014-06-21T19:13:07Z</time>
      </trkpt>
      <trkpt lat="47.86743" lon="6.89723">
        <ele>1096</ele>
        <time>2014-06-21T19:13:11Z</time>
      </trkpt>
      <trkpt lat="47.86742" lon="6.89713">
        <ele>1096</ele>
        <time>2014-06-21T19:13:18Z</time>
      </trkpt>
      <trkpt lat="47.8674" lon="6.89709">
        <ele>1096</ele>
        <time>2014-06-21T19:13:22Z</time>
      </trkpt>
      <trkpt lat="47.86739" lon="6.89694">
        <ele>1096</ele>
        <time>2014-06-21T19:13:30Z</time>
      </trkpt>
      <trkpt lat="47.86738" lon="6.89666">
        <ele>1100</ele>
        <time>2014-06-21T19:13:41Z</time>
      </trkpt>
      <trkpt lat="47.86745" lon="6.89644">
        <ele>1098</ele>
        <time>2014-06-21T19:13:52Z</time>
      </trkpt>
      <trkpt lat="47.86748" lon="6.89625">
        <ele>1096</ele>
        <time>2014-06-21T19:14:03Z</time>
      </trkpt>
      <trkpt lat="47.86746" lon="6.89612">
        <ele>1096</ele>
        <time>2014-06-21T19:14:10Z</time>
      </trkpt>
      <trkpt lat="47.86749" lon="6.89601">
        <ele>1098</ele>
        <time>2014-06-21T19:14:16Z</time>
      </trkpt>
      <trkpt lat="47.86757" lon="6.89587">
        <ele>1107</ele>
        <time>2014-06-21T19:14:27Z</time>
      </trkpt>
      <trkpt lat="47.86759" lon="6.89584">
        <ele>1107</ele>
        <time>2014-06-21T19:14:29Z</time>
      </trkpt>
      <trkpt lat="47.86773" lon="6.8957">
        <ele>1107</ele>
        <time>2014-06-21T19:14:41Z</time>
      </trkpt>
      <trkpt lat="47.86775" lon="6.89567">
        <ele>1107</ele>
        <time>2014-06-21T19:14:43Z</time>
      </trkpt>
      <trkpt lat="47.86785" lon="6.89552">
        <ele>1108</ele>
        <time>2014-06-21T19:14:53Z</time>
      </trkpt>
      <trkpt lat="47.86777" lon="6.89546">
        <ele>1106</ele>
        <time>2014-06-21T19:15:03Z</time>
      </trkpt>
      <trkpt lat="47.86775" lon="6.89549">
        <ele>1106</ele>
        <time>2014-06-21T19:15:05Z</time>
      </trkpt>
      <trkpt lat="47.86778" lon="6.89549">
        <ele>1107</ele>
        <time>2014-06-21T19:15:13Z</time>
      </trkpt>
      <trkpt lat="47.86781" lon="6.89546">
        <ele>1107</ele>
        <time>2014-06-21T19:15:15Z</time>
      </trkpt>
      <trkpt lat="47.86785" lon="6.89538">
        <ele>1107</ele>
        <time>2014-06-21T19:15:19Z</time>
      </trkpt>
      <trkpt lat="47.86789" lon="6.8953">
        <ele>1107</ele>
        <time>2014-06-21T19:15:23Z</time>
      </trkpt>
      <trkpt lat="47.86794" lon="6.8951">
        <ele>1106</ele>
        <time>2014-06-21T19:15:34Z</time>
      </trkpt>
      <trkpt lat="47.86803" lon="6.89508">
        <ele>1108</ele>
        <time>2014-06-21T19:15:42Z</time>
      </trkpt>
      <trkpt lat="47.86815" lon="6.89498">
        <ele>1103</ele>
        <time>2014-06-21T19:15:52Z</time>
      </trkpt>
      <trkpt lat="47.86829" lon="6.89486">
        <ele>1104</ele>
        <time>2014-06-21T19:16:03Z</time>
      </trkpt>
      <trkpt lat="47.86842" lon="6.89476">
        <ele>1113</ele>
        <time>2014-06-21T19:16:13Z</time>
      </trkpt>
      <trkpt lat="47.86856" lon="6.89463">
        <ele>1114</ele>
        <time>2014-06-21T19:16:25Z</time>
      </trkpt>
      <trkpt lat="47.86863" lon="6.89453">
        <ele>1114</ele>
        <time>2014-06-21T19:16:34Z</time>
      </trkpt>
      <trkpt lat="47.86875" lon="6.8944">
        <ele>1114</ele>
        <time>2014-06-21T19:16:46Z</time>
      </trkpt>
      <trkpt lat="47.86882" lon="6.89425">
        <ele>1115</ele>
        <time>2014-06-21T19:16:59Z</time>
      </trkpt>
      <trkpt lat="47.86892" lon="6.89414">
        <ele>1108</ele>
        <time>2014-06-21T19:17:10Z</time>
      </trkpt>
      <trkpt lat="47.86893" lon="6.89409">
        <ele>1108</ele>
        <time>2014-06-21T19:17:12Z</time>
      </trkpt>
      <trkpt lat="47.86902" lon="6.8939">
        <ele>1107</ele>
        <time>2014-06-21T19:17:23Z</time>
      </trkpt>
      <trkpt lat="47.8691" lon="6.8937">
        <ele>1105</ele>
        <time>2014-06-21T19:17:35Z</time>
      </trkpt>
      <trkpt lat="47.86915" lon="6.89363">
        <ele>1105</ele>
        <time>2014-06-21T19:17:41Z</time>
      </trkpt>
      <trkpt lat="47.86924" lon="6.89344">
        <ele>1114</ele>
        <time>2014-06-21T19:17:53Z</time>
      </trkpt>
      <trkpt lat="47.86933" lon="6.89329">
        <ele>1109</ele>
        <time>2014-06-21T19:18:04Z</time>
      </trkpt>
      <trkpt lat="47.8694" lon="6.89309">
        <ele>1110</ele>
        <time>2014-06-21T19:18:16Z</time>
      </trkpt>
      <trkpt lat="47.86949" lon="6.89296">
        <ele>1110</ele>
        <time>2014-06-21T19:18:26Z</time>
      </trkpt>
      <trkpt lat="47.86958" lon="6.89279">
        <ele>1110</ele>
        <time>2014-06-21T19:18:38Z</time>
      </trkpt>
      <trkpt lat="47.86964" lon="6.89259">
        <ele>1110</ele>
        <time>2014-06-21T19:18:49Z</time>
      </trkpt>
      <trkpt lat="47.8697" lon="6.8924">
        <ele>1104</ele>
        <time>2014-06-21T19:19:01Z</time>
      </trkpt>
      <trkpt lat="47.8697" lon="6.89235">
        <ele>1103</ele>
        <time>2014-06-21T19:19:03Z</time>
      </trkpt>
      <trkpt lat="47.86979" lon="6.89219">
        <ele>1103</ele>
        <time>2014-06-21T19:19:14Z</time>
      </trkpt>
      <trkpt lat="47.86986" lon="6.89202">
        <ele>1102</ele>
        <time>2014-06-21T19:19:26Z</time>
      </trkpt>
      <trkpt lat="47.86993" lon="6.89184">
        <ele>1103</ele>
        <time>2014-06-21T19:19:37Z</time>
      </trkpt>
      <trkpt lat="47.86999" lon="6.8918">
        <ele>1104</ele>
        <time>2014-06-21T19:19:49Z</time>
      </trkpt>
      <trkpt lat="47.87006" lon="6.89189">
        <ele>1105</ele>
        <time>2014-06-21T19:19:59Z</time>
      </trkpt>
      <trkpt lat="47.87008" lon="6.89193">
        <ele>1105</ele>
        <time>2014-06-21T19:20:02Z</time>
      </trkpt>
      <trkpt lat="47.87016" lon="6.89203">
        <ele>1105</ele>
        <time>2014-06-21T19:20:12Z</time>
      </trkpt>
      <trkpt lat="47.87025" lon="6.89221">
        <ele>1106</ele>
        <time>2014-06-21T19:20:23Z</time>
      </trkpt>
      <trkpt lat="47.8703" lon="6.89233">
        <ele>1106</ele>
        <time>2014-06-21T19:20:33Z</time>
      </trkpt>
      <trkpt lat="47.87033" lon="6.89242">
        <ele>1106</ele>
        <time>2014-06-21T19:20:41Z</time>
      </trkpt>
      <trkpt lat="47.87038" lon="6.89257">
        <ele>1112</ele>
        <time>2014-06-21T19:21:20Z</time>
      </trkpt>
      <trkpt lat="47.8704" lon="6.8926">
        <ele>1112</ele>
        <time>2014-06-21T19:21:23Z</time>
      </trkpt>
      <trkpt lat="47.8705" lon="6.8928">
        <ele>1111</ele>
        <time>2014-06-21T19:21:33Z</time>
      </trkpt>
      <trkpt lat="47.87052" lon="6.89283">
        <ele>1111</ele>
        <time>2014-06-21T19:21:35Z</time>
      </trkpt>
      <trkpt lat="47.87057" lon="6.89302">
        <ele>1112</ele>
        <time>2014-06-21T19:21:45Z</time>
      </trkpt>
      <trkpt lat="47.87056" lon="6.89319">
        <ele>1112</ele>
        <time>2014-06-21T19:21:54Z</time>
      </trkpt>
      <trkpt lat="47.87056" lon="6.89328">
        <ele>1112</ele>
        <time>2014-06-21T19:21:59Z</time>
      </trkpt>
      <trkpt lat="47.87056" lon="6.89343">
        <ele>1118</ele>
        <time>2014-06-21T19:22:06Z</time>
      </trkpt>
      <trkpt lat="47.87059" lon="6.89362">
        <ele>1120</ele>
        <time>2014-06-21T19:22:18Z</time>
      </trkpt>
      <trkpt lat="47.8706" lon="6.89365">
        <ele>1120</ele>
        <time>2014-06-21T19:22:20Z</time>
      </trkpt>
      <trkpt lat="47.87066" lon="6.89385">
        <ele>1121</ele>
        <time>2014-06-21T19:22:31Z</time>
      </trkpt>
      <trkpt lat="47.87069" lon="6.89409">
        <ele>1121</ele>
        <time>2014-06-21T19:22:44Z</time>
      </trkpt>
      <trkpt lat="47.87082" lon="6.89426">
        <ele>1124</ele>
        <time>2014-06-21T19:22:54Z</time>
      </trkpt>
      <trkpt lat="47.87084" lon="6.89429">
        <ele>1114</ele>
        <time>2014-06-21T19:22:56Z</time>
      </trkpt>
      <trkpt lat="47.8709" lon="6.89442">
        <ele>1112</ele>
        <time>2014-06-21T19:23:11Z</time>
      </trkpt>
      <trkpt lat="47.87101" lon="6.89453">
        <ele>1110</ele>
        <time>2014-06-21T19:23:20Z</time>
      </trkpt>
      <trkpt lat="47.87106" lon="6.8946">
        <ele>1110</ele>
        <time>2014-06-21T19:23:24Z</time>
      </trkpt>
      <trkpt lat="47.87112" lon="6.89465">
        <ele>1110</ele>
        <time>2014-06-21T19:23:30Z</time>
      </trkpt>
      <trkpt lat="47.87114" lon="6.89471">
        <ele>1110</ele>
        <time>2014-06-21T19:23:44Z</time>
      </trkpt>
      <trkpt lat="47.87123" lon="6.8947">
        <ele>1108</ele>
        <time>2014-06-21T19:23:54Z</time>
      </trkpt>
      <trkpt lat="47.87131" lon="6.89474">
        <ele>1106</ele>
        <time>2014-06-21T19:23:57Z</time>
      </trkpt>
      <trkpt lat="47.87138" lon="6.89479">
        <ele>1105</ele>
        <time>2014-06-21T19:24:00Z</time>
      </trkpt>
      <trkpt lat="47.87148" lon="6.8949">
        <ele>1103</ele>
        <time>2014-06-21T19:24:13Z</time>
      </trkpt>
      <trkpt lat="47.87159" lon="6.89492">
        <ele>1101</ele>
        <time>2014-06-21T19:24:23Z</time>
      </trkpt>
      <trkpt lat="47.87169" lon="6.89495">
        <ele>1091</ele>
        <time>2014-06-21T19:24:28Z</time>
      </trkpt>
      <trkpt lat="47.87188" lon="6.89499">
        <ele>1078</ele>
        <time>2014-06-21T19:24:38Z</time>
      </trkpt>
      <trkpt lat="47.87191" lon="6.8949">
        <ele>1075</ele>
        <time>2014-06-21T19:24:43Z</time>
      </trkpt>
      <trkpt lat="47.87194" lon="6.89488">
        <ele>1074</ele>
        <time>2014-06-21T19:24:48Z</time>
      </trkpt>
      <trkpt lat="47.87197" lon="6.89487">
        <ele>1072</ele>
        <time>2014-06-21T19:30:13Z</time>
      </trkpt>
      <trkpt lat="47.87194" lon="6.8949">
        <ele>1074</ele>
        <time>2014-06-21T19:30:31Z</time>
      </trkpt>
      <trkpt lat="47.87194" lon="6.89499">
        <ele>1075</ele>
        <time>2014-06-21T19:30:41Z</time>
      </trkpt>
      <trkpt lat="47.87196" lon="6.89502">
        <ele>1088</ele>
        <time>2014-06-21T19:30:45Z</time>
      </trkpt>
      <trkpt lat="47.87199" lon="6.8952">
        <ele>1088</ele>
        <time>2014-06-21T19:30:58Z</time>
      </trkpt>
      <trkpt lat="47.87203" lon="6.89524">
        <ele>1087</ele>
        <time>2014-06-21T19:31:03Z</time>
      </trkpt>
      <trkpt lat="47.8721" lon="6.89533">
        <ele>1086</ele>
        <time>2014-06-21T19:31:10Z</time>
      </trkpt>
      <trkpt lat="47.87219" lon="6.89547">
        <ele>1085</ele>
        <time>2014-06-21T19:31:21Z</time>
      </trkpt>
      <trkpt lat="47.87229" lon="6.89563">
        <ele>1084</ele>
        <time>2014-06-21T19:31:32Z</time>
      </trkpt>
      <trkpt lat="47.87235" lon="6.89574">
        <ele>1083</ele>
        <time>2014-06-21T19:31:46Z</time>
      </trkpt>
      <trkpt lat="47.8724" lon="6.89578">
        <ele>1081</ele>
        <time>2014-06-21T19:31:57Z</time>
      </trkpt>
      <trkpt lat="47.87249" lon="6.89588">
        <ele>1081</ele>
        <time>2014-06-21T19:32:04Z</time>
      </trkpt>
      <trkpt lat="47.87251" lon="6.89591">
        <ele>1073</ele>
        <time>2014-06-21T19:32:06Z</time>
      </trkpt>
      <trkpt lat="47.87261" lon="6.89602">
        <ele>1068</ele>
        <time>2014-06-21T19:32:16Z</time>
      </trkpt>
      <trkpt lat="47.87268" lon="6.8961">
        <ele>1066</ele>
        <time>2014-06-21T19:32:26Z</time>
      </trkpt>
      <trkpt lat="47.8728" lon="6.89615">
        <ele>1063</ele>
        <time>2014-06-21T19:32:39Z</time>
      </trkpt>
      <trkpt lat="47.8729" lon="6.89627">
        <ele>1061</ele>
        <time>2014-06-21T19:32:49Z</time>
      </trkpt>
      <trkpt lat="47.87293" lon="6.89628">
        <ele>1060</ele>
        <time>2014-06-21T19:32:51Z</time>
      </trkpt>
      <trkpt lat="47.87305" lon="6.89633">
        <ele>1058</ele>
        <time>2014-06-21T19:33:02Z</time>
      </trkpt>
      <trkpt lat="47.8731" lon="6.89649">
        <ele>1056</ele>
        <time>2014-06-21T19:33:12Z</time>
      </trkpt>
      <trkpt lat="47.87312" lon="6.89654">
        <ele>1056</ele>
        <time>2014-06-21T19:33:15Z</time>
      </trkpt>
      <trkpt lat="47.87312" lon="6.89658">
        <ele>1055</ele>
        <time>2014-06-21T19:33:18Z</time>
      </trkpt>
      <trkpt lat="47.87323" lon="6.89671">
        <ele>1050</ele>
        <time>2014-06-21T19:33:28Z</time>
      </trkpt>
      <trkpt lat="47.87328" lon="6.89678">
        <ele>1049</ele>
        <time>2014-06-21T19:33:32Z</time>
      </trkpt>
      <trkpt lat="47.87332" lon="6.89691">
        <ele>1050</ele>
        <time>2014-06-21T19:33:43Z</time>
      </trkpt>
      <trkpt lat="47.87325" lon="6.89708">
        <ele>1050</ele>
        <time>2014-06-21T19:33:53Z</time>
      </trkpt>
      <trkpt lat="47.87325" lon="6.89716">
        <ele>1049</ele>
        <time>2014-06-21T19:34:09Z</time>
      </trkpt>
      <trkpt lat="47.87328" lon="6.89715">
        <ele>1049</ele>
        <time>2014-06-21T19:34:12Z</time>
      </trkpt>
      <trkpt lat="47.87332" lon="6.89714">
        <ele>1049</ele>
        <time>2014-06-21T19:34:14Z</time>
      </trkpt>
      <trkpt lat="47.87337" lon="6.897">
        <ele>1027</ele>
        <time>2014-06-21T19:34:26Z</time>
      </trkpt>
      <trkpt lat="47.87346" lon="6.89687">
        <ele>1028</ele>
        <time>2014-06-21T19:34:36Z</time>
      </trkpt>
      <trkpt lat="47.87349" lon="6.89684">
        <ele>1028</ele>
        <time>2014-06-21T19:34:38Z</time>
      </trkpt>
      <trkpt lat="47.87352" lon="6.89681">
        <ele>1028</ele>
        <time>2014-06-21T19:34:40Z</time>
      </trkpt>
      <trkpt lat="47.87358" lon="6.89667">
        <ele>1027</ele>
        <time>2014-06-21T19:34:51Z</time>
      </trkpt>
      <trkpt lat="47.8736" lon="6.89652">
        <ele>1025</ele>
        <time>2014-06-21T19:35:02Z</time>
      </trkpt>
      <trkpt lat="47.87361" lon="6.89647">
        <ele>1024</ele>
        <time>2014-06-21T19:35:08Z</time>
      </trkpt>
      <trkpt lat="47.87371" lon="6.89627">
        <ele>1019</ele>
        <time>2014-06-21T19:35:22Z</time>
      </trkpt>
      <trkpt lat="47.87372" lon="6.89631">
        <ele>1019</ele>
        <time>2014-06-21T19:35:31Z</time>
      </trkpt>
      <trkpt lat="47.87379" lon="6.89641">
        <ele>1018</ele>
        <time>2014-06-21T19:35:41Z</time>
      </trkpt>
      <trkpt lat="47.87382" lon="6.89645">
        <ele>1017</ele>
        <time>2014-06-21T19:35:44Z</time>
      </trkpt>
      <trkpt lat="47.87389" lon="6.89655">
        <ele>1015</ele>
        <time>2014-06-21T19:35:54Z</time>
      </trkpt>
      <trkpt lat="47.87385" lon="6.89658">
        <ele>1016</ele>
        <time>2014-06-21T19:35:57Z</time>
      </trkpt>
      <trkpt lat="47.87395" lon="6.89671">
        <ele>1013</ele>
        <time>2014-06-21T19:36:09Z</time>
      </trkpt>
      <trkpt lat="47.87401" lon="6.89683">
        <ele>1012</ele>
        <time>2014-06-21T19:36:18Z</time>
      </trkpt>
      <trkpt lat="47.87403" lon="6.897">
        <ele>1012</ele>
        <time>2014-06-21T19:36:29Z</time>
      </trkpt>
      <trkpt lat="47.87404" lon="6.89717">
        <ele>1010</ele>
        <time>2014-06-21T19:36:39Z</time>
      </trkpt>
      <trkpt lat="47.87405" lon="6.8972">
        <ele>1010</ele>
        <time>2014-06-21T19:36:40Z</time>
      </trkpt>
      <trkpt lat="47.87405" lon="6.89737">
        <ele>1005</ele>
        <time>2014-06-21T19:36:45Z</time>
      </trkpt>
      <trkpt lat="47.87414" lon="6.89742">
        <ele>999</ele>
        <time>2014-06-21T19:36:56Z</time>
      </trkpt>
      <trkpt lat="47.87416" lon="6.89737">
        <ele>1002</ele>
        <time>2014-06-21T19:36:59Z</time>
      </trkpt>
      <trkpt lat="47.87434" lon="6.89729">
        <ele>981</ele>
        <time>2014-06-21T19:37:11Z</time>
      </trkpt>
      <trkpt lat="47.87438" lon="6.89729">
        <ele>980</ele>
        <time>2014-06-21T19:37:13Z</time>
      </trkpt>
      <trkpt lat="47.87445" lon="6.89726">
        <ele>978</ele>
        <time>2014-06-21T19:37:17Z</time>
      </trkpt>
      <trkpt lat="47.8745" lon="6.89727">
        <ele>976</ele>
        <time>2014-06-21T19:37:25Z</time>
      </trkpt>
      <trkpt lat="47.87436" lon="6.89743">
        <ele>982</ele>
        <time>2014-06-21T19:37:37Z</time>
      </trkpt>
      <trkpt lat="47.87431" lon="6.8977">
        <ele>972</ele>
        <time>2014-06-21T19:37:48Z</time>
      </trkpt>
      <trkpt lat="47.8743" lon="6.89779">
        <ele>969</ele>
        <time>2014-06-21T19:37:52Z</time>
      </trkpt>
      <trkpt lat="47.87426" lon="6.89791">
        <ele>966</ele>
        <time>2014-06-21T19:38:02Z</time>
      </trkpt>
      <trkpt lat="47.87416" lon="6.89799">
        <ele>986</ele>
        <time>2014-06-21T19:38:13Z</time>
      </trkpt>
      <trkpt lat="47.87412" lon="6.89801">
        <ele>986</ele>
        <time>2014-06-21T19:38:15Z</time>
      </trkpt>
      <trkpt lat="47.87393" lon="6.89812">
        <ele>986</ele>
        <time>2014-06-21T19:38:25Z</time>
      </trkpt>
      <trkpt lat="47.8739" lon="6.89817">
        <ele>985</ele>
        <time>2014-06-21T19:38:27Z</time>
      </trkpt>
      <trkpt lat="47.87383" lon="6.89837">
        <ele>969</ele>
        <time>2014-06-21T19:38:36Z</time>
      </trkpt>
      <trkpt lat="47.87376" lon="6.89858">
        <ele>969</ele>
        <time>2014-06-21T19:38:48Z</time>
      </trkpt>
      <trkpt lat="47.87374" lon="6.89862">
        <ele>969</ele>
        <time>2014-06-21T19:38:50Z</time>
      </trkpt>
      <trkpt lat="47.87371" lon="6.89868">
        <ele>969</ele>
        <time>2014-06-21T19:38:54Z</time>
      </trkpt>
      <trkpt lat="47.87364" lon="6.89885">
        <ele>968</ele>
        <time>2014-06-21T19:39:04Z</time>
      </trkpt>
      <trkpt lat="47.87366" lon="6.8989">
        <ele>967</ele>
        <time>2014-06-21T19:39:06Z</time>
      </trkpt>
      <trkpt lat="47.8737" lon="6.89914">
        <ele>965</ele>
        <time>2014-06-21T19:39:16Z</time>
      </trkpt>
      <trkpt lat="47.87373" lon="6.89934">
        <ele>960</ele>
        <time>2014-06-21T19:39:24Z</time>
      </trkpt>
      <trkpt lat="47.87375" lon="6.89936">
        <ele>960</ele>
        <time>2014-06-21T19:39:26Z</time>
      </trkpt>
      <trkpt lat="47.87378" lon="6.89934">
        <ele>959</ele>
        <time>2014-06-21T19:39:29Z</time>
      </trkpt>
      <trkpt lat="47.87389" lon="6.89921">
        <ele>955</ele>
        <time>2014-06-21T19:39:36Z</time>
      </trkpt>
      <trkpt lat="47.87406" lon="6.89918">
        <ele>948</ele>
        <time>2014-06-21T19:39:47Z</time>
      </trkpt>
      <trkpt lat="47.87412" lon="6.89918">
        <ele>944</ele>
        <time>2014-06-21T19:39:53Z</time>
      </trkpt>
      <trkpt lat="47.87416" lon="6.89919">
        <ele>943</ele>
        <time>2014-06-21T19:39:56Z</time>
      </trkpt>
      <trkpt lat="47.87429" lon="6.89918">
        <ele>939</ele>
        <time>2014-06-21T19:40:06Z</time>
      </trkpt>
      <trkpt lat="47.87447" lon="6.89923">
        <ele>937</ele>
        <time>2014-06-21T19:40:16Z</time>
      </trkpt>
      <trkpt lat="47.87464" lon="6.8993">
        <ele>935</ele>
        <time>2014-06-21T19:40:27Z</time>
      </trkpt>
      <trkpt lat="47.87467" lon="6.89932">
        <ele>935</ele>
        <time>2014-06-21T19:40:29Z</time>
      </trkpt>
      <trkpt lat="47.87475" lon="6.89931">
        <ele>933</ele>
        <time>2014-06-21T19:40:49Z</time>
      </trkpt>
      <trkpt lat="47.87473" lon="6.89926">
        <ele>933</ele>
        <time>2014-06-21T19:41:03Z</time>
      </trkpt>
      <trkpt lat="47.87474" lon="6.89931">
        <ele>934</ele>
        <time>2014-06-21T19:41:24Z</time>
      </trkpt>
      <trkpt lat="47.87477" lon="6.89949">
        <ele>935</ele>
        <time>2014-06-21T19:41:34Z</time>
      </trkpt>
      <trkpt lat="47.87481" lon="6.89966">
        <ele>935</ele>
        <time>2014-06-21T19:41:49Z</time>
      </trkpt>
      <trkpt lat="47.87484" lon="6.89969">
        <ele>935</ele>
        <time>2014-06-21T19:41:53Z</time>
      </trkpt>
      <trkpt lat="47.87494" lon="6.89977">
        <ele>934</ele>
        <time>2014-06-21T19:41:59Z</time>
      </trkpt>
      <trkpt lat="47.875" lon="6.89986">
        <ele>934</ele>
        <time>2014-06-21T19:42:11Z</time>
      </trkpt>
      <trkpt lat="47.87507" lon="6.89988">
        <ele>927</ele>
        <time>2014-06-21T19:42:19Z</time>
      </trkpt>
      <trkpt lat="47.87526" lon="6.89998">
        <ele>924</ele>
        <time>2014-06-21T19:42:29Z</time>
      </trkpt>
      <trkpt lat="47.87529" lon="6.89999">
        <ele>923</ele>
        <time>2014-06-21T19:42:31Z</time>
      </trkpt>
      <trkpt lat="47.87538" lon="6.9">
        <ele>934</ele>
        <time>2014-06-21T19:42:42Z</time>
      </trkpt>
      <trkpt lat="47.87545" lon="6.9">
        <ele>920</ele>
        <time>2014-06-21T19:42:54Z</time>
      </trkpt>
      <trkpt lat="47.87555" lon="6.90003">
        <ele>931</ele>
        <time>2014-06-21T19:42:59Z</time>
      </trkpt>
      <trkpt lat="47.87558" lon="6.90005">
        <ele>930</ele>
        <time>2014-06-21T19:43:00Z</time>
      </trkpt>
      <trkpt lat="47.87569" lon="6.90008">
        <ele>927</ele>
        <time>2014-06-21T19:43:06Z</time>
      </trkpt>
      <trkpt lat="47.87578" lon="6.89998">
        <ele>917</ele>
        <time>2014-06-21T19:43:16Z</time>
      </trkpt>
      <trkpt lat="47.87595" lon="6.89999">
        <ele>910</ele>
        <time>2014-06-21T19:43:26Z</time>
      </trkpt>
      <trkpt lat="47.87598" lon="6.9">
        <ele>919</ele>
        <time>2014-06-21T19:43:28Z</time>
      </trkpt>
      <trkpt lat="47.87609" lon="6.90016">
        <ele>920</ele>
        <time>2014-06-21T19:43:39Z</time>
      </trkpt>
      <trkpt lat="47.87618" lon="6.90024">
        <ele>920</ele>
        <time>2014-06-21T19:43:50Z</time>
      </trkpt>
      <trkpt lat="47.87634" lon="6.90028">
        <ele>919</ele>
        <time>2014-06-21T19:44:01Z</time>
      </trkpt>
      <trkpt lat="47.87647" lon="6.90025">
        <ele>916</ele>
        <time>2014-06-21T19:44:11Z</time>
      </trkpt>
      <trkpt lat="47.87659" lon="6.90013">
        <ele>909</ele>
        <time>2014-06-21T19:44:22Z</time>
      </trkpt>
      <trkpt lat="47.87662" lon="6.90014">
        <ele>909</ele>
        <time>2014-06-21T19:44:23Z</time>
      </trkpt>
      <trkpt lat="47.87682" lon="6.90014">
        <ele>903</ele>
        <time>2014-06-21T19:44:33Z</time>
      </trkpt>
      <trkpt lat="47.87684" lon="6.90017">
        <ele>903</ele>
        <time>2014-06-21T19:44:35Z</time>
      </trkpt>
      <trkpt lat="47.87686" lon="6.9002">
        <ele>904</ele>
        <time>2014-06-21T19:44:37Z</time>
      </trkpt>
      <trkpt lat="47.87699" lon="6.90033">
        <ele>906</ele>
        <time>2014-06-21T19:44:49Z</time>
      </trkpt>
      <trkpt lat="47.87705" lon="6.90035">
        <ele>906</ele>
        <time>2014-06-21T19:44:59Z</time>
      </trkpt>
      <trkpt lat="47.87718" lon="6.90039">
        <ele>905</ele>
        <time>2014-06-21T19:45:08Z</time>
      </trkpt>
      <trkpt lat="47.87733" lon="6.90046">
        <ele>905</ele>
        <time>2014-06-21T19:45:15Z</time>
      </trkpt>
      <trkpt lat="47.87748" lon="6.90057">
        <ele>907</ele>
        <time>2014-06-21T19:45:27Z</time>
      </trkpt>
      <trkpt lat="47.8775" lon="6.9006">
        <ele>898</ele>
        <time>2014-06-21T19:45:29Z</time>
      </trkpt>
      <trkpt lat="47.87757" lon="6.90078">
        <ele>905</ele>
        <time>2014-06-21T19:45:39Z</time>
      </trkpt>
      <trkpt lat="47.87761" lon="6.90094">
        <ele>909</ele>
        <time>2014-06-21T19:45:45Z</time>
      </trkpt>
      <trkpt lat="47.87767" lon="6.901">
        <ele>909</ele>
        <time>2014-06-21T19:45:55Z</time>
      </trkpt>
      <trkpt lat="47.87772" lon="6.90103">
        <ele>908</ele>
        <time>2014-06-21T19:45:58Z</time>
      </trkpt>
      <trkpt lat="47.87779" lon="6.90117">
        <ele>908</ele>
        <time>2014-06-21T19:46:08Z</time>
      </trkpt>
      <trkpt lat="47.87787" lon="6.90131">
        <ele>908</ele>
        <time>2014-06-21T19:46:14Z</time>
      </trkpt>
      <trkpt lat="47.87796" lon="6.90139">
        <ele>907</ele>
        <time>2014-06-21T19:46:18Z</time>
      </trkpt>
      <trkpt lat="47.87804" lon="6.90153">
        <ele>906</ele>
        <time>2014-06-21T19:46:28Z</time>
      </trkpt>
      <trkpt lat="47.87805" lon="6.90156">
        <ele>906</ele>
        <time>2014-06-21T19:46:32Z</time>
      </trkpt>
      <trkpt lat="47.87814" lon="6.90179">
        <ele>912</ele>
        <time>2014-06-21T19:46:43Z</time>
      </trkpt>
      <trkpt lat="47.87814" lon="6.90193">
        <ele>915</ele>
        <time>2014-06-21T19:46:54Z</time>
      </trkpt>
      <trkpt lat="47.87817" lon="6.90195">
        <ele>915</ele>
        <time>2014-06-21T19:46:58Z</time>
      </trkpt>
      <trkpt lat="47.87824" lon="6.90192">
        <ele>913</ele>
        <time>2014-06-21T19:47:07Z</time>
      </trkpt>
      <trkpt lat="47.87839" lon="6.90184">
        <ele>901</ele>
        <time>2014-06-21T19:47:15Z</time>
      </trkpt>
      <trkpt lat="47.87843" lon="6.90185">
        <ele>901</ele>
        <time>2014-06-21T19:47:17Z</time>
      </trkpt>
      <trkpt lat="47.87857" lon="6.90191">
        <ele>902</ele>
        <time>2014-06-21T19:47:27Z</time>
      </trkpt>
      <trkpt lat="47.87873" lon="6.90184">
        <ele>901</ele>
        <time>2014-06-21T19:47:39Z</time>
      </trkpt>
      <trkpt lat="47.87877" lon="6.90171">
        <ele>900</ele>
        <time>2014-06-21T19:47:49Z</time>
      </trkpt>
      <trkpt lat="47.87894" lon="6.90169">
        <ele>897</ele>
        <time>2014-06-21T19:47:59Z</time>
      </trkpt>
      <trkpt lat="47.87898" lon="6.90168">
        <ele>896</ele>
        <time>2014-06-21T19:48:01Z</time>
      </trkpt>
      <trkpt lat="47.87915" lon="6.9017">
        <ele>891</ele>
        <time>2014-06-21T19:48:09Z</time>
      </trkpt>
      <trkpt lat="47.87934" lon="6.90162">
        <ele>881</ele>
        <time>2014-06-21T19:48:19Z</time>
      </trkpt>
      <trkpt lat="47.87937" lon="6.90163">
        <ele>880</ele>
        <time>2014-06-21T19:48:21Z</time>
      </trkpt>
      <trkpt lat="47.8794" lon="6.90164">
        <ele>880</ele>
        <time>2014-06-21T19:48:23Z</time>
      </trkpt>
      <trkpt lat="47.87942" lon="6.90167">
        <ele>893</ele>
        <time>2014-06-21T19:48:24Z</time>
      </trkpt>
      <trkpt lat="47.87945" lon="6.90171">
        <ele>893</ele>
        <time>2014-06-21T19:48:27Z</time>
      </trkpt>
      <trkpt lat="47.87959" lon="6.90177">
        <ele>893</ele>
        <time>2014-06-21T19:48:37Z</time>
      </trkpt>
      <trkpt lat="47.87962" lon="6.90179">
        <ele>893</ele>
        <time>2014-06-21T19:48:39Z</time>
      </trkpt>
      <trkpt lat="47.87968" lon="6.90184">
        <ele>893</ele>
        <time>2014-06-21T19:48:48Z</time>
      </trkpt>
      <trkpt lat="47.87984" lon="6.90193">
        <ele>893</ele>
        <time>2014-06-21T19:48:59Z</time>
      </trkpt>
      <trkpt lat="47.87996" lon="6.90199">
        <ele>894</ele>
        <time>2014-06-21T19:49:09Z</time>
      </trkpt>
      <trkpt lat="47.88004" lon="6.90207">
        <ele>887</ele>
        <time>2014-06-21T19:49:19Z</time>
      </trkpt>
      <trkpt lat="47.8802" lon="6.90222">
        <ele>889</ele>
        <time>2014-06-21T19:49:30Z</time>
      </trkpt>
      <trkpt lat="47.88025" lon="6.90228">
        <ele>889</ele>
        <time>2014-06-21T19:49:36Z</time>
      </trkpt>
      <trkpt lat="47.88042" lon="6.90243">
        <ele>886</ele>
        <time>2014-06-21T19:49:48Z</time>
      </trkpt>
      <trkpt lat="47.88054" lon="6.90252">
        <ele>894</ele>
        <time>2014-06-21T19:49:58Z</time>
      </trkpt>
      <trkpt lat="47.88061" lon="6.90267">
        <ele>894</ele>
        <time>2014-06-21T19:50:09Z</time>
      </trkpt>
      <trkpt lat="47.88062" lon="6.90285">
        <ele>897</ele>
        <time>2014-06-21T19:50:19Z</time>
      </trkpt>
      <trkpt lat="47.88064" lon="6.90295">
        <ele>898</ele>
        <time>2014-06-21T19:50:24Z</time>
      </trkpt>
      <trkpt lat="47.88071" lon="6.90314">
        <ele>898</ele>
        <time>2014-06-21T19:50:36Z</time>
      </trkpt>
      <trkpt lat="47.88077" lon="6.90319">
        <ele>897</ele>
        <time>2014-06-21T19:50:42Z</time>
      </trkpt>
      <trkpt lat="47.8809" lon="6.90317">
        <ele>891</ele>
        <time>2014-06-21T19:50:52Z</time>
      </trkpt>
      <trkpt lat="47.88093" lon="6.90313">
        <ele>891</ele>
        <time>2014-06-21T19:50:54Z</time>
      </trkpt>
      <trkpt lat="47.88099" lon="6.90307">
        <ele>890</ele>
        <time>2014-06-21T19:50:58Z</time>
      </trkpt>
      <trkpt lat="47.8811" lon="6.903">
        <ele>890</ele>
        <time>2014-06-21T19:51:04Z</time>
      </trkpt>
      <trkpt lat="47.88122" lon="6.90296">
        <ele>890</ele>
        <time>2014-06-21T19:51:10Z</time>
      </trkpt>
      <trkpt lat="47.88125" lon="6.90295">
        <ele>890</ele>
        <time>2014-06-21T19:51:12Z</time>
      </trkpt>
      <trkpt lat="47.8814" lon="6.90298">
        <ele>891</ele>
        <time>2014-06-21T19:51:22Z</time>
      </trkpt>
      <trkpt lat="47.88144" lon="6.90297">
        <ele>891</ele>
        <time>2014-06-21T19:51:24Z</time>
      </trkpt>
      <trkpt lat="47.88146" lon="6.90295">
        <ele>890</ele>
        <time>2014-06-21T19:51:26Z</time>
      </trkpt>
      <trkpt lat="47.88155" lon="6.90279">
        <ele>889</ele>
        <time>2014-06-21T19:51:36Z</time>
      </trkpt>
      <trkpt lat="47.88158" lon="6.90245">
        <ele>883</ele>
        <time>2014-06-21T19:51:46Z</time>
      </trkpt>
      <trkpt lat="47.88156" lon="6.9024">
        <ele>882</ele>
        <time>2014-06-21T19:51:48Z</time>
      </trkpt>
      <trkpt lat="47.88157" lon="6.90236">
        <ele>882</ele>
        <time>2014-06-21T19:51:50Z</time>
      </trkpt>
      <trkpt lat="47.88162" lon="6.90216">
        <ele>880</ele>
        <time>2014-06-21T19:52:01Z</time>
      </trkpt>
      <trkpt lat="47.88165" lon="6.9021">
        <ele>880</ele>
        <time>2014-06-21T19:52:06Z</time>
      </trkpt>
      <trkpt lat="47.88169" lon="6.90189">
        <ele>891</ele>
        <time>2014-06-21T19:52:21Z</time>
      </trkpt>
      <trkpt lat="47.88184" lon="6.90177">
        <ele>891</ele>
        <time>2014-06-21T19:52:31Z</time>
      </trkpt>
      <trkpt lat="47.88183" lon="6.90155">
        <ele>892</ele>
        <time>2014-06-21T19:52:43Z</time>
      </trkpt>
      <trkpt lat="47.88186" lon="6.90145">
        <ele>895</ele>
        <time>2014-06-21T19:52:47Z</time>
      </trkpt>
      <trkpt lat="47.88189" lon="6.90137">
        <ele>896</ele>
        <time>2014-06-21T19:52:51Z</time>
      </trkpt>
      <trkpt lat="47.88191" lon="6.90125">
        <ele>897</ele>
        <time>2014-06-21T19:53:00Z</time>
      </trkpt>
      <trkpt lat="47.88191" lon="6.9012">
        <ele>897</ele>
        <time>2014-06-21T19:53:03Z</time>
      </trkpt>
      <trkpt lat="47.88189" lon="6.90103">
        <ele>896</ele>
        <time>2014-06-21T19:53:14Z</time>
      </trkpt>
      <trkpt lat="47.88188" lon="6.90099">
        <ele>896</ele>
        <time>2014-06-21T19:53:16Z</time>
      </trkpt>
      <trkpt lat="47.88184" lon="6.90092">
        <ele>894</ele>
        <time>2014-06-21T19:53:19Z</time>
      </trkpt>
      <trkpt lat="47.88181" lon="6.90087">
        <ele>893</ele>
        <time>2014-06-21T19:53:21Z</time>
      </trkpt>
      <trkpt lat="47.88174" lon="6.90071">
        <ele>896</ele>
        <time>2014-06-21T19:53:31Z</time>
      </trkpt>
      <trkpt lat="47.88172" lon="6.90057">
        <ele>901</ele>
        <time>2014-06-21T19:53:38Z</time>
      </trkpt>
      <trkpt lat="47.88167" lon="6.90049">
        <ele>902</ele>
        <time>2014-06-21T19:53:44Z</time>
      </trkpt>
      <trkpt lat="47.88158" lon="6.90029">
        <ele>884</ele>
        <time>2014-06-21T19:53:55Z</time>
      </trkpt>
      <trkpt lat="47.88156" lon="6.90025">
        <ele>885</ele>
        <time>2014-06-21T19:53:59Z</time>
      </trkpt>
      <trkpt lat="47.88146" lon="6.90008">
        <ele>885</ele>
        <time>2014-06-21T19:54:09Z</time>
      </trkpt>
      <trkpt lat="47.88146" lon="6.90002">
        <ele>886</ele>
        <time>2014-06-21T19:54:11Z</time>
      </trkpt>
      <trkpt lat="47.88139" lon="6.89986">
        <ele>887</ele>
        <time>2014-06-21T19:54:21Z</time>
      </trkpt>
      <trkpt lat="47.88137" lon="6.89977">
        <ele>887</ele>
        <time>2014-06-21T19:54:26Z</time>
      </trkpt>
      <trkpt lat="47.88134" lon="6.89967">
        <ele>886</ele>
        <time>2014-06-21T19:54:38Z</time>
      </trkpt>
      <trkpt lat="47.88127" lon="6.89944">
        <ele>886</ele>
        <time>2014-06-21T19:54:47Z</time>
      </trkpt>
      <trkpt lat="47.88122" lon="6.89915">
        <ele>890</ele>
        <time>2014-06-21T19:54:57Z</time>
      </trkpt>
      <trkpt lat="47.88119" lon="6.89911">
        <ele>889</ele>
        <time>2014-06-21T19:54:59Z</time>
      </trkpt>
      <trkpt lat="47.88117" lon="6.89906">
        <ele>889</ele>
        <time>2014-06-21T19:55:01Z</time>
      </trkpt>
      <trkpt lat="47.88111" lon="6.89889">
        <ele>889</ele>
        <time>2014-06-21T19:55:11Z</time>
      </trkpt>
      <trkpt lat="47.881" lon="6.89875">
        <ele>888</ele>
        <time>2014-06-21T19:55:20Z</time>
      </trkpt>
      <trkpt lat="47.88098" lon="6.89871">
        <ele>888</ele>
        <time>2014-06-21T19:55:22Z</time>
      </trkpt>
      <trkpt lat="47.88094" lon="6.89857">
        <ele>887</ele>
        <time>2014-06-21T19:55:29Z</time>
      </trkpt>
      <trkpt lat="47.88091" lon="6.89833">
        <ele>885</ele>
        <time>2014-06-21T19:55:42Z</time>
      </trkpt>
      <trkpt lat="47.88102" lon="6.89813">
        <ele>892</ele>
        <time>2014-06-21T19:55:53Z</time>
      </trkpt>
      <trkpt lat="47.88108" lon="6.89799">
        <ele>894</ele>
        <time>2014-06-21T19:56:02Z</time>
      </trkpt>
      <trkpt lat="47.88108" lon="6.89794">
        <ele>894</ele>
        <time>2014-06-21T19:56:04Z</time>
      </trkpt>
      <trkpt lat="47.88108" lon="6.89785">
        <ele>894</ele>
        <time>2014-06-21T19:56:08Z</time>
      </trkpt>
      <trkpt lat="47.88103" lon="6.89763">
        <ele>892</ele>
        <time>2014-06-21T19:56:20Z</time>
      </trkpt>
      <trkpt lat="47.88101" lon="6.89747">
        <ele>891</ele>
        <time>2014-06-21T19:56:30Z</time>
      </trkpt>
      <trkpt lat="47.88095" lon="6.89723">
        <ele>893</ele>
        <time>2014-06-21T19:56:41Z</time>
      </trkpt>
      <trkpt lat="47.88094" lon="6.89717">
        <ele>894</ele>
        <time>2014-06-21T19:56:43Z</time>
      </trkpt>
      <trkpt lat="47.88097" lon="6.89712">
        <ele>895</ele>
        <time>2014-06-21T19:56:45Z</time>
      </trkpt>
      <trkpt lat="47.88099" lon="6.89694">
        <ele>894</ele>
        <time>2014-06-21T19:56:55Z</time>
      </trkpt>
      <trkpt lat="47.88098" lon="6.89679">
        <ele>892</ele>
        <time>2014-06-21T19:57:04Z</time>
      </trkpt>
      <trkpt lat="47.88098" lon="6.89674">
        <ele>891</ele>
        <time>2014-06-21T19:57:07Z</time>
      </trkpt>
      <trkpt lat="47.88097" lon="6.89648">
        <ele>893</ele>
        <time>2014-06-21T19:57:18Z</time>
      </trkpt>
      <trkpt lat="47.88093" lon="6.89633">
        <ele>894</ele>
        <time>2014-06-21T19:57:28Z</time>
      </trkpt>
      <trkpt lat="47.88078" lon="6.89615">
        <ele>868</ele>
        <time>2014-06-21T19:57:38Z</time>
      </trkpt>
      <trkpt lat="47.88079" lon="6.89597">
        <ele>871</ele>
        <time>2014-06-21T19:57:46Z</time>
      </trkpt>
      <trkpt lat="47.88082" lon="6.89573">
        <ele>872</ele>
        <time>2014-06-21T19:57:59Z</time>
      </trkpt>
      <trkpt lat="47.88081" lon="6.89568">
        <ele>869</ele>
        <time>2014-06-21T19:58:03Z</time>
      </trkpt>
      <trkpt lat="47.88078" lon="6.8956">
        <ele>866</ele>
        <time>2014-06-21T19:58:31Z</time>
      </trkpt>
      <trkpt lat="47.88078" lon="6.89556">
        <ele>865</ele>
        <time>2014-06-21T19:58:33Z</time>
      </trkpt>
      <trkpt lat="47.88081" lon="6.89542">
        <ele>863</ele>
        <time>2014-06-21T19:58:43Z</time>
      </trkpt>
      <trkpt lat="47.8808" lon="6.89538">
        <ele>863</ele>
        <time>2014-06-21T19:58:45Z</time>
      </trkpt>
      <trkpt lat="47.88091" lon="6.89521">
        <ele>884</ele>
        <time>2014-06-21T19:58:56Z</time>
      </trkpt>
      <trkpt lat="47.88094" lon="6.89519">
        <ele>884</ele>
        <time>2014-06-21T19:58:59Z</time>
      </trkpt>
      <trkpt lat="47.881" lon="6.89513">
        <ele>884</ele>
        <time>2014-06-21T19:59:11Z</time>
      </trkpt>
      <trkpt lat="47.88108" lon="6.89497">
        <ele>875</ele>
        <time>2014-06-21T19:59:22Z</time>
      </trkpt>
      <trkpt lat="47.88112" lon="6.89484">
        <ele>875</ele>
        <time>2014-06-21T19:59:32Z</time>
      </trkpt>
      <trkpt lat="47.88124" lon="6.89464">
        <ele>874</ele>
        <time>2014-06-21T19:59:45Z</time>
      </trkpt>
      <trkpt lat="47.8813" lon="6.89445">
        <ele>872</ele>
        <time>2014-06-21T19:59:56Z</time>
      </trkpt>
      <trkpt lat="47.88137" lon="6.89427">
        <ele>871</ele>
        <time>2014-06-21T20:00:07Z</time>
      </trkpt>
      <trkpt lat="47.88139" lon="6.89425">
        <ele>871</ele>
        <time>2014-06-21T20:00:09Z</time>
      </trkpt>
      <trkpt lat="47.88153" lon="6.89414">
        <ele>861</ele>
        <time>2014-06-21T20:00:20Z</time>
      </trkpt>
      <trkpt lat="47.88165" lon="6.89407">
        <ele>863</ele>
        <time>2014-06-21T20:00:30Z</time>
      </trkpt>
      <trkpt lat="47.8817" lon="6.89394">
        <ele>867</ele>
        <time>2014-06-21T20:00:40Z</time>
      </trkpt>
      <trkpt lat="47.88183" lon="6.89375">
        <ele>864</ele>
        <time>2014-06-21T20:00:50Z</time>
      </trkpt>
      <trkpt lat="47.88188" lon="6.89368">
        <ele>863</ele>
        <time>2014-06-21T20:00:54Z</time>
      </trkpt>
      <trkpt lat="47.8819" lon="6.89365">
        <ele>863</ele>
        <time>2014-06-21T20:00:56Z</time>
      </trkpt>
      <trkpt lat="47.882" lon="6.89352">
        <ele>862</ele>
        <time>2014-06-21T20:01:06Z</time>
      </trkpt>
      <trkpt lat="47.88206" lon="6.89341">
        <ele>862</ele>
        <time>2014-06-21T20:01:17Z</time>
      </trkpt>
      <trkpt lat="47.88215" lon="6.89322">
        <ele>845</ele>
        <time>2014-06-21T20:01:28Z</time>
      </trkpt>
      <trkpt lat="47.88229" lon="6.89323">
        <ele>850</ele>
        <time>2014-06-21T20:01:40Z</time>
      </trkpt>
      <trkpt lat="47.88249" lon="6.8932">
        <ele>854</ele>
        <time>2014-06-21T20:01:52Z</time>
      </trkpt>
      <trkpt lat="47.88253" lon="6.89319">
        <ele>861</ele>
        <time>2014-06-21T20:01:55Z</time>
      </trkpt>
      <trkpt lat="47.88256" lon="6.8932">
        <ele>861</ele>
        <time>2014-06-21T20:01:59Z</time>
      </trkpt>
      <trkpt lat="47.88266" lon="6.89307">
        <ele>859</ele>
        <time>2014-06-21T20:02:12Z</time>
      </trkpt>
      <trkpt lat="47.88269" lon="6.89304">
        <ele>858</ele>
        <time>2014-06-21T20:02:15Z</time>
      </trkpt>
      <trkpt lat="47.88276" lon="6.89287">
        <ele>855</ele>
        <time>2014-06-21T20:02:26Z</time>
      </trkpt>
      <trkpt lat="47.88281" lon="6.89288">
        <ele>856</ele>
        <time>2014-06-21T20:02:30Z</time>
      </trkpt>
      <trkpt lat="47.88293" lon="6.89279">
        <ele>856</ele>
        <time>2014-06-21T20:02:42Z</time>
      </trkpt>
      <trkpt lat="47.88305" lon="6.89271">
        <ele>856</ele>
        <time>2014-06-21T20:02:48Z</time>
      </trkpt>
      <trkpt lat="47.88313" lon="6.89255">
        <ele>855</ele>
        <time>2014-06-21T20:02:57Z</time>
      </trkpt>
      <trkpt lat="47.88315" lon="6.89252">
        <ele>855</ele>
        <time>2014-06-21T20:02:59Z</time>
      </trkpt>
      <trkpt lat="47.8832" lon="6.89246">
        <ele>845</ele>
        <time>2014-06-21T20:03:03Z</time>
      </trkpt>
      <trkpt lat="47.88324" lon="6.89239">
        <ele>845</ele>
        <time>2014-06-21T20:03:08Z</time>
      </trkpt>
      <trkpt lat="47.88323" lon="6.89219">
        <ele>838</ele>
        <time>2014-06-21T20:03:17Z</time>
      </trkpt>
      <trkpt lat="47.88325" lon="6.89213">
        <ele>837</ele>
        <time>2014-06-21T20:03:20Z</time>
      </trkpt>
      <trkpt lat="47.88328" lon="6.89204">
        <ele>836</ele>
        <time>2014-06-21T20:03:25Z</time>
      </trkpt>
      <trkpt lat="47.8834" lon="6.89198">
        <ele>848</ele>
        <time>2014-06-21T20:03:36Z</time>
      </trkpt>
      <trkpt lat="47.88346" lon="6.89197">
        <ele>849</ele>
        <time>2014-06-21T20:03:43Z</time>
      </trkpt>
      <trkpt lat="47.88354" lon="6.89183">
        <ele>847</ele>
        <time>2014-06-21T20:03:54Z</time>
      </trkpt>
      <trkpt lat="47.88369" lon="6.89165">
        <ele>836</ele>
        <time>2014-06-21T20:04:05Z</time>
      </trkpt>
      <trkpt lat="47.88377" lon="6.89161">
        <ele>838</ele>
        <time>2014-06-21T20:04:09Z</time>
      </trkpt>
      <trkpt lat="47.88393" lon="6.8914">
        <ele>839</ele>
        <time>2014-06-21T20:04:20Z</time>
      </trkpt>
      <trkpt lat="47.88396" lon="6.89138">
        <ele>839</ele>
        <time>2014-06-21T20:04:21Z</time>
      </trkpt>
      <trkpt lat="47.884" lon="6.89135">
        <ele>839</ele>
        <time>2014-06-21T20:04:23Z</time>
      </trkpt>
      <trkpt lat="47.88418" lon="6.89122">
        <ele>853</ele>
        <time>2014-06-21T20:04:36Z</time>
      </trkpt>
      <trkpt lat="47.88415" lon="6.89102">
        <ele>835</ele>
        <time>2014-06-21T20:04:45Z</time>
      </trkpt>
      <trkpt lat="47.88414" lon="6.89071">
        <ele>827</ele>
        <time>2014-06-21T20:04:57Z</time>
      </trkpt>
      <trkpt lat="47.88421" lon="6.89049">
        <ele>837</ele>
        <time>2014-06-21T20:05:08Z</time>
      </trkpt>
      <trkpt lat="47.88422" lon="6.89043">
        <ele>836</ele>
        <time>2014-06-21T20:05:11Z</time>
      </trkpt>
      <trkpt lat="47.88433" lon="6.89028">
        <ele>835</ele>
        <time>2014-06-21T20:05:22Z</time>
      </trkpt>
      <trkpt lat="47.88442" lon="6.89015">
        <ele>834</ele>
        <time>2014-06-21T20:05:34Z</time>
      </trkpt>
      <trkpt lat="47.88445" lon="6.89006">
        <ele>834</ele>
        <time>2014-06-21T20:05:41Z</time>
      </trkpt>
      <trkpt lat="47.88449" lon="6.88985">
        <ele>825</ele>
        <time>2014-06-21T20:05:52Z</time>
      </trkpt>
      <trkpt lat="47.8845" lon="6.88981">
        <ele>825</ele>
        <time>2014-06-21T20:05:54Z</time>
      </trkpt>
      <trkpt lat="47.88457" lon="6.88964">
        <ele>825</ele>
        <time>2014-06-21T20:06:04Z</time>
      </trkpt>
      <trkpt lat="47.88461" lon="6.88955">
        <ele>825</ele>
        <time>2014-06-21T20:06:10Z</time>
      </trkpt>
      <trkpt lat="47.88461" lon="6.88932">
        <ele>823</ele>
        <time>2014-06-21T20:06:20Z</time>
      </trkpt>
      <trkpt lat="47.88464" lon="6.88925">
        <ele>823</ele>
        <time>2014-06-21T20:06:30Z</time>
      </trkpt>
      <trkpt lat="47.88467" lon="6.88921">
        <ele>823</ele>
        <time>2014-06-21T20:06:33Z</time>
      </trkpt>
      <trkpt lat="47.88473" lon="6.88911">
        <ele>816</ele>
        <time>2014-06-21T20:06:39Z</time>
      </trkpt>
      <trkpt lat="47.88476" lon="6.88896">
        <ele>815</ele>
        <time>2014-06-21T20:06:48Z</time>
      </trkpt>
      <trkpt lat="47.88482" lon="6.88872">
        <ele>812</ele>
        <time>2014-06-21T20:06:59Z</time>
      </trkpt>
      <trkpt lat="47.88485" lon="6.88869">
        <ele>812</ele>
        <time>2014-06-21T20:07:01Z</time>
      </trkpt>
      <trkpt lat="47.88494" lon="6.88859">
        <ele>812</ele>
        <time>2014-06-21T20:07:08Z</time>
      </trkpt>
      <trkpt lat="47.88502" lon="6.88853">
        <ele>817</ele>
        <time>2014-06-21T20:07:14Z</time>
      </trkpt>
      <trkpt lat="47.8851" lon="6.88831">
        <ele>810</ele>
        <time>2014-06-21T20:07:26Z</time>
      </trkpt>
      <trkpt lat="47.88512" lon="6.88828">
        <ele>809</ele>
        <time>2014-06-21T20:07:29Z</time>
      </trkpt>
      <trkpt lat="47.88517" lon="6.88822">
        <ele>808</ele>
        <time>2014-06-21T20:07:34Z</time>
      </trkpt>
      <trkpt lat="47.8852" lon="6.88804">
        <ele>806</ele>
        <time>2014-06-21T20:07:44Z</time>
      </trkpt>
      <trkpt lat="47.88521" lon="6.88794">
        <ele>805</ele>
        <time>2014-06-21T20:07:47Z</time>
      </trkpt>
      <trkpt lat="47.88522" lon="6.88785">
        <ele>804</ele>
        <time>2014-06-21T20:07:52Z</time>
      </trkpt>
      <trkpt lat="47.88528" lon="6.88769">
        <ele>803</ele>
        <time>2014-06-21T20:08:00Z</time>
      </trkpt>
      <trkpt lat="47.88537" lon="6.88753">
        <ele>802</ele>
        <time>2014-06-21T20:08:10Z</time>
      </trkpt>
      <trkpt lat="47.88544" lon="6.88742">
        <ele>792</ele>
        <time>2014-06-21T20:08:21Z</time>
      </trkpt>
      <trkpt lat="47.8855" lon="6.88747">
        <ele>793</ele>
        <time>2014-06-21T20:08:32Z</time>
      </trkpt>
      <trkpt lat="47.88565" lon="6.88757">
        <ele>802</ele>
        <time>2014-06-21T20:08:44Z</time>
      </trkpt>
      <trkpt lat="47.88566" lon="6.88752">
        <ele>802</ele>
        <time>2014-06-21T20:08:50Z</time>
      </trkpt>
      <trkpt lat="47.88571" lon="6.88758">
        <ele>802</ele>
        <time>2014-06-21T20:09:04Z</time>
      </trkpt>
      <trkpt lat="47.88574" lon="6.88757">
        <ele>802</ele>
        <time>2014-06-21T20:09:09Z</time>
      </trkpt>
      <trkpt lat="47.88578" lon="6.88755">
        <ele>801</ele>
        <time>2014-06-21T20:09:13Z</time>
      </trkpt>
      <trkpt lat="47.88593" lon="6.88766">
        <ele>799</ele>
        <time>2014-06-21T20:09:24Z</time>
      </trkpt>
      <trkpt lat="47.88605" lon="6.8877">
        <ele>799</ele>
        <time>2014-06-21T20:09:34Z</time>
      </trkpt>
      <trkpt lat="47.88616" lon="6.88784">
        <ele>799</ele>
        <time>2014-06-21T20:09:44Z</time>
      </trkpt>
      <trkpt lat="47.88632" lon="6.88789">
        <ele>797</ele>
        <time>2014-06-21T20:09:57Z</time>
      </trkpt>
      <trkpt lat="47.88637" lon="6.88794">
        <ele>797</ele>
        <time>2014-06-21T20:10:06Z</time>
      </trkpt>
      <trkpt lat="47.88649" lon="6.88804">
        <ele>797</ele>
        <time>2014-06-21T20:10:17Z</time>
      </trkpt>
      <trkpt lat="47.88656" lon="6.88813">
        <ele>797</ele>
        <time>2014-06-21T20:10:21Z</time>
      </trkpt>
      <trkpt lat="47.88657" lon="6.88832">
        <ele>796</ele>
        <time>2014-06-21T20:10:32Z</time>
      </trkpt>
      <trkpt lat="47.88661" lon="6.8884">
        <ele>800</ele>
        <time>2014-06-21T20:10:37Z</time>
      </trkpt>
      <trkpt lat="47.88669" lon="6.88847">
        <ele>793</ele>
        <time>2014-06-21T20:10:45Z</time>
      </trkpt>
      <trkpt lat="47.88681" lon="6.88861">
        <ele>792</ele>
        <time>2014-06-21T20:10:56Z</time>
      </trkpt>
      <trkpt lat="47.88683" lon="6.88864">
        <ele>792</ele>
        <time>2014-06-21T20:10:58Z</time>
      </trkpt>
      <trkpt lat="47.88687" lon="6.88867">
        <ele>792</ele>
        <time>2014-06-21T20:11:00Z</time>
      </trkpt>
      <trkpt lat="47.887" lon="6.88877">
        <ele>791</ele>
        <time>2014-06-21T20:11:11Z</time>
      </trkpt>
      <trkpt lat="47.88706" lon="6.88882">
        <ele>790</ele>
        <time>2014-06-21T20:11:15Z</time>
      </trkpt>
      <trkpt lat="47.88709" lon="6.88884">
        <ele>790</ele>
        <time>2014-06-21T20:11:17Z</time>
      </trkpt>
      <trkpt lat="47.88712" lon="6.88887">
        <ele>790</ele>
        <time>2014-06-21T20:11:19Z</time>
      </trkpt>
      <trkpt lat="47.88723" lon="6.88896">
        <ele>788</ele>
        <time>2014-06-21T20:11:29Z</time>
      </trkpt>
      <trkpt lat="47.88723" lon="6.88906">
        <ele>789</ele>
        <time>2014-06-21T20:11:39Z</time>
      </trkpt>
      <trkpt lat="47.88736" lon="6.8892">
        <ele>792</ele>
        <time>2014-06-21T20:11:49Z</time>
      </trkpt>
      <trkpt lat="47.88746" lon="6.88928">
        <ele>791</ele>
        <time>2014-06-21T20:11:56Z</time>
      </trkpt>
      <trkpt lat="47.88749" lon="6.8893">
        <ele>791</ele>
        <time>2014-06-21T20:12:02Z</time>
      </trkpt>
      <trkpt lat="47.88777" lon="6.88943">
        <ele>776</ele>
        <time>2014-06-21T20:12:13Z</time>
      </trkpt>
      <trkpt lat="47.88792" lon="6.88953">
        <ele>774</ele>
        <time>2014-06-21T20:12:19Z</time>
      </trkpt>
      <trkpt lat="47.88801" lon="6.88969">
        <ele>773</ele>
        <time>2014-06-21T20:12:31Z</time>
      </trkpt>
      <trkpt lat="47.88803" lon="6.88982">
        <ele>773</ele>
        <time>2014-06-21T20:12:44Z</time>
      </trkpt>
      <trkpt lat="47.88815" lon="6.88997">
        <ele>770</ele>
        <time>2014-06-21T20:12:56Z</time>
      </trkpt>
      <trkpt lat="47.8882" lon="6.89007">
        <ele>773</ele>
        <time>2014-06-21T20:13:00Z</time>
      </trkpt>
      <trkpt lat="47.88828" lon="6.89013">
        <ele>772</ele>
        <time>2014-06-21T20:13:04Z</time>
      </trkpt>
      <trkpt lat="47.88836" lon="6.89016">
        <ele>754</ele>
        <time>2014-06-21T20:13:15Z</time>
      </trkpt>
      <trkpt lat="47.88836" lon="6.89008">
        <ele>757</ele>
        <time>2014-06-21T20:13:58Z</time>
      </trkpt>
      <trkpt lat="47.88837" lon="6.89003">
        <ele>759</ele>
        <time>2014-06-21T20:14:01Z</time>
      </trkpt>
      <trkpt lat="47.88837" lon="6.88996">
        <ele>758</ele>
        <time>2014-06-21T20:18:09Z</time>
      </trkpt>
      <trkpt lat="47.88837" lon="6.88991">
        <ele>754</ele>
        <time>2014-06-21T20:18:13Z</time>
      </trkpt>
      <trkpt lat="47.8883" lon="6.88974">
        <ele>768</ele>
        <time>2014-06-21T20:18:23Z</time>
      </trkpt>
      <trkpt lat="47.88828" lon="6.88972">
        <ele>769</ele>
        <time>2014-06-21T20:18:25Z</time>
      </trkpt>
      <trkpt lat="47.88824" lon="6.88961">
        <ele>769</ele>
        <time>2014-06-21T20:18:35Z</time>
      </trkpt>
      <trkpt lat="47.8882" lon="6.88955">
        <ele>769</ele>
        <time>2014-06-21T20:18:40Z</time>
      </trkpt>
      <trkpt lat="47.88814" lon="6.88939">
        <ele>767</ele>
        <time>2014-06-21T20:18:50Z</time>
      </trkpt>
      <trkpt lat="47.88813" lon="6.88935">
        <ele>767</ele>
        <time>2014-06-21T20:18:52Z</time>
      </trkpt>
      <trkpt lat="47.88803" lon="6.88917">
        <ele>768</ele>
        <time>2014-06-21T20:19:04Z</time>
      </trkpt>
      <trkpt lat="47.88789" lon="6.88901">
        <ele>763</ele>
        <time>2014-06-21T20:19:15Z</time>
      </trkpt>
      <trkpt lat="47.88787" lon="6.88899">
        <ele>763</ele>
        <time>2014-06-21T20:19:17Z</time>
      </trkpt>
      <trkpt lat="47.88781" lon="6.88883">
        <ele>763</ele>
        <time>2014-06-21T20:19:25Z</time>
      </trkpt>
      <trkpt lat="47.88787" lon="6.88873">
        <ele>761</ele>
        <time>2014-06-21T20:19:36Z</time>
      </trkpt>
      <trkpt lat="47.88789" lon="6.88887">
        <ele>762</ele>
        <time>2014-06-21T20:19:53Z</time>
      </trkpt>
      <trkpt lat="47.88803" lon="6.88899">
        <ele>760</ele>
        <time>2014-06-21T20:20:04Z</time>
      </trkpt>
      <trkpt lat="47.88806" lon="6.88901">
        <ele>759</ele>
        <time>2014-06-21T20:20:07Z</time>
      </trkpt>
      <trkpt lat="47.88808" lon="6.88903">
        <ele>759</ele>
        <time>2014-06-21T20:20:09Z</time>
      </trkpt>
      <trkpt lat="47.88815" lon="6.8891">
        <ele>757</ele>
        <time>2014-06-21T20:20:11Z</time>
      </trkpt>
      <trkpt lat="47.88819" lon="6.88913">
        <ele>756</ele>
        <time>2014-06-21T20:20:13Z</time>
      </trkpt>
      <trkpt lat="47.88822" lon="6.88921">
        <ele>761</ele>
        <time>2014-06-21T20:20:21Z</time>
      </trkpt>
      <trkpt lat="47.88842" lon="6.88934">
        <ele>744</ele>
        <time>2014-06-21T20:20:32Z</time>
      </trkpt>
      <trkpt lat="47.88842" lon="6.88939">
        <ele>743</ele>
        <time>2014-06-21T20:20:36Z</time>
      </trkpt>
      <trkpt lat="47.88855" lon="6.88949">
        <ele>740</ele>
        <time>2014-06-21T20:20:46Z</time>
      </trkpt>
      <trkpt lat="47.88858" lon="6.88951">
        <ele>739</ele>
        <time>2014-06-21T20:20:48Z</time>
      </trkpt>
      <trkpt lat="47.88864" lon="6.88971">
        <ele>739</ele>
        <time>2014-06-21T20:20:58Z</time>
      </trkpt>
      <trkpt lat="47.8887" lon="6.88987">
        <ele>738</ele>
        <time>2014-06-21T20:21:08Z</time>
      </trkpt>
      <trkpt lat="47.88857" lon="6.88996">
        <ele>745</ele>
        <time>2014-06-21T20:21:18Z</time>
      </trkpt>
      <trkpt lat="47.88858" lon="6.89">
        <ele>748</ele>
        <time>2014-06-21T20:21:20Z</time>
      </trkpt>
      <trkpt lat="47.8887" lon="6.89022">
        <ele>743</ele>
        <time>2014-06-21T20:21:30Z</time>
      </trkpt>
      <trkpt lat="47.88871" lon="6.89031">
        <ele>742</ele>
        <time>2014-06-21T20:21:35Z</time>
      </trkpt>
      <trkpt lat="47.88871" lon="6.89048">
        <ele>743</ele>
        <time>2014-06-21T20:21:42Z</time>
      </trkpt>
      <trkpt lat="47.88875" lon="6.89063">
        <ele>742</ele>
        <time>2014-06-21T20:21:52Z</time>
      </trkpt>
      <trkpt lat="47.88875" lon="6.89075">
        <ele>742</ele>
        <time>2014-06-21T20:21:59Z</time>
      </trkpt>
      <trkpt lat="47.88876" lon="6.89092">
        <ele>743</ele>
        <time>2014-06-21T20:22:10Z</time>
      </trkpt>
      <trkpt lat="47.8888" lon="6.89119">
        <ele>741</ele>
        <time>2014-06-21T20:22:23Z</time>
      </trkpt>
      <trkpt lat="47.88876" lon="6.89139">
        <ele>742</ele>
        <time>2014-06-21T20:22:35Z</time>
      </trkpt>
      <trkpt lat="47.88874" lon="6.89148">
        <ele>743</ele>
        <time>2014-06-21T20:22:41Z</time>
      </trkpt>
      <trkpt lat="47.88873" lon="6.89153">
        <ele>743</ele>
        <time>2014-06-21T20:22:43Z</time>
      </trkpt>
      <trkpt lat="47.88876" lon="6.89171">
        <ele>741</ele>
        <time>2014-06-21T20:22:52Z</time>
      </trkpt>
      <trkpt lat="47.88872" lon="6.89186">
        <ele>743</ele>
        <time>2014-06-21T20:23:00Z</time>
      </trkpt>
      <trkpt lat="47.8887" lon="6.89206">
        <ele>743</ele>
        <time>2014-06-21T20:23:10Z</time>
      </trkpt>
      <trkpt lat="47.88867" lon="6.89224">
        <ele>744</ele>
        <time>2014-06-21T20:23:19Z</time>
      </trkpt>
      <trkpt lat="47.88871" lon="6.8925">
        <ele>743</ele>
        <time>2014-06-21T20:23:32Z</time>
      </trkpt>
      <trkpt lat="47.8887" lon="6.89271">
        <ele>743</ele>
        <time>2014-06-21T20:23:42Z</time>
      </trkpt>
      <trkpt lat="47.88871" lon="6.89276">
        <ele>743</ele>
        <time>2014-06-21T20:23:44Z</time>
      </trkpt>
      <trkpt lat="47.88873" lon="6.89279">
        <ele>742</ele>
        <time>2014-06-21T20:23:46Z</time>
      </trkpt>
      <trkpt lat="47.88883" lon="6.89296">
        <ele>739</ele>
        <time>2014-06-21T20:23:57Z</time>
      </trkpt>
      <trkpt lat="47.88884" lon="6.89301">
        <ele>739</ele>
        <time>2014-06-21T20:23:59Z</time>
      </trkpt>
      <trkpt lat="47.88886" lon="6.89305">
        <ele>739</ele>
        <time>2014-06-21T20:24:01Z</time>
      </trkpt>
      <trkpt lat="47.88888" lon="6.89309">
        <ele>738</ele>
        <time>2014-06-21T20:24:03Z</time>
      </trkpt>
      <trkpt lat="47.88896" lon="6.89333">
        <ele>733</ele>
        <time>2014-06-21T20:24:13Z</time>
      </trkpt>
      <trkpt lat="47.88904" lon="6.89354">
        <ele>740</ele>
        <time>2014-06-21T20:24:25Z</time>
      </trkpt>
      <trkpt lat="47.88905" lon="6.89358">
        <ele>741</ele>
        <time>2014-06-21T20:24:28Z</time>
      </trkpt>
      <trkpt lat="47.8891" lon="6.89371">
        <ele>743</ele>
        <time>2014-06-21T20:24:44Z</time>
      </trkpt>
      <trkpt lat="47.88915" lon="6.89372">
        <ele>743</ele>
        <time>2014-06-21T20:24:55Z</time>
      </trkpt>
      <trkpt lat="47.88923" lon="6.89386">
        <ele>731</ele>
        <time>2014-06-21T20:25:05Z</time>
      </trkpt>
      <trkpt lat="47.88926" lon="6.89395">
        <ele>733</ele>
        <time>2014-06-21T20:25:11Z</time>
      </trkpt>
      <trkpt lat="47.88927" lon="6.89419">
        <ele>741</ele>
        <time>2014-06-21T20:25:23Z</time>
      </trkpt>
      <trkpt lat="47.88931" lon="6.89444">
        <ele>744</ele>
        <time>2014-06-21T20:25:33Z</time>
      </trkpt>
      <trkpt lat="47.88932" lon="6.89449">
        <ele>744</ele>
        <time>2014-06-21T20:25:35Z</time>
      </trkpt>
      <trkpt lat="47.88933" lon="6.89453">
        <ele>745</ele>
        <time>2014-06-21T20:25:37Z</time>
      </trkpt>
      <trkpt lat="47.88935" lon="6.89476">
        <ele>748</ele>
        <time>2014-06-21T20:25:48Z</time>
      </trkpt>
      <trkpt lat="47.8894" lon="6.89497">
        <ele>749</ele>
        <time>2014-06-21T20:25:58Z</time>
      </trkpt>
      <trkpt lat="47.88946" lon="6.89511">
        <ele>755</ele>
        <time>2014-06-21T20:26:05Z</time>
      </trkpt>
      <trkpt lat="47.88946" lon="6.89535">
        <ele>755</ele>
        <time>2014-06-21T20:26:16Z</time>
      </trkpt>
      <trkpt lat="47.88947" lon="6.89539">
        <ele>756</ele>
        <time>2014-06-21T20:26:18Z</time>
      </trkpt>
      <trkpt lat="47.88952" lon="6.89559">
        <ele>756</ele>
        <time>2014-06-21T20:26:28Z</time>
      </trkpt>
      <trkpt lat="47.88952" lon="6.89564">
        <ele>756</ele>
        <time>2014-06-21T20:26:30Z</time>
      </trkpt>
      <trkpt lat="47.88954" lon="6.89582">
        <ele>757</ele>
        <time>2014-06-21T20:26:41Z</time>
      </trkpt>
      <trkpt lat="47.88956" lon="6.89587">
        <ele>760</ele>
        <time>2014-06-21T20:26:44Z</time>
      </trkpt>
      <trkpt lat="47.88963" lon="6.89606">
        <ele>760</ele>
        <time>2014-06-21T20:26:56Z</time>
      </trkpt>
      <trkpt lat="47.88963" lon="6.89631">
        <ele>760</ele>
        <time>2014-06-21T20:27:07Z</time>
      </trkpt>
      <trkpt lat="47.88964" lon="6.89652">
        <ele>760</ele>
        <time>2014-06-21T20:27:18Z</time>
      </trkpt>
      <trkpt lat="47.88964" lon="6.89656">
        <ele>760</ele>
        <time>2014-06-21T20:27:21Z</time>
      </trkpt>
      <trkpt lat="47.88963" lon="6.89661">
        <ele>761</ele>
        <time>2014-06-21T20:27:24Z</time>
      </trkpt>
      <trkpt lat="47.88964" lon="6.8968">
        <ele>764</ele>
        <time>2014-06-21T20:27:35Z</time>
      </trkpt>
      <trkpt lat="47.88965" lon="6.89686">
        <ele>764</ele>
        <time>2014-06-21T20:27:38Z</time>
      </trkpt>
      <trkpt lat="47.88966" lon="6.89695">
        <ele>764</ele>
        <time>2014-06-21T20:27:42Z</time>
      </trkpt>
      <trkpt lat="47.88968" lon="6.89719">
        <ele>765</ele>
        <time>2014-06-21T20:27:53Z</time>
      </trkpt>
      <trkpt lat="47.88968" lon="6.89724">
        <ele>765</ele>
        <time>2014-06-21T20:27:55Z</time>
      </trkpt>
      <trkpt lat="47.88968" lon="6.89734">
        <ele>765</ele>
        <time>2014-06-21T20:28:00Z</time>
      </trkpt>
      <trkpt lat="47.88965" lon="6.89753">
        <ele>764</ele>
        <time>2014-06-21T20:28:11Z</time>
      </trkpt>
      <trkpt lat="47.88963" lon="6.89758">
        <ele>764</ele>
        <time>2014-06-21T20:28:14Z</time>
      </trkpt>
      <trkpt lat="47.8896" lon="6.8978">
        <ele>763</ele>
        <time>2014-06-21T20:28:27Z</time>
      </trkpt>
      <trkpt lat="47.88961" lon="6.89785">
        <ele>763</ele>
        <time>2014-06-21T20:28:30Z</time>
      </trkpt>
      <trkpt lat="47.8896" lon="6.8979">
        <ele>762</ele>
        <time>2014-06-21T20:28:33Z</time>
      </trkpt>
      <trkpt lat="47.88962" lon="6.89797">
        <ele>762</ele>
        <time>2014-06-21T20:28:56Z</time>
      </trkpt>
      <trkpt lat="47.88965" lon="6.898">
        <ele>761</ele>
        <time>2014-06-21T20:29:00Z</time>
      </trkpt>
      <trkpt lat="47.8897" lon="6.89805">
        <ele>760</ele>
        <time>2014-06-21T20:29:10Z</time>
      </trkpt>
      <trkpt lat="47.88974" lon="6.89805">
        <ele>760</ele>
        <time>2014-06-21T20:29:24Z</time>
      </trkpt>
      <trkpt lat="47.88981" lon="6.89808">
        <ele>759</ele>
        <time>2014-06-21T20:29:48Z</time>
      </trkpt>
      <trkpt lat="47.88989" lon="6.89815">
        <ele>757</ele>
        <time>2014-06-21T20:30:06Z</time>
      </trkpt>
      <trkpt lat="47.88992" lon="6.89817">
        <ele>756</ele>
        <time>2014-06-21T20:30:10Z</time>
      </trkpt>
      <trkpt lat="47.88995" lon="6.89815">
        <ele>756</ele>
        <time>2014-06-21T20:30:15Z</time>
      </trkpt>
      <trkpt lat="47.88997" lon="6.89812">
        <ele>756</ele>
        <time>2014-06-21T20:30:25Z</time>
      </trkpt>
      <trkpt lat="47.89003" lon="6.89803">
        <ele>766</ele>
        <time>2014-06-21T20:30:33Z</time>
      </trkpt>
      <trkpt lat="47.89007" lon="6.89792">
        <ele>768</ele>
        <time>2014-06-21T20:30:44Z</time>
      </trkpt>
      <trkpt lat="47.89011" lon="6.89792">
        <ele>769</ele>
        <time>2014-06-21T20:30:48Z</time>
      </trkpt>
      <trkpt lat="47.8901" lon="6.89797">
        <ele>768</ele>
        <time>2014-06-21T20:31:09Z</time>
      </trkpt>
      <trkpt lat="47.89016" lon="6.89804">
        <ele>768</ele>
        <time>2014-06-21T20:31:14Z</time>
      </trkpt>
      <trkpt lat="47.89017" lon="6.89795">
        <ele>769</ele>
        <time>2014-06-21T20:31:24Z</time>
      </trkpt>
      <trkpt lat="47.89019" lon="6.89791">
        <ele>770</ele>
        <time>2014-06-21T20:31:27Z</time>
      </trkpt>
      <trkpt lat="47.89024" lon="6.89785">
        <ele>772</ele>
        <time>2014-06-21T20:31:33Z</time>
      </trkpt>
      <trkpt lat="47.89031" lon="6.89776">
        <ele>773</ele>
        <time>2014-06-21T20:31:46Z</time>
      </trkpt>
      <trkpt lat="47.89033" lon="6.89773">
        <ele>774</ele>
        <time>2014-06-21T20:31:54Z</time>
      </trkpt>
      <trkpt lat="47.89038" lon="6.89759">
        <ele>776</ele>
        <time>2014-06-21T20:32:04Z</time>
      </trkpt>
      <trkpt lat="47.89043" lon="6.89746">
        <ele>780</ele>
        <time>2014-06-21T20:32:14Z</time>
      </trkpt>
      <trkpt lat="47.89045" lon="6.89743">
        <ele>781</ele>
        <time>2014-06-21T20:32:17Z</time>
      </trkpt>
      <trkpt lat="47.89054" lon="6.89736">
        <ele>784</ele>
        <time>2014-06-21T20:32:31Z</time>
      </trkpt>
      <trkpt lat="47.89053" lon="6.8974">
        <ele>784</ele>
        <time>2014-06-21T20:32:42Z</time>
      </trkpt>
      <trkpt lat="47.89061" lon="6.89746">
        <ele>786</ele>
        <time>2014-06-21T20:32:54Z</time>
      </trkpt>
      <trkpt lat="47.89064" lon="6.89749">
        <ele>788</ele>
        <time>2014-06-21T20:32:57Z</time>
      </trkpt>
      <trkpt lat="47.89069" lon="6.89755">
        <ele>787</ele>
        <time>2014-06-21T20:33:03Z</time>
      </trkpt>
      <trkpt lat="47.89073" lon="6.89756">
        <ele>789</ele>
        <time>2014-06-21T20:33:10Z</time>
      </trkpt>
      <trkpt lat="47.89081" lon="6.89764">
        <ele>788</ele>
        <time>2014-06-21T20:33:22Z</time>
      </trkpt>
      <trkpt lat="47.89096" lon="6.89771">
        <ele>796</ele>
        <time>2014-06-21T20:33:35Z</time>
      </trkpt>
      <trkpt lat="47.89109" lon="6.89777">
        <ele>796</ele>
        <time>2014-06-21T20:33:47Z</time>
      </trkpt>
      <trkpt lat="47.89107" lon="6.8979">
        <ele>796</ele>
        <time>2014-06-21T20:33:58Z</time>
      </trkpt>
      <trkpt lat="47.89111" lon="6.89803">
        <ele>796</ele>
        <time>2014-06-21T20:34:07Z</time>
      </trkpt>
      <trkpt lat="47.89113" lon="6.89807">
        <ele>796</ele>
        <time>2014-06-21T20:34:10Z</time>
      </trkpt>
      <trkpt lat="47.89124" lon="6.89821">
        <ele>797</ele>
        <time>2014-06-21T20:34:23Z</time>
      </trkpt>
      <trkpt lat="47.89135" lon="6.89834">
        <ele>801</ele>
        <time>2014-06-21T20:34:35Z</time>
      </trkpt>
      <trkpt lat="47.89138" lon="6.89837">
        <ele>801</ele>
        <time>2014-06-21T20:34:40Z</time>
      </trkpt>
      <trkpt lat="47.89145" lon="6.89845">
        <ele>802</ele>
        <time>2014-06-21T20:34:50Z</time>
      </trkpt>
      <trkpt lat="47.89148" lon="6.89848">
        <ele>802</ele>
        <time>2014-06-21T20:34:53Z</time>
      </trkpt>
      <trkpt lat="47.89151" lon="6.89851">
        <ele>803</ele>
        <time>2014-06-21T20:34:55Z</time>
      </trkpt>
      <trkpt lat="47.89154" lon="6.89853">
        <ele>803</ele>
        <time>2014-06-21T20:34:57Z</time>
      </trkpt>
      <trkpt lat="47.89156" lon="6.89856">
        <ele>803</ele>
        <time>2014-06-21T20:34:59Z</time>
      </trkpt>
      <trkpt lat="47.89168" lon="6.89867">
        <ele>814</ele>
        <time>2014-06-21T20:35:10Z</time>
      </trkpt>
      <trkpt lat="47.89182" lon="6.89875">
        <ele>816</ele>
        <time>2014-06-21T20:35:22Z</time>
      </trkpt>
      <trkpt lat="47.89197" lon="6.89886">
        <ele>818</ele>
        <time>2014-06-21T20:35:34Z</time>
      </trkpt>
      <trkpt lat="47.89211" lon="6.89898">
        <ele>820</ele>
        <time>2014-06-21T20:35:47Z</time>
      </trkpt>
      <trkpt lat="47.89221" lon="6.899">
        <ele>821</ele>
        <time>2014-06-21T20:35:55Z</time>
      </trkpt>
      <trkpt lat="47.89235" lon="6.89903">
        <ele>823</ele>
        <time>2014-06-21T20:36:06Z</time>
      </trkpt>
      <trkpt lat="47.89244" lon="6.8991">
        <ele>826</ele>
        <time>2014-06-21T20:36:13Z</time>
      </trkpt>
      <trkpt lat="47.89257" lon="6.89913">
        <ele>830</ele>
        <time>2014-06-21T20:36:22Z</time>
      </trkpt>
      <trkpt lat="47.89269" lon="6.89913">
        <ele>831</ele>
        <time>2014-06-21T20:36:33Z</time>
      </trkpt>
      <trkpt lat="47.89275" lon="6.89915">
        <ele>831</ele>
        <time>2014-06-21T20:36:37Z</time>
      </trkpt>
      <trkpt lat="47.89284" lon="6.89919">
        <ele>845</ele>
        <time>2014-06-21T20:36:41Z</time>
      </trkpt>
      <trkpt lat="47.89289" lon="6.89917">
        <ele>846</ele>
        <time>2014-06-21T20:36:43Z</time>
      </trkpt>
      <trkpt lat="47.89304" lon="6.89909">
        <ele>836</ele>
        <time>2014-06-21T20:36:53Z</time>
      </trkpt>
      <trkpt lat="47.89308" lon="6.89908">
        <ele>837</ele>
        <time>2014-06-21T20:36:55Z</time>
      </trkpt>
      <trkpt lat="47.89312" lon="6.89908">
        <ele>838</ele>
        <time>2014-06-21T20:36:57Z</time>
      </trkpt>
      <trkpt lat="47.89325" lon="6.89897">
        <ele>838</ele>
        <time>2014-06-21T20:37:07Z</time>
      </trkpt>
      <trkpt lat="47.89325" lon="6.89888">
        <ele>836</ele>
        <time>2014-06-21T20:37:16Z</time>
      </trkpt>
      <trkpt lat="47.89333" lon="6.89872">
        <ele>833</ele>
        <time>2014-06-21T20:37:29Z</time>
      </trkpt>
      <trkpt lat="47.89336" lon="6.89852">
        <ele>838</ele>
        <time>2014-06-21T20:37:42Z</time>
      </trkpt>
      <trkpt lat="47.89339" lon="6.89851">
        <ele>838</ele>
        <time>2014-06-21T20:37:44Z</time>
      </trkpt>
      <trkpt lat="47.89342" lon="6.89852">
        <ele>838</ele>
        <time>2014-06-21T20:37:47Z</time>
      </trkpt>
      <trkpt lat="47.89345" lon="6.89852">
        <ele>838</ele>
        <time>2014-06-21T20:37:51Z</time>
      </trkpt>
      <trkpt lat="47.89357" lon="6.89857">
        <ele>841</ele>
        <time>2014-06-21T20:38:01Z</time>
      </trkpt>
      <trkpt lat="47.8936" lon="6.89858">
        <ele>842</ele>
        <time>2014-06-21T20:38:04Z</time>
      </trkpt>
      <trkpt lat="47.89366" lon="6.89856">
        <ele>842</ele>
        <time>2014-06-21T20:38:14Z</time>
      </trkpt>
      <trkpt lat="47.89379" lon="6.89858">
        <ele>843</ele>
        <time>2014-06-21T20:38:26Z</time>
      </trkpt>
      <trkpt lat="47.89389" lon="6.89859">
        <ele>844</ele>
        <time>2014-06-21T20:38:34Z</time>
      </trkpt>
      <trkpt lat="47.89402" lon="6.89859">
        <ele>844</ele>
        <time>2014-06-21T20:38:46Z</time>
      </trkpt>
      <trkpt lat="47.8941" lon="6.89867">
        <ele>846</ele>
        <time>2014-06-21T20:38:57Z</time>
      </trkpt>
      <trkpt lat="47.89411" lon="6.8987">
        <ele>846</ele>
        <time>2014-06-21T20:39:03Z</time>
      </trkpt>
      <trkpt lat="47.89424" lon="6.89877">
        <ele>848</ele>
        <time>2014-06-21T20:39:15Z</time>
      </trkpt>
      <trkpt lat="47.89426" lon="6.89881">
        <ele>849</ele>
        <time>2014-06-21T20:39:17Z</time>
      </trkpt>
      <trkpt lat="47.89438" lon="6.89897">
        <ele>852</ele>
        <time>2014-06-21T20:39:29Z</time>
      </trkpt>
      <trkpt lat="47.89443" lon="6.89907">
        <ele>852</ele>
        <time>2014-06-21T20:39:40Z</time>
      </trkpt>
      <trkpt lat="47.89444" lon="6.89916">
        <ele>853</ele>
        <time>2014-06-21T20:39:50Z</time>
      </trkpt>
      <trkpt lat="47.89446" lon="6.89919">
        <ele>867</ele>
        <time>2014-06-21T20:39:53Z</time>
      </trkpt>
      <trkpt lat="47.89454" lon="6.89928">
        <ele>868</ele>
        <time>2014-06-21T20:40:11Z</time>
      </trkpt>
      <trkpt lat="47.89466" lon="6.89945">
        <ele>869</ele>
        <time>2014-06-21T20:40:23Z</time>
      </trkpt>
      <trkpt lat="47.8947" lon="6.89956">
        <ele>870</ele>
        <time>2014-06-21T20:40:27Z</time>
      </trkpt>
      <trkpt lat="47.89477" lon="6.89966">
        <ele>872</ele>
        <time>2014-06-21T20:40:37Z</time>
      </trkpt>
      <trkpt lat="47.89486" lon="6.89971">
        <ele>873</ele>
        <time>2014-06-21T20:40:48Z</time>
      </trkpt>
      <trkpt lat="47.89493" lon="6.89984">
        <ele>875</ele>
        <time>2014-06-21T20:40:58Z</time>
      </trkpt>
      <trkpt lat="47.895" lon="6.90002">
        <ele>881</ele>
        <time>2014-06-21T20:41:10Z</time>
      </trkpt>
      <trkpt lat="47.89503" lon="6.90005">
        <ele>880</ele>
        <time>2014-06-21T20:41:12Z</time>
      </trkpt>
      <trkpt lat="47.8951" lon="6.90016">
        <ele>879</ele>
        <time>2014-06-21T20:41:22Z</time>
      </trkpt>
      <trkpt lat="47.89513" lon="6.90038">
        <ele>881</ele>
        <time>2014-06-21T20:41:34Z</time>
      </trkpt>
      <trkpt lat="47.89518" lon="6.90052">
        <ele>883</ele>
        <time>2014-06-21T20:41:44Z</time>
      </trkpt>
      <trkpt lat="47.8952" lon="6.90062">
        <ele>884</ele>
        <time>2014-06-21T20:41:52Z</time>
      </trkpt>
      <trkpt lat="47.89522" lon="6.90074">
        <ele>886</ele>
        <time>2014-06-21T20:42:10Z</time>
      </trkpt>
      <trkpt lat="47.89521" lon="6.90079">
        <ele>887</ele>
        <time>2014-06-21T20:42:13Z</time>
      </trkpt>
      <trkpt lat="47.89521" lon="6.90093">
        <ele>896</ele>
        <time>2014-06-21T20:42:23Z</time>
      </trkpt>
      <trkpt lat="47.89521" lon="6.90109">
        <ele>897</ele>
        <time>2014-06-21T20:42:38Z</time>
      </trkpt>
      <trkpt lat="47.8952" lon="6.9013">
        <ele>899</ele>
        <time>2014-06-21T20:42:48Z</time>
      </trkpt>
      <trkpt lat="47.89535" lon="6.90163">
        <ele>901</ele>
        <time>2014-06-21T20:43:01Z</time>
      </trkpt>
      <trkpt lat="47.89535" lon="6.90182">
        <ele>914</ele>
        <time>2014-06-21T20:43:08Z</time>
      </trkpt>
      <trkpt lat="47.89531" lon="6.90187">
        <ele>915</ele>
        <time>2014-06-21T20:43:14Z</time>
      </trkpt>
      <trkpt lat="47.89533" lon="6.90198">
        <ele>916</ele>
        <time>2014-06-21T20:43:22Z</time>
      </trkpt>
      <trkpt lat="47.89538" lon="6.90208">
        <ele>917</ele>
        <time>2014-06-21T20:43:33Z</time>
      </trkpt>
      <trkpt lat="47.8954" lon="6.90212">
        <ele>918</ele>
        <time>2014-06-21T20:43:35Z</time>
      </trkpt>
      <trkpt lat="47.89544" lon="6.90219">
        <ele>918</ele>
        <time>2014-06-21T20:43:41Z</time>
      </trkpt>
      <trkpt lat="47.89549" lon="6.90222">
        <ele>918</ele>
        <time>2014-06-21T20:43:53Z</time>
      </trkpt>
      <trkpt lat="47.89576" lon="6.9023">
        <ele>919</ele>
        <time>2014-06-21T20:44:05Z</time>
      </trkpt>
      <trkpt lat="47.89577" lon="6.90235">
        <ele>920</ele>
        <time>2014-06-21T20:44:18Z</time>
      </trkpt>
      <trkpt lat="47.89591" lon="6.90239">
        <ele>917</ele>
        <time>2014-06-21T20:44:28Z</time>
      </trkpt>
      <trkpt lat="47.89602" lon="6.90252">
        <ele>929</ele>
        <time>2014-06-21T20:44:38Z</time>
      </trkpt>
      <trkpt lat="47.89607" lon="6.90253">
        <ele>929</ele>
        <time>2014-06-21T20:44:49Z</time>
      </trkpt>
      <trkpt lat="47.8961" lon="6.90254">
        <ele>930</ele>
        <time>2014-06-21T20:44:54Z</time>
      </trkpt>
      <trkpt lat="47.89613" lon="6.90255">
        <ele>930</ele>
        <time>2014-06-21T20:44:57Z</time>
      </trkpt>
      <trkpt lat="47.89625" lon="6.90266">
        <ele>931</ele>
        <time>2014-06-21T20:45:06Z</time>
      </trkpt>
      <trkpt lat="47.89627" lon="6.90271">
        <ele>932</ele>
        <time>2014-06-21T20:45:09Z</time>
      </trkpt>
      <trkpt lat="47.89629" lon="6.90281">
        <ele>933</ele>
        <time>2014-06-21T20:45:22Z</time>
      </trkpt>
      <trkpt lat="47.89636" lon="6.90288">
        <ele>934</ele>
        <time>2014-06-21T20:45:25Z</time>
      </trkpt>
      <trkpt lat="47.89645" lon="6.90295">
        <ele>936</ele>
        <time>2014-06-21T20:45:37Z</time>
      </trkpt>
      <trkpt lat="47.89657" lon="6.90301">
        <ele>937</ele>
        <time>2014-06-21T20:45:47Z</time>
      </trkpt>
      <trkpt lat="47.89668" lon="6.90309">
        <ele>934</ele>
        <time>2014-06-21T20:45:53Z</time>
      </trkpt>
      <trkpt lat="47.8967" lon="6.90313">
        <ele>935</ele>
        <time>2014-06-21T20:45:57Z</time>
      </trkpt>
      <trkpt lat="47.89676" lon="6.90319">
        <ele>937</ele>
        <time>2014-06-21T20:46:06Z</time>
      </trkpt>
      <trkpt lat="47.89686" lon="6.90322">
        <ele>935</ele>
        <time>2014-06-21T20:46:16Z</time>
      </trkpt>
      <trkpt lat="47.89687" lon="6.90326">
        <ele>935</ele>
        <time>2014-06-21T20:46:18Z</time>
      </trkpt>
      <trkpt lat="47.89689" lon="6.90336">
        <ele>947</ele>
        <time>2014-06-21T20:46:23Z</time>
      </trkpt>
      <trkpt lat="47.89695" lon="6.90353">
        <ele>947</ele>
        <time>2014-06-21T20:46:33Z</time>
      </trkpt>
      <trkpt lat="47.89697" lon="6.90366">
        <ele>948</ele>
        <time>2014-06-21T20:46:42Z</time>
      </trkpt>
      <trkpt lat="47.89698" lon="6.90372">
        <ele>949</ele>
        <time>2014-06-21T20:46:45Z</time>
      </trkpt>
      <trkpt lat="47.89698" lon="6.90392">
        <ele>952</ele>
        <time>2014-06-21T20:46:55Z</time>
      </trkpt>
      <trkpt lat="47.89698" lon="6.9041">
        <ele>954</ele>
        <time>2014-06-21T20:47:05Z</time>
      </trkpt>
      <trkpt lat="47.89705" lon="6.90427">
        <ele>963</ele>
        <time>2014-06-21T20:47:15Z</time>
      </trkpt>
      <trkpt lat="47.89706" lon="6.90433">
        <ele>963</ele>
        <time>2014-06-21T20:47:19Z</time>
      </trkpt>
      <trkpt lat="47.89715" lon="6.90456">
        <ele>963</ele>
        <time>2014-06-21T20:47:30Z</time>
      </trkpt>
      <trkpt lat="47.89714" lon="6.90476">
        <ele>965</ele>
        <time>2014-06-21T20:47:46Z</time>
      </trkpt>
      <trkpt lat="47.89717" lon="6.90492">
        <ele>965</ele>
        <time>2014-06-21T20:47:57Z</time>
      </trkpt>
      <trkpt lat="47.89718" lon="6.90498">
        <ele>964</ele>
        <time>2014-06-21T20:48:00Z</time>
      </trkpt>
      <trkpt lat="47.89718" lon="6.90502">
        <ele>974</ele>
        <time>2014-06-21T20:48:02Z</time>
      </trkpt>
      <trkpt lat="47.89719" lon="6.90517">
        <ele>975</ele>
        <time>2014-06-21T20:48:12Z</time>
      </trkpt>
      <trkpt lat="47.89724" lon="6.90538">
        <ele>977</ele>
        <time>2014-06-21T20:48:22Z</time>
      </trkpt>
      <trkpt lat="47.89723" lon="6.90542">
        <ele>978</ele>
        <time>2014-06-21T20:48:25Z</time>
      </trkpt>
      <trkpt lat="47.8972" lon="6.90562">
        <ele>980</ele>
        <time>2014-06-21T20:48:37Z</time>
      </trkpt>
      <trkpt lat="47.8972" lon="6.90566">
        <ele>980</ele>
        <time>2014-06-21T20:48:41Z</time>
      </trkpt>
      <trkpt lat="47.89724" lon="6.90578">
        <ele>980</ele>
        <time>2014-06-21T20:48:52Z</time>
      </trkpt>
      <trkpt lat="47.8972" lon="6.90594">
        <ele>992</ele>
        <time>2014-06-21T20:49:03Z</time>
      </trkpt>
      <trkpt lat="47.89724" lon="6.90611">
        <ele>993</ele>
        <time>2014-06-21T20:49:14Z</time>
      </trkpt>
      <trkpt lat="47.89724" lon="6.90624">
        <ele>995</ele>
        <time>2014-06-21T20:49:19Z</time>
      </trkpt>
      <trkpt lat="47.89724" lon="6.90629">
        <ele>996</ele>
        <time>2014-06-21T20:49:22Z</time>
      </trkpt>
      <trkpt lat="47.89725" lon="6.90633">
        <ele>996</ele>
        <time>2014-06-21T20:49:26Z</time>
      </trkpt>
      <trkpt lat="47.89728" lon="6.90643">
        <ele>996</ele>
        <time>2014-06-21T20:49:36Z</time>
      </trkpt>
      <trkpt lat="47.89731" lon="6.90657">
        <ele>996</ele>
        <time>2014-06-21T20:49:46Z</time>
      </trkpt>
      <trkpt lat="47.89734" lon="6.90673">
        <ele>1005</ele>
        <time>2014-06-21T20:49:56Z</time>
      </trkpt>
      <trkpt lat="47.89736" lon="6.90686">
        <ele>1009</ele>
        <time>2014-06-21T20:50:09Z</time>
      </trkpt>
      <trkpt lat="47.89737" lon="6.90701">
        <ele>1013</ele>
        <time>2014-06-21T20:50:17Z</time>
      </trkpt>
      <trkpt lat="47.89741" lon="6.90715">
        <ele>1016</ele>
        <time>2014-06-21T20:50:27Z</time>
      </trkpt>
      <trkpt lat="47.89745" lon="6.90726">
        <ele>1017</ele>
        <time>2014-06-21T20:50:33Z</time>
      </trkpt>
      <trkpt lat="47.89753" lon="6.90738">
        <ele>1004</ele>
        <time>2014-06-21T20:50:44Z</time>
      </trkpt>
      <trkpt lat="47.89756" lon="6.90745">
        <ele>1007</ele>
        <time>2014-06-21T20:50:55Z</time>
      </trkpt>
      <trkpt lat="47.89758" lon="6.90768">
        <ele>1015</ele>
        <time>2014-06-21T20:51:06Z</time>
      </trkpt>
      <trkpt lat="47.89769" lon="6.90785">
        <ele>1016</ele>
        <time>2014-06-21T20:51:18Z</time>
      </trkpt>
      <trkpt lat="47.89768" lon="6.90791">
        <ele>1017</ele>
        <time>2014-06-21T20:51:22Z</time>
      </trkpt>
      <trkpt lat="47.89771" lon="6.9081">
        <ele>1022</ele>
        <time>2014-06-21T20:51:32Z</time>
      </trkpt>
      <trkpt lat="47.89772" lon="6.90816">
        <ele>1024</ele>
        <time>2014-06-21T20:51:35Z</time>
      </trkpt>
      <trkpt lat="47.89772" lon="6.9082">
        <ele>1025</ele>
        <time>2014-06-21T20:51:38Z</time>
      </trkpt>
      <trkpt lat="47.89774" lon="6.90839">
        <ele>1040</ele>
        <time>2014-06-21T20:51:51Z</time>
      </trkpt>
      <trkpt lat="47.89779" lon="6.90844">
        <ele>1039</ele>
        <time>2014-06-21T20:52:01Z</time>
      </trkpt>
      <trkpt lat="47.89783" lon="6.90852">
        <ele>1039</ele>
        <time>2014-06-21T20:52:07Z</time>
      </trkpt>
      <trkpt lat="47.89786" lon="6.9087">
        <ele>1040</ele>
        <time>2014-06-21T20:52:19Z</time>
      </trkpt>
      <trkpt lat="47.89791" lon="6.9088">
        <ele>1040</ele>
        <time>2014-06-21T20:52:30Z</time>
      </trkpt>
      <trkpt lat="47.89791" lon="6.90885">
        <ele>1041</ele>
        <time>2014-06-21T20:52:32Z</time>
      </trkpt>
      <trkpt lat="47.89793" lon="6.90899">
        <ele>1042</ele>
        <time>2014-06-21T20:52:43Z</time>
      </trkpt>
      <trkpt lat="47.8979" lon="6.90908">
        <ele>1043</ele>
        <time>2014-06-21T20:52:52Z</time>
      </trkpt>
      <trkpt lat="47.8979" lon="6.90913">
        <ele>1044</ele>
        <time>2014-06-21T20:52:57Z</time>
      </trkpt>
      <trkpt lat="47.89795" lon="6.90923">
        <ele>1054</ele>
        <time>2014-06-21T20:53:08Z</time>
      </trkpt>
      <trkpt lat="47.89794" lon="6.90943">
        <ele>1056</ele>
        <time>2014-06-21T20:53:18Z</time>
      </trkpt>
      <trkpt lat="47.89794" lon="6.90947">
        <ele>1056</ele>
        <time>2014-06-21T20:53:19Z</time>
      </trkpt>
      <trkpt lat="47.89797" lon="6.9096">
        <ele>1056</ele>
        <time>2014-06-21T20:53:23Z</time>
      </trkpt>
      <trkpt lat="47.89798" lon="6.90964">
        <ele>1056</ele>
        <time>2014-06-21T20:53:25Z</time>
      </trkpt>
      <trkpt lat="47.89796" lon="6.90968">
        <ele>1057</ele>
        <time>2014-06-21T20:53:28Z</time>
      </trkpt>
      <trkpt lat="47.89795" lon="6.90985">
        <ele>1058</ele>
        <time>2014-06-21T20:53:38Z</time>
      </trkpt>
      <trkpt lat="47.89795" lon="6.90998">
        <ele>1059</ele>
        <time>2014-06-21T20:53:50Z</time>
      </trkpt>
      <trkpt lat="47.89796" lon="6.91015">
        <ele>1065</ele>
        <time>2014-06-21T20:54:01Z</time>
      </trkpt>
      <trkpt lat="47.89797" lon="6.9102">
        <ele>1065</ele>
        <time>2014-06-21T20:54:05Z</time>
      </trkpt>
      <trkpt lat="47.89795" lon="6.91025">
        <ele>1066</ele>
        <time>2014-06-21T20:54:12Z</time>
      </trkpt>
      <trkpt lat="47.89796" lon="6.91043">
        <ele>1066</ele>
        <time>2014-06-21T20:54:22Z</time>
      </trkpt>
      <trkpt lat="47.89792" lon="6.91055">
        <ele>1068</ele>
        <time>2014-06-21T20:54:30Z</time>
      </trkpt>
      <trkpt lat="47.89786" lon="6.91072">
        <ele>1070</ele>
        <time>2014-06-21T20:54:44Z</time>
      </trkpt>
      <trkpt lat="47.89784" lon="6.91083">
        <ele>1072</ele>
        <time>2014-06-21T20:54:56Z</time>
      </trkpt>
      <trkpt lat="47.89781" lon="6.91093">
        <ele>1074</ele>
        <time>2014-06-21T20:55:02Z</time>
      </trkpt>
      <trkpt lat="47.89773" lon="6.91112">
        <ele>1075</ele>
        <time>2014-06-21T20:55:15Z</time>
      </trkpt>
      <trkpt lat="47.8977" lon="6.91113">
        <ele>1075</ele>
        <time>2014-06-21T20:55:18Z</time>
      </trkpt>
      <trkpt lat="47.89768" lon="6.91116">
        <ele>1076</ele>
        <time>2014-06-21T20:55:22Z</time>
      </trkpt>
      <trkpt lat="47.89767" lon="6.91133">
        <ele>1075</ele>
        <time>2014-06-21T20:55:33Z</time>
      </trkpt>
      <trkpt lat="47.89765" lon="6.91142">
        <ele>1077</ele>
        <time>2014-06-21T20:55:39Z</time>
      </trkpt>
      <trkpt lat="47.89761" lon="6.91154">
        <ele>1081</ele>
        <time>2014-06-21T20:55:50Z</time>
      </trkpt>
      <trkpt lat="47.89758" lon="6.91156">
        <ele>1083</ele>
        <time>2014-06-21T20:55:53Z</time>
      </trkpt>
      <trkpt lat="47.89751" lon="6.91173">
        <ele>1087</ele>
        <time>2014-06-21T20:56:04Z</time>
      </trkpt>
      <trkpt lat="47.8975" lon="6.91177">
        <ele>1085</ele>
        <time>2014-06-21T20:56:07Z</time>
      </trkpt>
      <trkpt lat="47.89744" lon="6.91187">
        <ele>1105</ele>
        <time>2014-06-21T20:56:23Z</time>
      </trkpt>
      <trkpt lat="47.8974" lon="6.91194">
        <ele>1107</ele>
        <time>2014-06-21T20:56:32Z</time>
      </trkpt>
      <trkpt lat="47.89738" lon="6.91199">
        <ele>1108</ele>
        <time>2014-06-21T20:56:35Z</time>
      </trkpt>
      <trkpt lat="47.89737" lon="6.91213">
        <ele>1109</ele>
        <time>2014-06-21T20:56:46Z</time>
      </trkpt>
      <trkpt lat="47.89739" lon="6.91232">
        <ele>1107</ele>
        <time>2014-06-21T20:56:55Z</time>
      </trkpt>
      <trkpt lat="47.89741" lon="6.9125">
        <ele>1103</ele>
        <time>2014-06-21T20:57:07Z</time>
      </trkpt>
      <trkpt lat="47.89747" lon="6.91261">
        <ele>1104</ele>
        <time>2014-06-21T20:57:19Z</time>
      </trkpt>
      <trkpt lat="47.89747" lon="6.91275">
        <ele>1109</ele>
        <time>2014-06-21T20:57:29Z</time>
      </trkpt>
      <trkpt lat="47.89748" lon="6.9128">
        <ele>1110</ele>
        <time>2014-06-21T20:57:31Z</time>
      </trkpt>
      <trkpt lat="47.89748" lon="6.91288">
        <ele>1112</ele>
        <time>2014-06-21T20:57:36Z</time>
      </trkpt>
      <trkpt lat="47.89747" lon="6.91297">
        <ele>1112</ele>
        <time>2014-06-21T20:57:46Z</time>
      </trkpt>
      <trkpt lat="47.89747" lon="6.91302">
        <ele>1113</ele>
        <time>2014-06-21T20:57:51Z</time>
      </trkpt>
      <trkpt lat="47.89747" lon="6.91315">
        <ele>1112</ele>
        <time>2014-06-21T20:58:04Z</time>
      </trkpt>
      <trkpt lat="47.89748" lon="6.91335">
        <ele>1109</ele>
        <time>2014-06-21T20:58:15Z</time>
      </trkpt>
      <trkpt lat="47.89751" lon="6.91355">
        <ele>1103</ele>
        <time>2014-06-21T20:58:27Z</time>
      </trkpt>
      <trkpt lat="47.89753" lon="6.91373">
        <ele>1104</ele>
        <time>2014-06-21T20:58:40Z</time>
      </trkpt>
      <trkpt lat="47.89758" lon="6.91391">
        <ele>1107</ele>
        <time>2014-06-21T20:58:50Z</time>
      </trkpt>
      <trkpt lat="47.89758" lon="6.91405">
        <ele>1112</ele>
        <time>2014-06-21T20:59:01Z</time>
      </trkpt>
      <trkpt lat="47.89757" lon="6.91415">
        <ele>1116</ele>
        <time>2014-06-21T20:59:13Z</time>
      </trkpt>
      <trkpt lat="47.89757" lon="6.91419">
        <ele>1120</ele>
        <time>2014-06-21T20:59:15Z</time>
      </trkpt>
      <trkpt lat="47.89758" lon="6.91428">
        <ele>1119</ele>
        <time>2014-06-21T20:59:19Z</time>
      </trkpt>
      <trkpt lat="47.8976" lon="6.91445">
        <ele>1119</ele>
        <time>2014-06-21T20:59:33Z</time>
      </trkpt>
      <trkpt lat="47.8976" lon="6.91455">
        <ele>1119</ele>
        <time>2014-06-21T20:59:39Z</time>
      </trkpt>
      <trkpt lat="47.89761" lon="6.91459">
        <ele>1120</ele>
        <time>2014-06-21T20:59:42Z</time>
      </trkpt>
      <trkpt lat="47.89764" lon="6.91471">
        <ele>1121</ele>
        <time>2014-06-21T20:59:52Z</time>
      </trkpt>
      <trkpt lat="47.89768" lon="6.9149">
        <ele>1124</ele>
        <time>2014-06-21T21:00:04Z</time>
      </trkpt>
      <trkpt lat="47.89772" lon="6.91498">
        <ele>1124</ele>
        <time>2014-06-21T21:00:10Z</time>
      </trkpt>
      <trkpt lat="47.89779" lon="6.91515">
        <ele>1133</ele>
        <time>2014-06-21T21:00:21Z</time>
      </trkpt>
      <trkpt lat="47.89779" lon="6.91523">
        <ele>1133</ele>
        <time>2014-06-21T21:00:34Z</time>
      </trkpt>
      <trkpt lat="47.89781" lon="6.91527">
        <ele>1133</ele>
        <time>2014-06-21T21:00:40Z</time>
      </trkpt>
      <trkpt lat="47.89785" lon="6.9154">
        <ele>1134</ele>
        <time>2014-06-21T21:00:53Z</time>
      </trkpt>
      <trkpt lat="47.89786" lon="6.91546">
        <ele>1135</ele>
        <time>2014-06-21T21:00:56Z</time>
      </trkpt>
      <trkpt lat="47.89788" lon="6.91556">
        <ele>1136</ele>
        <time>2014-06-21T21:01:03Z</time>
      </trkpt>
      <trkpt lat="47.89796" lon="6.91568">
        <ele>1137</ele>
        <time>2014-06-21T21:01:16Z</time>
      </trkpt>
      <trkpt lat="47.89798" lon="6.91573">
        <ele>1137</ele>
        <time>2014-06-21T21:01:23Z</time>
      </trkpt>
      <trkpt lat="47.898" lon="6.91585">
        <ele>1145</ele>
        <time>2014-06-21T21:01:37Z</time>
      </trkpt>
      <trkpt lat="47.89804" lon="6.91593">
        <ele>1145</ele>
        <time>2014-06-21T21:01:47Z</time>
      </trkpt>
      <trkpt lat="47.89807" lon="6.91596">
        <ele>1145</ele>
        <time>2014-06-21T21:01:51Z</time>
      </trkpt>
      <trkpt lat="47.89814" lon="6.91607">
        <ele>1145</ele>
        <time>2014-06-21T21:02:10Z</time>
      </trkpt>
      <trkpt lat="47.89826" lon="6.91628">
        <ele>1147</ele>
        <time>2014-06-21T21:02:20Z</time>
      </trkpt>
      <trkpt lat="47.89833" lon="6.91638">
        <ele>1149</ele>
        <time>2014-06-21T21:02:30Z</time>
      </trkpt>
      <trkpt lat="47.89837" lon="6.91646">
        <ele>1149</ele>
        <time>2014-06-21T21:02:38Z</time>
      </trkpt>
      <trkpt lat="47.89847" lon="6.91656">
        <ele>1150</ele>
        <time>2014-06-21T21:02:50Z</time>
      </trkpt>
      <trkpt lat="47.8985" lon="6.91658">
        <ele>1150</ele>
        <time>2014-06-21T21:02:53Z</time>
      </trkpt>
      <trkpt lat="47.89863" lon="6.91665">
        <ele>1147</ele>
        <time>2014-06-21T21:03:04Z</time>
      </trkpt>
      <trkpt lat="47.89872" lon="6.91679">
        <ele>1157</ele>
        <time>2014-06-21T21:03:15Z</time>
      </trkpt>
      <trkpt lat="47.89878" lon="6.91689">
        <ele>1157</ele>
        <time>2014-06-21T21:03:26Z</time>
      </trkpt>
      <trkpt lat="47.8989" lon="6.91701">
        <ele>1158</ele>
        <time>2014-06-21T21:03:38Z</time>
      </trkpt>
      <trkpt lat="47.89899" lon="6.91706">
        <ele>1158</ele>
        <time>2014-06-21T21:03:48Z</time>
      </trkpt>
      <trkpt lat="47.89911" lon="6.91712">
        <ele>1159</ele>
        <time>2014-06-21T21:04:00Z</time>
      </trkpt>
      <trkpt lat="47.89919" lon="6.91719">
        <ele>1159</ele>
        <time>2014-06-21T21:04:12Z</time>
      </trkpt>
      <trkpt lat="47.89931" lon="6.9173">
        <ele>1160</ele>
        <time>2014-06-21T21:04:24Z</time>
      </trkpt>
      <trkpt lat="47.8994" lon="6.91737">
        <ele>1160</ele>
        <time>2014-06-21T21:04:35Z</time>
      </trkpt>
      <trkpt lat="47.89952" lon="6.91746">
        <ele>1160</ele>
        <time>2014-06-21T21:04:47Z</time>
      </trkpt>
      <trkpt lat="47.89963" lon="6.91753">
        <ele>1164</ele>
        <time>2014-06-21T21:04:59Z</time>
      </trkpt>
      <trkpt lat="47.89975" lon="6.91761">
        <ele>1164</ele>
        <time>2014-06-21T21:05:11Z</time>
      </trkpt>
      <trkpt lat="47.8998" lon="6.91764">
        <ele>1163</ele>
        <time>2014-06-21T21:05:21Z</time>
      </trkpt>
      <trkpt lat="47.89982" lon="6.91768">
        <ele>1163</ele>
        <time>2014-06-21T21:07:28Z</time>
      </trkpt>
      <trkpt lat="47.89979" lon="6.91767">
        <ele>1164</ele>
        <time>2014-06-21T21:13:50Z</time>
      </trkpt>
      <trkpt lat="47.89971" lon="6.91764">
        <ele>1164</ele>
        <time>2014-06-21T21:14:01Z</time>
      </trkpt>
      <trkpt lat="47.89974" lon="6.91763">
        <ele>1164</ele>
        <time>2014-06-21T21:15:07Z</time>
      </trkpt>
      <trkpt lat="47.89982" lon="6.91756">
        <ele>1163</ele>
        <time>2014-06-21T21:15:16Z</time>
      </trkpt>
      <trkpt lat="47.89989" lon="6.91746">
        <ele>1161</ele>
        <time>2014-06-21T21:15:26Z</time>
      </trkpt>
      <trkpt lat="47.9" lon="6.91734">
        <ele>1163</ele>
        <time>2014-06-21T21:15:36Z</time>
      </trkpt>
      <trkpt lat="47.90013" lon="6.91721">
        <ele>1162</ele>
        <time>2014-06-21T21:15:48Z</time>
      </trkpt>
      <trkpt lat="47.90016" lon="6.91717">
        <ele>1162</ele>
        <time>2014-06-21T21:15:51Z</time>
      </trkpt>
      <trkpt lat="47.90024" lon="6.91708">
        <ele>1162</ele>
        <time>2014-06-21T21:16:00Z</time>
      </trkpt>
      <trkpt lat="47.90038" lon="6.91694">
        <ele>1162</ele>
        <time>2014-06-21T21:16:13Z</time>
      </trkpt>
      <trkpt lat="47.90049" lon="6.91684">
        <ele>1163</ele>
        <time>2014-06-21T21:16:24Z</time>
      </trkpt>
      <trkpt lat="47.90058" lon="6.91672">
        <ele>1164</ele>
        <time>2014-06-21T21:16:35Z</time>
      </trkpt>
      <trkpt lat="47.90068" lon="6.91659">
        <ele>1157</ele>
        <time>2014-06-21T21:16:45Z</time>
      </trkpt>
      <trkpt lat="47.90077" lon="6.91647">
        <ele>1156</ele>
        <time>2014-06-21T21:16:54Z</time>
      </trkpt>
      <trkpt lat="47.90088" lon="6.91635">
        <ele>1164</ele>
        <time>2014-06-21T21:17:04Z</time>
      </trkpt>
      <trkpt lat="47.90099" lon="6.91624">
        <ele>1163</ele>
        <time>2014-06-21T21:17:15Z</time>
      </trkpt>
      <trkpt lat="47.90108" lon="6.91609">
        <ele>1161</ele>
        <time>2014-06-21T21:17:26Z</time>
      </trkpt>
      <trkpt lat="47.90121" lon="6.91593">
        <ele>1162</ele>
        <time>2014-06-21T21:17:38Z</time>
      </trkpt>
      <trkpt lat="47.90133" lon="6.91581">
        <ele>1151</ele>
        <time>2014-06-21T21:17:50Z</time>
      </trkpt>
      <trkpt lat="47.90146" lon="6.91566">
        <ele>1153</ele>
        <time>2014-06-21T21:18:02Z</time>
      </trkpt>
      <trkpt lat="47.90156" lon="6.91554">
        <ele>1152</ele>
        <time>2014-06-21T21:18:12Z</time>
      </trkpt>
      <trkpt lat="47.90161" lon="6.91547">
        <ele>1150</ele>
        <time>2014-06-21T21:18:35Z</time>
      </trkpt>
      <trkpt lat="47.90161" lon="6.91548">
        <ele>1150</ele>
        <time>2014-06-21T21:19:36Z</time>
      </trkpt>
      <trkpt lat="47.90173" lon="6.91535">
        <ele>1154</ele>
        <time>2014-06-21T21:19:47Z</time>
      </trkpt>
      <trkpt lat="47.90181" lon="6.91526">
        <ele>1152</ele>
        <time>2014-06-21T21:19:56Z</time>
      </trkpt>
      <trkpt lat="47.90192" lon="6.91514">
        <ele>1151</ele>
        <time>2014-06-21T21:20:07Z</time>
      </trkpt>
      <trkpt lat="47.90199" lon="6.91502">
        <ele>1151</ele>
        <time>2014-06-21T21:20:16Z</time>
      </trkpt>
      <trkpt lat="47.90211" lon="6.91488">
        <ele>1140</ele>
        <time>2014-06-21T21:20:29Z</time>
      </trkpt>
      <trkpt lat="47.90222" lon="6.91473">
        <ele>1139</ele>
        <time>2014-06-21T21:20:41Z</time>
      </trkpt>
      <trkpt lat="47.90231" lon="6.9146">
        <ele>1138</ele>
        <time>2014-06-21T21:20:51Z</time>
      </trkpt>
      <trkpt lat="47.90238" lon="6.91445">
        <ele>1137</ele>
        <time>2014-06-21T21:21:01Z</time>
      </trkpt>
      <trkpt lat="47.9024" lon="6.91432">
        <ele>1136</ele>
        <time>2014-06-21T21:21:16Z</time>
      </trkpt>
      <trkpt lat="47.90245" lon="6.91437">
        <ele>1136</ele>
        <time>2014-06-21T21:21:26Z</time>
      </trkpt>
      <trkpt lat="47.90247" lon="6.91451">
        <ele>1138</ele>
        <time>2014-06-21T21:21:36Z</time>
      </trkpt>
      <trkpt lat="47.90256" lon="6.91466">
        <ele>1134</ele>
        <time>2014-06-21T21:21:46Z</time>
      </trkpt>
      <trkpt lat="47.90269" lon="6.91482">
        <ele>1135</ele>
        <time>2014-06-21T21:21:58Z</time>
      </trkpt>
      <trkpt lat="47.90277" lon="6.91503">
        <ele>1144</ele>
        <time>2014-06-21T21:22:09Z</time>
      </trkpt>
      <trkpt lat="47.90285" lon="6.91523">
        <ele>1144</ele>
        <time>2014-06-21T21:22:20Z</time>
      </trkpt>
      <trkpt lat="47.90293" lon="6.91539">
        <ele>1145</ele>
        <time>2014-06-21T21:22:30Z</time>
      </trkpt>
      <trkpt lat="47.90302" lon="6.91553">
        <ele>1146</ele>
        <time>2014-06-21T21:22:40Z</time>
      </trkpt>
      <trkpt lat="47.90314" lon="6.91563">
        <ele>1145</ele>
        <time>2014-06-21T21:22:52Z</time>
      </trkpt>
      <trkpt lat="47.90326" lon="6.91574">
        <ele>1145</ele>
        <time>2014-06-21T21:23:02Z</time>
      </trkpt>
      <trkpt lat="47.90339" lon="6.91589">
        <ele>1147</ele>
        <time>2014-06-21T21:23:14Z</time>
      </trkpt>
      <trkpt lat="47.9035" lon="6.91599">
        <ele>1149</ele>
        <time>2014-06-21T21:23:24Z</time>
      </trkpt>
      <trkpt lat="47.90362" lon="6.91609">
        <ele>1150</ele>
        <time>2014-06-21T21:23:35Z</time>
      </trkpt>
      <trkpt lat="47.90376" lon="6.9162">
        <ele>1150</ele>
        <time>2014-06-21T21:23:46Z</time>
      </trkpt>
      <trkpt lat="47.90388" lon="6.9163">
        <ele>1151</ele>
        <time>2014-06-21T21:23:57Z</time>
      </trkpt>
      <trkpt lat="47.90401" lon="6.91641">
        <ele>1152</ele>
        <time>2014-06-21T21:24:09Z</time>
      </trkpt>
      <trkpt lat="47.90414" lon="6.91651">
        <ele>1153</ele>
        <time>2014-06-21T21:24:20Z</time>
      </trkpt>
      <trkpt lat="47.90427" lon="6.91664">
        <ele>1150</ele>
        <time>2014-06-21T21:24:31Z</time>
      </trkpt>
      <trkpt lat="47.90434" lon="6.91681">
        <ele>1148</ele>
        <time>2014-06-21T21:24:42Z</time>
      </trkpt>
      <trkpt lat="47.90441" lon="6.91695">
        <ele>1145</ele>
        <time>2014-06-21T21:24:51Z</time>
      </trkpt>
      <trkpt lat="47.90444" lon="6.91716">
        <ele>1144</ele>
        <time>2014-06-21T21:25:03Z</time>
      </trkpt>
      <trkpt lat="47.90444" lon="6.91737">
        <ele>1144</ele>
        <time>2014-06-21T21:25:15Z</time>
      </trkpt>
      <trkpt lat="47.90441" lon="6.91757">
        <ele>1141</ele>
        <time>2014-06-21T21:25:26Z</time>
      </trkpt>
      <trkpt lat="47.9044" lon="6.91779">
        <ele>1140</ele>
        <time>2014-06-21T21:25:38Z</time>
      </trkpt>
      <trkpt lat="47.90438" lon="6.91802">
        <ele>1140</ele>
        <time>2014-06-21T21:25:49Z</time>
      </trkpt>
      <trkpt lat="47.90437" lon="6.91807">
        <ele>1140</ele>
        <time>2014-06-21T21:25:51Z</time>
      </trkpt>
      <trkpt lat="47.90437" lon="6.91827">
        <ele>1141</ele>
        <time>2014-06-21T21:26:01Z</time>
      </trkpt>
      <trkpt lat="47.90446" lon="6.91843">
        <ele>1139</ele>
        <time>2014-06-21T21:26:12Z</time>
      </trkpt>
      <trkpt lat="47.90446" lon="6.9186">
        <ele>1139</ele>
        <time>2014-06-21T21:26:19Z</time>
      </trkpt>
      <trkpt lat="47.90447" lon="6.91864">
        <ele>1139</ele>
        <time>2014-06-21T21:26:21Z</time>
      </trkpt>
      <trkpt lat="47.9045" lon="6.91882">
        <ele>1139</ele>
        <time>2014-06-21T21:26:33Z</time>
      </trkpt>
      <trkpt lat="47.90454" lon="6.91898">
        <ele>1139</ele>
        <time>2014-06-21T21:26:48Z</time>
      </trkpt>
      <trkpt lat="47.90456" lon="6.91908">
        <ele>1139</ele>
        <time>2014-06-21T21:26:59Z</time>
      </trkpt>
      <trkpt lat="47.90458" lon="6.91911">
        <ele>1139</ele>
        <time>2014-06-21T21:27:01Z</time>
      </trkpt>
      <trkpt lat="47.90463" lon="6.91934">
        <ele>1141</ele>
        <time>2014-06-21T21:27:12Z</time>
      </trkpt>
      <trkpt lat="47.90463" lon="6.9194">
        <ele>1141</ele>
        <time>2014-06-21T21:27:14Z</time>
      </trkpt>
      <trkpt lat="47.9047" lon="6.91961">
        <ele>1141</ele>
        <time>2014-06-21T21:27:27Z</time>
      </trkpt>
      <trkpt lat="47.90473" lon="6.91974">
        <ele>1141</ele>
        <time>2014-06-21T21:27:37Z</time>
      </trkpt>
      <trkpt lat="47.90478" lon="6.91987">
        <ele>1140</ele>
        <time>2014-06-21T21:27:47Z</time>
      </trkpt>
      <trkpt lat="47.90482" lon="6.92006">
        <ele>1140</ele>
        <time>2014-06-21T21:27:58Z</time>
      </trkpt>
      <trkpt lat="47.90486" lon="6.92014">
        <ele>1140</ele>
        <time>2014-06-21T21:28:02Z</time>
      </trkpt>
      <trkpt lat="47.90489" lon="6.92018">
        <ele>1140</ele>
        <time>2014-06-21T21:28:04Z</time>
      </trkpt>
      <trkpt lat="47.90494" lon="6.92027">
        <ele>1141</ele>
        <time>2014-06-21T21:28:08Z</time>
      </trkpt>
      <trkpt lat="47.90504" lon="6.9205">
        <ele>1129</ele>
        <time>2014-06-21T21:28:20Z</time>
      </trkpt>
      <trkpt lat="47.90506" lon="6.92054">
        <ele>1130</ele>
        <time>2014-06-21T21:28:22Z</time>
      </trkpt>
      <trkpt lat="47.90507" lon="6.9206">
        <ele>1131</ele>
        <time>2014-06-21T21:28:25Z</time>
      </trkpt>
      <trkpt lat="47.90514" lon="6.92077">
        <ele>1134</ele>
        <time>2014-06-21T21:28:35Z</time>
      </trkpt>
      <trkpt lat="47.90525" lon="6.92093">
        <ele>1135</ele>
        <time>2014-06-21T21:28:45Z</time>
      </trkpt>
      <trkpt lat="47.90529" lon="6.92105">
        <ele>1135</ele>
        <time>2014-06-21T21:28:52Z</time>
      </trkpt>
      <trkpt lat="47.90534" lon="6.92124">
        <ele>1134</ele>
        <time>2014-06-21T21:29:04Z</time>
      </trkpt>
      <trkpt lat="47.90539" lon="6.92129">
        <ele>1134</ele>
        <time>2014-06-21T21:29:09Z</time>
      </trkpt>
      <trkpt lat="47.90543" lon="6.92147">
        <ele>1134</ele>
        <time>2014-06-21T21:29:18Z</time>
      </trkpt>
      <trkpt lat="47.90544" lon="6.92151">
        <ele>1134</ele>
        <time>2014-06-21T21:29:20Z</time>
      </trkpt>
      <trkpt lat="47.90546" lon="6.92156">
        <ele>1134</ele>
        <time>2014-06-21T21:29:22Z</time>
      </trkpt>
      <trkpt lat="47.90559" lon="6.92176">
        <ele>1136</ele>
        <time>2014-06-21T21:29:33Z</time>
      </trkpt>
      <trkpt lat="47.90562" lon="6.92177">
        <ele>1135</ele>
        <time>2014-06-21T21:29:37Z</time>
      </trkpt>
      <trkpt lat="47.90575" lon="6.92188">
        <ele>1135</ele>
        <time>2014-06-21T21:29:48Z</time>
      </trkpt>
      <trkpt lat="47.90591" lon="6.92204">
        <ele>1121</ele>
        <time>2014-06-21T21:29:58Z</time>
      </trkpt>
      <trkpt lat="47.90595" lon="6.92216">
        <ele>1122</ele>
        <time>2014-06-21T21:30:04Z</time>
      </trkpt>
      <trkpt lat="47.90596" lon="6.92221">
        <ele>1123</ele>
        <time>2014-06-21T21:30:07Z</time>
      </trkpt>
      <trkpt lat="47.90606" lon="6.92235">
        <ele>1124</ele>
        <time>2014-06-21T21:30:16Z</time>
      </trkpt>
      <trkpt lat="47.9061" lon="6.92241">
        <ele>1123</ele>
        <time>2014-06-21T21:30:21Z</time>
      </trkpt>
      <trkpt lat="47.90616" lon="6.92246">
        <ele>1122</ele>
        <time>2014-06-21T21:30:27Z</time>
      </trkpt>
      <trkpt lat="47.90624" lon="6.92256">
        <ele>1130</ele>
        <time>2014-06-21T21:30:38Z</time>
      </trkpt>
      <trkpt lat="47.90636" lon="6.9227">
        <ele>1128</ele>
        <time>2014-06-21T21:30:48Z</time>
      </trkpt>
      <trkpt lat="47.90638" lon="6.92273">
        <ele>1128</ele>
        <time>2014-06-21T21:30:50Z</time>
      </trkpt>
      <trkpt lat="47.90647" lon="6.92292">
        <ele>1130</ele>
        <time>2014-06-21T21:31:02Z</time>
      </trkpt>
      <trkpt lat="47.90658" lon="6.92297">
        <ele>1130</ele>
        <time>2014-06-21T21:31:12Z</time>
      </trkpt>
      <trkpt lat="47.90664" lon="6.92298">
        <ele>1130</ele>
        <time>2014-06-21T21:31:21Z</time>
      </trkpt>
      <trkpt lat="47.90667" lon="6.92299">
        <ele>1121</ele>
        <time>2014-06-21T21:31:23Z</time>
      </trkpt>
      <trkpt lat="47.90686" lon="6.92306">
        <ele>1121</ele>
        <time>2014-06-21T21:31:34Z</time>
      </trkpt>
      <trkpt lat="47.90691" lon="6.92307">
        <ele>1121</ele>
        <time>2014-06-21T21:31:36Z</time>
      </trkpt>
      <trkpt lat="47.90703" lon="6.9231">
        <ele>1120</ele>
        <time>2014-06-21T21:31:49Z</time>
      </trkpt>
      <trkpt lat="47.90712" lon="6.9232">
        <ele>1120</ele>
        <time>2014-06-21T21:32:00Z</time>
      </trkpt>
      <trkpt lat="47.90717" lon="6.92322">
        <ele>1120</ele>
        <time>2014-06-21T21:32:03Z</time>
      </trkpt>
      <trkpt lat="47.9072" lon="6.92323">
        <ele>1120</ele>
        <time>2014-06-21T21:32:05Z</time>
      </trkpt>
      <trkpt lat="47.90728" lon="6.92329">
        <ele>1120</ele>
        <time>2014-06-21T21:32:10Z</time>
      </trkpt>
      <trkpt lat="47.90739" lon="6.92328">
        <ele>1120</ele>
        <time>2014-06-21T21:32:20Z</time>
      </trkpt>
      <trkpt lat="47.90753" lon="6.9233">
        <ele>1119</ele>
        <time>2014-06-21T21:32:31Z</time>
      </trkpt>
      <trkpt lat="47.90771" lon="6.92341">
        <ele>1124</ele>
        <time>2014-06-21T21:32:41Z</time>
      </trkpt>
      <trkpt lat="47.90792" lon="6.92351">
        <ele>1123</ele>
        <time>2014-06-21T21:32:53Z</time>
      </trkpt>
      <trkpt lat="47.90795" lon="6.92353">
        <ele>1123</ele>
        <time>2014-06-21T21:32:58Z</time>
      </trkpt>
      <trkpt lat="47.90798" lon="6.92356">
        <ele>1123</ele>
        <time>2014-06-21T21:33:01Z</time>
      </trkpt>
      <trkpt lat="47.90806" lon="6.92364">
        <ele>1123</ele>
        <time>2014-06-21T21:33:08Z</time>
      </trkpt>
      <trkpt lat="47.90808" lon="6.92366">
        <ele>1123</ele>
        <time>2014-06-21T21:33:10Z</time>
      </trkpt>
      <trkpt lat="47.90821" lon="6.92372">
        <ele>1123</ele>
        <time>2014-06-21T21:33:21Z</time>
      </trkpt>
      <trkpt lat="47.90825" lon="6.92378">
        <ele>1124</ele>
        <time>2014-06-21T21:33:26Z</time>
      </trkpt>
      <trkpt lat="47.90827" lon="6.9238">
        <ele>1124</ele>
        <time>2014-06-21T21:33:29Z</time>
      </trkpt>
      <trkpt lat="47.90837" lon="6.92394">
        <ele>1118</ele>
        <time>2014-06-21T21:33:39Z</time>
      </trkpt>
      <trkpt lat="47.9084" lon="6.92396">
        <ele>1118</ele>
        <time>2014-06-21T21:33:43Z</time>
      </trkpt>
      <trkpt lat="47.90861" lon="6.92406">
        <ele>1117</ele>
        <time>2014-06-21T21:33:53Z</time>
      </trkpt>
      <trkpt lat="47.90863" lon="6.92408">
        <ele>1116</ele>
        <time>2014-06-21T21:33:55Z</time>
      </trkpt>
      <trkpt lat="47.90865" lon="6.92413">
        <ele>1116</ele>
        <time>2014-06-21T21:33:59Z</time>
      </trkpt>
      <trkpt lat="47.90871" lon="6.92416">
        <ele>1116</ele>
        <time>2014-06-21T21:34:05Z</time>
      </trkpt>
      <trkpt lat="47.90884" lon="6.9242">
        <ele>1127</ele>
        <time>2014-06-21T21:34:16Z</time>
      </trkpt>
      <trkpt lat="47.90891" lon="6.92419">
        <ele>1125</ele>
        <time>2014-06-21T21:34:25Z</time>
      </trkpt>
      <trkpt lat="47.90905" lon="6.92418">
        <ele>1121</ele>
        <time>2014-06-21T21:34:35Z</time>
      </trkpt>
      <trkpt lat="47.90911" lon="6.92416">
        <ele>1114</ele>
        <time>2014-06-21T21:34:40Z</time>
      </trkpt>
      <trkpt lat="47.90921" lon="6.9241">
        <ele>1112</ele>
        <time>2014-06-21T21:34:50Z</time>
      </trkpt>
      <trkpt lat="47.90935" lon="6.92414">
        <ele>1109</ele>
        <time>2014-06-21T21:35:02Z</time>
      </trkpt>
      <trkpt lat="47.90949" lon="6.92416">
        <ele>1107</ele>
        <time>2014-06-21T21:35:11Z</time>
      </trkpt>
      <trkpt lat="47.90961" lon="6.92411">
        <ele>1107</ele>
        <time>2014-06-21T21:35:21Z</time>
      </trkpt>
      <trkpt lat="47.90977" lon="6.92405">
        <ele>1107</ele>
        <time>2014-06-21T21:35:32Z</time>
      </trkpt>
      <trkpt lat="47.90986" lon="6.92402">
        <ele>1107</ele>
        <time>2014-06-21T21:35:42Z</time>
      </trkpt>
      <trkpt lat="47.90998" lon="6.92406">
        <ele>1109</ele>
        <time>2014-06-21T21:35:47Z</time>
      </trkpt>
      <trkpt lat="47.91009" lon="6.92397">
        <ele>1102</ele>
        <time>2014-06-21T21:35:56Z</time>
      </trkpt>
      <trkpt lat="47.91012" lon="6.92398">
        <ele>1102</ele>
        <time>2014-06-21T21:35:58Z</time>
      </trkpt>
      <trkpt lat="47.91023" lon="6.92406">
        <ele>1102</ele>
        <time>2014-06-21T21:36:09Z</time>
      </trkpt>
      <trkpt lat="47.91039" lon="6.92413">
        <ele>1100</ele>
        <time>2014-06-21T21:36:20Z</time>
      </trkpt>
      <trkpt lat="47.91043" lon="6.92413">
        <ele>1099</ele>
        <time>2014-06-21T21:36:21Z</time>
      </trkpt>
      <trkpt lat="47.91061" lon="6.92406">
        <ele>1098</ele>
        <time>2014-06-21T21:36:33Z</time>
      </trkpt>
      <trkpt lat="47.91064" lon="6.92406">
        <ele>1098</ele>
        <time>2014-06-21T21:36:36Z</time>
      </trkpt>
      <trkpt lat="47.91074" lon="6.92406">
        <ele>1098</ele>
        <time>2014-06-21T21:36:48Z</time>
      </trkpt>
      <trkpt lat="47.9108" lon="6.92407">
        <ele>1099</ele>
        <time>2014-06-21T21:36:52Z</time>
      </trkpt>
      <trkpt lat="47.91094" lon="6.92412">
        <ele>1095</ele>
        <time>2014-06-21T21:37:02Z</time>
      </trkpt>
      <trkpt lat="47.911" lon="6.92401">
        <ele>1092</ele>
        <time>2014-06-21T21:37:13Z</time>
      </trkpt>
      <trkpt lat="47.91103" lon="6.92403">
        <ele>1092</ele>
        <time>2014-06-21T21:37:15Z</time>
      </trkpt>
      <trkpt lat="47.91123" lon="6.92415">
        <ele>1091</ele>
        <time>2014-06-21T21:37:26Z</time>
      </trkpt>
      <trkpt lat="47.91138" lon="6.92412">
        <ele>1090</ele>
        <time>2014-06-21T21:37:36Z</time>
      </trkpt>
      <trkpt lat="47.91141" lon="6.92411">
        <ele>1090</ele>
        <time>2014-06-21T21:37:38Z</time>
      </trkpt>
      <trkpt lat="47.91158" lon="6.92413">
        <ele>1093</ele>
        <time>2014-06-21T21:37:48Z</time>
      </trkpt>
      <trkpt lat="47.91166" lon="6.92416">
        <ele>1096</ele>
        <time>2014-06-21T21:37:53Z</time>
      </trkpt>
      <trkpt lat="47.91173" lon="6.92414">
        <ele>1092</ele>
        <time>2014-06-21T21:38:00Z</time>
      </trkpt>
      <trkpt lat="47.91182" lon="6.92411">
        <ele>1088</ele>
        <time>2014-06-21T21:38:10Z</time>
      </trkpt>
      <trkpt lat="47.91184" lon="6.92408">
        <ele>1086</ele>
        <time>2014-06-21T21:38:12Z</time>
      </trkpt>
      <trkpt lat="47.91187" lon="6.92406">
        <ele>1085</ele>
        <time>2014-06-21T21:38:14Z</time>
      </trkpt>
      <trkpt lat="47.91191" lon="6.92403">
        <ele>1084</ele>
        <time>2014-06-21T21:38:17Z</time>
      </trkpt>
      <trkpt lat="47.91204" lon="6.92398">
        <ele>1082</ele>
        <time>2014-06-21T21:38:28Z</time>
      </trkpt>
      <trkpt lat="47.91207" lon="6.92399">
        <ele>1082</ele>
        <time>2014-06-21T21:38:30Z</time>
      </trkpt>
      <trkpt lat="47.91222" lon="6.92411">
        <ele>1082</ele>
        <time>2014-06-21T21:38:41Z</time>
      </trkpt>
      <trkpt lat="47.91225" lon="6.9241">
        <ele>1082</ele>
        <time>2014-06-21T21:38:44Z</time>
      </trkpt>
      <trkpt lat="47.91229" lon="6.92408">
        <ele>1082</ele>
        <time>2014-06-21T21:38:46Z</time>
      </trkpt>
      <trkpt lat="47.91232" lon="6.92405">
        <ele>1082</ele>
        <time>2014-06-21T21:38:48Z</time>
      </trkpt>
      <trkpt lat="47.91241" lon="6.92408">
        <ele>1083</ele>
        <time>2014-06-21T21:38:56Z</time>
      </trkpt>
      <trkpt lat="47.91243" lon="6.9241">
        <ele>1084</ele>
        <time>2014-06-21T21:38:58Z</time>
      </trkpt>
      <trkpt lat="47.91259" lon="6.92418">
        <ele>1088</ele>
        <time>2014-06-21T21:39:08Z</time>
      </trkpt>
      <trkpt lat="47.91263" lon="6.92419">
        <ele>1088</ele>
        <time>2014-06-21T21:39:10Z</time>
      </trkpt>
      <trkpt lat="47.91265" lon="6.92421">
        <ele>1088</ele>
        <time>2014-06-21T21:39:12Z</time>
      </trkpt>
      <trkpt lat="47.91272" lon="6.92418">
        <ele>1088</ele>
        <time>2014-06-21T21:39:18Z</time>
      </trkpt>
      <trkpt lat="47.91282" lon="6.92408">
        <ele>1071</ele>
        <time>2014-06-21T21:39:28Z</time>
      </trkpt>
      <trkpt lat="47.91285" lon="6.92411">
        <ele>1071</ele>
        <time>2014-06-21T21:39:30Z</time>
      </trkpt>
      <trkpt lat="47.91306" lon="6.92418">
        <ele>1083</ele>
        <time>2014-06-21T21:39:41Z</time>
      </trkpt>
      <trkpt lat="47.91309" lon="6.9242">
        <ele>1082</ele>
        <time>2014-06-21T21:39:43Z</time>
      </trkpt>
      <trkpt lat="47.91318" lon="6.92419">
        <ele>1079</ele>
        <time>2014-06-21T21:39:53Z</time>
      </trkpt>
      <trkpt lat="47.91321" lon="6.92418">
        <ele>1078</ele>
        <time>2014-06-21T21:39:55Z</time>
      </trkpt>
      <trkpt lat="47.91335" lon="6.92421">
        <ele>1071</ele>
        <time>2014-06-21T21:40:05Z</time>
      </trkpt>
      <trkpt lat="47.91344" lon="6.92426">
        <ele>1071</ele>
        <time>2014-06-21T21:40:12Z</time>
      </trkpt>
      <trkpt lat="47.91347" lon="6.92426">
        <ele>1071</ele>
        <time>2014-06-21T21:40:15Z</time>
      </trkpt>
      <trkpt lat="47.91351" lon="6.92427">
        <ele>1071</ele>
        <time>2014-06-21T21:40:18Z</time>
      </trkpt>
      <trkpt lat="47.91361" lon="6.92425">
        <ele>1070</ele>
        <time>2014-06-21T21:40:28Z</time>
      </trkpt>
      <trkpt lat="47.91372" lon="6.92423">
        <ele>1069</ele>
        <time>2014-06-21T21:40:37Z</time>
      </trkpt>
      <trkpt lat="47.91375" lon="6.92423">
        <ele>1069</ele>
        <time>2014-06-21T21:40:40Z</time>
      </trkpt>
      <trkpt lat="47.91391" lon="6.92431">
        <ele>1066</ele>
        <time>2014-06-21T21:40:50Z</time>
      </trkpt>
      <trkpt lat="47.91396" lon="6.92437">
        <ele>1066</ele>
        <time>2014-06-21T21:40:54Z</time>
      </trkpt>
      <trkpt lat="47.91407" lon="6.92437">
        <ele>1064</ele>
        <time>2014-06-21T21:41:04Z</time>
      </trkpt>
      <trkpt lat="47.91414" lon="6.9243">
        <ele>1060</ele>
        <time>2014-06-21T21:41:14Z</time>
      </trkpt>
      <trkpt lat="47.91417" lon="6.92429">
        <ele>1054</ele>
        <time>2014-06-21T21:41:16Z</time>
      </trkpt>
      <trkpt lat="47.91424" lon="6.92428">
        <ele>1054</ele>
        <time>2014-06-21T21:41:20Z</time>
      </trkpt>
      <trkpt lat="47.91433" lon="6.92415">
        <ele>1042</ele>
        <time>2014-06-21T21:41:31Z</time>
      </trkpt>
      <trkpt lat="47.91442" lon="6.92408">
        <ele>1039</ele>
        <time>2014-06-21T21:41:42Z</time>
      </trkpt>
      <trkpt lat="47.91463" lon="6.92414">
        <ele>1037</ele>
        <time>2014-06-21T21:41:53Z</time>
      </trkpt>
      <trkpt lat="47.91474" lon="6.92407">
        <ele>1036</ele>
        <time>2014-06-21T21:42:03Z</time>
      </trkpt>
      <trkpt lat="47.91477" lon="6.92406">
        <ele>1036</ele>
        <time>2014-06-21T21:42:05Z</time>
      </trkpt>
      <trkpt lat="47.91484" lon="6.9241">
        <ele>1037</ele>
        <time>2014-06-21T21:42:09Z</time>
      </trkpt>
      <trkpt lat="47.91486" lon="6.92412">
        <ele>1037</ele>
        <time>2014-06-21T21:42:11Z</time>
      </trkpt>
      <trkpt lat="47.91502" lon="6.92422">
        <ele>1042</ele>
        <time>2014-06-21T21:42:20Z</time>
      </trkpt>
      <trkpt lat="47.91518" lon="6.92426">
        <ele>1044</ele>
        <time>2014-06-21T21:42:36Z</time>
      </trkpt>
      <trkpt lat="47.91519" lon="6.92422">
        <ele>1043</ele>
        <time>2014-06-21T21:42:40Z</time>
      </trkpt>
      <trkpt lat="47.91518" lon="6.92418">
        <ele>1043</ele>
        <time>2014-06-21T21:42:56Z</time>
      </trkpt>
      <trkpt lat="47.91511" lon="6.92415">
        <ele>1033</ele>
        <time>2014-06-21T21:45:47Z</time>
      </trkpt>
      <trkpt lat="47.91513" lon="6.92418">
        <ele>1043</ele>
        <time>2014-06-21T21:45:49Z</time>
      </trkpt>
      <trkpt lat="47.91515" lon="6.92422">
        <ele>1043</ele>
        <time>2014-06-21T21:45:52Z</time>
      </trkpt>
      <trkpt lat="47.91521" lon="6.92422">
        <ele>1044</ele>
        <time>2014-06-21T21:46:05Z</time>
      </trkpt>
      <trkpt lat="47.91527" lon="6.92424">
        <ele>1044</ele>
        <time>2014-06-21T21:46:09Z</time>
      </trkpt>
      <trkpt lat="47.9153" lon="6.92423">
        <ele>1044</ele>
        <time>2014-06-21T21:46:11Z</time>
      </trkpt>
      <trkpt lat="47.91545" lon="6.92427">
        <ele>1043</ele>
        <time>2014-06-21T21:46:21Z</time>
      </trkpt>
      <trkpt lat="47.91555" lon="6.92423">
        <ele>1041</ele>
        <time>2014-06-21T21:46:32Z</time>
      </trkpt>
      <trkpt lat="47.91565" lon="6.92421">
        <ele>1038</ele>
        <time>2014-06-21T21:46:42Z</time>
      </trkpt>
      <trkpt lat="47.9157" lon="6.92412">
        <ele>1025</ele>
        <time>2014-06-21T21:46:53Z</time>
      </trkpt>
      <trkpt lat="47.91573" lon="6.92411">
        <ele>1026</ele>
        <time>2014-06-21T21:46:55Z</time>
      </trkpt>
      <trkpt lat="47.91587" lon="6.92405">
        <ele>1021</ele>
        <time>2014-06-21T21:47:06Z</time>
      </trkpt>
      <trkpt lat="47.91591" lon="6.92405">
        <ele>1021</ele>
        <time>2014-06-21T21:47:08Z</time>
      </trkpt>
      <trkpt lat="47.91604" lon="6.92406">
        <ele>1018</ele>
        <time>2014-06-21T21:47:20Z</time>
      </trkpt>
      <trkpt lat="47.91608" lon="6.92406">
        <ele>1017</ele>
        <time>2014-06-21T21:47:23Z</time>
      </trkpt>
      <trkpt lat="47.91613" lon="6.92408">
        <ele>1016</ele>
        <time>2014-06-21T21:47:28Z</time>
      </trkpt>
      <trkpt lat="47.91624" lon="6.92409">
        <ele>1015</ele>
        <time>2014-06-21T21:47:37Z</time>
      </trkpt>
      <trkpt lat="47.91636" lon="6.92408">
        <ele>1015</ele>
        <time>2014-06-21T21:47:48Z</time>
      </trkpt>
      <trkpt lat="47.91642" lon="6.92408">
        <ele>1015</ele>
        <time>2014-06-21T21:47:52Z</time>
      </trkpt>
      <trkpt lat="47.91657" lon="6.92399">
        <ele>1014</ele>
        <time>2014-06-21T21:48:02Z</time>
      </trkpt>
      <trkpt lat="47.9166" lon="6.92399">
        <ele>1014</ele>
        <time>2014-06-21T21:48:04Z</time>
      </trkpt>
      <trkpt lat="47.91663" lon="6.92398">
        <ele>1014</ele>
        <time>2014-06-21T21:48:07Z</time>
      </trkpt>
      <trkpt lat="47.91686" lon="6.924">
        <ele>1008</ele>
        <time>2014-06-21T21:48:18Z</time>
      </trkpt>
      <trkpt lat="47.91688" lon="6.92402">
        <ele>1007</ele>
        <time>2014-06-21T21:48:22Z</time>
      </trkpt>
      <trkpt lat="47.91695" lon="6.92404">
        <ele>1006</ele>
        <time>2014-06-21T21:48:26Z</time>
      </trkpt>
      <trkpt lat="47.91699" lon="6.92405">
        <ele>1006</ele>
        <time>2014-06-21T21:48:29Z</time>
      </trkpt>
      <trkpt lat="47.91703" lon="6.92394">
        <ele>1004</ele>
        <time>2014-06-21T21:48:39Z</time>
      </trkpt>
      <trkpt lat="47.91715" lon="6.92386">
        <ele>1002</ele>
        <time>2014-06-21T21:48:49Z</time>
      </trkpt>
      <trkpt lat="47.91718" lon="6.92383">
        <ele>1002</ele>
        <time>2014-06-21T21:48:51Z</time>
      </trkpt>
      <trkpt lat="47.91737" lon="6.92388">
        <ele>1002</ele>
        <time>2014-06-21T21:49:02Z</time>
      </trkpt>
      <trkpt lat="47.91742" lon="6.92381">
        <ele>1001</ele>
        <time>2014-06-21T21:49:07Z</time>
      </trkpt>
      <trkpt lat="47.91737" lon="6.92364">
        <ele>998</ele>
        <time>2014-06-21T21:49:19Z</time>
      </trkpt>
      <trkpt lat="47.91734" lon="6.92344">
        <ele>996</ele>
        <time>2014-06-21T21:49:29Z</time>
      </trkpt>
      <trkpt lat="47.91735" lon="6.9234">
        <ele>995</ele>
        <time>2014-06-21T21:49:32Z</time>
      </trkpt>
      <trkpt lat="47.91735" lon="6.92325">
        <ele>987</ele>
        <time>2014-06-21T21:49:42Z</time>
      </trkpt>
      <trkpt lat="47.91742" lon="6.92319">
        <ele>986</ele>
        <time>2014-06-21T21:49:56Z</time>
      </trkpt>
      <trkpt lat="47.91749" lon="6.9231">
        <ele>986</ele>
        <time>2014-06-21T21:50:06Z</time>
      </trkpt>
      <trkpt lat="47.91765" lon="6.92298">
        <ele>982</ele>
        <time>2014-06-21T21:50:16Z</time>
      </trkpt>
      <trkpt lat="47.91768" lon="6.92299">
        <ele>982</ele>
        <time>2014-06-21T21:50:19Z</time>
      </trkpt>
      <trkpt lat="47.91777" lon="6.92298">
        <ele>981</ele>
        <time>2014-06-21T21:50:28Z</time>
      </trkpt>
      <trkpt lat="47.9179" lon="6.92302">
        <ele>981</ele>
        <time>2014-06-21T21:50:39Z</time>
      </trkpt>
      <trkpt lat="47.91802" lon="6.92293">
        <ele>980</ele>
        <time>2014-06-21T21:50:49Z</time>
      </trkpt>
      <trkpt lat="47.9181" lon="6.92275">
        <ele>979</ele>
        <time>2014-06-21T21:50:59Z</time>
      </trkpt>
      <trkpt lat="47.91812" lon="6.92272">
        <ele>979</ele>
        <time>2014-06-21T21:51:01Z</time>
      </trkpt>
      <trkpt lat="47.91816" lon="6.92261">
        <ele>978</ele>
        <time>2014-06-21T21:51:07Z</time>
      </trkpt>
      <trkpt lat="47.91822" lon="6.92243">
        <ele>973</ele>
        <time>2014-06-21T21:51:17Z</time>
      </trkpt>
      <trkpt lat="47.91825" lon="6.92234">
        <ele>973</ele>
        <time>2014-06-21T21:51:22Z</time>
      </trkpt>
      <trkpt lat="47.91833" lon="6.92212">
        <ele>971</ele>
        <time>2014-06-21T21:51:33Z</time>
      </trkpt>
      <trkpt lat="47.91834" lon="6.92203">
        <ele>963</ele>
        <time>2014-06-21T21:51:39Z</time>
      </trkpt>
      <trkpt lat="47.91839" lon="6.92186">
        <ele>963</ele>
        <time>2014-06-21T21:51:51Z</time>
      </trkpt>
      <trkpt lat="47.91839" lon="6.9218">
        <ele>963</ele>
        <time>2014-06-21T21:51:56Z</time>
      </trkpt>
      <trkpt lat="47.9184" lon="6.92176">
        <ele>963</ele>
        <time>2014-06-21T21:52:06Z</time>
      </trkpt>
      <trkpt lat="47.91847" lon="6.92167">
        <ele>962</ele>
        <time>2014-06-21T21:52:16Z</time>
      </trkpt>
      <trkpt lat="47.91849" lon="6.92164">
        <ele>957</ele>
        <time>2014-06-21T21:52:18Z</time>
      </trkpt>
      <trkpt lat="47.9186" lon="6.92156">
        <ele>954</ele>
        <time>2014-06-21T21:52:28Z</time>
      </trkpt>
      <trkpt lat="47.91863" lon="6.92151">
        <ele>953</ele>
        <time>2014-06-21T21:52:31Z</time>
      </trkpt>
      <trkpt lat="47.91869" lon="6.9213">
        <ele>950</ele>
        <time>2014-06-21T21:52:43Z</time>
      </trkpt>
      <trkpt lat="47.9187" lon="6.92126">
        <ele>950</ele>
        <time>2014-06-21T21:52:46Z</time>
      </trkpt>
      <trkpt lat="47.91874" lon="6.92107">
        <ele>948</ele>
        <time>2014-06-21T21:52:56Z</time>
      </trkpt>
      <trkpt lat="47.91874" lon="6.92087">
        <ele>947</ele>
        <time>2014-06-21T21:53:07Z</time>
      </trkpt>
      <trkpt lat="47.91869" lon="6.92075">
        <ele>941</ele>
        <time>2014-06-21T21:53:12Z</time>
      </trkpt>
      <trkpt lat="47.91871" lon="6.92043">
        <ele>939</ele>
        <time>2014-06-21T21:53:23Z</time>
      </trkpt>
      <trkpt lat="47.91873" lon="6.92039">
        <ele>938</ele>
        <time>2014-06-21T21:53:27Z</time>
      </trkpt>
      <trkpt lat="47.91876" lon="6.92031">
        <ele>938</ele>
        <time>2014-06-21T21:53:37Z</time>
      </trkpt>
      <trkpt lat="47.91875" lon="6.92009">
        <ele>937</ele>
        <time>2014-06-21T21:53:48Z</time>
      </trkpt>
      <trkpt lat="47.91876" lon="6.91999">
        <ele>935</ele>
        <time>2014-06-21T21:53:51Z</time>
      </trkpt>
      <trkpt lat="47.91878" lon="6.91995">
        <ele>935</ele>
        <time>2014-06-21T21:53:53Z</time>
      </trkpt>
      <trkpt lat="47.91884" lon="6.91985">
        <ele>934</ele>
        <time>2014-06-21T21:54:06Z</time>
      </trkpt>
      <trkpt lat="47.91885" lon="6.91989">
        <ele>934</ele>
        <time>2014-06-21T21:54:09Z</time>
      </trkpt>
      <trkpt lat="47.91886" lon="6.91986">
        <ele>933</ele>
        <time>2014-06-21T21:54:51Z</time>
      </trkpt>
      <trkpt lat="47.91899" lon="6.91981">
        <ele>931</ele>
        <time>2014-06-21T21:55:02Z</time>
      </trkpt>
      <trkpt lat="47.91908" lon="6.91973">
        <ele>931</ele>
        <time>2014-06-21T21:55:12Z</time>
      </trkpt>
      <trkpt lat="47.91915" lon="6.91973">
        <ele>931</ele>
        <time>2014-06-21T21:55:18Z</time>
      </trkpt>
      <trkpt lat="47.91923" lon="6.9197">
        <ele>917</ele>
        <time>2014-06-21T21:55:28Z</time>
      </trkpt>
      <trkpt lat="47.91926" lon="6.91971">
        <ele>917</ele>
        <time>2014-06-21T21:55:31Z</time>
      </trkpt>
      <trkpt lat="47.91929" lon="6.91972">
        <ele>917</ele>
        <time>2014-06-21T21:55:35Z</time>
      </trkpt>
      <trkpt lat="47.91944" lon="6.91976">
        <ele>915</ele>
        <time>2014-06-21T21:55:46Z</time>
      </trkpt>
      <trkpt lat="47.91961" lon="6.91968">
        <ele>913</ele>
        <time>2014-06-21T21:55:58Z</time>
      </trkpt>
      <trkpt lat="47.91964" lon="6.91963">
        <ele>912</ele>
        <time>2014-06-21T21:56:01Z</time>
      </trkpt>
      <trkpt lat="47.91969" lon="6.91949">
        <ele>912</ele>
        <time>2014-06-21T21:56:11Z</time>
      </trkpt>
      <trkpt lat="47.91972" lon="6.91946">
        <ele>911</ele>
        <time>2014-06-21T21:56:13Z</time>
      </trkpt>
      <trkpt lat="47.91983" lon="6.91929">
        <ele>909</ele>
        <time>2014-06-21T21:56:23Z</time>
      </trkpt>
      <trkpt lat="47.91992" lon="6.91919">
        <ele>905</ele>
        <time>2014-06-21T21:56:29Z</time>
      </trkpt>
      <trkpt lat="47.91996" lon="6.91917">
        <ele>904</ele>
        <time>2014-06-21T21:56:31Z</time>
      </trkpt>
      <trkpt lat="47.92009" lon="6.91911">
        <ele>902</ele>
        <time>2014-06-21T21:56:41Z</time>
      </trkpt>
      <trkpt lat="47.92011" lon="6.91903">
        <ele>902</ele>
        <time>2014-06-21T21:56:57Z</time>
      </trkpt>
      <trkpt lat="47.92015" lon="6.91901">
        <ele>902</ele>
        <time>2014-06-21T21:57:00Z</time>
      </trkpt>
      <trkpt lat="47.92022" lon="6.91892">
        <ele>902</ele>
        <time>2014-06-21T21:57:08Z</time>
      </trkpt>
      <trkpt lat="47.92026" lon="6.91886">
        <ele>902</ele>
        <time>2014-06-21T21:57:10Z</time>
      </trkpt>
      <trkpt lat="47.92037" lon="6.91866">
        <ele>903</ele>
        <time>2014-06-21T21:57:20Z</time>
      </trkpt>
      <trkpt lat="47.92039" lon="6.91864">
        <ele>903</ele>
        <time>2014-06-21T21:57:22Z</time>
      </trkpt>
      <trkpt lat="47.92051" lon="6.91854">
        <ele>902</ele>
        <time>2014-06-21T21:57:31Z</time>
      </trkpt>
      <trkpt lat="47.92063" lon="6.91851">
        <ele>901</ele>
        <time>2014-06-21T21:57:41Z</time>
      </trkpt>
      <trkpt lat="47.92076" lon="6.91835">
        <ele>901</ele>
        <time>2014-06-21T21:57:52Z</time>
      </trkpt>
      <trkpt lat="47.92088" lon="6.91824">
        <ele>901</ele>
        <time>2014-06-21T21:58:02Z</time>
      </trkpt>
      <trkpt lat="47.92099" lon="6.91812">
        <ele>903</ele>
        <time>2014-06-21T21:58:12Z</time>
      </trkpt>
      <trkpt lat="47.92104" lon="6.91801">
        <ele>904</ele>
        <time>2014-06-21T21:58:21Z</time>
      </trkpt>
      <trkpt lat="47.92114" lon="6.91797">
        <ele>904</ele>
        <time>2014-06-21T21:58:29Z</time>
      </trkpt>
      <trkpt lat="47.92124" lon="6.91803">
        <ele>903</ele>
        <time>2014-06-21T21:58:39Z</time>
      </trkpt>
      <trkpt lat="47.92134" lon="6.91808">
        <ele>903</ele>
        <time>2014-06-21T21:58:49Z</time>
      </trkpt>
      <trkpt lat="47.92141" lon="6.9181">
        <ele>903</ele>
        <time>2014-06-21T21:58:54Z</time>
      </trkpt>
      <trkpt lat="47.92145" lon="6.9181">
        <ele>903</ele>
        <time>2014-06-21T21:58:56Z</time>
      </trkpt>
      <trkpt lat="47.92156" lon="6.91807">
        <ele>903</ele>
        <time>2014-06-21T21:59:01Z</time>
      </trkpt>
      <trkpt lat="47.92162" lon="6.91802">
        <ele>903</ele>
        <time>2014-06-21T21:59:05Z</time>
      </trkpt>
      <trkpt lat="47.92165" lon="6.91801">
        <ele>903</ele>
        <time>2014-06-21T21:59:07Z</time>
      </trkpt>
      <trkpt lat="47.92179" lon="6.91796">
        <ele>900</ele>
        <time>2014-06-21T21:59:20Z</time>
      </trkpt>
      <trkpt lat="47.92191" lon="6.91808">
        <ele>899</ele>
        <time>2014-06-21T21:59:30Z</time>
      </trkpt>
      <trkpt lat="47.92195" lon="6.91809">
        <ele>899</ele>
        <time>2014-06-21T21:59:32Z</time>
      </trkpt>
      <trkpt lat="47.92205" lon="6.91807">
        <ele>899</ele>
        <time>2014-06-21T21:59:38Z</time>
      </trkpt>
      <trkpt lat="47.92211" lon="6.91795">
        <ele>898</ele>
        <time>2014-06-21T21:59:44Z</time>
      </trkpt>
      <trkpt lat="47.92215" lon="6.91776">
        <ele>898</ele>
        <time>2014-06-21T21:59:54Z</time>
      </trkpt>
      <trkpt lat="47.9223" lon="6.91755">
        <ele>897</ele>
        <time>2014-06-21T22:00:09Z</time>
      </trkpt>
      <trkpt lat="47.92245" lon="6.91745">
        <ele>897</ele>
        <time>2014-06-21T22:00:20Z</time>
      </trkpt>
      <trkpt lat="47.92252" lon="6.91744">
        <ele>897</ele>
        <time>2014-06-21T22:00:26Z</time>
      </trkpt>
      <trkpt lat="47.92255" lon="6.91746">
        <ele>897</ele>
        <time>2014-06-21T22:00:29Z</time>
      </trkpt>
      <trkpt lat="47.92262" lon="6.9174">
        <ele>899</ele>
        <time>2014-06-21T22:00:40Z</time>
      </trkpt>
      <trkpt lat="47.92271" lon="6.91729">
        <ele>900</ele>
        <time>2014-06-21T22:00:54Z</time>
      </trkpt>
      <trkpt lat="47.92273" lon="6.91716">
        <ele>901</ele>
        <time>2014-06-21T22:01:08Z</time>
      </trkpt>
      <trkpt lat="47.92271" lon="6.91713">
        <ele>901</ele>
        <time>2014-06-21T22:03:24Z</time>
      </trkpt>
      <trkpt lat="47.92271" lon="6.91709">
        <ele>900</ele>
        <time>2014-06-21T22:09:07Z</time>
      </trkpt>
      <trkpt lat="47.92269" lon="6.91706">
        <ele>900</ele>
        <time>2014-06-21T22:24:53Z</time>
      </trkpt>
      <trkpt lat="47.92265" lon="6.91697">
        <ele>900</ele>
        <time>2014-06-21T22:24:57Z</time>
      </trkpt>
      <trkpt lat="47.92261" lon="6.91693">
        <ele>899</ele>
        <time>2014-06-21T22:25:10Z</time>
      </trkpt>
      <trkpt lat="47.92261" lon="6.91699">
        <ele>900</ele>
        <time>2014-06-21T22:25:35Z</time>
      </trkpt>
      <trkpt lat="47.92257" lon="6.91714">
        <ele>900</ele>
        <time>2014-06-21T22:25:47Z</time>
      </trkpt>
      <trkpt lat="47.92256" lon="6.91719">
        <ele>900</ele>
        <time>2014-06-21T22:25:50Z</time>
      </trkpt>
      <trkpt lat="47.92259" lon="6.91722">
        <ele>900</ele>
        <time>2014-06-21T22:25:56Z</time>
      </trkpt>
      <trkpt lat="47.92272" lon="6.91718">
        <ele>901</ele>
        <time>2014-06-21T22:26:07Z</time>
      </trkpt>
      <trkpt lat="47.92291" lon="6.91724">
        <ele>903</ele>
        <time>2014-06-21T22:26:18Z</time>
      </trkpt>
      <trkpt lat="47.923" lon="6.91726">
        <ele>904</ele>
        <time>2014-06-21T22:26:28Z</time>
      </trkpt>
      <trkpt lat="47.92307" lon="6.91719">
        <ele>904</ele>
        <time>2014-06-21T22:26:39Z</time>
      </trkpt>
      <trkpt lat="47.9231" lon="6.91718">
        <ele>904</ele>
        <time>2014-06-21T22:26:43Z</time>
      </trkpt>
      <trkpt lat="47.92324" lon="6.91706">
        <ele>904</ele>
        <time>2014-06-21T22:26:55Z</time>
      </trkpt>
      <trkpt lat="47.9233" lon="6.91693">
        <ele>903</ele>
        <time>2014-06-21T22:27:03Z</time>
      </trkpt>
      <trkpt lat="47.92333" lon="6.91694">
        <ele>903</ele>
        <time>2014-06-21T22:27:09Z</time>
      </trkpt>
      <trkpt lat="47.92342" lon="6.91688">
        <ele>909</ele>
        <time>2014-06-21T22:27:21Z</time>
      </trkpt>
      <trkpt lat="47.92358" lon="6.91692">
        <ele>912</ele>
        <time>2014-06-21T22:27:30Z</time>
      </trkpt>
      <trkpt lat="47.92361" lon="6.91686">
        <ele>911</ele>
        <time>2014-06-21T22:27:36Z</time>
      </trkpt>
      <trkpt lat="47.92367" lon="6.91677">
        <ele>911</ele>
        <time>2014-06-21T22:27:46Z</time>
      </trkpt>
      <trkpt lat="47.92371" lon="6.91678">
        <ele>912</ele>
        <time>2014-06-21T22:27:48Z</time>
      </trkpt>
      <trkpt lat="47.92386" lon="6.91692">
        <ele>914</ele>
        <time>2014-06-21T22:27:58Z</time>
      </trkpt>
      <trkpt lat="47.92383" lon="6.91693">
        <ele>914</ele>
        <time>2014-06-21T22:28:01Z</time>
      </trkpt>
      <trkpt lat="47.92383" lon="6.91697">
        <ele>915</ele>
        <time>2014-06-21T22:28:05Z</time>
      </trkpt>
      <trkpt lat="47.92386" lon="6.91695">
        <ele>915</ele>
        <time>2014-06-21T22:28:14Z</time>
      </trkpt>
      <trkpt lat="47.92389" lon="6.91698">
        <ele>915</ele>
        <time>2014-06-21T22:28:25Z</time>
      </trkpt>
      <trkpt lat="47.92397" lon="6.91706">
        <ele>917</ele>
        <time>2014-06-21T22:28:37Z</time>
      </trkpt>
      <trkpt lat="47.92395" lon="6.9171">
        <ele>917</ele>
        <time>2014-06-21T22:28:53Z</time>
      </trkpt>
      <trkpt lat="47.92384" lon="6.91708">
        <ele>916</ele>
        <time>2014-06-21T22:29:05Z</time>
      </trkpt>
      <trkpt lat="47.92381" lon="6.91709">
        <ele>916</ele>
        <time>2014-06-21T22:29:08Z</time>
      </trkpt>
      <trkpt lat="47.92374" lon="6.91714">
        <ele>916</ele>
        <time>2014-06-21T22:29:18Z</time>
      </trkpt>
      <trkpt lat="47.9237" lon="6.91716">
        <ele>916</ele>
        <time>2014-06-21T22:29:20Z</time>
      </trkpt>
      <trkpt lat="47.92367" lon="6.91717">
        <ele>916</ele>
        <time>2014-06-21T22:29:22Z</time>
      </trkpt>
      <trkpt lat="47.92364" lon="6.91717">
        <ele>915</ele>
        <time>2014-06-21T22:29:24Z</time>
      </trkpt>
      <trkpt lat="47.9236" lon="6.91721">
        <ele>915</ele>
        <time>2014-06-21T22:29:37Z</time>
      </trkpt>
      <trkpt lat="47.92357" lon="6.91721">
        <ele>915</ele>
        <time>2014-06-21T22:29:40Z</time>
      </trkpt>
      <trkpt lat="47.92356" lon="6.91734">
        <ele>916</ele>
        <time>2014-06-21T22:29:48Z</time>
      </trkpt>
      <trkpt lat="47.92361" lon="6.91739">
        <ele>917</ele>
        <time>2014-06-21T22:30:04Z</time>
      </trkpt>
      <trkpt lat="47.9237" lon="6.91742">
        <ele>918</ele>
        <time>2014-06-21T22:30:17Z</time>
      </trkpt>
      <trkpt lat="47.92372" lon="6.91745">
        <ele>918</ele>
        <time>2014-06-21T22:30:20Z</time>
      </trkpt>
      <trkpt lat="47.92375" lon="6.91749">
        <ele>919</ele>
        <time>2014-06-21T22:30:22Z</time>
      </trkpt>
      <trkpt lat="47.9238" lon="6.91756">
        <ele>930</ele>
        <time>2014-06-21T22:30:38Z</time>
      </trkpt>
      <trkpt lat="47.92381" lon="6.9176">
        <ele>930</ele>
        <time>2014-06-21T22:30:40Z</time>
      </trkpt>
      <trkpt lat="47.92384" lon="6.91762">
        <ele>931</ele>
        <time>2014-06-21T22:30:45Z</time>
      </trkpt>
      <trkpt lat="47.92398" lon="6.91776">
        <ele>933</ele>
        <time>2014-06-21T22:30:55Z</time>
      </trkpt>
      <trkpt lat="47.92403" lon="6.91783">
        <ele>934</ele>
        <time>2014-06-21T22:30:59Z</time>
      </trkpt>
      <trkpt lat="47.92413" lon="6.91787">
        <ele>935</ele>
        <time>2014-06-21T22:31:10Z</time>
      </trkpt>
      <trkpt lat="47.92416" lon="6.91789">
        <ele>936</ele>
        <time>2014-06-21T22:31:14Z</time>
      </trkpt>
      <trkpt lat="47.92425" lon="6.91792">
        <ele>944</ele>
        <time>2014-06-21T22:31:26Z</time>
      </trkpt>
      <trkpt lat="47.92428" lon="6.91796">
        <ele>945</ele>
        <time>2014-06-21T22:31:28Z</time>
      </trkpt>
      <trkpt lat="47.92431" lon="6.91801">
        <ele>945</ele>
        <time>2014-06-21T22:31:30Z</time>
      </trkpt>
      <trkpt lat="47.92444" lon="6.91808">
        <ele>946</ele>
        <time>2014-06-21T22:31:42Z</time>
      </trkpt>
      <trkpt lat="47.92451" lon="6.91818">
        <ele>947</ele>
        <time>2014-06-21T22:31:53Z</time>
      </trkpt>
      <trkpt lat="47.92454" lon="6.91822">
        <ele>947</ele>
        <time>2014-06-21T22:32:00Z</time>
      </trkpt>
      <trkpt lat="47.92464" lon="6.91831">
        <ele>947</ele>
        <time>2014-06-21T22:32:10Z</time>
      </trkpt>
      <trkpt lat="47.92475" lon="6.91848">
        <ele>959</ele>
        <time>2014-06-21T22:32:21Z</time>
      </trkpt>
      <trkpt lat="47.92478" lon="6.91852">
        <ele>959</ele>
        <time>2014-06-21T22:32:24Z</time>
      </trkpt>
      <trkpt lat="47.92483" lon="6.91855">
        <ele>959</ele>
        <time>2014-06-21T22:32:34Z</time>
      </trkpt>
      <trkpt lat="47.92487" lon="6.91869">
        <ele>962</ele>
        <time>2014-06-21T22:32:44Z</time>
      </trkpt>
      <trkpt lat="47.92494" lon="6.91873">
        <ele>962</ele>
        <time>2014-06-21T22:32:48Z</time>
      </trkpt>
      <trkpt lat="47.92499" lon="6.91879">
        <ele>964</ele>
        <time>2014-06-21T22:33:15Z</time>
      </trkpt>
      <trkpt lat="47.92507" lon="6.91895">
        <ele>971</ele>
        <time>2014-06-21T22:33:26Z</time>
      </trkpt>
      <trkpt lat="47.92513" lon="6.91912">
        <ele>973</ele>
        <time>2014-06-21T22:33:38Z</time>
      </trkpt>
      <trkpt lat="47.92516" lon="6.91916">
        <ele>973</ele>
        <time>2014-06-21T22:33:41Z</time>
      </trkpt>
      <trkpt lat="47.92518" lon="6.91919">
        <ele>981</ele>
        <time>2014-06-21T22:33:43Z</time>
      </trkpt>
      <trkpt lat="47.92527" lon="6.91926">
        <ele>982</ele>
        <time>2014-06-21T22:33:50Z</time>
      </trkpt>
      <trkpt lat="47.92535" lon="6.91935">
        <ele>983</ele>
        <time>2014-06-21T22:34:02Z</time>
      </trkpt>
      <trkpt lat="47.92537" lon="6.91946">
        <ele>983</ele>
        <time>2014-06-21T22:34:11Z</time>
      </trkpt>
      <trkpt lat="47.92541" lon="6.9195">
        <ele>984</ele>
        <time>2014-06-21T22:34:26Z</time>
      </trkpt>
      <trkpt lat="47.92539" lon="6.91948">
        <ele>984</ele>
        <time>2014-06-21T22:34:28Z</time>
      </trkpt>
      <trkpt lat="47.9254" lon="6.91945">
        <ele>983</ele>
        <time>2014-06-21T22:34:39Z</time>
      </trkpt>
      <trkpt lat="47.92534" lon="6.91949">
        <ele>984</ele>
        <time>2014-06-21T22:34:52Z</time>
      </trkpt>
      <trkpt lat="47.92531" lon="6.91948">
        <ele>984</ele>
        <time>2014-06-21T22:34:56Z</time>
      </trkpt>
      <trkpt lat="47.92516" lon="6.91945">
        <ele>983</ele>
        <time>2014-06-21T22:35:04Z</time>
      </trkpt>
      <trkpt lat="47.92507" lon="6.91948">
        <ele>983</ele>
        <time>2014-06-21T22:35:14Z</time>
      </trkpt>
      <trkpt lat="47.92494" lon="6.9195">
        <ele>976</ele>
        <time>2014-06-21T22:35:26Z</time>
      </trkpt>
      <trkpt lat="47.92491" lon="6.91948">
        <ele>976</ele>
        <time>2014-06-21T22:35:29Z</time>
      </trkpt>
      <trkpt lat="47.92487" lon="6.91947">
        <ele>976</ele>
        <time>2014-06-21T22:35:32Z</time>
      </trkpt>
      <trkpt lat="47.92476" lon="6.91947">
        <ele>975</ele>
        <time>2014-06-21T22:35:43Z</time>
      </trkpt>
      <trkpt lat="47.92483" lon="6.91964">
        <ele>977</ele>
        <time>2014-06-21T22:35:55Z</time>
      </trkpt>
      <trkpt lat="47.92484" lon="6.91968">
        <ele>978</ele>
        <time>2014-06-21T22:35:57Z</time>
      </trkpt>
      <trkpt lat="47.92487" lon="6.91971">
        <ele>978</ele>
        <time>2014-06-21T22:35:59Z</time>
      </trkpt>
      <trkpt lat="47.92496" lon="6.91986">
        <ele>983</ele>
        <time>2014-06-21T22:36:12Z</time>
      </trkpt>
      <trkpt lat="47.92499" lon="6.91987">
        <ele>984</ele>
        <time>2014-06-21T22:36:17Z</time>
      </trkpt>
      <trkpt lat="47.92506" lon="6.91988">
        <ele>988</ele>
        <time>2014-06-21T22:36:26Z</time>
      </trkpt>
      <trkpt lat="47.92517" lon="6.91987">
        <ele>987</ele>
        <time>2014-06-21T22:36:40Z</time>
      </trkpt>
      <trkpt lat="47.92519" lon="6.9199">
        <ele>987</ele>
        <time>2014-06-21T22:36:45Z</time>
      </trkpt>
      <trkpt lat="47.92522" lon="6.91992">
        <ele>987</ele>
        <time>2014-06-21T22:36:49Z</time>
      </trkpt>
      <trkpt lat="47.92525" lon="6.91993">
        <ele>987</ele>
        <time>2014-06-21T22:36:52Z</time>
      </trkpt>
      <trkpt lat="47.9253" lon="6.91996">
        <ele>987</ele>
        <time>2014-06-21T22:37:04Z</time>
      </trkpt>
      <trkpt lat="47.92532" lon="6.92">
        <ele>987</ele>
        <time>2014-06-21T22:37:06Z</time>
      </trkpt>
      <trkpt lat="47.92534" lon="6.92001">
        <ele>996</ele>
        <time>2014-06-21T22:37:12Z</time>
      </trkpt>
      <trkpt lat="47.92547" lon="6.92007">
        <ele>997</ele>
        <time>2014-06-21T22:37:24Z</time>
      </trkpt>
      <trkpt lat="47.92551" lon="6.92008">
        <ele>997</ele>
        <time>2014-06-21T22:37:27Z</time>
      </trkpt>
      <trkpt lat="47.92562" lon="6.92019">
        <ele>997</ele>
        <time>2014-06-21T22:37:39Z</time>
      </trkpt>
      <trkpt lat="47.92565" lon="6.92021">
        <ele>998</ele>
        <time>2014-06-21T22:37:41Z</time>
      </trkpt>
      <trkpt lat="47.92577" lon="6.92029">
        <ele>999</ele>
        <time>2014-06-21T22:37:52Z</time>
      </trkpt>
      <trkpt lat="47.92587" lon="6.92042">
        <ele>1008</ele>
        <time>2014-06-21T22:37:58Z</time>
      </trkpt>
      <trkpt lat="47.92593" lon="6.92043">
        <ele>1008</ele>
        <time>2014-06-21T22:38:04Z</time>
      </trkpt>
      <trkpt lat="47.92602" lon="6.92041">
        <ele>1008</ele>
        <time>2014-06-21T22:38:15Z</time>
      </trkpt>
      <trkpt lat="47.92604" lon="6.9204">
        <ele>1008</ele>
        <time>2014-06-21T22:38:24Z</time>
      </trkpt>
      <trkpt lat="47.92603" lon="6.92047">
        <ele>1009</ele>
        <time>2014-06-21T22:38:43Z</time>
      </trkpt>
      <trkpt lat="47.92587" lon="6.9206">
        <ele>1012</ele>
        <time>2014-06-21T22:38:55Z</time>
      </trkpt>
      <trkpt lat="47.9257" lon="6.92062">
        <ele>1006</ele>
        <time>2014-06-21T22:39:05Z</time>
      </trkpt>
      <trkpt lat="47.92567" lon="6.92063">
        <ele>1005</ele>
        <time>2014-06-21T22:39:08Z</time>
      </trkpt>
      <trkpt lat="47.92558" lon="6.92065">
        <ele>1004</ele>
        <time>2014-06-21T22:39:20Z</time>
      </trkpt>
      <trkpt lat="47.92564" lon="6.92062">
        <ele>1005</ele>
        <time>2014-06-21T22:39:33Z</time>
      </trkpt>
      <trkpt lat="47.92566" lon="6.92064">
        <ele>1005</ele>
        <time>2014-06-21T22:39:37Z</time>
      </trkpt>
      <trkpt lat="47.92569" lon="6.92067">
        <ele>1007</ele>
        <time>2014-06-21T22:39:40Z</time>
      </trkpt>
      <trkpt lat="47.92579" lon="6.9207">
        <ele>1010</ele>
        <time>2014-06-21T22:39:49Z</time>
      </trkpt>
      <trkpt lat="47.92593" lon="6.9208">
        <ele>1015</ele>
        <time>2014-06-21T22:40:00Z</time>
      </trkpt>
      <trkpt lat="47.92596" lon="6.92084">
        <ele>1022</ele>
        <time>2014-06-21T22:40:03Z</time>
      </trkpt>
      <trkpt lat="47.92602" lon="6.92092">
        <ele>1024</ele>
        <time>2014-06-21T22:40:13Z</time>
      </trkpt>
      <trkpt lat="47.92617" lon="6.92103">
        <ele>1027</ele>
        <time>2014-06-21T22:40:27Z</time>
      </trkpt>
      <trkpt lat="47.92619" lon="6.92105">
        <ele>1027</ele>
        <time>2014-06-21T22:40:30Z</time>
      </trkpt>
      <trkpt lat="47.92626" lon="6.92112">
        <ele>1028</ele>
        <time>2014-06-21T22:40:36Z</time>
      </trkpt>
      <trkpt lat="47.92632" lon="6.92117">
        <ele>1029</ele>
        <time>2014-06-21T22:40:52Z</time>
      </trkpt>
      <trkpt lat="47.92635" lon="6.92119">
        <ele>1029</ele>
        <time>2014-06-21T22:41:07Z</time>
      </trkpt>
      <trkpt lat="47.92645" lon="6.92119">
        <ele>1030</ele>
        <time>2014-06-21T22:41:18Z</time>
      </trkpt>
      <trkpt lat="47.92655" lon="6.92134">
        <ele>1033</ele>
        <time>2014-06-21T22:41:27Z</time>
      </trkpt>
      <trkpt lat="47.92663" lon="6.92142">
        <ele>1035</ele>
        <time>2014-06-21T22:41:51Z</time>
      </trkpt>
      <trkpt lat="47.92662" lon="6.92147">
        <ele>1037</ele>
        <time>2014-06-21T22:41:54Z</time>
      </trkpt>
      <trkpt lat="47.92659" lon="6.9215">
        <ele>1037</ele>
        <time>2014-06-21T22:41:56Z</time>
      </trkpt>
      <trkpt lat="47.92647" lon="6.92155">
        <ele>1036</ele>
        <time>2014-06-21T22:42:09Z</time>
      </trkpt>
      <trkpt lat="47.92632" lon="6.92165">
        <ele>1034</ele>
        <time>2014-06-21T22:42:20Z</time>
      </trkpt>
      <trkpt lat="47.92626" lon="6.92163">
        <ele>1033</ele>
        <time>2014-06-21T22:42:27Z</time>
      </trkpt>
      <trkpt lat="47.9262" lon="6.9216">
        <ele>1032</ele>
        <time>2014-06-21T22:42:33Z</time>
      </trkpt>
      <trkpt lat="47.92613" lon="6.92159">
        <ele>1032</ele>
        <time>2014-06-21T22:42:39Z</time>
      </trkpt>
      <trkpt lat="47.9261" lon="6.9216">
        <ele>1032</ele>
        <time>2014-06-21T22:42:42Z</time>
      </trkpt>
      <trkpt lat="47.92596" lon="6.92169">
        <ele>1038</ele>
        <time>2014-06-21T22:42:54Z</time>
      </trkpt>
      <trkpt lat="47.92583" lon="6.92171">
        <ele>1034</ele>
        <time>2014-06-21T22:43:05Z</time>
      </trkpt>
      <trkpt lat="47.92579" lon="6.92182">
        <ele>1025</ele>
        <time>2014-06-21T22:43:15Z</time>
      </trkpt>
      <trkpt lat="47.92577" lon="6.92202">
        <ele>1022</ele>
        <time>2014-06-21T22:43:25Z</time>
      </trkpt>
      <trkpt lat="47.92575" lon="6.92206">
        <ele>1022</ele>
        <time>2014-06-21T22:43:29Z</time>
      </trkpt>
      <trkpt lat="47.92583" lon="6.92213">
        <ele>1024</ele>
        <time>2014-06-21T22:43:40Z</time>
      </trkpt>
      <trkpt lat="47.92587" lon="6.92213">
        <ele>1044</ele>
        <time>2014-06-21T22:43:51Z</time>
      </trkpt>
      <trkpt lat="47.9259" lon="6.92216">
        <ele>1044</ele>
        <time>2014-06-21T22:44:04Z</time>
      </trkpt>
      <trkpt lat="47.92597" lon="6.92225">
        <ele>1045</ele>
        <time>2014-06-21T22:44:16Z</time>
      </trkpt>
      <trkpt lat="47.926" lon="6.92232">
        <ele>1046</ele>
        <time>2014-06-21T22:44:27Z</time>
      </trkpt>
      <trkpt lat="47.92603" lon="6.92234">
        <ele>1046</ele>
        <time>2014-06-21T22:44:30Z</time>
      </trkpt>
      <trkpt lat="47.92612" lon="6.92235">
        <ele>1047</ele>
        <time>2014-06-21T22:44:40Z</time>
      </trkpt>
      <trkpt lat="47.92623" lon="6.92244">
        <ele>1049</ele>
        <time>2014-06-21T22:44:52Z</time>
      </trkpt>
      <trkpt lat="47.92623" lon="6.92249">
        <ele>1049</ele>
        <time>2014-06-21T22:44:56Z</time>
      </trkpt>
      <trkpt lat="47.92626" lon="6.92248">
        <ele>1050</ele>
        <time>2014-06-21T22:45:04Z</time>
      </trkpt>
      <trkpt lat="47.92628" lon="6.92245">
        <ele>1050</ele>
        <time>2014-06-21T22:45:15Z</time>
      </trkpt>
      <trkpt lat="47.92631" lon="6.92249">
        <ele>1050</ele>
        <time>2014-06-21T22:45:31Z</time>
      </trkpt>
      <trkpt lat="47.92641" lon="6.92258">
        <ele>1057</ele>
        <time>2014-06-21T22:45:40Z</time>
      </trkpt>
      <trkpt lat="47.92644" lon="6.9226">
        <ele>1058</ele>
        <time>2014-06-21T22:45:44Z</time>
      </trkpt>
      <trkpt lat="47.92651" lon="6.92271">
        <ele>1058</ele>
        <time>2014-06-21T22:45:57Z</time>
      </trkpt>
      <trkpt lat="47.92667" lon="6.92278">
        <ele>1059</ele>
        <time>2014-06-21T22:46:09Z</time>
      </trkpt>
      <trkpt lat="47.92669" lon="6.92281">
        <ele>1072</ele>
        <time>2014-06-21T22:46:12Z</time>
      </trkpt>
      <trkpt lat="47.9267" lon="6.92289">
        <ele>1073</ele>
        <time>2014-06-21T22:46:23Z</time>
      </trkpt>
      <trkpt lat="47.92669" lon="6.92303">
        <ele>1074</ele>
        <time>2014-06-21T22:46:36Z</time>
      </trkpt>
      <trkpt lat="47.92666" lon="6.9231">
        <ele>1062</ele>
        <time>2014-06-21T22:46:42Z</time>
      </trkpt>
      <trkpt lat="47.92666" lon="6.92323">
        <ele>1066</ele>
        <time>2014-06-21T22:46:53Z</time>
      </trkpt>
      <trkpt lat="47.92671" lon="6.9233">
        <ele>1073</ele>
        <time>2014-06-21T22:47:01Z</time>
      </trkpt>
      <trkpt lat="47.9268" lon="6.9233">
        <ele>1074</ele>
        <time>2014-06-21T22:47:11Z</time>
      </trkpt>
      <trkpt lat="47.92683" lon="6.92327">
        <ele>1075</ele>
        <time>2014-06-21T22:47:15Z</time>
      </trkpt>
      <trkpt lat="47.92692" lon="6.92326">
        <ele>1076</ele>
        <time>2014-06-21T22:47:26Z</time>
      </trkpt>
      <trkpt lat="47.92697" lon="6.92327">
        <ele>1077</ele>
        <time>2014-06-21T22:47:37Z</time>
      </trkpt>
      <trkpt lat="47.92698" lon="6.92332">
        <ele>1077</ele>
        <time>2014-06-21T22:47:42Z</time>
      </trkpt>
      <trkpt lat="47.92701" lon="6.92341">
        <ele>1082</ele>
        <time>2014-06-21T22:47:56Z</time>
      </trkpt>
      <trkpt lat="47.92703" lon="6.92338">
        <ele>1082</ele>
        <time>2014-06-21T22:48:02Z</time>
      </trkpt>
      <trkpt lat="47.92706" lon="6.92341">
        <ele>1083</ele>
        <time>2014-06-21T22:50:05Z</time>
      </trkpt>
      <trkpt lat="47.92708" lon="6.92344">
        <ele>1083</ele>
        <time>2014-06-21T22:52:02Z</time>
      </trkpt>
      <trkpt lat="47.92712" lon="6.92349">
        <ele>1084</ele>
        <time>2014-06-21T22:52:13Z</time>
      </trkpt>
      <trkpt lat="47.92728" lon="6.92358">
        <ele>1086</ele>
        <time>2014-06-21T22:52:23Z</time>
      </trkpt>
      <trkpt lat="47.92731" lon="6.92359">
        <ele>1087</ele>
        <time>2014-06-21T22:52:26Z</time>
      </trkpt>
      <trkpt lat="47.92732" lon="6.92363">
        <ele>1087</ele>
        <time>2014-06-21T22:52:31Z</time>
      </trkpt>
      <trkpt lat="47.92737" lon="6.92367">
        <ele>1087</ele>
        <time>2014-06-21T22:52:37Z</time>
      </trkpt>
      <trkpt lat="47.92743" lon="6.92377">
        <ele>1088</ele>
        <time>2014-06-21T22:52:49Z</time>
      </trkpt>
      <trkpt lat="47.92746" lon="6.92383">
        <ele>1089</ele>
        <time>2014-06-21T22:53:07Z</time>
      </trkpt>
      <trkpt lat="47.92748" lon="6.92386">
        <ele>1090</ele>
        <time>2014-06-21T22:53:09Z</time>
      </trkpt>
      <trkpt lat="47.92759" lon="6.92404">
        <ele>1103</ele>
        <time>2014-06-21T22:53:20Z</time>
      </trkpt>
      <trkpt lat="47.92761" lon="6.92407">
        <ele>1103</ele>
        <time>2014-06-21T22:53:23Z</time>
      </trkpt>
      <trkpt lat="47.92764" lon="6.9241">
        <ele>1103</ele>
        <time>2014-06-21T22:53:27Z</time>
      </trkpt>
      <trkpt lat="47.92772" lon="6.92424">
        <ele>1103</ele>
        <time>2014-06-21T22:53:38Z</time>
      </trkpt>
      <trkpt lat="47.92774" lon="6.92427">
        <ele>1104</ele>
        <time>2014-06-21T22:53:41Z</time>
      </trkpt>
      <trkpt lat="47.92782" lon="6.92425">
        <ele>1105</ele>
        <time>2014-06-21T22:53:52Z</time>
      </trkpt>
      <trkpt lat="47.92793" lon="6.92433">
        <ele>1106</ele>
        <time>2014-06-21T22:54:04Z</time>
      </trkpt>
      <trkpt lat="47.92797" lon="6.92434">
        <ele>1107</ele>
        <time>2014-06-21T22:54:08Z</time>
      </trkpt>
      <trkpt lat="47.92808" lon="6.92448">
        <ele>1108</ele>
        <time>2014-06-21T22:54:18Z</time>
      </trkpt>
      <trkpt lat="47.92824" lon="6.92449">
        <ele>1109</ele>
        <time>2014-06-21T22:54:31Z</time>
      </trkpt>
      <trkpt lat="47.92837" lon="6.92455">
        <ele>1122</ele>
        <time>2014-06-21T22:54:43Z</time>
      </trkpt>
      <trkpt lat="47.92848" lon="6.92458">
        <ele>1123</ele>
        <time>2014-06-21T22:54:55Z</time>
      </trkpt>
      <trkpt lat="47.9286" lon="6.92466">
        <ele>1124</ele>
        <time>2014-06-21T22:55:07Z</time>
      </trkpt>
      <trkpt lat="47.92872" lon="6.92467">
        <ele>1125</ele>
        <time>2014-06-21T22:55:19Z</time>
      </trkpt>
      <trkpt lat="47.92884" lon="6.92468">
        <ele>1126</ele>
        <time>2014-06-21T22:55:31Z</time>
      </trkpt>
      <trkpt lat="47.92889" lon="6.92471">
        <ele>1127</ele>
        <time>2014-06-21T22:55:37Z</time>
      </trkpt>
      <trkpt lat="47.92899" lon="6.92476">
        <ele>1128</ele>
        <time>2014-06-21T22:55:46Z</time>
      </trkpt>
      <trkpt lat="47.9291" lon="6.92483">
        <ele>1130</ele>
        <time>2014-06-21T22:55:58Z</time>
      </trkpt>
      <trkpt lat="47.92919" lon="6.92489">
        <ele>1136</ele>
        <time>2014-06-21T22:56:08Z</time>
      </trkpt>
      <trkpt lat="47.92925" lon="6.92494">
        <ele>1136</ele>
        <time>2014-06-21T22:56:20Z</time>
      </trkpt>
      <trkpt lat="47.92934" lon="6.92496">
        <ele>1137</ele>
        <time>2014-06-21T22:56:30Z</time>
      </trkpt>
      <trkpt lat="47.92949" lon="6.92503">
        <ele>1140</ele>
        <time>2014-06-21T22:56:39Z</time>
      </trkpt>
      <trkpt lat="47.92958" lon="6.92515">
        <ele>1140</ele>
        <time>2014-06-21T22:56:50Z</time>
      </trkpt>
      <trkpt lat="47.92959" lon="6.92519">
        <ele>1141</ele>
        <time>2014-06-21T22:56:52Z</time>
      </trkpt>
      <trkpt lat="47.92965" lon="6.92524">
        <ele>1141</ele>
        <time>2014-06-21T22:57:02Z</time>
      </trkpt>
      <trkpt lat="47.92965" lon="6.92532">
        <ele>1141</ele>
        <time>2014-06-21T22:57:16Z</time>
      </trkpt>
      <trkpt lat="47.92971" lon="6.92538">
        <ele>1141</ele>
        <time>2014-06-21T22:57:21Z</time>
      </trkpt>
      <trkpt lat="47.92974" lon="6.92537">
        <ele>1142</ele>
        <time>2014-06-21T22:57:25Z</time>
      </trkpt>
      <trkpt lat="47.9298" lon="6.92539">
        <ele>1142</ele>
        <time>2014-06-21T22:57:29Z</time>
      </trkpt>
      <trkpt lat="47.92996" lon="6.92541">
        <ele>1143</ele>
        <time>2014-06-21T22:57:47Z</time>
      </trkpt>
      <trkpt lat="47.93008" lon="6.92548">
        <ele>1149</ele>
        <time>2014-06-21T22:57:58Z</time>
      </trkpt>
      <trkpt lat="47.93012" lon="6.92551">
        <ele>1149</ele>
        <time>2014-06-21T22:58:00Z</time>
      </trkpt>
      <trkpt lat="47.93015" lon="6.92554">
        <ele>1149</ele>
        <time>2014-06-21T22:58:02Z</time>
      </trkpt>
      <trkpt lat="47.93018" lon="6.92555">
        <ele>1149</ele>
        <time>2014-06-21T22:58:05Z</time>
      </trkpt>
      <trkpt lat="47.93021" lon="6.92556">
        <ele>1149</ele>
        <time>2014-06-21T22:58:09Z</time>
      </trkpt>
      <trkpt lat="47.93025" lon="6.92558">
        <ele>1149</ele>
        <time>2014-06-21T22:58:12Z</time>
      </trkpt>
      <trkpt lat="47.93037" lon="6.92572">
        <ele>1149</ele>
        <time>2014-06-21T22:58:23Z</time>
      </trkpt>
      <trkpt lat="47.93043" lon="6.92578">
        <ele>1149</ele>
        <time>2014-06-21T22:58:28Z</time>
      </trkpt>
      <trkpt lat="47.93049" lon="6.92581">
        <ele>1150</ele>
        <time>2014-06-21T22:58:34Z</time>
      </trkpt>
      <trkpt lat="47.93064" lon="6.92588">
        <ele>1148</ele>
        <time>2014-06-21T22:58:45Z</time>
      </trkpt>
      <trkpt lat="47.93068" lon="6.9259">
        <ele>1148</ele>
        <time>2014-06-21T22:58:48Z</time>
      </trkpt>
      <trkpt lat="47.9307" lon="6.9259">
        <ele>1148</ele>
        <time>2014-06-21T22:58:50Z</time>
      </trkpt>
      <trkpt lat="47.9308" lon="6.92592">
        <ele>1149</ele>
        <time>2014-06-21T22:58:58Z</time>
      </trkpt>
      <trkpt lat="47.93086" lon="6.92585">
        <ele>1148</ele>
        <time>2014-06-21T23:00:43Z</time>
      </trkpt>
      <trkpt lat="47.93095" lon="6.9257">
        <ele>1144</ele>
        <time>2014-06-21T23:00:55Z</time>
      </trkpt>
      <trkpt lat="47.93097" lon="6.92553">
        <ele>1141</ele>
        <time>2014-06-21T23:01:09Z</time>
      </trkpt>
      <trkpt lat="47.93106" lon="6.92539">
        <ele>1140</ele>
        <time>2014-06-21T23:01:20Z</time>
      </trkpt>
      <trkpt lat="47.93108" lon="6.92535">
        <ele>1140</ele>
        <time>2014-06-21T23:01:22Z</time>
      </trkpt>
      <trkpt lat="47.93109" lon="6.92531">
        <ele>1140</ele>
        <time>2014-06-21T23:01:25Z</time>
      </trkpt>
      <trkpt lat="47.93115" lon="6.9252">
        <ele>1139</ele>
        <time>2014-06-21T23:01:34Z</time>
      </trkpt>
      <trkpt lat="47.93126" lon="6.925">
        <ele>1138</ele>
        <time>2014-06-21T23:01:48Z</time>
      </trkpt>
      <trkpt lat="47.93131" lon="6.9248">
        <ele>1140</ele>
        <time>2014-06-21T23:01:58Z</time>
      </trkpt>
      <trkpt lat="47.9314" lon="6.9246">
        <ele>1140</ele>
        <time>2014-06-21T23:02:10Z</time>
      </trkpt>
      <trkpt lat="47.93142" lon="6.92457">
        <ele>1140</ele>
        <time>2014-06-21T23:02:12Z</time>
      </trkpt>
      <trkpt lat="47.93147" lon="6.92446">
        <ele>1140</ele>
        <time>2014-06-21T23:02:20Z</time>
      </trkpt>
      <trkpt lat="47.9315" lon="6.92443">
        <ele>1140</ele>
        <time>2014-06-21T23:02:23Z</time>
      </trkpt>
      <trkpt lat="47.93164" lon="6.92435">
        <ele>1140</ele>
        <time>2014-06-21T23:02:33Z</time>
      </trkpt>
      <trkpt lat="47.93178" lon="6.92428">
        <ele>1135</ele>
        <time>2014-06-21T23:02:43Z</time>
      </trkpt>
      <trkpt lat="47.93184" lon="6.92425">
        <ele>1135</ele>
        <time>2014-06-21T23:02:48Z</time>
      </trkpt>
      <trkpt lat="47.93198" lon="6.92415">
        <ele>1142</ele>
        <time>2014-06-21T23:02:59Z</time>
      </trkpt>
      <trkpt lat="47.932" lon="6.92417">
        <ele>1134</ele>
        <time>2014-06-21T23:03:06Z</time>
      </trkpt>
      <trkpt lat="47.93203" lon="6.92416">
        <ele>1142</ele>
        <time>2014-06-21T23:03:09Z</time>
      </trkpt>
      <trkpt lat="47.93217" lon="6.92407">
        <ele>1141</ele>
        <time>2014-06-21T23:03:21Z</time>
      </trkpt>
      <trkpt lat="47.93231" lon="6.92402">
        <ele>1141</ele>
        <time>2014-06-21T23:03:32Z</time>
      </trkpt>
      <trkpt lat="47.9324" lon="6.92399">
        <ele>1141</ele>
        <time>2014-06-21T23:03:49Z</time>
      </trkpt>
      <trkpt lat="47.93252" lon="6.9239">
        <ele>1140</ele>
        <time>2014-06-21T23:03:59Z</time>
      </trkpt>
      <trkpt lat="47.93255" lon="6.92391">
        <ele>1140</ele>
        <time>2014-06-21T23:04:04Z</time>
      </trkpt>
      <trkpt lat="47.93262" lon="6.92391">
        <ele>1140</ele>
        <time>2014-06-21T23:04:14Z</time>
      </trkpt>
      <trkpt lat="47.93269" lon="6.92393">
        <ele>1140</ele>
        <time>2014-06-21T23:04:19Z</time>
      </trkpt>
      <trkpt lat="47.93278" lon="6.924">
        <ele>1139</ele>
        <time>2014-06-21T23:04:26Z</time>
      </trkpt>
      <trkpt lat="47.9329" lon="6.92409">
        <ele>1139</ele>
        <time>2014-06-21T23:04:36Z</time>
      </trkpt>
      <trkpt lat="47.93296" lon="6.92412">
        <ele>1139</ele>
        <time>2014-06-21T23:04:40Z</time>
      </trkpt>
      <trkpt lat="47.93309" lon="6.92422">
        <ele>1132</ele>
        <time>2014-06-21T23:04:50Z</time>
      </trkpt>
      <trkpt lat="47.93323" lon="6.92423">
        <ele>1135</ele>
        <time>2014-06-21T23:05:02Z</time>
      </trkpt>
      <trkpt lat="47.9334" lon="6.92423">
        <ele>1137</ele>
        <time>2014-06-21T23:05:13Z</time>
      </trkpt>
      <trkpt lat="47.93343" lon="6.92424">
        <ele>1137</ele>
        <time>2014-06-21T23:05:19Z</time>
      </trkpt>
      <trkpt lat="47.93355" lon="6.92429">
        <ele>1135</ele>
        <time>2014-06-21T23:05:29Z</time>
      </trkpt>
      <trkpt lat="47.93367" lon="6.92437">
        <ele>1134</ele>
        <time>2014-06-21T23:05:40Z</time>
      </trkpt>
      <trkpt lat="47.93374" lon="6.92448">
        <ele>1134</ele>
        <time>2014-06-21T23:05:46Z</time>
      </trkpt>
      <trkpt lat="47.93387" lon="6.92464">
        <ele>1133</ele>
        <time>2014-06-21T23:05:56Z</time>
      </trkpt>
      <trkpt lat="47.93389" lon="6.92468">
        <ele>1133</ele>
        <time>2014-06-21T23:05:59Z</time>
      </trkpt>
      <trkpt lat="47.93393" lon="6.92489">
        <ele>1133</ele>
        <time>2014-06-21T23:06:12Z</time>
      </trkpt>
      <trkpt lat="47.93396" lon="6.92494">
        <ele>1133</ele>
        <time>2014-06-21T23:06:14Z</time>
      </trkpt>
      <trkpt lat="47.93399" lon="6.92497">
        <ele>1134</ele>
        <time>2014-06-21T23:06:16Z</time>
      </trkpt>
      <trkpt lat="47.93402" lon="6.925">
        <ele>1134</ele>
        <time>2014-06-21T23:06:18Z</time>
      </trkpt>
      <trkpt lat="47.93413" lon="6.92512">
        <ele>1128</ele>
        <time>2014-06-21T23:06:28Z</time>
      </trkpt>
      <trkpt lat="47.93416" lon="6.92513">
        <ele>1128</ele>
        <time>2014-06-21T23:06:30Z</time>
      </trkpt>
      <trkpt lat="47.93418" lon="6.92509">
        <ele>1133</ele>
        <time>2014-06-21T23:06:31Z</time>
      </trkpt>
      <trkpt lat="47.93422" lon="6.92505">
        <ele>1133</ele>
        <time>2014-06-21T23:06:33Z</time>
      </trkpt>
      <trkpt lat="47.93426" lon="6.92501">
        <ele>1133</ele>
        <time>2014-06-21T23:06:35Z</time>
      </trkpt>
      <trkpt lat="47.9343" lon="6.92498">
        <ele>1136</ele>
        <time>2014-06-21T23:06:37Z</time>
      </trkpt>
      <trkpt lat="47.93443" lon="6.92496">
        <ele>1137</ele>
        <time>2014-06-21T23:06:47Z</time>
      </trkpt>
      <trkpt lat="47.93458" lon="6.92501">
        <ele>1132</ele>
        <time>2014-06-21T23:06:59Z</time>
      </trkpt>
      <trkpt lat="47.93469" lon="6.92495">
        <ele>1138</ele>
        <time>2014-06-21T23:07:08Z</time>
      </trkpt>
      <trkpt lat="47.93471" lon="6.92494">
        <ele>1138</ele>
        <time>2014-06-21T23:07:11Z</time>
      </trkpt>
      <trkpt lat="47.93485" lon="6.92495">
        <ele>1138</ele>
        <time>2014-06-21T23:07:21Z</time>
      </trkpt>
      <trkpt lat="47.93496" lon="6.92493">
        <ele>1139</ele>
        <time>2014-06-21T23:07:33Z</time>
      </trkpt>
      <trkpt lat="47.93508" lon="6.92496">
        <ele>1139</ele>
        <time>2014-06-21T23:07:43Z</time>
      </trkpt>
      <trkpt lat="47.9352" lon="6.9249">
        <ele>1138</ele>
        <time>2014-06-21T23:07:53Z</time>
      </trkpt>
      <trkpt lat="47.93523" lon="6.92491">
        <ele>1138</ele>
        <time>2014-06-21T23:07:56Z</time>
      </trkpt>
      <trkpt lat="47.93539" lon="6.92481">
        <ele>1138</ele>
        <time>2014-06-21T23:08:07Z</time>
      </trkpt>
      <trkpt lat="47.93552" lon="6.92479">
        <ele>1137</ele>
        <time>2014-06-21T23:08:17Z</time>
      </trkpt>
      <trkpt lat="47.93554" lon="6.92482">
        <ele>1137</ele>
        <time>2014-06-21T23:08:19Z</time>
      </trkpt>
      <trkpt lat="47.93557" lon="6.92485">
        <ele>1137</ele>
        <time>2014-06-21T23:08:21Z</time>
      </trkpt>
      <trkpt lat="47.93563" lon="6.92485">
        <ele>1137</ele>
        <time>2014-06-21T23:08:26Z</time>
      </trkpt>
      <trkpt lat="47.93566" lon="6.92483">
        <ele>1137</ele>
        <time>2014-06-21T23:08:29Z</time>
      </trkpt>
      <trkpt lat="47.93577" lon="6.9248">
        <ele>1137</ele>
        <time>2014-06-21T23:08:41Z</time>
      </trkpt>
      <trkpt lat="47.93597" lon="6.92478">
        <ele>1132</ele>
        <time>2014-06-21T23:08:51Z</time>
      </trkpt>
      <trkpt lat="47.93603" lon="6.92475">
        <ele>1131</ele>
        <time>2014-06-21T23:08:57Z</time>
      </trkpt>
      <trkpt lat="47.93606" lon="6.92474">
        <ele>1131</ele>
        <time>2014-06-21T23:09:00Z</time>
      </trkpt>
      <trkpt lat="47.93618" lon="6.92456">
        <ele>1130</ele>
        <time>2014-06-21T23:09:12Z</time>
      </trkpt>
      <trkpt lat="47.9362" lon="6.92452">
        <ele>1130</ele>
        <time>2014-06-21T23:09:15Z</time>
      </trkpt>
      <trkpt lat="47.93623" lon="6.9245">
        <ele>1130</ele>
        <time>2014-06-21T23:09:18Z</time>
      </trkpt>
      <trkpt lat="47.9363" lon="6.92447">
        <ele>1129</ele>
        <time>2014-06-21T23:09:24Z</time>
      </trkpt>
      <trkpt lat="47.93633" lon="6.9244">
        <ele>1129</ele>
        <time>2014-06-21T23:09:29Z</time>
      </trkpt>
      <trkpt lat="47.9364" lon="6.92429">
        <ele>1128</ele>
        <time>2014-06-21T23:09:39Z</time>
      </trkpt>
      <trkpt lat="47.93649" lon="6.92411">
        <ele>1126</ele>
        <time>2014-06-21T23:09:50Z</time>
      </trkpt>
      <trkpt lat="47.93653" lon="6.92398">
        <ele>1125</ele>
        <time>2014-06-21T23:10:00Z</time>
      </trkpt>
      <trkpt lat="47.93656" lon="6.92395">
        <ele>1125</ele>
        <time>2014-06-21T23:10:20Z</time>
      </trkpt>
      <trkpt lat="47.93658" lon="6.9238">
        <ele>1125</ele>
        <time>2014-06-21T23:10:31Z</time>
      </trkpt>
      <trkpt lat="47.93664" lon="6.92369">
        <ele>1124</ele>
        <time>2014-06-21T23:10:47Z</time>
      </trkpt>
      <trkpt lat="47.93667" lon="6.92367">
        <ele>1123</ele>
        <time>2014-06-21T23:10:52Z</time>
      </trkpt>
      <trkpt lat="47.93668" lon="6.92363">
        <ele>1107</ele>
        <time>2014-06-21T23:11:03Z</time>
      </trkpt>
      <trkpt lat="47.93663" lon="6.92361">
        <ele>1123</ele>
        <time>2014-06-21T23:11:14Z</time>
      </trkpt>
      <trkpt lat="47.93662" lon="6.92348">
        <ele>1121</ele>
        <time>2014-06-21T23:11:32Z</time>
      </trkpt>
      <trkpt lat="47.93665" lon="6.92349">
        <ele>1121</ele>
        <time>2014-06-21T23:11:35Z</time>
      </trkpt>
      <trkpt lat="47.93678" lon="6.92357">
        <ele>1106</ele>
        <time>2014-06-21T23:11:45Z</time>
      </trkpt>
      <trkpt lat="47.93681" lon="6.92362">
        <ele>1106</ele>
        <time>2014-06-21T23:11:48Z</time>
      </trkpt>
      <trkpt lat="47.93686" lon="6.92372">
        <ele>1105</ele>
        <time>2014-06-21T23:11:58Z</time>
      </trkpt>
      <trkpt lat="47.93682" lon="6.92366">
        <ele>1105</ele>
        <time>2014-06-21T23:12:11Z</time>
      </trkpt>
      <trkpt lat="47.93684" lon="6.9236">
        <ele>1105</ele>
        <time>2014-06-21T23:12:16Z</time>
      </trkpt>
      <trkpt lat="47.93687" lon="6.92337">
        <ele>1106</ele>
        <time>2014-06-21T23:12:28Z</time>
      </trkpt>
      <trkpt lat="47.93688" lon="6.92311">
        <ele>1099</ele>
        <time>2014-06-21T23:12:39Z</time>
      </trkpt>
      <trkpt lat="47.93688" lon="6.92307">
        <ele>1098</ele>
        <time>2014-06-21T23:12:41Z</time>
      </trkpt>
      <trkpt lat="47.93685" lon="6.92294">
        <ele>1097</ele>
        <time>2014-06-21T23:12:55Z</time>
      </trkpt>
      <trkpt lat="47.93698" lon="6.92291">
        <ele>1094</ele>
        <time>2014-06-21T23:13:05Z</time>
      </trkpt>
      <trkpt lat="47.93705" lon="6.92299">
        <ele>1093</ele>
        <time>2014-06-21T23:13:18Z</time>
      </trkpt>
      <trkpt lat="47.93705" lon="6.92304">
        <ele>1093</ele>
        <time>2014-06-21T23:13:21Z</time>
      </trkpt>
      <trkpt lat="47.93707" lon="6.92308">
        <ele>1093</ele>
        <time>2014-06-21T23:13:24Z</time>
      </trkpt>
      <trkpt lat="47.93716" lon="6.92308">
        <ele>1091</ele>
        <time>2014-06-21T23:13:36Z</time>
      </trkpt>
      <trkpt lat="47.93713" lon="6.92304">
        <ele>1092</ele>
        <time>2014-06-21T23:13:39Z</time>
      </trkpt>
      <trkpt lat="47.93711" lon="6.92284">
        <ele>1091</ele>
        <time>2014-06-21T23:13:52Z</time>
      </trkpt>
      <trkpt lat="47.93713" lon="6.92272">
        <ele>1090</ele>
        <time>2014-06-21T23:14:03Z</time>
      </trkpt>
      <trkpt lat="47.93714" lon="6.92268">
        <ele>1090</ele>
        <time>2014-06-21T23:14:15Z</time>
      </trkpt>
      <trkpt lat="47.93715" lon="6.92263">
        <ele>1090</ele>
        <time>2014-06-21T23:14:18Z</time>
      </trkpt>
      <trkpt lat="47.93718" lon="6.92259">
        <ele>1089</ele>
        <time>2014-06-21T23:14:21Z</time>
      </trkpt>
      <trkpt lat="47.9372" lon="6.92254">
        <ele>1088</ele>
        <time>2014-06-21T23:14:23Z</time>
      </trkpt>
      <trkpt lat="47.93718" lon="6.92237">
        <ele>1082</ele>
        <time>2014-06-21T23:14:40Z</time>
      </trkpt>
      <trkpt lat="47.93723" lon="6.92231">
        <ele>1081</ele>
        <time>2014-06-21T23:14:45Z</time>
      </trkpt>
      <trkpt lat="47.93726" lon="6.92229">
        <ele>1081</ele>
        <time>2014-06-21T23:14:48Z</time>
      </trkpt>
      <trkpt lat="47.93734" lon="6.92223">
        <ele>1080</ele>
        <time>2014-06-21T23:14:57Z</time>
      </trkpt>
      <trkpt lat="47.93742" lon="6.92232">
        <ele>1079</ele>
        <time>2014-06-21T23:15:08Z</time>
      </trkpt>
      <trkpt lat="47.93742" lon="6.92252">
        <ele>1081</ele>
        <time>2014-06-21T23:15:20Z</time>
      </trkpt>
      <trkpt lat="47.9374" lon="6.92265">
        <ele>1084</ele>
        <time>2014-06-21T23:15:30Z</time>
      </trkpt>
      <trkpt lat="47.9375" lon="6.92267">
        <ele>1069</ele>
        <time>2014-06-21T23:15:42Z</time>
      </trkpt>
      <trkpt lat="47.93752" lon="6.92263">
        <ele>1070</ele>
        <time>2014-06-21T23:15:54Z</time>
      </trkpt>
      <trkpt lat="47.93757" lon="6.92241">
        <ele>1071</ele>
        <time>2014-06-21T23:16:05Z</time>
      </trkpt>
      <trkpt lat="47.93758" lon="6.92219">
        <ele>1066</ele>
        <time>2014-06-21T23:16:17Z</time>
      </trkpt>
      <trkpt lat="47.93761" lon="6.92217">
        <ele>1066</ele>
        <time>2014-06-21T23:16:29Z</time>
      </trkpt>
      <trkpt lat="47.93768" lon="6.92229">
        <ele>1066</ele>
        <time>2014-06-21T23:16:40Z</time>
      </trkpt>
      <trkpt lat="47.9377" lon="6.92232">
        <ele>1066</ele>
        <time>2014-06-21T23:16:51Z</time>
      </trkpt>
      <trkpt lat="47.9377" lon="6.92248">
        <ele>1068</ele>
        <time>2014-06-21T23:17:03Z</time>
      </trkpt>
      <trkpt lat="47.93779" lon="6.92247">
        <ele>1066</ele>
        <time>2014-06-21T23:17:12Z</time>
      </trkpt>
      <trkpt lat="47.93782" lon="6.92245">
        <ele>1065</ele>
        <time>2014-06-21T23:17:17Z</time>
      </trkpt>
      <trkpt lat="47.93783" lon="6.92239">
        <ele>1064</ele>
        <time>2014-06-21T23:17:30Z</time>
      </trkpt>
      <trkpt lat="47.93781" lon="6.9222">
        <ele>1064</ele>
        <time>2014-06-21T23:17:41Z</time>
      </trkpt>
      <trkpt lat="47.93788" lon="6.92213">
        <ele>1063</ele>
        <time>2014-06-21T23:17:52Z</time>
      </trkpt>
      <trkpt lat="47.93794" lon="6.92209">
        <ele>1062</ele>
        <time>2014-06-21T23:17:58Z</time>
      </trkpt>
      <trkpt lat="47.93804" lon="6.9221">
        <ele>1061</ele>
        <time>2014-06-21T23:18:08Z</time>
      </trkpt>
      <trkpt lat="47.93823" lon="6.92208">
        <ele>1059</ele>
        <time>2014-06-21T23:18:18Z</time>
      </trkpt>
      <trkpt lat="47.93829" lon="6.92206">
        <ele>1059</ele>
        <time>2014-06-21T23:18:22Z</time>
      </trkpt>
      <trkpt lat="47.93843" lon="6.92207">
        <ele>1057</ele>
        <time>2014-06-21T23:18:33Z</time>
      </trkpt>
      <trkpt lat="47.93855" lon="6.92212">
        <ele>1058</ele>
        <time>2014-06-21T23:18:44Z</time>
      </trkpt>
      <trkpt lat="47.93859" lon="6.92212">
        <ele>1058</ele>
        <time>2014-06-21T23:18:46Z</time>
      </trkpt>
      <trkpt lat="47.93862" lon="6.92211">
        <ele>1058</ele>
        <time>2014-06-21T23:18:48Z</time>
      </trkpt>
      <trkpt lat="47.93875" lon="6.92212">
        <ele>1059</ele>
        <time>2014-06-21T23:19:00Z</time>
      </trkpt>
      <trkpt lat="47.93875" lon="6.92217">
        <ele>1059</ele>
        <time>2014-06-21T23:19:30Z</time>
      </trkpt>
      <trkpt lat="47.93879" lon="6.92216">
        <ele>1060</ele>
        <time>2014-06-21T23:20:41Z</time>
      </trkpt>
      <trkpt lat="47.93884" lon="6.92212">
        <ele>1060</ele>
        <time>2014-06-21T23:20:45Z</time>
      </trkpt>
      <trkpt lat="47.93891" lon="6.92196">
        <ele>1060</ele>
        <time>2014-06-21T23:21:00Z</time>
      </trkpt>
      <trkpt lat="47.93895" lon="6.92189">
        <ele>1060</ele>
        <time>2014-06-21T23:21:06Z</time>
      </trkpt>
      <trkpt lat="47.93901" lon="6.92184">
        <ele>1060</ele>
        <time>2014-06-21T23:21:12Z</time>
      </trkpt>
      <trkpt lat="47.93902" lon="6.92181">
        <ele>1060</ele>
        <time>2014-06-21T23:21:19Z</time>
      </trkpt>
      <trkpt lat="47.93907" lon="6.92162">
        <ele>1058</ele>
        <time>2014-06-21T23:21:29Z</time>
      </trkpt>
      <trkpt lat="47.93909" lon="6.92157">
        <ele>1058</ele>
        <time>2014-06-21T23:21:31Z</time>
      </trkpt>
      <trkpt lat="47.93913" lon="6.92148">
        <ele>1056</ele>
        <time>2014-06-21T23:21:36Z</time>
      </trkpt>
      <trkpt lat="47.93914" lon="6.9214">
        <ele>1055</ele>
        <time>2014-06-21T23:21:49Z</time>
      </trkpt>
      <trkpt lat="47.93914" lon="6.92154">
        <ele>1057</ele>
        <time>2014-06-21T23:22:00Z</time>
      </trkpt>
      <trkpt lat="47.93912" lon="6.92157">
        <ele>1058</ele>
        <time>2014-06-21T23:22:06Z</time>
      </trkpt>
      <trkpt lat="47.93915" lon="6.92171">
        <ele>1061</ele>
        <time>2014-06-21T23:22:17Z</time>
      </trkpt>
      <trkpt lat="47.93913" lon="6.92176">
        <ele>1061</ele>
        <time>2014-06-21T23:22:21Z</time>
      </trkpt>
      <trkpt lat="47.9391" lon="6.92184">
        <ele>1061</ele>
        <time>2014-06-21T23:22:27Z</time>
      </trkpt>
      <trkpt lat="47.93911" lon="6.92188">
        <ele>1061</ele>
        <time>2014-06-21T23:22:30Z</time>
      </trkpt>
      <trkpt lat="47.93911" lon="6.92201">
        <ele>1061</ele>
        <time>2014-06-21T23:22:40Z</time>
      </trkpt>
      <trkpt lat="47.93911" lon="6.9221">
        <ele>1062</ele>
        <time>2014-06-21T23:22:52Z</time>
      </trkpt>
      <trkpt lat="47.93914" lon="6.9221">
        <ele>1062</ele>
        <time>2014-06-21T23:22:59Z</time>
      </trkpt>
      <trkpt lat="47.9392" lon="6.92211">
        <ele>1070</ele>
        <time>2014-06-21T23:23:07Z</time>
      </trkpt>
      <trkpt lat="47.93925" lon="6.92206">
        <ele>1070</ele>
        <time>2014-06-21T23:23:19Z</time>
      </trkpt>
      <trkpt lat="47.93937" lon="6.92194">
        <ele>1069</ele>
        <time>2014-06-21T23:23:28Z</time>
      </trkpt>
      <trkpt lat="47.93939" lon="6.92194">
        <ele>1070</ele>
        <time>2014-06-21T23:23:29Z</time>
      </trkpt>
      <trkpt lat="47.93943" lon="6.92191">
        <ele>1070</ele>
        <time>2014-06-21T23:23:32Z</time>
      </trkpt>
      <trkpt lat="47.93945" lon="6.92196">
        <ele>1070</ele>
        <time>2014-06-21T23:23:44Z</time>
      </trkpt>
      <trkpt lat="47.93938" lon="6.92203">
        <ele>1070</ele>
        <time>2014-06-21T23:23:56Z</time>
      </trkpt>
      <trkpt lat="47.93931" lon="6.92216">
        <ele>1071</ele>
        <time>2014-06-21T23:24:01Z</time>
      </trkpt>
      <trkpt lat="47.93928" lon="6.92219">
        <ele>1071</ele>
        <time>2014-06-21T23:24:04Z</time>
      </trkpt>
      <trkpt lat="47.93922" lon="6.9223">
        <ele>1071</ele>
        <time>2014-06-21T23:24:14Z</time>
      </trkpt>
      <trkpt lat="47.93919" lon="6.92242">
        <ele>1071</ele>
        <time>2014-06-21T23:24:24Z</time>
      </trkpt>
      <trkpt lat="47.9392" lon="6.92264">
        <ele>1070</ele>
        <time>2014-06-21T23:24:36Z</time>
      </trkpt>
      <trkpt lat="47.93922" lon="6.92268">
        <ele>1070</ele>
        <time>2014-06-21T23:24:40Z</time>
      </trkpt>
      <trkpt lat="47.93924" lon="6.92283">
        <ele>1069</ele>
        <time>2014-06-21T23:24:51Z</time>
      </trkpt>
      <trkpt lat="47.9394" lon="6.9229">
        <ele>1069</ele>
        <time>2014-06-21T23:25:03Z</time>
      </trkpt>
      <trkpt lat="47.93943" lon="6.92292">
        <ele>1069</ele>
        <time>2014-06-21T23:25:06Z</time>
      </trkpt>
      <trkpt lat="47.93946" lon="6.92295">
        <ele>1069</ele>
        <time>2014-06-21T23:25:09Z</time>
      </trkpt>
      <trkpt lat="47.93956" lon="6.92296">
        <ele>1070</ele>
        <time>2014-06-21T23:25:19Z</time>
      </trkpt>
      <trkpt lat="47.93973" lon="6.92299">
        <ele>1071</ele>
        <time>2014-06-21T23:25:30Z</time>
      </trkpt>
      <trkpt lat="47.93975" lon="6.92297">
        <ele>1072</ele>
        <time>2014-06-21T23:25:32Z</time>
      </trkpt>
      <trkpt lat="47.93978" lon="6.92297">
        <ele>1072</ele>
        <time>2014-06-21T23:25:35Z</time>
      </trkpt>
      <trkpt lat="47.93987" lon="6.92303">
        <ele>1072</ele>
        <time>2014-06-21T23:25:48Z</time>
      </trkpt>
      <trkpt lat="47.93992" lon="6.92302">
        <ele>1072</ele>
        <time>2014-06-21T23:25:50Z</time>
      </trkpt>
      <trkpt lat="47.93999" lon="6.92305">
        <ele>1072</ele>
        <time>2014-06-21T23:25:53Z</time>
      </trkpt>
      <trkpt lat="47.94002" lon="6.92305">
        <ele>1078</ele>
        <time>2014-06-21T23:25:55Z</time>
      </trkpt>
      <trkpt lat="47.94005" lon="6.92306">
        <ele>1078</ele>
        <time>2014-06-21T23:25:57Z</time>
      </trkpt>
      <trkpt lat="47.94015" lon="6.92315">
        <ele>1078</ele>
        <time>2014-06-21T23:26:08Z</time>
      </trkpt>
      <trkpt lat="47.94033" lon="6.92315">
        <ele>1079</ele>
        <time>2014-06-21T23:26:17Z</time>
      </trkpt>
      <trkpt lat="47.94044" lon="6.92312">
        <ele>1079</ele>
        <time>2014-06-21T23:26:26Z</time>
      </trkpt>
      <trkpt lat="47.94047" lon="6.92315">
        <ele>1080</ele>
        <time>2014-06-21T23:26:29Z</time>
      </trkpt>
      <trkpt lat="47.94057" lon="6.92312">
        <ele>1080</ele>
        <time>2014-06-21T23:26:41Z</time>
      </trkpt>
      <trkpt lat="47.94069" lon="6.92309">
        <ele>1080</ele>
        <time>2014-06-21T23:26:53Z</time>
      </trkpt>
      <trkpt lat="47.94079" lon="6.92304">
        <ele>1080</ele>
        <time>2014-06-21T23:27:04Z</time>
      </trkpt>
      <trkpt lat="47.94093" lon="6.92306">
        <ele>1080</ele>
        <time>2014-06-21T23:27:16Z</time>
      </trkpt>
      <trkpt lat="47.94097" lon="6.92308">
        <ele>1080</ele>
        <time>2014-06-21T23:27:20Z</time>
      </trkpt>
      <trkpt lat="47.941" lon="6.92311">
        <ele>1079</ele>
        <time>2014-06-21T23:27:22Z</time>
      </trkpt>
      <trkpt lat="47.94111" lon="6.92322">
        <ele>1079</ele>
        <time>2014-06-21T23:27:32Z</time>
      </trkpt>
      <trkpt lat="47.94122" lon="6.92321">
        <ele>1078</ele>
        <time>2014-06-21T23:27:42Z</time>
      </trkpt>
      <trkpt lat="47.94125" lon="6.92321">
        <ele>1078</ele>
        <time>2014-06-21T23:27:44Z</time>
      </trkpt>
      <trkpt lat="47.94128" lon="6.9232">
        <ele>1078</ele>
        <time>2014-06-21T23:27:46Z</time>
      </trkpt>
      <trkpt lat="47.94144" lon="6.92309">
        <ele>1078</ele>
        <time>2014-06-21T23:27:56Z</time>
      </trkpt>
      <trkpt lat="47.94145" lon="6.92295">
        <ele>1078</ele>
        <time>2014-06-21T23:28:07Z</time>
      </trkpt>
      <trkpt lat="47.94147" lon="6.92288">
        <ele>1079</ele>
        <time>2014-06-21T23:28:13Z</time>
      </trkpt>
      <trkpt lat="47.94149" lon="6.9227">
        <ele>1080</ele>
        <time>2014-06-21T23:28:23Z</time>
      </trkpt>
      <trkpt lat="47.94148" lon="6.92265">
        <ele>1080</ele>
        <time>2014-06-21T23:28:26Z</time>
      </trkpt>
      <trkpt lat="47.94148" lon="6.9226">
        <ele>1080</ele>
        <time>2014-06-21T23:28:28Z</time>
      </trkpt>
      <trkpt lat="47.94142" lon="6.9224">
        <ele>1080</ele>
        <time>2014-06-21T23:28:39Z</time>
      </trkpt>
      <trkpt lat="47.94143" lon="6.92232">
        <ele>1080</ele>
        <time>2014-06-21T23:28:49Z</time>
      </trkpt>
      <trkpt lat="47.94151" lon="6.92218">
        <ele>1079</ele>
        <time>2014-06-21T23:29:00Z</time>
      </trkpt>
      <trkpt lat="47.94153" lon="6.92213">
        <ele>1079</ele>
        <time>2014-06-21T23:29:02Z</time>
      </trkpt>
      <trkpt lat="47.94158" lon="6.92206">
        <ele>1079</ele>
        <time>2014-06-21T23:29:06Z</time>
      </trkpt>
      <trkpt lat="47.94167" lon="6.92192">
        <ele>1076</ele>
        <time>2014-06-21T23:29:16Z</time>
      </trkpt>
      <trkpt lat="47.94174" lon="6.92181">
        <ele>1076</ele>
        <time>2014-06-21T23:29:28Z</time>
      </trkpt>
      <trkpt lat="47.94183" lon="6.92167">
        <ele>1076</ele>
        <time>2014-06-21T23:29:37Z</time>
      </trkpt>
      <trkpt lat="47.94186" lon="6.92165">
        <ele>1077</ele>
        <time>2014-06-21T23:29:40Z</time>
      </trkpt>
      <trkpt lat="47.94193" lon="6.92161">
        <ele>1077</ele>
        <time>2014-06-21T23:29:44Z</time>
      </trkpt>
      <trkpt lat="47.94198" lon="6.92157">
        <ele>1077</ele>
        <time>2014-06-21T23:29:54Z</time>
      </trkpt>
      <trkpt lat="47.94218" lon="6.92156">
        <ele>1078</ele>
        <time>2014-06-21T23:30:04Z</time>
      </trkpt>
      <trkpt lat="47.94221" lon="6.9216">
        <ele>1078</ele>
        <time>2014-06-21T23:30:07Z</time>
      </trkpt>
      <trkpt lat="47.94223" lon="6.92164">
        <ele>1078</ele>
        <time>2014-06-21T23:30:11Z</time>
      </trkpt>
      <trkpt lat="47.94236" lon="6.92153">
        <ele>1078</ele>
        <time>2014-06-21T23:30:23Z</time>
      </trkpt>
      <trkpt lat="47.94237" lon="6.92148">
        <ele>1078</ele>
        <time>2014-06-21T23:30:25Z</time>
      </trkpt>
      <trkpt lat="47.94248" lon="6.92149">
        <ele>1079</ele>
        <time>2014-06-21T23:30:36Z</time>
      </trkpt>
      <trkpt lat="47.94254" lon="6.92149">
        <ele>1081</ele>
        <time>2014-06-21T23:30:43Z</time>
      </trkpt>
      <trkpt lat="47.94272" lon="6.92145">
        <ele>1082</ele>
        <time>2014-06-21T23:30:53Z</time>
      </trkpt>
      <trkpt lat="47.94281" lon="6.92138">
        <ele>1083</ele>
        <time>2014-06-21T23:31:01Z</time>
      </trkpt>
      <trkpt lat="47.94284" lon="6.92139">
        <ele>1083</ele>
        <time>2014-06-21T23:31:04Z</time>
      </trkpt>
      <trkpt lat="47.94286" lon="6.92141">
        <ele>1083</ele>
        <time>2014-06-21T23:31:06Z</time>
      </trkpt>
      <trkpt lat="47.94296" lon="6.92144">
        <ele>1082</ele>
        <time>2014-06-21T23:31:17Z</time>
      </trkpt>
      <trkpt lat="47.94298" lon="6.92141">
        <ele>1083</ele>
        <time>2014-06-21T23:31:19Z</time>
      </trkpt>
      <trkpt lat="47.94296" lon="6.92131">
        <ele>1084</ele>
        <time>2014-06-21T23:31:26Z</time>
      </trkpt>
      <trkpt lat="47.943" lon="6.92124">
        <ele>1084</ele>
        <time>2014-06-21T23:31:33Z</time>
      </trkpt>
      <trkpt lat="47.9431" lon="6.92119">
        <ele>1085</ele>
        <time>2014-06-21T23:31:44Z</time>
      </trkpt>
      <trkpt lat="47.94317" lon="6.92119">
        <ele>1086</ele>
        <time>2014-06-21T23:31:55Z</time>
      </trkpt>
      <trkpt lat="47.9432" lon="6.92123">
        <ele>1085</ele>
        <time>2014-06-21T23:32:01Z</time>
      </trkpt>
      <trkpt lat="47.94328" lon="6.921">
        <ele>1091</ele>
        <time>2014-06-21T23:32:11Z</time>
      </trkpt>
      <trkpt lat="47.94334" lon="6.9208">
        <ele>1099</ele>
        <time>2014-06-21T23:32:21Z</time>
      </trkpt>
      <trkpt lat="47.94337" lon="6.92078">
        <ele>1100</ele>
        <time>2014-06-21T23:32:23Z</time>
      </trkpt>
      <trkpt lat="47.94341" lon="6.92071">
        <ele>1102</ele>
        <time>2014-06-21T23:32:28Z</time>
      </trkpt>
      <trkpt lat="47.94342" lon="6.92067">
        <ele>1103</ele>
        <time>2014-06-21T23:32:31Z</time>
      </trkpt>
      <trkpt lat="47.9434" lon="6.92049">
        <ele>1106</ele>
        <time>2014-06-21T23:32:43Z</time>
      </trkpt>
      <trkpt lat="47.94342" lon="6.9204">
        <ele>1107</ele>
        <time>2014-06-21T23:32:47Z</time>
      </trkpt>
      <trkpt lat="47.94345" lon="6.9203">
        <ele>1108</ele>
        <time>2014-06-21T23:33:01Z</time>
      </trkpt>
      <trkpt lat="47.94357" lon="6.92044">
        <ele>1107</ele>
        <time>2014-06-21T23:33:13Z</time>
      </trkpt>
      <trkpt lat="47.94367" lon="6.92053">
        <ele>1107</ele>
        <time>2014-06-21T23:33:22Z</time>
      </trkpt>
      <trkpt lat="47.9437" lon="6.9205">
        <ele>1107</ele>
        <time>2014-06-21T23:33:26Z</time>
      </trkpt>
      <trkpt lat="47.94373" lon="6.92049">
        <ele>1108</ele>
        <time>2014-06-21T23:33:31Z</time>
      </trkpt>
      <trkpt lat="47.94379" lon="6.92042">
        <ele>1109</ele>
        <time>2014-06-21T23:33:42Z</time>
      </trkpt>
      <trkpt lat="47.94375" lon="6.92026">
        <ele>1110</ele>
        <time>2014-06-21T23:34:05Z</time>
      </trkpt>
      <trkpt lat="47.94378" lon="6.92029">
        <ele>1110</ele>
        <time>2014-06-21T23:34:12Z</time>
      </trkpt>
      <trkpt lat="47.9439" lon="6.92031">
        <ele>1111</ele>
        <time>2014-06-21T23:34:24Z</time>
      </trkpt>
      <trkpt lat="47.94393" lon="6.92029">
        <ele>1112</ele>
        <time>2014-06-21T23:34:28Z</time>
      </trkpt>
      <trkpt lat="47.94389" lon="6.92026">
        <ele>1112</ele>
        <time>2014-06-21T23:34:47Z</time>
      </trkpt>
      <trkpt lat="47.94395" lon="6.92024">
        <ele>1113</ele>
        <time>2014-06-21T23:34:58Z</time>
      </trkpt>
      <trkpt lat="47.94396" lon="6.92018">
        <ele>1115</ele>
        <time>2014-06-21T23:35:08Z</time>
      </trkpt>
      <trkpt lat="47.9439" lon="6.92007">
        <ele>1115</ele>
        <time>2014-06-21T23:35:19Z</time>
      </trkpt>
      <trkpt lat="47.94388" lon="6.91998">
        <ele>1123</ele>
        <time>2014-06-21T23:35:31Z</time>
      </trkpt>
      <trkpt lat="47.94405" lon="6.91996">
        <ele>1126</ele>
        <time>2014-06-21T23:35:44Z</time>
      </trkpt>
      <trkpt lat="47.94403" lon="6.91984">
        <ele>1125</ele>
        <time>2014-06-21T23:35:51Z</time>
      </trkpt>
      <trkpt lat="47.94402" lon="6.9198">
        <ele>1125</ele>
        <time>2014-06-21T23:36:05Z</time>
      </trkpt>
      <trkpt lat="47.94404" lon="6.91984">
        <ele>1125</ele>
        <time>2014-06-21T23:36:08Z</time>
      </trkpt>
      <trkpt lat="47.94412" lon="6.91997">
        <ele>1127</ele>
        <time>2014-06-21T23:36:20Z</time>
      </trkpt>
      <trkpt lat="47.94417" lon="6.91996">
        <ele>1129</ele>
        <time>2014-06-21T23:36:25Z</time>
      </trkpt>
      <trkpt lat="47.94421" lon="6.91995">
        <ele>1130</ele>
        <time>2014-06-21T23:36:28Z</time>
      </trkpt>
      <trkpt lat="47.94425" lon="6.91978">
        <ele>1134</ele>
        <time>2014-06-21T23:36:40Z</time>
      </trkpt>
      <trkpt lat="47.94425" lon="6.91974">
        <ele>1135</ele>
        <time>2014-06-21T23:36:42Z</time>
      </trkpt>
      <trkpt lat="47.94426" lon="6.91952">
        <ele>1137</ele>
        <time>2014-06-21T23:36:56Z</time>
      </trkpt>
      <trkpt lat="47.94435" lon="6.91947">
        <ele>1138</ele>
        <time>2014-06-21T23:37:09Z</time>
      </trkpt>
      <trkpt lat="47.94445" lon="6.91946">
        <ele>1138</ele>
        <time>2014-06-21T23:37:20Z</time>
      </trkpt>
      <trkpt lat="47.94452" lon="6.91951">
        <ele>1138</ele>
        <time>2014-06-21T23:37:24Z</time>
      </trkpt>
      <trkpt lat="47.94456" lon="6.91951">
        <ele>1138</ele>
        <time>2014-06-21T23:37:28Z</time>
      </trkpt>
      <trkpt lat="47.94467" lon="6.9196">
        <ele>1139</ele>
        <time>2014-06-21T23:37:39Z</time>
      </trkpt>
      <trkpt lat="47.94474" lon="6.91983">
        <ele>1139</ele>
        <time>2014-06-21T23:37:50Z</time>
      </trkpt>
      <trkpt lat="47.94477" lon="6.91984">
        <ele>1139</ele>
        <time>2014-06-21T23:37:52Z</time>
      </trkpt>
      <trkpt lat="47.94487" lon="6.91984">
        <ele>1140</ele>
        <time>2014-06-21T23:38:02Z</time>
      </trkpt>
      <trkpt lat="47.9449" lon="6.91988">
        <ele>1140</ele>
        <time>2014-06-21T23:38:07Z</time>
      </trkpt>
      <trkpt lat="47.94505" lon="6.91999">
        <ele>1142</ele>
        <time>2014-06-21T23:38:17Z</time>
      </trkpt>
      <trkpt lat="47.94518" lon="6.91999">
        <ele>1143</ele>
        <time>2014-06-21T23:38:27Z</time>
      </trkpt>
      <trkpt lat="47.94534" lon="6.92004">
        <ele>1138</ele>
        <time>2014-06-21T23:38:37Z</time>
      </trkpt>
      <trkpt lat="47.94537" lon="6.92007">
        <ele>1138</ele>
        <time>2014-06-21T23:38:39Z</time>
      </trkpt>
      <trkpt lat="47.94543" lon="6.92008">
        <ele>1138</ele>
        <time>2014-06-21T23:38:43Z</time>
      </trkpt>
      <trkpt lat="47.94554" lon="6.92004">
        <ele>1139</ele>
        <time>2014-06-21T23:38:53Z</time>
      </trkpt>
      <trkpt lat="47.94566" lon="6.91994">
        <ele>1144</ele>
        <time>2014-06-21T23:39:04Z</time>
      </trkpt>
      <trkpt lat="47.94566" lon="6.91994">
        <ele>1144</ele>
        <time>2014-06-21T23:39:22Z</time>
      </trkpt>
      <trkpt lat="47.9457" lon="6.92012">
        <ele>1141</ele>
        <time>2014-06-21T23:39:34Z</time>
      </trkpt>
      <trkpt lat="47.9457" lon="6.92016">
        <ele>1140</ele>
        <time>2014-06-21T23:39:38Z</time>
      </trkpt>
      <trkpt lat="47.94574" lon="6.92022">
        <ele>1139</ele>
        <time>2014-06-21T23:39:53Z</time>
      </trkpt>
      <trkpt lat="47.94574" lon="6.92026">
        <ele>1139</ele>
        <time>2014-06-21T23:39:57Z</time>
      </trkpt>
      <trkpt lat="47.94577" lon="6.92026">
        <ele>1139</ele>
        <time>2014-06-21T23:40:00Z</time>
      </trkpt>
      <trkpt lat="47.94631" lon="6.92106">
        <ele>1134</ele>
        <time>2014-06-21T23:50:26Z</time>
      </trkpt>
      <trkpt lat="47.94918" lon="6.92271">
        <ele>1114</ele>
        <time>2014-06-21T23:52:35Z</time>
      </trkpt>
      <trkpt lat="47.9492" lon="6.92275">
        <ele>1114</ele>
        <time>2014-06-21T23:52:36Z</time>
      </trkpt>
      <trkpt lat="47.94919" lon="6.92283">
        <ele>1114</ele>
        <time>2014-06-21T23:52:40Z</time>
      </trkpt>
      <trkpt lat="47.94917" lon="6.92287">
        <ele>1114</ele>
        <time>2014-06-21T23:52:43Z</time>
      </trkpt>
      <trkpt lat="47.94916" lon="6.92284">
        <ele>1120</ele>
        <time>2014-06-21T23:53:26Z</time>
      </trkpt>
      <trkpt lat="47.94921" lon="6.92279">
        <ele>1114</ele>
        <time>2014-06-21T23:55:39Z</time>
      </trkpt>
      <trkpt lat="47.94931" lon="6.92304">
        <ele>1114</ele>
        <time>2014-06-21T23:55:43Z</time>
      </trkpt>
      <trkpt lat="47.94933" lon="6.92303">
        <ele>1114</ele>
        <time>2014-06-21T23:55:44Z</time>
      </trkpt>
      <trkpt lat="47.94974" lon="6.92329">
        <ele>1116</ele>
        <time>2014-06-21T23:55:54Z</time>
      </trkpt>
      <trkpt lat="47.94976" lon="6.92336">
        <ele>1120</ele>
        <time>2014-06-21T23:55:55Z</time>
      </trkpt>
      <trkpt lat="47.9498" lon="6.92348">
        <ele>1120</ele>
        <time>2014-06-21T23:56:00Z</time>
      </trkpt>
      <trkpt lat="47.94982" lon="6.92336">
        <ele>1120</ele>
        <time>2014-06-21T23:56:06Z</time>
      </trkpt>
      <trkpt lat="47.94983" lon="6.92331">
        <ele>1117</ele>
        <time>2014-06-21T23:56:09Z</time>
      </trkpt>
      <trkpt lat="47.94979" lon="6.92331">
        <ele>1117</ele>
        <time>2014-06-21T23:56:11Z</time>
      </trkpt>
      <trkpt lat="47.94974" lon="6.9234">
        <ele>1120</ele>
        <time>2014-06-21T23:56:23Z</time>
      </trkpt>
      <trkpt lat="47.94982" lon="6.92332">
        <ele>1117</ele>
        <time>2014-06-21T23:56:28Z</time>
      </trkpt>
      <trkpt lat="47.94987" lon="6.92323">
        <ele>1117</ele>
        <time>2014-06-21T23:56:30Z</time>
      </trkpt>
      <trkpt lat="47.94991" lon="6.92321">
        <ele>1117</ele>
        <time>2014-06-21T23:56:32Z</time>
      </trkpt>
      <trkpt lat="47.95006" lon="6.92336">
        <ele>1124</ele>
        <time>2014-06-21T23:56:42Z</time>
      </trkpt>
      <trkpt lat="47.95008" lon="6.92338">
        <ele>1125</ele>
        <time>2014-06-21T23:56:44Z</time>
      </trkpt>
      <trkpt lat="47.94982" lon="6.92375">
        <ele>1121</ele>
        <time>2014-06-21T23:57:21Z</time>
      </trkpt>
      <trkpt lat="47.94982" lon="6.92379">
        <ele>1121</ele>
        <time>2014-06-21T23:57:22Z</time>
      </trkpt>
      <trkpt lat="47.94979" lon="6.92409">
        <ele>1123</ele>
        <time>2014-06-21T23:57:30Z</time>
      </trkpt>
      <trkpt lat="47.94982" lon="6.92415">
        <ele>1124</ele>
        <time>2014-06-21T23:57:31Z</time>
      </trkpt>
      <trkpt lat="47.94981" lon="6.92437">
        <ele>1124</ele>
        <time>2014-06-21T23:57:41Z</time>
      </trkpt>
      <trkpt lat="47.94978" lon="6.9244">
        <ele>1123</ele>
        <time>2014-06-21T23:57:52Z</time>
      </trkpt>
      <trkpt lat="47.94983" lon="6.9252">
        <ele>1122</ele>
        <time>2014-06-21T23:58:21Z</time>
      </trkpt>
      <trkpt lat="47.94985" lon="6.92523">
        <ele>1122</ele>
        <time>2014-06-21T23:58:22Z</time>
      </trkpt>
      <trkpt lat="47.94993" lon="6.92521">
        <ele>1124</ele>
        <time>2014-06-21T23:58:33Z</time>
      </trkpt>
      <trkpt lat="47.94991" lon="6.92517">
        <ele>1125</ele>
        <time>2014-06-21T23:58:35Z</time>
      </trkpt>
      <trkpt lat="47.94984" lon="6.92528">
        <ele>1121</ele>
        <time>2014-06-21T23:58:47Z</time>
      </trkpt>
      <trkpt lat="47.95005" lon="6.9255">
        <ele>1135</ele>
        <time>2014-06-21T23:59:04Z</time>
      </trkpt>
      <trkpt lat="47.95013" lon="6.92555">
        <ele>1135</ele>
        <time>2014-06-21T23:59:08Z</time>
      </trkpt>
      <trkpt lat="47.95018" lon="6.92558">
        <ele>1135</ele>
        <time>2014-06-21T23:59:10Z</time>
      </trkpt>
      <trkpt lat="47.95019" lon="6.92566">
        <ele>1135</ele>
        <time>2014-06-21T23:59:21Z</time>
      </trkpt>
      <trkpt lat="47.9501" lon="6.92592">
        <ele>1129</ele>
        <time>2014-06-21T23:59:32Z</time>
      </trkpt>
      <trkpt lat="47.95014" lon="6.92581">
        <ele>1134</ele>
        <time>2014-06-21T23:59:57Z</time>
      </trkpt>
      <trkpt lat="47.95017" lon="6.92578">
        <ele>1134</ele>
        <time>2014-06-21T23:59:59Z</time>
      </trkpt>
      <trkpt lat="47.95019" lon="6.92575">
        <ele>1134</ele>
        <time>2014-06-22T00:00:04Z</time>
      </trkpt>
      <trkpt lat="47.95021" lon="6.92572">
        <ele>1135</ele>
        <time>2014-06-22T00:00:08Z</time>
      </trkpt>
      <trkpt lat="47.95023" lon="6.92567">
        <ele>1135</ele>
        <time>2014-06-22T00:00:21Z</time>
      </trkpt>
      <trkpt lat="47.95026" lon="6.92565">
        <ele>1135</ele>
        <time>2014-06-22T00:00:27Z</time>
      </trkpt>
      <trkpt lat="47.95029" lon="6.92562">
        <ele>1135</ele>
        <time>2014-06-22T00:00:33Z</time>
      </trkpt>
      <trkpt lat="47.95035" lon="6.9256">
        <ele>1136</ele>
        <time>2014-06-22T00:01:55Z</time>
      </trkpt>
      <trkpt lat="47.95061" lon="6.92497">
        <ele>1143</ele>
        <time>2014-06-22T00:01:57Z</time>
      </trkpt>
      <trkpt lat="47.95084" lon="6.92474">
        <ele>1147</ele>
        <time>2014-06-22T00:02:07Z</time>
      </trkpt>
      <trkpt lat="47.95086" lon="6.92474">
        <ele>1147</ele>
        <time>2014-06-22T00:02:08Z</time>
      </trkpt>
      <trkpt lat="47.95153" lon="6.92478">
        <ele>1146</ele>
        <time>2014-06-22T00:02:20Z</time>
      </trkpt>
      <trkpt lat="47.9516" lon="6.92469">
        <ele>1147</ele>
        <time>2014-06-22T00:02:22Z</time>
      </trkpt>
      <trkpt lat="47.9517" lon="6.9246">
        <ele>1144</ele>
        <time>2014-06-22T00:02:24Z</time>
      </trkpt>
      <trkpt lat="47.95181" lon="6.92455">
        <ele>1143</ele>
        <time>2014-06-22T00:02:27Z</time>
      </trkpt>
      <trkpt lat="47.95188" lon="6.92456">
        <ele>1143</ele>
        <time>2014-06-22T00:02:30Z</time>
      </trkpt>
      <trkpt lat="47.95159" lon="6.92411">
        <ele>1149</ele>
        <time>2014-06-22T00:02:46Z</time>
      </trkpt>
      <trkpt lat="47.95157" lon="6.92403">
        <ele>1148</ele>
        <time>2014-06-22T00:02:52Z</time>
      </trkpt>
      <trkpt lat="47.95182" lon="6.92394">
        <ele>1148</ele>
        <time>2014-06-22T00:03:02Z</time>
      </trkpt>
      <trkpt lat="47.95218" lon="6.92385">
        <ele>1147</ele>
        <time>2014-06-22T00:03:22Z</time>
      </trkpt>
      <trkpt lat="47.95218" lon="6.9238">
        <ele>1147</ele>
        <time>2014-06-22T00:03:24Z</time>
      </trkpt>
      <trkpt lat="47.95233" lon="6.92371">
        <ele>1147</ele>
        <time>2014-06-22T00:03:38Z</time>
      </trkpt>
      <trkpt lat="47.95213" lon="6.92369">
        <ele>1147</ele>
        <time>2014-06-22T00:04:04Z</time>
      </trkpt>
      <trkpt lat="47.95222" lon="6.92363">
        <ele>1148</ele>
        <time>2014-06-22T00:04:14Z</time>
      </trkpt>
      <trkpt lat="47.95232" lon="6.9236">
        <ele>1148</ele>
        <time>2014-06-22T00:04:18Z</time>
      </trkpt>
      <trkpt lat="47.9525" lon="6.92348">
        <ele>1147</ele>
        <time>2014-06-22T00:04:32Z</time>
      </trkpt>
      <trkpt lat="47.95258" lon="6.92387">
        <ele>1144</ele>
        <time>2014-06-22T00:04:42Z</time>
      </trkpt>
      <trkpt lat="47.95264" lon="6.92344">
        <ele>1146</ele>
        <time>2014-06-22T00:04:53Z</time>
      </trkpt>
      <trkpt lat="47.95268" lon="6.92339">
        <ele>1146</ele>
        <time>2014-06-22T00:05:00Z</time>
      </trkpt>
      <trkpt lat="47.95279" lon="6.92348">
        <ele>1145</ele>
        <time>2014-06-22T00:05:05Z</time>
      </trkpt>
      <trkpt lat="47.95284" lon="6.9235">
        <ele>1145</ele>
        <time>2014-06-22T00:05:07Z</time>
      </trkpt>
      <trkpt lat="47.95297" lon="6.9236">
        <ele>1144</ele>
        <time>2014-06-22T00:05:17Z</time>
      </trkpt>
      <trkpt lat="47.953" lon="6.92366">
        <ele>1144</ele>
        <time>2014-06-22T00:05:19Z</time>
      </trkpt>
      <trkpt lat="47.95314" lon="6.92337">
        <ele>1144</ele>
        <time>2014-06-22T00:05:29Z</time>
      </trkpt>
      <trkpt lat="47.95308" lon="6.92339">
        <ele>1144</ele>
        <time>2014-06-22T00:05:30Z</time>
      </trkpt>
      <trkpt lat="47.95321" lon="6.92348">
        <ele>1144</ele>
        <time>2014-06-22T00:05:41Z</time>
      </trkpt>
      <trkpt lat="47.95324" lon="6.9235">
        <ele>1144</ele>
        <time>2014-06-22T00:05:42Z</time>
      </trkpt>
      <trkpt lat="47.95342" lon="6.92358">
        <ele>1141</ele>
        <time>2014-06-22T00:05:52Z</time>
      </trkpt>
      <trkpt lat="47.95343" lon="6.92352">
        <ele>1141</ele>
        <time>2014-06-22T00:05:54Z</time>
      </trkpt>
      <trkpt lat="47.95343" lon="6.92345">
        <ele>1142</ele>
        <time>2014-06-22T00:05:56Z</time>
      </trkpt>
      <trkpt lat="47.95344" lon="6.92338">
        <ele>1142</ele>
        <time>2014-06-22T00:05:58Z</time>
      </trkpt>
      <trkpt lat="47.95347" lon="6.92336">
        <ele>1142</ele>
        <time>2014-06-22T00:06:00Z</time>
      </trkpt>
      <trkpt lat="47.95358" lon="6.92334">
        <ele>1141</ele>
        <time>2014-06-22T00:06:11Z</time>
      </trkpt>
      <trkpt lat="47.95362" lon="6.92338">
        <ele>1141</ele>
        <time>2014-06-22T00:06:12Z</time>
      </trkpt>
      <trkpt lat="47.95364" lon="6.92336">
        <ele>1141</ele>
        <time>2014-06-22T00:06:36Z</time>
      </trkpt>
      <trkpt lat="47.95367" lon="6.92335">
        <ele>1141</ele>
        <time>2014-06-22T00:06:55Z</time>
      </trkpt>
      <trkpt lat="47.95399" lon="6.92348">
        <ele>1140</ele>
        <time>2014-06-22T00:07:05Z</time>
      </trkpt>
      <trkpt lat="47.95405" lon="6.92351">
        <ele>1140</ele>
        <time>2014-06-22T00:07:06Z</time>
      </trkpt>
      <trkpt lat="47.95416" lon="6.92355">
        <ele>1140</ele>
        <time>2014-06-22T00:07:08Z</time>
      </trkpt>
      <trkpt lat="47.95419" lon="6.92358">
        <ele>1141</ele>
        <time>2014-06-22T00:07:09Z</time>
      </trkpt>
      <trkpt lat="47.95428" lon="6.92354">
        <ele>1141</ele>
        <time>2014-06-22T00:07:12Z</time>
      </trkpt>
      <trkpt lat="47.95438" lon="6.92355">
        <ele>1141</ele>
        <time>2014-06-22T00:07:17Z</time>
      </trkpt>
      <trkpt lat="47.95441" lon="6.9236">
        <ele>1141</ele>
        <time>2014-06-22T00:07:19Z</time>
      </trkpt>
      <trkpt lat="47.95444" lon="6.92366">
        <ele>1141</ele>
        <time>2014-06-22T00:07:20Z</time>
      </trkpt>
      <trkpt lat="47.95446" lon="6.92371">
        <ele>1141</ele>
        <time>2014-06-22T00:07:21Z</time>
      </trkpt>
      <trkpt lat="47.95447" lon="6.92389">
        <ele>1141</ele>
        <time>2014-06-22T00:07:33Z</time>
      </trkpt>
      <trkpt lat="47.95448" lon="6.92384">
        <ele>1141</ele>
        <time>2014-06-22T00:07:44Z</time>
      </trkpt>
      <trkpt lat="47.95449" lon="6.92379">
        <ele>1141</ele>
        <time>2014-06-22T00:07:45Z</time>
      </trkpt>
      <trkpt lat="47.95451" lon="6.92373">
        <ele>1141</ele>
        <time>2014-06-22T00:08:04Z</time>
      </trkpt>
      <trkpt lat="47.95457" lon="6.9237">
        <ele>1142</ele>
        <time>2014-06-22T00:08:54Z</time>
      </trkpt>
      <trkpt lat="47.9546" lon="6.9237">
        <ele>1142</ele>
        <time>2014-06-22T00:08:55Z</time>
      </trkpt>
      <trkpt lat="47.95464" lon="6.92371">
        <ele>1142</ele>
        <time>2014-06-22T00:08:57Z</time>
      </trkpt>
      <trkpt lat="47.95468" lon="6.92373">
        <ele>1142</ele>
        <time>2014-06-22T00:08:59Z</time>
      </trkpt>
      <trkpt lat="47.95476" lon="6.92379">
        <ele>1142</ele>
        <time>2014-06-22T00:09:01Z</time>
      </trkpt>
      <trkpt lat="47.9548" lon="6.92382">
        <ele>1142</ele>
        <time>2014-06-22T00:09:02Z</time>
      </trkpt>
      <trkpt lat="47.95488" lon="6.92385">
        <ele>1143</ele>
        <time>2014-06-22T00:09:04Z</time>
      </trkpt>
      <trkpt lat="47.95508" lon="6.92403">
        <ele>1145</ele>
        <time>2014-06-22T00:09:16Z</time>
      </trkpt>
      <trkpt lat="47.95511" lon="6.92401">
        <ele>1146</ele>
        <time>2014-06-22T00:09:21Z</time>
      </trkpt>
      <trkpt lat="47.95517" lon="6.92399">
        <ele>1146</ele>
        <time>2014-06-22T00:09:27Z</time>
      </trkpt>
      <trkpt lat="47.95521" lon="6.92399">
        <ele>1146</ele>
        <time>2014-06-22T00:09:29Z</time>
      </trkpt>
      <trkpt lat="47.9554" lon="6.92417">
        <ele>1146</ele>
        <time>2014-06-22T00:09:39Z</time>
      </trkpt>
      <trkpt lat="47.95549" lon="6.92419">
        <ele>1147</ele>
        <time>2014-06-22T00:09:49Z</time>
      </trkpt>
      <trkpt lat="47.95547" lon="6.92416">
        <ele>1147</ele>
        <time>2014-06-22T00:09:53Z</time>
      </trkpt>
      <trkpt lat="47.95553" lon="6.92413">
        <ele>1148</ele>
        <time>2014-06-22T00:09:57Z</time>
      </trkpt>
      <trkpt lat="47.95571" lon="6.92419">
        <ele>1149</ele>
        <time>2014-06-22T00:10:07Z</time>
      </trkpt>
      <trkpt lat="47.95575" lon="6.92421">
        <ele>1150</ele>
        <time>2014-06-22T00:10:17Z</time>
      </trkpt>
      <trkpt lat="47.95577" lon="6.92423">
        <ele>1150</ele>
        <time>2014-06-22T00:10:19Z</time>
      </trkpt>
      <trkpt lat="47.95576" lon="6.92436">
        <ele>1149</ele>
        <time>2014-06-22T00:10:29Z</time>
      </trkpt>
      <trkpt lat="47.95579" lon="6.92436">
        <ele>1149</ele>
        <time>2014-06-22T00:11:34Z</time>
      </trkpt>
      <trkpt lat="47.95635" lon="6.92424">
        <ele>1158</ele>
        <time>2014-06-22T00:11:44Z</time>
      </trkpt>
      <trkpt lat="47.95642" lon="6.92421">
        <ele>1158</ele>
        <time>2014-06-22T00:11:46Z</time>
      </trkpt>
      <trkpt lat="47.95665" lon="6.92415">
        <ele>1158</ele>
        <time>2014-06-22T00:11:56Z</time>
      </trkpt>
      <trkpt lat="47.95671" lon="6.92391">
        <ele>1159</ele>
        <time>2014-06-22T00:12:07Z</time>
      </trkpt>
      <trkpt lat="47.95671" lon="6.92392">
        <ele>1159</ele>
        <time>2014-06-22T00:12:13Z</time>
      </trkpt>
      <trkpt lat="47.95671" lon="6.92399">
        <ele>1159</ele>
        <time>2014-06-22T00:12:14Z</time>
      </trkpt>
      <trkpt lat="47.95674" lon="6.92397">
        <ele>1159</ele>
        <time>2014-06-22T00:12:26Z</time>
      </trkpt>
      <trkpt lat="47.95678" lon="6.92394">
        <ele>1159</ele>
        <time>2014-06-22T00:12:29Z</time>
      </trkpt>
      <trkpt lat="47.95689" lon="6.9237">
        <ele>1158</ele>
        <time>2014-06-22T00:12:39Z</time>
      </trkpt>
      <trkpt lat="47.95691" lon="6.92378">
        <ele>1159</ele>
        <time>2014-06-22T00:12:41Z</time>
      </trkpt>
      <trkpt lat="47.95713" lon="6.92388">
        <ele>1162</ele>
        <time>2014-06-22T00:12:51Z</time>
      </trkpt>
      <trkpt lat="47.95716" lon="6.92385">
        <ele>1162</ele>
        <time>2014-06-22T00:12:52Z</time>
      </trkpt>
      <trkpt lat="47.95718" lon="6.9238">
        <ele>1161</ele>
        <time>2014-06-22T00:12:54Z</time>
      </trkpt>
      <trkpt lat="47.95719" lon="6.92377">
        <ele>1161</ele>
        <time>2014-06-22T00:12:56Z</time>
      </trkpt>
      <trkpt lat="47.9572" lon="6.92362">
        <ele>1160</ele>
        <time>2014-06-22T00:13:05Z</time>
      </trkpt>
      <trkpt lat="47.95722" lon="6.92359">
        <ele>1160</ele>
        <time>2014-06-22T00:13:07Z</time>
      </trkpt>
      <trkpt lat="47.9575" lon="6.92331">
        <ele>1160</ele>
        <time>2014-06-22T00:13:17Z</time>
      </trkpt>
      <trkpt lat="47.95757" lon="6.92334">
        <ele>1164</ele>
        <time>2014-06-22T00:13:19Z</time>
      </trkpt>
      <trkpt lat="47.95772" lon="6.92339">
        <ele>1169</ele>
        <time>2014-06-22T00:13:24Z</time>
      </trkpt>
      <trkpt lat="47.95773" lon="6.92335">
        <ele>1169</ele>
        <time>2014-06-22T00:13:26Z</time>
      </trkpt>
      <trkpt lat="47.95756" lon="6.92326">
        <ele>1162</ele>
        <time>2014-06-22T00:13:30Z</time>
      </trkpt>
      <trkpt lat="47.95753" lon="6.92329">
        <ele>1161</ele>
        <time>2014-06-22T00:13:32Z</time>
      </trkpt>
      <trkpt lat="47.95767" lon="6.92327">
        <ele>1162</ele>
        <time>2014-06-22T00:13:43Z</time>
      </trkpt>
      <trkpt lat="47.95764" lon="6.92327">
        <ele>1162</ele>
        <time>2014-06-22T00:13:51Z</time>
      </trkpt>
      <trkpt lat="47.95766" lon="6.92324">
        <ele>1162</ele>
        <time>2014-06-22T00:14:12Z</time>
      </trkpt>
      <trkpt lat="47.95793" lon="6.92255">
        <ele>1161</ele>
        <time>2014-06-22T00:14:23Z</time>
      </trkpt>
      <trkpt lat="47.95793" lon="6.92244">
        <ele>1153</ele>
        <time>2014-06-22T00:14:24Z</time>
      </trkpt>
      <trkpt lat="47.95797" lon="6.92236">
        <ele>1153</ele>
        <time>2014-06-22T00:14:25Z</time>
      </trkpt>
      <trkpt lat="47.95801" lon="6.92228">
        <ele>1153</ele>
        <time>2014-06-22T00:14:26Z</time>
      </trkpt>
      <trkpt lat="47.95805" lon="6.92222">
        <ele>1153</ele>
        <time>2014-06-22T00:14:27Z</time>
      </trkpt>
      <trkpt lat="47.95808" lon="6.92215">
        <ele>1153</ele>
        <time>2014-06-22T00:14:28Z</time>
      </trkpt>
      <trkpt lat="47.9582" lon="6.92204">
        <ele>1152</ele>
        <time>2014-06-22T00:14:38Z</time>
      </trkpt>
      <trkpt lat="47.9582" lon="6.92215">
        <ele>1154</ele>
        <time>2014-06-22T00:14:49Z</time>
      </trkpt>
      <trkpt lat="47.95828" lon="6.92214">
        <ele>1154</ele>
        <time>2014-06-22T00:14:59Z</time>
      </trkpt>
      <trkpt lat="47.95828" lon="6.92207">
        <ele>1153</ele>
        <time>2014-06-22T00:15:01Z</time>
      </trkpt>
      <trkpt lat="47.95831" lon="6.92201">
        <ele>1153</ele>
        <time>2014-06-22T00:15:02Z</time>
      </trkpt>
      <trkpt lat="47.95832" lon="6.92195">
        <ele>1152</ele>
        <time>2014-06-22T00:15:04Z</time>
      </trkpt>
      <trkpt lat="47.95832" lon="6.92183">
        <ele>1152</ele>
        <time>2014-06-22T00:15:08Z</time>
      </trkpt>
      <trkpt lat="47.95823" lon="6.92163">
        <ele>1147</ele>
        <time>2014-06-22T00:15:14Z</time>
      </trkpt>
      <trkpt lat="47.9583" lon="6.92158">
        <ele>1147</ele>
        <time>2014-06-22T00:15:28Z</time>
      </trkpt>
      <trkpt lat="47.95832" lon="6.92159">
        <ele>1148</ele>
        <time>2014-06-22T00:15:30Z</time>
      </trkpt>
      <trkpt lat="47.95836" lon="6.92157">
        <ele>1151</ele>
        <time>2014-06-22T00:15:33Z</time>
      </trkpt>
      <trkpt lat="47.95839" lon="6.92156">
        <ele>1151</ele>
        <time>2014-06-22T00:15:37Z</time>
      </trkpt>
      <trkpt lat="47.95869" lon="6.921">
        <ele>1148</ele>
        <time>2014-06-22T00:15:48Z</time>
      </trkpt>
      <trkpt lat="47.95883" lon="6.92088">
        <ele>1148</ele>
        <time>2014-06-22T00:15:57Z</time>
      </trkpt>
      <trkpt lat="47.95883" lon="6.92075">
        <ele>1139</ele>
        <time>2014-06-22T00:16:06Z</time>
      </trkpt>
      <trkpt lat="47.95886" lon="6.92069">
        <ele>1139</ele>
        <time>2014-06-22T00:16:11Z</time>
      </trkpt>
      <trkpt lat="47.9589" lon="6.92071">
        <ele>1139</ele>
        <time>2014-06-22T00:16:13Z</time>
      </trkpt>
      <trkpt lat="47.95894" lon="6.92074">
        <ele>1140</ele>
        <time>2014-06-22T00:16:14Z</time>
      </trkpt>
      <trkpt lat="47.95911" lon="6.92085">
        <ele>1147</ele>
        <time>2014-06-22T00:16:25Z</time>
      </trkpt>
      <trkpt lat="47.95915" lon="6.92084">
        <ele>1146</ele>
        <time>2014-06-22T00:16:50Z</time>
      </trkpt>
      <trkpt lat="47.95914" lon="6.92088">
        <ele>1147</ele>
        <time>2014-06-22T00:16:52Z</time>
      </trkpt>
      <trkpt lat="47.95916" lon="6.92081">
        <ele>1145</ele>
        <time>2014-06-22T00:16:57Z</time>
      </trkpt>
      <trkpt lat="47.95919" lon="6.92076">
        <ele>1144</ele>
        <time>2014-06-22T00:16:59Z</time>
      </trkpt>
      <trkpt lat="47.9592" lon="6.92072">
        <ele>1143</ele>
        <time>2014-06-22T00:17:02Z</time>
      </trkpt>
      <trkpt lat="47.95919" lon="6.92078">
        <ele>1145</ele>
        <time>2014-06-22T00:17:10Z</time>
      </trkpt>
      <trkpt lat="47.95926" lon="6.92074">
        <ele>1143</ele>
        <time>2014-06-22T00:17:22Z</time>
      </trkpt>
      <trkpt lat="47.95952" lon="6.92064">
        <ele>1141</ele>
        <time>2014-06-22T00:17:33Z</time>
      </trkpt>
      <trkpt lat="47.95958" lon="6.9207">
        <ele>1141</ele>
        <time>2014-06-22T00:17:37Z</time>
      </trkpt>
      <trkpt lat="47.95961" lon="6.92071">
        <ele>1141</ele>
        <time>2014-06-22T00:17:39Z</time>
      </trkpt>
      <trkpt lat="47.95962" lon="6.9207">
        <ele>1141</ele>
        <time>2014-06-22T00:17:51Z</time>
      </trkpt>
      <trkpt lat="47.95973" lon="6.92063">
        <ele>1141</ele>
        <time>2014-06-22T00:18:05Z</time>
      </trkpt>
      <trkpt lat="47.95986" lon="6.92083">
        <ele>1144</ele>
        <time>2014-06-22T00:18:15Z</time>
      </trkpt>
      <trkpt lat="47.95989" lon="6.92089">
        <ele>1149</ele>
        <time>2014-06-22T00:18:17Z</time>
      </trkpt>
      <trkpt lat="47.95998" lon="6.92102">
        <ele>1151</ele>
        <time>2014-06-22T00:18:22Z</time>
      </trkpt>
      <trkpt lat="47.96002" lon="6.92103">
        <ele>1149</ele>
        <time>2014-06-22T00:18:25Z</time>
      </trkpt>
      <trkpt lat="47.96003" lon="6.92099">
        <ele>1148</ele>
        <time>2014-06-22T00:18:38Z</time>
      </trkpt>
      <trkpt lat="47.96011" lon="6.92108">
        <ele>1149</ele>
        <time>2014-06-22T00:18:48Z</time>
      </trkpt>
      <trkpt lat="47.96048" lon="6.92146">
        <ele>1150</ele>
        <time>2014-06-22T00:19:18Z</time>
      </trkpt>
      <trkpt lat="47.96051" lon="6.92152">
        <ele>1150</ele>
        <time>2014-06-22T00:19:20Z</time>
      </trkpt>
      <trkpt lat="47.96091" lon="6.92175">
        <ele>1150</ele>
        <time>2014-06-22T00:19:43Z</time>
      </trkpt>
      <trkpt lat="47.96093" lon="6.92178">
        <ele>1151</ele>
        <time>2014-06-22T00:19:44Z</time>
      </trkpt>
      <trkpt lat="47.96098" lon="6.92183">
        <ele>1151</ele>
        <time>2014-06-22T00:19:46Z</time>
      </trkpt>
      <trkpt lat="47.9609" lon="6.92132">
        <ele>1139</ele>
        <time>2014-06-22T00:19:56Z</time>
      </trkpt>
      <trkpt lat="47.96093" lon="6.92158">
        <ele>1144</ele>
        <time>2014-06-22T00:20:08Z</time>
      </trkpt>
      <trkpt lat="47.96095" lon="6.92168">
        <ele>1150</ele>
        <time>2014-06-22T00:20:09Z</time>
      </trkpt>
      <trkpt lat="47.96099" lon="6.92169">
        <ele>1150</ele>
        <time>2014-06-22T00:20:10Z</time>
      </trkpt>
      <trkpt lat="47.96108" lon="6.92169">
        <ele>1150</ele>
        <time>2014-06-22T00:20:35Z</time>
      </trkpt>
      <trkpt lat="47.96169" lon="6.92189">
        <ele>1139</ele>
        <time>2014-06-22T00:20:51Z</time>
      </trkpt>
      <trkpt lat="47.96173" lon="6.92186">
        <ele>1138</ele>
        <time>2014-06-22T00:20:53Z</time>
      </trkpt>
      <trkpt lat="47.96182" lon="6.92185">
        <ele>1138</ele>
        <time>2014-06-22T00:20:57Z</time>
      </trkpt>
      <trkpt lat="47.96202" lon="6.92185">
        <ele>1137</ele>
        <time>2014-06-22T00:21:04Z</time>
      </trkpt>
      <trkpt lat="47.96208" lon="6.92189">
        <ele>1137</ele>
        <time>2014-06-22T00:21:08Z</time>
      </trkpt>
      <trkpt lat="47.96226" lon="6.92197">
        <ele>1136</ele>
        <time>2014-06-22T00:21:19Z</time>
      </trkpt>
      <trkpt lat="47.96229" lon="6.92196">
        <ele>1136</ele>
        <time>2014-06-22T00:21:23Z</time>
      </trkpt>
      <trkpt lat="47.96228" lon="6.92192">
        <ele>1135</ele>
        <time>2014-06-22T00:21:24Z</time>
      </trkpt>
      <trkpt lat="47.9623" lon="6.92193">
        <ele>1135</ele>
        <time>2014-06-22T00:21:32Z</time>
      </trkpt>
      <trkpt lat="47.96232" lon="6.92196">
        <ele>1136</ele>
        <time>2014-06-22T00:21:33Z</time>
      </trkpt>
      <trkpt lat="47.96245" lon="6.92199">
        <ele>1135</ele>
        <time>2014-06-22T00:21:43Z</time>
      </trkpt>
      <trkpt lat="47.96248" lon="6.92195">
        <ele>1134</ele>
        <time>2014-06-22T00:21:45Z</time>
      </trkpt>
      <trkpt lat="47.96259" lon="6.92189">
        <ele>1128</ele>
        <time>2014-06-22T00:21:51Z</time>
      </trkpt>
      <trkpt lat="47.96261" lon="6.92185">
        <ele>1127</ele>
        <time>2014-06-22T00:21:53Z</time>
      </trkpt>
      <trkpt lat="47.9628" lon="6.9219">
        <ele>1127</ele>
        <time>2014-06-22T00:22:03Z</time>
      </trkpt>
      <trkpt lat="47.96286" lon="6.9221">
        <ele>1128</ele>
        <time>2014-06-22T00:22:08Z</time>
      </trkpt>
      <trkpt lat="47.96317" lon="6.92277">
        <ele>1132</ele>
        <time>2014-06-22T00:22:56Z</time>
      </trkpt>
      <trkpt lat="47.96323" lon="6.92281">
        <ele>1132</ele>
        <time>2014-06-22T00:23:07Z</time>
      </trkpt>
      <trkpt lat="47.96326" lon="6.92283">
        <ele>1132</ele>
        <time>2014-06-22T00:23:08Z</time>
      </trkpt>
      <trkpt lat="47.96364" lon="6.92355">
        <ele>1119</ele>
        <time>2014-06-22T00:23:18Z</time>
      </trkpt>
      <trkpt lat="47.96366" lon="6.92359">
        <ele>1119</ele>
        <time>2014-06-22T00:23:19Z</time>
      </trkpt>
      <trkpt lat="47.96407" lon="6.92442">
        <ele>1117</ele>
        <time>2014-06-22T00:24:19Z</time>
      </trkpt>
      <trkpt lat="47.96417" lon="6.92427">
        <ele>1109</ele>
        <time>2014-06-22T00:24:32Z</time>
      </trkpt>
      <trkpt lat="47.96444" lon="6.92432">
        <ele>1108</ele>
        <time>2014-06-22T00:24:34Z</time>
      </trkpt>
      <trkpt lat="47.96507" lon="6.92511">
        <ele>1107</ele>
        <time>2014-06-22T00:25:56Z</time>
      </trkpt>
      <trkpt lat="47.96513" lon="6.92503">
        <ele>1107</ele>
        <time>2014-06-22T00:26:01Z</time>
      </trkpt>
      <trkpt lat="47.96518" lon="6.92498">
        <ele>1103</ele>
        <time>2014-06-22T00:26:04Z</time>
      </trkpt>
      <trkpt lat="47.96526" lon="6.92494">
        <ele>1102</ele>
        <time>2014-06-22T00:26:15Z</time>
      </trkpt>
      <trkpt lat="47.96532" lon="6.92496">
        <ele>1101</ele>
        <time>2014-06-22T00:26:31Z</time>
      </trkpt>
      <trkpt lat="47.96535" lon="6.92497">
        <ele>1101</ele>
        <time>2014-06-22T00:26:39Z</time>
      </trkpt>
      <trkpt lat="47.9654" lon="6.92497">
        <ele>1100</ele>
        <time>2014-06-22T00:26:54Z</time>
      </trkpt>
      <trkpt lat="47.96543" lon="6.92496">
        <ele>1100</ele>
        <time>2014-06-22T00:27:01Z</time>
      </trkpt>
      <trkpt lat="47.96546" lon="6.92495">
        <ele>1100</ele>
        <time>2014-06-22T00:27:04Z</time>
      </trkpt>
      <trkpt lat="47.96617" lon="6.92462">
        <ele>1093</ele>
        <time>2014-06-22T00:27:14Z</time>
      </trkpt>
      <trkpt lat="47.96635" lon="6.92463">
        <ele>1093</ele>
        <time>2014-06-22T00:27:15Z</time>
      </trkpt>
      <trkpt lat="47.96643" lon="6.92462">
        <ele>1093</ele>
        <time>2014-06-22T00:27:16Z</time>
      </trkpt>
      <trkpt lat="47.96653" lon="6.92464">
        <ele>1093</ele>
        <time>2014-06-22T00:27:19Z</time>
      </trkpt>
      <trkpt lat="47.96653" lon="6.9246">
        <ele>1093</ele>
        <time>2014-06-22T00:27:20Z</time>
      </trkpt>
      <trkpt lat="47.96656" lon="6.92461">
        <ele>1093</ele>
        <time>2014-06-22T00:27:21Z</time>
      </trkpt>
      <trkpt lat="47.96663" lon="6.92454">
        <ele>1092</ele>
        <time>2014-06-22T00:27:23Z</time>
      </trkpt>
      <trkpt lat="47.96679" lon="6.92452">
        <ele>1087</ele>
        <time>2014-06-22T00:27:26Z</time>
      </trkpt>
      <trkpt lat="47.96698" lon="6.92457">
        <ele>1087</ele>
        <time>2014-06-22T00:27:34Z</time>
      </trkpt>
      <trkpt lat="47.96706" lon="6.92464">
        <ele>1087</ele>
        <time>2014-06-22T00:27:45Z</time>
      </trkpt>
      <trkpt lat="47.96688" lon="6.92456">
        <ele>1087</ele>
        <time>2014-06-22T00:27:46Z</time>
      </trkpt>
      <trkpt lat="47.96691" lon="6.92457">
        <ele>1087</ele>
        <time>2014-06-22T00:27:47Z</time>
      </trkpt>
      <trkpt lat="47.96718" lon="6.92484">
        <ele>1087</ele>
        <time>2014-06-22T00:27:58Z</time>
      </trkpt>
      <trkpt lat="47.96741" lon="6.9249">
        <ele>1087</ele>
        <time>2014-06-22T00:28:11Z</time>
      </trkpt>
      <trkpt lat="47.96736" lon="6.92442">
        <ele>1082</ele>
        <time>2014-06-22T00:28:18Z</time>
      </trkpt>
      <trkpt lat="47.96738" lon="6.92435">
        <ele>1081</ele>
        <time>2014-06-22T00:28:28Z</time>
      </trkpt>
      <trkpt lat="47.96741" lon="6.9244">
        <ele>1082</ele>
        <time>2014-06-22T00:28:30Z</time>
      </trkpt>
      <trkpt lat="47.96742" lon="6.92444">
        <ele>1082</ele>
        <time>2014-06-22T00:28:31Z</time>
      </trkpt>
      <trkpt lat="47.96742" lon="6.92449">
        <ele>1083</ele>
        <time>2014-06-22T00:28:33Z</time>
      </trkpt>
      <trkpt lat="47.96759" lon="6.92473">
        <ele>1079</ele>
        <time>2014-06-22T00:28:43Z</time>
      </trkpt>
      <trkpt lat="47.96763" lon="6.92476">
        <ele>1079</ele>
        <time>2014-06-22T00:28:44Z</time>
      </trkpt>
      <trkpt lat="47.96771" lon="6.92478">
        <ele>1079</ele>
        <time>2014-06-22T00:28:46Z</time>
      </trkpt>
      <trkpt lat="47.96797" lon="6.9247">
        <ele>1076</ele>
        <time>2014-06-22T00:28:57Z</time>
      </trkpt>
      <trkpt lat="47.96797" lon="6.92465">
        <ele>1075</ele>
        <time>2014-06-22T00:29:00Z</time>
      </trkpt>
      <trkpt lat="47.96831" lon="6.92507">
        <ele>1078</ele>
        <time>2014-06-22T00:29:04Z</time>
      </trkpt>
      <trkpt lat="47.96831" lon="6.92513">
        <ele>1079</ele>
        <time>2014-06-22T00:29:08Z</time>
      </trkpt>
      <trkpt lat="47.96832" lon="6.92519">
        <ele>1081</ele>
        <time>2014-06-22T00:29:10Z</time>
      </trkpt>
      <trkpt lat="47.96816" lon="6.92506">
        <ele>1081</ele>
        <time>2014-06-22T00:29:23Z</time>
      </trkpt>
      <trkpt lat="47.96831" lon="6.92514">
        <ele>1080</ele>
        <time>2014-06-22T00:29:33Z</time>
      </trkpt>
      <trkpt lat="47.96835" lon="6.92513">
        <ele>1073</ele>
        <time>2014-06-22T00:29:34Z</time>
      </trkpt>
      <trkpt lat="47.96839" lon="6.92512">
        <ele>1073</ele>
        <time>2014-06-22T00:29:35Z</time>
      </trkpt>
      <trkpt lat="47.96863" lon="6.92525">
        <ele>1071</ele>
        <time>2014-06-22T00:29:47Z</time>
      </trkpt>
      <trkpt lat="47.96861" lon="6.92531">
        <ele>1071</ele>
        <time>2014-06-22T00:29:57Z</time>
      </trkpt>
      <trkpt lat="47.96864" lon="6.92532">
        <ele>1071</ele>
        <time>2014-06-22T00:30:00Z</time>
      </trkpt>
      <trkpt lat="47.96876" lon="6.92549">
        <ele>1071</ele>
        <time>2014-06-22T00:30:10Z</time>
      </trkpt>
      <trkpt lat="47.96878" lon="6.92554">
        <ele>1071</ele>
        <time>2014-06-22T00:30:12Z</time>
      </trkpt>
      <trkpt lat="47.9688" lon="6.92554">
        <ele>1070</ele>
        <time>2014-06-22T00:30:22Z</time>
      </trkpt>
      <trkpt lat="47.96884" lon="6.92558">
        <ele>1070</ele>
        <time>2014-06-22T00:30:24Z</time>
      </trkpt>
      <trkpt lat="47.96907" lon="6.92567">
        <ele>1068</ele>
        <time>2014-06-22T00:30:35Z</time>
      </trkpt>
      <trkpt lat="47.96932" lon="6.92567">
        <ele>1058</ele>
        <time>2014-06-22T00:30:45Z</time>
      </trkpt>
      <trkpt lat="47.96935" lon="6.92569">
        <ele>1058</ele>
        <time>2014-06-22T00:30:46Z</time>
      </trkpt>
      <trkpt lat="47.96952" lon="6.92592">
        <ele>1060</ele>
        <time>2014-06-22T00:30:55Z</time>
      </trkpt>
      <trkpt lat="47.96952" lon="6.92598">
        <ele>1060</ele>
        <time>2014-06-22T00:30:58Z</time>
      </trkpt>
      <trkpt lat="47.97032" lon="6.92704">
        <ele>1048</ele>
        <time>2014-06-22T00:32:11Z</time>
      </trkpt>
      <trkpt lat="47.97073" lon="6.92763">
        <ele>1048</ele>
        <time>2014-06-22T00:32:58Z</time>
      </trkpt>
      <trkpt lat="47.97085" lon="6.92775">
        <ele>1040</ele>
        <time>2014-06-22T00:33:09Z</time>
      </trkpt>
      <trkpt lat="47.97111" lon="6.92767">
        <ele>1038</ele>
        <time>2014-06-22T00:33:10Z</time>
      </trkpt>
      <trkpt lat="47.9712" lon="6.92779">
        <ele>1037</ele>
        <time>2014-06-22T00:33:23Z</time>
      </trkpt>
      <trkpt lat="47.97134" lon="6.92794">
        <ele>1037</ele>
        <time>2014-06-22T00:33:33Z</time>
      </trkpt>
      <trkpt lat="47.97133" lon="6.92799">
        <ele>1037</ele>
        <time>2014-06-22T00:33:34Z</time>
      </trkpt>
      <trkpt lat="47.97148" lon="6.92861">
        <ele>1046</ele>
        <time>2014-06-22T00:33:46Z</time>
      </trkpt>
      <trkpt lat="47.97151" lon="6.92856">
        <ele>1045</ele>
        <time>2014-06-22T00:33:48Z</time>
      </trkpt>
      <trkpt lat="47.9716" lon="6.92795">
        <ele>1035</ele>
        <time>2014-06-22T00:33:58Z</time>
      </trkpt>
      <trkpt lat="47.97161" lon="6.928">
        <ele>1035</ele>
        <time>2014-06-22T00:33:59Z</time>
      </trkpt>
      <trkpt lat="47.97279" lon="6.92948">
        <ele>1016</ele>
        <time>2014-06-22T00:35:30Z</time>
      </trkpt>
      <trkpt lat="47.97339" lon="6.93129">
        <ele>1006</ele>
        <time>2014-06-22T00:36:42Z</time>
      </trkpt>
      <trkpt lat="47.97334" lon="6.9313">
        <ele>1006</ele>
        <time>2014-06-22T00:36:44Z</time>
      </trkpt>
      <trkpt lat="47.97325" lon="6.93148">
        <ele>1018</ele>
        <time>2014-06-22T00:36:54Z</time>
      </trkpt>
      <trkpt lat="47.97323" lon="6.93152">
        <ele>1018</ele>
        <time>2014-06-22T00:36:55Z</time>
      </trkpt>
      <trkpt lat="47.97415" lon="6.93275">
        <ele>1012</ele>
        <time>2014-06-22T00:38:30Z</time>
      </trkpt>
      <trkpt lat="47.97417" lon="6.93278">
        <ele>1005</ele>
        <time>2014-06-22T00:38:35Z</time>
      </trkpt>
      <trkpt lat="47.97435" lon="6.93295">
        <ele>1005</ele>
        <time>2014-06-22T00:38:46Z</time>
      </trkpt>
      <trkpt lat="47.97437" lon="6.933">
        <ele>1005</ele>
        <time>2014-06-22T00:38:48Z</time>
      </trkpt>
      <trkpt lat="47.97448" lon="6.93342">
        <ele>1013</ele>
        <time>2014-06-22T00:38:58Z</time>
      </trkpt>
      <trkpt lat="47.9745" lon="6.93345">
        <ele>1013</ele>
        <time>2014-06-22T00:38:59Z</time>
      </trkpt>
      <trkpt lat="47.97467" lon="6.93368">
        <ele>1012</ele>
        <time>2014-06-22T00:39:09Z</time>
      </trkpt>
      <trkpt lat="47.97472" lon="6.9337">
        <ele>1011</ele>
        <time>2014-06-22T00:39:11Z</time>
      </trkpt>
      <trkpt lat="47.97479" lon="6.9338">
        <ele>1012</ele>
        <time>2014-06-22T00:39:22Z</time>
      </trkpt>
      <trkpt lat="47.97474" lon="6.93403">
        <ele>1013</ele>
        <time>2014-06-22T00:39:32Z</time>
      </trkpt>
      <trkpt lat="47.97475" lon="6.93407">
        <ele>1013</ele>
        <time>2014-06-22T00:39:33Z</time>
      </trkpt>
      <trkpt lat="47.97479" lon="6.93424">
        <ele>1017</ele>
        <time>2014-06-22T00:39:58Z</time>
      </trkpt>
      <trkpt lat="47.9749" lon="6.93439">
        <ele>1018</ele>
        <time>2014-06-22T00:40:45Z</time>
      </trkpt>
      <trkpt lat="47.97496" lon="6.93442">
        <ele>1018</ele>
        <time>2014-06-22T00:40:55Z</time>
      </trkpt>
      <trkpt lat="47.97496" lon="6.93447">
        <ele>1019</ele>
        <time>2014-06-22T00:41:02Z</time>
      </trkpt>
      <trkpt lat="47.97539" lon="6.93533">
        <ele>1030</ele>
        <time>2014-06-22T00:41:12Z</time>
      </trkpt>
      <trkpt lat="47.97577" lon="6.93528">
        <ele>1026</ele>
        <time>2014-06-22T00:41:17Z</time>
      </trkpt>
      <trkpt lat="47.97582" lon="6.93527">
        <ele>1025</ele>
        <time>2014-06-22T00:41:19Z</time>
      </trkpt>
      <trkpt lat="47.97585" lon="6.93529">
        <ele>1025</ele>
        <time>2014-06-22T00:41:20Z</time>
      </trkpt>
      <trkpt lat="47.97588" lon="6.9353">
        <ele>1025</ele>
        <time>2014-06-22T00:41:21Z</time>
      </trkpt>
      <trkpt lat="47.9762" lon="6.93532">
        <ele>1027</ele>
        <time>2014-06-22T00:41:31Z</time>
      </trkpt>
      <trkpt lat="47.97629" lon="6.93531">
        <ele>1027</ele>
        <time>2014-06-22T00:41:34Z</time>
      </trkpt>
      <trkpt lat="47.97646" lon="6.93526">
        <ele>1027</ele>
        <time>2014-06-22T00:41:42Z</time>
      </trkpt>
      <trkpt lat="47.97645" lon="6.93522">
        <ele>1026</ele>
        <time>2014-06-22T00:41:45Z</time>
      </trkpt>
      <trkpt lat="47.97643" lon="6.93509">
        <ele>1025</ele>
        <time>2014-06-22T00:41:54Z</time>
      </trkpt>
      <trkpt lat="47.97647" lon="6.93504">
        <ele>1024</ele>
        <time>2014-06-22T00:41:58Z</time>
      </trkpt>
      <trkpt lat="47.97663" lon="6.93473">
        <ele>1012</ele>
        <time>2014-06-22T00:42:08Z</time>
      </trkpt>
      <trkpt lat="47.97664" lon="6.93469">
        <ele>1011</ele>
        <time>2014-06-22T00:42:13Z</time>
      </trkpt>
      <trkpt lat="47.97666" lon="6.9348">
        <ele>1013</ele>
        <time>2014-06-22T00:42:23Z</time>
      </trkpt>
      <trkpt lat="47.97682" lon="6.93487">
        <ele>1020</ele>
        <time>2014-06-22T00:42:30Z</time>
      </trkpt>
      <trkpt lat="47.97686" lon="6.93485">
        <ele>1020</ele>
        <time>2014-06-22T00:42:31Z</time>
      </trkpt>
      <trkpt lat="47.9769" lon="6.93471">
        <ele>1019</ele>
        <time>2014-06-22T00:42:34Z</time>
      </trkpt>
      <trkpt lat="47.9769" lon="6.93466">
        <ele>1018</ele>
        <time>2014-06-22T00:42:35Z</time>
      </trkpt>
      <trkpt lat="47.97725" lon="6.93461">
        <ele>1021</ele>
        <time>2014-06-22T00:42:46Z</time>
      </trkpt>
      <trkpt lat="47.97732" lon="6.93462">
        <ele>1022</ele>
        <time>2014-06-22T00:42:56Z</time>
      </trkpt>
      <trkpt lat="47.97734" lon="6.93466">
        <ele>1023</ele>
        <time>2014-06-22T00:42:59Z</time>
      </trkpt>
      <trkpt lat="47.97742" lon="6.93457">
        <ele>1021</ele>
        <time>2014-06-22T00:43:09Z</time>
      </trkpt>
      <trkpt lat="47.9774" lon="6.93452">
        <ele>1021</ele>
        <time>2014-06-22T00:43:10Z</time>
      </trkpt>
      <trkpt lat="47.97735" lon="6.93434">
        <ele>1018</ele>
        <time>2014-06-22T00:43:21Z</time>
      </trkpt>
      <trkpt lat="47.97739" lon="6.93434">
        <ele>1018</ele>
        <time>2014-06-22T00:43:25Z</time>
      </trkpt>
      <trkpt lat="47.97754" lon="6.93434">
        <ele>1024</ele>
        <time>2014-06-22T00:43:39Z</time>
      </trkpt>
      <trkpt lat="47.97761" lon="6.93434">
        <ele>1025</ele>
        <time>2014-06-22T00:43:51Z</time>
      </trkpt>
      <trkpt lat="47.97767" lon="6.93431">
        <ele>1026</ele>
        <time>2014-06-22T00:43:54Z</time>
      </trkpt>
      <trkpt lat="47.97794" lon="6.9338">
        <ele>1013</ele>
        <time>2014-06-22T00:43:55Z</time>
      </trkpt>
      <trkpt lat="47.97797" lon="6.93377">
        <ele>1013</ele>
        <time>2014-06-22T00:43:57Z</time>
      </trkpt>
      <trkpt lat="47.97825" lon="6.93367">
        <ele>1013</ele>
        <time>2014-06-22T00:44:07Z</time>
      </trkpt>
      <trkpt lat="47.97828" lon="6.9337">
        <ele>1014</ele>
        <time>2014-06-22T00:44:09Z</time>
      </trkpt>
      <trkpt lat="47.97832" lon="6.93369">
        <ele>1013</ele>
        <time>2014-06-22T00:44:13Z</time>
      </trkpt>
      <trkpt lat="47.97853" lon="6.93378">
        <ele>1015</ele>
        <time>2014-06-22T00:44:23Z</time>
      </trkpt>
      <trkpt lat="47.97854" lon="6.93382">
        <ele>1016</ele>
        <time>2014-06-22T00:44:24Z</time>
      </trkpt>
      <trkpt lat="47.97864" lon="6.93391">
        <ele>1017</ele>
        <time>2014-06-22T00:44:31Z</time>
      </trkpt>
      <trkpt lat="47.97867" lon="6.93393">
        <ele>1016</ele>
        <time>2014-06-22T00:44:36Z</time>
      </trkpt>
      <trkpt lat="47.97874" lon="6.93407">
        <ele>1017</ele>
        <time>2014-06-22T00:44:46Z</time>
      </trkpt>
      <trkpt lat="47.97884" lon="6.9341">
        <ele>1017</ele>
        <time>2014-06-22T00:44:57Z</time>
      </trkpt>
      <trkpt lat="47.97903" lon="6.934">
        <ele>1017</ele>
        <time>2014-06-22T00:45:07Z</time>
      </trkpt>
      <trkpt lat="47.97905" lon="6.93396">
        <ele>1016</ele>
        <time>2014-06-22T00:45:09Z</time>
      </trkpt>
      <trkpt lat="47.97929" lon="6.93398">
        <ele>1010</ele>
        <time>2014-06-22T00:45:19Z</time>
      </trkpt>
      <trkpt lat="47.97937" lon="6.93423">
        <ele>1018</ele>
        <time>2014-06-22T00:45:29Z</time>
      </trkpt>
      <trkpt lat="47.97937" lon="6.93428">
        <ele>1018</ele>
        <time>2014-06-22T00:45:30Z</time>
      </trkpt>
      <trkpt lat="47.97941" lon="6.9344">
        <ele>1018</ele>
        <time>2014-06-22T00:45:33Z</time>
      </trkpt>
      <trkpt lat="47.97938" lon="6.93427">
        <ele>1018</ele>
        <time>2014-06-22T00:45:47Z</time>
      </trkpt>
      <trkpt lat="47.97962" lon="6.93462">
        <ele>1016</ele>
        <time>2014-06-22T00:46:00Z</time>
      </trkpt>
      <trkpt lat="47.9797" lon="6.9354">
        <ele>1027</ele>
        <time>2014-06-22T00:46:41Z</time>
      </trkpt>
      <trkpt lat="47.97973" lon="6.93545">
        <ele>1027</ele>
        <time>2014-06-22T00:46:44Z</time>
      </trkpt>
      <trkpt lat="47.97992" lon="6.93541">
        <ele>1024</ele>
        <time>2014-06-22T00:46:45Z</time>
      </trkpt>
      <trkpt lat="47.98" lon="6.93571">
        <ele>1013</ele>
        <time>2014-06-22T00:46:56Z</time>
      </trkpt>
      <trkpt lat="47.98002" lon="6.93575">
        <ele>1014</ele>
        <time>2014-06-22T00:46:57Z</time>
      </trkpt>
      <trkpt lat="47.98004" lon="6.93579">
        <ele>1015</ele>
        <time>2014-06-22T00:46:58Z</time>
      </trkpt>
      <trkpt lat="47.98006" lon="6.93582">
        <ele>1015</ele>
        <time>2014-06-22T00:46:59Z</time>
      </trkpt>
      <trkpt lat="47.98018" lon="6.93591">
        <ele>1014</ele>
        <time>2014-06-22T00:47:07Z</time>
      </trkpt>
      <trkpt lat="47.98018" lon="6.93585">
        <ele>1014</ele>
        <time>2014-06-22T00:47:09Z</time>
      </trkpt>
      <trkpt lat="47.9802" lon="6.93598">
        <ele>1013</ele>
        <time>2014-06-22T00:47:29Z</time>
      </trkpt>
      <trkpt lat="47.98019" lon="6.93604">
        <ele>1013</ele>
        <time>2014-06-22T00:47:31Z</time>
      </trkpt>
      <trkpt lat="47.9802" lon="6.93608">
        <ele>1013</ele>
        <time>2014-06-22T00:47:42Z</time>
      </trkpt>
      <trkpt lat="47.98022" lon="6.93611">
        <ele>1013</ele>
        <time>2014-06-22T00:47:53Z</time>
      </trkpt>
      <trkpt lat="47.98025" lon="6.93615">
        <ele>1013</ele>
        <time>2014-06-22T00:47:55Z</time>
      </trkpt>
      <trkpt lat="47.98028" lon="6.93618">
        <ele>1012</ele>
        <time>2014-06-22T00:48:06Z</time>
      </trkpt>
      <trkpt lat="47.9803" lon="6.9362">
        <ele>1012</ele>
        <time>2014-06-22T00:48:17Z</time>
      </trkpt>
      <trkpt lat="47.98032" lon="6.93624">
        <ele>1012</ele>
        <time>2014-06-22T00:48:29Z</time>
      </trkpt>
      <trkpt lat="47.98035" lon="6.93626">
        <ele>1012</ele>
        <time>2014-06-22T00:48:39Z</time>
      </trkpt>
      <trkpt lat="47.98038" lon="6.93629">
        <ele>1012</ele>
        <time>2014-06-22T00:48:41Z</time>
      </trkpt>
      <trkpt lat="47.98078" lon="6.9373">
        <ele>1018</ele>
        <time>2014-06-22T00:48:54Z</time>
      </trkpt>
      <trkpt lat="47.98082" lon="6.93739">
        <ele>1017</ele>
        <time>2014-06-22T00:48:55Z</time>
      </trkpt>
      <trkpt lat="47.98107" lon="6.93745">
        <ele>1010</ele>
        <time>2014-06-22T00:48:56Z</time>
      </trkpt>
      <trkpt lat="47.98111" lon="6.93752">
        <ele>1018</ele>
        <time>2014-06-22T00:48:57Z</time>
      </trkpt>
      <trkpt lat="47.98115" lon="6.93757">
        <ele>1019</ele>
        <time>2014-06-22T00:48:58Z</time>
      </trkpt>
      <trkpt lat="47.98132" lon="6.93771">
        <ele>1019</ele>
        <time>2014-06-22T00:49:09Z</time>
      </trkpt>
      <trkpt lat="47.9815" lon="6.93774">
        <ele>1018</ele>
        <time>2014-06-22T00:49:20Z</time>
      </trkpt>
      <trkpt lat="47.98153" lon="6.93773">
        <ele>1018</ele>
        <time>2014-06-22T00:49:21Z</time>
      </trkpt>
      <trkpt lat="47.98158" lon="6.9377">
        <ele>1017</ele>
        <time>2014-06-22T00:49:23Z</time>
      </trkpt>
      <trkpt lat="47.98173" lon="6.93752">
        <ele>1013</ele>
        <time>2014-06-22T00:49:33Z</time>
      </trkpt>
      <trkpt lat="47.98175" lon="6.93748">
        <ele>1009</ele>
        <time>2014-06-22T00:49:34Z</time>
      </trkpt>
      <trkpt lat="47.98212" lon="6.93714">
        <ele>1003</ele>
        <time>2014-06-22T00:49:44Z</time>
      </trkpt>
      <trkpt lat="47.98227" lon="6.93747">
        <ele>1007</ele>
        <time>2014-06-22T00:49:54Z</time>
      </trkpt>
      <trkpt lat="47.98223" lon="6.93744">
        <ele>1006</ele>
        <time>2014-06-22T00:49:56Z</time>
      </trkpt>
      <trkpt lat="47.98221" lon="6.93746">
        <ele>1006</ele>
        <time>2014-06-22T00:49:59Z</time>
      </trkpt>
      <trkpt lat="47.98221" lon="6.93823">
        <ele>1024</ele>
        <time>2014-06-22T00:50:10Z</time>
      </trkpt>
      <trkpt lat="47.98242" lon="6.93824">
        <ele>1026</ele>
        <time>2014-06-22T00:50:20Z</time>
      </trkpt>
      <trkpt lat="47.98246" lon="6.93822">
        <ele>1026</ele>
        <time>2014-06-22T00:50:21Z</time>
      </trkpt>
      <trkpt lat="47.98255" lon="6.93814">
        <ele>1025</ele>
        <time>2014-06-22T00:50:23Z</time>
      </trkpt>
      <trkpt lat="47.98279" lon="6.93775">
        <ele>1020</ele>
        <time>2014-06-22T00:50:28Z</time>
      </trkpt>
      <trkpt lat="47.98282" lon="6.93774">
        <ele>1020</ele>
        <time>2014-06-22T00:50:29Z</time>
      </trkpt>
      <trkpt lat="47.98289" lon="6.93766">
        <ele>1020</ele>
        <time>2014-06-22T00:50:54Z</time>
      </trkpt>
      <trkpt lat="47.98297" lon="6.93767">
        <ele>1020</ele>
        <time>2014-06-22T00:50:56Z</time>
      </trkpt>
      <trkpt lat="47.98324" lon="6.93775">
        <ele>1020</ele>
        <time>2014-06-22T00:51:07Z</time>
      </trkpt>
      <trkpt lat="47.98328" lon="6.93773">
        <ele>1019</ele>
        <time>2014-06-22T00:51:08Z</time>
      </trkpt>
      <trkpt lat="47.98319" lon="6.93751">
        <ele>1018</ele>
        <time>2014-06-22T00:51:19Z</time>
      </trkpt>
      <trkpt lat="47.98353" lon="6.93755">
        <ele>1024</ele>
        <time>2014-06-22T00:51:30Z</time>
      </trkpt>
      <trkpt lat="47.98356" lon="6.93755">
        <ele>1024</ele>
        <time>2014-06-22T00:51:32Z</time>
      </trkpt>
      <trkpt lat="47.98358" lon="6.9375">
        <ele>1025</ele>
        <time>2014-06-22T00:51:35Z</time>
      </trkpt>
      <trkpt lat="47.98371" lon="6.93751">
        <ele>1027</ele>
        <time>2014-06-22T00:51:45Z</time>
      </trkpt>
      <trkpt lat="47.98374" lon="6.93751">
        <ele>1028</ele>
        <time>2014-06-22T00:51:46Z</time>
      </trkpt>
      <trkpt lat="47.98368" lon="6.93739">
        <ele>1021</ele>
        <time>2014-06-22T00:51:56Z</time>
      </trkpt>
      <trkpt lat="47.98381" lon="6.93722">
        <ele>1022</ele>
        <time>2014-06-22T00:52:07Z</time>
      </trkpt>
      <trkpt lat="47.98383" lon="6.93725">
        <ele>1023</ele>
        <time>2014-06-22T00:52:09Z</time>
      </trkpt>
      <trkpt lat="47.98384" lon="6.93721">
        <ele>1023</ele>
        <time>2014-06-22T00:52:11Z</time>
      </trkpt>
      <trkpt lat="47.98392" lon="6.93684">
        <ele>1023</ele>
        <time>2014-06-22T00:52:21Z</time>
      </trkpt>
      <trkpt lat="47.98394" lon="6.93681">
        <ele>1023</ele>
        <time>2014-06-22T00:52:22Z</time>
      </trkpt>
      <trkpt lat="47.98397" lon="6.93678">
        <ele>1024</ele>
        <time>2014-06-22T00:52:23Z</time>
      </trkpt>
      <trkpt lat="47.98401" lon="6.93652">
        <ele>1021</ele>
        <time>2014-06-22T00:52:31Z</time>
      </trkpt>
      <trkpt lat="47.98399" lon="6.93656">
        <ele>1021</ele>
        <time>2014-06-22T00:52:32Z</time>
      </trkpt>
      <trkpt lat="47.98393" lon="6.93647">
        <ele>1018</ele>
        <time>2014-06-22T00:52:34Z</time>
      </trkpt>
      <trkpt lat="47.9839" lon="6.93644">
        <ele>1017</ele>
        <time>2014-06-22T00:52:36Z</time>
      </trkpt>
      <trkpt lat="47.98391" lon="6.93635">
        <ele>1017</ele>
        <time>2014-06-22T00:52:46Z</time>
      </trkpt>
      <trkpt lat="47.98394" lon="6.9363">
        <ele>1017</ele>
        <time>2014-06-22T00:52:47Z</time>
      </trkpt>
      <trkpt lat="47.98419" lon="6.93606">
        <ele>1029</ele>
        <time>2014-06-22T00:52:57Z</time>
      </trkpt>
      <trkpt lat="47.98416" lon="6.93607">
        <ele>1019</ele>
        <time>2014-06-22T00:53:06Z</time>
      </trkpt>
      <trkpt lat="47.98414" lon="6.93603">
        <ele>1019</ele>
        <time>2014-06-22T00:53:08Z</time>
      </trkpt>
      <trkpt lat="47.98416" lon="6.93596">
        <ele>1020</ele>
        <time>2014-06-22T00:53:20Z</time>
      </trkpt>
      <trkpt lat="47.98421" lon="6.93597">
        <ele>1027</ele>
        <time>2014-06-22T00:53:24Z</time>
      </trkpt>
      <trkpt lat="47.98445" lon="6.93589">
        <ele>1030</ele>
        <time>2014-06-22T00:53:34Z</time>
      </trkpt>
      <trkpt lat="47.98456" lon="6.93586">
        <ele>1031</ele>
        <time>2014-06-22T00:53:37Z</time>
      </trkpt>
      <trkpt lat="47.98497" lon="6.93593">
        <ele>1035</ele>
        <time>2014-06-22T00:53:41Z</time>
      </trkpt>
      <trkpt lat="47.98499" lon="6.93589">
        <ele>1035</ele>
        <time>2014-06-22T00:53:42Z</time>
      </trkpt>
      <trkpt lat="47.98498" lon="6.93585">
        <ele>1035</ele>
        <time>2014-06-22T00:53:44Z</time>
      </trkpt>
      <trkpt lat="47.98498" lon="6.9358">
        <ele>1033</ele>
        <time>2014-06-22T00:53:47Z</time>
      </trkpt>
      <trkpt lat="47.9849" lon="6.93544">
        <ele>1027</ele>
        <time>2014-06-22T00:53:58Z</time>
      </trkpt>
      <trkpt lat="47.9851" lon="6.93557">
        <ele>1038</ele>
        <time>2014-06-22T00:54:08Z</time>
      </trkpt>
      <trkpt lat="47.98514" lon="6.93557">
        <ele>1038</ele>
        <time>2014-06-22T00:54:09Z</time>
      </trkpt>
      <trkpt lat="47.98543" lon="6.93534">
        <ele>1040</ele>
        <time>2014-06-22T00:54:24Z</time>
      </trkpt>
      <trkpt lat="47.98516" lon="6.93506">
        <ele>1034</ele>
        <time>2014-06-22T00:54:36Z</time>
      </trkpt>
      <trkpt lat="47.98523" lon="6.93487">
        <ele>1031</ele>
        <time>2014-06-22T00:54:49Z</time>
      </trkpt>
      <trkpt lat="47.98526" lon="6.93485">
        <ele>1031</ele>
        <time>2014-06-22T00:54:51Z</time>
      </trkpt>
      <trkpt lat="47.9857" lon="6.93472">
        <ele>1036</ele>
        <time>2014-06-22T00:55:06Z</time>
      </trkpt>
      <trkpt lat="47.98576" lon="6.93468">
        <ele>1036</ele>
        <time>2014-06-22T00:55:08Z</time>
      </trkpt>
      <trkpt lat="47.9858" lon="6.93464">
        <ele>1036</ele>
        <time>2014-06-22T00:55:09Z</time>
      </trkpt>
      <trkpt lat="47.98584" lon="6.93439">
        <ele>1045</ele>
        <time>2014-06-22T00:55:20Z</time>
      </trkpt>
      <trkpt lat="47.98585" lon="6.93422">
        <ele>1040</ele>
        <time>2014-06-22T00:55:30Z</time>
      </trkpt>
      <trkpt lat="47.98586" lon="6.93406">
        <ele>1040</ele>
        <time>2014-06-22T00:55:54Z</time>
      </trkpt>
      <trkpt lat="47.98634" lon="6.93312">
        <ele>1045</ele>
        <time>2014-06-22T00:56:23Z</time>
      </trkpt>
      <trkpt lat="47.98627" lon="6.93305">
        <ele>1044</ele>
        <time>2014-06-22T00:56:30Z</time>
      </trkpt>
      <trkpt lat="47.98658" lon="6.9329">
        <ele>1048</ele>
        <time>2014-06-22T00:56:42Z</time>
      </trkpt>
      <trkpt lat="47.98655" lon="6.9329">
        <ele>1048</ele>
        <time>2014-06-22T00:56:44Z</time>
      </trkpt>
      <trkpt lat="47.98659" lon="6.93284">
        <ele>1049</ele>
        <time>2014-06-22T00:56:46Z</time>
      </trkpt>
      <trkpt lat="47.98661" lon="6.93261">
        <ele>1052</ele>
        <time>2014-06-22T00:56:56Z</time>
      </trkpt>
      <trkpt lat="47.98631" lon="6.93197">
        <ele>1047</ele>
        <time>2014-06-22T00:57:20Z</time>
      </trkpt>
      <trkpt lat="47.9865" lon="6.9319">
        <ele>1051</ele>
        <time>2014-06-22T00:58:46Z</time>
      </trkpt>
      <trkpt lat="47.98648" lon="6.93185">
        <ele>1051</ele>
        <time>2014-06-22T00:59:13Z</time>
      </trkpt>
      <trkpt lat="47.98621" lon="6.92949">
        <ele>1056</ele>
        <time>2014-06-22T00:59:38Z</time>
      </trkpt>
      <trkpt lat="47.98622" lon="6.92931">
        <ele>1056</ele>
        <time>2014-06-22T00:59:52Z</time>
      </trkpt>
      <trkpt lat="47.98616" lon="6.92929">
        <ele>1055</ele>
        <time>2014-06-22T00:59:55Z</time>
      </trkpt>
      <trkpt lat="47.9861" lon="6.92913">
        <ele>1050</ele>
        <time>2014-06-22T01:00:05Z</time>
      </trkpt>
      <trkpt lat="47.98612" lon="6.92916">
        <ele>1050</ele>
        <time>2014-06-22T01:00:07Z</time>
      </trkpt>
      <trkpt lat="47.98676" lon="6.92955">
        <ele>1070</ele>
        <time>2014-06-22T01:00:17Z</time>
      </trkpt>
      <trkpt lat="47.98679" lon="6.92953">
        <ele>1070</ele>
        <time>2014-06-22T01:00:18Z</time>
      </trkpt>
      <trkpt lat="47.9868" lon="6.92899">
        <ele>1062</ele>
        <time>2014-06-22T01:00:29Z</time>
      </trkpt>
      <trkpt lat="47.9868" lon="6.92894">
        <ele>1061</ele>
        <time>2014-06-22T01:00:31Z</time>
      </trkpt>
      <trkpt lat="47.98678" lon="6.92852">
        <ele>1057</ele>
        <time>2014-06-22T01:00:41Z</time>
      </trkpt>
      <trkpt lat="47.98677" lon="6.92847">
        <ele>1056</ele>
        <time>2014-06-22T01:00:42Z</time>
      </trkpt>
      <trkpt lat="47.98676" lon="6.92843">
        <ele>1055</ele>
        <time>2014-06-22T01:00:43Z</time>
      </trkpt>
      <trkpt lat="47.98697" lon="6.92848">
        <ele>1058</ele>
        <time>2014-06-22T01:00:55Z</time>
      </trkpt>
      <trkpt lat="47.98702" lon="6.92856">
        <ele>1059</ele>
        <time>2014-06-22T01:01:05Z</time>
      </trkpt>
      <trkpt lat="47.98701" lon="6.92861">
        <ele>1059</ele>
        <time>2014-06-22T01:01:07Z</time>
      </trkpt>
      <trkpt lat="47.98707" lon="6.92865">
        <ele>1060</ele>
        <time>2014-06-22T01:01:11Z</time>
      </trkpt>
      <trkpt lat="47.98711" lon="6.92866">
        <ele>1060</ele>
        <time>2014-06-22T01:01:12Z</time>
      </trkpt>
      <trkpt lat="47.98714" lon="6.92866">
        <ele>1060</ele>
        <time>2014-06-22T01:01:13Z</time>
      </trkpt>
      <trkpt lat="47.98717" lon="6.92866">
        <ele>1061</ele>
        <time>2014-06-22T01:01:14Z</time>
      </trkpt>
      <trkpt lat="47.98722" lon="6.92864">
        <ele>1061</ele>
        <time>2014-06-22T01:01:16Z</time>
      </trkpt>
      <trkpt lat="47.98726" lon="6.92863">
        <ele>1061</ele>
        <time>2014-06-22T01:01:18Z</time>
      </trkpt>
      <trkpt lat="47.98734" lon="6.92868">
        <ele>1061</ele>
        <time>2014-06-22T01:01:22Z</time>
      </trkpt>
      <trkpt lat="47.98743" lon="6.92856">
        <ele>1060</ele>
        <time>2014-06-22T01:01:32Z</time>
      </trkpt>
      <trkpt lat="47.98777" lon="6.92863">
        <ele>1066</ele>
        <time>2014-06-22T01:01:38Z</time>
      </trkpt>
      <trkpt lat="47.98777" lon="6.92859">
        <ele>1065</ele>
        <time>2014-06-22T01:01:39Z</time>
      </trkpt>
      <trkpt lat="47.9878" lon="6.92854">
        <ele>1065</ele>
        <time>2014-06-22T01:01:41Z</time>
      </trkpt>
      <trkpt lat="47.98783" lon="6.92848">
        <ele>1064</ele>
        <time>2014-06-22T01:01:43Z</time>
      </trkpt>
      <trkpt lat="47.98784" lon="6.92841">
        <ele>1064</ele>
        <time>2014-06-22T01:01:45Z</time>
      </trkpt>
      <trkpt lat="47.98771" lon="6.92839">
        <ele>1063</ele>
        <time>2014-06-22T01:01:56Z</time>
      </trkpt>
      <trkpt lat="47.98786" lon="6.92836">
        <ele>1064</ele>
        <time>2014-06-22T01:02:06Z</time>
      </trkpt>
      <trkpt lat="47.9879" lon="6.92832">
        <ele>1053</ele>
        <time>2014-06-22T01:02:09Z</time>
      </trkpt>
      <trkpt lat="47.98809" lon="6.92823">
        <ele>1054</ele>
        <time>2014-06-22T01:02:15Z</time>
      </trkpt>
      <trkpt lat="47.98813" lon="6.92823">
        <ele>1054</ele>
        <time>2014-06-22T01:02:17Z</time>
      </trkpt>
      <trkpt lat="47.98818" lon="6.92824">
        <ele>1055</ele>
        <time>2014-06-22T01:02:19Z</time>
      </trkpt>
      <trkpt lat="47.98832" lon="6.92816">
        <ele>1055</ele>
        <time>2014-06-22T01:02:29Z</time>
      </trkpt>
      <trkpt lat="47.98831" lon="6.92822">
        <ele>1057</ele>
        <time>2014-06-22T01:02:31Z</time>
      </trkpt>
      <trkpt lat="47.9883" lon="6.92828">
        <ele>1058</ele>
        <time>2014-06-22T01:02:33Z</time>
      </trkpt>
      <trkpt lat="47.9884" lon="6.9285">
        <ele>1066</ele>
        <time>2014-06-22T01:02:44Z</time>
      </trkpt>
      <trkpt lat="47.98845" lon="6.92852">
        <ele>1067</ele>
        <time>2014-06-22T01:02:46Z</time>
      </trkpt>
      <trkpt lat="47.98855" lon="6.92821">
        <ele>1058</ele>
        <time>2014-06-22T01:02:56Z</time>
      </trkpt>
      <trkpt lat="47.9886" lon="6.92823">
        <ele>1058</ele>
        <time>2014-06-22T01:02:58Z</time>
      </trkpt>
      <trkpt lat="47.98884" lon="6.92828">
        <ele>1060</ele>
        <time>2014-06-22T01:03:09Z</time>
      </trkpt>
      <trkpt lat="47.98905" lon="6.92838">
        <ele>1068</ele>
        <time>2014-06-22T01:03:20Z</time>
      </trkpt>
      <trkpt lat="47.98916" lon="6.92839">
        <ele>1068</ele>
        <time>2014-06-22T01:03:30Z</time>
      </trkpt>
      <trkpt lat="47.98917" lon="6.92833">
        <ele>1067</ele>
        <time>2014-06-22T01:03:32Z</time>
      </trkpt>
      <trkpt lat="47.98922" lon="6.92823">
        <ele>1066</ele>
        <time>2014-06-22T01:03:43Z</time>
      </trkpt>
      <trkpt lat="47.98923" lon="6.92829">
        <ele>1066</ele>
        <time>2014-06-22T01:03:45Z</time>
      </trkpt>
      <trkpt lat="47.98932" lon="6.92815">
        <ele>1066</ele>
        <time>2014-06-22T01:03:55Z</time>
      </trkpt>
      <trkpt lat="47.98936" lon="6.92806">
        <ele>1065</ele>
        <time>2014-06-22T01:03:57Z</time>
      </trkpt>
      <trkpt lat="47.98952" lon="6.92793">
        <ele>1065</ele>
        <time>2014-06-22T01:04:09Z</time>
      </trkpt>
      <trkpt lat="47.98948" lon="6.9274">
        <ele>1058</ele>
        <time>2014-06-22T01:04:19Z</time>
      </trkpt>
      <trkpt lat="47.98962" lon="6.92744">
        <ele>1060</ele>
        <time>2014-06-22T01:04:29Z</time>
      </trkpt>
      <trkpt lat="47.98967" lon="6.92748">
        <ele>1060</ele>
        <time>2014-06-22T01:04:31Z</time>
      </trkpt>
      <trkpt lat="47.98991" lon="6.92777">
        <ele>1066</ele>
        <time>2014-06-22T01:04:41Z</time>
      </trkpt>
      <trkpt lat="47.98994" lon="6.92777">
        <ele>1066</ele>
        <time>2014-06-22T01:04:42Z</time>
      </trkpt>
      <trkpt lat="47.98998" lon="6.92777">
        <ele>1066</ele>
        <time>2014-06-22T01:04:43Z</time>
      </trkpt>
      <trkpt lat="47.99017" lon="6.92755">
        <ele>1069</ele>
        <time>2014-06-22T01:04:53Z</time>
      </trkpt>
      <trkpt lat="47.9902" lon="6.92749">
        <ele>1068</ele>
        <time>2014-06-22T01:04:54Z</time>
      </trkpt>
      <trkpt lat="47.99023" lon="6.92744">
        <ele>1068</ele>
        <time>2014-06-22T01:04:55Z</time>
      </trkpt>
      <trkpt lat="47.99025" lon="6.9274">
        <ele>1068</ele>
        <time>2014-06-22T01:04:56Z</time>
      </trkpt>
      <trkpt lat="47.99023" lon="6.92737">
        <ele>1068</ele>
        <time>2014-06-22T01:04:57Z</time>
      </trkpt>
      <trkpt lat="47.99025" lon="6.92715">
        <ele>1068</ele>
        <time>2014-06-22T01:05:08Z</time>
      </trkpt>
      <trkpt lat="47.99042" lon="6.92707">
        <ele>1068</ele>
        <time>2014-06-22T01:05:15Z</time>
      </trkpt>
      <trkpt lat="47.99046" lon="6.92705">
        <ele>1068</ele>
        <time>2014-06-22T01:05:17Z</time>
      </trkpt>
      <trkpt lat="47.99047" lon="6.92701">
        <ele>1068</ele>
        <time>2014-06-22T01:05:22Z</time>
      </trkpt>
      <trkpt lat="47.99047" lon="6.92705">
        <ele>1068</ele>
        <time>2014-06-22T01:05:32Z</time>
      </trkpt>
      <trkpt lat="47.99047" lon="6.92701">
        <ele>1068</ele>
        <time>2014-06-22T01:05:53Z</time>
      </trkpt>
      <trkpt lat="47.99045" lon="6.92698">
        <ele>1068</ele>
        <time>2014-06-22T01:06:03Z</time>
      </trkpt>
      <trkpt lat="47.99015" lon="6.92666">
        <ele>1069</ele>
        <time>2014-06-22T01:07:58Z</time>
      </trkpt>
      <trkpt lat="47.99061" lon="6.92655">
        <ele>1069</ele>
        <time>2014-06-22T01:08:18Z</time>
      </trkpt>
      <trkpt lat="47.99061" lon="6.9266">
        <ele>1069</ele>
        <time>2014-06-22T01:08:19Z</time>
      </trkpt>
      <trkpt lat="47.99061" lon="6.92664">
        <ele>1069</ele>
        <time>2014-06-22T01:08:20Z</time>
      </trkpt>
      <trkpt lat="47.99058" lon="6.92675">
        <ele>1069</ele>
        <time>2014-06-22T01:09:00Z</time>
      </trkpt>
      <trkpt lat="47.99055" lon="6.92678">
        <ele>1068</ele>
        <time>2014-06-22T01:09:01Z</time>
      </trkpt>
      <trkpt lat="47.99052" lon="6.92681">
        <ele>1068</ele>
        <time>2014-06-22T01:09:03Z</time>
      </trkpt>
      <trkpt lat="47.99049" lon="6.9268">
        <ele>1068</ele>
        <time>2014-06-22T01:09:12Z</time>
      </trkpt>
      <trkpt lat="47.99047" lon="6.92682">
        <ele>1068</ele>
        <time>2014-06-22T01:09:15Z</time>
      </trkpt>
      <trkpt lat="47.99047" lon="6.92683">
        <ele>1068</ele>
        <time>2014-06-22T01:09:20Z</time>
      </trkpt>
      <trkpt lat="47.99049" lon="6.92686">
        <ele>1068</ele>
        <time>2014-06-22T01:09:23Z</time>
      </trkpt>
      <trkpt lat="47.9905" lon="6.92682">
        <ele>1068</ele>
        <time>2014-06-22T01:09:48Z</time>
      </trkpt>
      <trkpt lat="47.99053" lon="6.92683">
        <ele>1068</ele>
        <time>2014-06-22T01:33:13Z</time>
      </trkpt>
      <trkpt lat="47.99053" lon="6.92679">
        <ele>1068</ele>
        <time>2014-06-22T01:46:10Z</time>
      </trkpt>
      <trkpt lat="47.99054" lon="6.92683">
        <ele>1068</ele>
        <time>2014-06-22T01:46:23Z</time>
      </trkpt>
      <trkpt lat="47.99053" lon="6.92698">
        <ele>1068</ele>
        <time>2014-06-22T01:46:32Z</time>
      </trkpt>
      <trkpt lat="47.99055" lon="6.92706">
        <ele>1068</ele>
        <time>2014-06-22T01:46:37Z</time>
      </trkpt>
      <trkpt lat="47.99058" lon="6.9272">
        <ele>1068</ele>
        <time>2014-06-22T01:46:48Z</time>
      </trkpt>
      <trkpt lat="47.99061" lon="6.92723">
        <ele>1068</ele>
        <time>2014-06-22T01:46:52Z</time>
      </trkpt>
      <trkpt lat="47.99068" lon="6.92737">
        <ele>1069</ele>
        <time>2014-06-22T01:47:05Z</time>
      </trkpt>
      <trkpt lat="47.99069" lon="6.92742">
        <ele>1069</ele>
        <time>2014-06-22T01:47:11Z</time>
      </trkpt>
      <trkpt lat="47.9907" lon="6.92764">
        <ele>1070</ele>
        <time>2014-06-22T01:47:23Z</time>
      </trkpt>
      <trkpt lat="47.99071" lon="6.92778">
        <ele>1071</ele>
        <time>2014-06-22T01:47:35Z</time>
      </trkpt>
      <trkpt lat="47.99073" lon="6.92787">
        <ele>1071</ele>
        <time>2014-06-22T01:47:41Z</time>
      </trkpt>
      <trkpt lat="47.99073" lon="6.92791">
        <ele>1071</ele>
        <time>2014-06-22T01:47:43Z</time>
      </trkpt>
      <trkpt lat="47.99073" lon="6.92814">
        <ele>1072</ele>
        <time>2014-06-22T01:47:53Z</time>
      </trkpt>
      <trkpt lat="47.99076" lon="6.92834">
        <ele>1074</ele>
        <time>2014-06-22T01:48:03Z</time>
      </trkpt>
      <trkpt lat="47.99078" lon="6.92854">
        <ele>1075</ele>
        <time>2014-06-22T01:48:15Z</time>
      </trkpt>
      <trkpt lat="47.99077" lon="6.92875">
        <ele>1075</ele>
        <time>2014-06-22T01:48:27Z</time>
      </trkpt>
      <trkpt lat="47.99076" lon="6.92893">
        <ele>1075</ele>
        <time>2014-06-22T01:48:39Z</time>
      </trkpt>
      <trkpt lat="47.99075" lon="6.92908">
        <ele>1075</ele>
        <time>2014-06-22T01:48:49Z</time>
      </trkpt>
      <trkpt lat="47.99082" lon="6.92923">
        <ele>1076</ele>
        <time>2014-06-22T01:48:58Z</time>
      </trkpt>
      <trkpt lat="47.99084" lon="6.92929">
        <ele>1070</ele>
        <time>2014-06-22T01:49:01Z</time>
      </trkpt>
      <trkpt lat="47.9909" lon="6.92941">
        <ele>1068</ele>
        <time>2014-06-22T01:49:15Z</time>
      </trkpt>
      <trkpt lat="47.99091" lon="6.92944">
        <ele>1067</ele>
        <time>2014-06-22T01:49:17Z</time>
      </trkpt>
      <trkpt lat="47.99093" lon="6.92948">
        <ele>1066</ele>
        <time>2014-06-22T01:49:19Z</time>
      </trkpt>
      <trkpt lat="47.99101" lon="6.92972">
        <ele>1065</ele>
        <time>2014-06-22T01:49:29Z</time>
      </trkpt>
      <trkpt lat="47.99102" lon="6.92977">
        <ele>1065</ele>
        <time>2014-06-22T01:49:31Z</time>
      </trkpt>
      <trkpt lat="47.99107" lon="6.92999">
        <ele>1065</ele>
        <time>2014-06-22T01:49:41Z</time>
      </trkpt>
      <trkpt lat="47.99109" lon="6.9301">
        <ele>1062</ele>
        <time>2014-06-22T01:49:47Z</time>
      </trkpt>
      <trkpt lat="47.9911" lon="6.9303">
        <ele>1061</ele>
        <time>2014-06-22T01:50:00Z</time>
      </trkpt>
      <trkpt lat="47.99108" lon="6.93038">
        <ele>1061</ele>
        <time>2014-06-22T01:50:06Z</time>
      </trkpt>
      <trkpt lat="47.99106" lon="6.93062">
        <ele>1062</ele>
        <time>2014-06-22T01:50:16Z</time>
      </trkpt>
      <trkpt lat="47.99105" lon="6.93066">
        <ele>1063</ele>
        <time>2014-06-22T01:50:18Z</time>
      </trkpt>
      <trkpt lat="47.991" lon="6.93083">
        <ele>1065</ele>
        <time>2014-06-22T01:50:28Z</time>
      </trkpt>
      <trkpt lat="47.99097" lon="6.93098">
        <ele>1064</ele>
        <time>2014-06-22T01:50:39Z</time>
      </trkpt>
      <trkpt lat="47.99092" lon="6.9312">
        <ele>1061</ele>
        <time>2014-06-22T01:50:50Z</time>
      </trkpt>
      <trkpt lat="47.9909" lon="6.93125">
        <ele>1061</ele>
        <time>2014-06-22T01:50:53Z</time>
      </trkpt>
      <trkpt lat="47.9909" lon="6.93144">
        <ele>1062</ele>
        <time>2014-06-22T01:51:03Z</time>
      </trkpt>
      <trkpt lat="47.9909" lon="6.93159">
        <ele>1066</ele>
        <time>2014-06-22T01:51:12Z</time>
      </trkpt>
      <trkpt lat="47.99091" lon="6.93165">
        <ele>1067</ele>
        <time>2014-06-22T01:51:14Z</time>
      </trkpt>
      <trkpt lat="47.99093" lon="6.93183">
        <ele>1063</ele>
        <time>2014-06-22T01:51:24Z</time>
      </trkpt>
      <trkpt lat="47.99096" lon="6.93195">
        <ele>1062</ele>
        <time>2014-06-22T01:52:31Z</time>
      </trkpt>
      <trkpt lat="47.991" lon="6.93216">
        <ele>1062</ele>
        <time>2014-06-22T01:52:42Z</time>
      </trkpt>
      <trkpt lat="47.99104" lon="6.93225">
        <ele>1062</ele>
        <time>2014-06-22T01:52:45Z</time>
      </trkpt>
      <trkpt lat="47.99105" lon="6.9323">
        <ele>1062</ele>
        <time>2014-06-22T01:52:47Z</time>
      </trkpt>
      <trkpt lat="47.99108" lon="6.93245">
        <ele>1063</ele>
        <time>2014-06-22T01:52:58Z</time>
      </trkpt>
      <trkpt lat="47.99109" lon="6.93276">
        <ele>1064</ele>
        <time>2014-06-22T01:53:08Z</time>
      </trkpt>
      <trkpt lat="47.99115" lon="6.933">
        <ele>1063</ele>
        <time>2014-06-22T01:53:18Z</time>
      </trkpt>
      <trkpt lat="47.99112" lon="6.93321">
        <ele>1065</ele>
        <time>2014-06-22T01:53:29Z</time>
      </trkpt>
      <trkpt lat="47.99112" lon="6.93327">
        <ele>1066</ele>
        <time>2014-06-22T01:53:31Z</time>
      </trkpt>
      <trkpt lat="47.99113" lon="6.93352">
        <ele>1068</ele>
        <time>2014-06-22T01:53:41Z</time>
      </trkpt>
      <trkpt lat="47.9912" lon="6.93364">
        <ele>1066</ele>
        <time>2014-06-22T01:53:45Z</time>
      </trkpt>
      <trkpt lat="47.99121" lon="6.93369">
        <ele>1066</ele>
        <time>2014-06-22T01:53:47Z</time>
      </trkpt>
      <trkpt lat="47.99128" lon="6.93393">
        <ele>1065</ele>
        <time>2014-06-22T01:53:57Z</time>
      </trkpt>
      <trkpt lat="47.99131" lon="6.93403">
        <ele>1064</ele>
        <time>2014-06-22T01:54:02Z</time>
      </trkpt>
      <trkpt lat="47.99136" lon="6.93424">
        <ele>1067</ele>
        <time>2014-06-22T01:54:12Z</time>
      </trkpt>
      <trkpt lat="47.99142" lon="6.93451">
        <ele>1068</ele>
        <time>2014-06-22T01:54:24Z</time>
      </trkpt>
      <trkpt lat="47.99145" lon="6.93461">
        <ele>1068</ele>
        <time>2014-06-22T01:54:29Z</time>
      </trkpt>
      <trkpt lat="47.99149" lon="6.93469">
        <ele>1067</ele>
        <time>2014-06-22T01:54:34Z</time>
      </trkpt>
      <trkpt lat="47.99156" lon="6.93482">
        <ele>1065</ele>
        <time>2014-06-22T01:54:40Z</time>
      </trkpt>
      <trkpt lat="47.99168" lon="6.93497">
        <ele>1056</ele>
        <time>2014-06-22T01:54:50Z</time>
      </trkpt>
      <trkpt lat="47.99171" lon="6.93499">
        <ele>1055</ele>
        <time>2014-06-22T01:54:52Z</time>
      </trkpt>
      <trkpt lat="47.99173" lon="6.93502">
        <ele>1056</ele>
        <time>2014-06-22T01:54:54Z</time>
      </trkpt>
      <trkpt lat="47.99176" lon="6.93507">
        <ele>1056</ele>
        <time>2014-06-22T01:54:56Z</time>
      </trkpt>
      <trkpt lat="47.99186" lon="6.93521">
        <ele>1054</ele>
        <time>2014-06-22T01:55:07Z</time>
      </trkpt>
      <trkpt lat="47.99197" lon="6.93536">
        <ele>1053</ele>
        <time>2014-06-22T01:55:17Z</time>
      </trkpt>
      <trkpt lat="47.99212" lon="6.9355">
        <ele>1052</ele>
        <time>2014-06-22T01:55:28Z</time>
      </trkpt>
      <trkpt lat="47.99215" lon="6.93555">
        <ele>1052</ele>
        <time>2014-06-22T01:55:31Z</time>
      </trkpt>
      <trkpt lat="47.99217" lon="6.93559">
        <ele>1052</ele>
        <time>2014-06-22T01:55:33Z</time>
      </trkpt>
      <trkpt lat="47.99221" lon="6.93562">
        <ele>1051</ele>
        <time>2014-06-22T01:55:36Z</time>
      </trkpt>
      <trkpt lat="47.99232" lon="6.93574">
        <ele>1049</ele>
        <time>2014-06-22T01:55:46Z</time>
      </trkpt>
      <trkpt lat="47.99234" lon="6.93578">
        <ele>1048</ele>
        <time>2014-06-22T01:55:48Z</time>
      </trkpt>
      <trkpt lat="47.99236" lon="6.93582">
        <ele>1048</ele>
        <time>2014-06-22T01:55:50Z</time>
      </trkpt>
      <trkpt lat="47.99247" lon="6.93601">
        <ele>1057</ele>
        <time>2014-06-22T01:56:02Z</time>
      </trkpt>
      <trkpt lat="47.99257" lon="6.93613">
        <ele>1043</ele>
        <time>2014-06-22T01:56:12Z</time>
      </trkpt>
      <trkpt lat="47.99259" lon="6.93616">
        <ele>1044</ele>
        <time>2014-06-22T01:56:16Z</time>
      </trkpt>
      <trkpt lat="47.99267" lon="6.93625">
        <ele>1044</ele>
        <time>2014-06-22T01:56:25Z</time>
      </trkpt>
      <trkpt lat="47.99279" lon="6.93648">
        <ele>1046</ele>
        <time>2014-06-22T01:56:36Z</time>
      </trkpt>
      <trkpt lat="47.99282" lon="6.9365">
        <ele>1046</ele>
        <time>2014-06-22T01:56:38Z</time>
      </trkpt>
      <trkpt lat="47.99294" lon="6.9366">
        <ele>1044</ele>
        <time>2014-06-22T01:56:50Z</time>
      </trkpt>
      <trkpt lat="47.99297" lon="6.9366">
        <ele>1043</ele>
        <time>2014-06-22T01:57:19Z</time>
      </trkpt>
      <trkpt lat="47.99308" lon="6.93669">
        <ele>1055</ele>
        <time>2014-06-22T01:57:28Z</time>
      </trkpt>
      <trkpt lat="47.99324" lon="6.93682">
        <ele>1052</ele>
        <time>2014-06-22T01:57:40Z</time>
      </trkpt>
      <trkpt lat="47.99326" lon="6.93685">
        <ele>1053</ele>
        <time>2014-06-22T01:57:42Z</time>
      </trkpt>
      <trkpt lat="47.99328" lon="6.93688">
        <ele>1054</ele>
        <time>2014-06-22T01:57:44Z</time>
      </trkpt>
      <trkpt lat="47.99339" lon="6.93706">
        <ele>1042</ele>
        <time>2014-06-22T01:57:54Z</time>
      </trkpt>
      <trkpt lat="47.99342" lon="6.93709">
        <ele>1042</ele>
        <time>2014-06-22T01:57:56Z</time>
      </trkpt>
      <trkpt lat="47.99344" lon="6.93713">
        <ele>1043</ele>
        <time>2014-06-22T01:57:58Z</time>
      </trkpt>
      <trkpt lat="47.99358" lon="6.93725">
        <ele>1044</ele>
        <time>2014-06-22T01:58:10Z</time>
      </trkpt>
      <trkpt lat="47.9937" lon="6.93732">
        <ele>1042</ele>
        <time>2014-06-22T01:58:20Z</time>
      </trkpt>
      <trkpt lat="47.99374" lon="6.93731">
        <ele>1041</ele>
        <time>2014-06-22T01:58:23Z</time>
      </trkpt>
      <trkpt lat="47.99387" lon="6.93734">
        <ele>1039</ele>
        <time>2014-06-22T01:58:34Z</time>
      </trkpt>
      <trkpt lat="47.99398" lon="6.93741">
        <ele>1039</ele>
        <time>2014-06-22T01:58:45Z</time>
      </trkpt>
      <trkpt lat="47.99402" lon="6.93744">
        <ele>1039</ele>
        <time>2014-06-22T01:58:49Z</time>
      </trkpt>
      <trkpt lat="47.99405" lon="6.93747">
        <ele>1039</ele>
        <time>2014-06-22T01:58:52Z</time>
      </trkpt>
      <trkpt lat="47.99421" lon="6.93753">
        <ele>1039</ele>
        <time>2014-06-22T01:59:07Z</time>
      </trkpt>
      <trkpt lat="47.99434" lon="6.93756">
        <ele>1039</ele>
        <time>2014-06-22T01:59:17Z</time>
      </trkpt>
      <trkpt lat="47.99449" lon="6.9376">
        <ele>1037</ele>
        <time>2014-06-22T01:59:24Z</time>
      </trkpt>
      <trkpt lat="47.99452" lon="6.93763">
        <ele>1037</ele>
        <time>2014-06-22T01:59:26Z</time>
      </trkpt>
      <trkpt lat="47.99464" lon="6.93775">
        <ele>1036</ele>
        <time>2014-06-22T01:59:37Z</time>
      </trkpt>
      <trkpt lat="47.99471" lon="6.93777">
        <ele>1035</ele>
        <time>2014-06-22T01:59:41Z</time>
      </trkpt>
      <trkpt lat="47.99483" lon="6.93784">
        <ele>1035</ele>
        <time>2014-06-22T01:59:52Z</time>
      </trkpt>
      <trkpt lat="47.99486" lon="6.93784">
        <ele>1034</ele>
        <time>2014-06-22T01:59:54Z</time>
      </trkpt>
      <trkpt lat="47.99489" lon="6.93786">
        <ele>1034</ele>
        <time>2014-06-22T01:59:57Z</time>
      </trkpt>
      <trkpt lat="47.99492" lon="6.93788">
        <ele>1034</ele>
        <time>2014-06-22T02:00:00Z</time>
      </trkpt>
      <trkpt lat="47.99506" lon="6.93804">
        <ele>1024</ele>
        <time>2014-06-22T02:00:12Z</time>
      </trkpt>
      <trkpt lat="47.99509" lon="6.93809">
        <ele>1025</ele>
        <time>2014-06-22T02:00:15Z</time>
      </trkpt>
      <trkpt lat="47.99524" lon="6.9382">
        <ele>1025</ele>
        <time>2014-06-22T02:00:26Z</time>
      </trkpt>
      <trkpt lat="47.99535" lon="6.93819">
        <ele>1022</ele>
        <time>2014-06-22T02:00:36Z</time>
      </trkpt>
      <trkpt lat="47.99541" lon="6.93819">
        <ele>1021</ele>
        <time>2014-06-22T02:00:40Z</time>
      </trkpt>
      <trkpt lat="47.99551" lon="6.9383">
        <ele>1020</ele>
        <time>2014-06-22T02:00:52Z</time>
      </trkpt>
      <trkpt lat="47.99568" lon="6.93837">
        <ele>1029</ele>
        <time>2014-06-22T02:01:04Z</time>
      </trkpt>
      <trkpt lat="47.99573" lon="6.93842">
        <ele>1028</ele>
        <time>2014-06-22T02:01:08Z</time>
      </trkpt>
      <trkpt lat="47.99591" lon="6.9385">
        <ele>1021</ele>
        <time>2014-06-22T02:01:18Z</time>
      </trkpt>
      <trkpt lat="47.99593" lon="6.93852">
        <ele>1021</ele>
        <time>2014-06-22T02:01:20Z</time>
      </trkpt>
      <trkpt lat="47.99595" lon="6.93855">
        <ele>1021</ele>
        <time>2014-06-22T02:01:22Z</time>
      </trkpt>
      <trkpt lat="47.99608" lon="6.93867">
        <ele>1022</ele>
        <time>2014-06-22T02:01:32Z</time>
      </trkpt>
      <trkpt lat="47.9961" lon="6.9387">
        <ele>1022</ele>
        <time>2014-06-22T02:01:34Z</time>
      </trkpt>
      <trkpt lat="47.99621" lon="6.93877">
        <ele>1023</ele>
        <time>2014-06-22T02:01:48Z</time>
      </trkpt>
      <trkpt lat="47.99625" lon="6.93873">
        <ele>1021</ele>
        <time>2014-06-22T02:01:56Z</time>
      </trkpt>
      <trkpt lat="47.99635" lon="6.93879">
        <ele>1021</ele>
        <time>2014-06-22T02:02:02Z</time>
      </trkpt>
      <trkpt lat="47.99647" lon="6.93887">
        <ele>1021</ele>
        <time>2014-06-22T02:02:12Z</time>
      </trkpt>
      <trkpt lat="47.99653" lon="6.93892">
        <ele>1022</ele>
        <time>2014-06-22T02:02:16Z</time>
      </trkpt>
      <trkpt lat="47.99666" lon="6.93897">
        <ele>1022</ele>
        <time>2014-06-22T02:02:27Z</time>
      </trkpt>
      <trkpt lat="47.99682" lon="6.93902">
        <ele>1011</ele>
        <time>2014-06-22T02:02:38Z</time>
      </trkpt>
      <trkpt lat="47.99686" lon="6.93904">
        <ele>1011</ele>
        <time>2014-06-22T02:02:41Z</time>
      </trkpt>
      <trkpt lat="47.99698" lon="6.93918">
        <ele>1023</ele>
        <time>2014-06-22T02:02:52Z</time>
      </trkpt>
      <trkpt lat="47.99709" lon="6.93931">
        <ele>1023</ele>
        <time>2014-06-22T02:03:03Z</time>
      </trkpt>
      <trkpt lat="47.99712" lon="6.93932">
        <ele>1022</ele>
        <time>2014-06-22T02:03:05Z</time>
      </trkpt>
      <trkpt lat="47.99715" lon="6.93934">
        <ele>1022</ele>
        <time>2014-06-22T02:03:07Z</time>
      </trkpt>
      <trkpt lat="47.99726" lon="6.93942">
        <ele>1021</ele>
        <time>2014-06-22T02:03:17Z</time>
      </trkpt>
      <trkpt lat="47.99729" lon="6.93943">
        <ele>1021</ele>
        <time>2014-06-22T02:03:20Z</time>
      </trkpt>
      <trkpt lat="47.99732" lon="6.93945">
        <ele>1021</ele>
        <time>2014-06-22T02:03:23Z</time>
      </trkpt>
      <trkpt lat="47.99745" lon="6.93946">
        <ele>1020</ele>
        <time>2014-06-22T02:03:34Z</time>
      </trkpt>
      <trkpt lat="47.99749" lon="6.93946">
        <ele>1020</ele>
        <time>2014-06-22T02:03:37Z</time>
      </trkpt>
      <trkpt lat="47.99752" lon="6.93945">
        <ele>1011</ele>
        <time>2014-06-22T02:03:39Z</time>
      </trkpt>
      <trkpt lat="47.99767" lon="6.93951">
        <ele>1012</ele>
        <time>2014-06-22T02:03:51Z</time>
      </trkpt>
      <trkpt lat="47.99771" lon="6.9395">
        <ele>1011</ele>
        <time>2014-06-22T02:03:54Z</time>
      </trkpt>
      <trkpt lat="47.99788" lon="6.9395">
        <ele>1011</ele>
        <time>2014-06-22T02:04:05Z</time>
      </trkpt>
      <trkpt lat="47.99794" lon="6.93952">
        <ele>1011</ele>
        <time>2014-06-22T02:04:09Z</time>
      </trkpt>
      <trkpt lat="47.9981" lon="6.93961">
        <ele>1011</ele>
        <time>2014-06-22T02:04:21Z</time>
      </trkpt>
      <trkpt lat="47.99817" lon="6.93964">
        <ele>1011</ele>
        <time>2014-06-22T02:04:27Z</time>
      </trkpt>
      <trkpt lat="47.99829" lon="6.93968">
        <ele>1011</ele>
        <time>2014-06-22T02:04:38Z</time>
      </trkpt>
      <trkpt lat="47.99837" lon="6.9397">
        <ele>1002</ele>
        <time>2014-06-22T02:04:45Z</time>
      </trkpt>
      <trkpt lat="47.99849" lon="6.93978">
        <ele>1003</ele>
        <time>2014-06-22T02:04:58Z</time>
      </trkpt>
      <trkpt lat="47.99852" lon="6.9398">
        <ele>1003</ele>
        <time>2014-06-22T02:05:04Z</time>
      </trkpt>
      <trkpt lat="47.99863" lon="6.93988">
        <ele>1001</ele>
        <time>2014-06-22T02:05:15Z</time>
      </trkpt>
      <trkpt lat="47.99884" lon="6.93998">
        <ele>998</ele>
        <time>2014-06-22T02:05:25Z</time>
      </trkpt>
      <trkpt lat="47.9989" lon="6.94">
        <ele>1007</ele>
        <time>2014-06-22T02:05:30Z</time>
      </trkpt>
      <trkpt lat="47.99893" lon="6.94002">
        <ele>1007</ele>
        <time>2014-06-22T02:05:33Z</time>
      </trkpt>
      <trkpt lat="47.99904" lon="6.94014">
        <ele>1005</ele>
        <time>2014-06-22T02:05:44Z</time>
      </trkpt>
      <trkpt lat="47.99911" lon="6.94019">
        <ele>1005</ele>
        <time>2014-06-22T02:05:48Z</time>
      </trkpt>
      <trkpt lat="47.99914" lon="6.94022">
        <ele>1006</ele>
        <time>2014-06-22T02:05:55Z</time>
      </trkpt>
      <trkpt lat="47.99928" lon="6.94042">
        <ele>991</ele>
        <time>2014-06-22T02:06:05Z</time>
      </trkpt>
      <trkpt lat="47.99936" lon="6.94043">
        <ele>990</ele>
        <time>2014-06-22T02:06:15Z</time>
      </trkpt>
      <trkpt lat="47.99946" lon="6.94056">
        <ele>990</ele>
        <time>2014-06-22T02:06:25Z</time>
      </trkpt>
      <trkpt lat="47.99948" lon="6.94059">
        <ele>990</ele>
        <time>2014-06-22T02:06:27Z</time>
      </trkpt>
      <trkpt lat="47.99961" lon="6.94078">
        <ele>987</ele>
        <time>2014-06-22T02:06:37Z</time>
      </trkpt>
      <trkpt lat="47.99967" lon="6.94087">
        <ele>994</ele>
        <time>2014-06-22T02:06:47Z</time>
      </trkpt>
      <trkpt lat="47.99973" lon="6.94094">
        <ele>993</ele>
        <time>2014-06-22T02:06:51Z</time>
      </trkpt>
      <trkpt lat="47.99983" lon="6.94108">
        <ele>992</ele>
        <time>2014-06-22T02:07:00Z</time>
      </trkpt>
      <trkpt lat="47.99994" lon="6.94124">
        <ele>994</ele>
        <time>2014-06-22T02:07:10Z</time>
      </trkpt>
      <trkpt lat="48.00002" lon="6.94144">
        <ele>974</ele>
        <time>2014-06-22T02:07:23Z</time>
      </trkpt>
      <trkpt lat="48.00007" lon="6.94156">
        <ele>979</ele>
        <time>2014-06-22T02:07:33Z</time>
      </trkpt>
      <trkpt lat="48.00011" lon="6.94173">
        <ele>984</ele>
        <time>2014-06-22T02:07:47Z</time>
      </trkpt>
      <trkpt lat="48.00013" lon="6.94177">
        <ele>983</ele>
        <time>2014-06-22T02:07:49Z</time>
      </trkpt>
      <trkpt lat="48.00029" lon="6.94198">
        <ele>977</ele>
        <time>2014-06-22T02:07:59Z</time>
      </trkpt>
      <trkpt lat="48.0003" lon="6.94202">
        <ele>977</ele>
        <time>2014-06-22T02:08:01Z</time>
      </trkpt>
      <trkpt lat="48.00032" lon="6.94211">
        <ele>977</ele>
        <time>2014-06-22T02:08:05Z</time>
      </trkpt>
      <trkpt lat="48.00034" lon="6.94216">
        <ele>977</ele>
        <time>2014-06-22T02:08:07Z</time>
      </trkpt>
      <trkpt lat="48.00039" lon="6.94232">
        <ele>976</ele>
        <time>2014-06-22T02:08:18Z</time>
      </trkpt>
      <trkpt lat="48.0004" lon="6.94237">
        <ele>976</ele>
        <time>2014-06-22T02:08:20Z</time>
      </trkpt>
      <trkpt lat="48.00041" lon="6.94242">
        <ele>976</ele>
        <time>2014-06-22T02:08:23Z</time>
      </trkpt>
      <trkpt lat="48.00046" lon="6.94259">
        <ele>978</ele>
        <time>2014-06-22T02:08:35Z</time>
      </trkpt>
      <trkpt lat="48.00046" lon="6.94264">
        <ele>978</ele>
        <time>2014-06-22T02:08:37Z</time>
      </trkpt>
      <trkpt lat="48.00047" lon="6.9429">
        <ele>978</ele>
        <time>2014-06-22T02:08:47Z</time>
      </trkpt>
      <trkpt lat="48.00047" lon="6.94296">
        <ele>978</ele>
        <time>2014-06-22T02:08:49Z</time>
      </trkpt>
      <trkpt lat="48.00044" lon="6.94304">
        <ele>979</ele>
        <time>2014-06-22T02:08:53Z</time>
      </trkpt>
      <trkpt lat="48.00041" lon="6.94307">
        <ele>979</ele>
        <time>2014-06-22T02:08:55Z</time>
      </trkpt>
      <trkpt lat="48.0004" lon="6.94317">
        <ele>980</ele>
        <time>2014-06-22T02:09:00Z</time>
      </trkpt>
      <trkpt lat="48.00037" lon="6.94336">
        <ele>978</ele>
        <time>2014-06-22T02:09:10Z</time>
      </trkpt>
      <trkpt lat="48.00031" lon="6.94345">
        <ele>979</ele>
        <time>2014-06-22T02:09:14Z</time>
      </trkpt>
      <trkpt lat="48.00021" lon="6.94364">
        <ele>980</ele>
        <time>2014-06-22T02:09:25Z</time>
      </trkpt>
      <trkpt lat="48.00023" lon="6.94389">
        <ele>977</ele>
        <time>2014-06-22T02:09:36Z</time>
      </trkpt>
      <trkpt lat="48.0002" lon="6.94396">
        <ele>978</ele>
        <time>2014-06-22T02:09:42Z</time>
      </trkpt>
      <trkpt lat="48.0002" lon="6.944">
        <ele>978</ele>
        <time>2014-06-22T02:09:45Z</time>
      </trkpt>
      <trkpt lat="48.00027" lon="6.94419">
        <ele>974</ele>
        <time>2014-06-22T02:09:55Z</time>
      </trkpt>
      <trkpt lat="48.00042" lon="6.9443">
        <ele>971</ele>
        <time>2014-06-22T02:10:07Z</time>
      </trkpt>
      <trkpt lat="48.00048" lon="6.94441">
        <ele>970</ele>
        <time>2014-06-22T02:10:15Z</time>
      </trkpt>
      <trkpt lat="48.00057" lon="6.9446">
        <ele>969</ele>
        <time>2014-06-22T02:10:26Z</time>
      </trkpt>
      <trkpt lat="48.00056" lon="6.9448">
        <ele>969</ele>
        <time>2014-06-22T02:10:36Z</time>
      </trkpt>
      <trkpt lat="48.00054" lon="6.94484">
        <ele>969</ele>
        <time>2014-06-22T02:10:38Z</time>
      </trkpt>
      <trkpt lat="48.00049" lon="6.94506">
        <ele>969</ele>
        <time>2014-06-22T02:10:49Z</time>
      </trkpt>
      <trkpt lat="48.0005" lon="6.94521">
        <ele>969</ele>
        <time>2014-06-22T02:11:02Z</time>
      </trkpt>
      <trkpt lat="48.00047" lon="6.94532">
        <ele>970</ele>
        <time>2014-06-22T02:11:09Z</time>
      </trkpt>
      <trkpt lat="48.00038" lon="6.94553">
        <ele>970</ele>
        <time>2014-06-22T02:11:21Z</time>
      </trkpt>
      <trkpt lat="48.00029" lon="6.94574">
        <ele>970</ele>
        <time>2014-06-22T02:11:32Z</time>
      </trkpt>
      <trkpt lat="48.00027" lon="6.94579">
        <ele>970</ele>
        <time>2014-06-22T02:11:34Z</time>
      </trkpt>
      <trkpt lat="48.00026" lon="6.94584">
        <ele>975</ele>
        <time>2014-06-22T02:11:37Z</time>
      </trkpt>
      <trkpt lat="48.00019" lon="6.94594">
        <ele>975</ele>
        <time>2014-06-22T02:11:47Z</time>
      </trkpt>
      <trkpt lat="48.00018" lon="6.94599">
        <ele>975</ele>
        <time>2014-06-22T02:11:59Z</time>
      </trkpt>
      <trkpt lat="48.0002" lon="6.94603">
        <ele>976</ele>
        <time>2014-06-22T02:12:30Z</time>
      </trkpt>
      <trkpt lat="48.00023" lon="6.94603">
        <ele>976</ele>
        <time>2014-06-22T02:12:38Z</time>
      </trkpt>
      <trkpt lat="48.0002" lon="6.94602">
        <ele>976</ele>
        <time>2014-06-22T02:12:50Z</time>
      </trkpt>
      <trkpt lat="48.00021" lon="6.94607">
        <ele>976</ele>
        <time>2014-06-22T02:12:58Z</time>
      </trkpt>
      <trkpt lat="48.00018" lon="6.94609">
        <ele>976</ele>
        <time>2014-06-22T02:13:28Z</time>
      </trkpt>
      <trkpt lat="48.00014" lon="6.9461">
        <ele>976</ele>
        <time>2014-06-22T02:13:31Z</time>
      </trkpt>
      <trkpt lat="48.00003" lon="6.94619">
        <ele>977</ele>
        <time>2014-06-22T02:13:43Z</time>
      </trkpt>
      <trkpt lat="48" lon="6.94623">
        <ele>977</ele>
        <time>2014-06-22T02:13:46Z</time>
      </trkpt>
      <trkpt lat="47.99989" lon="6.94639">
        <ele>970</ele>
        <time>2014-06-22T02:13:58Z</time>
      </trkpt>
      <trkpt lat="47.99978" lon="6.94654">
        <ele>970</ele>
        <time>2014-06-22T02:14:08Z</time>
      </trkpt>
      <trkpt lat="47.99981" lon="6.94656">
        <ele>971</ele>
        <time>2014-06-22T02:14:13Z</time>
      </trkpt>
      <trkpt lat="47.99982" lon="6.94661">
        <ele>971</ele>
        <time>2014-06-22T02:14:17Z</time>
      </trkpt>
      <trkpt lat="47.99978" lon="6.94674">
        <ele>971</ele>
        <time>2014-06-22T02:14:28Z</time>
      </trkpt>
      <trkpt lat="47.99979" lon="6.94679">
        <ele>971</ele>
        <time>2014-06-22T02:14:31Z</time>
      </trkpt>
      <trkpt lat="47.99979" lon="6.94703">
        <ele>971</ele>
        <time>2014-06-22T02:14:43Z</time>
      </trkpt>
      <trkpt lat="47.9998" lon="6.94722">
        <ele>973</ele>
        <time>2014-06-22T02:14:54Z</time>
      </trkpt>
      <trkpt lat="47.99977" lon="6.94726">
        <ele>973</ele>
        <time>2014-06-22T02:14:56Z</time>
      </trkpt>
      <trkpt lat="47.99972" lon="6.94731">
        <ele>972</ele>
        <time>2014-06-22T02:15:00Z</time>
      </trkpt>
      <trkpt lat="47.9997" lon="6.94751">
        <ele>977</ele>
        <time>2014-06-22T02:15:11Z</time>
      </trkpt>
      <trkpt lat="47.99972" lon="6.94755">
        <ele>978</ele>
        <time>2014-06-22T02:15:13Z</time>
      </trkpt>
      <trkpt lat="47.99974" lon="6.94759">
        <ele>978</ele>
        <time>2014-06-22T02:15:16Z</time>
      </trkpt>
      <trkpt lat="47.9997" lon="6.94763">
        <ele>977</ele>
        <time>2014-06-22T02:15:26Z</time>
      </trkpt>
      <trkpt lat="47.99968" lon="6.94765">
        <ele>976</ele>
        <time>2014-06-22T02:15:28Z</time>
      </trkpt>
      <trkpt lat="47.99968" lon="6.9477">
        <ele>976</ele>
        <time>2014-06-22T02:15:30Z</time>
      </trkpt>
      <trkpt lat="47.99973" lon="6.94795">
        <ele>979</ele>
        <time>2014-06-22T02:15:40Z</time>
      </trkpt>
      <trkpt lat="47.99967" lon="6.94808">
        <ele>978</ele>
        <time>2014-06-22T02:15:45Z</time>
      </trkpt>
      <trkpt lat="47.99968" lon="6.9482">
        <ele>980</ele>
        <time>2014-06-22T02:15:57Z</time>
      </trkpt>
      <trkpt lat="47.99967" lon="6.94829">
        <ele>980</ele>
        <time>2014-06-22T02:16:08Z</time>
      </trkpt>
      <trkpt lat="47.99961" lon="6.94847">
        <ele>986</ele>
        <time>2014-06-22T02:16:18Z</time>
      </trkpt>
      <trkpt lat="47.99962" lon="6.94852">
        <ele>986</ele>
        <time>2014-06-22T02:16:19Z</time>
      </trkpt>
      <trkpt lat="47.99966" lon="6.94883">
        <ele>990</ele>
        <time>2014-06-22T02:16:27Z</time>
      </trkpt>
      <trkpt lat="47.99966" lon="6.94889">
        <ele>990</ele>
        <time>2014-06-22T02:16:30Z</time>
      </trkpt>
      <trkpt lat="47.99961" lon="6.94899">
        <ele>990</ele>
        <time>2014-06-22T02:16:41Z</time>
      </trkpt>
      <trkpt lat="47.99958" lon="6.94917">
        <ele>998</ele>
        <time>2014-06-22T02:16:52Z</time>
      </trkpt>
      <trkpt lat="47.99959" lon="6.94929">
        <ele>999</ele>
        <time>2014-06-22T02:16:59Z</time>
      </trkpt>
      <trkpt lat="47.99955" lon="6.94947">
        <ele>999</ele>
        <time>2014-06-22T02:17:11Z</time>
      </trkpt>
      <trkpt lat="47.99959" lon="6.94961">
        <ele>1001</ele>
        <time>2014-06-22T02:17:21Z</time>
      </trkpt>
      <trkpt lat="47.99962" lon="6.94961">
        <ele>1002</ele>
        <time>2014-06-22T02:17:24Z</time>
      </trkpt>
      <trkpt lat="47.99965" lon="6.94962">
        <ele>1003</ele>
        <time>2014-06-22T02:18:19Z</time>
      </trkpt>
      <trkpt lat="47.99969" lon="6.94962">
        <ele>1004</ele>
        <time>2014-06-22T02:18:24Z</time>
      </trkpt>
      <trkpt lat="47.9997" lon="6.94958">
        <ele>1003</ele>
        <time>2014-06-22T02:18:26Z</time>
      </trkpt>
      <trkpt lat="47.99972" lon="6.94939">
        <ele>1003</ele>
        <time>2014-06-22T02:18:39Z</time>
      </trkpt>
      <trkpt lat="47.99975" lon="6.94922">
        <ele>1005</ele>
        <time>2014-06-22T02:18:49Z</time>
      </trkpt>
      <trkpt lat="47.99975" lon="6.94914">
        <ele>997</ele>
        <time>2014-06-22T02:18:51Z</time>
      </trkpt>
      <trkpt lat="47.99979" lon="6.94904">
        <ele>998</ele>
        <time>2014-06-22T02:18:54Z</time>
      </trkpt>
      <trkpt lat="47.9998" lon="6.94896">
        <ele>996</ele>
        <time>2014-06-22T02:18:56Z</time>
      </trkpt>
      <trkpt lat="47.9998" lon="6.94891">
        <ele>995</ele>
        <time>2014-06-22T02:18:58Z</time>
      </trkpt>
      <trkpt lat="47.99983" lon="6.9489">
        <ele>996</ele>
        <time>2014-06-22T02:19:00Z</time>
      </trkpt>
      <trkpt lat="47.99991" lon="6.94903">
        <ele>1003</ele>
        <time>2014-06-22T02:19:11Z</time>
      </trkpt>
      <trkpt lat="47.99993" lon="6.94918">
        <ele>1012</ele>
        <time>2014-06-22T02:19:23Z</time>
      </trkpt>
      <trkpt lat="47.99995" lon="6.94925">
        <ele>1012</ele>
        <time>2014-06-22T02:19:31Z</time>
      </trkpt>
      <trkpt lat="48.00003" lon="6.94938">
        <ele>1027</ele>
        <time>2014-06-22T02:19:42Z</time>
      </trkpt>
      <trkpt lat="48.00005" lon="6.94939">
        <ele>1027</ele>
        <time>2014-06-22T02:19:45Z</time>
      </trkpt>
      <trkpt lat="48.00012" lon="6.9495">
        <ele>1030</ele>
        <time>2014-06-22T02:19:56Z</time>
      </trkpt>
      <trkpt lat="48.00009" lon="6.94955">
        <ele>1030</ele>
        <time>2014-06-22T02:19:58Z</time>
      </trkpt>
      <trkpt lat="48.00007" lon="6.9498">
        <ele>1031</ele>
        <time>2014-06-22T02:20:10Z</time>
      </trkpt>
      <trkpt lat="48.00005" lon="6.94993">
        <ele>1029</ele>
        <time>2014-06-22T02:20:21Z</time>
      </trkpt>
      <trkpt lat="48.00005" lon="6.94999">
        <ele>1028</ele>
        <time>2014-06-22T02:20:23Z</time>
      </trkpt>
      <trkpt lat="48.00007" lon="6.95002">
        <ele>1031</ele>
        <time>2014-06-22T02:20:26Z</time>
      </trkpt>
      <trkpt lat="48.00003" lon="6.95011">
        <ele>1032</ele>
        <time>2014-06-22T02:20:31Z</time>
      </trkpt>
      <trkpt lat="47.99988" lon="6.95025">
        <ele>1016</ele>
        <time>2014-06-22T02:20:40Z</time>
      </trkpt>
      <trkpt lat="47.99991" lon="6.9504">
        <ele>1016</ele>
        <time>2014-06-22T02:20:50Z</time>
      </trkpt>
      <trkpt lat="47.99988" lon="6.95051">
        <ele>1016</ele>
        <time>2014-06-22T02:21:00Z</time>
      </trkpt>
      <trkpt lat="47.99991" lon="6.95058">
        <ele>1018</ele>
        <time>2014-06-22T02:21:03Z</time>
      </trkpt>
      <trkpt lat="47.99996" lon="6.95072">
        <ele>1023</ele>
        <time>2014-06-22T02:21:09Z</time>
      </trkpt>
      <trkpt lat="47.99994" lon="6.95082">
        <ele>1027</ele>
        <time>2014-06-22T02:21:20Z</time>
      </trkpt>
      <trkpt lat="47.99993" lon="6.95098">
        <ele>1024</ele>
        <time>2014-06-22T02:21:32Z</time>
      </trkpt>
      <trkpt lat="47.99991" lon="6.95116">
        <ele>1020</ele>
        <time>2014-06-22T02:21:42Z</time>
      </trkpt>
      <trkpt lat="47.99997" lon="6.95133">
        <ele>1022</ele>
        <time>2014-06-22T02:21:53Z</time>
      </trkpt>
      <trkpt lat="48" lon="6.95138">
        <ele>1023</ele>
        <time>2014-06-22T02:21:55Z</time>
      </trkpt>
      <trkpt lat="48" lon="6.95143">
        <ele>1044</ele>
        <time>2014-06-22T02:21:58Z</time>
      </trkpt>
      <trkpt lat="47.99998" lon="6.95164">
        <ele>1034</ele>
        <time>2014-06-22T02:22:09Z</time>
      </trkpt>
      <trkpt lat="47.99999" lon="6.95176">
        <ele>1032</ele>
        <time>2014-06-22T02:22:20Z</time>
      </trkpt>
      <trkpt lat="48" lon="6.95181">
        <ele>1047</ele>
        <time>2014-06-22T02:22:22Z</time>
      </trkpt>
      <trkpt lat="47.99999" lon="6.95201">
        <ele>1027</ele>
        <time>2014-06-22T02:22:28Z</time>
      </trkpt>
      <trkpt lat="48" lon="6.95217">
        <ele>1028</ele>
        <time>2014-06-22T02:22:38Z</time>
      </trkpt>
      <trkpt lat="48.00001" lon="6.95221">
        <ele>1054</ele>
        <time>2014-06-22T02:22:41Z</time>
      </trkpt>
      <trkpt lat="48" lon="6.95235">
        <ele>1034</ele>
        <time>2014-06-22T02:22:51Z</time>
      </trkpt>
      <trkpt lat="48.00004" lon="6.95262">
        <ele>1054</ele>
        <time>2014-06-22T02:23:04Z</time>
      </trkpt>
      <trkpt lat="48.00002" lon="6.95264">
        <ele>1055</ele>
        <time>2014-06-22T02:23:10Z</time>
      </trkpt>
      <trkpt lat="48" lon="6.95268">
        <ele>1035</ele>
        <time>2014-06-22T02:23:13Z</time>
      </trkpt>
      <trkpt lat="48" lon="6.95273">
        <ele>1057</ele>
        <time>2014-06-22T02:23:18Z</time>
      </trkpt>
      <trkpt lat="48.00003" lon="6.9528">
        <ele>1059</ele>
        <time>2014-06-22T02:23:30Z</time>
      </trkpt>
      <trkpt lat="48.00003" lon="6.95304">
        <ele>1059</ele>
        <time>2014-06-22T02:23:42Z</time>
      </trkpt>
      <trkpt lat="48.00005" lon="6.9531">
        <ele>1058</ele>
        <time>2014-06-22T02:23:44Z</time>
      </trkpt>
      <trkpt lat="48.00007" lon="6.95312">
        <ele>1058</ele>
        <time>2014-06-22T02:23:46Z</time>
      </trkpt>
      <trkpt lat="48.0001" lon="6.95316">
        <ele>1057</ele>
        <time>2014-06-22T02:23:49Z</time>
      </trkpt>
      <trkpt lat="48.00006" lon="6.95328">
        <ele>1053</ele>
        <time>2014-06-22T02:23:53Z</time>
      </trkpt>
      <trkpt lat="48.00009" lon="6.95353">
        <ele>1059</ele>
        <time>2014-06-22T02:24:06Z</time>
      </trkpt>
      <trkpt lat="48.00004" lon="6.95366">
        <ele>1061</ele>
        <time>2014-06-22T02:24:23Z</time>
      </trkpt>
      <trkpt lat="48.00003" lon="6.95374">
        <ele>1061</ele>
        <time>2014-06-22T02:24:25Z</time>
      </trkpt>
      <trkpt lat="48.00003" lon="6.9539">
        <ele>1061</ele>
        <time>2014-06-22T02:24:30Z</time>
      </trkpt>
      <trkpt lat="48.00008" lon="6.95408">
        <ele>1058</ele>
        <time>2014-06-22T02:24:42Z</time>
      </trkpt>
      <trkpt lat="48.00009" lon="6.95413">
        <ele>1057</ele>
        <time>2014-06-22T02:24:45Z</time>
      </trkpt>
      <trkpt lat="48.00012" lon="6.95426">
        <ele>1059</ele>
        <time>2014-06-22T02:24:55Z</time>
      </trkpt>
      <trkpt lat="48.00013" lon="6.95449">
        <ele>1062</ele>
        <time>2014-06-22T02:25:06Z</time>
      </trkpt>
      <trkpt lat="48.00012" lon="6.95464">
        <ele>1062</ele>
        <time>2014-06-22T02:25:14Z</time>
      </trkpt>
      <trkpt lat="48.00008" lon="6.95479">
        <ele>1059</ele>
        <time>2014-06-22T02:25:28Z</time>
      </trkpt>
      <trkpt lat="48.00007" lon="6.95475">
        <ele>1060</ele>
        <time>2014-06-22T02:25:57Z</time>
      </trkpt>
      <trkpt lat="48.00013" lon="6.95479">
        <ele>1060</ele>
        <time>2014-06-22T02:26:07Z</time>
      </trkpt>
      <trkpt lat="48.00012" lon="6.95483">
        <ele>1059</ele>
        <time>2014-06-22T02:26:21Z</time>
      </trkpt>
      <trkpt lat="48.00015" lon="6.95484">
        <ele>1060</ele>
        <time>2014-06-22T02:26:24Z</time>
      </trkpt>
      <trkpt lat="48.00019" lon="6.95489">
        <ele>1060</ele>
        <time>2014-06-22T02:26:26Z</time>
      </trkpt>
      <trkpt lat="48.00028" lon="6.95528">
        <ele>1063</ele>
        <time>2014-06-22T02:26:37Z</time>
      </trkpt>
      <trkpt lat="48.0003" lon="6.95532">
        <ele>1063</ele>
        <time>2014-06-22T02:26:38Z</time>
      </trkpt>
      <trkpt lat="48.00033" lon="6.95538">
        <ele>1064</ele>
        <time>2014-06-22T02:26:40Z</time>
      </trkpt>
      <trkpt lat="48.00037" lon="6.95546">
        <ele>1065</ele>
        <time>2014-06-22T02:26:46Z</time>
      </trkpt>
      <trkpt lat="48.00041" lon="6.95553">
        <ele>1066</ele>
        <time>2014-06-22T02:26:51Z</time>
      </trkpt>
      <trkpt lat="48.00043" lon="6.95557">
        <ele>1066</ele>
        <time>2014-06-22T02:26:53Z</time>
      </trkpt>
      <trkpt lat="48.00045" lon="6.95574">
        <ele>1067</ele>
        <time>2014-06-22T02:27:07Z</time>
      </trkpt>
      <trkpt lat="48.00047" lon="6.95577">
        <ele>1068</ele>
        <time>2014-06-22T02:27:23Z</time>
      </trkpt>
      <trkpt lat="48.00049" lon="6.95587">
        <ele>1072</ele>
        <time>2014-06-22T02:27:40Z</time>
      </trkpt>
      <trkpt lat="48.00064" lon="6.95625">
        <ele>1076</ele>
        <time>2014-06-22T02:27:52Z</time>
      </trkpt>
      <trkpt lat="48.00063" lon="6.95635">
        <ele>1077</ele>
        <time>2014-06-22T02:28:05Z</time>
      </trkpt>
      <trkpt lat="48.00055" lon="6.95659">
        <ele>1078</ele>
        <time>2014-06-22T02:28:09Z</time>
      </trkpt>
      <trkpt lat="48.00053" lon="6.95664">
        <ele>1077</ele>
        <time>2014-06-22T02:28:10Z</time>
      </trkpt>
      <trkpt lat="48.00032" lon="6.95676">
        <ele>1080</ele>
        <time>2014-06-22T02:28:11Z</time>
      </trkpt>
      <trkpt lat="48.00034" lon="6.95682">
        <ele>1081</ele>
        <time>2014-06-22T02:28:13Z</time>
      </trkpt>
      <trkpt lat="48.00034" lon="6.95688">
        <ele>1082</ele>
        <time>2014-06-22T02:28:16Z</time>
      </trkpt>
      <trkpt lat="48.00045" lon="6.95695">
        <ele>1086</ele>
        <time>2014-06-22T02:28:26Z</time>
      </trkpt>
      <trkpt lat="48.00041" lon="6.95706">
        <ele>1086</ele>
        <time>2014-06-22T02:28:36Z</time>
      </trkpt>
      <trkpt lat="48.00045" lon="6.95706">
        <ele>1087</ele>
        <time>2014-06-22T02:28:37Z</time>
      </trkpt>
      <trkpt lat="48.00042" lon="6.95719">
        <ele>1088</ele>
        <time>2014-06-22T02:28:44Z</time>
      </trkpt>
      <trkpt lat="48.00041" lon="6.95724">
        <ele>1089</ele>
        <time>2014-06-22T02:28:45Z</time>
      </trkpt>
      <trkpt lat="48.00039" lon="6.95726">
        <ele>1088</ele>
        <time>2014-06-22T02:28:46Z</time>
      </trkpt>
      <trkpt lat="48.00037" lon="6.9573">
        <ele>1088</ele>
        <time>2014-06-22T02:28:47Z</time>
      </trkpt>
      <trkpt lat="48.00027" lon="6.9575">
        <ele>1086</ele>
        <time>2014-06-22T02:28:57Z</time>
      </trkpt>
      <trkpt lat="48.00026" lon="6.95758">
        <ele>1100</ele>
        <time>2014-06-22T02:29:12Z</time>
      </trkpt>
      <trkpt lat="48.0002" lon="6.95754">
        <ele>1096</ele>
        <time>2014-06-22T02:29:22Z</time>
      </trkpt>
      <trkpt lat="48.00018" lon="6.95753">
        <ele>1095</ele>
        <time>2014-06-22T02:29:25Z</time>
      </trkpt>
      <trkpt lat="48.00018" lon="6.95759">
        <ele>1096</ele>
        <time>2014-06-22T02:29:27Z</time>
      </trkpt>
      <trkpt lat="48.0002" lon="6.95767">
        <ele>1099</ele>
        <time>2014-06-22T02:29:28Z</time>
      </trkpt>
      <trkpt lat="48.00022" lon="6.95775">
        <ele>1102</ele>
        <time>2014-06-22T02:29:29Z</time>
      </trkpt>
      <trkpt lat="48.00018" lon="6.95781">
        <ele>1103</ele>
        <time>2014-06-22T02:29:32Z</time>
      </trkpt>
      <trkpt lat="48.00015" lon="6.95783">
        <ele>1103</ele>
        <time>2014-06-22T02:29:34Z</time>
      </trkpt>
      <trkpt lat="48.00003" lon="6.95802">
        <ele>1106</ele>
        <time>2014-06-22T02:29:44Z</time>
      </trkpt>
      <trkpt lat="48.00001" lon="6.95806">
        <ele>1107</ele>
        <time>2014-06-22T02:29:45Z</time>
      </trkpt>
      <trkpt lat="47.99998" lon="6.95809">
        <ele>1090</ele>
        <time>2014-06-22T02:29:46Z</time>
      </trkpt>
      <trkpt lat="47.99996" lon="6.95811">
        <ele>1091</ele>
        <time>2014-06-22T02:29:47Z</time>
      </trkpt>
      <trkpt lat="47.99993" lon="6.95812">
        <ele>1090</ele>
        <time>2014-06-22T02:29:48Z</time>
      </trkpt>
      <trkpt lat="47.99978" lon="6.95822">
        <ele>1089</ele>
        <time>2014-06-22T02:29:58Z</time>
      </trkpt>
      <trkpt lat="47.99974" lon="6.95829">
        <ele>1089</ele>
        <time>2014-06-22T02:30:00Z</time>
      </trkpt>
      <trkpt lat="47.99973" lon="6.95834">
        <ele>1106</ele>
        <time>2014-06-22T02:30:01Z</time>
      </trkpt>
      <trkpt lat="47.99974" lon="6.95839">
        <ele>1106</ele>
        <time>2014-06-22T02:30:04Z</time>
      </trkpt>
      <trkpt lat="47.9997" lon="6.95843">
        <ele>1106</ele>
        <time>2014-06-22T02:30:20Z</time>
      </trkpt>
      <trkpt lat="47.99966" lon="6.9585">
        <ele>1106</ele>
        <time>2014-06-22T02:30:35Z</time>
      </trkpt>
      <trkpt lat="47.99963" lon="6.95852">
        <ele>1105</ele>
        <time>2014-06-22T02:30:43Z</time>
      </trkpt>
      <trkpt lat="47.9996" lon="6.95852">
        <ele>1105</ele>
        <time>2014-06-22T02:30:46Z</time>
      </trkpt>
      <trkpt lat="47.99948" lon="6.95865">
        <ele>1105</ele>
        <time>2014-06-22T02:30:50Z</time>
      </trkpt>
      <trkpt lat="47.99944" lon="6.95869">
        <ele>1105</ele>
        <time>2014-06-22T02:30:51Z</time>
      </trkpt>
      <trkpt lat="47.99941" lon="6.95872">
        <ele>1105</ele>
        <time>2014-06-22T02:30:52Z</time>
      </trkpt>
      <trkpt lat="47.99936" lon="6.95879">
        <ele>1106</ele>
        <time>2014-06-22T02:30:54Z</time>
      </trkpt>
      <trkpt lat="47.99933" lon="6.95883">
        <ele>1106</ele>
        <time>2014-06-22T02:30:56Z</time>
      </trkpt>
      <trkpt lat="47.99926" lon="6.95897">
        <ele>1108</ele>
        <time>2014-06-22T02:31:14Z</time>
      </trkpt>
      <trkpt lat="47.99917" lon="6.95903">
        <ele>1109</ele>
        <time>2014-06-22T02:31:24Z</time>
      </trkpt>
      <trkpt lat="47.99906" lon="6.95905">
        <ele>1094</ele>
        <time>2014-06-22T02:31:28Z</time>
      </trkpt>
      <trkpt lat="47.99903" lon="6.95908">
        <ele>1094</ele>
        <time>2014-06-22T02:31:30Z</time>
      </trkpt>
      <trkpt lat="47.99902" lon="6.95924">
        <ele>1107</ele>
        <time>2014-06-22T02:31:41Z</time>
      </trkpt>
      <trkpt lat="47.99901" lon="6.9593">
        <ele>1107</ele>
        <time>2014-06-22T02:31:43Z</time>
      </trkpt>
      <trkpt lat="47.9989" lon="6.95943">
        <ele>1105</ele>
        <time>2014-06-22T02:31:57Z</time>
      </trkpt>
      <trkpt lat="47.99887" lon="6.95947">
        <ele>1105</ele>
        <time>2014-06-22T02:31:59Z</time>
      </trkpt>
      <trkpt lat="47.99886" lon="6.95951">
        <ele>1105</ele>
        <time>2014-06-22T02:32:03Z</time>
      </trkpt>
      <trkpt lat="47.99884" lon="6.95954">
        <ele>1105</ele>
        <time>2014-06-22T02:32:08Z</time>
      </trkpt>
      <trkpt lat="47.99879" lon="6.95959">
        <ele>1105</ele>
        <time>2014-06-22T02:32:29Z</time>
      </trkpt>
      <trkpt lat="47.99877" lon="6.95981">
        <ele>1107</ele>
        <time>2014-06-22T02:32:39Z</time>
      </trkpt>
      <trkpt lat="47.99865" lon="6.96004">
        <ele>1117</ele>
        <time>2014-06-22T02:32:43Z</time>
      </trkpt>
      <trkpt lat="47.99861" lon="6.96009">
        <ele>1116</ele>
        <time>2014-06-22T02:32:44Z</time>
      </trkpt>
      <trkpt lat="47.99857" lon="6.96012">
        <ele>1114</ele>
        <time>2014-06-22T02:32:45Z</time>
      </trkpt>
      <trkpt lat="47.99855" lon="6.96016">
        <ele>1114</ele>
        <time>2014-06-22T02:32:46Z</time>
      </trkpt>
      <trkpt lat="47.99852" lon="6.96019">
        <ele>1114</ele>
        <time>2014-06-22T02:32:47Z</time>
      </trkpt>
      <trkpt lat="47.99836" lon="6.9604">
        <ele>1116</ele>
        <time>2014-06-22T02:32:59Z</time>
      </trkpt>
      <trkpt lat="47.99836" lon="6.96044">
        <ele>1117</ele>
        <time>2014-06-22T02:33:07Z</time>
      </trkpt>
      <trkpt lat="47.99834" lon="6.96046">
        <ele>1117</ele>
        <time>2014-06-22T02:33:10Z</time>
      </trkpt>
      <trkpt lat="47.99825" lon="6.96053">
        <ele>1092</ele>
        <time>2014-06-22T02:33:21Z</time>
      </trkpt>
      <trkpt lat="47.99824" lon="6.96058">
        <ele>1093</ele>
        <time>2014-06-22T02:33:27Z</time>
      </trkpt>
      <trkpt lat="47.99821" lon="6.96064">
        <ele>1095</ele>
        <time>2014-06-22T02:33:38Z</time>
      </trkpt>
      <trkpt lat="47.99819" lon="6.96072">
        <ele>1097</ele>
        <time>2014-06-22T02:33:40Z</time>
      </trkpt>
      <trkpt lat="47.99799" lon="6.96112">
        <ele>1094</ele>
        <time>2014-06-22T02:33:50Z</time>
      </trkpt>
      <trkpt lat="47.9979" lon="6.96117">
        <ele>1092</ele>
        <time>2014-06-22T02:33:55Z</time>
      </trkpt>
      <trkpt lat="47.9979" lon="6.96113">
        <ele>1091</ele>
        <time>2014-06-22T02:34:04Z</time>
      </trkpt>
      <trkpt lat="47.99788" lon="6.96109">
        <ele>1091</ele>
        <time>2014-06-22T02:34:08Z</time>
      </trkpt>
      <trkpt lat="47.99787" lon="6.96105">
        <ele>1090</ele>
        <time>2014-06-22T02:34:21Z</time>
      </trkpt>
      <trkpt lat="47.9979" lon="6.96114">
        <ele>1091</ele>
        <time>2014-06-22T02:34:31Z</time>
      </trkpt>
      <trkpt lat="47.9979" lon="6.96119">
        <ele>1092</ele>
        <time>2014-06-22T02:34:34Z</time>
      </trkpt>
      <trkpt lat="47.99789" lon="6.9615">
        <ele>1092</ele>
        <time>2014-06-22T02:34:44Z</time>
      </trkpt>
      <trkpt lat="47.99786" lon="6.96157">
        <ele>1091</ele>
        <time>2014-06-22T02:34:55Z</time>
      </trkpt>
      <trkpt lat="47.99787" lon="6.96162">
        <ele>1091</ele>
        <time>2014-06-22T02:34:58Z</time>
      </trkpt>
      <trkpt lat="47.99784" lon="6.96172">
        <ele>1089</ele>
        <time>2014-06-22T02:35:04Z</time>
      </trkpt>
      <trkpt lat="47.99773" lon="6.96203">
        <ele>1087</ele>
        <time>2014-06-22T02:35:15Z</time>
      </trkpt>
      <trkpt lat="47.99771" lon="6.96208">
        <ele>1087</ele>
        <time>2014-06-22T02:35:27Z</time>
      </trkpt>
      <trkpt lat="47.9977" lon="6.9623">
        <ele>1085</ele>
        <time>2014-06-22T02:35:37Z</time>
      </trkpt>
      <trkpt lat="47.99774" lon="6.96249">
        <ele>1085</ele>
        <time>2014-06-22T02:35:45Z</time>
      </trkpt>
      <trkpt lat="47.99776" lon="6.96253">
        <ele>1074</ele>
        <time>2014-06-22T02:35:47Z</time>
      </trkpt>
      <trkpt lat="47.99779" lon="6.96259">
        <ele>1073</ele>
        <time>2014-06-22T02:35:50Z</time>
      </trkpt>
      <trkpt lat="47.99797" lon="6.96263">
        <ele>1075</ele>
        <time>2014-06-22T02:36:02Z</time>
      </trkpt>
      <trkpt lat="47.998" lon="6.96262">
        <ele>1076</ele>
        <time>2014-06-22T02:36:05Z</time>
      </trkpt>
      <trkpt lat="47.99803" lon="6.96259">
        <ele>1077</ele>
        <time>2014-06-22T02:36:08Z</time>
      </trkpt>
      <trkpt lat="47.9982" lon="6.96275">
        <ele>1078</ele>
        <time>2014-06-22T02:36:18Z</time>
      </trkpt>
      <trkpt lat="47.99825" lon="6.96287">
        <ele>1074</ele>
        <time>2014-06-22T02:36:28Z</time>
      </trkpt>
      <trkpt lat="47.99834" lon="6.96288">
        <ele>1085</ele>
        <time>2014-06-22T02:36:38Z</time>
      </trkpt>
      <trkpt lat="47.99837" lon="6.96289">
        <ele>1085</ele>
        <time>2014-06-22T02:36:41Z</time>
      </trkpt>
      <trkpt lat="47.99854" lon="6.96305">
        <ele>1082</ele>
        <time>2014-06-22T02:36:53Z</time>
      </trkpt>
      <trkpt lat="47.99864" lon="6.96306">
        <ele>1083</ele>
        <time>2014-06-22T02:36:58Z</time>
      </trkpt>
      <trkpt lat="47.99868" lon="6.96308">
        <ele>1083</ele>
        <time>2014-06-22T02:37:00Z</time>
      </trkpt>
      <trkpt lat="47.9987" lon="6.96312">
        <ele>1083</ele>
        <time>2014-06-22T02:37:02Z</time>
      </trkpt>
      <trkpt lat="47.99877" lon="6.96319">
        <ele>1082</ele>
        <time>2014-06-22T02:37:09Z</time>
      </trkpt>
      <trkpt lat="47.9988" lon="6.96322">
        <ele>1082</ele>
        <time>2014-06-22T02:37:11Z</time>
      </trkpt>
      <trkpt lat="47.99883" lon="6.96324">
        <ele>1082</ele>
        <time>2014-06-22T02:37:13Z</time>
      </trkpt>
      <trkpt lat="47.99886" lon="6.96326">
        <ele>1082</ele>
        <time>2014-06-22T02:37:25Z</time>
      </trkpt>
      <trkpt lat="47.99889" lon="6.96328">
        <ele>1082</ele>
        <time>2014-06-22T02:37:35Z</time>
      </trkpt>
      <trkpt lat="47.9991" lon="6.96339">
        <ele>1071</ele>
        <time>2014-06-22T02:37:45Z</time>
      </trkpt>
      <trkpt lat="47.99914" lon="6.9634">
        <ele>1071</ele>
        <time>2014-06-22T02:37:47Z</time>
      </trkpt>
      <trkpt lat="47.99917" lon="6.96342">
        <ele>1070</ele>
        <time>2014-06-22T02:37:48Z</time>
      </trkpt>
      <trkpt lat="47.99919" lon="6.96344">
        <ele>1074</ele>
        <time>2014-06-22T02:37:49Z</time>
      </trkpt>
      <trkpt lat="47.99923" lon="6.96346">
        <ele>1074</ele>
        <time>2014-06-22T02:37:50Z</time>
      </trkpt>
      <trkpt lat="47.99947" lon="6.96363">
        <ele>1070</ele>
        <time>2014-06-22T02:38:01Z</time>
      </trkpt>
      <trkpt lat="47.99953" lon="6.96366">
        <ele>1070</ele>
        <time>2014-06-22T02:38:14Z</time>
      </trkpt>
      <trkpt lat="47.99955" lon="6.96369">
        <ele>1069</ele>
        <time>2014-06-22T02:38:18Z</time>
      </trkpt>
      <trkpt lat="47.99958" lon="6.96372">
        <ele>1069</ele>
        <time>2014-06-22T02:38:22Z</time>
      </trkpt>
      <trkpt lat="47.9996" lon="6.96374">
        <ele>1069</ele>
        <time>2014-06-22T02:38:24Z</time>
      </trkpt>
      <trkpt lat="47.99975" lon="6.96394">
        <ele>1066</ele>
        <time>2014-06-22T02:38:34Z</time>
      </trkpt>
      <trkpt lat="47.99989" lon="6.96402">
        <ele>1064</ele>
        <time>2014-06-22T02:38:39Z</time>
      </trkpt>
      <trkpt lat="48" lon="6.96413">
        <ele>1062</ele>
        <time>2014-06-22T02:38:45Z</time>
      </trkpt>
      <trkpt lat="48.00012" lon="6.96433">
        <ele>1053</ele>
        <time>2014-06-22T02:38:56Z</time>
      </trkpt>
      <trkpt lat="48.00015" lon="6.96432">
        <ele>1053</ele>
        <time>2014-06-22T02:38:58Z</time>
      </trkpt>
      <trkpt lat="48.00019" lon="6.9643">
        <ele>1053</ele>
        <time>2014-06-22T02:39:00Z</time>
      </trkpt>
      <trkpt lat="48.00037" lon="6.96427">
        <ele>1053</ele>
        <time>2014-06-22T02:39:11Z</time>
      </trkpt>
      <trkpt lat="48.00053" lon="6.96427">
        <ele>1055</ele>
        <time>2014-06-22T02:39:21Z</time>
      </trkpt>
      <trkpt lat="48.00056" lon="6.96429">
        <ele>1055</ele>
        <time>2014-06-22T02:39:23Z</time>
      </trkpt>
      <trkpt lat="48.00071" lon="6.9644">
        <ele>1055</ele>
        <time>2014-06-22T02:39:32Z</time>
      </trkpt>
      <trkpt lat="48.00087" lon="6.96427">
        <ele>1065</ele>
        <time>2014-06-22T02:39:42Z</time>
      </trkpt>
      <trkpt lat="48.00091" lon="6.96428">
        <ele>1064</ele>
        <time>2014-06-22T02:39:45Z</time>
      </trkpt>
      <trkpt lat="48.00105" lon="6.96427">
        <ele>1063</ele>
        <time>2014-06-22T02:39:55Z</time>
      </trkpt>
      <trkpt lat="48.00109" lon="6.96426">
        <ele>1063</ele>
        <time>2014-06-22T02:39:57Z</time>
      </trkpt>
      <trkpt lat="48.00119" lon="6.96425">
        <ele>1063</ele>
        <time>2014-06-22T02:40:06Z</time>
      </trkpt>
      <trkpt lat="48.00131" lon="6.96424">
        <ele>1063</ele>
        <time>2014-06-22T02:40:17Z</time>
      </trkpt>
      <trkpt lat="48.00137" lon="6.96416">
        <ele>1078</ele>
        <time>2014-06-22T02:40:27Z</time>
      </trkpt>
      <trkpt lat="48.0014" lon="6.96419">
        <ele>1065</ele>
        <time>2014-06-22T02:40:29Z</time>
      </trkpt>
      <trkpt lat="48.00142" lon="6.96421">
        <ele>1065</ele>
        <time>2014-06-22T02:40:30Z</time>
      </trkpt>
      <trkpt lat="48.00151" lon="6.96423">
        <ele>1067</ele>
        <time>2014-06-22T02:40:33Z</time>
      </trkpt>
      <trkpt lat="48.00167" lon="6.9642">
        <ele>1071</ele>
        <time>2014-06-22T02:40:44Z</time>
      </trkpt>
      <trkpt lat="48.00168" lon="6.96424">
        <ele>1069</ele>
        <time>2014-06-22T02:40:54Z</time>
      </trkpt>
      <trkpt lat="48.00171" lon="6.96422">
        <ele>1069</ele>
        <time>2014-06-22T02:40:58Z</time>
      </trkpt>
      <trkpt lat="48.00174" lon="6.96421">
        <ele>1068</ele>
        <time>2014-06-22T02:41:00Z</time>
      </trkpt>
      <trkpt lat="48.00185" lon="6.96423">
        <ele>1065</ele>
        <time>2014-06-22T02:41:10Z</time>
      </trkpt>
      <trkpt lat="48.00201" lon="6.96446">
        <ele>1060</ele>
        <time>2014-06-22T02:41:15Z</time>
      </trkpt>
      <trkpt lat="48.00215" lon="6.96446">
        <ele>1058</ele>
        <time>2014-06-22T02:41:22Z</time>
      </trkpt>
      <trkpt lat="48.00218" lon="6.96444">
        <ele>1058</ele>
        <time>2014-06-22T02:41:24Z</time>
      </trkpt>
      <trkpt lat="48.00226" lon="6.96447">
        <ele>1058</ele>
        <time>2014-06-22T02:41:34Z</time>
      </trkpt>
      <trkpt lat="48.00231" lon="6.96454">
        <ele>1057</ele>
        <time>2014-06-22T02:41:36Z</time>
      </trkpt>
      <trkpt lat="48.00241" lon="6.96461">
        <ele>1057</ele>
        <time>2014-06-22T02:41:45Z</time>
      </trkpt>
      <trkpt lat="48.00255" lon="6.96467">
        <ele>1044</ele>
        <time>2014-06-22T02:41:55Z</time>
      </trkpt>
      <trkpt lat="48.00259" lon="6.96476">
        <ele>1045</ele>
        <time>2014-06-22T02:42:01Z</time>
      </trkpt>
      <trkpt lat="48.00263" lon="6.96481">
        <ele>1045</ele>
        <time>2014-06-22T02:42:03Z</time>
      </trkpt>
      <trkpt lat="48.00264" lon="6.96485">
        <ele>1045</ele>
        <time>2014-06-22T02:42:05Z</time>
      </trkpt>
      <trkpt lat="48.00266" lon="6.96489">
        <ele>1045</ele>
        <time>2014-06-22T02:42:08Z</time>
      </trkpt>
      <trkpt lat="48.00275" lon="6.96493">
        <ele>1043</ele>
        <time>2014-06-22T02:42:18Z</time>
      </trkpt>
      <trkpt lat="48.00291" lon="6.96513">
        <ele>1041</ele>
        <time>2014-06-22T02:42:33Z</time>
      </trkpt>
      <trkpt lat="48.00298" lon="6.96517">
        <ele>1039</ele>
        <time>2014-06-22T02:42:36Z</time>
      </trkpt>
      <trkpt lat="48.003" lon="6.96518">
        <ele>1039</ele>
        <time>2014-06-22T02:42:38Z</time>
      </trkpt>
      <trkpt lat="48.00303" lon="6.96522">
        <ele>1039</ele>
        <time>2014-06-22T02:42:44Z</time>
      </trkpt>
      <trkpt lat="48.00309" lon="6.96537">
        <ele>1038</ele>
        <time>2014-06-22T02:42:58Z</time>
      </trkpt>
      <trkpt lat="48.00317" lon="6.96539">
        <ele>1038</ele>
        <time>2014-06-22T02:43:01Z</time>
      </trkpt>
      <trkpt lat="48.00329" lon="6.96543">
        <ele>1037</ele>
        <time>2014-06-22T02:43:09Z</time>
      </trkpt>
      <trkpt lat="48.00342" lon="6.96544">
        <ele>1023</ele>
        <time>2014-06-22T02:43:19Z</time>
      </trkpt>
      <trkpt lat="48.00344" lon="6.96549">
        <ele>1023</ele>
        <time>2014-06-22T02:43:21Z</time>
      </trkpt>
      <trkpt lat="48.00346" lon="6.96554">
        <ele>1023</ele>
        <time>2014-06-22T02:43:23Z</time>
      </trkpt>
      <trkpt lat="48.00356" lon="6.96567">
        <ele>1024</ele>
        <time>2014-06-22T02:43:29Z</time>
      </trkpt>
      <trkpt lat="48.00372" lon="6.9658">
        <ele>1021</ele>
        <time>2014-06-22T02:43:39Z</time>
      </trkpt>
      <trkpt lat="48.0037" lon="6.96582">
        <ele>1021</ele>
        <time>2014-06-22T02:43:41Z</time>
      </trkpt>
      <trkpt lat="48.00369" lon="6.96587">
        <ele>1025</ele>
        <time>2014-06-22T02:43:48Z</time>
      </trkpt>
      <trkpt lat="48.00363" lon="6.96611">
        <ele>1026</ele>
        <time>2014-06-22T02:43:58Z</time>
      </trkpt>
      <trkpt lat="48.00363" lon="6.96616">
        <ele>1026</ele>
        <time>2014-06-22T02:43:59Z</time>
      </trkpt>
      <trkpt lat="48.00377" lon="6.96651">
        <ele>1024</ele>
        <time>2014-06-22T02:44:09Z</time>
      </trkpt>
      <trkpt lat="48.00377" lon="6.96658">
        <ele>1024</ele>
        <time>2014-06-22T02:44:13Z</time>
      </trkpt>
      <trkpt lat="48.00378" lon="6.96664">
        <ele>1024</ele>
        <time>2014-06-22T02:44:17Z</time>
      </trkpt>
      <trkpt lat="48.00383" lon="6.96675">
        <ele>1024</ele>
        <time>2014-06-22T02:44:30Z</time>
      </trkpt>
      <trkpt lat="48.00381" lon="6.96686">
        <ele>1024</ele>
        <time>2014-06-22T02:44:35Z</time>
      </trkpt>
      <trkpt lat="48.00392" lon="6.96712">
        <ele>1025</ele>
        <time>2014-06-22T02:44:50Z</time>
      </trkpt>
      <trkpt lat="48.00391" lon="6.96713">
        <ele>1024</ele>
        <time>2014-06-22T02:44:55Z</time>
      </trkpt>
      <trkpt lat="48.00387" lon="6.96717">
        <ele>1024</ele>
        <time>2014-06-22T02:46:45Z</time>
      </trkpt>
      <trkpt lat="48.00386" lon="6.96721">
        <ele>1024</ele>
        <time>2014-06-22T02:49:42Z</time>
      </trkpt>
      <trkpt lat="48.00386" lon="6.96726">
        <ele>1025</ele>
        <time>2014-06-22T02:52:09Z</time>
      </trkpt>
      <trkpt lat="48.0039" lon="6.9673">
        <ele>1025</ele>
        <time>2014-06-22T02:52:20Z</time>
      </trkpt>
      <trkpt lat="48.00393" lon="6.9673">
        <ele>1025</ele>
        <time>2014-06-22T02:52:23Z</time>
      </trkpt>
      <trkpt lat="48.00396" lon="6.96734">
        <ele>1026</ele>
        <time>2014-06-22T02:52:25Z</time>
      </trkpt>
      <trkpt lat="48.00399" lon="6.96738">
        <ele>1026</ele>
        <time>2014-06-22T02:52:28Z</time>
      </trkpt>
      <trkpt lat="48.00404" lon="6.96744">
        <ele>1027</ele>
        <time>2014-06-22T02:52:37Z</time>
      </trkpt>
      <trkpt lat="48.00406" lon="6.96748">
        <ele>1028</ele>
        <time>2014-06-22T02:52:39Z</time>
      </trkpt>
      <trkpt lat="48.00409" lon="6.96753">
        <ele>1027</ele>
        <time>2014-06-22T02:52:41Z</time>
      </trkpt>
      <trkpt lat="48.00411" lon="6.96759">
        <ele>1026</ele>
        <time>2014-06-22T02:52:43Z</time>
      </trkpt>
      <trkpt lat="48.00417" lon="6.96775">
        <ele>1035</ele>
        <time>2014-06-22T02:52:58Z</time>
      </trkpt>
      <trkpt lat="48.00421" lon="6.96784">
        <ele>1036</ele>
        <time>2014-06-22T02:53:03Z</time>
      </trkpt>
      <trkpt lat="48.0042" lon="6.96789">
        <ele>1036</ele>
        <time>2014-06-22T02:53:05Z</time>
      </trkpt>
      <trkpt lat="48.0042" lon="6.96799">
        <ele>1036</ele>
        <time>2014-06-22T02:53:19Z</time>
      </trkpt>
      <trkpt lat="48.00435" lon="6.96806">
        <ele>1037</ele>
        <time>2014-06-22T02:53:29Z</time>
      </trkpt>
      <trkpt lat="48.00438" lon="6.96807">
        <ele>1037</ele>
        <time>2014-06-22T02:53:30Z</time>
      </trkpt>
      <trkpt lat="48.00441" lon="6.96808">
        <ele>1038</ele>
        <time>2014-06-22T02:53:32Z</time>
      </trkpt>
      <trkpt lat="48.00452" lon="6.96809">
        <ele>1040</ele>
        <time>2014-06-22T02:53:45Z</time>
      </trkpt>
      <trkpt lat="48.00452" lon="6.96814">
        <ele>1040</ele>
        <time>2014-06-22T02:53:51Z</time>
      </trkpt>
      <trkpt lat="48.00465" lon="6.96828">
        <ele>1043</ele>
        <time>2014-06-22T02:54:02Z</time>
      </trkpt>
      <trkpt lat="48.00468" lon="6.96824">
        <ele>1044</ele>
        <time>2014-06-22T02:54:04Z</time>
      </trkpt>
      <trkpt lat="48.00469" lon="6.9682">
        <ele>1044</ele>
        <time>2014-06-22T02:54:08Z</time>
      </trkpt>
      <trkpt lat="48.00473" lon="6.96818">
        <ele>1045</ele>
        <time>2014-06-22T02:54:11Z</time>
      </trkpt>
      <trkpt lat="48.00477" lon="6.96819">
        <ele>1046</ele>
        <time>2014-06-22T02:54:15Z</time>
      </trkpt>
      <trkpt lat="48.00479" lon="6.96827">
        <ele>1047</ele>
        <time>2014-06-22T02:54:32Z</time>
      </trkpt>
      <trkpt lat="48.0048" lon="6.96832">
        <ele>1048</ele>
        <time>2014-06-22T02:54:34Z</time>
      </trkpt>
      <trkpt lat="48.00482" lon="6.96837">
        <ele>1051</ele>
        <time>2014-06-22T02:54:36Z</time>
      </trkpt>
      <trkpt lat="48.0049" lon="6.96845">
        <ele>1052</ele>
        <time>2014-06-22T02:54:51Z</time>
      </trkpt>
      <trkpt lat="48.00491" lon="6.96853">
        <ele>1051</ele>
        <time>2014-06-22T02:54:53Z</time>
      </trkpt>
      <trkpt lat="48.00494" lon="6.96863">
        <ele>1050</ele>
        <time>2014-06-22T02:54:58Z</time>
      </trkpt>
      <trkpt lat="48.00497" lon="6.96868">
        <ele>1050</ele>
        <time>2014-06-22T02:55:16Z</time>
      </trkpt>
      <trkpt lat="48.005" lon="6.96876">
        <ele>1074</ele>
        <time>2014-06-22T02:55:25Z</time>
      </trkpt>
      <trkpt lat="48.00502" lon="6.96879">
        <ele>1074</ele>
        <time>2014-06-22T02:55:28Z</time>
      </trkpt>
      <trkpt lat="48.00504" lon="6.96888">
        <ele>1074</ele>
        <time>2014-06-22T02:55:42Z</time>
      </trkpt>
      <trkpt lat="48.00508" lon="6.96897">
        <ele>1073</ele>
        <time>2014-06-22T02:55:45Z</time>
      </trkpt>
      <trkpt lat="48.00515" lon="6.96906">
        <ele>1074</ele>
        <time>2014-06-22T02:55:58Z</time>
      </trkpt>
      <trkpt lat="48.00517" lon="6.96902">
        <ele>1075</ele>
        <time>2014-06-22T02:56:03Z</time>
      </trkpt>
      <trkpt lat="48.00519" lon="6.96892">
        <ele>1077</ele>
        <time>2014-06-22T02:56:08Z</time>
      </trkpt>
      <trkpt lat="48.00523" lon="6.96892">
        <ele>1078</ele>
        <time>2014-06-22T02:56:10Z</time>
      </trkpt>
      <trkpt lat="48.00526" lon="6.96899">
        <ele>1078</ele>
        <time>2014-06-22T02:56:31Z</time>
      </trkpt>
      <trkpt lat="48.00531" lon="6.96913">
        <ele>1080</ele>
        <time>2014-06-22T02:56:41Z</time>
      </trkpt>
      <trkpt lat="48.00534" lon="6.96919">
        <ele>1086</ele>
        <time>2014-06-22T02:56:44Z</time>
      </trkpt>
      <trkpt lat="48.00548" lon="6.96956">
        <ele>1093</ele>
        <time>2014-06-22T02:56:54Z</time>
      </trkpt>
      <trkpt lat="48.00548" lon="6.96951">
        <ele>1092</ele>
        <time>2014-06-22T02:56:58Z</time>
      </trkpt>
      <trkpt lat="48.00544" lon="6.96943">
        <ele>1091</ele>
        <time>2014-06-22T02:57:00Z</time>
      </trkpt>
      <trkpt lat="48.00534" lon="6.96928">
        <ele>1086</ele>
        <time>2014-06-22T02:57:13Z</time>
      </trkpt>
      <trkpt lat="48.00539" lon="6.96926">
        <ele>1088</ele>
        <time>2014-06-22T02:57:31Z</time>
      </trkpt>
      <trkpt lat="48.00559" lon="6.96937">
        <ele>1095</ele>
        <time>2014-06-22T02:57:41Z</time>
      </trkpt>
      <trkpt lat="48.00567" lon="6.96932">
        <ele>1098</ele>
        <time>2014-06-22T02:57:46Z</time>
      </trkpt>
      <trkpt lat="48.0057" lon="6.96945">
        <ele>1098</ele>
        <time>2014-06-22T02:57:56Z</time>
      </trkpt>
      <trkpt lat="48.00568" lon="6.96941">
        <ele>1098</ele>
        <time>2014-06-22T02:57:59Z</time>
      </trkpt>
      <trkpt lat="48.00567" lon="6.96937">
        <ele>1098</ele>
        <time>2014-06-22T02:58:01Z</time>
      </trkpt>
      <trkpt lat="48.00568" lon="6.96932">
        <ele>1099</ele>
        <time>2014-06-22T02:58:16Z</time>
      </trkpt>
      <trkpt lat="48.00571" lon="6.9693">
        <ele>1100</ele>
        <time>2014-06-22T02:58:18Z</time>
      </trkpt>
      <trkpt lat="48.00583" lon="6.96921">
        <ele>1106</ele>
        <time>2014-06-22T02:58:28Z</time>
      </trkpt>
      <trkpt lat="48.00582" lon="6.96921">
        <ele>1106</ele>
        <time>2014-06-22T02:58:32Z</time>
      </trkpt>
      <trkpt lat="48.00578" lon="6.96915">
        <ele>1103</ele>
        <time>2014-06-22T02:58:33Z</time>
      </trkpt>
      <trkpt lat="48.00573" lon="6.96908">
        <ele>1098</ele>
        <time>2014-06-22T02:58:36Z</time>
      </trkpt>
      <trkpt lat="48.0058" lon="6.96901">
        <ele>1097</ele>
        <time>2014-06-22T02:58:40Z</time>
      </trkpt>
      <trkpt lat="48.00579" lon="6.96897">
        <ele>1095</ele>
        <time>2014-06-22T02:58:43Z</time>
      </trkpt>
      <trkpt lat="48.0058" lon="6.96907">
        <ele>1100</ele>
        <time>2014-06-22T02:58:57Z</time>
      </trkpt>
      <trkpt lat="48.00581" lon="6.96912">
        <ele>1103</ele>
        <time>2014-06-22T02:58:59Z</time>
      </trkpt>
      <trkpt lat="48.00581" lon="6.96916">
        <ele>1106</ele>
        <time>2014-06-22T02:59:03Z</time>
      </trkpt>
      <trkpt lat="48.00581" lon="6.96923">
        <ele>1105</ele>
        <time>2014-06-22T02:59:06Z</time>
      </trkpt>
      <trkpt lat="48.00587" lon="6.96932">
        <ele>1115</ele>
        <time>2014-06-22T02:59:16Z</time>
      </trkpt>
      <trkpt lat="48.00583" lon="6.96932">
        <ele>1102</ele>
        <time>2014-06-22T02:59:20Z</time>
      </trkpt>
      <trkpt lat="48.00586" lon="6.96931">
        <ele>1115</ele>
        <time>2014-06-22T02:59:30Z</time>
      </trkpt>
      <trkpt lat="48.00588" lon="6.96926">
        <ele>1113</ele>
        <time>2014-06-22T02:59:34Z</time>
      </trkpt>
      <trkpt lat="48.00597" lon="6.96913">
        <ele>1110</ele>
        <time>2014-06-22T02:59:44Z</time>
      </trkpt>
      <trkpt lat="48.00604" lon="6.96898">
        <ele>1110</ele>
        <time>2014-06-22T02:59:57Z</time>
      </trkpt>
      <trkpt lat="48.00622" lon="6.96885">
        <ele>1111</ele>
        <time>2014-06-22T03:00:12Z</time>
      </trkpt>
      <trkpt lat="48.00625" lon="6.96886">
        <ele>1111</ele>
        <time>2014-06-22T03:00:23Z</time>
      </trkpt>
      <trkpt lat="48.00627" lon="6.96891">
        <ele>1112</ele>
        <time>2014-06-22T03:00:25Z</time>
      </trkpt>
      <trkpt lat="48.00633" lon="6.969">
        <ele>1113</ele>
        <time>2014-06-22T03:00:35Z</time>
      </trkpt>
      <trkpt lat="48.00637" lon="6.96908">
        <ele>1114</ele>
        <time>2014-06-22T03:00:51Z</time>
      </trkpt>
      <trkpt lat="48.00636" lon="6.96919">
        <ele>1122</ele>
        <time>2014-06-22T03:00:58Z</time>
      </trkpt>
      <trkpt lat="48.00638" lon="6.96933">
        <ele>1122</ele>
        <time>2014-06-22T03:01:02Z</time>
      </trkpt>
      <trkpt lat="48.0064" lon="6.96936">
        <ele>1123</ele>
        <time>2014-06-22T03:01:13Z</time>
      </trkpt>
      <trkpt lat="48.0064" lon="6.96946">
        <ele>1123</ele>
        <time>2014-06-22T03:01:27Z</time>
      </trkpt>
      <trkpt lat="48.00641" lon="6.9695">
        <ele>1123</ele>
        <time>2014-06-22T03:01:28Z</time>
      </trkpt>
      <trkpt lat="48.00641" lon="6.96954">
        <ele>1123</ele>
        <time>2014-06-22T03:01:29Z</time>
      </trkpt>
      <trkpt lat="48.00642" lon="6.96963">
        <ele>1124</ele>
        <time>2014-06-22T03:01:31Z</time>
      </trkpt>
      <trkpt lat="48.00646" lon="6.96973">
        <ele>1125</ele>
        <time>2014-06-22T03:01:34Z</time>
      </trkpt>
      <trkpt lat="48.00648" lon="6.96977">
        <ele>1126</ele>
        <time>2014-06-22T03:01:36Z</time>
      </trkpt>
      <trkpt lat="48.00648" lon="6.96995">
        <ele>1128</ele>
        <time>2014-06-22T03:01:46Z</time>
      </trkpt>
      <trkpt lat="48.0065" lon="6.97005">
        <ele>1132</ele>
        <time>2014-06-22T03:01:50Z</time>
      </trkpt>
      <trkpt lat="48.00655" lon="6.97019">
        <ele>1132</ele>
        <time>2014-06-22T03:01:56Z</time>
      </trkpt>
      <trkpt lat="48.00661" lon="6.97025">
        <ele>1132</ele>
        <time>2014-06-22T03:02:07Z</time>
      </trkpt>
      <trkpt lat="48.00663" lon="6.97026">
        <ele>1132</ele>
        <time>2014-06-22T03:02:09Z</time>
      </trkpt>
      <trkpt lat="48.00669" lon="6.97039">
        <ele>1138</ele>
        <time>2014-06-22T03:02:57Z</time>
      </trkpt>
      <trkpt lat="48.00666" lon="6.9704">
        <ele>1133</ele>
        <time>2014-06-22T03:03:31Z</time>
      </trkpt>
      <trkpt lat="48.00669" lon="6.97042">
        <ele>1139</ele>
        <time>2014-06-22T03:04:23Z</time>
      </trkpt>
      <trkpt lat="48.0067" lon="6.97046">
        <ele>1139</ele>
        <time>2014-06-22T03:04:37Z</time>
      </trkpt>
      <trkpt lat="48.00671" lon="6.9705">
        <ele>1139</ele>
        <time>2014-06-22T03:04:47Z</time>
      </trkpt>
      <trkpt lat="48.00673" lon="6.97059">
        <ele>1140</ele>
        <time>2014-06-22T03:05:30Z</time>
      </trkpt>
      <trkpt lat="48.00675" lon="6.97062">
        <ele>1140</ele>
        <time>2014-06-22T03:05:41Z</time>
      </trkpt>
      <trkpt lat="48.00677" lon="6.97065">
        <ele>1140</ele>
        <time>2014-06-22T03:05:43Z</time>
      </trkpt>
      <trkpt lat="48.00682" lon="6.97081">
        <ele>1141</ele>
        <time>2014-06-22T03:05:53Z</time>
      </trkpt>
      <trkpt lat="48.00684" lon="6.97083">
        <ele>1144</ele>
        <time>2014-06-22T03:05:56Z</time>
      </trkpt>
      <trkpt lat="48.0069" lon="6.97094">
        <ele>1145</ele>
        <time>2014-06-22T03:06:29Z</time>
      </trkpt>
      <trkpt lat="48.00692" lon="6.97098">
        <ele>1146</ele>
        <time>2014-06-22T03:06:34Z</time>
      </trkpt>
      <trkpt lat="48.00694" lon="6.97103">
        <ele>1146</ele>
        <time>2014-06-22T03:06:37Z</time>
      </trkpt>
      <trkpt lat="48.00701" lon="6.9711">
        <ele>1146</ele>
        <time>2014-06-22T03:06:47Z</time>
      </trkpt>
      <trkpt lat="48.00708" lon="6.97133">
        <ele>1147</ele>
        <time>2014-06-22T03:06:59Z</time>
      </trkpt>
      <trkpt lat="48.00713" lon="6.97135">
        <ele>1148</ele>
        <time>2014-06-22T03:07:06Z</time>
      </trkpt>
      <trkpt lat="48.00715" lon="6.97138">
        <ele>1148</ele>
        <time>2014-06-22T03:07:09Z</time>
      </trkpt>
      <trkpt lat="48.00729" lon="6.97146">
        <ele>1150</ele>
        <time>2014-06-22T03:07:20Z</time>
      </trkpt>
      <trkpt lat="48.00733" lon="6.9716">
        <ele>1151</ele>
        <time>2014-06-22T03:07:53Z</time>
      </trkpt>
      <trkpt lat="48.00737" lon="6.97166">
        <ele>1152</ele>
        <time>2014-06-22T03:08:06Z</time>
      </trkpt>
      <trkpt lat="48.00739" lon="6.97175">
        <ele>1154</ele>
        <time>2014-06-22T03:08:12Z</time>
      </trkpt>
      <trkpt lat="48.0074" lon="6.97193">
        <ele>1153</ele>
        <time>2014-06-22T03:08:23Z</time>
      </trkpt>
      <trkpt lat="48.00743" lon="6.97196">
        <ele>1153</ele>
        <time>2014-06-22T03:08:25Z</time>
      </trkpt>
      <trkpt lat="48.00745" lon="6.97204">
        <ele>1154</ele>
        <time>2014-06-22T03:08:33Z</time>
      </trkpt>
      <trkpt lat="48.0075" lon="6.97214">
        <ele>1154</ele>
        <time>2014-06-22T03:08:44Z</time>
      </trkpt>
      <trkpt lat="48.00751" lon="6.9722">
        <ele>1162</ele>
        <time>2014-06-22T03:08:46Z</time>
      </trkpt>
      <trkpt lat="48.00756" lon="6.97237">
        <ele>1163</ele>
        <time>2014-06-22T03:09:00Z</time>
      </trkpt>
      <trkpt lat="48.00759" lon="6.9724">
        <ele>1163</ele>
        <time>2014-06-22T03:09:03Z</time>
      </trkpt>
      <trkpt lat="48.00761" lon="6.97243">
        <ele>1163</ele>
        <time>2014-06-22T03:09:05Z</time>
      </trkpt>
      <trkpt lat="48.00768" lon="6.97255">
        <ele>1168</ele>
        <time>2014-06-22T03:09:15Z</time>
      </trkpt>
      <trkpt lat="48.00771" lon="6.97266">
        <ele>1169</ele>
        <time>2014-06-22T03:09:22Z</time>
      </trkpt>
      <trkpt lat="48.00776" lon="6.97279">
        <ele>1170</ele>
        <time>2014-06-22T03:09:40Z</time>
      </trkpt>
      <trkpt lat="48.00785" lon="6.97303">
        <ele>1172</ele>
        <time>2014-06-22T03:09:50Z</time>
      </trkpt>
      <trkpt lat="48.00787" lon="6.97304">
        <ele>1173</ele>
        <time>2014-06-22T03:09:53Z</time>
      </trkpt>
      <trkpt lat="48.00792" lon="6.9731">
        <ele>1174</ele>
        <time>2014-06-22T03:09:57Z</time>
      </trkpt>
      <trkpt lat="48.00799" lon="6.97319">
        <ele>1175</ele>
        <time>2014-06-22T03:10:05Z</time>
      </trkpt>
      <trkpt lat="48.00808" lon="6.97308">
        <ele>1176</ele>
        <time>2014-06-22T03:10:16Z</time>
      </trkpt>
      <trkpt lat="48.00807" lon="6.97312">
        <ele>1176</ele>
        <time>2014-06-22T03:10:24Z</time>
      </trkpt>
      <trkpt lat="48.00809" lon="6.97316">
        <ele>1177</ele>
        <time>2014-06-22T03:10:49Z</time>
      </trkpt>
      <trkpt lat="48.00814" lon="6.97325">
        <ele>1179</ele>
        <time>2014-06-22T03:11:03Z</time>
      </trkpt>
      <trkpt lat="48.00816" lon="6.9733">
        <ele>1180</ele>
        <time>2014-06-22T03:11:09Z</time>
      </trkpt>
      <trkpt lat="48.00823" lon="6.97347">
        <ele>1185</ele>
        <time>2014-06-22T03:11:20Z</time>
      </trkpt>
      <trkpt lat="48.00827" lon="6.97349">
        <ele>1185</ele>
        <time>2014-06-22T03:11:35Z</time>
      </trkpt>
      <trkpt lat="48.00835" lon="6.97367">
        <ele>1195</ele>
        <time>2014-06-22T03:11:43Z</time>
      </trkpt>
      <trkpt lat="48.00844" lon="6.97385">
        <ele>1197</ele>
        <time>2014-06-22T03:11:57Z</time>
      </trkpt>
      <trkpt lat="48.00844" lon="6.97389">
        <ele>1197</ele>
        <time>2014-06-22T03:12:01Z</time>
      </trkpt>
      <trkpt lat="48.00843" lon="6.97394">
        <ele>1197</ele>
        <time>2014-06-22T03:12:07Z</time>
      </trkpt>
      <trkpt lat="48.00846" lon="6.97396">
        <ele>1197</ele>
        <time>2014-06-22T03:12:18Z</time>
      </trkpt>
      <trkpt lat="48.00849" lon="6.97409">
        <ele>1198</ele>
        <time>2014-06-22T03:12:25Z</time>
      </trkpt>
      <trkpt lat="48.00855" lon="6.97426">
        <ele>1204</ele>
        <time>2014-06-22T03:12:35Z</time>
      </trkpt>
      <trkpt lat="48.00859" lon="6.97429">
        <ele>1205</ele>
        <time>2014-06-22T03:12:51Z</time>
      </trkpt>
      <trkpt lat="48.00858" lon="6.97425">
        <ele>1205</ele>
        <time>2014-06-22T03:13:26Z</time>
      </trkpt>
      <trkpt lat="48.00868" lon="6.97434">
        <ele>1207</ele>
        <time>2014-06-22T03:13:39Z</time>
      </trkpt>
      <trkpt lat="48.00883" lon="6.97448">
        <ele>1209</ele>
        <time>2014-06-22T03:13:49Z</time>
      </trkpt>
      <trkpt lat="48.00884" lon="6.97453">
        <ele>1210</ele>
        <time>2014-06-22T03:14:00Z</time>
      </trkpt>
      <trkpt lat="48.00895" lon="6.97464">
        <ele>1211</ele>
        <time>2014-06-22T03:14:13Z</time>
      </trkpt>
      <trkpt lat="48.00896" lon="6.97468">
        <ele>1212</ele>
        <time>2014-06-22T03:14:17Z</time>
      </trkpt>
      <trkpt lat="48.00902" lon="6.97483">
        <ele>1215</ele>
        <time>2014-06-22T03:14:39Z</time>
      </trkpt>
      <trkpt lat="48.00901" lon="6.97487">
        <ele>1215</ele>
        <time>2014-06-22T03:16:14Z</time>
      </trkpt>
      <trkpt lat="48.00903" lon="6.9749">
        <ele>1216</ele>
        <time>2014-06-22T03:16:17Z</time>
      </trkpt>
      <trkpt lat="48.00908" lon="6.97502">
        <ele>1222</ele>
        <time>2014-06-22T03:16:27Z</time>
      </trkpt>
      <trkpt lat="48.00916" lon="6.97515">
        <ele>1222</ele>
        <time>2014-06-22T03:16:37Z</time>
      </trkpt>
      <trkpt lat="48.00921" lon="6.97523">
        <ele>1218</ele>
        <time>2014-06-22T03:16:45Z</time>
      </trkpt>
      <trkpt lat="48.00923" lon="6.97538">
        <ele>1218</ele>
        <time>2014-06-22T03:16:57Z</time>
      </trkpt>
      <trkpt lat="48.0093" lon="6.97557">
        <ele>1218</ele>
        <time>2014-06-22T03:17:07Z</time>
      </trkpt>
      <trkpt lat="48.00931" lon="6.97561">
        <ele>1218</ele>
        <time>2014-06-22T03:17:15Z</time>
      </trkpt>
      <trkpt lat="48.00932" lon="6.97566">
        <ele>1219</ele>
        <time>2014-06-22T03:17:18Z</time>
      </trkpt>
      <trkpt lat="48.0093" lon="6.97573">
        <ele>1220</ele>
        <time>2014-06-22T03:17:28Z</time>
      </trkpt>
      <trkpt lat="48.0093" lon="6.97588">
        <ele>1223</ele>
        <time>2014-06-22T03:17:39Z</time>
      </trkpt>
      <trkpt lat="48.0093" lon="6.97594">
        <ele>1223</ele>
        <time>2014-06-22T03:17:42Z</time>
      </trkpt>
      <trkpt lat="48.00931" lon="6.97608">
        <ele>1222</ele>
        <time>2014-06-22T03:17:51Z</time>
      </trkpt>
      <trkpt lat="48.00927" lon="6.97613">
        <ele>1223</ele>
        <time>2014-06-22T03:17:57Z</time>
      </trkpt>
      <trkpt lat="48.00929" lon="6.97616">
        <ele>1223</ele>
        <time>2014-06-22T03:18:12Z</time>
      </trkpt>
      <trkpt lat="48.0093" lon="6.97619">
        <ele>1223</ele>
        <time>2014-06-22T03:18:23Z</time>
      </trkpt>
      <trkpt lat="48.00935" lon="6.97625">
        <ele>1223</ele>
        <time>2014-06-22T03:18:40Z</time>
      </trkpt>
      <trkpt lat="48.00942" lon="6.97627">
        <ele>1222</ele>
        <time>2014-06-22T03:18:46Z</time>
      </trkpt>
      <trkpt lat="48.00949" lon="6.97635">
        <ele>1222</ele>
        <time>2014-06-22T03:19:32Z</time>
      </trkpt>
      <trkpt lat="48.0095" lon="6.9764">
        <ele>1222</ele>
        <time>2014-06-22T03:20:37Z</time>
      </trkpt>
      <trkpt lat="48.00953" lon="6.97647">
        <ele>1222</ele>
        <time>2014-06-22T03:20:58Z</time>
      </trkpt>
      <trkpt lat="48.00949" lon="6.97646">
        <ele>1223</ele>
        <time>2014-06-22T03:24:33Z</time>
      </trkpt>
      <trkpt lat="48.00946" lon="6.97644">
        <ele>1223</ele>
        <time>2014-06-22T03:24:36Z</time>
      </trkpt>
      <trkpt lat="48.00933" lon="6.9764">
        <ele>1225</ele>
        <time>2014-06-22T03:24:48Z</time>
      </trkpt>
      <trkpt lat="48.00927" lon="6.97629">
        <ele>1224</ele>
        <time>2014-06-22T03:24:56Z</time>
      </trkpt>
      <trkpt lat="48.00923" lon="6.97621">
        <ele>1224</ele>
        <time>2014-06-22T03:25:07Z</time>
      </trkpt>
      <trkpt lat="48.0092" lon="6.97619">
        <ele>1224</ele>
        <time>2014-06-22T03:25:10Z</time>
      </trkpt>
      <trkpt lat="48.00913" lon="6.9761">
        <ele>1231</ele>
        <time>2014-06-22T03:25:16Z</time>
      </trkpt>
      <trkpt lat="48.00901" lon="6.97598">
        <ele>1229</ele>
        <time>2014-06-22T03:25:27Z</time>
      </trkpt>
      <trkpt lat="48.00899" lon="6.97596">
        <ele>1229</ele>
        <time>2014-06-22T03:25:30Z</time>
      </trkpt>
      <trkpt lat="48.00893" lon="6.97592">
        <ele>1229</ele>
        <time>2014-06-22T03:25:42Z</time>
      </trkpt>
      <trkpt lat="48.00887" lon="6.97595">
        <ele>1229</ele>
        <time>2014-06-22T03:25:49Z</time>
      </trkpt>
      <trkpt lat="48.00865" lon="6.97594">
        <ele>1228</ele>
        <time>2014-06-22T03:25:59Z</time>
      </trkpt>
      <trkpt lat="48.00868" lon="6.97595">
        <ele>1229</ele>
        <time>2014-06-22T03:26:04Z</time>
      </trkpt>
      <trkpt lat="48.0086" lon="6.97602">
        <ele>1229</ele>
        <time>2014-06-22T03:26:12Z</time>
      </trkpt>
      <trkpt lat="48.00855" lon="6.97607">
        <ele>1229</ele>
        <time>2014-06-22T03:26:15Z</time>
      </trkpt>
      <trkpt lat="48.00844" lon="6.97622">
        <ele>1230</ele>
        <time>2014-06-22T03:26:25Z</time>
      </trkpt>
      <trkpt lat="48.00838" lon="6.97625">
        <ele>1231</ele>
        <time>2014-06-22T03:26:38Z</time>
      </trkpt>
      <trkpt lat="48.00835" lon="6.97625">
        <ele>1231</ele>
        <time>2014-06-22T03:26:41Z</time>
      </trkpt>
      <trkpt lat="48.00823" lon="6.97639">
        <ele>1223</ele>
        <time>2014-06-22T03:26:49Z</time>
      </trkpt>
      <trkpt lat="48.00811" lon="6.97661">
        <ele>1224</ele>
        <time>2014-06-22T03:27:00Z</time>
      </trkpt>
      <trkpt lat="48.00801" lon="6.97674">
        <ele>1228</ele>
        <time>2014-06-22T03:27:14Z</time>
      </trkpt>
      <trkpt lat="48.00795" lon="6.97677">
        <ele>1227</ele>
        <time>2014-06-22T03:27:41Z</time>
      </trkpt>
      <trkpt lat="48.00798" lon="6.97675">
        <ele>1227</ele>
        <time>2014-06-22T03:27:54Z</time>
      </trkpt>
      <trkpt lat="48.00796" lon="6.97678">
        <ele>1227</ele>
        <time>2014-06-22T03:28:07Z</time>
      </trkpt>
      <trkpt lat="48.00785" lon="6.97686">
        <ele>1225</ele>
        <time>2014-06-22T03:28:17Z</time>
      </trkpt>
      <trkpt lat="48.00773" lon="6.97702">
        <ele>1224</ele>
        <time>2014-06-22T03:28:29Z</time>
      </trkpt>
      <trkpt lat="48.00765" lon="6.9771">
        <ele>1224</ele>
        <time>2014-06-22T03:28:36Z</time>
      </trkpt>
      <trkpt lat="48.0076" lon="6.97726">
        <ele>1223</ele>
        <time>2014-06-22T03:28:46Z</time>
      </trkpt>
      <trkpt lat="48.00753" lon="6.97741">
        <ele>1221</ele>
        <time>2014-06-22T03:28:56Z</time>
      </trkpt>
      <trkpt lat="48.00749" lon="6.97751">
        <ele>1218</ele>
        <time>2014-06-22T03:29:02Z</time>
      </trkpt>
      <trkpt lat="48.0074" lon="6.97769">
        <ele>1214</ele>
        <time>2014-06-22T03:29:14Z</time>
      </trkpt>
      <trkpt lat="48.00738" lon="6.97783">
        <ele>1214</ele>
        <time>2014-06-22T03:29:30Z</time>
      </trkpt>
      <trkpt lat="48.00729" lon="6.97803">
        <ele>1215</ele>
        <time>2014-06-22T03:29:41Z</time>
      </trkpt>
      <trkpt lat="48.00721" lon="6.97818">
        <ele>1215</ele>
        <time>2014-06-22T03:29:51Z</time>
      </trkpt>
      <trkpt lat="48.00713" lon="6.97835">
        <ele>1221</ele>
        <time>2014-06-22T03:30:02Z</time>
      </trkpt>
      <trkpt lat="48.00704" lon="6.97853">
        <ele>1220</ele>
        <time>2014-06-22T03:30:14Z</time>
      </trkpt>
      <trkpt lat="48.00696" lon="6.97868">
        <ele>1219</ele>
        <time>2014-06-22T03:30:25Z</time>
      </trkpt>
      <trkpt lat="48.00694" lon="6.97871">
        <ele>1219</ele>
        <time>2014-06-22T03:30:27Z</time>
      </trkpt>
      <trkpt lat="48.00682" lon="6.97886">
        <ele>1218</ele>
        <time>2014-06-22T03:30:39Z</time>
      </trkpt>
      <trkpt lat="48.00671" lon="6.97899">
        <ele>1217</ele>
        <time>2014-06-22T03:30:50Z</time>
      </trkpt>
      <trkpt lat="48.00659" lon="6.97913">
        <ele>1208</ele>
        <time>2014-06-22T03:31:02Z</time>
      </trkpt>
      <trkpt lat="48.0065" lon="6.97926">
        <ele>1211</ele>
        <time>2014-06-22T03:31:13Z</time>
      </trkpt>
      <trkpt lat="48.00638" lon="6.97936">
        <ele>1210</ele>
        <time>2014-06-22T03:31:23Z</time>
      </trkpt>
      <trkpt lat="48.00628" lon="6.9795">
        <ele>1209</ele>
        <time>2014-06-22T03:31:34Z</time>
      </trkpt>
      <trkpt lat="48.00617" lon="6.97962">
        <ele>1209</ele>
        <time>2014-06-22T03:31:45Z</time>
      </trkpt>
      <trkpt lat="48.00602" lon="6.97977">
        <ele>1208</ele>
        <time>2014-06-22T03:31:57Z</time>
      </trkpt>
      <trkpt lat="48.00589" lon="6.97986">
        <ele>1207</ele>
        <time>2014-06-22T03:32:08Z</time>
      </trkpt>
      <trkpt lat="48.00577" lon="6.9799">
        <ele>1204</ele>
        <time>2014-06-22T03:32:19Z</time>
      </trkpt>
      <trkpt lat="48.00563" lon="6.97994">
        <ele>1204</ele>
        <time>2014-06-22T03:32:29Z</time>
      </trkpt>
      <trkpt lat="48.00556" lon="6.97991">
        <ele>1204</ele>
        <time>2014-06-22T03:32:51Z</time>
      </trkpt>
      <trkpt lat="48.00547" lon="6.97997">
        <ele>1204</ele>
        <time>2014-06-22T03:33:37Z</time>
      </trkpt>
      <trkpt lat="48.00533" lon="6.97996">
        <ele>1204</ele>
        <time>2014-06-22T03:33:50Z</time>
      </trkpt>
      <trkpt lat="48.00526" lon="6.97996">
        <ele>1204</ele>
        <time>2014-06-22T03:34:01Z</time>
      </trkpt>
      <trkpt lat="48.00515" lon="6.97999">
        <ele>1205</ele>
        <time>2014-06-22T03:34:20Z</time>
      </trkpt>
      <trkpt lat="48.00502" lon="6.97999">
        <ele>1206</ele>
        <time>2014-06-22T03:34:30Z</time>
      </trkpt>
      <trkpt lat="48.00499" lon="6.97998">
        <ele>1206</ele>
        <time>2014-06-22T03:34:31Z</time>
      </trkpt>
      <trkpt lat="48.00494" lon="6.97998">
        <ele>1207</ele>
        <time>2014-06-22T03:34:33Z</time>
      </trkpt>
      <trkpt lat="48.00477" lon="6.97997">
        <ele>1208</ele>
        <time>2014-06-22T03:34:44Z</time>
      </trkpt>
      <trkpt lat="48.00473" lon="6.97997">
        <ele>1208</ele>
        <time>2014-06-22T03:34:47Z</time>
      </trkpt>
      <trkpt lat="48.00457" lon="6.97996">
        <ele>1209</ele>
        <time>2014-06-22T03:34:58Z</time>
      </trkpt>
      <trkpt lat="48.00448" lon="6.97995">
        <ele>1210</ele>
        <time>2014-06-22T03:35:05Z</time>
      </trkpt>
      <trkpt lat="48.00435" lon="6.97998">
        <ele>1212</ele>
        <time>2014-06-22T03:35:18Z</time>
      </trkpt>
      <trkpt lat="48.00428" lon="6.97998">
        <ele>1213</ele>
        <time>2014-06-22T03:35:23Z</time>
      </trkpt>
      <trkpt lat="48.00415" lon="6.97995">
        <ele>1216</ele>
        <time>2014-06-22T03:35:34Z</time>
      </trkpt>
      <trkpt lat="48.0041" lon="6.97988">
        <ele>1218</ele>
        <time>2014-06-22T03:35:45Z</time>
      </trkpt>
      <trkpt lat="48.00407" lon="6.97985">
        <ele>1219</ele>
        <time>2014-06-22T03:35:52Z</time>
      </trkpt>
      <trkpt lat="48.00398" lon="6.97968">
        <ele>1221</ele>
        <time>2014-06-22T03:36:04Z</time>
      </trkpt>
      <trkpt lat="48.00389" lon="6.97949">
        <ele>1222</ele>
        <time>2014-06-22T03:36:16Z</time>
      </trkpt>
      <trkpt lat="48.0038" lon="6.97933">
        <ele>1222</ele>
        <time>2014-06-22T03:36:28Z</time>
      </trkpt>
      <trkpt lat="48.00373" lon="6.97917">
        <ele>1223</ele>
        <time>2014-06-22T03:36:38Z</time>
      </trkpt>
      <trkpt lat="48.00368" lon="6.97898">
        <ele>1220</ele>
        <time>2014-06-22T03:36:48Z</time>
      </trkpt>
      <trkpt lat="48.00363" lon="6.97884">
        <ele>1220</ele>
        <time>2014-06-22T03:36:57Z</time>
      </trkpt>
      <trkpt lat="48.00354" lon="6.97867">
        <ele>1220</ele>
        <time>2014-06-22T03:37:07Z</time>
      </trkpt>
      <trkpt lat="48.00349" lon="6.97859">
        <ele>1220</ele>
        <time>2014-06-22T03:37:13Z</time>
      </trkpt>
      <trkpt lat="48.0034" lon="6.97843">
        <ele>1222</ele>
        <time>2014-06-22T03:37:23Z</time>
      </trkpt>
      <trkpt lat="48.00331" lon="6.97824">
        <ele>1225</ele>
        <time>2014-06-22T03:37:33Z</time>
      </trkpt>
      <trkpt lat="48.00323" lon="6.97805">
        <ele>1226</ele>
        <time>2014-06-22T03:37:44Z</time>
      </trkpt>
      <trkpt lat="48.00313" lon="6.97791">
        <ele>1226</ele>
        <time>2014-06-22T03:37:54Z</time>
      </trkpt>
      <trkpt lat="48.00311" lon="6.97787">
        <ele>1226</ele>
        <time>2014-06-22T03:37:57Z</time>
      </trkpt>
      <trkpt lat="48.003" lon="6.97773">
        <ele>1226</ele>
        <time>2014-06-22T03:38:09Z</time>
      </trkpt>
      <trkpt lat="48.00289" lon="6.97762">
        <ele>1227</ele>
        <time>2014-06-22T03:38:19Z</time>
      </trkpt>
      <trkpt lat="48.00286" lon="6.97759">
        <ele>1228</ele>
        <time>2014-06-22T03:38:22Z</time>
      </trkpt>
      <trkpt lat="48.0028" lon="6.97753">
        <ele>1229</ele>
        <time>2014-06-22T03:38:28Z</time>
      </trkpt>
      <trkpt lat="48.00267" lon="6.97748">
        <ele>1223</ele>
        <time>2014-06-22T03:38:38Z</time>
      </trkpt>
      <trkpt lat="48.00257" lon="6.97748">
        <ele>1228</ele>
        <time>2014-06-22T03:38:52Z</time>
      </trkpt>
      <trkpt lat="48.00254" lon="6.97748">
        <ele>1230</ele>
        <time>2014-06-22T03:38:54Z</time>
      </trkpt>
      <trkpt lat="48.00248" lon="6.97746">
        <ele>1232</ele>
        <time>2014-06-22T03:39:07Z</time>
      </trkpt>
      <trkpt lat="48.00237" lon="6.97746">
        <ele>1232</ele>
        <time>2014-06-22T03:39:17Z</time>
      </trkpt>
      <trkpt lat="48.00233" lon="6.97746">
        <ele>1232</ele>
        <time>2014-06-22T03:39:20Z</time>
      </trkpt>
      <trkpt lat="48.0022" lon="6.97744">
        <ele>1232</ele>
        <time>2014-06-22T03:39:30Z</time>
      </trkpt>
      <trkpt lat="48.00209" lon="6.97742">
        <ele>1233</ele>
        <time>2014-06-22T03:39:36Z</time>
      </trkpt>
      <trkpt lat="48.00198" lon="6.97742">
        <ele>1234</ele>
        <time>2014-06-22T03:39:42Z</time>
      </trkpt>
      <trkpt lat="48.00195" lon="6.97741">
        <ele>1235</ele>
        <time>2014-06-22T03:39:45Z</time>
      </trkpt>
      <trkpt lat="48.00185" lon="6.9774">
        <ele>1237</ele>
        <time>2014-06-22T03:39:59Z</time>
      </trkpt>
      <trkpt lat="48.00182" lon="6.97739">
        <ele>1237</ele>
        <time>2014-06-22T03:40:01Z</time>
      </trkpt>
      <trkpt lat="48.00166" lon="6.97736">
        <ele>1244</ele>
        <time>2014-06-22T03:40:11Z</time>
      </trkpt>
      <trkpt lat="48.00164" lon="6.97736">
        <ele>1244</ele>
        <time>2014-06-22T03:40:13Z</time>
      </trkpt>
      <trkpt lat="48.00151" lon="6.97736">
        <ele>1243</ele>
        <time>2014-06-22T03:40:22Z</time>
      </trkpt>
      <trkpt lat="48.0014" lon="6.97735">
        <ele>1243</ele>
        <time>2014-06-22T03:40:33Z</time>
      </trkpt>
      <trkpt lat="48.00124" lon="6.97729">
        <ele>1244</ele>
        <time>2014-06-22T03:40:44Z</time>
      </trkpt>
      <trkpt lat="48.00118" lon="6.97728">
        <ele>1244</ele>
        <time>2014-06-22T03:40:48Z</time>
      </trkpt>
      <trkpt lat="48.00108" lon="6.97728">
        <ele>1245</ele>
        <time>2014-06-22T03:40:57Z</time>
      </trkpt>
      <trkpt lat="48.00098" lon="6.97725">
        <ele>1246</ele>
        <time>2014-06-22T03:41:07Z</time>
      </trkpt>
      <trkpt lat="48.00095" lon="6.97724">
        <ele>1246</ele>
        <time>2014-06-22T03:41:11Z</time>
      </trkpt>
      <trkpt lat="48.00079" lon="6.9772">
        <ele>1252</ele>
        <time>2014-06-22T03:41:23Z</time>
      </trkpt>
      <trkpt lat="48.00076" lon="6.9772">
        <ele>1253</ele>
        <time>2014-06-22T03:41:25Z</time>
      </trkpt>
      <trkpt lat="48.00063" lon="6.97718">
        <ele>1252</ele>
        <time>2014-06-22T03:41:34Z</time>
      </trkpt>
      <trkpt lat="48.00054" lon="6.97714">
        <ele>1252</ele>
        <time>2014-06-22T03:41:45Z</time>
      </trkpt>
      <trkpt lat="48.00051" lon="6.97713">
        <ele>1252</ele>
        <time>2014-06-22T03:41:48Z</time>
      </trkpt>
      <trkpt lat="48.00044" lon="6.97712">
        <ele>1253</ele>
        <time>2014-06-22T03:41:52Z</time>
      </trkpt>
      <trkpt lat="48.00031" lon="6.97707">
        <ele>1253</ele>
        <time>2014-06-22T03:42:02Z</time>
      </trkpt>
      <trkpt lat="48.00027" lon="6.97706">
        <ele>1253</ele>
        <time>2014-06-22T03:42:04Z</time>
      </trkpt>
      <trkpt lat="48.00024" lon="6.97705">
        <ele>1253</ele>
        <time>2014-06-22T03:42:06Z</time>
      </trkpt>
      <trkpt lat="48.00008" lon="6.977">
        <ele>1253</ele>
        <time>2014-06-22T03:42:17Z</time>
      </trkpt>
      <trkpt lat="47.99997" lon="6.97692">
        <ele>1256</ele>
        <time>2014-06-22T03:42:29Z</time>
      </trkpt>
      <trkpt lat="47.99994" lon="6.9769">
        <ele>1256</ele>
        <time>2014-06-22T03:42:32Z</time>
      </trkpt>
      <trkpt lat="47.99982" lon="6.97684">
        <ele>1255</ele>
        <time>2014-06-22T03:42:51Z</time>
      </trkpt>
      <trkpt lat="47.99978" lon="6.97682">
        <ele>1255</ele>
        <time>2014-06-22T03:42:54Z</time>
      </trkpt>
      <trkpt lat="47.99961" lon="6.97675">
        <ele>1256</ele>
        <time>2014-06-22T03:43:06Z</time>
      </trkpt>
      <trkpt lat="47.9995" lon="6.97671">
        <ele>1256</ele>
        <time>2014-06-22T03:43:16Z</time>
      </trkpt>
      <trkpt lat="47.99936" lon="6.9767">
        <ele>1255</ele>
        <time>2014-06-22T03:43:31Z</time>
      </trkpt>
      <trkpt lat="47.99929" lon="6.9767">
        <ele>1255</ele>
        <time>2014-06-22T03:43:36Z</time>
      </trkpt>
      <trkpt lat="47.99921" lon="6.97672">
        <ele>1253</ele>
        <time>2014-06-22T03:43:42Z</time>
      </trkpt>
      <trkpt lat="47.99909" lon="6.97678">
        <ele>1252</ele>
        <time>2014-06-22T03:43:53Z</time>
      </trkpt>
      <trkpt lat="47.99907" lon="6.9768">
        <ele>1252</ele>
        <time>2014-06-22T03:43:55Z</time>
      </trkpt>
      <trkpt lat="47.99903" lon="6.97685">
        <ele>1252</ele>
        <time>2014-06-22T03:43:59Z</time>
      </trkpt>
      <trkpt lat="47.99887" lon="6.97698">
        <ele>1252</ele>
        <time>2014-06-22T03:44:11Z</time>
      </trkpt>
      <trkpt lat="47.99875" lon="6.97706">
        <ele>1252</ele>
        <time>2014-06-22T03:44:20Z</time>
      </trkpt>
      <trkpt lat="47.99869" lon="6.9771">
        <ele>1252</ele>
        <time>2014-06-22T03:44:24Z</time>
      </trkpt>
      <trkpt lat="47.99857" lon="6.97724">
        <ele>1252</ele>
        <time>2014-06-22T03:44:35Z</time>
      </trkpt>
      <trkpt lat="47.99846" lon="6.97744">
        <ele>1252</ele>
        <time>2014-06-22T03:44:47Z</time>
      </trkpt>
      <trkpt lat="47.99843" lon="6.97752">
        <ele>1258</ele>
        <time>2014-06-22T03:44:52Z</time>
      </trkpt>
      <trkpt lat="47.9983" lon="6.97767">
        <ele>1251</ele>
        <time>2014-06-22T03:45:02Z</time>
      </trkpt>
      <trkpt lat="47.9982" lon="6.9778">
        <ele>1251</ele>
        <time>2014-06-22T03:45:13Z</time>
      </trkpt>
      <trkpt lat="47.99817" lon="6.97784">
        <ele>1251</ele>
        <time>2014-06-22T03:45:16Z</time>
      </trkpt>
      <trkpt lat="47.99806" lon="6.97799">
        <ele>1252</ele>
        <time>2014-06-22T03:45:28Z</time>
      </trkpt>
      <trkpt lat="47.99792" lon="6.97811">
        <ele>1252</ele>
        <time>2014-06-22T03:45:39Z</time>
      </trkpt>
      <trkpt lat="47.9978" lon="6.97823">
        <ele>1251</ele>
        <time>2014-06-22T03:45:51Z</time>
      </trkpt>
      <trkpt lat="47.99774" lon="6.97826">
        <ele>1251</ele>
        <time>2014-06-22T03:45:55Z</time>
      </trkpt>
      <trkpt lat="47.99768" lon="6.97831">
        <ele>1251</ele>
        <time>2014-06-22T03:46:01Z</time>
      </trkpt>
      <trkpt lat="47.99757" lon="6.97841">
        <ele>1258</ele>
        <time>2014-06-22T03:46:11Z</time>
      </trkpt>
      <trkpt lat="47.99754" lon="6.97844">
        <ele>1258</ele>
        <time>2014-06-22T03:46:15Z</time>
      </trkpt>
      <trkpt lat="47.99737" lon="6.97846">
        <ele>1256</ele>
        <time>2014-06-22T03:46:26Z</time>
      </trkpt>
      <trkpt lat="47.99723" lon="6.97847">
        <ele>1256</ele>
        <time>2014-06-22T03:46:39Z</time>
      </trkpt>
      <trkpt lat="47.99712" lon="6.9785">
        <ele>1256</ele>
        <time>2014-06-22T03:46:50Z</time>
      </trkpt>
      <trkpt lat="47.99708" lon="6.9785">
        <ele>1256</ele>
        <time>2014-06-22T03:46:52Z</time>
      </trkpt>
      <trkpt lat="47.99695" lon="6.97853">
        <ele>1256</ele>
        <time>2014-06-22T03:47:06Z</time>
      </trkpt>
      <trkpt lat="47.99683" lon="6.97851">
        <ele>1254</ele>
        <time>2014-06-22T03:47:16Z</time>
      </trkpt>
      <trkpt lat="47.99674" lon="6.97848">
        <ele>1252</ele>
        <time>2014-06-22T03:47:27Z</time>
      </trkpt>
      <trkpt lat="47.99658" lon="6.97852">
        <ele>1252</ele>
        <time>2014-06-22T03:47:39Z</time>
      </trkpt>
      <trkpt lat="47.99643" lon="6.97853">
        <ele>1253</ele>
        <time>2014-06-22T03:47:49Z</time>
      </trkpt>
      <trkpt lat="47.99625" lon="6.97854">
        <ele>1254</ele>
        <time>2014-06-22T03:48:00Z</time>
      </trkpt>
      <trkpt lat="47.99627" lon="6.97858">
        <ele>1254</ele>
        <time>2014-06-22T03:48:10Z</time>
      </trkpt>
      <trkpt lat="47.99626" lon="6.97863">
        <ele>1255</ele>
        <time>2014-06-22T03:48:13Z</time>
      </trkpt>
      <trkpt lat="47.99624" lon="6.97883">
        <ele>1257</ele>
        <time>2014-06-22T03:48:25Z</time>
      </trkpt>
      <trkpt lat="47.99616" lon="6.97899">
        <ele>1258</ele>
        <time>2014-06-22T03:48:37Z</time>
      </trkpt>
      <trkpt lat="47.99607" lon="6.9791">
        <ele>1259</ele>
        <time>2014-06-22T03:48:49Z</time>
      </trkpt>
      <trkpt lat="47.99605" lon="6.97929">
        <ele>1266</ele>
        <time>2014-06-22T03:49:02Z</time>
      </trkpt>
      <trkpt lat="47.99602" lon="6.97943">
        <ele>1267</ele>
        <time>2014-06-22T03:49:12Z</time>
      </trkpt>
      <trkpt lat="47.99597" lon="6.97954">
        <ele>1268</ele>
        <time>2014-06-22T03:49:22Z</time>
      </trkpt>
      <trkpt lat="47.99588" lon="6.97961">
        <ele>1268</ele>
        <time>2014-06-22T03:49:32Z</time>
      </trkpt>
      <trkpt lat="47.99586" lon="6.97963">
        <ele>1268</ele>
        <time>2014-06-22T03:49:36Z</time>
      </trkpt>
      <trkpt lat="47.99583" lon="6.97977">
        <ele>1269</ele>
        <time>2014-06-22T03:49:46Z</time>
      </trkpt>
      <trkpt lat="47.99575" lon="6.97992">
        <ele>1271</ele>
        <time>2014-06-22T03:49:58Z</time>
      </trkpt>
      <trkpt lat="47.99568" lon="6.98002">
        <ele>1273</ele>
        <time>2014-06-22T03:50:07Z</time>
      </trkpt>
      <trkpt lat="47.99561" lon="6.98016">
        <ele>1274</ele>
        <time>2014-06-22T03:50:19Z</time>
      </trkpt>
      <trkpt lat="47.99559" lon="6.98029">
        <ele>1275</ele>
        <time>2014-06-22T03:50:29Z</time>
      </trkpt>
      <trkpt lat="47.99556" lon="6.98042">
        <ele>1275</ele>
        <time>2014-06-22T03:50:39Z</time>
      </trkpt>
      <trkpt lat="47.99552" lon="6.98054">
        <ele>1276</ele>
        <time>2014-06-22T03:50:50Z</time>
      </trkpt>
      <trkpt lat="47.9955" lon="6.98059">
        <ele>1276</ele>
        <time>2014-06-22T03:50:54Z</time>
      </trkpt>
      <trkpt lat="47.99548" lon="6.98073">
        <ele>1276</ele>
        <time>2014-06-22T03:51:05Z</time>
      </trkpt>
      <trkpt lat="47.99544" lon="6.98085">
        <ele>1276</ele>
        <time>2014-06-22T03:51:16Z</time>
      </trkpt>
      <trkpt lat="47.99541" lon="6.98085">
        <ele>1276</ele>
        <time>2014-06-22T03:52:19Z</time>
      </trkpt>
      <trkpt lat="47.99524" lon="6.98079">
        <ele>1277</ele>
        <time>2014-06-22T03:52:31Z</time>
      </trkpt>
      <trkpt lat="47.99522" lon="6.98079">
        <ele>1278</ele>
        <time>2014-06-22T03:52:33Z</time>
      </trkpt>
      <trkpt lat="47.99506" lon="6.98074">
        <ele>1278</ele>
        <time>2014-06-22T03:52:45Z</time>
      </trkpt>
      <trkpt lat="47.99497" lon="6.98074">
        <ele>1281</ele>
        <time>2014-06-22T03:52:52Z</time>
      </trkpt>
      <trkpt lat="47.99483" lon="6.9807">
        <ele>1281</ele>
        <time>2014-06-22T03:53:04Z</time>
      </trkpt>
      <trkpt lat="47.9948" lon="6.98069">
        <ele>1282</ele>
        <time>2014-06-22T03:53:06Z</time>
      </trkpt>
      <trkpt lat="47.99465" lon="6.98065">
        <ele>1282</ele>
        <time>2014-06-22T03:53:18Z</time>
      </trkpt>
      <trkpt lat="47.99462" lon="6.98064">
        <ele>1282</ele>
        <time>2014-06-22T03:53:21Z</time>
      </trkpt>
      <trkpt lat="47.99458" lon="6.98064">
        <ele>1283</ele>
        <time>2014-06-22T03:53:24Z</time>
      </trkpt>
      <trkpt lat="47.99446" lon="6.98062">
        <ele>1283</ele>
        <time>2014-06-22T03:53:37Z</time>
      </trkpt>
      <trkpt lat="47.99437" lon="6.98063">
        <ele>1284</ele>
        <time>2014-06-22T03:53:49Z</time>
      </trkpt>
      <trkpt lat="47.99427" lon="6.98058">
        <ele>1284</ele>
        <time>2014-06-22T03:54:02Z</time>
      </trkpt>
      <trkpt lat="47.99419" lon="6.98059">
        <ele>1284</ele>
        <time>2014-06-22T03:54:12Z</time>
      </trkpt>
      <trkpt lat="47.99408" lon="6.98056">
        <ele>1286</ele>
        <time>2014-06-22T03:54:24Z</time>
      </trkpt>
      <trkpt lat="47.99394" lon="6.98051">
        <ele>1286</ele>
        <time>2014-06-22T03:54:36Z</time>
      </trkpt>
      <trkpt lat="47.99388" lon="6.98049">
        <ele>1286</ele>
        <time>2014-06-22T03:54:42Z</time>
      </trkpt>
      <trkpt lat="47.99378" lon="6.98048">
        <ele>1286</ele>
        <time>2014-06-22T03:54:52Z</time>
      </trkpt>
      <trkpt lat="47.99368" lon="6.98051">
        <ele>1286</ele>
        <time>2014-06-22T03:55:03Z</time>
      </trkpt>
      <trkpt lat="47.99359" lon="6.98056">
        <ele>1286</ele>
        <time>2014-06-22T03:55:17Z</time>
      </trkpt>
      <trkpt lat="47.99356" lon="6.98057">
        <ele>1286</ele>
        <time>2014-06-22T03:55:21Z</time>
      </trkpt>
      <trkpt lat="47.99349" lon="6.98058">
        <ele>1286</ele>
        <time>2014-06-22T03:55:27Z</time>
      </trkpt>
      <trkpt lat="47.99337" lon="6.98062">
        <ele>1287</ele>
        <time>2014-06-22T03:55:38Z</time>
      </trkpt>
      <trkpt lat="47.99324" lon="6.98066">
        <ele>1283</ele>
        <time>2014-06-22T03:55:48Z</time>
      </trkpt>
      <trkpt lat="47.99321" lon="6.98066">
        <ele>1283</ele>
        <time>2014-06-22T03:55:50Z</time>
      </trkpt>
      <trkpt lat="47.99317" lon="6.98066">
        <ele>1283</ele>
        <time>2014-06-22T03:55:53Z</time>
      </trkpt>
      <trkpt lat="47.99302" lon="6.9807">
        <ele>1281</ele>
        <time>2014-06-22T03:56:05Z</time>
      </trkpt>
      <trkpt lat="47.99299" lon="6.98071">
        <ele>1281</ele>
        <time>2014-06-22T03:56:08Z</time>
      </trkpt>
      <trkpt lat="47.99285" lon="6.98067">
        <ele>1279</ele>
        <time>2014-06-22T03:56:20Z</time>
      </trkpt>
      <trkpt lat="47.9928" lon="6.98069">
        <ele>1279</ele>
        <time>2014-06-22T03:56:24Z</time>
      </trkpt>
      <trkpt lat="47.99262" lon="6.98071">
        <ele>1278</ele>
        <time>2014-06-22T03:56:35Z</time>
      </trkpt>
      <trkpt lat="47.99258" lon="6.98069">
        <ele>1277</ele>
        <time>2014-06-22T03:56:39Z</time>
      </trkpt>
      <trkpt lat="47.99246" lon="6.9807">
        <ele>1272</ele>
        <time>2014-06-22T03:56:49Z</time>
      </trkpt>
      <trkpt lat="47.99242" lon="6.98072">
        <ele>1272</ele>
        <time>2014-06-22T03:56:52Z</time>
      </trkpt>
      <trkpt lat="47.9923" lon="6.98077">
        <ele>1270</ele>
        <time>2014-06-22T03:57:03Z</time>
      </trkpt>
      <trkpt lat="47.99219" lon="6.98079">
        <ele>1268</ele>
        <time>2014-06-22T03:57:12Z</time>
      </trkpt>
      <trkpt lat="47.99216" lon="6.98079">
        <ele>1268</ele>
        <time>2014-06-22T03:57:14Z</time>
      </trkpt>
      <trkpt lat="47.99203" lon="6.98082">
        <ele>1266</ele>
        <time>2014-06-22T03:57:25Z</time>
      </trkpt>
      <trkpt lat="47.99199" lon="6.98083">
        <ele>1265</ele>
        <time>2014-06-22T03:57:27Z</time>
      </trkpt>
      <trkpt lat="47.99186" lon="6.98082">
        <ele>1264</ele>
        <time>2014-06-22T03:57:37Z</time>
      </trkpt>
      <trkpt lat="47.99183" lon="6.98082">
        <ele>1263</ele>
        <time>2014-06-22T03:57:40Z</time>
      </trkpt>
      <trkpt lat="47.99168" lon="6.98085">
        <ele>1261</ele>
        <time>2014-06-22T03:57:55Z</time>
      </trkpt>
      <trkpt lat="47.99156" lon="6.98086">
        <ele>1257</ele>
        <time>2014-06-22T03:58:06Z</time>
      </trkpt>
      <trkpt lat="47.99152" lon="6.98086">
        <ele>1257</ele>
        <time>2014-06-22T03:58:08Z</time>
      </trkpt>
      <trkpt lat="47.99133" lon="6.98085">
        <ele>1254</ele>
        <time>2014-06-22T03:58:18Z</time>
      </trkpt>
      <trkpt lat="47.99117" lon="6.98082">
        <ele>1253</ele>
        <time>2014-06-22T03:58:29Z</time>
      </trkpt>
      <trkpt lat="47.991" lon="6.98079">
        <ele>1251</ele>
        <time>2014-06-22T03:58:39Z</time>
      </trkpt>
      <trkpt lat="47.99097" lon="6.98078">
        <ele>1251</ele>
        <time>2014-06-22T03:58:41Z</time>
      </trkpt>
      <trkpt lat="47.9908" lon="6.98069">
        <ele>1247</ele>
        <time>2014-06-22T03:58:53Z</time>
      </trkpt>
      <trkpt lat="47.99074" lon="6.98065">
        <ele>1247</ele>
        <time>2014-06-22T03:58:58Z</time>
      </trkpt>
      <trkpt lat="47.99064" lon="6.98061">
        <ele>1245</ele>
        <time>2014-06-22T03:59:06Z</time>
      </trkpt>
      <trkpt lat="47.99047" lon="6.98061">
        <ele>1245</ele>
        <time>2014-06-22T03:59:17Z</time>
      </trkpt>
      <trkpt lat="47.99034" lon="6.98061">
        <ele>1244</ele>
        <time>2014-06-22T03:59:27Z</time>
      </trkpt>
      <trkpt lat="47.9903" lon="6.98063">
        <ele>1244</ele>
        <time>2014-06-22T03:59:30Z</time>
      </trkpt>
      <trkpt lat="47.99015" lon="6.98061">
        <ele>1244</ele>
        <time>2014-06-22T03:59:42Z</time>
      </trkpt>
      <trkpt lat="47.99011" lon="6.9806">
        <ele>1244</ele>
        <time>2014-06-22T03:59:45Z</time>
      </trkpt>
      <trkpt lat="47.98998" lon="6.98057">
        <ele>1242</ele>
        <time>2014-06-22T03:59:55Z</time>
      </trkpt>
      <trkpt lat="47.98982" lon="6.98058">
        <ele>1242</ele>
        <time>2014-06-22T04:00:07Z</time>
      </trkpt>
      <trkpt lat="47.98978" lon="6.98057">
        <ele>1242</ele>
        <time>2014-06-22T04:00:10Z</time>
      </trkpt>
      <trkpt lat="47.98971" lon="6.98054">
        <ele>1241</ele>
        <time>2014-06-22T04:00:22Z</time>
      </trkpt>
      <trkpt lat="47.98974" lon="6.98053">
        <ele>1241</ele>
        <time>2014-06-22T04:00:26Z</time>
      </trkpt>
      <trkpt lat="47.98972" lon="6.98049">
        <ele>1241</ele>
        <time>2014-06-22T04:00:33Z</time>
      </trkpt>
      <trkpt lat="47.98973" lon="6.9803">
        <ele>1240</ele>
        <time>2014-06-22T04:00:43Z</time>
      </trkpt>
      <trkpt lat="47.9897" lon="6.98017">
        <ele>1240</ele>
        <time>2014-06-22T04:00:53Z</time>
      </trkpt>
      <trkpt lat="47.9896" lon="6.98014">
        <ele>1240</ele>
        <time>2014-06-22T04:01:05Z</time>
      </trkpt>
      <trkpt lat="47.98947" lon="6.98011">
        <ele>1240</ele>
        <time>2014-06-22T04:01:15Z</time>
      </trkpt>
      <trkpt lat="47.98934" lon="6.98006">
        <ele>1240</ele>
        <time>2014-06-22T04:01:25Z</time>
      </trkpt>
      <trkpt lat="47.98931" lon="6.98005">
        <ele>1240</ele>
        <time>2014-06-22T04:01:28Z</time>
      </trkpt>
      <trkpt lat="47.98923" lon="6.97999">
        <ele>1237</ele>
        <time>2014-06-22T04:01:38Z</time>
      </trkpt>
      <trkpt lat="47.9892" lon="6.97998">
        <ele>1237</ele>
        <time>2014-06-22T04:01:41Z</time>
      </trkpt>
      <trkpt lat="47.98917" lon="6.97998">
        <ele>1238</ele>
        <time>2014-06-22T04:01:43Z</time>
      </trkpt>
      <trkpt lat="47.98914" lon="6.97999">
        <ele>1238</ele>
        <time>2014-06-22T04:01:45Z</time>
      </trkpt>
      <trkpt lat="47.98904" lon="6.98">
        <ele>1236</ele>
        <time>2014-06-22T04:01:55Z</time>
      </trkpt>
      <trkpt lat="47.98902" lon="6.98">
        <ele>1240</ele>
        <time>2014-06-22T04:01:57Z</time>
      </trkpt>
      <trkpt lat="47.98892" lon="6.98002">
        <ele>1240</ele>
        <time>2014-06-22T04:02:06Z</time>
      </trkpt>
      <trkpt lat="47.98878" lon="6.98003">
        <ele>1240</ele>
        <time>2014-06-22T04:02:16Z</time>
      </trkpt>
      <trkpt lat="47.98862" lon="6.98">
        <ele>1240</ele>
        <time>2014-06-22T04:02:28Z</time>
      </trkpt>
      <trkpt lat="47.98856" lon="6.97998">
        <ele>1235</ele>
        <time>2014-06-22T04:02:33Z</time>
      </trkpt>
      <trkpt lat="47.98844" lon="6.97988">
        <ele>1235</ele>
        <time>2014-06-22T04:02:45Z</time>
      </trkpt>
      <trkpt lat="47.98844" lon="6.97984">
        <ele>1235</ele>
        <time>2014-06-22T04:02:48Z</time>
      </trkpt>
      <trkpt lat="47.98842" lon="6.9798">
        <ele>1234</ele>
        <time>2014-06-22T04:02:50Z</time>
      </trkpt>
      <trkpt lat="47.98834" lon="6.97972">
        <ele>1233</ele>
        <time>2014-06-22T04:02:58Z</time>
      </trkpt>
      <trkpt lat="47.98818" lon="6.97971">
        <ele>1233</ele>
        <time>2014-06-22T04:03:10Z</time>
      </trkpt>
      <trkpt lat="47.98814" lon="6.9797">
        <ele>1233</ele>
        <time>2014-06-22T04:03:13Z</time>
      </trkpt>
      <trkpt lat="47.98801" lon="6.97972">
        <ele>1233</ele>
        <time>2014-06-22T04:03:25Z</time>
      </trkpt>
      <trkpt lat="47.9879" lon="6.97968">
        <ele>1232</ele>
        <time>2014-06-22T04:03:34Z</time>
      </trkpt>
      <trkpt lat="47.98779" lon="6.97969">
        <ele>1232</ele>
        <time>2014-06-22T04:03:44Z</time>
      </trkpt>
      <trkpt lat="47.98765" lon="6.97971">
        <ele>1233</ele>
        <time>2014-06-22T04:03:56Z</time>
      </trkpt>
      <trkpt lat="47.98757" lon="6.97974">
        <ele>1233</ele>
        <time>2014-06-22T04:04:05Z</time>
      </trkpt>
      <trkpt lat="47.98743" lon="6.97973">
        <ele>1231</ele>
        <time>2014-06-22T04:04:16Z</time>
      </trkpt>
      <trkpt lat="47.98735" lon="6.97971">
        <ele>1231</ele>
        <time>2014-06-22T04:04:22Z</time>
      </trkpt>
      <trkpt lat="47.98732" lon="6.97974">
        <ele>1231</ele>
        <time>2014-06-22T04:04:25Z</time>
      </trkpt>
      <trkpt lat="47.98728" lon="6.97981">
        <ele>1231</ele>
        <time>2014-06-22T04:04:29Z</time>
      </trkpt>
      <trkpt lat="47.98726" lon="6.97985">
        <ele>1231</ele>
        <time>2014-06-22T04:04:31Z</time>
      </trkpt>
      <trkpt lat="47.98716" lon="6.98">
        <ele>1231</ele>
        <time>2014-06-22T04:04:41Z</time>
      </trkpt>
      <trkpt lat="47.98716" lon="6.98005">
        <ele>1234</ele>
        <time>2014-06-22T04:04:44Z</time>
      </trkpt>
      <trkpt lat="47.98703" lon="6.98004">
        <ele>1233</ele>
        <time>2014-06-22T04:04:55Z</time>
      </trkpt>
      <trkpt lat="47.98694" lon="6.98006">
        <ele>1233</ele>
        <time>2014-06-22T04:05:01Z</time>
      </trkpt>
      <trkpt lat="47.9868" lon="6.98002">
        <ele>1232</ele>
        <time>2014-06-22T04:05:14Z</time>
      </trkpt>
      <trkpt lat="47.98678" lon="6.97998">
        <ele>1231</ele>
        <time>2014-06-22T04:05:17Z</time>
      </trkpt>
      <trkpt lat="47.98667" lon="6.97994">
        <ele>1231</ele>
        <time>2014-06-22T04:05:28Z</time>
      </trkpt>
      <trkpt lat="47.98657" lon="6.98004">
        <ele>1230</ele>
        <time>2014-06-22T04:05:37Z</time>
      </trkpt>
      <trkpt lat="47.98648" lon="6.98005">
        <ele>1229</ele>
        <time>2014-06-22T04:05:47Z</time>
      </trkpt>
      <trkpt lat="47.98631" lon="6.98007">
        <ele>1228</ele>
        <time>2014-06-22T04:05:59Z</time>
      </trkpt>
      <trkpt lat="47.98622" lon="6.98009">
        <ele>1227</ele>
        <time>2014-06-22T04:06:08Z</time>
      </trkpt>
      <trkpt lat="47.98614" lon="6.98011">
        <ele>1227</ele>
        <time>2014-06-22T04:06:14Z</time>
      </trkpt>
      <trkpt lat="47.98601" lon="6.98015">
        <ele>1226</ele>
        <time>2014-06-22T04:06:26Z</time>
      </trkpt>
      <trkpt lat="47.98592" lon="6.98018">
        <ele>1226</ele>
        <time>2014-06-22T04:06:33Z</time>
      </trkpt>
      <trkpt lat="47.98577" lon="6.98018">
        <ele>1223</ele>
        <time>2014-06-22T04:06:43Z</time>
      </trkpt>
      <trkpt lat="47.9856" lon="6.9802">
        <ele>1222</ele>
        <time>2014-06-22T04:06:56Z</time>
      </trkpt>
      <trkpt lat="47.98557" lon="6.98022">
        <ele>1222</ele>
        <time>2014-06-22T04:06:59Z</time>
      </trkpt>
      <trkpt lat="47.98547" lon="6.98026">
        <ele>1221</ele>
        <time>2014-06-22T04:07:09Z</time>
      </trkpt>
      <trkpt lat="47.98544" lon="6.98027">
        <ele>1221</ele>
        <time>2014-06-22T04:07:12Z</time>
      </trkpt>
      <trkpt lat="47.98535" lon="6.98036">
        <ele>1221</ele>
        <time>2014-06-22T04:07:22Z</time>
      </trkpt>
      <trkpt lat="47.98529" lon="6.98049">
        <ele>1220</ele>
        <time>2014-06-22T04:07:32Z</time>
      </trkpt>
      <trkpt lat="47.98519" lon="6.98061">
        <ele>1220</ele>
        <time>2014-06-22T04:07:42Z</time>
      </trkpt>
      <trkpt lat="47.98517" lon="6.98065">
        <ele>1220</ele>
        <time>2014-06-22T04:07:44Z</time>
      </trkpt>
      <trkpt lat="47.98508" lon="6.98082">
        <ele>1219</ele>
        <time>2014-06-22T04:07:55Z</time>
      </trkpt>
      <trkpt lat="47.98503" lon="6.98088">
        <ele>1218</ele>
        <time>2014-06-22T04:07:59Z</time>
      </trkpt>
      <trkpt lat="47.98493" lon="6.98104">
        <ele>1215</ele>
        <time>2014-06-22T04:08:09Z</time>
      </trkpt>
      <trkpt lat="47.98491" lon="6.98107">
        <ele>1215</ele>
        <time>2014-06-22T04:08:11Z</time>
      </trkpt>
      <trkpt lat="47.98479" lon="6.98122">
        <ele>1214</ele>
        <time>2014-06-22T04:08:22Z</time>
      </trkpt>
      <trkpt lat="47.98468" lon="6.98138">
        <ele>1214</ele>
        <time>2014-06-22T04:08:33Z</time>
      </trkpt>
      <trkpt lat="47.98456" lon="6.98153">
        <ele>1214</ele>
        <time>2014-06-22T04:08:43Z</time>
      </trkpt>
      <trkpt lat="47.98453" lon="6.98157">
        <ele>1214</ele>
        <time>2014-06-22T04:08:46Z</time>
      </trkpt>
      <trkpt lat="47.98441" lon="6.98169">
        <ele>1213</ele>
        <time>2014-06-22T04:08:58Z</time>
      </trkpt>
      <trkpt lat="47.98438" lon="6.98172">
        <ele>1213</ele>
        <time>2014-06-22T04:09:01Z</time>
      </trkpt>
      <trkpt lat="47.9843" lon="6.98182">
        <ele>1213</ele>
        <time>2014-06-22T04:09:11Z</time>
      </trkpt>
      <trkpt lat="47.98417" lon="6.98194">
        <ele>1213</ele>
        <time>2014-06-22T04:09:21Z</time>
      </trkpt>
      <trkpt lat="47.98405" lon="6.98205">
        <ele>1215</ele>
        <time>2014-06-22T04:09:32Z</time>
      </trkpt>
      <trkpt lat="47.98402" lon="6.98206">
        <ele>1215</ele>
        <time>2014-06-22T04:09:44Z</time>
      </trkpt>
      <trkpt lat="47.98391" lon="6.98218">
        <ele>1215</ele>
        <time>2014-06-22T04:09:56Z</time>
      </trkpt>
      <trkpt lat="47.98384" lon="6.98237">
        <ele>1215</ele>
        <time>2014-06-22T04:10:08Z</time>
      </trkpt>
      <trkpt lat="47.98376" lon="6.98255">
        <ele>1215</ele>
        <time>2014-06-22T04:10:20Z</time>
      </trkpt>
      <trkpt lat="47.98369" lon="6.98271">
        <ele>1215</ele>
        <time>2014-06-22T04:10:31Z</time>
      </trkpt>
      <trkpt lat="47.98357" lon="6.98281">
        <ele>1215</ele>
        <time>2014-06-22T04:10:43Z</time>
      </trkpt>
      <trkpt lat="47.98346" lon="6.9829">
        <ele>1215</ele>
        <time>2014-06-22T04:10:54Z</time>
      </trkpt>
      <trkpt lat="47.98343" lon="6.98292">
        <ele>1215</ele>
        <time>2014-06-22T04:10:56Z</time>
      </trkpt>
      <trkpt lat="47.98334" lon="6.98304">
        <ele>1215</ele>
        <time>2014-06-22T04:11:06Z</time>
      </trkpt>
      <trkpt lat="47.98326" lon="6.98321">
        <ele>1215</ele>
        <time>2014-06-22T04:11:17Z</time>
      </trkpt>
      <trkpt lat="47.98323" lon="6.98323">
        <ele>1215</ele>
        <time>2014-06-22T04:11:20Z</time>
      </trkpt>
      <trkpt lat="47.98316" lon="6.98327">
        <ele>1215</ele>
        <time>2014-06-22T04:11:25Z</time>
      </trkpt>
      <trkpt lat="47.98305" lon="6.98334">
        <ele>1211</ele>
        <time>2014-06-22T04:11:35Z</time>
      </trkpt>
      <trkpt lat="47.98292" lon="6.98333">
        <ele>1215</ele>
        <time>2014-06-22T04:11:44Z</time>
      </trkpt>
      <trkpt lat="47.98289" lon="6.98331">
        <ele>1214</ele>
        <time>2014-06-22T04:11:47Z</time>
      </trkpt>
      <trkpt lat="47.98276" lon="6.98334">
        <ele>1211</ele>
        <time>2014-06-22T04:11:57Z</time>
      </trkpt>
      <trkpt lat="47.9827" lon="6.98341">
        <ele>1211</ele>
        <time>2014-06-22T04:12:09Z</time>
      </trkpt>
      <trkpt lat="47.98258" lon="6.98342">
        <ele>1212</ele>
        <time>2014-06-22T04:12:21Z</time>
      </trkpt>
      <trkpt lat="47.98255" lon="6.98344">
        <ele>1212</ele>
        <time>2014-06-22T04:12:24Z</time>
      </trkpt>
      <trkpt lat="47.98248" lon="6.98353">
        <ele>1210</ele>
        <time>2014-06-22T04:12:34Z</time>
      </trkpt>
      <trkpt lat="47.98245" lon="6.98355">
        <ele>1209</ele>
        <time>2014-06-22T04:15:35Z</time>
      </trkpt>
      <trkpt lat="47.98242" lon="6.98358">
        <ele>1209</ele>
        <time>2014-06-22T04:15:39Z</time>
      </trkpt>
      <trkpt lat="47.9823" lon="6.98364">
        <ele>1208</ele>
        <time>2014-06-22T04:15:50Z</time>
      </trkpt>
      <trkpt lat="47.98212" lon="6.98368">
        <ele>1207</ele>
        <time>2014-06-22T04:16:02Z</time>
      </trkpt>
      <trkpt lat="47.98209" lon="6.98368">
        <ele>1207</ele>
        <time>2014-06-22T04:16:05Z</time>
      </trkpt>
      <trkpt lat="47.98196" lon="6.98373">
        <ele>1206</ele>
        <time>2014-06-22T04:16:17Z</time>
      </trkpt>
      <trkpt lat="47.9819" lon="6.98376">
        <ele>1206</ele>
        <time>2014-06-22T04:16:23Z</time>
      </trkpt>
      <trkpt lat="47.98173" lon="6.9838">
        <ele>1205</ele>
        <time>2014-06-22T04:16:35Z</time>
      </trkpt>
      <trkpt lat="47.98161" lon="6.98384">
        <ele>1200</ele>
        <time>2014-06-22T04:16:45Z</time>
      </trkpt>
      <trkpt lat="47.98157" lon="6.98385">
        <ele>1200</ele>
        <time>2014-06-22T04:16:48Z</time>
      </trkpt>
      <trkpt lat="47.98144" lon="6.9839">
        <ele>1200</ele>
        <time>2014-06-22T04:16:58Z</time>
      </trkpt>
      <trkpt lat="47.98131" lon="6.98396">
        <ele>1199</ele>
        <time>2014-06-22T04:17:08Z</time>
      </trkpt>
      <trkpt lat="47.98125" lon="6.98396">
        <ele>1198</ele>
        <time>2014-06-22T04:17:12Z</time>
      </trkpt>
      <trkpt lat="47.98118" lon="6.98398">
        <ele>1198</ele>
        <time>2014-06-22T04:17:19Z</time>
      </trkpt>
      <trkpt lat="47.98105" lon="6.98403">
        <ele>1197</ele>
        <time>2014-06-22T04:17:29Z</time>
      </trkpt>
      <trkpt lat="47.98096" lon="6.9841">
        <ele>1195</ele>
        <time>2014-06-22T04:17:39Z</time>
      </trkpt>
      <trkpt lat="47.98094" lon="6.98413">
        <ele>1195</ele>
        <time>2014-06-22T04:17:44Z</time>
      </trkpt>
      <trkpt lat="47.98082" lon="6.98423">
        <ele>1192</ele>
        <time>2014-06-22T04:17:56Z</time>
      </trkpt>
      <trkpt lat="47.98073" lon="6.98427">
        <ele>1191</ele>
        <time>2014-06-22T04:18:03Z</time>
      </trkpt>
      <trkpt lat="47.98064" lon="6.98435">
        <ele>1191</ele>
        <time>2014-06-22T04:18:12Z</time>
      </trkpt>
      <trkpt lat="47.98051" lon="6.98443">
        <ele>1190</ele>
        <time>2014-06-22T04:18:22Z</time>
      </trkpt>
      <trkpt lat="47.98039" lon="6.9845">
        <ele>1189</ele>
        <time>2014-06-22T04:18:32Z</time>
      </trkpt>
      <trkpt lat="47.98036" lon="6.98453">
        <ele>1189</ele>
        <time>2014-06-22T04:18:35Z</time>
      </trkpt>
      <trkpt lat="47.98027" lon="6.98458">
        <ele>1189</ele>
        <time>2014-06-22T04:18:43Z</time>
      </trkpt>
      <trkpt lat="47.98011" lon="6.98469">
        <ele>1188</ele>
        <time>2014-06-22T04:18:54Z</time>
      </trkpt>
      <trkpt lat="47.98004" lon="6.98474">
        <ele>1188</ele>
        <time>2014-06-22T04:19:00Z</time>
      </trkpt>
      <trkpt lat="47.97992" lon="6.98481">
        <ele>1185</ele>
        <time>2014-06-22T04:19:10Z</time>
      </trkpt>
      <trkpt lat="47.97988" lon="6.98483">
        <ele>1185</ele>
        <time>2014-06-22T04:19:12Z</time>
      </trkpt>
      <trkpt lat="47.9798" lon="6.98489">
        <ele>1185</ele>
        <time>2014-06-22T04:19:18Z</time>
      </trkpt>
      <trkpt lat="47.97968" lon="6.98499">
        <ele>1185</ele>
        <time>2014-06-22T04:19:29Z</time>
      </trkpt>
      <trkpt lat="47.97958" lon="6.98506">
        <ele>1186</ele>
        <time>2014-06-22T04:19:38Z</time>
      </trkpt>
      <trkpt lat="47.97947" lon="6.98515">
        <ele>1186</ele>
        <time>2014-06-22T04:19:50Z</time>
      </trkpt>
      <trkpt lat="47.97934" lon="6.98522">
        <ele>1187</ele>
        <time>2014-06-22T04:20:01Z</time>
      </trkpt>
      <trkpt lat="47.97921" lon="6.9853">
        <ele>1187</ele>
        <time>2014-06-22T04:20:13Z</time>
      </trkpt>
      <trkpt lat="47.9791" lon="6.9854">
        <ele>1192</ele>
        <time>2014-06-22T04:20:23Z</time>
      </trkpt>
      <trkpt lat="47.97896" lon="6.98548">
        <ele>1192</ele>
        <time>2014-06-22T04:20:33Z</time>
      </trkpt>
      <trkpt lat="47.97892" lon="6.9855">
        <ele>1193</ele>
        <time>2014-06-22T04:20:36Z</time>
      </trkpt>
      <trkpt lat="47.97878" lon="6.98554">
        <ele>1193</ele>
        <time>2014-06-22T04:20:48Z</time>
      </trkpt>
      <trkpt lat="47.97874" lon="6.98549">
        <ele>1194</ele>
        <time>2014-06-22T04:20:53Z</time>
      </trkpt>
      <trkpt lat="47.97876" lon="6.98535">
        <ele>1193</ele>
        <time>2014-06-22T04:21:00Z</time>
      </trkpt>
      <trkpt lat="47.9788" lon="6.98517">
        <ele>1193</ele>
        <time>2014-06-22T04:21:10Z</time>
      </trkpt>
      <trkpt lat="47.97879" lon="6.98503">
        <ele>1193</ele>
        <time>2014-06-22T04:21:20Z</time>
      </trkpt>
      <trkpt lat="47.97876" lon="6.98504">
        <ele>1193</ele>
        <time>2014-06-22T04:21:24Z</time>
      </trkpt>
      <trkpt lat="47.97873" lon="6.98515">
        <ele>1193</ele>
        <time>2014-06-22T04:22:57Z</time>
      </trkpt>
      <trkpt lat="47.97872" lon="6.98518">
        <ele>1193</ele>
        <time>2014-06-22T04:36:50Z</time>
      </trkpt>
      <trkpt lat="47.97873" lon="6.98521">
        <ele>1193</ele>
        <time>2014-06-22T04:47:43Z</time>
      </trkpt>
      <trkpt lat="47.97871" lon="6.98521">
        <ele>1193</ele>
        <time>2014-06-22T04:49:17Z</time>
      </trkpt>
      <trkpt lat="47.97871" lon="6.98517">
        <ele>1193</ele>
        <time>2014-06-22T04:49:59Z</time>
      </trkpt>
      <trkpt lat="47.97874" lon="6.98511">
        <ele>1193</ele>
        <time>2014-06-22T04:50:11Z</time>
      </trkpt>
      <trkpt lat="47.97875" lon="6.98524">
        <ele>1193</ele>
        <time>2014-06-22T04:50:21Z</time>
      </trkpt>
      <trkpt lat="47.97873" lon="6.98537">
        <ele>1194</ele>
        <time>2014-06-22T04:50:31Z</time>
      </trkpt>
      <trkpt lat="47.97875" lon="6.98552">
        <ele>1194</ele>
        <time>2014-06-22T04:50:42Z</time>
      </trkpt>
      <trkpt lat="47.97869" lon="6.98561">
        <ele>1194</ele>
        <time>2014-06-22T04:50:54Z</time>
      </trkpt>
      <trkpt lat="47.97859" lon="6.98573">
        <ele>1195</ele>
        <time>2014-06-22T04:51:06Z</time>
      </trkpt>
      <trkpt lat="47.97846" lon="6.9858">
        <ele>1197</ele>
        <time>2014-06-22T04:51:18Z</time>
      </trkpt>
      <trkpt lat="47.97835" lon="6.98592">
        <ele>1199</ele>
        <time>2014-06-22T04:51:30Z</time>
      </trkpt>
      <trkpt lat="47.97824" lon="6.98602">
        <ele>1203</ele>
        <time>2014-06-22T04:51:42Z</time>
      </trkpt>
      <trkpt lat="47.97812" lon="6.98613">
        <ele>1204</ele>
        <time>2014-06-22T04:51:54Z</time>
      </trkpt>
      <trkpt lat="47.97801" lon="6.98624">
        <ele>1205</ele>
        <time>2014-06-22T04:52:06Z</time>
      </trkpt>
      <trkpt lat="47.97792" lon="6.98632">
        <ele>1205</ele>
        <time>2014-06-22T04:52:16Z</time>
      </trkpt>
      <trkpt lat="47.97784" lon="6.98639">
        <ele>1206</ele>
        <time>2014-06-22T04:52:26Z</time>
      </trkpt>
      <trkpt lat="47.97771" lon="6.98649">
        <ele>1207</ele>
        <time>2014-06-22T04:52:38Z</time>
      </trkpt>
      <trkpt lat="47.97759" lon="6.9866">
        <ele>1209</ele>
        <time>2014-06-22T04:52:50Z</time>
      </trkpt>
      <trkpt lat="47.97752" lon="6.98666">
        <ele>1211</ele>
        <time>2014-06-22T04:52:59Z</time>
      </trkpt>
      <trkpt lat="47.97742" lon="6.98679">
        <ele>1215</ele>
        <time>2014-06-22T04:53:11Z</time>
      </trkpt>
      <trkpt lat="47.9773" lon="6.98692">
        <ele>1217</ele>
        <time>2014-06-22T04:53:23Z</time>
      </trkpt>
      <trkpt lat="47.97719" lon="6.98702">
        <ele>1218</ele>
        <time>2014-06-22T04:53:35Z</time>
      </trkpt>
      <trkpt lat="47.9771" lon="6.98715">
        <ele>1219</ele>
        <time>2014-06-22T04:53:47Z</time>
      </trkpt>
      <trkpt lat="47.977" lon="6.9873">
        <ele>1221</ele>
        <time>2014-06-22T04:53:59Z</time>
      </trkpt>
      <trkpt lat="47.97693" lon="6.98739">
        <ele>1222</ele>
        <time>2014-06-22T04:54:09Z</time>
      </trkpt>
      <trkpt lat="47.97689" lon="6.98751">
        <ele>1226</ele>
        <time>2014-06-22T04:54:18Z</time>
      </trkpt>
      <trkpt lat="47.97682" lon="6.98761">
        <ele>1226</ele>
        <time>2014-06-22T04:54:32Z</time>
      </trkpt>
      <trkpt lat="47.97675" lon="6.9877">
        <ele>1227</ele>
        <time>2014-06-22T04:54:43Z</time>
      </trkpt>
      <trkpt lat="47.97671" lon="6.98778">
        <ele>1227</ele>
        <time>2014-06-22T04:54:52Z</time>
      </trkpt>
      <trkpt lat="47.97661" lon="6.98791">
        <ele>1233</ele>
        <time>2014-06-22T04:55:04Z</time>
      </trkpt>
      <trkpt lat="47.97655" lon="6.98803">
        <ele>1234</ele>
        <time>2014-06-22T04:55:14Z</time>
      </trkpt>
      <trkpt lat="47.97645" lon="6.98816">
        <ele>1235</ele>
        <time>2014-06-22T04:55:24Z</time>
      </trkpt>
      <trkpt lat="47.97634" lon="6.98827">
        <ele>1236</ele>
        <time>2014-06-22T04:55:36Z</time>
      </trkpt>
      <trkpt lat="47.97625" lon="6.98831">
        <ele>1236</ele>
        <time>2014-06-22T04:55:46Z</time>
      </trkpt>
      <trkpt lat="47.97616" lon="6.98848">
        <ele>1242</ele>
        <time>2014-06-22T04:55:58Z</time>
      </trkpt>
      <trkpt lat="47.97607" lon="6.98863">
        <ele>1243</ele>
        <time>2014-06-22T04:56:08Z</time>
      </trkpt>
      <trkpt lat="47.97599" lon="6.98877">
        <ele>1244</ele>
        <time>2014-06-22T04:56:21Z</time>
      </trkpt>
      <trkpt lat="47.97592" lon="6.98886">
        <ele>1245</ele>
        <time>2014-06-22T04:56:34Z</time>
      </trkpt>
      <trkpt lat="47.97584" lon="6.98895">
        <ele>1246</ele>
        <time>2014-06-22T04:56:44Z</time>
      </trkpt>
      <trkpt lat="47.97573" lon="6.98902">
        <ele>1251</ele>
        <time>2014-06-22T04:56:56Z</time>
      </trkpt>
      <trkpt lat="47.97566" lon="6.98918">
        <ele>1255</ele>
        <time>2014-06-22T04:57:08Z</time>
      </trkpt>
      <trkpt lat="47.97559" lon="6.98933">
        <ele>1256</ele>
        <time>2014-06-22T04:57:20Z</time>
      </trkpt>
      <trkpt lat="47.97548" lon="6.98942">
        <ele>1257</ele>
        <time>2014-06-22T04:57:32Z</time>
      </trkpt>
      <trkpt lat="47.9754" lon="6.9895">
        <ele>1258</ele>
        <time>2014-06-22T04:57:41Z</time>
      </trkpt>
      <trkpt lat="47.97532" lon="6.98959">
        <ele>1259</ele>
        <time>2014-06-22T04:57:53Z</time>
      </trkpt>
      <trkpt lat="47.97525" lon="6.98968">
        <ele>1259</ele>
        <time>2014-06-22T04:58:03Z</time>
      </trkpt>
      <trkpt lat="47.9752" lon="6.9898">
        <ele>1260</ele>
        <time>2014-06-22T05:01:03Z</time>
      </trkpt>
      <trkpt lat="47.97512" lon="6.98993">
        <ele>1262</ele>
        <time>2014-06-22T05:01:16Z</time>
      </trkpt>
      <trkpt lat="47.97503" lon="6.99002">
        <ele>1265</ele>
        <time>2014-06-22T05:01:25Z</time>
      </trkpt>
      <trkpt lat="47.97494" lon="6.99016">
        <ele>1263</ele>
        <time>2014-06-22T05:01:35Z</time>
      </trkpt>
      <trkpt lat="47.97484" lon="6.99029">
        <ele>1262</ele>
        <time>2014-06-22T05:01:46Z</time>
      </trkpt>
      <trkpt lat="47.97474" lon="6.99039">
        <ele>1262</ele>
        <time>2014-06-22T05:05:14Z</time>
      </trkpt>
      <trkpt lat="47.97471" lon="6.9904">
        <ele>1262</ele>
        <time>2014-06-22T05:05:32Z</time>
      </trkpt>
      <trkpt lat="47.97467" lon="6.99045">
        <ele>1261</ele>
        <time>2014-06-22T05:05:41Z</time>
      </trkpt>
      <trkpt lat="47.97459" lon="6.99053">
        <ele>1261</ele>
        <time>2014-06-22T05:05:52Z</time>
      </trkpt>
      <trkpt lat="47.97449" lon="6.99063">
        <ele>1261</ele>
        <time>2014-06-22T05:06:05Z</time>
      </trkpt>
      <trkpt lat="47.97437" lon="6.99068">
        <ele>1261</ele>
        <time>2014-06-22T05:06:17Z</time>
      </trkpt>
      <trkpt lat="47.97427" lon="6.99074">
        <ele>1261</ele>
        <time>2014-06-22T05:06:26Z</time>
      </trkpt>
      <trkpt lat="47.97413" lon="6.9908">
        <ele>1261</ele>
        <time>2014-06-22T05:06:38Z</time>
      </trkpt>
      <trkpt lat="47.974" lon="6.99088">
        <ele>1259</ele>
        <time>2014-06-22T05:06:49Z</time>
      </trkpt>
      <trkpt lat="47.97386" lon="6.99094">
        <ele>1258</ele>
        <time>2014-06-22T05:07:00Z</time>
      </trkpt>
      <trkpt lat="47.97373" lon="6.99101">
        <ele>1257</ele>
        <time>2014-06-22T05:07:12Z</time>
      </trkpt>
      <trkpt lat="47.9736" lon="6.99108">
        <ele>1257</ele>
        <time>2014-06-22T05:07:24Z</time>
      </trkpt>
      <trkpt lat="47.97346" lon="6.99115">
        <ele>1257</ele>
        <time>2014-06-22T05:07:36Z</time>
      </trkpt>
      <trkpt lat="47.97343" lon="6.99117">
        <ele>1257</ele>
        <time>2014-06-22T05:07:48Z</time>
      </trkpt>
      <trkpt lat="47.97329" lon="6.99125">
        <ele>1256</ele>
        <time>2014-06-22T05:08:00Z</time>
      </trkpt>
      <trkpt lat="47.97316" lon="6.99127">
        <ele>1256</ele>
        <time>2014-06-22T05:08:10Z</time>
      </trkpt>
      <trkpt lat="47.97301" lon="6.99129">
        <ele>1255</ele>
        <time>2014-06-22T05:08:21Z</time>
      </trkpt>
      <trkpt lat="47.97287" lon="6.9913">
        <ele>1255</ele>
        <time>2014-06-22T05:08:32Z</time>
      </trkpt>
      <trkpt lat="47.97271" lon="6.9913">
        <ele>1254</ele>
        <time>2014-06-22T05:08:44Z</time>
      </trkpt>
      <trkpt lat="47.97258" lon="6.99131">
        <ele>1254</ele>
        <time>2014-06-22T05:08:56Z</time>
      </trkpt>
      <trkpt lat="47.97243" lon="6.99133">
        <ele>1249</ele>
        <time>2014-06-22T05:09:08Z</time>
      </trkpt>
      <trkpt lat="47.97232" lon="6.99134">
        <ele>1249</ele>
        <time>2014-06-22T05:09:16Z</time>
      </trkpt>
      <trkpt lat="47.97218" lon="6.99135">
        <ele>1248</ele>
        <time>2014-06-22T05:09:28Z</time>
      </trkpt>
      <trkpt lat="47.97205" lon="6.99138">
        <ele>1248</ele>
        <time>2014-06-22T05:09:39Z</time>
      </trkpt>
      <trkpt lat="47.97194" lon="6.99138">
        <ele>1247</ele>
        <time>2014-06-22T05:09:50Z</time>
      </trkpt>
      <trkpt lat="47.97181" lon="6.99139">
        <ele>1247</ele>
        <time>2014-06-22T05:10:00Z</time>
      </trkpt>
      <trkpt lat="47.97167" lon="6.99141">
        <ele>1246</ele>
        <time>2014-06-22T05:10:10Z</time>
      </trkpt>
      <trkpt lat="47.97152" lon="6.99145">
        <ele>1243</ele>
        <time>2014-06-22T05:10:22Z</time>
      </trkpt>
      <trkpt lat="47.97137" lon="6.99153">
        <ele>1242</ele>
        <time>2014-06-22T05:10:34Z</time>
      </trkpt>
      <trkpt lat="47.97124" lon="6.99162">
        <ele>1242</ele>
        <time>2014-06-22T05:10:46Z</time>
      </trkpt>
      <trkpt lat="47.97117" lon="6.99165">
        <ele>1241</ele>
        <time>2014-06-22T05:10:51Z</time>
      </trkpt>
      <trkpt lat="47.97105" lon="6.99173">
        <ele>1241</ele>
        <time>2014-06-22T05:11:01Z</time>
      </trkpt>
      <trkpt lat="47.97103" lon="6.99174">
        <ele>1241</ele>
        <time>2014-06-22T05:11:03Z</time>
      </trkpt>
      <trkpt lat="47.97087" lon="6.99183">
        <ele>1241</ele>
        <time>2014-06-22T05:11:15Z</time>
      </trkpt>
      <trkpt lat="47.97081" lon="6.99187">
        <ele>1240</ele>
        <time>2014-06-22T05:11:19Z</time>
      </trkpt>
      <trkpt lat="47.97068" lon="6.99195">
        <ele>1239</ele>
        <time>2014-06-22T05:11:30Z</time>
      </trkpt>
      <trkpt lat="47.97054" lon="6.99201">
        <ele>1239</ele>
        <time>2014-06-22T05:11:42Z</time>
      </trkpt>
      <trkpt lat="47.97039" lon="6.99203">
        <ele>1238</ele>
        <time>2014-06-22T05:11:54Z</time>
      </trkpt>
      <trkpt lat="47.97023" lon="6.99204">
        <ele>1238</ele>
        <time>2014-06-22T05:12:06Z</time>
      </trkpt>
      <trkpt lat="47.97013" lon="6.99206">
        <ele>1238</ele>
        <time>2014-06-22T05:12:14Z</time>
      </trkpt>
      <trkpt lat="47.96996" lon="6.99212">
        <ele>1236</ele>
        <time>2014-06-22T05:12:28Z</time>
      </trkpt>
      <trkpt lat="47.96979" lon="6.99212">
        <ele>1236</ele>
        <time>2014-06-22T05:12:40Z</time>
      </trkpt>
      <trkpt lat="47.96964" lon="6.99217">
        <ele>1235</ele>
        <time>2014-06-22T05:12:52Z</time>
      </trkpt>
      <trkpt lat="47.96961" lon="6.99219">
        <ele>1235</ele>
        <time>2014-06-22T05:12:55Z</time>
      </trkpt>
      <trkpt lat="47.96945" lon="6.99222">
        <ele>1235</ele>
        <time>2014-06-22T05:13:06Z</time>
      </trkpt>
      <trkpt lat="47.96933" lon="6.9923">
        <ele>1235</ele>
        <time>2014-06-22T05:13:17Z</time>
      </trkpt>
      <trkpt lat="47.96931" lon="6.99234">
        <ele>1235</ele>
        <time>2014-06-22T05:13:19Z</time>
      </trkpt>
      <trkpt lat="47.96922" lon="6.99248">
        <ele>1234</ele>
        <time>2014-06-22T05:13:29Z</time>
      </trkpt>
      <trkpt lat="47.96911" lon="6.9926">
        <ele>1230</ele>
        <time>2014-06-22T05:13:40Z</time>
      </trkpt>
      <trkpt lat="47.96902" lon="6.99278">
        <ele>1227</ele>
        <time>2014-06-22T05:13:52Z</time>
      </trkpt>
      <trkpt lat="47.96892" lon="6.9929">
        <ele>1225</ele>
        <time>2014-06-22T05:14:04Z</time>
      </trkpt>
      <trkpt lat="47.96886" lon="6.993">
        <ele>1224</ele>
        <time>2014-06-22T05:14:16Z</time>
      </trkpt>
      <trkpt lat="47.96884" lon="6.99303">
        <ele>1224</ele>
        <time>2014-06-22T05:14:20Z</time>
      </trkpt>
      <trkpt lat="47.96878" lon="6.99313">
        <ele>1223</ele>
        <time>2014-06-22T05:14:32Z</time>
      </trkpt>
      <trkpt lat="47.96869" lon="6.99315">
        <ele>1222</ele>
        <time>2014-06-22T05:14:42Z</time>
      </trkpt>
      <trkpt lat="47.9686" lon="6.99322">
        <ele>1220</ele>
        <time>2014-06-22T05:14:52Z</time>
      </trkpt>
      <trkpt lat="47.9685" lon="6.99333">
        <ele>1218</ele>
        <time>2014-06-22T05:15:04Z</time>
      </trkpt>
      <trkpt lat="47.96845" lon="6.99347">
        <ele>1214</ele>
        <time>2014-06-22T05:15:13Z</time>
      </trkpt>
      <trkpt lat="47.96844" lon="6.99365">
        <ele>1214</ele>
        <time>2014-06-22T05:15:25Z</time>
      </trkpt>
      <trkpt lat="47.9684" lon="6.99378">
        <ele>1212</ele>
        <time>2014-06-22T05:15:36Z</time>
      </trkpt>
      <trkpt lat="47.96835" lon="6.99389">
        <ele>1211</ele>
        <time>2014-06-22T05:15:46Z</time>
      </trkpt>
      <trkpt lat="47.9682" lon="6.99401">
        <ele>1202</ele>
        <time>2014-06-22T05:15:59Z</time>
      </trkpt>
      <trkpt lat="47.96808" lon="6.99415">
        <ele>1200</ele>
        <time>2014-06-22T05:16:11Z</time>
      </trkpt>
      <trkpt lat="47.96798" lon="6.99429">
        <ele>1197</ele>
        <time>2014-06-22T05:16:21Z</time>
      </trkpt>
      <trkpt lat="47.96796" lon="6.99432">
        <ele>1197</ele>
        <time>2014-06-22T05:16:24Z</time>
      </trkpt>
      <trkpt lat="47.96784" lon="6.99442">
        <ele>1196</ele>
        <time>2014-06-22T05:16:34Z</time>
      </trkpt>
      <trkpt lat="47.96774" lon="6.99454">
        <ele>1195</ele>
        <time>2014-06-22T05:16:44Z</time>
      </trkpt>
      <trkpt lat="47.96763" lon="6.99465">
        <ele>1195</ele>
        <time>2014-06-22T05:16:56Z</time>
      </trkpt>
      <trkpt lat="47.96757" lon="6.9947">
        <ele>1195</ele>
        <time>2014-06-22T05:17:16Z</time>
      </trkpt>
      <trkpt lat="47.96745" lon="6.99479">
        <ele>1189</ele>
        <time>2014-06-22T05:17:27Z</time>
      </trkpt>
      <trkpt lat="47.96731" lon="6.99492">
        <ele>1189</ele>
        <time>2014-06-22T05:17:39Z</time>
      </trkpt>
      <trkpt lat="47.96719" lon="6.99499">
        <ele>1188</ele>
        <time>2014-06-22T05:17:49Z</time>
      </trkpt>
      <trkpt lat="47.96705" lon="6.99507">
        <ele>1191</ele>
        <time>2014-06-22T05:18:00Z</time>
      </trkpt>
      <trkpt lat="47.96702" lon="6.99509">
        <ele>1191</ele>
        <time>2014-06-22T05:18:02Z</time>
      </trkpt>
      <trkpt lat="47.96691" lon="6.99516">
        <ele>1190</ele>
        <time>2014-06-22T05:18:12Z</time>
      </trkpt>
      <trkpt lat="47.9668" lon="6.99531">
        <ele>1190</ele>
        <time>2014-06-22T05:18:23Z</time>
      </trkpt>
      <trkpt lat="47.9667" lon="6.99547">
        <ele>1192</ele>
        <time>2014-06-22T05:18:35Z</time>
      </trkpt>
      <trkpt lat="47.96659" lon="6.99559">
        <ele>1191</ele>
        <time>2014-06-22T05:18:45Z</time>
      </trkpt>
      <trkpt lat="47.96648" lon="6.99573">
        <ele>1191</ele>
        <time>2014-06-22T05:18:55Z</time>
      </trkpt>
      <trkpt lat="47.96638" lon="6.99587">
        <ele>1196</ele>
        <time>2014-06-22T05:19:06Z</time>
      </trkpt>
      <trkpt lat="47.96627" lon="6.99599">
        <ele>1196</ele>
        <time>2014-06-22T05:19:16Z</time>
      </trkpt>
      <trkpt lat="47.96615" lon="6.9961">
        <ele>1196</ele>
        <time>2014-06-22T05:19:26Z</time>
      </trkpt>
      <trkpt lat="47.96602" lon="6.9962">
        <ele>1197</ele>
        <time>2014-06-22T05:19:38Z</time>
      </trkpt>
      <trkpt lat="47.96588" lon="6.99627">
        <ele>1197</ele>
        <time>2014-06-22T05:19:49Z</time>
      </trkpt>
      <trkpt lat="47.96583" lon="6.99631">
        <ele>1197</ele>
        <time>2014-06-22T05:19:53Z</time>
      </trkpt>
      <trkpt lat="47.96571" lon="6.99642">
        <ele>1198</ele>
        <time>2014-06-22T05:20:04Z</time>
      </trkpt>
      <trkpt lat="47.96561" lon="6.99654">
        <ele>1198</ele>
        <time>2014-06-22T05:20:16Z</time>
      </trkpt>
      <trkpt lat="47.96549" lon="6.99666">
        <ele>1198</ele>
        <time>2014-06-22T05:20:28Z</time>
      </trkpt>
      <trkpt lat="47.96538" lon="6.99679">
        <ele>1203</ele>
        <time>2014-06-22T05:20:40Z</time>
      </trkpt>
      <trkpt lat="47.96523" lon="6.99684">
        <ele>1203</ele>
        <time>2014-06-22T05:20:52Z</time>
      </trkpt>
      <trkpt lat="47.9652" lon="6.99685">
        <ele>1203</ele>
        <time>2014-06-22T05:20:54Z</time>
      </trkpt>
      <trkpt lat="47.96507" lon="6.99694">
        <ele>1203</ele>
        <time>2014-06-22T05:21:06Z</time>
      </trkpt>
      <trkpt lat="47.96494" lon="6.99701">
        <ele>1207</ele>
        <time>2014-06-22T05:21:18Z</time>
      </trkpt>
      <trkpt lat="47.96481" lon="6.9971">
        <ele>1208</ele>
        <time>2014-06-22T05:21:29Z</time>
      </trkpt>
      <trkpt lat="47.96473" lon="6.99714">
        <ele>1209</ele>
        <time>2014-06-22T05:21:38Z</time>
      </trkpt>
      <trkpt lat="47.96459" lon="6.99718">
        <ele>1209</ele>
        <time>2014-06-22T05:21:49Z</time>
      </trkpt>
      <trkpt lat="47.96445" lon="6.99723">
        <ele>1210</ele>
        <time>2014-06-22T05:22:00Z</time>
      </trkpt>
      <trkpt lat="47.9643" lon="6.99729">
        <ele>1211</ele>
        <time>2014-06-22T05:22:12Z</time>
      </trkpt>
      <trkpt lat="47.96417" lon="6.99734">
        <ele>1212</ele>
        <time>2014-06-22T05:22:23Z</time>
      </trkpt>
      <trkpt lat="47.96414" lon="6.99736">
        <ele>1212</ele>
        <time>2014-06-22T05:22:26Z</time>
      </trkpt>
      <trkpt lat="47.964" lon="6.99738">
        <ele>1211</ele>
        <time>2014-06-22T05:22:37Z</time>
      </trkpt>
      <trkpt lat="47.96397" lon="6.99737">
        <ele>1211</ele>
        <time>2014-06-22T05:22:40Z</time>
      </trkpt>
      <trkpt lat="47.96376" lon="6.99732">
        <ele>1209</ele>
        <time>2014-06-22T05:22:51Z</time>
      </trkpt>
      <trkpt lat="47.96373" lon="6.99734">
        <ele>1209</ele>
        <time>2014-06-22T05:22:54Z</time>
      </trkpt>
      <trkpt lat="47.96365" lon="6.9974">
        <ele>1210</ele>
        <time>2014-06-22T05:23:04Z</time>
      </trkpt>
      <trkpt lat="47.96353" lon="6.99749">
        <ele>1211</ele>
        <time>2014-06-22T05:23:16Z</time>
      </trkpt>
      <trkpt lat="47.9634" lon="6.99757">
        <ele>1215</ele>
        <time>2014-06-22T05:23:27Z</time>
      </trkpt>
      <trkpt lat="47.96342" lon="6.99761">
        <ele>1216</ele>
        <time>2014-06-22T05:23:29Z</time>
      </trkpt>
      <trkpt lat="47.96342" lon="6.99765">
        <ele>1216</ele>
        <time>2014-06-22T05:24:24Z</time>
      </trkpt>
      <trkpt lat="47.9633" lon="6.99767">
        <ele>1214</ele>
        <time>2014-06-22T05:24:36Z</time>
      </trkpt>
      <trkpt lat="47.96316" lon="6.99774">
        <ele>1214</ele>
        <time>2014-06-22T05:24:46Z</time>
      </trkpt>
      <trkpt lat="47.963" lon="6.9978">
        <ele>1214</ele>
        <time>2014-06-22T05:24:58Z</time>
      </trkpt>
      <trkpt lat="47.96285" lon="6.99791">
        <ele>1214</ele>
        <time>2014-06-22T05:25:09Z</time>
      </trkpt>
      <trkpt lat="47.96272" lon="6.998">
        <ele>1214</ele>
        <time>2014-06-22T05:25:20Z</time>
      </trkpt>
      <trkpt lat="47.96264" lon="6.9981">
        <ele>1214</ele>
        <time>2014-06-22T05:25:30Z</time>
      </trkpt>
      <trkpt lat="47.96262" lon="6.99815">
        <ele>1214</ele>
        <time>2014-06-22T05:25:33Z</time>
      </trkpt>
      <trkpt lat="47.96255" lon="6.99825">
        <ele>1215</ele>
        <time>2014-06-22T05:25:41Z</time>
      </trkpt>
      <trkpt lat="47.96245" lon="6.99836">
        <ele>1214</ele>
        <time>2014-06-22T05:25:51Z</time>
      </trkpt>
      <trkpt lat="47.96241" lon="6.99851">
        <ele>1212</ele>
        <time>2014-06-22T05:25:59Z</time>
      </trkpt>
      <trkpt lat="47.96233" lon="6.9987">
        <ele>1211</ele>
        <time>2014-06-22T05:26:11Z</time>
      </trkpt>
      <trkpt lat="47.96233" lon="6.99893">
        <ele>1213</ele>
        <time>2014-06-22T05:26:23Z</time>
      </trkpt>
      <trkpt lat="47.96233" lon="6.99895">
        <ele>1213</ele>
        <time>2014-06-22T05:27:12Z</time>
      </trkpt>
      <trkpt lat="47.96236" lon="6.99885">
        <ele>1212</ele>
        <time>2014-06-22T05:27:22Z</time>
      </trkpt>
      <trkpt lat="47.96234" lon="6.9989">
        <ele>1213</ele>
        <time>2014-06-22T05:28:10Z</time>
      </trkpt>
      <trkpt lat="47.96227" lon="6.99907">
        <ele>1213</ele>
        <time>2014-06-22T05:28:22Z</time>
      </trkpt>
      <trkpt lat="47.96219" lon="6.99923">
        <ele>1215</ele>
        <time>2014-06-22T05:28:34Z</time>
      </trkpt>
      <trkpt lat="47.96217" lon="6.99927">
        <ele>1214</ele>
        <time>2014-06-22T05:28:37Z</time>
      </trkpt>
      <trkpt lat="47.96205" lon="6.99942">
        <ele>1213</ele>
        <time>2014-06-22T05:28:48Z</time>
      </trkpt>
      <trkpt lat="47.96203" lon="6.99946">
        <ele>1212</ele>
        <time>2014-06-22T05:28:50Z</time>
      </trkpt>
      <trkpt lat="47.96202" lon="6.99966">
        <ele>1213</ele>
        <time>2014-06-22T05:29:00Z</time>
      </trkpt>
      <trkpt lat="47.96203" lon="6.99971">
        <ele>1213</ele>
        <time>2014-06-22T05:29:02Z</time>
      </trkpt>
      <trkpt lat="47.96202" lon="6.99988">
        <ele>1213</ele>
        <time>2014-06-22T05:29:12Z</time>
      </trkpt>
      <trkpt lat="47.96204" lon="7.00013">
        <ele>1216</ele>
        <time>2014-06-22T05:29:23Z</time>
      </trkpt>
      <trkpt lat="47.96205" lon="7.00017">
        <ele>1216</ele>
        <time>2014-06-22T05:29:25Z</time>
      </trkpt>
      <trkpt lat="47.96202" lon="7.00036">
        <ele>1216</ele>
        <time>2014-06-22T05:29:36Z</time>
      </trkpt>
      <trkpt lat="47.96203" lon="7.00055">
        <ele>1217</ele>
        <time>2014-06-22T05:29:47Z</time>
      </trkpt>
      <trkpt lat="47.96197" lon="7.00071">
        <ele>1216</ele>
        <time>2014-06-22T05:29:57Z</time>
      </trkpt>
      <trkpt lat="47.96199" lon="7.0009">
        <ele>1218</ele>
        <time>2014-06-22T05:30:08Z</time>
      </trkpt>
      <trkpt lat="47.96194" lon="7.00107">
        <ele>1218</ele>
        <time>2014-06-22T05:30:18Z</time>
      </trkpt>
      <trkpt lat="47.96182" lon="7.00122">
        <ele>1219</ele>
        <time>2014-06-22T05:30:29Z</time>
      </trkpt>
      <trkpt lat="47.9618" lon="7.00131">
        <ele>1219</ele>
        <time>2014-06-22T05:30:35Z</time>
      </trkpt>
      <trkpt lat="47.96174" lon="7.00143">
        <ele>1219</ele>
        <time>2014-06-22T05:30:45Z</time>
      </trkpt>
      <trkpt lat="47.96171" lon="7.00146">
        <ele>1220</ele>
        <time>2014-06-22T05:30:48Z</time>
      </trkpt>
      <trkpt lat="47.96166" lon="7.00153">
        <ele>1214</ele>
        <time>2014-06-22T05:30:52Z</time>
      </trkpt>
      <trkpt lat="47.96156" lon="7.00171">
        <ele>1218</ele>
        <time>2014-06-22T05:31:02Z</time>
      </trkpt>
      <trkpt lat="47.96146" lon="7.00183">
        <ele>1217</ele>
        <time>2014-06-22T05:31:12Z</time>
      </trkpt>
      <trkpt lat="47.96144" lon="7.00185">
        <ele>1216</ele>
        <time>2014-06-22T05:31:15Z</time>
      </trkpt>
      <trkpt lat="47.96142" lon="7.00189">
        <ele>1216</ele>
        <time>2014-06-22T05:31:19Z</time>
      </trkpt>
      <trkpt lat="47.9613" lon="7.00206">
        <ele>1216</ele>
        <time>2014-06-22T05:31:29Z</time>
      </trkpt>
      <trkpt lat="47.96118" lon="7.00206">
        <ele>1214</ele>
        <time>2014-06-22T05:31:36Z</time>
      </trkpt>
      <trkpt lat="47.96105" lon="7.00219">
        <ele>1214</ele>
        <time>2014-06-22T05:31:50Z</time>
      </trkpt>
      <trkpt lat="47.96099" lon="7.00234">
        <ele>1214</ele>
        <time>2014-06-22T05:32:01Z</time>
      </trkpt>
      <trkpt lat="47.96097" lon="7.00239">
        <ele>1214</ele>
        <time>2014-06-22T05:32:05Z</time>
      </trkpt>
      <trkpt lat="47.96094" lon="7.00242">
        <ele>1214</ele>
        <time>2014-06-22T05:32:08Z</time>
      </trkpt>
      <trkpt lat="47.96083" lon="7.00256">
        <ele>1212</ele>
        <time>2014-06-22T05:32:18Z</time>
      </trkpt>
      <trkpt lat="47.96078" lon="7.00262">
        <ele>1211</ele>
        <time>2014-06-22T05:32:22Z</time>
      </trkpt>
      <trkpt lat="47.96076" lon="7.00265">
        <ele>1211</ele>
        <time>2014-06-22T05:32:25Z</time>
      </trkpt>
      <trkpt lat="47.96069" lon="7.00275">
        <ele>1210</ele>
        <time>2014-06-22T05:32:36Z</time>
      </trkpt>
      <trkpt lat="47.96065" lon="7.00287">
        <ele>1211</ele>
        <time>2014-06-22T05:32:46Z</time>
      </trkpt>
      <trkpt lat="47.96061" lon="7.00288">
        <ele>1210</ele>
        <time>2014-06-22T05:32:49Z</time>
      </trkpt>
      <trkpt lat="47.96047" lon="7.00303">
        <ele>1210</ele>
        <time>2014-06-22T05:33:01Z</time>
      </trkpt>
      <trkpt lat="47.96038" lon="7.00317">
        <ele>1210</ele>
        <time>2014-06-22T05:33:12Z</time>
      </trkpt>
      <trkpt lat="47.96035" lon="7.00321">
        <ele>1209</ele>
        <time>2014-06-22T05:33:14Z</time>
      </trkpt>
      <trkpt lat="47.96029" lon="7.00336">
        <ele>1213</ele>
        <time>2014-06-22T05:33:26Z</time>
      </trkpt>
      <trkpt lat="47.96028" lon="7.00346">
        <ele>1213</ele>
        <time>2014-06-22T05:33:36Z</time>
      </trkpt>
      <trkpt lat="47.96027" lon="7.0035">
        <ele>1213</ele>
        <time>2014-06-22T05:33:40Z</time>
      </trkpt>
      <trkpt lat="47.96019" lon="7.00368">
        <ele>1213</ele>
        <time>2014-06-22T05:33:52Z</time>
      </trkpt>
      <trkpt lat="47.96017" lon="7.00373">
        <ele>1213</ele>
        <time>2014-06-22T05:33:54Z</time>
      </trkpt>
      <trkpt lat="47.96015" lon="7.00378">
        <ele>1213</ele>
        <time>2014-06-22T05:33:56Z</time>
      </trkpt>
      <trkpt lat="47.95997" lon="7.00392">
        <ele>1203</ele>
        <time>2014-06-22T05:34:10Z</time>
      </trkpt>
      <trkpt lat="47.95994" lon="7.00401">
        <ele>1204</ele>
        <time>2014-06-22T05:34:15Z</time>
      </trkpt>
      <trkpt lat="47.95989" lon="7.00409">
        <ele>1204</ele>
        <time>2014-06-22T05:34:19Z</time>
      </trkpt>
      <trkpt lat="47.95982" lon="7.00426">
        <ele>1206</ele>
        <time>2014-06-22T05:34:30Z</time>
      </trkpt>
      <trkpt lat="47.9597" lon="7.00436">
        <ele>1205</ele>
        <time>2014-06-22T05:34:42Z</time>
      </trkpt>
      <trkpt lat="47.95968" lon="7.0044">
        <ele>1205</ele>
        <time>2014-06-22T05:34:46Z</time>
      </trkpt>
      <trkpt lat="47.95959" lon="7.00455">
        <ele>1204</ele>
        <time>2014-06-22T05:34:57Z</time>
      </trkpt>
      <trkpt lat="47.95939" lon="7.0046">
        <ele>1204</ele>
        <time>2014-06-22T05:35:08Z</time>
      </trkpt>
      <trkpt lat="47.95937" lon="7.00463">
        <ele>1204</ele>
        <time>2014-06-22T05:35:10Z</time>
      </trkpt>
      <trkpt lat="47.95928" lon="7.00477">
        <ele>1204</ele>
        <time>2014-06-22T05:35:22Z</time>
      </trkpt>
      <trkpt lat="47.95924" lon="7.00479">
        <ele>1204</ele>
        <time>2014-06-22T05:35:27Z</time>
      </trkpt>
      <trkpt lat="47.9592" lon="7.00481">
        <ele>1204</ele>
        <time>2014-06-22T05:35:30Z</time>
      </trkpt>
      <trkpt lat="47.95918" lon="7.00483">
        <ele>1204</ele>
        <time>2014-06-22T05:35:33Z</time>
      </trkpt>
      <trkpt lat="47.95912" lon="7.0048">
        <ele>1202</ele>
        <time>2014-06-22T05:35:44Z</time>
      </trkpt>
      <trkpt lat="47.95909" lon="7.00479">
        <ele>1202</ele>
        <time>2014-06-22T05:35:48Z</time>
      </trkpt>
      <trkpt lat="47.95896" lon="7.0048">
        <ele>1201</ele>
        <time>2014-06-22T05:36:01Z</time>
      </trkpt>
      <trkpt lat="47.95892" lon="7.0048">
        <ele>1201</ele>
        <time>2014-06-22T05:36:04Z</time>
      </trkpt>
      <trkpt lat="47.95874" lon="7.00475">
        <ele>1201</ele>
        <time>2014-06-22T05:36:16Z</time>
      </trkpt>
      <trkpt lat="47.95871" lon="7.00475">
        <ele>1201</ele>
        <time>2014-06-22T05:36:18Z</time>
      </trkpt>
      <trkpt lat="47.95858" lon="7.00482">
        <ele>1201</ele>
        <time>2014-06-22T05:36:30Z</time>
      </trkpt>
      <trkpt lat="47.95855" lon="7.00483">
        <ele>1202</ele>
        <time>2014-06-22T05:36:32Z</time>
      </trkpt>
      <trkpt lat="47.95843" lon="7.00484">
        <ele>1202</ele>
        <time>2014-06-22T05:36:42Z</time>
      </trkpt>
      <trkpt lat="47.95839" lon="7.00483">
        <ele>1202</ele>
        <time>2014-06-22T05:36:45Z</time>
      </trkpt>
      <trkpt lat="47.95828" lon="7.00489">
        <ele>1201</ele>
        <time>2014-06-22T05:36:55Z</time>
      </trkpt>
      <trkpt lat="47.95825" lon="7.0049">
        <ele>1201</ele>
        <time>2014-06-22T05:36:58Z</time>
      </trkpt>
      <trkpt lat="47.95822" lon="7.00491">
        <ele>1200</ele>
        <time>2014-06-22T05:37:01Z</time>
      </trkpt>
      <trkpt lat="47.95807" lon="7.00498">
        <ele>1198</ele>
        <time>2014-06-22T05:37:13Z</time>
      </trkpt>
      <trkpt lat="47.95791" lon="7.00506">
        <ele>1203</ele>
        <time>2014-06-22T05:37:24Z</time>
      </trkpt>
      <trkpt lat="47.95779" lon="7.00507">
        <ele>1202</ele>
        <time>2014-06-22T05:37:35Z</time>
      </trkpt>
      <trkpt lat="47.95767" lon="7.00515">
        <ele>1201</ele>
        <time>2014-06-22T05:37:46Z</time>
      </trkpt>
      <trkpt lat="47.95753" lon="7.00524">
        <ele>1201</ele>
        <time>2014-06-22T05:37:57Z</time>
      </trkpt>
      <trkpt lat="47.95747" lon="7.00539">
        <ele>1197</ele>
        <time>2014-06-22T05:38:07Z</time>
      </trkpt>
      <trkpt lat="47.95744" lon="7.0054">
        <ele>1197</ele>
        <time>2014-06-22T05:38:10Z</time>
      </trkpt>
      <trkpt lat="47.95741" lon="7.00541">
        <ele>1197</ele>
        <time>2014-06-22T05:38:13Z</time>
      </trkpt>
      <trkpt lat="47.95728" lon="7.00549">
        <ele>1197</ele>
        <time>2014-06-22T05:38:24Z</time>
      </trkpt>
      <trkpt lat="47.95726" lon="7.00562">
        <ele>1198</ele>
        <time>2014-06-22T05:38:33Z</time>
      </trkpt>
      <trkpt lat="47.95721" lon="7.00565">
        <ele>1197</ele>
        <time>2014-06-22T05:38:37Z</time>
      </trkpt>
      <trkpt lat="47.9571" lon="7.00577">
        <ele>1197</ele>
        <time>2014-06-22T05:38:49Z</time>
      </trkpt>
      <trkpt lat="47.95703" lon="7.00583">
        <ele>1197</ele>
        <time>2014-06-22T05:38:59Z</time>
      </trkpt>
      <trkpt lat="47.95692" lon="7.00588">
        <ele>1203</ele>
        <time>2014-06-22T05:39:07Z</time>
      </trkpt>
      <trkpt lat="47.95678" lon="7.00593">
        <ele>1202</ele>
        <time>2014-06-22T05:39:17Z</time>
      </trkpt>
      <trkpt lat="47.95666" lon="7.006">
        <ele>1200</ele>
        <time>2014-06-22T05:39:28Z</time>
      </trkpt>
      <trkpt lat="47.95657" lon="7.00604">
        <ele>1201</ele>
        <time>2014-06-22T05:39:34Z</time>
      </trkpt>
      <trkpt lat="47.9564" lon="7.00602">
        <ele>1201</ele>
        <time>2014-06-22T05:39:45Z</time>
      </trkpt>
      <trkpt lat="47.95635" lon="7.00602">
        <ele>1201</ele>
        <time>2014-06-22T05:39:48Z</time>
      </trkpt>
      <trkpt lat="47.95629" lon="7.00604">
        <ele>1201</ele>
        <time>2014-06-22T05:39:52Z</time>
      </trkpt>
      <trkpt lat="47.95618" lon="7.00607">
        <ele>1201</ele>
        <time>2014-06-22T05:40:05Z</time>
      </trkpt>
      <trkpt lat="47.95606" lon="7.00616">
        <ele>1201</ele>
        <time>2014-06-22T05:40:19Z</time>
      </trkpt>
      <trkpt lat="47.95595" lon="7.00627">
        <ele>1202</ele>
        <time>2014-06-22T05:40:26Z</time>
      </trkpt>
      <trkpt lat="47.95593" lon="7.00626">
        <ele>1202</ele>
        <time>2014-06-22T05:40:29Z</time>
      </trkpt>
      <trkpt lat="47.95589" lon="7.00626">
        <ele>1202</ele>
        <time>2014-06-22T05:40:31Z</time>
      </trkpt>
      <trkpt lat="47.95574" lon="7.00635">
        <ele>1194</ele>
        <time>2014-06-22T05:40:44Z</time>
      </trkpt>
      <trkpt lat="47.95569" lon="7.0064">
        <ele>1194</ele>
        <time>2014-06-22T05:40:49Z</time>
      </trkpt>
      <trkpt lat="47.95555" lon="7.00654">
        <ele>1194</ele>
        <time>2014-06-22T05:41:01Z</time>
      </trkpt>
      <trkpt lat="47.95553" lon="7.00657">
        <ele>1193</ele>
        <time>2014-06-22T05:41:04Z</time>
      </trkpt>
      <trkpt lat="47.95545" lon="7.00672">
        <ele>1199</ele>
        <time>2014-06-22T05:41:16Z</time>
      </trkpt>
      <trkpt lat="47.95546" lon="7.00677">
        <ele>1199</ele>
        <time>2014-06-22T05:41:19Z</time>
      </trkpt>
      <trkpt lat="47.95547" lon="7.00682">
        <ele>1200</ele>
        <time>2014-06-22T05:41:21Z</time>
      </trkpt>
      <trkpt lat="47.95547" lon="7.00686">
        <ele>1200</ele>
        <time>2014-06-22T05:41:23Z</time>
      </trkpt>
      <trkpt lat="47.95543" lon="7.00708">
        <ele>1200</ele>
        <time>2014-06-22T05:41:35Z</time>
      </trkpt>
      <trkpt lat="47.95536" lon="7.00726">
        <ele>1200</ele>
        <time>2014-06-22T05:41:45Z</time>
      </trkpt>
      <trkpt lat="47.9553" lon="7.00743">
        <ele>1199</ele>
        <time>2014-06-22T05:41:55Z</time>
      </trkpt>
      <trkpt lat="47.95528" lon="7.00747">
        <ele>1198</ele>
        <time>2014-06-22T05:41:57Z</time>
      </trkpt>
      <trkpt lat="47.95521" lon="7.0077">
        <ele>1202</ele>
        <time>2014-06-22T05:42:08Z</time>
      </trkpt>
      <trkpt lat="47.95516" lon="7.00777">
        <ele>1202</ele>
        <time>2014-06-22T05:42:14Z</time>
      </trkpt>
      <trkpt lat="47.95516" lon="7.00782">
        <ele>1203</ele>
        <time>2014-06-22T05:42:16Z</time>
      </trkpt>
      <trkpt lat="47.95516" lon="7.00791">
        <ele>1204</ele>
        <time>2014-06-22T05:42:21Z</time>
      </trkpt>
      <trkpt lat="47.95514" lon="7.00809">
        <ele>1204</ele>
        <time>2014-06-22T05:42:32Z</time>
      </trkpt>
      <trkpt lat="47.95511" lon="7.00834">
        <ele>1202</ele>
        <time>2014-06-22T05:42:42Z</time>
      </trkpt>
      <trkpt lat="47.95513" lon="7.00838">
        <ele>1203</ele>
        <time>2014-06-22T05:42:45Z</time>
      </trkpt>
      <trkpt lat="47.95505" lon="7.00854">
        <ele>1205</ele>
        <time>2014-06-22T05:42:56Z</time>
      </trkpt>
      <trkpt lat="47.95505" lon="7.00877">
        <ele>1208</ele>
        <time>2014-06-22T05:43:06Z</time>
      </trkpt>
      <trkpt lat="47.95505" lon="7.00881">
        <ele>1208</ele>
        <time>2014-06-22T05:43:09Z</time>
      </trkpt>
      <trkpt lat="47.95505" lon="7.00891">
        <ele>1207</ele>
        <time>2014-06-22T05:43:14Z</time>
      </trkpt>
      <trkpt lat="47.95505" lon="7.009">
        <ele>1206</ele>
        <time>2014-06-22T05:43:19Z</time>
      </trkpt>
      <trkpt lat="47.95493" lon="7.00911">
        <ele>1193</ele>
        <time>2014-06-22T05:43:29Z</time>
      </trkpt>
      <trkpt lat="47.95494" lon="7.00932">
        <ele>1191</ele>
        <time>2014-06-22T05:43:39Z</time>
      </trkpt>
      <trkpt lat="47.95493" lon="7.00937">
        <ele>1189</ele>
        <time>2014-06-22T05:43:42Z</time>
      </trkpt>
      <trkpt lat="47.95487" lon="7.00954">
        <ele>1186</ele>
        <time>2014-06-22T05:43:53Z</time>
      </trkpt>
      <trkpt lat="47.9548" lon="7.00971">
        <ele>1186</ele>
        <time>2014-06-22T05:44:05Z</time>
      </trkpt>
      <trkpt lat="47.95481" lon="7.00976">
        <ele>1186</ele>
        <time>2014-06-22T05:44:08Z</time>
      </trkpt>
      <trkpt lat="47.95476" lon="7.00995">
        <ele>1187</ele>
        <time>2014-06-22T05:44:19Z</time>
      </trkpt>
      <trkpt lat="47.95481" lon="7.01024">
        <ele>1188</ele>
        <time>2014-06-22T05:44:31Z</time>
      </trkpt>
      <trkpt lat="47.95481" lon="7.01041">
        <ele>1187</ele>
        <time>2014-06-22T05:44:39Z</time>
      </trkpt>
      <trkpt lat="47.95479" lon="7.0106">
        <ele>1187</ele>
        <time>2014-06-22T05:44:51Z</time>
      </trkpt>
      <trkpt lat="47.95474" lon="7.01083">
        <ele>1188</ele>
        <time>2014-06-22T05:45:03Z</time>
      </trkpt>
      <trkpt lat="47.9547" lon="7.0109">
        <ele>1188</ele>
        <time>2014-06-22T05:45:10Z</time>
      </trkpt>
      <trkpt lat="47.95464" lon="7.01108">
        <ele>1186</ele>
        <time>2014-06-22T05:45:21Z</time>
      </trkpt>
      <trkpt lat="47.95453" lon="7.01121">
        <ele>1184</ele>
        <time>2014-06-22T05:45:32Z</time>
      </trkpt>
      <trkpt lat="47.95453" lon="7.01145">
        <ele>1185</ele>
        <time>2014-06-22T05:45:38Z</time>
      </trkpt>
      <trkpt lat="47.95446" lon="7.01163">
        <ele>1183</ele>
        <time>2014-06-22T05:45:48Z</time>
      </trkpt>
      <trkpt lat="47.95446" lon="7.01172">
        <ele>1185</ele>
        <time>2014-06-22T05:45:53Z</time>
      </trkpt>
      <trkpt lat="47.95449" lon="7.01177">
        <ele>1186</ele>
        <time>2014-06-22T05:45:56Z</time>
      </trkpt>
      <trkpt lat="47.95448" lon="7.01182">
        <ele>1187</ele>
        <time>2014-06-22T05:45:59Z</time>
      </trkpt>
      <trkpt lat="47.95447" lon="7.01186">
        <ele>1186</ele>
        <time>2014-06-22T05:46:01Z</time>
      </trkpt>
      <trkpt lat="47.95441" lon="7.01209">
        <ele>1186</ele>
        <time>2014-06-22T05:46:16Z</time>
      </trkpt>
      <trkpt lat="47.95436" lon="7.01228">
        <ele>1185</ele>
        <time>2014-06-22T05:46:26Z</time>
      </trkpt>
      <trkpt lat="47.95436" lon="7.01232">
        <ele>1185</ele>
        <time>2014-06-22T05:46:29Z</time>
      </trkpt>
      <trkpt lat="47.95426" lon="7.01253">
        <ele>1181</ele>
        <time>2014-06-22T05:46:39Z</time>
      </trkpt>
      <trkpt lat="47.95422" lon="7.01274">
        <ele>1184</ele>
        <time>2014-06-22T05:46:49Z</time>
      </trkpt>
      <trkpt lat="47.95422" lon="7.01281">
        <ele>1185</ele>
        <time>2014-06-22T05:46:51Z</time>
      </trkpt>
      <trkpt lat="47.9542" lon="7.01289">
        <ele>1185</ele>
        <time>2014-06-22T05:46:56Z</time>
      </trkpt>
      <trkpt lat="47.95424" lon="7.013">
        <ele>1185</ele>
        <time>2014-06-22T05:47:02Z</time>
      </trkpt>
      <trkpt lat="47.95414" lon="7.01312">
        <ele>1172</ele>
        <time>2014-06-22T05:47:11Z</time>
      </trkpt>
      <trkpt lat="47.95412" lon="7.01317">
        <ele>1173</ele>
        <time>2014-06-22T05:47:14Z</time>
      </trkpt>
      <trkpt lat="47.95407" lon="7.01336">
        <ele>1177</ele>
        <time>2014-06-22T05:47:24Z</time>
      </trkpt>
      <trkpt lat="47.95403" lon="7.01353">
        <ele>1175</ele>
        <time>2014-06-22T05:47:34Z</time>
      </trkpt>
      <trkpt lat="47.954" lon="7.01375">
        <ele>1174</ele>
        <time>2014-06-22T05:47:45Z</time>
      </trkpt>
      <trkpt lat="47.954" lon="7.01381">
        <ele>1174</ele>
        <time>2014-06-22T05:47:48Z</time>
      </trkpt>
      <trkpt lat="47.95397" lon="7.01402">
        <ele>1176</ele>
        <time>2014-06-22T05:47:58Z</time>
      </trkpt>
      <trkpt lat="47.95393" lon="7.0142">
        <ele>1178</ele>
        <time>2014-06-22T05:48:08Z</time>
      </trkpt>
      <trkpt lat="47.95388" lon="7.01441">
        <ele>1176</ele>
        <time>2014-06-22T05:48:19Z</time>
      </trkpt>
      <trkpt lat="47.95384" lon="7.01459">
        <ele>1176</ele>
        <time>2014-06-22T05:48:28Z</time>
      </trkpt>
      <trkpt lat="47.95379" lon="7.01479">
        <ele>1176</ele>
        <time>2014-06-22T05:48:39Z</time>
      </trkpt>
      <trkpt lat="47.95378" lon="7.01503">
        <ele>1175</ele>
        <time>2014-06-22T05:48:51Z</time>
      </trkpt>
      <trkpt lat="47.95373" lon="7.01524">
        <ele>1175</ele>
        <time>2014-06-22T05:49:03Z</time>
      </trkpt>
      <trkpt lat="47.95371" lon="7.01541">
        <ele>1175</ele>
        <time>2014-06-22T05:49:12Z</time>
      </trkpt>
      <trkpt lat="47.95366" lon="7.01561">
        <ele>1174</ele>
        <time>2014-06-22T05:49:23Z</time>
      </trkpt>
      <trkpt lat="47.95361" lon="7.01583">
        <ele>1175</ele>
        <time>2014-06-22T05:49:34Z</time>
      </trkpt>
      <trkpt lat="47.95352" lon="7.01602">
        <ele>1172</ele>
        <time>2014-06-22T05:49:46Z</time>
      </trkpt>
      <trkpt lat="47.9535" lon="7.01622">
        <ele>1172</ele>
        <time>2014-06-22T05:49:58Z</time>
      </trkpt>
      <trkpt lat="47.95352" lon="7.01642">
        <ele>1172</ele>
        <time>2014-06-22T05:50:10Z</time>
      </trkpt>
      <trkpt lat="47.9535" lon="7.01662">
        <ele>1174</ele>
        <time>2014-06-22T05:50:22Z</time>
      </trkpt>
      <trkpt lat="47.95349" lon="7.01667">
        <ele>1170</ele>
        <time>2014-06-22T05:52:14Z</time>
      </trkpt>
      <trkpt lat="47.95342" lon="7.01687">
        <ele>1168</ele>
        <time>2014-06-22T05:52:26Z</time>
      </trkpt>
      <trkpt lat="47.95334" lon="7.01705">
        <ele>1164</ele>
        <time>2014-06-22T05:52:35Z</time>
      </trkpt>
      <trkpt lat="47.95326" lon="7.01727">
        <ele>1173</ele>
        <time>2014-06-22T05:52:46Z</time>
      </trkpt>
      <trkpt lat="47.95317" lon="7.01747">
        <ele>1171</ele>
        <time>2014-06-22T05:52:56Z</time>
      </trkpt>
      <trkpt lat="47.95308" lon="7.0177">
        <ele>1167</ele>
        <time>2014-06-22T05:53:06Z</time>
      </trkpt>
      <trkpt lat="47.95298" lon="7.01788">
        <ele>1167</ele>
        <time>2014-06-22T05:53:16Z</time>
      </trkpt>
      <trkpt lat="47.9529" lon="7.01812">
        <ele>1167</ele>
        <time>2014-06-22T05:53:26Z</time>
      </trkpt>
      <trkpt lat="47.95282" lon="7.01832">
        <ele>1168</ele>
        <time>2014-06-22T05:53:36Z</time>
      </trkpt>
      <trkpt lat="47.95273" lon="7.0185">
        <ele>1165</ele>
        <time>2014-06-22T05:53:46Z</time>
      </trkpt>
      <trkpt lat="47.95263" lon="7.01867">
        <ele>1165</ele>
        <time>2014-06-22T05:53:57Z</time>
      </trkpt>
      <trkpt lat="47.95251" lon="7.01883">
        <ele>1166</ele>
        <time>2014-06-22T05:54:09Z</time>
      </trkpt>
      <trkpt lat="47.95247" lon="7.01896">
        <ele>1176</ele>
        <time>2014-06-22T05:54:19Z</time>
      </trkpt>
      <trkpt lat="47.95249" lon="7.0191">
        <ele>1175</ele>
        <time>2014-06-22T05:54:29Z</time>
      </trkpt>
      <trkpt lat="47.95247" lon="7.01906">
        <ele>1175</ele>
        <time>2014-06-22T06:01:30Z</time>
      </trkpt>
      <trkpt lat="47.95244" lon="7.01888">
        <ele>1176</ele>
        <time>2014-06-22T06:01:59Z</time>
      </trkpt>
      <trkpt lat="47.95232" lon="7.01896">
        <ele>1176</ele>
        <time>2014-06-22T06:02:11Z</time>
      </trkpt>
      <trkpt lat="47.95227" lon="7.01901">
        <ele>1176</ele>
        <time>2014-06-22T06:02:23Z</time>
      </trkpt>
      <trkpt lat="47.95225" lon="7.01904">
        <ele>1176</ele>
        <time>2014-06-22T06:03:02Z</time>
      </trkpt>
      <trkpt lat="47.95213" lon="7.01914">
        <ele>1177</ele>
        <time>2014-06-22T06:03:14Z</time>
      </trkpt>
      <trkpt lat="47.95201" lon="7.01927">
        <ele>1179</ele>
        <time>2014-06-22T06:03:27Z</time>
      </trkpt>
      <trkpt lat="47.95199" lon="7.01929">
        <ele>1180</ele>
        <time>2014-06-22T06:03:38Z</time>
      </trkpt>
      <trkpt lat="47.95186" lon="7.01937">
        <ele>1180</ele>
        <time>2014-06-22T06:03:49Z</time>
      </trkpt>
      <trkpt lat="47.95171" lon="7.01945">
        <ele>1181</ele>
        <time>2014-06-22T06:04:01Z</time>
      </trkpt>
      <trkpt lat="47.95158" lon="7.01951">
        <ele>1185</ele>
        <time>2014-06-22T06:04:11Z</time>
      </trkpt>
      <trkpt lat="47.95145" lon="7.01962">
        <ele>1185</ele>
        <time>2014-06-22T06:04:22Z</time>
      </trkpt>
      <trkpt lat="47.95132" lon="7.01965">
        <ele>1186</ele>
        <time>2014-06-22T06:04:33Z</time>
      </trkpt>
      <trkpt lat="47.95118" lon="7.01966">
        <ele>1186</ele>
        <time>2014-06-22T06:04:44Z</time>
      </trkpt>
      <trkpt lat="47.95105" lon="7.01969">
        <ele>1187</ele>
        <time>2014-06-22T06:04:57Z</time>
      </trkpt>
      <trkpt lat="47.95091" lon="7.0197">
        <ele>1187</ele>
        <time>2014-06-22T06:05:09Z</time>
      </trkpt>
      <trkpt lat="47.95078" lon="7.01973">
        <ele>1190</ele>
        <time>2014-06-22T06:05:21Z</time>
      </trkpt>
      <trkpt lat="47.95068" lon="7.01977">
        <ele>1190</ele>
        <time>2014-06-22T06:05:32Z</time>
      </trkpt>
      <trkpt lat="47.95055" lon="7.01979">
        <ele>1191</ele>
        <time>2014-06-22T06:05:44Z</time>
      </trkpt>
      <trkpt lat="47.95042" lon="7.01983">
        <ele>1191</ele>
        <time>2014-06-22T06:05:54Z</time>
      </trkpt>
      <trkpt lat="47.95039" lon="7.01985">
        <ele>1192</ele>
        <time>2014-06-22T06:05:57Z</time>
      </trkpt>
      <trkpt lat="47.9503" lon="7.0199">
        <ele>1193</ele>
        <time>2014-06-22T06:06:08Z</time>
      </trkpt>
      <trkpt lat="47.95016" lon="7.01997">
        <ele>1195</ele>
        <time>2014-06-22T06:06:20Z</time>
      </trkpt>
      <trkpt lat="47.95003" lon="7.02003">
        <ele>1200</ele>
        <time>2014-06-22T06:06:32Z</time>
      </trkpt>
      <trkpt lat="47.94991" lon="7.0201">
        <ele>1203</ele>
        <time>2014-06-22T06:06:44Z</time>
      </trkpt>
      <trkpt lat="47.94977" lon="7.02016">
        <ele>1205</ele>
        <time>2014-06-22T06:06:56Z</time>
      </trkpt>
      <trkpt lat="47.94964" lon="7.02021">
        <ele>1205</ele>
        <time>2014-06-22T06:07:06Z</time>
      </trkpt>
      <trkpt lat="47.94952" lon="7.0203">
        <ele>1206</ele>
        <time>2014-06-22T06:07:18Z</time>
      </trkpt>
      <trkpt lat="47.94939" lon="7.02037">
        <ele>1207</ele>
        <time>2014-06-22T06:07:30Z</time>
      </trkpt>
      <trkpt lat="47.94927" lon="7.02042">
        <ele>1207</ele>
        <time>2014-06-22T06:07:42Z</time>
      </trkpt>
      <trkpt lat="47.94913" lon="7.02044">
        <ele>1208</ele>
        <time>2014-06-22T06:07:53Z</time>
      </trkpt>
      <trkpt lat="47.94901" lon="7.02051">
        <ele>1209</ele>
        <time>2014-06-22T06:08:05Z</time>
      </trkpt>
      <trkpt lat="47.9489" lon="7.02059">
        <ele>1210</ele>
        <time>2014-06-22T06:08:17Z</time>
      </trkpt>
      <trkpt lat="47.94877" lon="7.02067">
        <ele>1211</ele>
        <time>2014-06-22T06:08:30Z</time>
      </trkpt>
      <trkpt lat="47.94864" lon="7.02071">
        <ele>1212</ele>
        <time>2014-06-22T06:08:43Z</time>
      </trkpt>
      <trkpt lat="47.94852" lon="7.02077">
        <ele>1214</ele>
        <time>2014-06-22T06:08:55Z</time>
      </trkpt>
      <trkpt lat="47.94845" lon="7.0208">
        <ele>1216</ele>
        <time>2014-06-22T06:09:01Z</time>
      </trkpt>
      <trkpt lat="47.94832" lon="7.02088">
        <ele>1222</ele>
        <time>2014-06-22T06:09:13Z</time>
      </trkpt>
      <trkpt lat="47.94826" lon="7.02092">
        <ele>1223</ele>
        <time>2014-06-22T06:09:19Z</time>
      </trkpt>
      <trkpt lat="47.94811" lon="7.02098">
        <ele>1226</ele>
        <time>2014-06-22T06:09:31Z</time>
      </trkpt>
      <trkpt lat="47.94799" lon="7.02101">
        <ele>1226</ele>
        <time>2014-06-22T06:09:41Z</time>
      </trkpt>
      <trkpt lat="47.94791" lon="7.02111">
        <ele>1227</ele>
        <time>2014-06-22T06:09:50Z</time>
      </trkpt>
      <trkpt lat="47.94782" lon="7.02124">
        <ele>1229</ele>
        <time>2014-06-22T06:10:02Z</time>
      </trkpt>
      <trkpt lat="47.94771" lon="7.02134">
        <ele>1231</ele>
        <time>2014-06-22T06:10:14Z</time>
      </trkpt>
      <trkpt lat="47.94768" lon="7.02135">
        <ele>1231</ele>
        <time>2014-06-22T06:10:17Z</time>
      </trkpt>
      <trkpt lat="47.9476" lon="7.0214">
        <ele>1232</ele>
        <time>2014-06-22T06:10:28Z</time>
      </trkpt>
      <trkpt lat="47.94746" lon="7.02153">
        <ele>1235</ele>
        <time>2014-06-22T06:10:39Z</time>
      </trkpt>
      <trkpt lat="47.94743" lon="7.02156">
        <ele>1235</ele>
        <time>2014-06-22T06:10:42Z</time>
      </trkpt>
      <trkpt lat="47.9474" lon="7.02158">
        <ele>1235</ele>
        <time>2014-06-22T06:10:45Z</time>
      </trkpt>
      <trkpt lat="47.94732" lon="7.02165">
        <ele>1234</ele>
        <time>2014-06-22T06:10:54Z</time>
      </trkpt>
      <trkpt lat="47.94729" lon="7.02166">
        <ele>1234</ele>
        <time>2014-06-22T06:10:56Z</time>
      </trkpt>
      <trkpt lat="47.94716" lon="7.02174">
        <ele>1245</ele>
        <time>2014-06-22T06:11:09Z</time>
      </trkpt>
      <trkpt lat="47.94708" lon="7.0218">
        <ele>1245</ele>
        <time>2014-06-22T06:11:21Z</time>
      </trkpt>
      <trkpt lat="47.94701" lon="7.02192">
        <ele>1246</ele>
        <time>2014-06-22T06:11:33Z</time>
      </trkpt>
      <trkpt lat="47.94699" lon="7.02197">
        <ele>1246</ele>
        <time>2014-06-22T06:11:36Z</time>
      </trkpt>
      <trkpt lat="47.9469" lon="7.022">
        <ele>1246</ele>
        <time>2014-06-22T06:11:45Z</time>
      </trkpt>
      <trkpt lat="47.94686" lon="7.022">
        <ele>1246</ele>
        <time>2014-06-22T06:11:49Z</time>
      </trkpt>
      <trkpt lat="47.94675" lon="7.02211">
        <ele>1247</ele>
        <time>2014-06-22T06:12:01Z</time>
      </trkpt>
      <trkpt lat="47.94666" lon="7.02225">
        <ele>1250</ele>
        <time>2014-06-22T06:12:12Z</time>
      </trkpt>
      <trkpt lat="47.94653" lon="7.02235">
        <ele>1251</ele>
        <time>2014-06-22T06:12:25Z</time>
      </trkpt>
      <trkpt lat="47.94651" lon="7.02238">
        <ele>1251</ele>
        <time>2014-06-22T06:12:30Z</time>
      </trkpt>
      <trkpt lat="47.94638" lon="7.02248">
        <ele>1251</ele>
        <time>2014-06-22T06:12:41Z</time>
      </trkpt>
      <trkpt lat="47.94627" lon="7.02263">
        <ele>1259</ele>
        <time>2014-06-22T06:12:52Z</time>
      </trkpt>
      <trkpt lat="47.94624" lon="7.0227">
        <ele>1259</ele>
        <time>2014-06-22T06:12:59Z</time>
      </trkpt>
      <trkpt lat="47.94623" lon="7.02274">
        <ele>1259</ele>
        <time>2014-06-22T06:13:03Z</time>
      </trkpt>
      <trkpt lat="47.94615" lon="7.02288">
        <ele>1260</ele>
        <time>2014-06-22T06:13:14Z</time>
      </trkpt>
      <trkpt lat="47.94604" lon="7.02293">
        <ele>1260</ele>
        <time>2014-06-22T06:13:23Z</time>
      </trkpt>
      <trkpt lat="47.94595" lon="7.02306">
        <ele>1260</ele>
        <time>2014-06-22T06:13:37Z</time>
      </trkpt>
      <trkpt lat="47.94588" lon="7.02306">
        <ele>1260</ele>
        <time>2014-06-22T06:13:41Z</time>
      </trkpt>
      <trkpt lat="47.94573" lon="7.02304">
        <ele>1260</ele>
        <time>2014-06-22T06:13:52Z</time>
      </trkpt>
      <trkpt lat="47.94569" lon="7.02303">
        <ele>1260</ele>
        <time>2014-06-22T06:13:55Z</time>
      </trkpt>
      <trkpt lat="47.94558" lon="7.02311">
        <ele>1260</ele>
        <time>2014-06-22T06:14:07Z</time>
      </trkpt>
      <trkpt lat="47.94552" lon="7.02311">
        <ele>1260</ele>
        <time>2014-06-22T06:17:19Z</time>
      </trkpt>
      <trkpt lat="47.9454" lon="7.02304">
        <ele>1259</ele>
        <time>2014-06-22T06:17:30Z</time>
      </trkpt>
      <trkpt lat="47.94527" lon="7.02306">
        <ele>1259</ele>
        <time>2014-06-22T06:17:41Z</time>
      </trkpt>
      <trkpt lat="47.94515" lon="7.02313">
        <ele>1259</ele>
        <time>2014-06-22T06:17:53Z</time>
      </trkpt>
      <trkpt lat="47.94504" lon="7.02318">
        <ele>1259</ele>
        <time>2014-06-22T06:18:04Z</time>
      </trkpt>
      <trkpt lat="47.94492" lon="7.02326">
        <ele>1258</ele>
        <time>2014-06-22T06:18:16Z</time>
      </trkpt>
      <trkpt lat="47.94489" lon="7.02324">
        <ele>1257</ele>
        <time>2014-06-22T06:18:20Z</time>
      </trkpt>
      <trkpt lat="47.94486" lon="7.02319">
        <ele>1257</ele>
        <time>2014-06-22T06:18:24Z</time>
      </trkpt>
      <trkpt lat="47.94475" lon="7.02313">
        <ele>1256</ele>
        <time>2014-06-22T06:18:34Z</time>
      </trkpt>
      <trkpt lat="47.94459" lon="7.02313">
        <ele>1256</ele>
        <time>2014-06-22T06:18:48Z</time>
      </trkpt>
      <trkpt lat="47.94445" lon="7.02323">
        <ele>1255</ele>
        <time>2014-06-22T06:18:59Z</time>
      </trkpt>
      <trkpt lat="47.94432" lon="7.02331">
        <ele>1254</ele>
        <time>2014-06-22T06:19:11Z</time>
      </trkpt>
      <trkpt lat="47.9442" lon="7.02335">
        <ele>1252</ele>
        <time>2014-06-22T06:19:21Z</time>
      </trkpt>
      <trkpt lat="47.94417" lon="7.02337">
        <ele>1252</ele>
        <time>2014-06-22T06:19:25Z</time>
      </trkpt>
      <trkpt lat="47.94408" lon="7.02333">
        <ele>1251</ele>
        <time>2014-06-22T06:19:35Z</time>
      </trkpt>
      <trkpt lat="47.94395" lon="7.02325">
        <ele>1250</ele>
        <time>2014-06-22T06:19:46Z</time>
      </trkpt>
      <trkpt lat="47.94381" lon="7.02327">
        <ele>1248</ele>
        <time>2014-06-22T06:19:56Z</time>
      </trkpt>
      <trkpt lat="47.94365" lon="7.02325">
        <ele>1247</ele>
        <time>2014-06-22T06:20:07Z</time>
      </trkpt>
      <trkpt lat="47.94352" lon="7.02325">
        <ele>1246</ele>
        <time>2014-06-22T06:20:17Z</time>
      </trkpt>
      <trkpt lat="47.94338" lon="7.02326">
        <ele>1245</ele>
        <time>2014-06-22T06:20:29Z</time>
      </trkpt>
      <trkpt lat="47.94321" lon="7.02326">
        <ele>1240</ele>
        <time>2014-06-22T06:20:40Z</time>
      </trkpt>
      <trkpt lat="47.94311" lon="7.02324">
        <ele>1238</ele>
        <time>2014-06-22T06:20:48Z</time>
      </trkpt>
      <trkpt lat="47.94307" lon="7.02324">
        <ele>1237</ele>
        <time>2014-06-22T06:20:51Z</time>
      </trkpt>
      <trkpt lat="47.94304" lon="7.02325">
        <ele>1237</ele>
        <time>2014-06-22T06:20:54Z</time>
      </trkpt>
      <trkpt lat="47.94293" lon="7.02329">
        <ele>1235</ele>
        <time>2014-06-22T06:21:06Z</time>
      </trkpt>
      <trkpt lat="47.94279" lon="7.02327">
        <ele>1233</ele>
        <time>2014-06-22T06:21:16Z</time>
      </trkpt>
      <trkpt lat="47.94277" lon="7.02328">
        <ele>1233</ele>
        <time>2014-06-22T06:21:18Z</time>
      </trkpt>
      <trkpt lat="47.94266" lon="7.02344">
        <ele>1231</ele>
        <time>2014-06-22T06:21:30Z</time>
      </trkpt>
      <trkpt lat="47.94264" lon="7.02343">
        <ele>1230</ele>
        <time>2014-06-22T06:21:34Z</time>
      </trkpt>
      <trkpt lat="47.94247" lon="7.02338">
        <ele>1226</ele>
        <time>2014-06-22T06:21:45Z</time>
      </trkpt>
      <trkpt lat="47.94243" lon="7.02337">
        <ele>1225</ele>
        <time>2014-06-22T06:21:47Z</time>
      </trkpt>
      <trkpt lat="47.9424" lon="7.02338">
        <ele>1225</ele>
        <time>2014-06-22T06:21:49Z</time>
      </trkpt>
      <trkpt lat="47.94237" lon="7.02338">
        <ele>1224</ele>
        <time>2014-06-22T06:21:51Z</time>
      </trkpt>
      <trkpt lat="47.94227" lon="7.02339">
        <ele>1223</ele>
        <time>2014-06-22T06:22:00Z</time>
      </trkpt>
      <trkpt lat="47.94211" lon="7.0234">
        <ele>1221</ele>
        <time>2014-06-22T06:22:11Z</time>
      </trkpt>
      <trkpt lat="47.94195" lon="7.02341">
        <ele>1219</ele>
        <time>2014-06-22T06:22:23Z</time>
      </trkpt>
      <trkpt lat="47.94188" lon="7.0234">
        <ele>1219</ele>
        <time>2014-06-22T06:22:29Z</time>
      </trkpt>
      <trkpt lat="47.94174" lon="7.0234">
        <ele>1217</ele>
        <time>2014-06-22T06:22:39Z</time>
      </trkpt>
      <trkpt lat="47.94159" lon="7.02341">
        <ele>1215</ele>
        <time>2014-06-22T06:22:50Z</time>
      </trkpt>
      <trkpt lat="47.94148" lon="7.02341">
        <ele>1215</ele>
        <time>2014-06-22T06:22:59Z</time>
      </trkpt>
      <trkpt lat="47.94134" lon="7.0234">
        <ele>1215</ele>
        <time>2014-06-22T06:23:10Z</time>
      </trkpt>
      <trkpt lat="47.94118" lon="7.02337">
        <ele>1215</ele>
        <time>2014-06-22T06:23:21Z</time>
      </trkpt>
      <trkpt lat="47.94115" lon="7.02337">
        <ele>1215</ele>
        <time>2014-06-22T06:23:24Z</time>
      </trkpt>
      <trkpt lat="47.94102" lon="7.02332">
        <ele>1215</ele>
        <time>2014-06-22T06:23:34Z</time>
      </trkpt>
      <trkpt lat="47.94087" lon="7.02327">
        <ele>1215</ele>
        <time>2014-06-22T06:23:46Z</time>
      </trkpt>
      <trkpt lat="47.94074" lon="7.02327">
        <ele>1216</ele>
        <time>2014-06-22T06:23:56Z</time>
      </trkpt>
      <trkpt lat="47.94061" lon="7.02327">
        <ele>1216</ele>
        <time>2014-06-22T06:24:08Z</time>
      </trkpt>
      <trkpt lat="47.94048" lon="7.02324">
        <ele>1216</ele>
        <time>2014-06-22T06:24:18Z</time>
      </trkpt>
      <trkpt lat="47.94034" lon="7.02321">
        <ele>1217</ele>
        <time>2014-06-22T06:24:30Z</time>
      </trkpt>
      <trkpt lat="47.9402" lon="7.02323">
        <ele>1217</ele>
        <time>2014-06-22T06:24:42Z</time>
      </trkpt>
      <trkpt lat="47.94005" lon="7.02323">
        <ele>1218</ele>
        <time>2014-06-22T06:24:54Z</time>
      </trkpt>
      <trkpt lat="47.93994" lon="7.0232">
        <ele>1218</ele>
        <time>2014-06-22T06:25:03Z</time>
      </trkpt>
      <trkpt lat="47.9398" lon="7.02318">
        <ele>1217</ele>
        <time>2014-06-22T06:25:13Z</time>
      </trkpt>
      <trkpt lat="47.93964" lon="7.02313">
        <ele>1217</ele>
        <time>2014-06-22T06:25:24Z</time>
      </trkpt>
      <trkpt lat="47.93951" lon="7.02309">
        <ele>1216</ele>
        <time>2014-06-22T06:25:34Z</time>
      </trkpt>
      <trkpt lat="47.93937" lon="7.02306">
        <ele>1216</ele>
        <time>2014-06-22T06:25:45Z</time>
      </trkpt>
      <trkpt lat="47.93925" lon="7.02303">
        <ele>1216</ele>
        <time>2014-06-22T06:25:54Z</time>
      </trkpt>
      <trkpt lat="47.93911" lon="7.02299">
        <ele>1213</ele>
        <time>2014-06-22T06:26:05Z</time>
      </trkpt>
      <trkpt lat="47.93898" lon="7.02294">
        <ele>1212</ele>
        <time>2014-06-22T06:26:16Z</time>
      </trkpt>
      <trkpt lat="47.93886" lon="7.0229">
        <ele>1212</ele>
        <time>2014-06-22T06:26:27Z</time>
      </trkpt>
      <trkpt lat="47.93872" lon="7.02285">
        <ele>1212</ele>
        <time>2014-06-22T06:26:37Z</time>
      </trkpt>
      <trkpt lat="47.93859" lon="7.02281">
        <ele>1211</ele>
        <time>2014-06-22T06:26:47Z</time>
      </trkpt>
      <trkpt lat="47.93855" lon="7.0228">
        <ele>1211</ele>
        <time>2014-06-22T06:26:59Z</time>
      </trkpt>
      <trkpt lat="47.93841" lon="7.02273">
        <ele>1211</ele>
        <time>2014-06-22T06:27:11Z</time>
      </trkpt>
      <trkpt lat="47.93827" lon="7.02266">
        <ele>1209</ele>
        <time>2014-06-22T06:27:22Z</time>
      </trkpt>
      <trkpt lat="47.93813" lon="7.0226">
        <ele>1208</ele>
        <time>2014-06-22T06:27:33Z</time>
      </trkpt>
      <trkpt lat="47.93799" lon="7.02255">
        <ele>1208</ele>
        <time>2014-06-22T06:27:44Z</time>
      </trkpt>
      <trkpt lat="47.93786" lon="7.02251">
        <ele>1208</ele>
        <time>2014-06-22T06:27:54Z</time>
      </trkpt>
      <trkpt lat="47.93773" lon="7.02243">
        <ele>1206</ele>
        <time>2014-06-22T06:28:05Z</time>
      </trkpt>
      <trkpt lat="47.93758" lon="7.02235">
        <ele>1206</ele>
        <time>2014-06-22T06:28:17Z</time>
      </trkpt>
      <trkpt lat="47.93744" lon="7.0223">
        <ele>1207</ele>
        <time>2014-06-22T06:28:28Z</time>
      </trkpt>
      <trkpt lat="47.9373" lon="7.02223">
        <ele>1207</ele>
        <time>2014-06-22T06:28:40Z</time>
      </trkpt>
      <trkpt lat="47.93717" lon="7.02215">
        <ele>1208</ele>
        <time>2014-06-22T06:28:51Z</time>
      </trkpt>
      <trkpt lat="47.93704" lon="7.02211">
        <ele>1208</ele>
        <time>2014-06-22T06:29:01Z</time>
      </trkpt>
      <trkpt lat="47.93692" lon="7.02202">
        <ele>1209</ele>
        <time>2014-06-22T06:29:11Z</time>
      </trkpt>
      <trkpt lat="47.93679" lon="7.02196">
        <ele>1209</ele>
        <time>2014-06-22T06:29:21Z</time>
      </trkpt>
      <trkpt lat="47.93666" lon="7.0219">
        <ele>1211</ele>
        <time>2014-06-22T06:29:32Z</time>
      </trkpt>
      <trkpt lat="47.93651" lon="7.0218">
        <ele>1211</ele>
        <time>2014-06-22T06:29:45Z</time>
      </trkpt>
      <trkpt lat="47.93637" lon="7.0217">
        <ele>1210</ele>
        <time>2014-06-22T06:29:57Z</time>
      </trkpt>
      <trkpt lat="47.93626" lon="7.0216">
        <ele>1210</ele>
        <time>2014-06-22T06:30:08Z</time>
      </trkpt>
      <trkpt lat="47.93614" lon="7.02146">
        <ele>1209</ele>
        <time>2014-06-22T06:30:19Z</time>
      </trkpt>
      <trkpt lat="47.93602" lon="7.02132">
        <ele>1209</ele>
        <time>2014-06-22T06:30:30Z</time>
      </trkpt>
      <trkpt lat="47.93591" lon="7.0212">
        <ele>1209</ele>
        <time>2014-06-22T06:30:40Z</time>
      </trkpt>
      <trkpt lat="47.93579" lon="7.02107">
        <ele>1209</ele>
        <time>2014-06-22T06:30:52Z</time>
      </trkpt>
      <trkpt lat="47.93569" lon="7.02092">
        <ele>1209</ele>
        <time>2014-06-22T06:31:04Z</time>
      </trkpt>
      <trkpt lat="47.93554" lon="7.02079">
        <ele>1208</ele>
        <time>2014-06-22T06:31:16Z</time>
      </trkpt>
      <trkpt lat="47.93543" lon="7.02067">
        <ele>1208</ele>
        <time>2014-06-22T06:31:27Z</time>
      </trkpt>
      <trkpt lat="47.9353" lon="7.02054">
        <ele>1208</ele>
        <time>2014-06-22T06:31:39Z</time>
      </trkpt>
      <trkpt lat="47.93516" lon="7.02048">
        <ele>1209</ele>
        <time>2014-06-22T06:31:51Z</time>
      </trkpt>
      <trkpt lat="47.93506" lon="7.02062">
        <ele>1209</ele>
        <time>2014-06-22T06:32:03Z</time>
      </trkpt>
      <trkpt lat="47.93503" lon="7.02065">
        <ele>1209</ele>
        <time>2014-06-22T06:32:06Z</time>
      </trkpt>
      <trkpt lat="47.93489" lon="7.02058">
        <ele>1211</ele>
        <time>2014-06-22T06:32:17Z</time>
      </trkpt>
      <trkpt lat="47.93476" lon="7.02051">
        <ele>1212</ele>
        <time>2014-06-22T06:32:28Z</time>
      </trkpt>
      <trkpt lat="47.93467" lon="7.02042">
        <ele>1212</ele>
        <time>2014-06-22T06:32:37Z</time>
      </trkpt>
      <trkpt lat="47.93457" lon="7.02024">
        <ele>1212</ele>
        <time>2014-06-22T06:32:50Z</time>
      </trkpt>
      <trkpt lat="47.93446" lon="7.02012">
        <ele>1212</ele>
        <time>2014-06-22T06:33:00Z</time>
      </trkpt>
      <trkpt lat="47.93433" lon="7.02004">
        <ele>1213</ele>
        <time>2014-06-22T06:33:11Z</time>
      </trkpt>
      <trkpt lat="47.93419" lon="7.02001">
        <ele>1214</ele>
        <time>2014-06-22T06:33:23Z</time>
      </trkpt>
      <trkpt lat="47.93409" lon="7.01997">
        <ele>1213</ele>
        <time>2014-06-22T06:33:32Z</time>
      </trkpt>
      <trkpt lat="47.93393" lon="7.01991">
        <ele>1212</ele>
        <time>2014-06-22T06:33:43Z</time>
      </trkpt>
      <trkpt lat="47.9338" lon="7.01987">
        <ele>1211</ele>
        <time>2014-06-22T06:33:53Z</time>
      </trkpt>
      <trkpt lat="47.93365" lon="7.01983">
        <ele>1211</ele>
        <time>2014-06-22T06:34:05Z</time>
      </trkpt>
      <trkpt lat="47.9335" lon="7.01979">
        <ele>1211</ele>
        <time>2014-06-22T06:34:17Z</time>
      </trkpt>
      <trkpt lat="47.93334" lon="7.01974">
        <ele>1211</ele>
        <time>2014-06-22T06:34:29Z</time>
      </trkpt>
      <trkpt lat="47.93321" lon="7.01974">
        <ele>1209</ele>
        <time>2014-06-22T06:34:39Z</time>
      </trkpt>
      <trkpt lat="47.93308" lon="7.01977">
        <ele>1209</ele>
        <time>2014-06-22T06:34:49Z</time>
      </trkpt>
      <trkpt lat="47.93294" lon="7.01979">
        <ele>1209</ele>
        <time>2014-06-22T06:35:00Z</time>
      </trkpt>
      <trkpt lat="47.9328" lon="7.0198">
        <ele>1208</ele>
        <time>2014-06-22T06:35:11Z</time>
      </trkpt>
      <trkpt lat="47.93277" lon="7.01981">
        <ele>1208</ele>
        <time>2014-06-22T06:35:13Z</time>
      </trkpt>
      <trkpt lat="47.93264" lon="7.01983">
        <ele>1208</ele>
        <time>2014-06-22T06:35:23Z</time>
      </trkpt>
      <trkpt lat="47.93249" lon="7.01989">
        <ele>1208</ele>
        <time>2014-06-22T06:35:35Z</time>
      </trkpt>
      <trkpt lat="47.93234" lon="7.01993">
        <ele>1208</ele>
        <time>2014-06-22T06:35:46Z</time>
      </trkpt>
      <trkpt lat="47.93223" lon="7.01997">
        <ele>1208</ele>
        <time>2014-06-22T06:35:55Z</time>
      </trkpt>
      <trkpt lat="47.93211" lon="7.01996">
        <ele>1208</ele>
        <time>2014-06-22T06:36:58Z</time>
      </trkpt>
      <trkpt lat="47.93203" lon="7.01982">
        <ele>1208</ele>
        <time>2014-06-22T06:37:09Z</time>
      </trkpt>
      <trkpt lat="47.93196" lon="7.01963">
        <ele>1208</ele>
        <time>2014-06-22T06:37:21Z</time>
      </trkpt>
      <trkpt lat="47.93188" lon="7.01956">
        <ele>1208</ele>
        <time>2014-06-22T06:37:32Z</time>
      </trkpt>
      <trkpt lat="47.93175" lon="7.01953">
        <ele>1208</ele>
        <time>2014-06-22T06:37:44Z</time>
      </trkpt>
      <trkpt lat="47.93163" lon="7.0195">
        <ele>1209</ele>
        <time>2014-06-22T06:37:54Z</time>
      </trkpt>
      <trkpt lat="47.93149" lon="7.01944">
        <ele>1209</ele>
        <time>2014-06-22T06:38:06Z</time>
      </trkpt>
      <trkpt lat="47.93135" lon="7.01942">
        <ele>1210</ele>
        <time>2014-06-22T06:38:18Z</time>
      </trkpt>
      <trkpt lat="47.9312" lon="7.01941">
        <ele>1211</ele>
        <time>2014-06-22T06:38:30Z</time>
      </trkpt>
      <trkpt lat="47.93106" lon="7.01941">
        <ele>1211</ele>
        <time>2014-06-22T06:38:42Z</time>
      </trkpt>
      <trkpt lat="47.93092" lon="7.01939">
        <ele>1212</ele>
        <time>2014-06-22T06:38:54Z</time>
      </trkpt>
      <trkpt lat="47.93078" lon="7.01939">
        <ele>1215</ele>
        <time>2014-06-22T06:39:05Z</time>
      </trkpt>
      <trkpt lat="47.93063" lon="7.01937">
        <ele>1215</ele>
        <time>2014-06-22T06:39:17Z</time>
      </trkpt>
      <trkpt lat="47.93049" lon="7.01936">
        <ele>1215</ele>
        <time>2014-06-22T06:39:29Z</time>
      </trkpt>
      <trkpt lat="47.93038" lon="7.01937">
        <ele>1215</ele>
        <time>2014-06-22T06:39:38Z</time>
      </trkpt>
      <trkpt lat="47.93023" lon="7.01938">
        <ele>1216</ele>
        <time>2014-06-22T06:39:49Z</time>
      </trkpt>
      <trkpt lat="47.9301" lon="7.01939">
        <ele>1216</ele>
        <time>2014-06-22T06:40:01Z</time>
      </trkpt>
      <trkpt lat="47.92999" lon="7.01941">
        <ele>1219</ele>
        <time>2014-06-22T06:40:10Z</time>
      </trkpt>
      <trkpt lat="47.92984" lon="7.01944">
        <ele>1219</ele>
        <time>2014-06-22T06:40:22Z</time>
      </trkpt>
      <trkpt lat="47.9298" lon="7.01943">
        <ele>1219</ele>
        <time>2014-06-22T06:40:25Z</time>
      </trkpt>
      <trkpt lat="47.92966" lon="7.01943">
        <ele>1219</ele>
        <time>2014-06-22T06:40:37Z</time>
      </trkpt>
      <trkpt lat="47.92953" lon="7.01947">
        <ele>1220</ele>
        <time>2014-06-22T06:40:47Z</time>
      </trkpt>
      <trkpt lat="47.92939" lon="7.01953">
        <ele>1220</ele>
        <time>2014-06-22T06:40:59Z</time>
      </trkpt>
      <trkpt lat="47.92926" lon="7.01952">
        <ele>1220</ele>
        <time>2014-06-22T06:41:08Z</time>
      </trkpt>
      <trkpt lat="47.92912" lon="7.0195">
        <ele>1222</ele>
        <time>2014-06-22T06:41:20Z</time>
      </trkpt>
      <trkpt lat="47.929" lon="7.01944">
        <ele>1222</ele>
        <time>2014-06-22T06:41:30Z</time>
      </trkpt>
      <trkpt lat="47.92887" lon="7.01937">
        <ele>1223</ele>
        <time>2014-06-22T06:41:41Z</time>
      </trkpt>
      <trkpt lat="47.92873" lon="7.01931">
        <ele>1223</ele>
        <time>2014-06-22T06:41:52Z</time>
      </trkpt>
      <trkpt lat="47.92859" lon="7.0193">
        <ele>1224</ele>
        <time>2014-06-22T06:42:04Z</time>
      </trkpt>
      <trkpt lat="47.92845" lon="7.0193">
        <ele>1225</ele>
        <time>2014-06-22T06:42:14Z</time>
      </trkpt>
      <trkpt lat="47.92831" lon="7.01935">
        <ele>1227</ele>
        <time>2014-06-22T06:42:26Z</time>
      </trkpt>
      <trkpt lat="47.92817" lon="7.01939">
        <ele>1227</ele>
        <time>2014-06-22T06:42:37Z</time>
      </trkpt>
      <trkpt lat="47.92804" lon="7.0194">
        <ele>1228</ele>
        <time>2014-06-22T06:42:47Z</time>
      </trkpt>
      <trkpt lat="47.92789" lon="7.01944">
        <ele>1228</ele>
        <time>2014-06-22T06:42:59Z</time>
      </trkpt>
      <trkpt lat="47.92775" lon="7.01948">
        <ele>1229</ele>
        <time>2014-06-22T06:43:09Z</time>
      </trkpt>
      <trkpt lat="47.92765" lon="7.01959">
        <ele>1229</ele>
        <time>2014-06-22T06:43:20Z</time>
      </trkpt>
      <trkpt lat="47.92767" lon="7.01983">
        <ele>1228</ele>
        <time>2014-06-22T06:43:32Z</time>
      </trkpt>
      <trkpt lat="47.92771" lon="7.02003">
        <ele>1224</ele>
        <time>2014-06-22T06:43:43Z</time>
      </trkpt>
      <trkpt lat="47.92774" lon="7.02017">
        <ele>1223</ele>
        <time>2014-06-22T06:43:54Z</time>
      </trkpt>
      <trkpt lat="47.92782" lon="7.02035">
        <ele>1221</ele>
        <time>2014-06-22T06:44:06Z</time>
      </trkpt>
      <trkpt lat="47.92783" lon="7.02054">
        <ele>1220</ele>
        <time>2014-06-22T06:44:16Z</time>
      </trkpt>
      <trkpt lat="47.9279" lon="7.02077">
        <ele>1219</ele>
        <time>2014-06-22T06:44:28Z</time>
      </trkpt>
      <trkpt lat="47.92796" lon="7.02097">
        <ele>1217</ele>
        <time>2014-06-22T06:44:40Z</time>
      </trkpt>
      <trkpt lat="47.928" lon="7.02121">
        <ele>1217</ele>
        <time>2014-06-22T06:44:53Z</time>
      </trkpt>
      <trkpt lat="47.92803" lon="7.02148">
        <ele>1217</ele>
        <time>2014-06-22T06:45:05Z</time>
      </trkpt>
      <trkpt lat="47.92799" lon="7.02166">
        <ele>1217</ele>
        <time>2014-06-22T06:45:17Z</time>
      </trkpt>
      <trkpt lat="47.92795" lon="7.02185">
        <ele>1220</ele>
        <time>2014-06-22T06:45:29Z</time>
      </trkpt>
      <trkpt lat="47.92794" lon="7.02204">
        <ele>1221</ele>
        <time>2014-06-22T06:45:38Z</time>
      </trkpt>
      <trkpt lat="47.92804" lon="7.02219">
        <ele>1220</ele>
        <time>2014-06-22T06:45:49Z</time>
      </trkpt>
      <trkpt lat="47.92809" lon="7.02239">
        <ele>1219</ele>
        <time>2014-06-22T06:46:01Z</time>
      </trkpt>
      <trkpt lat="47.9281" lon="7.02253">
        <ele>1220</ele>
        <time>2014-06-22T06:46:10Z</time>
      </trkpt>
      <trkpt lat="47.92809" lon="7.02278">
        <ele>1221</ele>
        <time>2014-06-22T06:46:23Z</time>
      </trkpt>
      <trkpt lat="47.9281" lon="7.02302">
        <ele>1221</ele>
        <time>2014-06-22T06:46:35Z</time>
      </trkpt>
      <trkpt lat="47.92809" lon="7.02329">
        <ele>1221</ele>
        <time>2014-06-22T06:46:48Z</time>
      </trkpt>
      <trkpt lat="47.9281" lon="7.02352">
        <ele>1221</ele>
        <time>2014-06-22T06:47:00Z</time>
      </trkpt>
      <trkpt lat="47.92808" lon="7.02376">
        <ele>1221</ele>
        <time>2014-06-22T06:47:10Z</time>
      </trkpt>
      <trkpt lat="47.92806" lon="7.02394">
        <ele>1221</ele>
        <time>2014-06-22T06:47:20Z</time>
      </trkpt>
      <trkpt lat="47.92806" lon="7.02416">
        <ele>1220</ele>
        <time>2014-06-22T06:47:32Z</time>
      </trkpt>
      <trkpt lat="47.92806" lon="7.02426">
        <ele>1218</ele>
        <time>2014-06-22T06:47:37Z</time>
      </trkpt>
      <trkpt lat="47.92802" lon="7.02445">
        <ele>1219</ele>
        <time>2014-06-22T06:47:48Z</time>
      </trkpt>
      <trkpt lat="47.92796" lon="7.02463">
        <ele>1220</ele>
        <time>2014-06-22T06:48:00Z</time>
      </trkpt>
      <trkpt lat="47.92794" lon="7.02468">
        <ele>1220</ele>
        <time>2014-06-22T06:48:03Z</time>
      </trkpt>
      <trkpt lat="47.92791" lon="7.02487">
        <ele>1220</ele>
        <time>2014-06-22T06:48:12Z</time>
      </trkpt>
      <trkpt lat="47.92784" lon="7.02512">
        <ele>1216</ele>
        <time>2014-06-22T06:48:24Z</time>
      </trkpt>
      <trkpt lat="47.92779" lon="7.02531">
        <ele>1215</ele>
        <time>2014-06-22T06:48:35Z</time>
      </trkpt>
      <trkpt lat="47.92773" lon="7.02541">
        <ele>1215</ele>
        <time>2014-06-22T06:48:46Z</time>
      </trkpt>
      <trkpt lat="47.92769" lon="7.0255">
        <ele>1215</ele>
        <time>2014-06-22T06:48:56Z</time>
      </trkpt>
      <trkpt lat="47.92765" lon="7.02571">
        <ele>1216</ele>
        <time>2014-06-22T06:49:08Z</time>
      </trkpt>
      <trkpt lat="47.92758" lon="7.02586">
        <ele>1214</ele>
        <time>2014-06-22T06:49:18Z</time>
      </trkpt>
      <trkpt lat="47.92745" lon="7.02595">
        <ele>1219</ele>
        <time>2014-06-22T06:49:28Z</time>
      </trkpt>
      <trkpt lat="47.92735" lon="7.026">
        <ele>1220</ele>
        <time>2014-06-22T06:49:38Z</time>
      </trkpt>
      <trkpt lat="47.92729" lon="7.02618">
        <ele>1219</ele>
        <time>2014-06-22T06:49:50Z</time>
      </trkpt>
      <trkpt lat="47.92726" lon="7.02636">
        <ele>1218</ele>
        <time>2014-06-22T06:50:00Z</time>
      </trkpt>
      <trkpt lat="47.9273" lon="7.02658">
        <ele>1215</ele>
        <time>2014-06-22T06:50:11Z</time>
      </trkpt>
      <trkpt lat="47.92733" lon="7.02678">
        <ele>1210</ele>
        <time>2014-06-22T06:50:23Z</time>
      </trkpt>
      <trkpt lat="47.92737" lon="7.02697">
        <ele>1210</ele>
        <time>2014-06-22T06:50:36Z</time>
      </trkpt>
      <trkpt lat="47.92742" lon="7.02708">
        <ele>1210</ele>
        <time>2014-06-22T06:50:46Z</time>
      </trkpt>
      <trkpt lat="47.92742" lon="7.02729">
        <ele>1208</ele>
        <time>2014-06-22T06:50:57Z</time>
      </trkpt>
      <trkpt lat="47.92744" lon="7.0275">
        <ele>1204</ele>
        <time>2014-06-22T06:51:09Z</time>
      </trkpt>
      <trkpt lat="47.92744" lon="7.0277">
        <ele>1206</ele>
        <time>2014-06-22T06:51:20Z</time>
      </trkpt>
      <trkpt lat="47.92745" lon="7.02791">
        <ele>1207</ele>
        <time>2014-06-22T06:51:32Z</time>
      </trkpt>
      <trkpt lat="47.92743" lon="7.02804">
        <ele>1207</ele>
        <time>2014-06-22T06:51:43Z</time>
      </trkpt>
      <trkpt lat="47.92743" lon="7.02809">
        <ele>1207</ele>
        <time>2014-06-22T06:52:04Z</time>
      </trkpt>
      <trkpt lat="47.92742" lon="7.02823">
        <ele>1206</ele>
        <time>2014-06-22T06:52:14Z</time>
      </trkpt>
      <trkpt lat="47.92741" lon="7.02828">
        <ele>1206</ele>
        <time>2014-06-22T06:52:16Z</time>
      </trkpt>
      <trkpt lat="47.92739" lon="7.02841">
        <ele>1204</ele>
        <time>2014-06-22T06:52:22Z</time>
      </trkpt>
      <trkpt lat="47.92733" lon="7.02861">
        <ele>1203</ele>
        <time>2014-06-22T06:52:33Z</time>
      </trkpt>
      <trkpt lat="47.92727" lon="7.02877">
        <ele>1202</ele>
        <time>2014-06-22T06:52:47Z</time>
      </trkpt>
      <trkpt lat="47.92724" lon="7.02877">
        <ele>1202</ele>
        <time>2014-06-22T06:53:00Z</time>
      </trkpt>
      <trkpt lat="47.92726" lon="7.02879">
        <ele>1202</ele>
        <time>2014-06-22T06:53:18Z</time>
      </trkpt>
      <trkpt lat="47.92724" lon="7.0288">
        <ele>1202</ele>
        <time>2014-06-22T06:55:53Z</time>
      </trkpt>
      <trkpt lat="47.92711" lon="7.02887">
        <ele>1202</ele>
        <time>2014-06-22T06:56:12Z</time>
      </trkpt>
      <trkpt lat="47.92709" lon="7.0289">
        <ele>1202</ele>
        <time>2014-06-22T06:56:15Z</time>
      </trkpt>
      <trkpt lat="47.92707" lon="7.02893">
        <ele>1202</ele>
        <time>2014-06-22T06:56:26Z</time>
      </trkpt>
      <trkpt lat="47.92693" lon="7.02888">
        <ele>1203</ele>
        <time>2014-06-22T06:56:38Z</time>
      </trkpt>
      <trkpt lat="47.92694" lon="7.02893">
        <ele>1202</ele>
        <time>2014-06-22T06:56:46Z</time>
      </trkpt>
      <trkpt lat="47.92697" lon="7.02891">
        <ele>1202</ele>
        <time>2014-06-22T06:56:51Z</time>
      </trkpt>
      <trkpt lat="47.927" lon="7.02889">
        <ele>1202</ele>
        <time>2014-06-22T06:56:54Z</time>
      </trkpt>
      <trkpt lat="47.92707" lon="7.02887">
        <ele>1202</ele>
        <time>2014-06-22T06:57:09Z</time>
      </trkpt>
      <trkpt lat="47.92711" lon="7.02888">
        <ele>1202</ele>
        <time>2014-06-22T06:57:20Z</time>
      </trkpt>
      <trkpt lat="47.92709" lon="7.02883">
        <ele>1203</ele>
        <time>2014-06-22T06:57:32Z</time>
      </trkpt>
      <trkpt lat="47.92706" lon="7.02881">
        <ele>1203</ele>
        <time>2014-06-22T06:57:37Z</time>
      </trkpt>
      <trkpt lat="47.92704" lon="7.02878">
        <ele>1203</ele>
        <time>2014-06-22T06:57:42Z</time>
      </trkpt>
      <trkpt lat="47.92704" lon="7.02882">
        <ele>1203</ele>
        <time>2014-06-22T06:57:54Z</time>
      </trkpt>
      <trkpt lat="47.92702" lon="7.02886">
        <ele>1203</ele>
        <time>2014-06-22T06:57:58Z</time>
      </trkpt>
      <trkpt lat="47.92703" lon="7.02881">
        <ele>1203</ele>
        <time>2014-06-22T06:58:08Z</time>
      </trkpt>
      <trkpt lat="47.9271" lon="7.02877">
        <ele>1203</ele>
        <time>2014-06-22T06:58:20Z</time>
      </trkpt>
      <trkpt lat="47.92704" lon="7.0287">
        <ele>1204</ele>
        <time>2014-06-22T06:58:46Z</time>
      </trkpt>
      <trkpt lat="47.92699" lon="7.02872">
        <ele>1204</ele>
        <time>2014-06-22T06:59:03Z</time>
      </trkpt>
      <trkpt lat="47.92701" lon="7.02875">
        <ele>1203</ele>
        <time>2014-06-22T06:59:07Z</time>
      </trkpt>
      <trkpt lat="47.92701" lon="7.0288">
        <ele>1203</ele>
        <time>2014-06-22T06:59:11Z</time>
      </trkpt>
      <trkpt lat="47.92707" lon="7.02886">
        <ele>1202</ele>
        <time>2014-06-22T06:59:22Z</time>
      </trkpt>
      <trkpt lat="47.92709" lon="7.02888">
        <ele>1202</ele>
        <time>2014-06-22T06:59:27Z</time>
      </trkpt>
      <trkpt lat="47.92706" lon="7.02886">
        <ele>1202</ele>
        <time>2014-06-22T06:59:36Z</time>
      </trkpt>
      <trkpt lat="47.92703" lon="7.02892">
        <ele>1202</ele>
        <time>2014-06-22T06:59:47Z</time>
      </trkpt>
      <trkpt lat="47.92706" lon="7.02893">
        <ele>1202</ele>
        <time>2014-06-22T06:59:54Z</time>
      </trkpt>
      <trkpt lat="47.92709" lon="7.02896">
        <ele>1202</ele>
        <time>2014-06-22T07:00:08Z</time>
      </trkpt>
      <trkpt lat="47.92709" lon="7.02889">
        <ele>1202</ele>
        <time>2014-06-22T07:00:23Z</time>
      </trkpt>
      <trkpt lat="47.92705" lon="7.02886">
        <ele>1202</ele>
        <time>2014-06-22T07:00:26Z</time>
      </trkpt>
      <trkpt lat="47.92702" lon="7.02883">
        <ele>1203</ele>
        <time>2014-06-22T07:00:29Z</time>
      </trkpt>
      <trkpt lat="47.92706" lon="7.02874">
        <ele>1203</ele>
        <time>2014-06-22T07:00:42Z</time>
      </trkpt>
      <trkpt lat="47.92709" lon="7.02874">
        <ele>1203</ele>
        <time>2014-06-22T07:00:45Z</time>
      </trkpt>
      <trkpt lat="47.9271" lon="7.0288">
        <ele>1203</ele>
        <time>2014-06-22T07:00:55Z</time>
      </trkpt>
      <trkpt lat="47.92713" lon="7.0288">
        <ele>1203</ele>
        <time>2014-06-22T07:01:05Z</time>
      </trkpt>
      <trkpt lat="47.9271" lon="7.02882">
        <ele>1203</ele>
        <time>2014-06-22T07:01:14Z</time>
      </trkpt>
      <trkpt lat="47.92707" lon="7.02883">
        <ele>1203</ele>
        <time>2014-06-22T07:01:18Z</time>
      </trkpt>
      <trkpt lat="47.92704" lon="7.02884">
        <ele>1203</ele>
        <time>2014-06-22T07:01:48Z</time>
      </trkpt>
      <trkpt lat="47.92699" lon="7.02893">
        <ele>1202</ele>
        <time>2014-06-22T07:01:58Z</time>
      </trkpt>
      <trkpt lat="47.92696" lon="7.02892">
        <ele>1202</ele>
        <time>2014-06-22T07:02:02Z</time>
      </trkpt>
      <trkpt lat="47.92698" lon="7.02896">
        <ele>1202</ele>
        <time>2014-06-22T07:02:08Z</time>
      </trkpt>
      <trkpt lat="47.92701" lon="7.02897">
        <ele>1202</ele>
        <time>2014-06-22T07:02:10Z</time>
      </trkpt>
      <trkpt lat="47.92706" lon="7.02902">
        <ele>1202</ele>
        <time>2014-06-22T07:02:23Z</time>
      </trkpt>
      <trkpt lat="47.92704" lon="7.029">
        <ele>1202</ele>
        <time>2014-06-22T07:02:44Z</time>
      </trkpt>
      <trkpt lat="47.927" lon="7.02899">
        <ele>1202</ele>
        <time>2014-06-22T07:02:47Z</time>
      </trkpt>
      <trkpt lat="47.92697" lon="7.02898">
        <ele>1202</ele>
        <time>2014-06-22T07:02:50Z</time>
      </trkpt>
      <trkpt lat="47.92694" lon="7.02895">
        <ele>1202</ele>
        <time>2014-06-22T07:02:53Z</time>
      </trkpt>
      <trkpt lat="47.92693" lon="7.02891">
        <ele>1202</ele>
        <time>2014-06-22T07:02:57Z</time>
      </trkpt>
      <trkpt lat="47.92697" lon="7.02888">
        <ele>1203</ele>
        <time>2014-06-22T07:03:00Z</time>
      </trkpt>
      <trkpt lat="47.92699" lon="7.02885">
        <ele>1203</ele>
        <time>2014-06-22T07:03:03Z</time>
      </trkpt>
      <trkpt lat="47.92701" lon="7.02881">
        <ele>1203</ele>
        <time>2014-06-22T07:03:06Z</time>
      </trkpt>
      <trkpt lat="47.92705" lon="7.02875">
        <ele>1203</ele>
        <time>2014-06-22T07:03:19Z</time>
      </trkpt>
      <trkpt lat="47.92707" lon="7.0287">
        <ele>1203</ele>
        <time>2014-06-22T07:03:38Z</time>
      </trkpt>
      <trkpt lat="47.92702" lon="7.0287">
        <ele>1204</ele>
        <time>2014-06-22T07:03:52Z</time>
      </trkpt>
      <trkpt lat="47.92702" lon="7.02874">
        <ele>1203</ele>
        <time>2014-06-22T07:04:09Z</time>
      </trkpt>
      <trkpt lat="47.92704" lon="7.02873">
        <ele>1203</ele>
        <time>2014-06-22T07:04:17Z</time>
      </trkpt>
      <trkpt lat="47.92705" lon="7.02878">
        <ele>1203</ele>
        <time>2014-06-22T07:04:30Z</time>
      </trkpt>
      <trkpt lat="47.927" lon="7.02875">
        <ele>1203</ele>
        <time>2014-06-22T07:04:40Z</time>
      </trkpt>
      <trkpt lat="47.92708" lon="7.02888">
        <ele>1202</ele>
        <time>2014-06-22T07:04:51Z</time>
      </trkpt>
      <trkpt lat="47.92703" lon="7.02885">
        <ele>1203</ele>
        <time>2014-06-22T07:05:15Z</time>
      </trkpt>
      <trkpt lat="47.92709" lon="7.02886">
        <ele>1202</ele>
        <time>2014-06-22T07:12:13Z</time>
      </trkpt>
      <trkpt lat="47.92713" lon="7.02888">
        <ele>1202</ele>
        <time>2014-06-22T07:12:14Z</time>
      </trkpt>
      <trkpt lat="47.92716" lon="7.02889">
        <ele>1202</ele>
        <time>2014-06-22T07:12:15Z</time>
      </trkpt>
      <trkpt lat="47.92719" lon="7.0289">
        <ele>1202</ele>
        <time>2014-06-22T07:12:16Z</time>
      </trkpt>
      <trkpt lat="47.92724" lon="7.02891">
        <ele>1201</ele>
        <time>2014-06-22T07:12:18Z</time>
      </trkpt>
      <trkpt lat="47.92727" lon="7.02889">
        <ele>1201</ele>
        <time>2014-06-22T07:12:19Z</time>
      </trkpt>
      <trkpt lat="47.92735" lon="7.02883">
        <ele>1202</ele>
        <time>2014-06-22T07:12:22Z</time>
      </trkpt>
      <trkpt lat="47.92745" lon="7.02868">
        <ele>1202</ele>
        <time>2014-06-22T07:12:28Z</time>
      </trkpt>
      <trkpt lat="47.92752" lon="7.02849">
        <ele>1197</ele>
        <time>2014-06-22T07:12:38Z</time>
      </trkpt>
      <trkpt lat="47.92754" lon="7.02837">
        <ele>1201</ele>
        <time>2014-06-22T07:13:04Z</time>
      </trkpt>
      <trkpt lat="47.92749" lon="7.02849">
        <ele>1203</ele>
        <time>2014-06-22T07:13:14Z</time>
      </trkpt>
      <trkpt lat="47.92746" lon="7.02853">
        <ele>1203</ele>
        <time>2014-06-22T07:13:17Z</time>
      </trkpt>
      <trkpt lat="47.92739" lon="7.02863">
        <ele>1203</ele>
        <time>2014-06-22T07:13:29Z</time>
      </trkpt>
      <trkpt lat="47.92736" lon="7.02866">
        <ele>1203</ele>
        <time>2014-06-22T07:13:32Z</time>
      </trkpt>
      <trkpt lat="47.92729" lon="7.02881">
        <ele>1202</ele>
        <time>2014-06-22T07:13:44Z</time>
      </trkpt>
      <trkpt lat="47.92725" lon="7.02888">
        <ele>1202</ele>
        <time>2014-06-22T07:13:49Z</time>
      </trkpt>
      <trkpt lat="47.92719" lon="7.02901">
        <ele>1201</ele>
        <time>2014-06-22T07:14:00Z</time>
      </trkpt>
      <trkpt lat="47.92717" lon="7.02903">
        <ele>1201</ele>
        <time>2014-06-22T07:14:03Z</time>
      </trkpt>
      <trkpt lat="47.92702" lon="7.02912">
        <ele>1201</ele>
        <time>2014-06-22T07:14:13Z</time>
      </trkpt>
      <trkpt lat="47.92689" lon="7.02922">
        <ele>1195</ele>
        <time>2014-06-22T07:14:23Z</time>
      </trkpt>
      <trkpt lat="47.92683" lon="7.02926">
        <ele>1196</ele>
        <time>2014-06-22T07:14:27Z</time>
      </trkpt>
      <trkpt lat="47.9268" lon="7.02926">
        <ele>1196</ele>
        <time>2014-06-22T07:14:29Z</time>
      </trkpt>
      <trkpt lat="47.92667" lon="7.02934">
        <ele>1197</ele>
        <time>2014-06-22T07:14:41Z</time>
      </trkpt>
      <trkpt lat="47.92654" lon="7.02941">
        <ele>1196</ele>
        <time>2014-06-22T07:14:52Z</time>
      </trkpt>
      <trkpt lat="47.92651" lon="7.02944">
        <ele>1196</ele>
        <time>2014-06-22T07:14:55Z</time>
      </trkpt>
      <trkpt lat="47.92636" lon="7.02952">
        <ele>1195</ele>
        <time>2014-06-22T07:15:06Z</time>
      </trkpt>
      <trkpt lat="47.92618" lon="7.02949">
        <ele>1196</ele>
        <time>2014-06-22T07:15:16Z</time>
      </trkpt>
      <trkpt lat="47.92601" lon="7.02953">
        <ele>1196</ele>
        <time>2014-06-22T07:15:28Z</time>
      </trkpt>
      <trkpt lat="47.92587" lon="7.02958">
        <ele>1195</ele>
        <time>2014-06-22T07:15:40Z</time>
      </trkpt>
      <trkpt lat="47.92583" lon="7.02959">
        <ele>1196</ele>
        <time>2014-06-22T07:15:43Z</time>
      </trkpt>
      <trkpt lat="47.92577" lon="7.0296">
        <ele>1196</ele>
        <time>2014-06-22T07:15:47Z</time>
      </trkpt>
      <trkpt lat="47.92564" lon="7.02968">
        <ele>1195</ele>
        <time>2014-06-22T07:15:58Z</time>
      </trkpt>
      <trkpt lat="47.9255" lon="7.02974">
        <ele>1195</ele>
        <time>2014-06-22T07:16:09Z</time>
      </trkpt>
      <trkpt lat="47.92531" lon="7.02978">
        <ele>1194</ele>
        <time>2014-06-22T07:16:21Z</time>
      </trkpt>
      <trkpt lat="47.92517" lon="7.0298">
        <ele>1193</ele>
        <time>2014-06-22T07:16:31Z</time>
      </trkpt>
      <trkpt lat="47.92513" lon="7.0298">
        <ele>1193</ele>
        <time>2014-06-22T07:16:34Z</time>
      </trkpt>
      <trkpt lat="47.92507" lon="7.02985">
        <ele>1192</ele>
        <time>2014-06-22T07:16:39Z</time>
      </trkpt>
      <trkpt lat="47.92503" lon="7.02988">
        <ele>1192</ele>
        <time>2014-06-22T07:16:42Z</time>
      </trkpt>
      <trkpt lat="47.92488" lon="7.02989">
        <ele>1192</ele>
        <time>2014-06-22T07:16:54Z</time>
      </trkpt>
      <trkpt lat="47.92489" lon="7.02993">
        <ele>1191</ele>
        <time>2014-06-22T07:17:11Z</time>
      </trkpt>
      <trkpt lat="47.9249" lon="7.02995">
        <ele>1191</ele>
        <time>2014-06-22T07:17:22Z</time>
      </trkpt>
      <trkpt lat="47.92475" lon="7.02993">
        <ele>1192</ele>
        <time>2014-06-22T07:17:32Z</time>
      </trkpt>
      <trkpt lat="47.92471" lon="7.02995">
        <ele>1192</ele>
        <time>2014-06-22T07:17:35Z</time>
      </trkpt>
      <trkpt lat="47.92461" lon="7.02998">
        <ele>1192</ele>
        <time>2014-06-22T07:17:45Z</time>
      </trkpt>
      <trkpt lat="47.92448" lon="7.03004">
        <ele>1187</ele>
        <time>2014-06-22T07:17:54Z</time>
      </trkpt>
      <trkpt lat="47.92433" lon="7.03013">
        <ele>1188</ele>
        <time>2014-06-22T07:18:06Z</time>
      </trkpt>
      <trkpt lat="47.9242" lon="7.03007">
        <ele>1189</ele>
        <time>2014-06-22T07:18:20Z</time>
      </trkpt>
      <trkpt lat="47.9242" lon="7.03002">
        <ele>1189</ele>
        <time>2014-06-22T07:18:32Z</time>
      </trkpt>
      <trkpt lat="47.92411" lon="7.0299">
        <ele>1191</ele>
        <time>2014-06-22T07:18:44Z</time>
      </trkpt>
      <trkpt lat="47.92407" lon="7.02987">
        <ele>1191</ele>
        <time>2014-06-22T07:18:46Z</time>
      </trkpt>
      <trkpt lat="47.92396" lon="7.02994">
        <ele>1191</ele>
        <time>2014-06-22T07:18:55Z</time>
      </trkpt>
      <trkpt lat="47.92399" lon="7.03001">
        <ele>1189</ele>
        <time>2014-06-22T07:19:06Z</time>
      </trkpt>
      <trkpt lat="47.92405" lon="7.02999">
        <ele>1191</ele>
        <time>2014-06-22T07:19:19Z</time>
      </trkpt>
      <trkpt lat="47.92411" lon="7.03001">
        <ele>1189</ele>
        <time>2014-06-22T07:19:32Z</time>
      </trkpt>
      <trkpt lat="47.9241" lon="7.03006">
        <ele>1189</ele>
        <time>2014-06-22T07:19:36Z</time>
      </trkpt>
      <trkpt lat="47.92409" lon="7.0301">
        <ele>1189</ele>
        <time>2014-06-22T07:19:38Z</time>
      </trkpt>
      <trkpt lat="47.92399" lon="7.03013">
        <ele>1188</ele>
        <time>2014-06-22T07:19:48Z</time>
      </trkpt>
      <trkpt lat="47.92413" lon="7.03019">
        <ele>1188</ele>
        <time>2014-06-22T07:20:40Z</time>
      </trkpt>
      <trkpt lat="47.92409" lon="7.03017">
        <ele>1188</ele>
        <time>2014-06-22T07:20:45Z</time>
      </trkpt>
      <trkpt lat="47.92409" lon="7.03023">
        <ele>1188</ele>
        <time>2014-06-22T07:20:58Z</time>
      </trkpt>
      <trkpt lat="47.9241" lon="7.03021">
        <ele>1188</ele>
        <time>2014-06-22T07:22:46Z</time>
      </trkpt>
      <trkpt lat="47.92408" lon="7.03018">
        <ele>1188</ele>
        <time>2014-06-22T07:23:16Z</time>
      </trkpt>
      <trkpt lat="47.92408" lon="7.03014">
        <ele>1189</ele>
        <time>2014-06-22T07:23:56Z</time>
      </trkpt>
      <trkpt lat="47.92408" lon="7.03018">
        <ele>1188</ele>
        <time>2014-06-22T07:24:17Z</time>
      </trkpt>
      <trkpt lat="47.92404" lon="7.03019">
        <ele>1188</ele>
        <time>2014-06-22T07:24:33Z</time>
      </trkpt>
      <trkpt lat="47.92405" lon="7.03015">
        <ele>1188</ele>
        <time>2014-06-22T07:26:16Z</time>
      </trkpt>
      <trkpt lat="47.92407" lon="7.03014">
        <ele>1189</ele>
        <time>2014-06-22T07:28:49Z</time>
      </trkpt>
      <trkpt lat="47.92406" lon="7.03017">
        <ele>1188</ele>
        <time>2014-06-22T07:31:08Z</time>
      </trkpt>
      <trkpt lat="47.92409" lon="7.03019">
        <ele>1188</ele>
        <time>2014-06-22T07:32:15Z</time>
      </trkpt>
      <trkpt lat="47.92412" lon="7.0302">
        <ele>1188</ele>
        <time>2014-06-22T07:32:35Z</time>
      </trkpt>
      <trkpt lat="47.92415" lon="7.0302">
        <ele>1188</ele>
        <time>2014-06-22T07:32:51Z</time>
      </trkpt>
      <trkpt lat="47.92415" lon="7.03016">
        <ele>1189</ele>
        <time>2014-06-22T07:33:18Z</time>
      </trkpt>
      <trkpt lat="47.92412" lon="7.03018">
        <ele>1188</ele>
        <time>2014-06-22T07:33:42Z</time>
      </trkpt>
      <trkpt lat="47.92414" lon="7.03023">
        <ele>1188</ele>
        <time>2014-06-22T07:36:46Z</time>
      </trkpt>
      <trkpt lat="47.92412" lon="7.0302">
        <ele>1188</ele>
        <time>2014-06-22T07:37:50Z</time>
      </trkpt>
      <trkpt lat="47.92409" lon="7.03021">
        <ele>1188</ele>
        <time>2014-06-22T07:39:28Z</time>
      </trkpt>
      <trkpt lat="47.92407" lon="7.03024">
        <ele>1188</ele>
        <time>2014-06-22T07:39:33Z</time>
      </trkpt>
      <trkpt lat="47.92406" lon="7.0302">
        <ele>1188</ele>
        <time>2014-06-22T07:47:59Z</time>
      </trkpt>
      <trkpt lat="47.92403" lon="7.0302">
        <ele>1188</ele>
        <time>2014-06-22T07:49:10Z</time>
      </trkpt>
      <trkpt lat="47.92403" lon="7.03016">
        <ele>1188</ele>
        <time>2014-06-22T07:49:42Z</time>
      </trkpt>
      <trkpt lat="47.92403" lon="7.0302">
        <ele>1188</ele>
        <time>2014-06-22T07:50:08Z</time>
      </trkpt>
      <trkpt lat="47.924" lon="7.03019">
        <ele>1188</ele>
        <time>2014-06-22T07:51:06Z</time>
      </trkpt>
      <trkpt lat="47.92398" lon="7.03023">
        <ele>1188</ele>
        <time>2014-06-22T07:51:57Z</time>
      </trkpt>
      <trkpt lat="47.92396" lon="7.03035">
        <ele>1187</ele>
        <time>2014-06-22T07:52:11Z</time>
      </trkpt>
      <trkpt lat="47.92384" lon="7.03047">
        <ele>1187</ele>
        <time>2014-06-22T07:52:23Z</time>
      </trkpt>
      <trkpt lat="47.92374" lon="7.03059">
        <ele>1187</ele>
        <time>2014-06-22T07:52:33Z</time>
      </trkpt>
      <trkpt lat="47.92362" lon="7.03071">
        <ele>1187</ele>
        <time>2014-06-22T07:52:43Z</time>
      </trkpt>
      <trkpt lat="47.92353" lon="7.03084">
        <ele>1184</ele>
        <time>2014-06-22T07:52:51Z</time>
      </trkpt>
      <trkpt lat="47.9234" lon="7.03105">
        <ele>1184</ele>
        <time>2014-06-22T07:53:03Z</time>
      </trkpt>
      <trkpt lat="47.92329" lon="7.03123">
        <ele>1185</ele>
        <time>2014-06-22T07:53:14Z</time>
      </trkpt>
      <trkpt lat="47.92326" lon="7.03132">
        <ele>1184</ele>
        <time>2014-06-22T07:53:18Z</time>
      </trkpt>
      <trkpt lat="47.92318" lon="7.03154">
        <ele>1184</ele>
        <time>2014-06-22T07:53:29Z</time>
      </trkpt>
      <trkpt lat="47.92312" lon="7.03175">
        <ele>1182</ele>
        <time>2014-06-22T07:53:40Z</time>
      </trkpt>
      <trkpt lat="47.92311" lon="7.03179">
        <ele>1182</ele>
        <time>2014-06-22T07:53:42Z</time>
      </trkpt>
      <trkpt lat="47.92306" lon="7.032">
        <ele>1182</ele>
        <time>2014-06-22T07:53:53Z</time>
      </trkpt>
      <trkpt lat="47.92302" lon="7.03218">
        <ele>1182</ele>
        <time>2014-06-22T07:54:02Z</time>
      </trkpt>
      <trkpt lat="47.92299" lon="7.03243">
        <ele>1181</ele>
        <time>2014-06-22T07:54:13Z</time>
      </trkpt>
      <trkpt lat="47.92298" lon="7.03248">
        <ele>1181</ele>
        <time>2014-06-22T07:54:15Z</time>
      </trkpt>
      <trkpt lat="47.92294" lon="7.03268">
        <ele>1180</ele>
        <time>2014-06-22T07:54:26Z</time>
      </trkpt>
      <trkpt lat="47.9229" lon="7.03291">
        <ele>1179</ele>
        <time>2014-06-22T07:54:37Z</time>
      </trkpt>
      <trkpt lat="47.92288" lon="7.03312">
        <ele>1179</ele>
        <time>2014-06-22T07:54:47Z</time>
      </trkpt>
      <trkpt lat="47.92285" lon="7.03335">
        <ele>1176</ele>
        <time>2014-06-22T07:54:58Z</time>
      </trkpt>
      <trkpt lat="47.92281" lon="7.03359">
        <ele>1176</ele>
        <time>2014-06-22T07:55:08Z</time>
      </trkpt>
      <trkpt lat="47.92275" lon="7.03382">
        <ele>1175</ele>
        <time>2014-06-22T07:55:19Z</time>
      </trkpt>
      <trkpt lat="47.92271" lon="7.03404">
        <ele>1173</ele>
        <time>2014-06-22T07:55:30Z</time>
      </trkpt>
      <trkpt lat="47.92273" lon="7.03423">
        <ele>1170</ele>
        <time>2014-06-22T07:55:39Z</time>
      </trkpt>
      <trkpt lat="47.92277" lon="7.03445">
        <ele>1170</ele>
        <time>2014-06-22T07:55:50Z</time>
      </trkpt>
      <trkpt lat="47.92281" lon="7.03457">
        <ele>1170</ele>
        <time>2014-06-22T07:56:01Z</time>
      </trkpt>
      <trkpt lat="47.92283" lon="7.0348">
        <ele>1169</ele>
        <time>2014-06-22T07:56:11Z</time>
      </trkpt>
      <trkpt lat="47.92285" lon="7.03503">
        <ele>1167</ele>
        <time>2014-06-22T07:56:21Z</time>
      </trkpt>
      <trkpt lat="47.92289" lon="7.03525">
        <ele>1167</ele>
        <time>2014-06-22T07:56:31Z</time>
      </trkpt>
      <trkpt lat="47.9229" lon="7.03552">
        <ele>1167</ele>
        <time>2014-06-22T07:56:43Z</time>
      </trkpt>
      <trkpt lat="47.92292" lon="7.03575">
        <ele>1167</ele>
        <time>2014-06-22T07:56:54Z</time>
      </trkpt>
      <trkpt lat="47.92293" lon="7.03599">
        <ele>1169</ele>
        <time>2014-06-22T07:57:04Z</time>
      </trkpt>
      <trkpt lat="47.92294" lon="7.03621">
        <ele>1170</ele>
        <time>2014-06-22T07:57:14Z</time>
      </trkpt>
      <trkpt lat="47.92291" lon="7.03644">
        <ele>1171</ele>
        <time>2014-06-22T07:57:24Z</time>
      </trkpt>
      <trkpt lat="47.92287" lon="7.03665">
        <ele>1171</ele>
        <time>2014-06-22T07:57:35Z</time>
      </trkpt>
      <trkpt lat="47.92281" lon="7.03682">
        <ele>1176</ele>
        <time>2014-06-22T07:57:45Z</time>
      </trkpt>
      <trkpt lat="47.92271" lon="7.03699">
        <ele>1176</ele>
        <time>2014-06-22T07:57:55Z</time>
      </trkpt>
      <trkpt lat="47.92262" lon="7.03714">
        <ele>1177</ele>
        <time>2014-06-22T07:58:05Z</time>
      </trkpt>
      <trkpt lat="47.92255" lon="7.03734">
        <ele>1177</ele>
        <time>2014-06-22T07:58:15Z</time>
      </trkpt>
      <trkpt lat="47.92248" lon="7.03755">
        <ele>1174</ele>
        <time>2014-06-22T07:58:25Z</time>
      </trkpt>
      <trkpt lat="47.92241" lon="7.03774">
        <ele>1174</ele>
        <time>2014-06-22T07:58:35Z</time>
      </trkpt>
      <trkpt lat="47.92231" lon="7.03791">
        <ele>1175</ele>
        <time>2014-06-22T07:58:45Z</time>
      </trkpt>
      <trkpt lat="47.92219" lon="7.03811">
        <ele>1176</ele>
        <time>2014-06-22T07:58:57Z</time>
      </trkpt>
      <trkpt lat="47.92207" lon="7.03825">
        <ele>1174</ele>
        <time>2014-06-22T07:59:07Z</time>
      </trkpt>
      <trkpt lat="47.92185" lon="7.03857">
        <ele>1183</ele>
        <time>2014-06-22T07:59:27Z</time>
      </trkpt>
      <trkpt lat="47.92173" lon="7.0387">
        <ele>1184</ele>
        <time>2014-06-22T07:59:37Z</time>
      </trkpt>
      <trkpt lat="47.92162" lon="7.03883">
        <ele>1172</ele>
        <time>2014-06-22T07:59:47Z</time>
      </trkpt>
      <trkpt lat="47.92151" lon="7.03897">
        <ele>1175</ele>
        <time>2014-06-22T07:59:58Z</time>
      </trkpt>
      <trkpt lat="47.92142" lon="7.03915">
        <ele>1175</ele>
        <time>2014-06-22T08:00:08Z</time>
      </trkpt>
      <trkpt lat="47.92134" lon="7.03936">
        <ele>1187</ele>
        <time>2014-06-22T08:00:18Z</time>
      </trkpt>
      <trkpt lat="47.92132" lon="7.03939">
        <ele>1187</ele>
        <time>2014-06-22T08:00:20Z</time>
      </trkpt>
      <trkpt lat="47.92118" lon="7.03952">
        <ele>1187</ele>
        <time>2014-06-22T08:00:32Z</time>
      </trkpt>
      <trkpt lat="47.92103" lon="7.03965">
        <ele>1188</ele>
        <time>2014-06-22T08:00:42Z</time>
      </trkpt>
      <trkpt lat="47.921" lon="7.03968">
        <ele>1188</ele>
        <time>2014-06-22T08:00:44Z</time>
      </trkpt>
      <trkpt lat="47.92085" lon="7.03975">
        <ele>1189</ele>
        <time>2014-06-22T08:00:55Z</time>
      </trkpt>
      <trkpt lat="47.92082" lon="7.03977">
        <ele>1180</ele>
        <time>2014-06-22T08:00:58Z</time>
      </trkpt>
      <trkpt lat="47.92079" lon="7.03978">
        <ele>1180</ele>
        <time>2014-06-22T08:01:00Z</time>
      </trkpt>
      <trkpt lat="47.92063" lon="7.03985">
        <ele>1179</ele>
        <time>2014-06-22T08:01:10Z</time>
      </trkpt>
      <trkpt lat="47.92054" lon="7.03988">
        <ele>1178</ele>
        <time>2014-06-22T08:01:17Z</time>
      </trkpt>
      <trkpt lat="47.92042" lon="7.0399">
        <ele>1176</ele>
        <time>2014-06-22T08:01:27Z</time>
      </trkpt>
      <trkpt lat="47.92037" lon="7.03995">
        <ele>1176</ele>
        <time>2014-06-22T08:01:31Z</time>
      </trkpt>
      <trkpt lat="47.92026" lon="7.04006">
        <ele>1190</ele>
        <time>2014-06-22T08:01:41Z</time>
      </trkpt>
      <trkpt lat="47.92011" lon="7.04017">
        <ele>1189</ele>
        <time>2014-06-22T08:01:52Z</time>
      </trkpt>
      <trkpt lat="47.92001" lon="7.0403">
        <ele>1192</ele>
        <time>2014-06-22T08:02:03Z</time>
      </trkpt>
      <trkpt lat="47.91985" lon="7.04038">
        <ele>1184</ele>
        <time>2014-06-22T08:02:13Z</time>
      </trkpt>
      <trkpt lat="47.91982" lon="7.04039">
        <ele>1184</ele>
        <time>2014-06-22T08:02:15Z</time>
      </trkpt>
      <trkpt lat="47.91968" lon="7.04052">
        <ele>1185</ele>
        <time>2014-06-22T08:02:27Z</time>
      </trkpt>
      <trkpt lat="47.91965" lon="7.04055">
        <ele>1185</ele>
        <time>2014-06-22T08:02:29Z</time>
      </trkpt>
      <trkpt lat="47.91961" lon="7.04061">
        <ele>1185</ele>
        <time>2014-06-22T08:02:33Z</time>
      </trkpt>
      <trkpt lat="47.91949" lon="7.04076">
        <ele>1185</ele>
        <time>2014-06-22T08:02:43Z</time>
      </trkpt>
      <trkpt lat="47.91945" lon="7.04078">
        <ele>1185</ele>
        <time>2014-06-22T08:02:45Z</time>
      </trkpt>
      <trkpt lat="47.91937" lon="7.04082">
        <ele>1185</ele>
        <time>2014-06-22T08:02:49Z</time>
      </trkpt>
      <trkpt lat="47.91933" lon="7.04083">
        <ele>1185</ele>
        <time>2014-06-22T08:02:51Z</time>
      </trkpt>
      <trkpt lat="47.91919" lon="7.0409">
        <ele>1192</ele>
        <time>2014-06-22T08:03:02Z</time>
      </trkpt>
      <trkpt lat="47.91916" lon="7.04092">
        <ele>1188</ele>
        <time>2014-06-22T08:03:04Z</time>
      </trkpt>
      <trkpt lat="47.91913" lon="7.04092">
        <ele>1189</ele>
        <time>2014-06-22T08:03:06Z</time>
      </trkpt>
      <trkpt lat="47.91896" lon="7.04095">
        <ele>1189</ele>
        <time>2014-06-22T08:03:17Z</time>
      </trkpt>
      <trkpt lat="47.91885" lon="7.04104">
        <ele>1190</ele>
        <time>2014-06-22T08:03:25Z</time>
      </trkpt>
      <trkpt lat="47.91872" lon="7.04115">
        <ele>1190</ele>
        <time>2014-06-22T08:03:35Z</time>
      </trkpt>
      <trkpt lat="47.91869" lon="7.04116">
        <ele>1190</ele>
        <time>2014-06-22T08:03:37Z</time>
      </trkpt>
      <trkpt lat="47.91847" lon="7.04124">
        <ele>1189</ele>
        <time>2014-06-22T08:03:49Z</time>
      </trkpt>
      <trkpt lat="47.91831" lon="7.04129">
        <ele>1179</ele>
        <time>2014-06-22T08:03:59Z</time>
      </trkpt>
      <trkpt lat="47.91816" lon="7.04136">
        <ele>1179</ele>
        <time>2014-06-22T08:04:09Z</time>
      </trkpt>
      <trkpt lat="47.91813" lon="7.04138">
        <ele>1179</ele>
        <time>2014-06-22T08:04:11Z</time>
      </trkpt>
      <trkpt lat="47.91799" lon="7.04149">
        <ele>1179</ele>
        <time>2014-06-22T08:04:21Z</time>
      </trkpt>
      <trkpt lat="47.91789" lon="7.04162">
        <ele>1178</ele>
        <time>2014-06-22T08:04:32Z</time>
      </trkpt>
      <trkpt lat="47.91774" lon="7.04173">
        <ele>1188</ele>
        <time>2014-06-22T08:04:42Z</time>
      </trkpt>
      <trkpt lat="47.91764" lon="7.04175">
        <ele>1185</ele>
        <time>2014-06-22T08:04:51Z</time>
      </trkpt>
      <trkpt lat="47.91761" lon="7.0418">
        <ele>1185</ele>
        <time>2014-06-22T08:04:54Z</time>
      </trkpt>
      <trkpt lat="47.91745" lon="7.04194">
        <ele>1174</ele>
        <time>2014-06-22T08:05:04Z</time>
      </trkpt>
      <trkpt lat="47.91732" lon="7.04209">
        <ele>1175</ele>
        <time>2014-06-22T08:05:14Z</time>
      </trkpt>
      <trkpt lat="47.9173" lon="7.04211">
        <ele>1175</ele>
        <time>2014-06-22T08:05:16Z</time>
      </trkpt>
      <trkpt lat="47.91721" lon="7.04225">
        <ele>1176</ele>
        <time>2014-06-22T08:05:27Z</time>
      </trkpt>
      <trkpt lat="47.91715" lon="7.04243">
        <ele>1177</ele>
        <time>2014-06-22T08:05:36Z</time>
      </trkpt>
      <trkpt lat="47.91714" lon="7.04248">
        <ele>1176</ele>
        <time>2014-06-22T08:05:38Z</time>
      </trkpt>
      <trkpt lat="47.91713" lon="7.04253">
        <ele>1190</ele>
        <time>2014-06-22T08:05:40Z</time>
      </trkpt>
      <trkpt lat="47.91702" lon="7.04271">
        <ele>1189</ele>
        <time>2014-06-22T08:05:50Z</time>
      </trkpt>
      <trkpt lat="47.917" lon="7.04274">
        <ele>1189</ele>
        <time>2014-06-22T08:05:52Z</time>
      </trkpt>
      <trkpt lat="47.91691" lon="7.04286">
        <ele>1190</ele>
        <time>2014-06-22T08:06:02Z</time>
      </trkpt>
      <trkpt lat="47.91679" lon="7.04301">
        <ele>1191</ele>
        <time>2014-06-22T08:06:14Z</time>
      </trkpt>
      <trkpt lat="47.9167" lon="7.04314">
        <ele>1192</ele>
        <time>2014-06-22T08:06:25Z</time>
      </trkpt>
      <trkpt lat="47.91659" lon="7.04328">
        <ele>1186</ele>
        <time>2014-06-22T08:06:33Z</time>
      </trkpt>
      <trkpt lat="47.9165" lon="7.04346">
        <ele>1194</ele>
        <time>2014-06-22T08:06:45Z</time>
      </trkpt>
      <trkpt lat="47.91642" lon="7.04354">
        <ele>1194</ele>
        <time>2014-06-22T08:06:53Z</time>
      </trkpt>
      <trkpt lat="47.91639" lon="7.04357">
        <ele>1194</ele>
        <time>2014-06-22T08:06:55Z</time>
      </trkpt>
      <trkpt lat="47.91624" lon="7.0437">
        <ele>1194</ele>
        <time>2014-06-22T08:07:05Z</time>
      </trkpt>
      <trkpt lat="47.91621" lon="7.0437">
        <ele>1194</ele>
        <time>2014-06-22T08:07:07Z</time>
      </trkpt>
      <trkpt lat="47.91609" lon="7.04376">
        <ele>1193</ele>
        <time>2014-06-22T08:07:17Z</time>
      </trkpt>
      <trkpt lat="47.91594" lon="7.04383">
        <ele>1193</ele>
        <time>2014-06-22T08:07:25Z</time>
      </trkpt>
      <trkpt lat="47.91587" lon="7.04386">
        <ele>1194</ele>
        <time>2014-06-22T08:07:29Z</time>
      </trkpt>
      <trkpt lat="47.91571" lon="7.04395">
        <ele>1187</ele>
        <time>2014-06-22T08:07:39Z</time>
      </trkpt>
      <trkpt lat="47.91555" lon="7.04403">
        <ele>1186</ele>
        <time>2014-06-22T08:07:49Z</time>
      </trkpt>
      <trkpt lat="47.91541" lon="7.04408">
        <ele>1184</ele>
        <time>2014-06-22T08:07:59Z</time>
      </trkpt>
      <trkpt lat="47.91526" lon="7.04413">
        <ele>1184</ele>
        <time>2014-06-22T08:08:10Z</time>
      </trkpt>
      <trkpt lat="47.91511" lon="7.04416">
        <ele>1184</ele>
        <time>2014-06-22T08:08:21Z</time>
      </trkpt>
      <trkpt lat="47.91495" lon="7.04418">
        <ele>1187</ele>
        <time>2014-06-22T08:08:32Z</time>
      </trkpt>
      <trkpt lat="47.91479" lon="7.04419">
        <ele>1188</ele>
        <time>2014-06-22T08:08:44Z</time>
      </trkpt>
      <trkpt lat="47.91476" lon="7.0442">
        <ele>1188</ele>
        <time>2014-06-22T08:08:47Z</time>
      </trkpt>
      <trkpt lat="47.91456" lon="7.04423">
        <ele>1188</ele>
        <time>2014-06-22T08:08:59Z</time>
      </trkpt>
      <trkpt lat="47.91439" lon="7.04435">
        <ele>1188</ele>
        <time>2014-06-22T08:09:11Z</time>
      </trkpt>
      <trkpt lat="47.91436" lon="7.04435">
        <ele>1187</ele>
        <time>2014-06-22T08:09:15Z</time>
      </trkpt>
      <trkpt lat="47.91433" lon="7.04434">
        <ele>1187</ele>
        <time>2014-06-22T08:09:17Z</time>
      </trkpt>
      <trkpt lat="47.91419" lon="7.04438">
        <ele>1187</ele>
        <time>2014-06-22T08:09:27Z</time>
      </trkpt>
      <trkpt lat="47.91408" lon="7.04439">
        <ele>1177</ele>
        <time>2014-06-22T08:09:33Z</time>
      </trkpt>
      <trkpt lat="47.91405" lon="7.04442">
        <ele>1176</ele>
        <time>2014-06-22T08:09:35Z</time>
      </trkpt>
      <trkpt lat="47.91403" lon="7.04451">
        <ele>1177</ele>
        <time>2014-06-22T08:09:38Z</time>
      </trkpt>
      <trkpt lat="47.91392" lon="7.04471">
        <ele>1178</ele>
        <time>2014-06-22T08:09:49Z</time>
      </trkpt>
      <trkpt lat="47.91389" lon="7.04473">
        <ele>1177</ele>
        <time>2014-06-22T08:09:51Z</time>
      </trkpt>
      <trkpt lat="47.91377" lon="7.04486">
        <ele>1175</ele>
        <time>2014-06-22T08:10:02Z</time>
      </trkpt>
      <trkpt lat="47.91371" lon="7.04505">
        <ele>1183</ele>
        <time>2014-06-22T08:10:10Z</time>
      </trkpt>
      <trkpt lat="47.91368" lon="7.04521">
        <ele>1183</ele>
        <time>2014-06-22T08:10:16Z</time>
      </trkpt>
      <trkpt lat="47.9136" lon="7.04542">
        <ele>1183</ele>
        <time>2014-06-22T08:10:27Z</time>
      </trkpt>
      <trkpt lat="47.91349" lon="7.04561">
        <ele>1183</ele>
        <time>2014-06-22T08:10:37Z</time>
      </trkpt>
      <trkpt lat="47.91347" lon="7.04565">
        <ele>1183</ele>
        <time>2014-06-22T08:10:39Z</time>
      </trkpt>
      <trkpt lat="47.91345" lon="7.04568">
        <ele>1183</ele>
        <time>2014-06-22T08:10:41Z</time>
      </trkpt>
      <trkpt lat="47.91342" lon="7.04571">
        <ele>1183</ele>
        <time>2014-06-22T08:10:43Z</time>
      </trkpt>
      <trkpt lat="47.91338" lon="7.04577">
        <ele>1182</ele>
        <time>2014-06-22T08:10:47Z</time>
      </trkpt>
      <trkpt lat="47.91331" lon="7.04597">
        <ele>1177</ele>
        <time>2014-06-22T08:10:57Z</time>
      </trkpt>
      <trkpt lat="47.9133" lon="7.04602">
        <ele>1177</ele>
        <time>2014-06-22T08:10:59Z</time>
      </trkpt>
      <trkpt lat="47.91329" lon="7.04607">
        <ele>1176</ele>
        <time>2014-06-22T08:11:02Z</time>
      </trkpt>
      <trkpt lat="47.9132" lon="7.04623">
        <ele>1176</ele>
        <time>2014-06-22T08:11:12Z</time>
      </trkpt>
      <trkpt lat="47.91317" lon="7.04627">
        <ele>1176</ele>
        <time>2014-06-22T08:11:14Z</time>
      </trkpt>
      <trkpt lat="47.91309" lon="7.04642">
        <ele>1176</ele>
        <time>2014-06-22T08:11:22Z</time>
      </trkpt>
      <trkpt lat="47.91302" lon="7.04657">
        <ele>1176</ele>
        <time>2014-06-22T08:11:32Z</time>
      </trkpt>
      <trkpt lat="47.913" lon="7.04681">
        <ele>1180</ele>
        <time>2014-06-22T08:11:44Z</time>
      </trkpt>
      <trkpt lat="47.91293" lon="7.04702">
        <ele>1179</ele>
        <time>2014-06-22T08:11:54Z</time>
      </trkpt>
      <trkpt lat="47.91286" lon="7.04724">
        <ele>1178</ele>
        <time>2014-06-22T08:12:04Z</time>
      </trkpt>
      <trkpt lat="47.91278" lon="7.04749">
        <ele>1177</ele>
        <time>2014-06-22T08:12:16Z</time>
      </trkpt>
      <trkpt lat="47.91272" lon="7.04771">
        <ele>1177</ele>
        <time>2014-06-22T08:12:26Z</time>
      </trkpt>
      <trkpt lat="47.91265" lon="7.04794">
        <ele>1177</ele>
        <time>2014-06-22T08:12:37Z</time>
      </trkpt>
      <trkpt lat="47.91259" lon="7.04811">
        <ele>1176</ele>
        <time>2014-06-22T08:12:47Z</time>
      </trkpt>
      <trkpt lat="47.91252" lon="7.04837">
        <ele>1174</ele>
        <time>2014-06-22T08:12:57Z</time>
      </trkpt>
      <trkpt lat="47.9124" lon="7.04852">
        <ele>1170</ele>
        <time>2014-06-22T08:13:07Z</time>
      </trkpt>
      <trkpt lat="47.91228" lon="7.04867">
        <ele>1168</ele>
        <time>2014-06-22T08:13:17Z</time>
      </trkpt>
      <trkpt lat="47.91216" lon="7.04885">
        <ele>1168</ele>
        <time>2014-06-22T08:13:27Z</time>
      </trkpt>
      <trkpt lat="47.91204" lon="7.04899">
        <ele>1167</ele>
        <time>2014-06-22T08:13:37Z</time>
      </trkpt>
      <trkpt lat="47.91195" lon="7.04912">
        <ele>1167</ele>
        <time>2014-06-22T08:13:51Z</time>
      </trkpt>
      <trkpt lat="47.91182" lon="7.04932">
        <ele>1170</ele>
        <time>2014-06-22T08:14:01Z</time>
      </trkpt>
      <trkpt lat="47.91171" lon="7.04948">
        <ele>1170</ele>
        <time>2014-06-22T08:14:11Z</time>
      </trkpt>
      <trkpt lat="47.91158" lon="7.04964">
        <ele>1172</ele>
        <time>2014-06-22T08:14:21Z</time>
      </trkpt>
      <trkpt lat="47.91146" lon="7.04976">
        <ele>1173</ele>
        <time>2014-06-22T08:14:31Z</time>
      </trkpt>
      <trkpt lat="47.91136" lon="7.0499">
        <ele>1174</ele>
        <time>2014-06-22T08:14:41Z</time>
      </trkpt>
      <trkpt lat="47.91128" lon="7.05006">
        <ele>1180</ele>
        <time>2014-06-22T08:14:51Z</time>
      </trkpt>
      <trkpt lat="47.9112" lon="7.05015">
        <ele>1180</ele>
        <time>2014-06-22T08:15:00Z</time>
      </trkpt>
      <trkpt lat="47.91111" lon="7.05029">
        <ele>1181</ele>
        <time>2014-06-22T08:15:11Z</time>
      </trkpt>
      <trkpt lat="47.91109" lon="7.05032">
        <ele>1181</ele>
        <time>2014-06-22T08:15:13Z</time>
      </trkpt>
      <trkpt lat="47.91098" lon="7.05047">
        <ele>1181</ele>
        <time>2014-06-22T08:15:24Z</time>
      </trkpt>
      <trkpt lat="47.91085" lon="7.05062">
        <ele>1182</ele>
        <time>2014-06-22T08:15:34Z</time>
      </trkpt>
      <trkpt lat="47.91075" lon="7.0508">
        <ele>1183</ele>
        <time>2014-06-22T08:15:45Z</time>
      </trkpt>
      <trkpt lat="47.91071" lon="7.05104">
        <ele>1181</ele>
        <time>2014-06-22T08:15:55Z</time>
      </trkpt>
      <trkpt lat="47.91068" lon="7.05129">
        <ele>1180</ele>
        <time>2014-06-22T08:16:05Z</time>
      </trkpt>
      <trkpt lat="47.91067" lon="7.05138">
        <ele>1179</ele>
        <time>2014-06-22T08:16:10Z</time>
      </trkpt>
      <trkpt lat="47.91067" lon="7.05162">
        <ele>1179</ele>
        <time>2014-06-22T08:16:21Z</time>
      </trkpt>
      <trkpt lat="47.91066" lon="7.0519">
        <ele>1178</ele>
        <time>2014-06-22T08:16:31Z</time>
      </trkpt>
      <trkpt lat="47.91065" lon="7.05214">
        <ele>1178</ele>
        <time>2014-06-22T08:16:41Z</time>
      </trkpt>
      <trkpt lat="47.91065" lon="7.05235">
        <ele>1179</ele>
        <time>2014-06-22T08:16:51Z</time>
      </trkpt>
      <trkpt lat="47.91066" lon="7.05258">
        <ele>1182</ele>
        <time>2014-06-22T08:17:01Z</time>
      </trkpt>
      <trkpt lat="47.91066" lon="7.05262">
        <ele>1182</ele>
        <time>2014-06-22T08:17:03Z</time>
      </trkpt>
      <trkpt lat="47.91066" lon="7.05279">
        <ele>1183</ele>
        <time>2014-06-22T08:17:11Z</time>
      </trkpt>
      <trkpt lat="47.9107" lon="7.05297">
        <ele>1184</ele>
        <time>2014-06-22T08:17:22Z</time>
      </trkpt>
      <trkpt lat="47.9107" lon="7.05303">
        <ele>1185</ele>
        <time>2014-06-22T08:17:25Z</time>
      </trkpt>
      <trkpt lat="47.91071" lon="7.05318">
        <ele>1187</ele>
        <time>2014-06-22T08:17:35Z</time>
      </trkpt>
      <trkpt lat="47.91072" lon="7.05324">
        <ele>1189</ele>
        <time>2014-06-22T08:17:38Z</time>
      </trkpt>
      <trkpt lat="47.91071" lon="7.05328">
        <ele>1189</ele>
        <time>2014-06-22T08:17:41Z</time>
      </trkpt>
      <trkpt lat="47.91068" lon="7.0535">
        <ele>1192</ele>
        <time>2014-06-22T08:17:52Z</time>
      </trkpt>
      <trkpt lat="47.91069" lon="7.05363">
        <ele>1192</ele>
        <time>2014-06-22T08:17:58Z</time>
      </trkpt>
      <trkpt lat="47.91072" lon="7.05383">
        <ele>1194</ele>
        <time>2014-06-22T08:18:08Z</time>
      </trkpt>
      <trkpt lat="47.91076" lon="7.05401">
        <ele>1198</ele>
        <time>2014-06-22T08:18:19Z</time>
      </trkpt>
      <trkpt lat="47.91075" lon="7.05406">
        <ele>1199</ele>
        <time>2014-06-22T08:18:21Z</time>
      </trkpt>
      <trkpt lat="47.91076" lon="7.05426">
        <ele>1201</ele>
        <time>2014-06-22T08:18:31Z</time>
      </trkpt>
      <trkpt lat="47.91077" lon="7.0543">
        <ele>1201</ele>
        <time>2014-06-22T08:18:33Z</time>
      </trkpt>
      <trkpt lat="47.9108" lon="7.05453">
        <ele>1199</ele>
        <time>2014-06-22T08:18:45Z</time>
      </trkpt>
      <trkpt lat="47.9108" lon="7.05458">
        <ele>1199</ele>
        <time>2014-06-22T08:18:48Z</time>
      </trkpt>
      <trkpt lat="47.9108" lon="7.05464">
        <ele>1199</ele>
        <time>2014-06-22T08:18:51Z</time>
      </trkpt>
      <trkpt lat="47.91083" lon="7.0549">
        <ele>1201</ele>
        <time>2014-06-22T08:19:03Z</time>
      </trkpt>
      <trkpt lat="47.91084" lon="7.05521">
        <ele>1206</ele>
        <time>2014-06-22T08:19:14Z</time>
      </trkpt>
      <trkpt lat="47.91085" lon="7.05534">
        <ele>1207</ele>
        <time>2014-06-22T08:19:23Z</time>
      </trkpt>
      <trkpt lat="47.91086" lon="7.05559">
        <ele>1208</ele>
        <time>2014-06-22T08:19:33Z</time>
      </trkpt>
      <trkpt lat="47.91086" lon="7.05578">
        <ele>1208</ele>
        <time>2014-06-22T08:19:43Z</time>
      </trkpt>
      <trkpt lat="47.91082" lon="7.05594">
        <ele>1203</ele>
        <time>2014-06-22T08:19:53Z</time>
      </trkpt>
      <trkpt lat="47.9108" lon="7.05598">
        <ele>1202</ele>
        <time>2014-06-22T08:19:56Z</time>
      </trkpt>
      <trkpt lat="47.91079" lon="7.05604">
        <ele>1201</ele>
        <time>2014-06-22T08:19:59Z</time>
      </trkpt>
      <trkpt lat="47.91077" lon="7.0563">
        <ele>1200</ele>
        <time>2014-06-22T08:20:09Z</time>
      </trkpt>
      <trkpt lat="47.91077" lon="7.05639">
        <ele>1201</ele>
        <time>2014-06-22T08:20:13Z</time>
      </trkpt>
      <trkpt lat="47.91077" lon="7.05644">
        <ele>1202</ele>
        <time>2014-06-22T08:20:15Z</time>
      </trkpt>
      <trkpt lat="47.91081" lon="7.05668">
        <ele>1209</ele>
        <time>2014-06-22T08:20:27Z</time>
      </trkpt>
      <trkpt lat="47.91081" lon="7.05684">
        <ele>1200</ele>
        <time>2014-06-22T08:20:36Z</time>
      </trkpt>
      <trkpt lat="47.91083" lon="7.05698">
        <ele>1213</ele>
        <time>2014-06-22T08:20:43Z</time>
      </trkpt>
      <trkpt lat="47.91084" lon="7.05721">
        <ele>1211</ele>
        <time>2014-06-22T08:20:55Z</time>
      </trkpt>
      <trkpt lat="47.91085" lon="7.05727">
        <ele>1210</ele>
        <time>2014-06-22T08:20:58Z</time>
      </trkpt>
      <trkpt lat="47.91084" lon="7.05731">
        <ele>1210</ele>
        <time>2014-06-22T08:21:00Z</time>
      </trkpt>
      <trkpt lat="47.91083" lon="7.05755">
        <ele>1200</ele>
        <time>2014-06-22T08:21:12Z</time>
      </trkpt>
      <trkpt lat="47.91086" lon="7.05757">
        <ele>1205</ele>
        <time>2014-06-22T08:21:14Z</time>
      </trkpt>
      <trkpt lat="47.91098" lon="7.05779">
        <ele>1206</ele>
        <time>2014-06-22T08:21:26Z</time>
      </trkpt>
      <trkpt lat="47.91097" lon="7.05783">
        <ele>1206</ele>
        <time>2014-06-22T08:21:28Z</time>
      </trkpt>
      <trkpt lat="47.91091" lon="7.0581">
        <ele>1203</ele>
        <time>2014-06-22T08:21:38Z</time>
      </trkpt>
      <trkpt lat="47.91092" lon="7.05816">
        <ele>1203</ele>
        <time>2014-06-22T08:21:40Z</time>
      </trkpt>
      <trkpt lat="47.91097" lon="7.05835">
        <ele>1198</ele>
        <time>2014-06-22T08:21:48Z</time>
      </trkpt>
      <trkpt lat="47.91099" lon="7.05844">
        <ele>1198</ele>
        <time>2014-06-22T08:21:53Z</time>
      </trkpt>
      <trkpt lat="47.91104" lon="7.05864">
        <ele>1197</ele>
        <time>2014-06-22T08:22:03Z</time>
      </trkpt>
      <trkpt lat="47.9111" lon="7.05886">
        <ele>1196</ele>
        <time>2014-06-22T08:22:14Z</time>
      </trkpt>
      <trkpt lat="47.91112" lon="7.05892">
        <ele>1196</ele>
        <time>2014-06-22T08:22:16Z</time>
      </trkpt>
      <trkpt lat="47.91118" lon="7.05899">
        <ele>1196</ele>
        <time>2014-06-22T08:22:20Z</time>
      </trkpt>
      <trkpt lat="47.91128" lon="7.05918">
        <ele>1193</ele>
        <time>2014-06-22T08:22:30Z</time>
      </trkpt>
      <trkpt lat="47.9113" lon="7.05921">
        <ele>1193</ele>
        <time>2014-06-22T08:22:31Z</time>
      </trkpt>
      <trkpt lat="47.91135" lon="7.05929">
        <ele>1193</ele>
        <time>2014-06-22T08:22:34Z</time>
      </trkpt>
      <trkpt lat="47.91138" lon="7.05941">
        <ele>1193</ele>
        <time>2014-06-22T08:22:38Z</time>
      </trkpt>
      <trkpt lat="47.91139" lon="7.05945">
        <ele>1193</ele>
        <time>2014-06-22T08:22:40Z</time>
      </trkpt>
      <trkpt lat="47.91141" lon="7.05966">
        <ele>1193</ele>
        <time>2014-06-22T08:22:50Z</time>
      </trkpt>
      <trkpt lat="47.91148" lon="7.05981">
        <ele>1194</ele>
        <time>2014-06-22T08:23:00Z</time>
      </trkpt>
      <trkpt lat="47.9115" lon="7.05998">
        <ele>1195</ele>
        <time>2014-06-22T08:23:06Z</time>
      </trkpt>
      <trkpt lat="47.91151" lon="7.06007">
        <ele>1195</ele>
        <time>2014-06-22T08:23:10Z</time>
      </trkpt>
      <trkpt lat="47.91155" lon="7.06025">
        <ele>1194</ele>
        <time>2014-06-22T08:23:21Z</time>
      </trkpt>
      <trkpt lat="47.91157" lon="7.06053">
        <ele>1195</ele>
        <time>2014-06-22T08:23:31Z</time>
      </trkpt>
      <trkpt lat="47.91156" lon="7.06067">
        <ele>1197</ele>
        <time>2014-06-22T08:23:42Z</time>
      </trkpt>
      <trkpt lat="47.91154" lon="7.06071">
        <ele>1198</ele>
        <time>2014-06-22T08:23:45Z</time>
      </trkpt>
      <trkpt lat="47.91146" lon="7.06085">
        <ele>1198</ele>
        <time>2014-06-22T08:23:55Z</time>
      </trkpt>
      <trkpt lat="47.91142" lon="7.06117">
        <ele>1197</ele>
        <time>2014-06-22T08:24:06Z</time>
      </trkpt>
      <trkpt lat="47.9114" lon="7.06122">
        <ele>1196</ele>
        <time>2014-06-22T08:24:08Z</time>
      </trkpt>
      <trkpt lat="47.91132" lon="7.0614">
        <ele>1196</ele>
        <time>2014-06-22T08:24:19Z</time>
      </trkpt>
      <trkpt lat="47.9113" lon="7.06145">
        <ele>1196</ele>
        <time>2014-06-22T08:24:21Z</time>
      </trkpt>
      <trkpt lat="47.91127" lon="7.0616">
        <ele>1195</ele>
        <time>2014-06-22T08:24:29Z</time>
      </trkpt>
      <trkpt lat="47.91125" lon="7.06175">
        <ele>1197</ele>
        <time>2014-06-22T08:24:38Z</time>
      </trkpt>
      <trkpt lat="47.91124" lon="7.06179">
        <ele>1197</ele>
        <time>2014-06-22T08:24:41Z</time>
      </trkpt>
      <trkpt lat="47.91123" lon="7.06185">
        <ele>1197</ele>
        <time>2014-06-22T08:24:44Z</time>
      </trkpt>
      <trkpt lat="47.9112" lon="7.06209">
        <ele>1197</ele>
        <time>2014-06-22T08:24:55Z</time>
      </trkpt>
      <trkpt lat="47.91113" lon="7.06234">
        <ele>1195</ele>
        <time>2014-06-22T08:25:05Z</time>
      </trkpt>
      <trkpt lat="47.91112" lon="7.06239">
        <ele>1195</ele>
        <time>2014-06-22T08:25:07Z</time>
      </trkpt>
      <trkpt lat="47.91112" lon="7.06248">
        <ele>1194</ele>
        <time>2014-06-22T08:25:11Z</time>
      </trkpt>
      <trkpt lat="47.91106" lon="7.06269">
        <ele>1196</ele>
        <time>2014-06-22T08:25:21Z</time>
      </trkpt>
      <trkpt lat="47.91106" lon="7.06275">
        <ele>1197</ele>
        <time>2014-06-22T08:25:23Z</time>
      </trkpt>
      <trkpt lat="47.91106" lon="7.06283">
        <ele>1198</ele>
        <time>2014-06-22T08:25:26Z</time>
      </trkpt>
      <trkpt lat="47.91105" lon="7.06287">
        <ele>1198</ele>
        <time>2014-06-22T08:25:28Z</time>
      </trkpt>
      <trkpt lat="47.91109" lon="7.06301">
        <ele>1199</ele>
        <time>2014-06-22T08:25:34Z</time>
      </trkpt>
      <trkpt lat="47.91104" lon="7.06319">
        <ele>1197</ele>
        <time>2014-06-22T08:25:45Z</time>
      </trkpt>
      <trkpt lat="47.91103" lon="7.06334">
        <ele>1199</ele>
        <time>2014-06-22T08:25:54Z</time>
      </trkpt>
      <trkpt lat="47.911" lon="7.06359">
        <ele>1202</ele>
        <time>2014-06-22T08:26:05Z</time>
      </trkpt>
      <trkpt lat="47.91099" lon="7.06364">
        <ele>1202</ele>
        <time>2014-06-22T08:26:07Z</time>
      </trkpt>
      <trkpt lat="47.911" lon="7.06374">
        <ele>1204</ele>
        <time>2014-06-22T08:26:11Z</time>
      </trkpt>
      <trkpt lat="47.91093" lon="7.064">
        <ele>1203</ele>
        <time>2014-06-22T08:26:21Z</time>
      </trkpt>
      <trkpt lat="47.91083" lon="7.0642">
        <ele>1201</ele>
        <time>2014-06-22T08:26:31Z</time>
      </trkpt>
      <trkpt lat="47.91074" lon="7.0644">
        <ele>1195</ele>
        <time>2014-06-22T08:26:42Z</time>
      </trkpt>
      <trkpt lat="47.91074" lon="7.06445">
        <ele>1195</ele>
        <time>2014-06-22T08:26:44Z</time>
      </trkpt>
      <trkpt lat="47.91066" lon="7.06465">
        <ele>1195</ele>
        <time>2014-06-22T08:26:55Z</time>
      </trkpt>
      <trkpt lat="47.91065" lon="7.06469">
        <ele>1196</ele>
        <time>2014-06-22T08:26:57Z</time>
      </trkpt>
      <trkpt lat="47.91062" lon="7.06476">
        <ele>1196</ele>
        <time>2014-06-22T08:27:02Z</time>
      </trkpt>
      <trkpt lat="47.91052" lon="7.06493">
        <ele>1195</ele>
        <time>2014-06-22T08:27:12Z</time>
      </trkpt>
      <trkpt lat="47.91042" lon="7.06515">
        <ele>1199</ele>
        <time>2014-06-22T08:27:22Z</time>
      </trkpt>
      <trkpt lat="47.91032" lon="7.06531">
        <ele>1198</ele>
        <time>2014-06-22T08:27:32Z</time>
      </trkpt>
      <trkpt lat="47.91021" lon="7.06548">
        <ele>1198</ele>
        <time>2014-06-22T08:27:42Z</time>
      </trkpt>
      <trkpt lat="47.91019" lon="7.06552">
        <ele>1198</ele>
        <time>2014-06-22T08:27:44Z</time>
      </trkpt>
      <trkpt lat="47.91014" lon="7.06563">
        <ele>1197</ele>
        <time>2014-06-22T08:27:50Z</time>
      </trkpt>
      <trkpt lat="47.91004" lon="7.06581">
        <ele>1196</ele>
        <time>2014-06-22T08:28:00Z</time>
      </trkpt>
      <trkpt lat="47.90996" lon="7.06601">
        <ele>1193</ele>
        <time>2014-06-22T08:28:10Z</time>
      </trkpt>
      <trkpt lat="47.90985" lon="7.06618">
        <ele>1192</ele>
        <time>2014-06-22T08:28:20Z</time>
      </trkpt>
      <trkpt lat="47.90971" lon="7.06636">
        <ele>1192</ele>
        <time>2014-06-22T08:28:32Z</time>
      </trkpt>
      <trkpt lat="47.90959" lon="7.0665">
        <ele>1191</ele>
        <time>2014-06-22T08:28:42Z</time>
      </trkpt>
      <trkpt lat="47.90957" lon="7.06653">
        <ele>1191</ele>
        <time>2014-06-22T08:28:44Z</time>
      </trkpt>
      <trkpt lat="47.90947" lon="7.06666">
        <ele>1191</ele>
        <time>2014-06-22T08:28:56Z</time>
      </trkpt>
      <trkpt lat="47.90931" lon="7.0667">
        <ele>1191</ele>
        <time>2014-06-22T08:29:06Z</time>
      </trkpt>
      <trkpt lat="47.90926" lon="7.0667">
        <ele>1190</ele>
        <time>2014-06-22T08:29:22Z</time>
      </trkpt>
      <trkpt lat="47.90916" lon="7.06666">
        <ele>1189</ele>
        <time>2014-06-22T08:29:33Z</time>
      </trkpt>
      <trkpt lat="47.90905" lon="7.0666">
        <ele>1184</ele>
        <time>2014-06-22T08:29:46Z</time>
      </trkpt>
      <trkpt lat="47.90897" lon="7.06657">
        <ele>1182</ele>
        <time>2014-06-22T08:29:57Z</time>
      </trkpt>
      <trkpt lat="47.90885" lon="7.06657">
        <ele>1181</ele>
        <time>2014-06-22T08:30:09Z</time>
      </trkpt>
      <trkpt lat="47.90877" lon="7.06651">
        <ele>1180</ele>
        <time>2014-06-22T08:30:22Z</time>
      </trkpt>
      <trkpt lat="47.90866" lon="7.0664">
        <ele>1178</ele>
        <time>2014-06-22T08:30:33Z</time>
      </trkpt>
      <trkpt lat="47.90863" lon="7.06642">
        <ele>1178</ele>
        <time>2014-06-22T08:30:35Z</time>
      </trkpt>
      <trkpt lat="47.90859" lon="7.06641">
        <ele>1178</ele>
        <time>2014-06-22T08:30:37Z</time>
      </trkpt>
      <trkpt lat="47.90856" lon="7.06642">
        <ele>1178</ele>
        <time>2014-06-22T08:30:39Z</time>
      </trkpt>
      <trkpt lat="47.90847" lon="7.06637">
        <ele>1177</ele>
        <time>2014-06-22T08:30:49Z</time>
      </trkpt>
      <trkpt lat="47.90843" lon="7.06637">
        <ele>1177</ele>
        <time>2014-06-22T08:30:52Z</time>
      </trkpt>
      <trkpt lat="47.90823" lon="7.06635">
        <ele>1173</ele>
        <time>2014-06-22T08:31:04Z</time>
      </trkpt>
      <trkpt lat="47.9081" lon="7.06635">
        <ele>1172</ele>
        <time>2014-06-22T08:31:15Z</time>
      </trkpt>
      <trkpt lat="47.90801" lon="7.06634">
        <ele>1172</ele>
        <time>2014-06-22T08:31:26Z</time>
      </trkpt>
      <trkpt lat="47.90793" lon="7.06632">
        <ele>1171</ele>
        <time>2014-06-22T08:31:32Z</time>
      </trkpt>
      <trkpt lat="47.9079" lon="7.06631">
        <ele>1171</ele>
        <time>2014-06-22T08:31:34Z</time>
      </trkpt>
      <trkpt lat="47.90775" lon="7.06631">
        <ele>1171</ele>
        <time>2014-06-22T08:31:45Z</time>
      </trkpt>
      <trkpt lat="47.90763" lon="7.06632">
        <ele>1171</ele>
        <time>2014-06-22T08:31:57Z</time>
      </trkpt>
      <trkpt lat="47.90753" lon="7.06629">
        <ele>1171</ele>
        <time>2014-06-22T08:32:10Z</time>
      </trkpt>
      <trkpt lat="47.90747" lon="7.06626">
        <ele>1172</ele>
        <time>2014-06-22T08:32:15Z</time>
      </trkpt>
      <trkpt lat="47.90735" lon="7.06618">
        <ele>1171</ele>
        <time>2014-06-22T08:32:26Z</time>
      </trkpt>
      <trkpt lat="47.90724" lon="7.06616">
        <ele>1171</ele>
        <time>2014-06-22T08:32:33Z</time>
      </trkpt>
      <trkpt lat="47.90716" lon="7.06617">
        <ele>1172</ele>
        <time>2014-06-22T08:32:39Z</time>
      </trkpt>
      <trkpt lat="47.90706" lon="7.0662">
        <ele>1173</ele>
        <time>2014-06-22T08:32:49Z</time>
      </trkpt>
      <trkpt lat="47.90693" lon="7.06619">
        <ele>1173</ele>
        <time>2014-06-22T08:32:59Z</time>
      </trkpt>
      <trkpt lat="47.90691" lon="7.06617">
        <ele>1173</ele>
        <time>2014-06-22T08:33:01Z</time>
      </trkpt>
      <trkpt lat="47.90674" lon="7.0661">
        <ele>1172</ele>
        <time>2014-06-22T08:33:13Z</time>
      </trkpt>
      <trkpt lat="47.90672" lon="7.0661">
        <ele>1172</ele>
        <time>2014-06-22T08:33:17Z</time>
      </trkpt>
      <trkpt lat="47.90662" lon="7.06609">
        <ele>1174</ele>
        <time>2014-06-22T08:33:27Z</time>
      </trkpt>
      <trkpt lat="47.9065" lon="7.06611">
        <ele>1175</ele>
        <time>2014-06-22T08:33:38Z</time>
      </trkpt>
      <trkpt lat="47.90644" lon="7.06612">
        <ele>1176</ele>
        <time>2014-06-22T08:33:42Z</time>
      </trkpt>
      <trkpt lat="47.90635" lon="7.06614">
        <ele>1176</ele>
        <time>2014-06-22T08:34:23Z</time>
      </trkpt>
      <trkpt lat="47.90632" lon="7.06613">
        <ele>1176</ele>
        <time>2014-06-22T08:34:25Z</time>
      </trkpt>
      <trkpt lat="47.90617" lon="7.0661">
        <ele>1176</ele>
        <time>2014-06-22T08:34:35Z</time>
      </trkpt>
      <trkpt lat="47.90599" lon="7.06611">
        <ele>1175</ele>
        <time>2014-06-22T08:34:46Z</time>
      </trkpt>
      <trkpt lat="47.90586" lon="7.06614">
        <ele>1176</ele>
        <time>2014-06-22T08:34:57Z</time>
      </trkpt>
      <trkpt lat="47.90581" lon="7.06617">
        <ele>1175</ele>
        <time>2014-06-22T08:35:06Z</time>
      </trkpt>
      <trkpt lat="47.90567" lon="7.06619">
        <ele>1176</ele>
        <time>2014-06-22T08:35:17Z</time>
      </trkpt>
      <trkpt lat="47.90564" lon="7.0662">
        <ele>1176</ele>
        <time>2014-06-22T08:35:19Z</time>
      </trkpt>
      <trkpt lat="47.90555" lon="7.06622">
        <ele>1176</ele>
        <time>2014-06-22T08:35:30Z</time>
      </trkpt>
      <trkpt lat="47.90548" lon="7.06623">
        <ele>1176</ele>
        <time>2014-06-22T08:35:36Z</time>
      </trkpt>
      <trkpt lat="47.90535" lon="7.06623">
        <ele>1175</ele>
        <time>2014-06-22T08:35:46Z</time>
      </trkpt>
      <trkpt lat="47.90518" lon="7.06632">
        <ele>1177</ele>
        <time>2014-06-22T08:35:57Z</time>
      </trkpt>
      <trkpt lat="47.90515" lon="7.06635">
        <ele>1178</ele>
        <time>2014-06-22T08:36:00Z</time>
      </trkpt>
      <trkpt lat="47.90508" lon="7.06638">
        <ele>1178</ele>
        <time>2014-06-22T08:36:05Z</time>
      </trkpt>
      <trkpt lat="47.90502" lon="7.06643">
        <ele>1180</ele>
        <time>2014-06-22T08:36:10Z</time>
      </trkpt>
      <trkpt lat="47.90489" lon="7.06652">
        <ele>1176</ele>
        <time>2014-06-22T08:36:22Z</time>
      </trkpt>
      <trkpt lat="47.90486" lon="7.06658">
        <ele>1176</ele>
        <time>2014-06-22T08:36:31Z</time>
      </trkpt>
      <trkpt lat="47.90482" lon="7.06658">
        <ele>1175</ele>
        <time>2014-06-22T08:36:36Z</time>
      </trkpt>
      <trkpt lat="47.90477" lon="7.06663">
        <ele>1174</ele>
        <time>2014-06-22T08:36:43Z</time>
      </trkpt>
      <trkpt lat="47.90469" lon="7.06673">
        <ele>1183</ele>
        <time>2014-06-22T08:36:52Z</time>
      </trkpt>
      <trkpt lat="47.90459" lon="7.0669">
        <ele>1182</ele>
        <time>2014-06-22T08:37:03Z</time>
      </trkpt>
      <trkpt lat="47.90452" lon="7.06708">
        <ele>1182</ele>
        <time>2014-06-22T08:37:14Z</time>
      </trkpt>
      <trkpt lat="47.9045" lon="7.06711">
        <ele>1182</ele>
        <time>2014-06-22T08:37:17Z</time>
      </trkpt>
      <trkpt lat="47.90439" lon="7.06722">
        <ele>1182</ele>
        <time>2014-06-22T08:37:28Z</time>
      </trkpt>
      <trkpt lat="47.90434" lon="7.06735">
        <ele>1182</ele>
        <time>2014-06-22T08:37:34Z</time>
      </trkpt>
      <trkpt lat="47.90429" lon="7.06751">
        <ele>1186</ele>
        <time>2014-06-22T08:37:44Z</time>
      </trkpt>
      <trkpt lat="47.90426" lon="7.06772">
        <ele>1190</ele>
        <time>2014-06-22T08:37:55Z</time>
      </trkpt>
      <trkpt lat="47.90426" lon="7.06782">
        <ele>1191</ele>
        <time>2014-06-22T08:38:00Z</time>
      </trkpt>
      <trkpt lat="47.90422" lon="7.06798">
        <ele>1193</ele>
        <time>2014-06-22T08:38:10Z</time>
      </trkpt>
      <trkpt lat="47.90421" lon="7.06807">
        <ele>1194</ele>
        <time>2014-06-22T08:38:14Z</time>
      </trkpt>
      <trkpt lat="47.90414" lon="7.06838">
        <ele>1191</ele>
        <time>2014-06-22T08:38:26Z</time>
      </trkpt>
      <trkpt lat="47.90414" lon="7.06843">
        <ele>1189</ele>
        <time>2014-06-22T08:38:28Z</time>
      </trkpt>
      <trkpt lat="47.90407" lon="7.06865">
        <ele>1186</ele>
        <time>2014-06-22T08:38:39Z</time>
      </trkpt>
      <trkpt lat="47.90399" lon="7.06886">
        <ele>1188</ele>
        <time>2014-06-22T08:38:52Z</time>
      </trkpt>
      <trkpt lat="47.90404" lon="7.06914">
        <ele>1196</ele>
        <time>2014-06-22T08:39:03Z</time>
      </trkpt>
      <trkpt lat="47.90404" lon="7.06919">
        <ele>1201</ele>
        <time>2014-06-22T08:39:05Z</time>
      </trkpt>
      <trkpt lat="47.90401" lon="7.06938">
        <ele>1199</ele>
        <time>2014-06-22T08:39:15Z</time>
      </trkpt>
      <trkpt lat="47.90401" lon="7.06964">
        <ele>1200</ele>
        <time>2014-06-22T08:39:26Z</time>
      </trkpt>
      <trkpt lat="47.90398" lon="7.06973">
        <ele>1201</ele>
        <time>2014-06-22T08:39:33Z</time>
      </trkpt>
      <trkpt lat="47.90396" lon="7.06985">
        <ele>1203</ele>
        <time>2014-06-22T08:39:42Z</time>
      </trkpt>
      <trkpt lat="47.90395" lon="7.06989">
        <ele>1204</ele>
        <time>2014-06-22T08:39:46Z</time>
      </trkpt>
      <trkpt lat="47.90393" lon="7.07012">
        <ele>1210</ele>
        <time>2014-06-22T08:39:58Z</time>
      </trkpt>
      <trkpt lat="47.9039" lon="7.07015">
        <ele>1209</ele>
        <time>2014-06-22T08:40:00Z</time>
      </trkpt>
      <trkpt lat="47.90387" lon="7.07022">
        <ele>1208</ele>
        <time>2014-06-22T08:40:05Z</time>
      </trkpt>
      <trkpt lat="47.90387" lon="7.07033">
        <ele>1208</ele>
        <time>2014-06-22T08:40:12Z</time>
      </trkpt>
      <trkpt lat="47.90381" lon="7.07049">
        <ele>1208</ele>
        <time>2014-06-22T08:40:24Z</time>
      </trkpt>
      <trkpt lat="47.90381" lon="7.07069">
        <ele>1210</ele>
        <time>2014-06-22T08:40:33Z</time>
      </trkpt>
      <trkpt lat="47.90374" lon="7.07086">
        <ele>1215</ele>
        <time>2014-06-22T08:40:44Z</time>
      </trkpt>
      <trkpt lat="47.90369" lon="7.07108">
        <ele>1214</ele>
        <time>2014-06-22T08:40:54Z</time>
      </trkpt>
      <trkpt lat="47.90368" lon="7.07118">
        <ele>1215</ele>
        <time>2014-06-22T08:40:58Z</time>
      </trkpt>
      <trkpt lat="47.90365" lon="7.0714">
        <ele>1216</ele>
        <time>2014-06-22T08:41:10Z</time>
      </trkpt>
      <trkpt lat="47.90359" lon="7.07161">
        <ele>1214</ele>
        <time>2014-06-22T08:41:21Z</time>
      </trkpt>
      <trkpt lat="47.90361" lon="7.07166">
        <ele>1214</ele>
        <time>2014-06-22T08:41:23Z</time>
      </trkpt>
      <trkpt lat="47.90362" lon="7.07171">
        <ele>1221</ele>
        <time>2014-06-22T08:41:26Z</time>
      </trkpt>
      <trkpt lat="47.90363" lon="7.072">
        <ele>1225</ele>
        <time>2014-06-22T08:41:36Z</time>
      </trkpt>
      <trkpt lat="47.90363" lon="7.07215">
        <ele>1226</ele>
        <time>2014-06-22T08:41:43Z</time>
      </trkpt>
      <trkpt lat="47.90359" lon="7.07225">
        <ele>1225</ele>
        <time>2014-06-22T08:41:49Z</time>
      </trkpt>
      <trkpt lat="47.90357" lon="7.0723">
        <ele>1224</ele>
        <time>2014-06-22T08:41:52Z</time>
      </trkpt>
      <trkpt lat="47.90351" lon="7.07245">
        <ele>1222</ele>
        <time>2014-06-22T08:42:02Z</time>
      </trkpt>
      <trkpt lat="47.90348" lon="7.07264">
        <ele>1228</ele>
        <time>2014-06-22T08:42:13Z</time>
      </trkpt>
      <trkpt lat="47.90346" lon="7.07268">
        <ele>1229</ele>
        <time>2014-06-22T08:42:16Z</time>
      </trkpt>
      <trkpt lat="47.90342" lon="7.07281">
        <ele>1231</ele>
        <time>2014-06-22T08:42:24Z</time>
      </trkpt>
      <trkpt lat="47.90338" lon="7.07293">
        <ele>1232</ele>
        <time>2014-06-22T08:42:32Z</time>
      </trkpt>
      <trkpt lat="47.9034" lon="7.07318">
        <ele>1232</ele>
        <time>2014-06-22T08:42:44Z</time>
      </trkpt>
      <trkpt lat="47.90341" lon="7.07323">
        <ele>1231</ele>
        <time>2014-06-22T08:42:46Z</time>
      </trkpt>
      <trkpt lat="47.90343" lon="7.07347">
        <ele>1239</ele>
        <time>2014-06-22T08:42:57Z</time>
      </trkpt>
      <trkpt lat="47.90342" lon="7.07368">
        <ele>1245</ele>
        <time>2014-06-22T08:43:10Z</time>
      </trkpt>
      <trkpt lat="47.9034" lon="7.0737">
        <ele>1245</ele>
        <time>2014-06-22T08:43:12Z</time>
      </trkpt>
      <trkpt lat="47.90333" lon="7.07389">
        <ele>1225</ele>
        <time>2014-06-22T08:43:23Z</time>
      </trkpt>
      <trkpt lat="47.90329" lon="7.07395">
        <ele>1227</ele>
        <time>2014-06-22T08:43:28Z</time>
      </trkpt>
      <trkpt lat="47.90319" lon="7.07414">
        <ele>1231</ele>
        <time>2014-06-22T08:43:39Z</time>
      </trkpt>
      <trkpt lat="47.90318" lon="7.07418">
        <ele>1238</ele>
        <time>2014-06-22T08:43:41Z</time>
      </trkpt>
      <trkpt lat="47.90308" lon="7.07432">
        <ele>1235</ele>
        <time>2014-06-22T08:43:51Z</time>
      </trkpt>
      <trkpt lat="47.90307" lon="7.07436">
        <ele>1234</ele>
        <time>2014-06-22T08:43:53Z</time>
      </trkpt>
      <trkpt lat="47.90302" lon="7.07453">
        <ele>1234</ele>
        <time>2014-06-22T08:44:04Z</time>
      </trkpt>
      <trkpt lat="47.90303" lon="7.07463">
        <ele>1235</ele>
        <time>2014-06-22T08:44:08Z</time>
      </trkpt>
      <trkpt lat="47.90297" lon="7.07482">
        <ele>1236</ele>
        <time>2014-06-22T08:44:19Z</time>
      </trkpt>
      <trkpt lat="47.90285" lon="7.07495">
        <ele>1234</ele>
        <time>2014-06-22T08:44:29Z</time>
      </trkpt>
      <trkpt lat="47.90282" lon="7.07497">
        <ele>1233</ele>
        <time>2014-06-22T08:44:31Z</time>
      </trkpt>
      <trkpt lat="47.90268" lon="7.0751">
        <ele>1240</ele>
        <time>2014-06-22T08:44:41Z</time>
      </trkpt>
      <trkpt lat="47.90257" lon="7.0752">
        <ele>1241</ele>
        <time>2014-06-22T08:44:51Z</time>
      </trkpt>
      <trkpt lat="47.90247" lon="7.07528">
        <ele>1236</ele>
        <time>2014-06-22T08:45:02Z</time>
      </trkpt>
      <trkpt lat="47.90238" lon="7.07536">
        <ele>1238</ele>
        <time>2014-06-22T08:45:09Z</time>
      </trkpt>
      <trkpt lat="47.90225" lon="7.07543">
        <ele>1240</ele>
        <time>2014-06-22T08:45:20Z</time>
      </trkpt>
      <trkpt lat="47.90217" lon="7.07541">
        <ele>1239</ele>
        <time>2014-06-22T08:45:32Z</time>
      </trkpt>
      <trkpt lat="47.90206" lon="7.07536">
        <ele>1238</ele>
        <time>2014-06-22T08:45:39Z</time>
      </trkpt>
      <trkpt lat="47.902" lon="7.07534">
        <ele>1238</ele>
        <time>2014-06-22T08:45:44Z</time>
      </trkpt>
      <trkpt lat="47.9019" lon="7.07532">
        <ele>1237</ele>
        <time>2014-06-22T08:45:54Z</time>
      </trkpt>
      <trkpt lat="47.90176" lon="7.07513">
        <ele>1231</ele>
        <time>2014-06-22T08:46:06Z</time>
      </trkpt>
      <trkpt lat="47.90173" lon="7.0751">
        <ele>1229</ele>
        <time>2014-06-22T08:46:08Z</time>
      </trkpt>
      <trkpt lat="47.9016" lon="7.07502">
        <ele>1227</ele>
        <time>2014-06-22T08:46:17Z</time>
      </trkpt>
      <trkpt lat="47.90147" lon="7.07496">
        <ele>1218</ele>
        <time>2014-06-22T08:46:29Z</time>
      </trkpt>
      <trkpt lat="47.90144" lon="7.07496">
        <ele>1218</ele>
        <time>2014-06-22T08:46:31Z</time>
      </trkpt>
      <trkpt lat="47.90129" lon="7.07485">
        <ele>1217</ele>
        <time>2014-06-22T08:46:42Z</time>
      </trkpt>
      <trkpt lat="47.90121" lon="7.07479">
        <ele>1217</ele>
        <time>2014-06-22T08:46:53Z</time>
      </trkpt>
      <trkpt lat="47.901" lon="7.07473">
        <ele>1218</ele>
        <time>2014-06-22T08:47:05Z</time>
      </trkpt>
      <trkpt lat="47.90098" lon="7.07474">
        <ele>1219</ele>
        <time>2014-06-22T08:47:17Z</time>
      </trkpt>
      <trkpt lat="47.90094" lon="7.07473">
        <ele>1219</ele>
        <time>2014-06-22T08:47:20Z</time>
      </trkpt>
      <trkpt lat="47.90091" lon="7.07473">
        <ele>1219</ele>
        <time>2014-06-22T08:47:23Z</time>
      </trkpt>
      <trkpt lat="47.90069" lon="7.07464">
        <ele>1221</ele>
        <time>2014-06-22T08:47:36Z</time>
      </trkpt>
      <trkpt lat="47.90066" lon="7.07464">
        <ele>1221</ele>
        <time>2014-06-22T08:47:40Z</time>
      </trkpt>
      <trkpt lat="47.90063" lon="7.07464">
        <ele>1221</ele>
        <time>2014-06-22T08:47:43Z</time>
      </trkpt>
      <trkpt lat="47.90056" lon="7.07465">
        <ele>1221</ele>
        <time>2014-06-22T08:47:52Z</time>
      </trkpt>
      <trkpt lat="47.90051" lon="7.07464">
        <ele>1221</ele>
        <time>2014-06-22T08:48:02Z</time>
      </trkpt>
      <trkpt lat="47.90048" lon="7.07465">
        <ele>1221</ele>
        <time>2014-06-22T08:48:32Z</time>
      </trkpt>
      <trkpt lat="47.90045" lon="7.07465">
        <ele>1222</ele>
        <time>2014-06-22T08:48:37Z</time>
      </trkpt>
      <trkpt lat="47.90041" lon="7.07464">
        <ele>1221</ele>
        <time>2014-06-22T08:48:40Z</time>
      </trkpt>
      <trkpt lat="47.90038" lon="7.07463">
        <ele>1221</ele>
        <time>2014-06-22T08:48:42Z</time>
      </trkpt>
      <trkpt lat="47.90019" lon="7.07463">
        <ele>1222</ele>
        <time>2014-06-22T08:48:54Z</time>
      </trkpt>
      <trkpt lat="47.90016" lon="7.0746">
        <ele>1221</ele>
        <time>2014-06-22T08:48:57Z</time>
      </trkpt>
      <trkpt lat="47.90003" lon="7.07453">
        <ele>1220</ele>
        <time>2014-06-22T08:49:08Z</time>
      </trkpt>
      <trkpt lat="47.89999" lon="7.07454">
        <ele>1227</ele>
        <time>2014-06-22T08:49:19Z</time>
      </trkpt>
      <trkpt lat="47.89997" lon="7.0745">
        <ele>1226</ele>
        <time>2014-06-22T08:49:28Z</time>
      </trkpt>
      <trkpt lat="47.89994" lon="7.07449">
        <ele>1226</ele>
        <time>2014-06-22T08:49:32Z</time>
      </trkpt>
      <trkpt lat="47.89989" lon="7.07443">
        <ele>1224</ele>
        <time>2014-06-22T08:49:45Z</time>
      </trkpt>
      <trkpt lat="47.89985" lon="7.07441">
        <ele>1224</ele>
        <time>2014-06-22T08:49:47Z</time>
      </trkpt>
      <trkpt lat="47.89971" lon="7.07436">
        <ele>1226</ele>
        <time>2014-06-22T08:50:00Z</time>
      </trkpt>
      <trkpt lat="47.89964" lon="7.07427">
        <ele>1226</ele>
        <time>2014-06-22T08:50:10Z</time>
      </trkpt>
      <trkpt lat="47.89957" lon="7.07412">
        <ele>1208</ele>
        <time>2014-06-22T08:50:20Z</time>
      </trkpt>
      <trkpt lat="47.89951" lon="7.07399">
        <ele>1208</ele>
        <time>2014-06-22T08:50:28Z</time>
      </trkpt>
      <trkpt lat="47.89948" lon="7.07396">
        <ele>1208</ele>
        <time>2014-06-22T08:50:31Z</time>
      </trkpt>
      <trkpt lat="47.89938" lon="7.07394">
        <ele>1209</ele>
        <time>2014-06-22T08:50:41Z</time>
      </trkpt>
      <trkpt lat="47.89932" lon="7.07383">
        <ele>1207</ele>
        <time>2014-06-22T08:50:52Z</time>
      </trkpt>
      <trkpt lat="47.8993" lon="7.07379">
        <ele>1206</ele>
        <time>2014-06-22T08:50:57Z</time>
      </trkpt>
      <trkpt lat="47.89928" lon="7.07377">
        <ele>1206</ele>
        <time>2014-06-22T08:51:03Z</time>
      </trkpt>
      <trkpt lat="47.89916" lon="7.07373">
        <ele>1212</ele>
        <time>2014-06-22T08:51:15Z</time>
      </trkpt>
      <trkpt lat="47.89904" lon="7.0736">
        <ele>1208</ele>
        <time>2014-06-22T08:51:27Z</time>
      </trkpt>
      <trkpt lat="47.89887" lon="7.07351">
        <ele>1207</ele>
        <time>2014-06-22T08:51:38Z</time>
      </trkpt>
      <trkpt lat="47.89869" lon="7.07346">
        <ele>1207</ele>
        <time>2014-06-22T08:51:50Z</time>
      </trkpt>
      <trkpt lat="47.89854" lon="7.07346">
        <ele>1207</ele>
        <time>2014-06-22T08:52:01Z</time>
      </trkpt>
      <trkpt lat="47.89847" lon="7.07346">
        <ele>1206</ele>
        <time>2014-06-22T08:52:07Z</time>
      </trkpt>
      <trkpt lat="47.89844" lon="7.07347">
        <ele>1206</ele>
        <time>2014-06-22T08:52:10Z</time>
      </trkpt>
      <trkpt lat="47.89836" lon="7.07354">
        <ele>1207</ele>
        <time>2014-06-22T08:52:18Z</time>
      </trkpt>
      <trkpt lat="47.89829" lon="7.07364">
        <ele>1199</ele>
        <time>2014-06-22T08:52:31Z</time>
      </trkpt>
      <trkpt lat="47.89822" lon="7.07379">
        <ele>1201</ele>
        <time>2014-06-22T08:52:42Z</time>
      </trkpt>
      <trkpt lat="47.89819" lon="7.07384">
        <ele>1202</ele>
        <time>2014-06-22T08:52:45Z</time>
      </trkpt>
      <trkpt lat="47.89808" lon="7.07395">
        <ele>1202</ele>
        <time>2014-06-22T08:52:57Z</time>
      </trkpt>
      <trkpt lat="47.89804" lon="7.07403">
        <ele>1201</ele>
        <time>2014-06-22T08:53:03Z</time>
      </trkpt>
      <trkpt lat="47.89801" lon="7.07412">
        <ele>1201</ele>
        <time>2014-06-22T08:53:08Z</time>
      </trkpt>
      <trkpt lat="47.898" lon="7.07421">
        <ele>1209</ele>
        <time>2014-06-22T08:53:21Z</time>
      </trkpt>
      <trkpt lat="47.89794" lon="7.07444">
        <ele>1208</ele>
        <time>2014-06-22T08:53:32Z</time>
      </trkpt>
      <trkpt lat="47.89793" lon="7.07461">
        <ele>1209</ele>
        <time>2014-06-22T08:53:41Z</time>
      </trkpt>
      <trkpt lat="47.89792" lon="7.07465">
        <ele>1209</ele>
        <time>2014-06-22T08:53:43Z</time>
      </trkpt>
      <trkpt lat="47.8979" lon="7.07485">
        <ele>1210</ele>
        <time>2014-06-22T08:53:53Z</time>
      </trkpt>
      <trkpt lat="47.89791" lon="7.07489">
        <ele>1210</ele>
        <time>2014-06-22T08:53:55Z</time>
      </trkpt>
      <trkpt lat="47.89789" lon="7.07493">
        <ele>1209</ele>
        <time>2014-06-22T08:53:57Z</time>
      </trkpt>
      <trkpt lat="47.89787" lon="7.0751">
        <ele>1211</ele>
        <time>2014-06-22T08:54:08Z</time>
      </trkpt>
      <trkpt lat="47.89787" lon="7.07515">
        <ele>1211</ele>
        <time>2014-06-22T08:54:10Z</time>
      </trkpt>
      <trkpt lat="47.89785" lon="7.07534">
        <ele>1210</ele>
        <time>2014-06-22T08:54:20Z</time>
      </trkpt>
      <trkpt lat="47.89785" lon="7.07538">
        <ele>1210</ele>
        <time>2014-06-22T08:54:24Z</time>
      </trkpt>
      <trkpt lat="47.89784" lon="7.07558">
        <ele>1209</ele>
        <time>2014-06-22T08:54:34Z</time>
      </trkpt>
      <trkpt lat="47.89783" lon="7.07576">
        <ele>1208</ele>
        <time>2014-06-22T08:54:42Z</time>
      </trkpt>
      <trkpt lat="47.89783" lon="7.0758">
        <ele>1207</ele>
        <time>2014-06-22T08:54:44Z</time>
      </trkpt>
      <trkpt lat="47.89787" lon="7.076">
        <ele>1204</ele>
        <time>2014-06-22T08:54:56Z</time>
      </trkpt>
      <trkpt lat="47.89797" lon="7.07622">
        <ele>1206</ele>
        <time>2014-06-22T08:55:06Z</time>
      </trkpt>
      <trkpt lat="47.89806" lon="7.07635">
        <ele>1207</ele>
        <time>2014-06-22T08:55:17Z</time>
      </trkpt>
      <trkpt lat="47.89808" lon="7.07637">
        <ele>1207</ele>
        <time>2014-06-22T08:55:20Z</time>
      </trkpt>
      <trkpt lat="47.89807" lon="7.07642">
        <ele>1207</ele>
        <time>2014-06-22T08:55:23Z</time>
      </trkpt>
      <trkpt lat="47.89809" lon="7.07662">
        <ele>1208</ele>
        <time>2014-06-22T08:55:33Z</time>
      </trkpt>
      <trkpt lat="47.89815" lon="7.07675">
        <ele>1201</ele>
        <time>2014-06-22T08:55:39Z</time>
      </trkpt>
      <trkpt lat="47.89821" lon="7.07682">
        <ele>1201</ele>
        <time>2014-06-22T08:55:43Z</time>
      </trkpt>
      <trkpt lat="47.89833" lon="7.07701">
        <ele>1196</ele>
        <time>2014-06-22T08:55:54Z</time>
      </trkpt>
      <trkpt lat="47.89843" lon="7.07714">
        <ele>1218</ele>
        <time>2014-06-22T08:56:03Z</time>
      </trkpt>
      <trkpt lat="47.89852" lon="7.07729">
        <ele>1216</ele>
        <time>2014-06-22T08:56:13Z</time>
      </trkpt>
      <trkpt lat="47.89854" lon="7.07733">
        <ele>1215</ele>
        <time>2014-06-22T08:56:16Z</time>
      </trkpt>
      <trkpt lat="47.89858" lon="7.07746">
        <ele>1215</ele>
        <time>2014-06-22T08:56:26Z</time>
      </trkpt>
      <trkpt lat="47.89869" lon="7.07765">
        <ele>1203</ele>
        <time>2014-06-22T08:56:38Z</time>
      </trkpt>
      <trkpt lat="47.89872" lon="7.07773">
        <ele>1204</ele>
        <time>2014-06-22T08:56:44Z</time>
      </trkpt>
      <trkpt lat="47.89874" lon="7.07777">
        <ele>1203</ele>
        <time>2014-06-22T08:56:46Z</time>
      </trkpt>
      <trkpt lat="47.89877" lon="7.07799">
        <ele>1201</ele>
        <time>2014-06-22T08:56:58Z</time>
      </trkpt>
      <trkpt lat="47.89878" lon="7.07803">
        <ele>1201</ele>
        <time>2014-06-22T08:57:00Z</time>
      </trkpt>
      <trkpt lat="47.89879" lon="7.07807">
        <ele>1200</ele>
        <time>2014-06-22T08:57:02Z</time>
      </trkpt>
      <trkpt lat="47.89881" lon="7.07815">
        <ele>1200</ele>
        <time>2014-06-22T08:57:08Z</time>
      </trkpt>
      <trkpt lat="47.89891" lon="7.07836">
        <ele>1190</ele>
        <time>2014-06-22T08:57:20Z</time>
      </trkpt>
      <trkpt lat="47.89891" lon="7.07848">
        <ele>1188</ele>
        <time>2014-06-22T08:59:20Z</time>
      </trkpt>
      <trkpt lat="47.89904" lon="7.07864">
        <ele>1188</ele>
        <time>2014-06-22T08:59:30Z</time>
      </trkpt>
      <trkpt lat="47.89909" lon="7.07872">
        <ele>1187</ele>
        <time>2014-06-22T08:59:34Z</time>
      </trkpt>
      <trkpt lat="47.89915" lon="7.07892">
        <ele>1186</ele>
        <time>2014-06-22T08:59:45Z</time>
      </trkpt>
      <trkpt lat="47.89918" lon="7.07895">
        <ele>1209</ele>
        <time>2014-06-22T08:59:50Z</time>
      </trkpt>
      <trkpt lat="47.8992" lon="7.07898">
        <ele>1208</ele>
        <time>2014-06-22T08:59:52Z</time>
      </trkpt>
      <trkpt lat="47.89923" lon="7.07918">
        <ele>1196</ele>
        <time>2014-06-22T09:00:03Z</time>
      </trkpt>
      <trkpt lat="47.89924" lon="7.07928">
        <ele>1198</ele>
        <time>2014-06-22T09:00:10Z</time>
      </trkpt>
      <trkpt lat="47.89927" lon="7.07948">
        <ele>1201</ele>
        <time>2014-06-22T09:00:20Z</time>
      </trkpt>
      <trkpt lat="47.89927" lon="7.07953">
        <ele>1201</ele>
        <time>2014-06-22T09:00:22Z</time>
      </trkpt>
      <trkpt lat="47.89937" lon="7.07972">
        <ele>1200</ele>
        <time>2014-06-22T09:00:32Z</time>
      </trkpt>
      <trkpt lat="47.89938" lon="7.07977">
        <ele>1200</ele>
        <time>2014-06-22T09:00:35Z</time>
      </trkpt>
      <trkpt lat="47.89939" lon="7.07981">
        <ele>1199</ele>
        <time>2014-06-22T09:00:38Z</time>
      </trkpt>
      <trkpt lat="47.89939" lon="7.0799">
        <ele>1198</ele>
        <time>2014-06-22T09:00:45Z</time>
      </trkpt>
      <trkpt lat="47.89938" lon="7.08007">
        <ele>1190</ele>
        <time>2014-06-22T09:00:55Z</time>
      </trkpt>
      <trkpt lat="47.89941" lon="7.08017">
        <ele>1191</ele>
        <time>2014-06-22T09:01:01Z</time>
      </trkpt>
      <trkpt lat="47.89944" lon="7.08024">
        <ele>1192</ele>
        <time>2014-06-22T09:01:05Z</time>
      </trkpt>
      <trkpt lat="47.89945" lon="7.08041">
        <ele>1191</ele>
        <time>2014-06-22T09:01:15Z</time>
      </trkpt>
      <trkpt lat="47.89949" lon="7.08061">
        <ele>1190</ele>
        <time>2014-06-22T09:01:25Z</time>
      </trkpt>
      <trkpt lat="47.89951" lon="7.08065">
        <ele>1191</ele>
        <time>2014-06-22T09:01:28Z</time>
      </trkpt>
      <trkpt lat="47.89951" lon="7.08069">
        <ele>1190</ele>
        <time>2014-06-22T09:01:30Z</time>
      </trkpt>
      <trkpt lat="47.89954" lon="7.08087">
        <ele>1183</ele>
        <time>2014-06-22T09:01:41Z</time>
      </trkpt>
      <trkpt lat="47.89955" lon="7.08094">
        <ele>1184</ele>
        <time>2014-06-22T09:01:49Z</time>
      </trkpt>
      <trkpt lat="47.89956" lon="7.08098">
        <ele>1184</ele>
        <time>2014-06-22T09:01:51Z</time>
      </trkpt>
      <trkpt lat="47.89959" lon="7.08103">
        <ele>1184</ele>
        <time>2014-06-22T09:01:53Z</time>
      </trkpt>
      <trkpt lat="47.89964" lon="7.08113">
        <ele>1185</ele>
        <time>2014-06-22T09:02:05Z</time>
      </trkpt>
      <trkpt lat="47.89963" lon="7.08118">
        <ele>1184</ele>
        <time>2014-06-22T09:02:09Z</time>
      </trkpt>
      <trkpt lat="47.89963" lon="7.08137">
        <ele>1183</ele>
        <time>2014-06-22T09:02:21Z</time>
      </trkpt>
      <trkpt lat="47.89965" lon="7.08142">
        <ele>1184</ele>
        <time>2014-06-22T09:02:24Z</time>
      </trkpt>
      <trkpt lat="47.89969" lon="7.08165">
        <ele>1185</ele>
        <time>2014-06-22T09:02:35Z</time>
      </trkpt>
      <trkpt lat="47.8997" lon="7.0817">
        <ele>1178</ele>
        <time>2014-06-22T09:02:37Z</time>
      </trkpt>
      <trkpt lat="47.89971" lon="7.08175">
        <ele>1178</ele>
        <time>2014-06-22T09:02:39Z</time>
      </trkpt>
      <trkpt lat="47.89978" lon="7.08195">
        <ele>1177</ele>
        <time>2014-06-22T09:02:50Z</time>
      </trkpt>
      <trkpt lat="47.89981" lon="7.08221">
        <ele>1175</ele>
        <time>2014-06-22T09:03:04Z</time>
      </trkpt>
      <trkpt lat="47.89983" lon="7.08225">
        <ele>1176</ele>
        <time>2014-06-22T09:03:07Z</time>
      </trkpt>
      <trkpt lat="47.89993" lon="7.08243">
        <ele>1180</ele>
        <time>2014-06-22T09:03:18Z</time>
      </trkpt>
      <trkpt lat="47.89995" lon="7.08247">
        <ele>1181</ele>
        <time>2014-06-22T09:03:20Z</time>
      </trkpt>
      <trkpt lat="47.89996" lon="7.08252">
        <ele>1180</ele>
        <time>2014-06-22T09:03:24Z</time>
      </trkpt>
      <trkpt lat="47.90004" lon="7.08268">
        <ele>1189</ele>
        <time>2014-06-22T09:03:36Z</time>
      </trkpt>
      <trkpt lat="47.90002" lon="7.08283">
        <ele>1190</ele>
        <time>2014-06-22T09:03:48Z</time>
      </trkpt>
      <trkpt lat="47.90003" lon="7.08288">
        <ele>1189</ele>
        <time>2014-06-22T09:03:51Z</time>
      </trkpt>
      <trkpt lat="47.90016" lon="7.08311">
        <ele>1187</ele>
        <time>2014-06-22T09:04:02Z</time>
      </trkpt>
      <trkpt lat="47.90019" lon="7.08315">
        <ele>1187</ele>
        <time>2014-06-22T09:04:04Z</time>
      </trkpt>
      <trkpt lat="47.90023" lon="7.08327">
        <ele>1187</ele>
        <time>2014-06-22T09:04:12Z</time>
      </trkpt>
      <trkpt lat="47.90033" lon="7.08347">
        <ele>1181</ele>
        <time>2014-06-22T09:04:22Z</time>
      </trkpt>
      <trkpt lat="47.90035" lon="7.08353">
        <ele>1181</ele>
        <time>2014-06-22T09:04:25Z</time>
      </trkpt>
      <trkpt lat="47.9004" lon="7.08366">
        <ele>1181</ele>
        <time>2014-06-22T09:04:33Z</time>
      </trkpt>
      <trkpt lat="47.90042" lon="7.08384">
        <ele>1179</ele>
        <time>2014-06-22T09:04:45Z</time>
      </trkpt>
      <trkpt lat="47.90043" lon="7.08388">
        <ele>1179</ele>
        <time>2014-06-22T09:04:47Z</time>
      </trkpt>
      <trkpt lat="47.90044" lon="7.08392">
        <ele>1179</ele>
        <time>2014-06-22T09:04:49Z</time>
      </trkpt>
      <trkpt lat="47.90051" lon="7.08408">
        <ele>1180</ele>
        <time>2014-06-22T09:04:59Z</time>
      </trkpt>
      <trkpt lat="47.90054" lon="7.08412">
        <ele>1180</ele>
        <time>2014-06-22T09:05:02Z</time>
      </trkpt>
      <trkpt lat="47.9006" lon="7.08423">
        <ele>1171</ele>
        <time>2014-06-22T09:05:11Z</time>
      </trkpt>
      <trkpt lat="47.90064" lon="7.08443">
        <ele>1168</ele>
        <time>2014-06-22T09:05:23Z</time>
      </trkpt>
      <trkpt lat="47.90068" lon="7.08455">
        <ele>1166</ele>
        <time>2014-06-22T09:05:33Z</time>
      </trkpt>
      <trkpt lat="47.90075" lon="7.08463">
        <ele>1165</ele>
        <time>2014-06-22T09:05:37Z</time>
      </trkpt>
      <trkpt lat="47.90087" lon="7.08482">
        <ele>1177</ele>
        <time>2014-06-22T09:05:48Z</time>
      </trkpt>
      <trkpt lat="47.90097" lon="7.08501">
        <ele>1166</ele>
        <time>2014-06-22T09:05:58Z</time>
      </trkpt>
      <trkpt lat="47.90099" lon="7.08504">
        <ele>1166</ele>
        <time>2014-06-22T09:06:00Z</time>
      </trkpt>
      <trkpt lat="47.90105" lon="7.08518">
        <ele>1167</ele>
        <time>2014-06-22T09:06:06Z</time>
      </trkpt>
      <trkpt lat="47.9011" lon="7.0853">
        <ele>1166</ele>
        <time>2014-06-22T09:06:17Z</time>
      </trkpt>
      <trkpt lat="47.90113" lon="7.08533">
        <ele>1166</ele>
        <time>2014-06-22T09:06:20Z</time>
      </trkpt>
      <trkpt lat="47.90115" lon="7.08536">
        <ele>1166</ele>
        <time>2014-06-22T09:06:22Z</time>
      </trkpt>
      <trkpt lat="47.90119" lon="7.08544">
        <ele>1166</ele>
        <time>2014-06-22T09:06:29Z</time>
      </trkpt>
      <trkpt lat="47.90131" lon="7.08554">
        <ele>1167</ele>
        <time>2014-06-22T09:06:40Z</time>
      </trkpt>
      <trkpt lat="47.90148" lon="7.08564">
        <ele>1168</ele>
        <time>2014-06-22T09:06:50Z</time>
      </trkpt>
      <trkpt lat="47.90155" lon="7.08564">
        <ele>1169</ele>
        <time>2014-06-22T09:06:54Z</time>
      </trkpt>
      <trkpt lat="47.90168" lon="7.0857">
        <ele>1180</ele>
        <time>2014-06-22T09:07:04Z</time>
      </trkpt>
      <trkpt lat="47.90176" lon="7.08577">
        <ele>1179</ele>
        <time>2014-06-22T09:07:15Z</time>
      </trkpt>
      <trkpt lat="47.90189" lon="7.08583">
        <ele>1184</ele>
        <time>2014-06-22T09:07:31Z</time>
      </trkpt>
      <trkpt lat="47.90191" lon="7.08591">
        <ele>1172</ele>
        <time>2014-06-22T09:07:39Z</time>
      </trkpt>
      <trkpt lat="47.90198" lon="7.08605">
        <ele>1172</ele>
        <time>2014-06-22T09:07:51Z</time>
      </trkpt>
      <trkpt lat="47.90206" lon="7.08613">
        <ele>1172</ele>
        <time>2014-06-22T09:07:59Z</time>
      </trkpt>
      <trkpt lat="47.90218" lon="7.08628">
        <ele>1172</ele>
        <time>2014-06-22T09:08:11Z</time>
      </trkpt>
      <trkpt lat="47.90224" lon="7.08633">
        <ele>1172</ele>
        <time>2014-06-22T09:08:17Z</time>
      </trkpt>
      <trkpt lat="47.90238" lon="7.0864">
        <ele>1173</ele>
        <time>2014-06-22T09:08:29Z</time>
      </trkpt>
      <trkpt lat="47.90245" lon="7.08651">
        <ele>1174</ele>
        <time>2014-06-22T09:08:37Z</time>
      </trkpt>
      <trkpt lat="47.90256" lon="7.08666">
        <ele>1181</ele>
        <time>2014-06-22T09:08:48Z</time>
      </trkpt>
      <trkpt lat="47.9027" lon="7.08679">
        <ele>1178</ele>
        <time>2014-06-22T09:09:02Z</time>
      </trkpt>
      <trkpt lat="47.90273" lon="7.0868">
        <ele>1179</ele>
        <time>2014-06-22T09:09:04Z</time>
      </trkpt>
      <trkpt lat="47.90279" lon="7.08682">
        <ele>1180</ele>
        <time>2014-06-22T09:09:09Z</time>
      </trkpt>
      <trkpt lat="47.9029" lon="7.08694">
        <ele>1181</ele>
        <time>2014-06-22T09:09:20Z</time>
      </trkpt>
      <trkpt lat="47.90297" lon="7.08695">
        <ele>1182</ele>
        <time>2014-06-22T09:09:26Z</time>
      </trkpt>
      <trkpt lat="47.90309" lon="7.087">
        <ele>1184</ele>
        <time>2014-06-22T09:09:36Z</time>
      </trkpt>
      <trkpt lat="47.90313" lon="7.08701">
        <ele>1185</ele>
        <time>2014-06-22T09:09:39Z</time>
      </trkpt>
      <trkpt lat="47.90319" lon="7.08705">
        <ele>1185</ele>
        <time>2014-06-22T09:09:45Z</time>
      </trkpt>
      <trkpt lat="47.90333" lon="7.08716">
        <ele>1184</ele>
        <time>2014-06-22T09:09:56Z</time>
      </trkpt>
      <trkpt lat="47.90337" lon="7.08719">
        <ele>1201</ele>
        <time>2014-06-22T09:09:59Z</time>
      </trkpt>
      <trkpt lat="47.9034" lon="7.08722">
        <ele>1200</ele>
        <time>2014-06-22T09:10:02Z</time>
      </trkpt>
      <trkpt lat="47.9035" lon="7.08735">
        <ele>1198</ele>
        <time>2014-06-22T09:10:13Z</time>
      </trkpt>
      <trkpt lat="47.90356" lon="7.08738">
        <ele>1199</ele>
        <time>2014-06-22T09:10:19Z</time>
      </trkpt>
      <trkpt lat="47.90369" lon="7.0874">
        <ele>1203</ele>
        <time>2014-06-22T09:10:28Z</time>
      </trkpt>
      <trkpt lat="47.90377" lon="7.08751">
        <ele>1196</ele>
        <time>2014-06-22T09:10:39Z</time>
      </trkpt>
      <trkpt lat="47.90378" lon="7.08754">
        <ele>1197</ele>
        <time>2014-06-22T09:10:41Z</time>
      </trkpt>
      <trkpt lat="47.90384" lon="7.08758">
        <ele>1198</ele>
        <time>2014-06-22T09:10:46Z</time>
      </trkpt>
      <trkpt lat="47.90387" lon="7.0876">
        <ele>1199</ele>
        <time>2014-06-22T09:10:49Z</time>
      </trkpt>
      <trkpt lat="47.90389" lon="7.08763">
        <ele>1199</ele>
        <time>2014-06-22T09:10:53Z</time>
      </trkpt>
      <trkpt lat="47.90398" lon="7.08775">
        <ele>1200</ele>
        <time>2014-06-22T09:11:05Z</time>
      </trkpt>
      <trkpt lat="47.90407" lon="7.0879">
        <ele>1200</ele>
        <time>2014-06-22T09:11:17Z</time>
      </trkpt>
      <trkpt lat="47.90412" lon="7.08802">
        <ele>1200</ele>
        <time>2014-06-22T09:11:27Z</time>
      </trkpt>
      <trkpt lat="47.90416" lon="7.0882">
        <ele>1202</ele>
        <time>2014-06-22T09:11:39Z</time>
      </trkpt>
      <trkpt lat="47.90421" lon="7.08839">
        <ele>1210</ele>
        <time>2014-06-22T09:11:51Z</time>
      </trkpt>
      <trkpt lat="47.90422" lon="7.08843">
        <ele>1212</ele>
        <time>2014-06-22T09:11:54Z</time>
      </trkpt>
      <trkpt lat="47.90424" lon="7.08863">
        <ele>1216</ele>
        <time>2014-06-22T09:12:06Z</time>
      </trkpt>
      <trkpt lat="47.9043" lon="7.08883">
        <ele>1217</ele>
        <time>2014-06-22T09:12:18Z</time>
      </trkpt>
      <trkpt lat="47.90437" lon="7.08902">
        <ele>1216</ele>
        <time>2014-06-22T09:12:30Z</time>
      </trkpt>
      <trkpt lat="47.90445" lon="7.08921">
        <ele>1218</ele>
        <time>2014-06-22T09:12:42Z</time>
      </trkpt>
      <trkpt lat="47.90453" lon="7.08939">
        <ele>1220</ele>
        <time>2014-06-22T09:12:54Z</time>
      </trkpt>
      <trkpt lat="47.9046" lon="7.08957">
        <ele>1221</ele>
        <time>2014-06-22T09:13:06Z</time>
      </trkpt>
      <trkpt lat="47.90469" lon="7.08972">
        <ele>1222</ele>
        <time>2014-06-22T09:13:18Z</time>
      </trkpt>
      <trkpt lat="47.90478" lon="7.08987">
        <ele>1223</ele>
        <time>2014-06-22T09:13:30Z</time>
      </trkpt>
      <trkpt lat="47.9048" lon="7.08991">
        <ele>1223</ele>
        <time>2014-06-22T09:13:33Z</time>
      </trkpt>
      <trkpt lat="47.90489" lon="7.09004">
        <ele>1226</ele>
        <time>2014-06-22T09:13:45Z</time>
      </trkpt>
      <trkpt lat="47.90498" lon="7.09016">
        <ele>1226</ele>
        <time>2014-06-22T09:13:57Z</time>
      </trkpt>
      <trkpt lat="47.90503" lon="7.09028">
        <ele>1224</ele>
        <time>2014-06-22T09:14:20Z</time>
      </trkpt>
      <trkpt lat="47.90504" lon="7.09032">
        <ele>1224</ele>
        <time>2014-06-22T09:14:55Z</time>
      </trkpt>
      <trkpt lat="47.90501" lon="7.09033">
        <ele>1224</ele>
        <time>2014-06-22T09:15:18Z</time>
      </trkpt>
      <trkpt lat="47.90502" lon="7.09037">
        <ele>1224</ele>
        <time>2014-06-22T09:16:50Z</time>
      </trkpt>
      <trkpt lat="47.90501" lon="7.09033">
        <ele>1224</ele>
        <time>2014-06-22T09:18:15Z</time>
      </trkpt>
      <trkpt lat="47.90503" lon="7.09035">
        <ele>1224</ele>
        <time>2014-06-22T09:22:17Z</time>
      </trkpt>
      <trkpt lat="47.90501" lon="7.09033">
        <ele>1224</ele>
        <time>2014-06-22T09:23:12Z</time>
      </trkpt>
      <trkpt lat="47.90498" lon="7.09035">
        <ele>1226</ele>
        <time>2014-06-22T09:26:52Z</time>
      </trkpt>
      <trkpt lat="47.90493" lon="7.09046">
        <ele>1226</ele>
        <time>2014-06-22T09:27:02Z</time>
      </trkpt>
      <trkpt lat="47.90484" lon="7.0906">
        <ele>1227</ele>
        <time>2014-06-22T09:27:14Z</time>
      </trkpt>
      <trkpt lat="47.90475" lon="7.09075">
        <ele>1227</ele>
        <time>2014-06-22T09:27:26Z</time>
      </trkpt>
      <trkpt lat="47.90465" lon="7.09089">
        <ele>1232</ele>
        <time>2014-06-22T09:27:38Z</time>
      </trkpt>
      <trkpt lat="47.90457" lon="7.09104">
        <ele>1232</ele>
        <time>2014-06-22T09:27:50Z</time>
      </trkpt>
      <trkpt lat="47.90455" lon="7.09119">
        <ele>1233</ele>
        <time>2014-06-22T09:27:59Z</time>
      </trkpt>
      <trkpt lat="47.90454" lon="7.09138">
        <ele>1234</ele>
        <time>2014-06-22T09:28:11Z</time>
      </trkpt>
      <trkpt lat="47.90456" lon="7.09159">
        <ele>1235</ele>
        <time>2014-06-22T09:28:23Z</time>
      </trkpt>
      <trkpt lat="47.90456" lon="7.09173">
        <ele>1240</ele>
        <time>2014-06-22T09:28:34Z</time>
      </trkpt>
      <trkpt lat="47.90457" lon="7.09187">
        <ele>1241</ele>
        <time>2014-06-22T09:28:44Z</time>
      </trkpt>
      <trkpt lat="47.90456" lon="7.09202">
        <ele>1241</ele>
        <time>2014-06-22T09:28:54Z</time>
      </trkpt>
      <trkpt lat="47.90458" lon="7.09221">
        <ele>1242</ele>
        <time>2014-06-22T09:29:07Z</time>
      </trkpt>
      <trkpt lat="47.90459" lon="7.09235">
        <ele>1242</ele>
        <time>2014-06-22T09:29:19Z</time>
      </trkpt>
      <trkpt lat="47.9046" lon="7.09255">
        <ele>1249</ele>
        <time>2014-06-22T09:29:31Z</time>
      </trkpt>
      <trkpt lat="47.9046" lon="7.09276">
        <ele>1250</ele>
        <time>2014-06-22T09:29:43Z</time>
      </trkpt>
      <trkpt lat="47.90462" lon="7.09289">
        <ele>1251</ele>
        <time>2014-06-22T09:29:53Z</time>
      </trkpt>
      <trkpt lat="47.90466" lon="7.09306">
        <ele>1252</ele>
        <time>2014-06-22T09:30:03Z</time>
      </trkpt>
      <trkpt lat="47.90472" lon="7.09323">
        <ele>1252</ele>
        <time>2014-06-22T09:30:15Z</time>
      </trkpt>
      <trkpt lat="47.90476" lon="7.09341">
        <ele>1260</ele>
        <time>2014-06-22T09:30:27Z</time>
      </trkpt>
      <trkpt lat="47.9048" lon="7.0936">
        <ele>1262</ele>
        <time>2014-06-22T09:30:39Z</time>
      </trkpt>
      <trkpt lat="47.90481" lon="7.09376">
        <ele>1263</ele>
        <time>2014-06-22T09:30:49Z</time>
      </trkpt>
      <trkpt lat="47.90483" lon="7.09395">
        <ele>1264</ele>
        <time>2014-06-22T09:31:01Z</time>
      </trkpt>
      <trkpt lat="47.90485" lon="7.09411">
        <ele>1264</ele>
        <time>2014-06-22T09:31:10Z</time>
      </trkpt>
      <trkpt lat="47.90491" lon="7.09428">
        <ele>1270</ele>
        <time>2014-06-22T09:31:21Z</time>
      </trkpt>
      <trkpt lat="47.90496" lon="7.09439">
        <ele>1272</ele>
        <time>2014-06-22T09:31:30Z</time>
      </trkpt>
      <trkpt lat="47.905" lon="7.0946">
        <ele>1265</ele>
        <time>2014-06-22T09:31:42Z</time>
      </trkpt>
      <trkpt lat="47.90505" lon="7.09472">
        <ele>1267</ele>
        <time>2014-06-22T09:31:52Z</time>
      </trkpt>
      <trkpt lat="47.90511" lon="7.0949">
        <ele>1270</ele>
        <time>2014-06-22T09:32:04Z</time>
      </trkpt>
      <trkpt lat="47.90518" lon="7.0951">
        <ele>1274</ele>
        <time>2014-06-22T09:32:15Z</time>
      </trkpt>
      <trkpt lat="47.90519" lon="7.09514">
        <ele>1274</ele>
        <time>2014-06-22T09:32:17Z</time>
      </trkpt>
      <trkpt lat="47.90521" lon="7.09518">
        <ele>1274</ele>
        <time>2014-06-22T09:32:20Z</time>
      </trkpt>
      <trkpt lat="47.90526" lon="7.09536">
        <ele>1274</ele>
        <time>2014-06-22T09:32:33Z</time>
      </trkpt>
      <trkpt lat="47.90527" lon="7.09553">
        <ele>1275</ele>
        <time>2014-06-22T09:32:43Z</time>
      </trkpt>
      <trkpt lat="47.90526" lon="7.09575">
        <ele>1278</ele>
        <time>2014-06-22T09:32:55Z</time>
      </trkpt>
      <trkpt lat="47.90527" lon="7.09594">
        <ele>1282</ele>
        <time>2014-06-22T09:33:07Z</time>
      </trkpt>
      <trkpt lat="47.90528" lon="7.09614">
        <ele>1282</ele>
        <time>2014-06-22T09:33:19Z</time>
      </trkpt>
      <trkpt lat="47.90524" lon="7.09633">
        <ele>1284</ele>
        <time>2014-06-22T09:33:31Z</time>
      </trkpt>
      <trkpt lat="47.90523" lon="7.09643">
        <ele>1285</ele>
        <time>2014-06-22T09:33:36Z</time>
      </trkpt>
      <trkpt lat="47.9052" lon="7.09651">
        <ele>1286</ele>
        <time>2014-06-22T09:33:42Z</time>
      </trkpt>
      <trkpt lat="47.90514" lon="7.09669">
        <ele>1293</ele>
        <time>2014-06-22T09:33:54Z</time>
      </trkpt>
      <trkpt lat="47.90515" lon="7.09689">
        <ele>1291</ele>
        <time>2014-06-22T09:34:06Z</time>
      </trkpt>
      <trkpt lat="47.90518" lon="7.09703">
        <ele>1291</ele>
        <time>2014-06-22T09:34:16Z</time>
      </trkpt>
      <trkpt lat="47.9052" lon="7.09719">
        <ele>1292</ele>
        <time>2014-06-22T09:34:26Z</time>
      </trkpt>
      <trkpt lat="47.90524" lon="7.09738">
        <ele>1294</ele>
        <time>2014-06-22T09:34:37Z</time>
      </trkpt>
      <trkpt lat="47.90525" lon="7.09742">
        <ele>1294</ele>
        <time>2014-06-22T09:34:41Z</time>
      </trkpt>
      <trkpt lat="47.90527" lon="7.09762">
        <ele>1298</ele>
        <time>2014-06-22T09:34:52Z</time>
      </trkpt>
      <trkpt lat="47.90529" lon="7.09782">
        <ele>1298</ele>
        <time>2014-06-22T09:35:03Z</time>
      </trkpt>
      <trkpt lat="47.9053" lon="7.09787">
        <ele>1298</ele>
        <time>2014-06-22T09:35:06Z</time>
      </trkpt>
      <trkpt lat="47.90532" lon="7.09805">
        <ele>1299</ele>
        <time>2014-06-22T09:35:17Z</time>
      </trkpt>
      <trkpt lat="47.9053" lon="7.09824">
        <ele>1301</ele>
        <time>2014-06-22T09:35:28Z</time>
      </trkpt>
      <trkpt lat="47.90529" lon="7.09834">
        <ele>1305</ele>
        <time>2014-06-22T09:35:33Z</time>
      </trkpt>
      <trkpt lat="47.90531" lon="7.09848">
        <ele>1305</ele>
        <time>2014-06-22T09:35:44Z</time>
      </trkpt>
      <trkpt lat="47.90532" lon="7.09853">
        <ele>1304</ele>
        <time>2014-06-22T09:35:47Z</time>
      </trkpt>
      <trkpt lat="47.90534" lon="7.09858">
        <ele>1304</ele>
        <time>2014-06-22T09:35:50Z</time>
      </trkpt>
      <trkpt lat="47.90534" lon="7.0988">
        <ele>1305</ele>
        <time>2014-06-22T09:36:02Z</time>
      </trkpt>
      <trkpt lat="47.90531" lon="7.09901">
        <ele>1307</ele>
        <time>2014-06-22T09:36:13Z</time>
      </trkpt>
      <trkpt lat="47.90528" lon="7.09914">
        <ele>1309</ele>
        <time>2014-06-22T09:36:23Z</time>
      </trkpt>
      <trkpt lat="47.90528" lon="7.0993">
        <ele>1311</ele>
        <time>2014-06-22T09:36:33Z</time>
      </trkpt>
      <trkpt lat="47.90523" lon="7.09944">
        <ele>1311</ele>
        <time>2014-06-22T09:36:42Z</time>
      </trkpt>
      <trkpt lat="47.90516" lon="7.09965">
        <ele>1312</ele>
        <time>2014-06-22T09:36:55Z</time>
      </trkpt>
      <trkpt lat="47.90516" lon="7.09986">
        <ele>1315</ele>
        <time>2014-06-22T09:37:06Z</time>
      </trkpt>
      <trkpt lat="47.90516" lon="7.10005">
        <ele>1317</ele>
        <time>2014-06-22T09:37:16Z</time>
      </trkpt>
      <trkpt lat="47.90516" lon="7.1002">
        <ele>1316</ele>
        <time>2014-06-22T09:37:26Z</time>
      </trkpt>
      <trkpt lat="47.90514" lon="7.10038">
        <ele>1315</ele>
        <time>2014-06-22T09:37:38Z</time>
      </trkpt>
      <trkpt lat="47.90512" lon="7.10054">
        <ele>1316</ele>
        <time>2014-06-22T09:37:47Z</time>
      </trkpt>
      <trkpt lat="47.90512" lon="7.10076">
        <ele>1320</ele>
        <time>2014-06-22T09:37:59Z</time>
      </trkpt>
      <trkpt lat="47.90512" lon="7.10096">
        <ele>1321</ele>
        <time>2014-06-22T09:38:11Z</time>
      </trkpt>
      <trkpt lat="47.90511" lon="7.10112">
        <ele>1320</ele>
        <time>2014-06-22T09:38:20Z</time>
      </trkpt>
      <trkpt lat="47.90509" lon="7.10133">
        <ele>1320</ele>
        <time>2014-06-22T09:38:32Z</time>
      </trkpt>
      <trkpt lat="47.90508" lon="7.10149">
        <ele>1323</ele>
        <time>2014-06-22T09:38:42Z</time>
      </trkpt>
      <trkpt lat="47.90504" lon="7.1017">
        <ele>1328</ele>
        <time>2014-06-22T09:38:54Z</time>
      </trkpt>
      <trkpt lat="47.905" lon="7.10184">
        <ele>1335</ele>
        <time>2014-06-22T09:39:03Z</time>
      </trkpt>
      <trkpt lat="47.90495" lon="7.10195">
        <ele>1337</ele>
        <time>2014-06-22T09:39:14Z</time>
      </trkpt>
      <trkpt lat="47.90491" lon="7.10207">
        <ele>1338</ele>
        <time>2014-06-22T09:39:24Z</time>
      </trkpt>
      <trkpt lat="47.90481" lon="7.10198">
        <ele>1339</ele>
        <time>2014-06-22T09:39:37Z</time>
      </trkpt>
      <trkpt lat="47.90478" lon="7.10184">
        <ele>1338</ele>
        <time>2014-06-22T09:39:47Z</time>
      </trkpt>
      <trkpt lat="47.90471" lon="7.10175">
        <ele>1339</ele>
        <time>2014-06-22T09:40:00Z</time>
      </trkpt>
      <trkpt lat="47.90469" lon="7.10177">
        <ele>1340</ele>
        <time>2014-06-22T09:40:03Z</time>
      </trkpt>
      <trkpt lat="47.90461" lon="7.10182">
        <ele>1342</ele>
        <time>2014-06-22T09:40:18Z</time>
      </trkpt>
      <trkpt lat="47.90458" lon="7.10184">
        <ele>1342</ele>
        <time>2014-06-22T09:40:35Z</time>
      </trkpt>
      <trkpt lat="47.90452" lon="7.10184">
        <ele>1343</ele>
        <time>2014-06-22T09:40:43Z</time>
      </trkpt>
      <trkpt lat="47.90447" lon="7.10184">
        <ele>1344</ele>
        <time>2014-06-22T09:40:57Z</time>
      </trkpt>
      <trkpt lat="47.90448" lon="7.10187">
        <ele>1344</ele>
        <time>2014-06-22T09:41:52Z</time>
      </trkpt>
      <trkpt lat="47.90451" lon="7.10186">
        <ele>1343</ele>
        <time>2014-06-22T09:42:22Z</time>
      </trkpt>
      <trkpt lat="47.90455" lon="7.10186">
        <ele>1343</ele>
        <time>2014-06-22T09:42:26Z</time>
      </trkpt>
      <trkpt lat="47.90461" lon="7.10185">
        <ele>1342</ele>
        <time>2014-06-22T09:42:38Z</time>
      </trkpt>
      <trkpt lat="47.90464" lon="7.10187">
        <ele>1341</ele>
        <time>2014-06-22T09:42:46Z</time>
      </trkpt>
      <trkpt lat="47.90468" lon="7.10191">
        <ele>1340</ele>
        <time>2014-06-22T09:43:23Z</time>
      </trkpt>
      <trkpt lat="47.9047" lon="7.10199">
        <ele>1340</ele>
        <time>2014-06-22T09:43:33Z</time>
      </trkpt>
      <trkpt lat="47.90471" lon="7.10207">
        <ele>1340</ele>
        <time>2014-06-22T09:43:50Z</time>
      </trkpt>
      <trkpt lat="47.9047" lon="7.10211">
        <ele>1340</ele>
        <time>2014-06-22T09:45:20Z</time>
      </trkpt>
      <trkpt lat="47.9047" lon="7.10217">
        <ele>1340</ele>
        <time>2014-06-22T09:45:24Z</time>
      </trkpt>
      <trkpt lat="47.90465" lon="7.10224">
        <ele>1340</ele>
        <time>2014-06-22T09:45:31Z</time>
      </trkpt>
      <trkpt lat="47.90452" lon="7.10229">
        <ele>1342</ele>
        <time>2014-06-22T09:45:43Z</time>
      </trkpt>
      <trkpt lat="47.90447" lon="7.10244">
        <ele>1343</ele>
        <time>2014-06-22T09:45:56Z</time>
      </trkpt>
      <trkpt lat="47.90455" lon="7.1026">
        <ele>1338</ele>
        <time>2014-06-22T09:46:06Z</time>
      </trkpt>
      <trkpt lat="47.90463" lon="7.10267">
        <ele>1337</ele>
        <time>2014-06-22T09:46:18Z</time>
      </trkpt>
      <trkpt lat="47.90467" lon="7.10267">
        <ele>1337</ele>
        <time>2014-06-22T09:47:42Z</time>
      </trkpt>
      <trkpt lat="47.90468" lon="7.10271">
        <ele>1337</ele>
        <time>2014-06-22T09:50:37Z</time>
      </trkpt>
      <trkpt lat="47.90466" lon="7.10268">
        <ele>1337</ele>
        <time>2014-06-22T09:52:33Z</time>
      </trkpt>
      <trkpt lat="47.90469" lon="7.10269">
        <ele>1336</ele>
        <time>2014-06-22T09:53:00Z</time>
      </trkpt>
      <trkpt lat="47.90467" lon="7.10262">
        <ele>1337</ele>
        <time>2014-06-22T10:00:56Z</time>
      </trkpt>
      <trkpt lat="47.90464" lon="7.10266">
        <ele>1337</ele>
        <time>2014-06-22T10:01:30Z</time>
      </trkpt>
      <trkpt lat="47.90466" lon="7.10269">
        <ele>1337</ele>
        <time>2014-06-22T10:02:52Z</time>
      </trkpt>
      <trkpt lat="47.90469" lon="7.10268">
        <ele>1336</ele>
        <time>2014-06-22T10:04:38Z</time>
      </trkpt>
      <trkpt lat="47.90471" lon="7.10272">
        <ele>1336</ele>
        <time>2014-06-22T10:04:51Z</time>
      </trkpt>
      <trkpt lat="47.90469" lon="7.10284">
        <ele>1336</ele>
        <time>2014-06-22T10:05:02Z</time>
      </trkpt>
      <trkpt lat="47.9047" lon="7.10288">
        <ele>1336</ele>
        <time>2014-06-22T10:05:15Z</time>
      </trkpt>
      <trkpt lat="47.90475" lon="7.10298">
        <ele>1336</ele>
        <time>2014-06-22T10:05:25Z</time>
      </trkpt>
      <trkpt lat="47.9048" lon="7.10315">
        <ele>1335</ele>
        <time>2014-06-22T10:05:37Z</time>
      </trkpt>
      <trkpt lat="47.90469" lon="7.10327">
        <ele>1336</ele>
        <time>2014-06-22T10:05:49Z</time>
      </trkpt>
      <trkpt lat="47.90457" lon="7.10328">
        <ele>1336</ele>
        <time>2014-06-22T10:06:04Z</time>
      </trkpt>
      <trkpt lat="47.90453" lon="7.10328">
        <ele>1336</ele>
        <time>2014-06-22T10:06:07Z</time>
      </trkpt>
      <trkpt lat="47.9044" lon="7.10324">
        <ele>1337</ele>
        <time>2014-06-22T10:06:17Z</time>
      </trkpt>
      <trkpt lat="47.90432" lon="7.10324">
        <ele>1337</ele>
        <time>2014-06-22T10:06:28Z</time>
      </trkpt>
      <trkpt lat="47.90425" lon="7.10322">
        <ele>1337</ele>
        <time>2014-06-22T10:06:37Z</time>
      </trkpt>
      <trkpt lat="47.90414" lon="7.10322">
        <ele>1339</ele>
        <time>2014-06-22T10:06:49Z</time>
      </trkpt>
      <trkpt lat="47.90404" lon="7.10324">
        <ele>1339</ele>
        <time>2014-06-22T10:06:58Z</time>
      </trkpt>
      <trkpt lat="47.90389" lon="7.10334">
        <ele>1333</ele>
        <time>2014-06-22T10:07:10Z</time>
      </trkpt>
      <trkpt lat="47.90379" lon="7.10335">
        <ele>1333</ele>
        <time>2014-06-22T10:07:19Z</time>
      </trkpt>
      <trkpt lat="47.90364" lon="7.10334">
        <ele>1333</ele>
        <time>2014-06-22T10:07:31Z</time>
      </trkpt>
      <trkpt lat="47.90351" lon="7.10333">
        <ele>1340</ele>
        <time>2014-06-22T10:07:41Z</time>
      </trkpt>
      <trkpt lat="47.90348" lon="7.10331">
        <ele>1340</ele>
        <time>2014-06-22T10:07:44Z</time>
      </trkpt>
      <trkpt lat="47.90336" lon="7.10326">
        <ele>1339</ele>
        <time>2014-06-22T10:07:55Z</time>
      </trkpt>
      <trkpt lat="47.9033" lon="7.10324">
        <ele>1339</ele>
        <time>2014-06-22T10:07:59Z</time>
      </trkpt>
      <trkpt lat="47.90323" lon="7.10323">
        <ele>1339</ele>
        <time>2014-06-22T10:08:03Z</time>
      </trkpt>
      <trkpt lat="47.9031" lon="7.10327">
        <ele>1339</ele>
        <time>2014-06-22T10:08:14Z</time>
      </trkpt>
      <trkpt lat="47.90297" lon="7.10329">
        <ele>1339</ele>
        <time>2014-06-22T10:08:24Z</time>
      </trkpt>
      <trkpt lat="47.90282" lon="7.10334">
        <ele>1328</ele>
        <time>2014-06-22T10:08:34Z</time>
      </trkpt>
      <trkpt lat="47.9027" lon="7.10334">
        <ele>1328</ele>
        <time>2014-06-22T10:08:47Z</time>
      </trkpt>
      <trkpt lat="47.90267" lon="7.10335">
        <ele>1328</ele>
        <time>2014-06-22T10:08:49Z</time>
      </trkpt>
      <trkpt lat="47.90251" lon="7.10335">
        <ele>1330</ele>
        <time>2014-06-22T10:09:01Z</time>
      </trkpt>
      <trkpt lat="47.90244" lon="7.10335">
        <ele>1327</ele>
        <time>2014-06-22T10:09:06Z</time>
      </trkpt>
      <trkpt lat="47.90231" lon="7.10331">
        <ele>1332</ele>
        <time>2014-06-22T10:09:17Z</time>
      </trkpt>
      <trkpt lat="47.90218" lon="7.10326">
        <ele>1332</ele>
        <time>2014-06-22T10:09:27Z</time>
      </trkpt>
      <trkpt lat="47.90204" lon="7.10328">
        <ele>1331</ele>
        <time>2014-06-22T10:09:37Z</time>
      </trkpt>
      <trkpt lat="47.90198" lon="7.10328">
        <ele>1330</ele>
        <time>2014-06-22T10:09:41Z</time>
      </trkpt>
      <trkpt lat="47.90184" lon="7.10329">
        <ele>1328</ele>
        <time>2014-06-22T10:09:52Z</time>
      </trkpt>
      <trkpt lat="47.90178" lon="7.10328">
        <ele>1327</ele>
        <time>2014-06-22T10:09:57Z</time>
      </trkpt>
      <trkpt lat="47.90166" lon="7.10331">
        <ele>1322</ele>
        <time>2014-06-22T10:10:07Z</time>
      </trkpt>
      <trkpt lat="47.90152" lon="7.10332">
        <ele>1323</ele>
        <time>2014-06-22T10:10:17Z</time>
      </trkpt>
      <trkpt lat="47.90141" lon="7.10333">
        <ele>1315</ele>
        <time>2014-06-22T10:10:26Z</time>
      </trkpt>
      <trkpt lat="47.90127" lon="7.10333">
        <ele>1323</ele>
        <time>2014-06-22T10:10:36Z</time>
      </trkpt>
      <trkpt lat="47.90118" lon="7.10329">
        <ele>1322</ele>
        <time>2014-06-22T10:10:44Z</time>
      </trkpt>
      <trkpt lat="47.90104" lon="7.10327">
        <ele>1320</ele>
        <time>2014-06-22T10:10:55Z</time>
      </trkpt>
      <trkpt lat="47.90088" lon="7.10322">
        <ele>1318</ele>
        <time>2014-06-22T10:11:06Z</time>
      </trkpt>
      <trkpt lat="47.90078" lon="7.10319">
        <ele>1316</ele>
        <time>2014-06-22T10:11:15Z</time>
      </trkpt>
      <trkpt lat="47.90073" lon="7.10314">
        <ele>1317</ele>
        <time>2014-06-22T10:11:21Z</time>
      </trkpt>
      <trkpt lat="47.90058" lon="7.1031">
        <ele>1318</ele>
        <time>2014-06-22T10:11:32Z</time>
      </trkpt>
      <trkpt lat="47.90047" lon="7.10311">
        <ele>1318</ele>
        <time>2014-06-22T10:11:42Z</time>
      </trkpt>
      <trkpt lat="47.90046" lon="7.10316">
        <ele>1317</ele>
        <time>2014-06-22T10:11:47Z</time>
      </trkpt>
      <trkpt lat="47.90043" lon="7.1033">
        <ele>1316</ele>
        <time>2014-06-22T10:11:55Z</time>
      </trkpt>
      <trkpt lat="47.90041" lon="7.10339">
        <ele>1306</ele>
        <time>2014-06-22T10:12:00Z</time>
      </trkpt>
      <trkpt lat="47.90032" lon="7.10345">
        <ele>1305</ele>
        <time>2014-06-22T10:12:09Z</time>
      </trkpt>
      <trkpt lat="47.90018" lon="7.10352">
        <ele>1305</ele>
        <time>2014-06-22T10:12:21Z</time>
      </trkpt>
      <trkpt lat="47.90006" lon="7.10359">
        <ele>1304</ele>
        <time>2014-06-22T10:12:31Z</time>
      </trkpt>
      <trkpt lat="47.89991" lon="7.10367">
        <ele>1299</ele>
        <time>2014-06-22T10:12:41Z</time>
      </trkpt>
      <trkpt lat="47.89985" lon="7.10369">
        <ele>1298</ele>
        <time>2014-06-22T10:12:45Z</time>
      </trkpt>
      <trkpt lat="47.89972" lon="7.10373">
        <ele>1297</ele>
        <time>2014-06-22T10:12:55Z</time>
      </trkpt>
      <trkpt lat="47.89969" lon="7.10375">
        <ele>1297</ele>
        <time>2014-06-22T10:12:57Z</time>
      </trkpt>
      <trkpt lat="47.89955" lon="7.10386">
        <ele>1296</ele>
        <time>2014-06-22T10:13:08Z</time>
      </trkpt>
      <trkpt lat="47.89953" lon="7.10387">
        <ele>1295</ele>
        <time>2014-06-22T10:13:10Z</time>
      </trkpt>
      <trkpt lat="47.89942" lon="7.1039">
        <ele>1294</ele>
        <time>2014-06-22T10:13:18Z</time>
      </trkpt>
      <trkpt lat="47.89939" lon="7.10391">
        <ele>1294</ele>
        <time>2014-06-22T10:13:21Z</time>
      </trkpt>
      <trkpt lat="47.89925" lon="7.10398">
        <ele>1292</ele>
        <time>2014-06-22T10:13:32Z</time>
      </trkpt>
      <trkpt lat="47.89916" lon="7.10397">
        <ele>1289</ele>
        <time>2014-06-22T10:13:49Z</time>
      </trkpt>
      <trkpt lat="47.89913" lon="7.10397">
        <ele>1289</ele>
        <time>2014-06-22T10:13:52Z</time>
      </trkpt>
      <trkpt lat="47.89901" lon="7.10409">
        <ele>1288</ele>
        <time>2014-06-22T10:14:04Z</time>
      </trkpt>
      <trkpt lat="47.89895" lon="7.10426">
        <ele>1281</ele>
        <time>2014-06-22T10:14:15Z</time>
      </trkpt>
      <trkpt lat="47.89894" lon="7.10431">
        <ele>1281</ele>
        <time>2014-06-22T10:14:18Z</time>
      </trkpt>
      <trkpt lat="47.89892" lon="7.10435">
        <ele>1281</ele>
        <time>2014-06-22T10:14:22Z</time>
      </trkpt>
      <trkpt lat="47.89886" lon="7.10449">
        <ele>1280</ele>
        <time>2014-06-22T10:14:32Z</time>
      </trkpt>
      <trkpt lat="47.8988" lon="7.10465">
        <ele>1278</ele>
        <time>2014-06-22T10:14:42Z</time>
      </trkpt>
      <trkpt lat="47.89876" lon="7.10484">
        <ele>1277</ele>
        <time>2014-06-22T10:14:53Z</time>
      </trkpt>
      <trkpt lat="47.89879" lon="7.10499">
        <ele>1277</ele>
        <time>2014-06-22T10:15:11Z</time>
      </trkpt>
      <trkpt lat="47.89878" lon="7.10508">
        <ele>1269</ele>
        <time>2014-06-22T10:15:17Z</time>
      </trkpt>
      <trkpt lat="47.89873" lon="7.10524">
        <ele>1268</ele>
        <time>2014-06-22T10:15:29Z</time>
      </trkpt>
      <trkpt lat="47.89869" lon="7.10536">
        <ele>1267</ele>
        <time>2014-06-22T10:15:38Z</time>
      </trkpt>
      <trkpt lat="47.89863" lon="7.10554">
        <ele>1265</ele>
        <time>2014-06-22T10:15:49Z</time>
      </trkpt>
      <trkpt lat="47.89862" lon="7.10558">
        <ele>1265</ele>
        <time>2014-06-22T10:15:51Z</time>
      </trkpt>
      <trkpt lat="47.89863" lon="7.10576">
        <ele>1264</ele>
        <time>2014-06-22T10:16:01Z</time>
      </trkpt>
      <trkpt lat="47.89863" lon="7.10585">
        <ele>1256</ele>
        <time>2014-06-22T10:16:07Z</time>
      </trkpt>
      <trkpt lat="47.89864" lon="7.1059">
        <ele>1255</ele>
        <time>2014-06-22T10:16:58Z</time>
      </trkpt>
      <trkpt lat="47.89861" lon="7.10606">
        <ele>1254</ele>
        <time>2014-06-22T10:17:08Z</time>
      </trkpt>
      <trkpt lat="47.89855" lon="7.10624">
        <ele>1253</ele>
        <time>2014-06-22T10:17:19Z</time>
      </trkpt>
      <trkpt lat="47.89849" lon="7.10632">
        <ele>1252</ele>
        <time>2014-06-22T10:17:25Z</time>
      </trkpt>
      <trkpt lat="47.89841" lon="7.10649">
        <ele>1249</ele>
        <time>2014-06-22T10:17:35Z</time>
      </trkpt>
      <trkpt lat="47.89833" lon="7.10664">
        <ele>1245</ele>
        <time>2014-06-22T10:17:45Z</time>
      </trkpt>
      <trkpt lat="47.89822" lon="7.10683">
        <ele>1241</ele>
        <time>2014-06-22T10:17:55Z</time>
      </trkpt>
      <trkpt lat="47.89812" lon="7.10698">
        <ele>1240</ele>
        <time>2014-06-22T10:18:05Z</time>
      </trkpt>
      <trkpt lat="47.89802" lon="7.10719">
        <ele>1238</ele>
        <time>2014-06-22T10:18:15Z</time>
      </trkpt>
      <trkpt lat="47.89799" lon="7.10723">
        <ele>1238</ele>
        <time>2014-06-22T10:18:17Z</time>
      </trkpt>
      <trkpt lat="47.89787" lon="7.10737">
        <ele>1237</ele>
        <time>2014-06-22T10:18:27Z</time>
      </trkpt>
      <trkpt lat="47.89773" lon="7.10749">
        <ele>1236</ele>
        <time>2014-06-22T10:18:37Z</time>
      </trkpt>
      <trkpt lat="47.89767" lon="7.10756">
        <ele>1228</ele>
        <time>2014-06-22T10:18:41Z</time>
      </trkpt>
      <trkpt lat="47.89755" lon="7.10773">
        <ele>1227</ele>
        <time>2014-06-22T10:18:52Z</time>
      </trkpt>
      <trkpt lat="47.89741" lon="7.10788">
        <ele>1225</ele>
        <time>2014-06-22T10:19:03Z</time>
      </trkpt>
      <trkpt lat="47.89735" lon="7.10792">
        <ele>1225</ele>
        <time>2014-06-22T10:19:07Z</time>
      </trkpt>
      <trkpt lat="47.8972" lon="7.10802">
        <ele>1224</ele>
        <time>2014-06-22T10:19:17Z</time>
      </trkpt>
      <trkpt lat="47.89717" lon="7.10805">
        <ele>1224</ele>
        <time>2014-06-22T10:19:19Z</time>
      </trkpt>
      <trkpt lat="47.89704" lon="7.10826">
        <ele>1222</ele>
        <time>2014-06-22T10:19:30Z</time>
      </trkpt>
      <trkpt lat="47.89703" lon="7.10831">
        <ele>1222</ele>
        <time>2014-06-22T10:19:33Z</time>
      </trkpt>
      <trkpt lat="47.89699" lon="7.1085">
        <ele>1211</ele>
        <time>2014-06-22T10:19:43Z</time>
      </trkpt>
      <trkpt lat="47.89693" lon="7.10865">
        <ele>1210</ele>
        <time>2014-06-22T10:19:54Z</time>
      </trkpt>
      <trkpt lat="47.89682" lon="7.1088">
        <ele>1208</ele>
        <time>2014-06-22T10:20:06Z</time>
      </trkpt>
      <trkpt lat="47.89671" lon="7.10895">
        <ele>1205</ele>
        <time>2014-06-22T10:20:17Z</time>
      </trkpt>
      <trkpt lat="47.89668" lon="7.10898">
        <ele>1204</ele>
        <time>2014-06-22T10:20:19Z</time>
      </trkpt>
      <trkpt lat="47.89666" lon="7.10901">
        <ele>1205</ele>
        <time>2014-06-22T10:20:21Z</time>
      </trkpt>
      <trkpt lat="47.89663" lon="7.10903">
        <ele>1204</ele>
        <time>2014-06-22T10:20:23Z</time>
      </trkpt>
      <trkpt lat="47.8965" lon="7.10915">
        <ele>1205</ele>
        <time>2014-06-22T10:20:33Z</time>
      </trkpt>
      <trkpt lat="47.89647" lon="7.10918">
        <ele>1198</ele>
        <time>2014-06-22T10:20:35Z</time>
      </trkpt>
      <trkpt lat="47.89645" lon="7.10921">
        <ele>1197</ele>
        <time>2014-06-22T10:20:37Z</time>
      </trkpt>
      <trkpt lat="47.89634" lon="7.10939">
        <ele>1197</ele>
        <time>2014-06-22T10:20:49Z</time>
      </trkpt>
      <trkpt lat="47.89625" lon="7.10955">
        <ele>1196</ele>
        <time>2014-06-22T10:21:01Z</time>
      </trkpt>
      <trkpt lat="47.89614" lon="7.10973">
        <ele>1195</ele>
        <time>2014-06-22T10:21:11Z</time>
      </trkpt>
      <trkpt lat="47.89606" lon="7.10981">
        <ele>1195</ele>
        <time>2014-06-22T10:21:17Z</time>
      </trkpt>
      <trkpt lat="47.89595" lon="7.10997">
        <ele>1195</ele>
        <time>2014-06-22T10:21:27Z</time>
      </trkpt>
      <trkpt lat="47.89581" lon="7.11015">
        <ele>1194</ele>
        <time>2014-06-22T10:21:39Z</time>
      </trkpt>
      <trkpt lat="47.8958" lon="7.11019">
        <ele>1194</ele>
        <time>2014-06-22T10:21:41Z</time>
      </trkpt>
      <trkpt lat="47.89578" lon="7.11024">
        <ele>1194</ele>
        <time>2014-06-22T10:21:43Z</time>
      </trkpt>
      <trkpt lat="47.89576" lon="7.11034">
        <ele>1193</ele>
        <time>2014-06-22T10:21:48Z</time>
      </trkpt>
      <trkpt lat="47.89575" lon="7.11038">
        <ele>1192</ele>
        <time>2014-06-22T10:21:50Z</time>
      </trkpt>
      <trkpt lat="47.89564" lon="7.11057">
        <ele>1191</ele>
        <time>2014-06-22T10:22:01Z</time>
      </trkpt>
      <trkpt lat="47.89562" lon="7.1106">
        <ele>1190</ele>
        <time>2014-06-22T10:22:03Z</time>
      </trkpt>
      <trkpt lat="47.89557" lon="7.11072">
        <ele>1190</ele>
        <time>2014-06-22T10:22:10Z</time>
      </trkpt>
      <trkpt lat="47.89545" lon="7.11093">
        <ele>1179</ele>
        <time>2014-06-22T10:22:22Z</time>
      </trkpt>
      <trkpt lat="47.89543" lon="7.11096">
        <ele>1179</ele>
        <time>2014-06-22T10:22:24Z</time>
      </trkpt>
      <trkpt lat="47.89541" lon="7.11098">
        <ele>1179</ele>
        <time>2014-06-22T10:22:26Z</time>
      </trkpt>
      <trkpt lat="47.89539" lon="7.11103">
        <ele>1179</ele>
        <time>2014-06-22T10:22:29Z</time>
      </trkpt>
      <trkpt lat="47.89531" lon="7.11122">
        <ele>1178</ele>
        <time>2014-06-22T10:22:40Z</time>
      </trkpt>
      <trkpt lat="47.89524" lon="7.11132">
        <ele>1177</ele>
        <time>2014-06-22T10:22:46Z</time>
      </trkpt>
      <trkpt lat="47.89514" lon="7.11148">
        <ele>1176</ele>
        <time>2014-06-22T10:22:56Z</time>
      </trkpt>
      <trkpt lat="47.89511" lon="7.11152">
        <ele>1176</ele>
        <time>2014-06-22T10:22:59Z</time>
      </trkpt>
      <trkpt lat="47.89503" lon="7.1117">
        <ele>1172</ele>
        <time>2014-06-22T10:23:09Z</time>
      </trkpt>
      <trkpt lat="47.89495" lon="7.11192">
        <ele>1176</ele>
        <time>2014-06-22T10:23:20Z</time>
      </trkpt>
      <trkpt lat="47.89488" lon="7.11213">
        <ele>1174</ele>
        <time>2014-06-22T10:23:30Z</time>
      </trkpt>
      <trkpt lat="47.89481" lon="7.11236">
        <ele>1171</ele>
        <time>2014-06-22T10:23:41Z</time>
      </trkpt>
      <trkpt lat="47.89475" lon="7.11246">
        <ele>1172</ele>
        <time>2014-06-22T10:23:48Z</time>
      </trkpt>
      <trkpt lat="47.89469" lon="7.11261">
        <ele>1164</ele>
        <time>2014-06-22T10:23:57Z</time>
      </trkpt>
      <trkpt lat="47.89465" lon="7.11282">
        <ele>1163</ele>
        <time>2014-06-22T10:24:07Z</time>
      </trkpt>
      <trkpt lat="47.89464" lon="7.11286">
        <ele>1163</ele>
        <time>2014-06-22T10:24:10Z</time>
      </trkpt>
      <trkpt lat="47.89456" lon="7.11304">
        <ele>1162</ele>
        <time>2014-06-22T10:24:20Z</time>
      </trkpt>
      <trkpt lat="47.89446" lon="7.11324">
        <ele>1162</ele>
        <time>2014-06-22T10:24:32Z</time>
      </trkpt>
      <trkpt lat="47.89434" lon="7.11337">
        <ele>1155</ele>
        <time>2014-06-22T10:24:42Z</time>
      </trkpt>
      <trkpt lat="47.89432" lon="7.1134">
        <ele>1155</ele>
        <time>2014-06-22T10:24:44Z</time>
      </trkpt>
      <trkpt lat="47.89422" lon="7.11358">
        <ele>1153</ele>
        <time>2014-06-22T10:24:55Z</time>
      </trkpt>
      <trkpt lat="47.89409" lon="7.11371">
        <ele>1156</ele>
        <time>2014-06-22T10:25:07Z</time>
      </trkpt>
      <trkpt lat="47.89406" lon="7.11374">
        <ele>1155</ele>
        <time>2014-06-22T10:25:10Z</time>
      </trkpt>
      <trkpt lat="47.89394" lon="7.11383">
        <ele>1155</ele>
        <time>2014-06-22T10:25:20Z</time>
      </trkpt>
      <trkpt lat="47.89389" lon="7.11389">
        <ele>1154</ele>
        <time>2014-06-22T10:25:50Z</time>
      </trkpt>
      <trkpt lat="47.89379" lon="7.11404">
        <ele>1153</ele>
        <time>2014-06-22T10:26:01Z</time>
      </trkpt>
      <trkpt lat="47.89369" lon="7.11422">
        <ele>1144</ele>
        <time>2014-06-22T10:26:13Z</time>
      </trkpt>
      <trkpt lat="47.89356" lon="7.11437">
        <ele>1144</ele>
        <time>2014-06-22T10:26:25Z</time>
      </trkpt>
      <trkpt lat="47.89346" lon="7.11449">
        <ele>1143</ele>
        <time>2014-06-22T10:26:37Z</time>
      </trkpt>
      <trkpt lat="47.89345" lon="7.11453">
        <ele>1143</ele>
        <time>2014-06-22T10:26:40Z</time>
      </trkpt>
      <trkpt lat="47.89338" lon="7.1147">
        <ele>1141</ele>
        <time>2014-06-22T10:26:50Z</time>
      </trkpt>
      <trkpt lat="47.8933" lon="7.11487">
        <ele>1138</ele>
        <time>2014-06-22T10:27:01Z</time>
      </trkpt>
      <trkpt lat="47.89326" lon="7.11504">
        <ele>1133</ele>
        <time>2014-06-22T10:27:12Z</time>
      </trkpt>
      <trkpt lat="47.89324" lon="7.11507">
        <ele>1132</ele>
        <time>2014-06-22T10:27:14Z</time>
      </trkpt>
      <trkpt lat="47.89316" lon="7.11518">
        <ele>1128</ele>
        <time>2014-06-22T10:27:24Z</time>
      </trkpt>
      <trkpt lat="47.89304" lon="7.11536">
        <ele>1125</ele>
        <time>2014-06-22T10:27:34Z</time>
      </trkpt>
      <trkpt lat="47.8929" lon="7.11548">
        <ele>1124</ele>
        <time>2014-06-22T10:27:44Z</time>
      </trkpt>
      <trkpt lat="47.89288" lon="7.11552">
        <ele>1123</ele>
        <time>2014-06-22T10:27:47Z</time>
      </trkpt>
      <trkpt lat="47.8928" lon="7.11562">
        <ele>1122</ele>
        <time>2014-06-22T10:27:55Z</time>
      </trkpt>
      <trkpt lat="47.8928" lon="7.11566">
        <ele>1121</ele>
        <time>2014-06-22T10:28:00Z</time>
      </trkpt>
      <trkpt lat="47.89282" lon="7.11569">
        <ele>1121</ele>
        <time>2014-06-22T10:28:24Z</time>
      </trkpt>
      <trkpt lat="47.89275" lon="7.1157">
        <ele>1120</ele>
        <time>2014-06-22T10:28:30Z</time>
      </trkpt>
      <trkpt lat="47.89263" lon="7.11577">
        <ele>1118</ele>
        <time>2014-06-22T10:28:39Z</time>
      </trkpt>
      <trkpt lat="47.8926" lon="7.11579">
        <ele>1117</ele>
        <time>2014-06-22T10:28:42Z</time>
      </trkpt>
      <trkpt lat="47.89251" lon="7.1159">
        <ele>1112</ele>
        <time>2014-06-22T10:28:53Z</time>
      </trkpt>
      <trkpt lat="47.89245" lon="7.11595">
        <ele>1111</ele>
        <time>2014-06-22T10:29:00Z</time>
      </trkpt>
      <trkpt lat="47.89234" lon="7.11615">
        <ele>1109</ele>
        <time>2014-06-22T10:29:13Z</time>
      </trkpt>
      <trkpt lat="47.8922" lon="7.11628">
        <ele>1108</ele>
        <time>2014-06-22T10:29:25Z</time>
      </trkpt>
      <trkpt lat="47.89218" lon="7.11629">
        <ele>1108</ele>
        <time>2014-06-22T10:29:28Z</time>
      </trkpt>
      <trkpt lat="47.89215" lon="7.11633">
        <ele>1107</ele>
        <time>2014-06-22T10:29:32Z</time>
      </trkpt>
      <trkpt lat="47.89209" lon="7.11646">
        <ele>1107</ele>
        <time>2014-06-22T10:29:41Z</time>
      </trkpt>
      <trkpt lat="47.89199" lon="7.11651">
        <ele>1106</ele>
        <time>2014-06-22T10:29:51Z</time>
      </trkpt>
      <trkpt lat="47.89198" lon="7.1167">
        <ele>1099</ele>
        <time>2014-06-22T10:30:01Z</time>
      </trkpt>
      <trkpt lat="47.89193" lon="7.11688">
        <ele>1098</ele>
        <time>2014-06-22T10:30:11Z</time>
      </trkpt>
      <trkpt lat="47.89184" lon="7.11701">
        <ele>1097</ele>
        <time>2014-06-22T10:30:22Z</time>
      </trkpt>
      <trkpt lat="47.89173" lon="7.11719">
        <ele>1095</ele>
        <time>2014-06-22T10:30:33Z</time>
      </trkpt>
      <trkpt lat="47.89165" lon="7.11738">
        <ele>1093</ele>
        <time>2014-06-22T10:30:43Z</time>
      </trkpt>
      <trkpt lat="47.89158" lon="7.11759">
        <ele>1088</ele>
        <time>2014-06-22T10:30:54Z</time>
      </trkpt>
      <trkpt lat="47.8915" lon="7.11778">
        <ele>1087</ele>
        <time>2014-06-22T10:31:04Z</time>
      </trkpt>
      <trkpt lat="47.89147" lon="7.11801">
        <ele>1085</ele>
        <time>2014-06-22T10:31:15Z</time>
      </trkpt>
      <trkpt lat="47.89141" lon="7.11826">
        <ele>1083</ele>
        <time>2014-06-22T10:31:27Z</time>
      </trkpt>
      <trkpt lat="47.89134" lon="7.11842">
        <ele>1077</ele>
        <time>2014-06-22T10:31:37Z</time>
      </trkpt>
      <trkpt lat="47.89122" lon="7.11855">
        <ele>1077</ele>
        <time>2014-06-22T10:31:48Z</time>
      </trkpt>
      <trkpt lat="47.89119" lon="7.11858">
        <ele>1077</ele>
        <time>2014-06-22T10:31:51Z</time>
      </trkpt>
      <trkpt lat="47.89106" lon="7.11874">
        <ele>1076</ele>
        <time>2014-06-22T10:32:03Z</time>
      </trkpt>
      <trkpt lat="47.89096" lon="7.11889">
        <ele>1074</ele>
        <time>2014-06-22T10:32:14Z</time>
      </trkpt>
      <trkpt lat="47.89087" lon="7.11903">
        <ele>1072</ele>
        <time>2014-06-22T10:32:24Z</time>
      </trkpt>
      <trkpt lat="47.89082" lon="7.11915">
        <ele>1071</ele>
        <time>2014-06-22T10:32:37Z</time>
      </trkpt>
      <trkpt lat="47.89075" lon="7.1193">
        <ele>1069</ele>
        <time>2014-06-22T10:32:52Z</time>
      </trkpt>
      <trkpt lat="47.89073" lon="7.11932">
        <ele>1068</ele>
        <time>2014-06-22T10:32:55Z</time>
      </trkpt>
      <trkpt lat="47.8906" lon="7.11947">
        <ele>1067</ele>
        <time>2014-06-22T10:33:07Z</time>
      </trkpt>
      <trkpt lat="47.89057" lon="7.11949">
        <ele>1067</ele>
        <time>2014-06-22T10:33:10Z</time>
      </trkpt>
      <trkpt lat="47.89044" lon="7.1196">
        <ele>1067</ele>
        <time>2014-06-22T10:33:21Z</time>
      </trkpt>
      <trkpt lat="47.89034" lon="7.11971">
        <ele>1066</ele>
        <time>2014-06-22T10:33:33Z</time>
      </trkpt>
      <trkpt lat="47.89031" lon="7.11974">
        <ele>1066</ele>
        <time>2014-06-22T10:33:36Z</time>
      </trkpt>
      <trkpt lat="47.89028" lon="7.11976">
        <ele>1066</ele>
        <time>2014-06-22T10:33:38Z</time>
      </trkpt>
      <trkpt lat="47.89019" lon="7.11978">
        <ele>1066</ele>
        <time>2014-06-22T10:33:47Z</time>
      </trkpt>
      <trkpt lat="47.89011" lon="7.11986">
        <ele>1065</ele>
        <time>2014-06-22T10:33:59Z</time>
      </trkpt>
      <trkpt lat="47.89006" lon="7.11992">
        <ele>1064</ele>
        <time>2014-06-22T10:34:05Z</time>
      </trkpt>
      <trkpt lat="47.89004" lon="7.12">
        <ele>1063</ele>
        <time>2014-06-22T10:34:15Z</time>
      </trkpt>
      <trkpt lat="47.89001" lon="7.12014">
        <ele>1058</ele>
        <time>2014-06-22T10:34:27Z</time>
      </trkpt>
      <trkpt lat="47.8899" lon="7.12023">
        <ele>1059</ele>
        <time>2014-06-22T10:34:36Z</time>
      </trkpt>
      <trkpt lat="47.88985" lon="7.12028">
        <ele>1058</ele>
        <time>2014-06-22T10:34:50Z</time>
      </trkpt>
      <trkpt lat="47.88983" lon="7.1203">
        <ele>1058</ele>
        <time>2014-06-22T10:34:58Z</time>
      </trkpt>
      <trkpt lat="47.8897" lon="7.12038">
        <ele>1057</ele>
        <time>2014-06-22T10:35:10Z</time>
      </trkpt>
      <trkpt lat="47.88966" lon="7.12048">
        <ele>1057</ele>
        <time>2014-06-22T10:35:21Z</time>
      </trkpt>
      <trkpt lat="47.88958" lon="7.12056">
        <ele>1056</ele>
        <time>2014-06-22T10:35:34Z</time>
      </trkpt>
      <trkpt lat="47.88939" lon="7.12081">
        <ele>1056</ele>
        <time>2014-06-22T10:35:49Z</time>
      </trkpt>
      <trkpt lat="47.88924" lon="7.12088">
        <ele>1049</ele>
        <time>2014-06-22T10:36:00Z</time>
      </trkpt>
      <trkpt lat="47.88921" lon="7.12091">
        <ele>1050</ele>
        <time>2014-06-22T10:36:06Z</time>
      </trkpt>
      <trkpt lat="47.88911" lon="7.12099">
        <ele>1052</ele>
        <time>2014-06-22T10:36:11Z</time>
      </trkpt>
      <trkpt lat="47.88901" lon="7.12115">
        <ele>1050</ele>
        <time>2014-06-22T10:36:21Z</time>
      </trkpt>
      <trkpt lat="47.8889" lon="7.12127">
        <ele>1048</ele>
        <time>2014-06-22T10:36:30Z</time>
      </trkpt>
      <trkpt lat="47.88879" lon="7.12143">
        <ele>1047</ele>
        <time>2014-06-22T10:36:40Z</time>
      </trkpt>
      <trkpt lat="47.88866" lon="7.12162">
        <ele>1048</ele>
        <time>2014-06-22T10:36:56Z</time>
      </trkpt>
      <trkpt lat="47.88859" lon="7.12186">
        <ele>1035</ele>
        <time>2014-06-22T10:37:10Z</time>
      </trkpt>
      <trkpt lat="47.88849" lon="7.12209">
        <ele>1033</ele>
        <time>2014-06-22T10:37:19Z</time>
      </trkpt>
      <trkpt lat="47.88846" lon="7.12213">
        <ele>1033</ele>
        <time>2014-06-22T10:37:21Z</time>
      </trkpt>
      <trkpt lat="47.88836" lon="7.12229">
        <ele>1032</ele>
        <time>2014-06-22T10:37:32Z</time>
      </trkpt>
      <trkpt lat="47.8883" lon="7.12249">
        <ele>1035</ele>
        <time>2014-06-22T10:37:43Z</time>
      </trkpt>
      <trkpt lat="47.88827" lon="7.12262">
        <ele>1033</ele>
        <time>2014-06-22T10:37:51Z</time>
      </trkpt>
      <trkpt lat="47.88825" lon="7.12283">
        <ele>1033</ele>
        <time>2014-06-22T10:38:01Z</time>
      </trkpt>
      <trkpt lat="47.88822" lon="7.12291">
        <ele>1032</ele>
        <time>2014-06-22T10:38:05Z</time>
      </trkpt>
      <trkpt lat="47.88814" lon="7.12309">
        <ele>1031</ele>
        <time>2014-06-22T10:38:14Z</time>
      </trkpt>
      <trkpt lat="47.8881" lon="7.12332">
        <ele>1029</ele>
        <time>2014-06-22T10:38:24Z</time>
      </trkpt>
      <trkpt lat="47.88809" lon="7.12343">
        <ele>1022</ele>
        <time>2014-06-22T10:38:28Z</time>
      </trkpt>
      <trkpt lat="47.88804" lon="7.12355">
        <ele>1022</ele>
        <time>2014-06-22T10:38:39Z</time>
      </trkpt>
      <trkpt lat="47.88803" lon="7.1237">
        <ele>1021</ele>
        <time>2014-06-22T10:38:45Z</time>
      </trkpt>
      <trkpt lat="47.88799" lon="7.12388">
        <ele>1020</ele>
        <time>2014-06-22T10:38:55Z</time>
      </trkpt>
      <trkpt lat="47.88795" lon="7.12411">
        <ele>1018</ele>
        <time>2014-06-22T10:39:07Z</time>
      </trkpt>
      <trkpt lat="47.88789" lon="7.12427">
        <ele>1010</ele>
        <time>2014-06-22T10:39:17Z</time>
      </trkpt>
      <trkpt lat="47.88779" lon="7.12453">
        <ele>1008</ele>
        <time>2014-06-22T10:39:29Z</time>
      </trkpt>
      <trkpt lat="47.88768" lon="7.12468">
        <ele>1007</ele>
        <time>2014-06-22T10:39:39Z</time>
      </trkpt>
      <trkpt lat="47.88759" lon="7.12479">
        <ele>1005</ele>
        <time>2014-06-22T10:39:49Z</time>
      </trkpt>
      <trkpt lat="47.88745" lon="7.12486">
        <ele>1002</ele>
        <time>2014-06-22T10:40:01Z</time>
      </trkpt>
      <trkpt lat="47.88744" lon="7.12494">
        <ele>1002</ele>
        <time>2014-06-22T10:40:04Z</time>
      </trkpt>
      <trkpt lat="47.88757" lon="7.12514">
        <ele>997</ele>
        <time>2014-06-22T10:40:14Z</time>
      </trkpt>
      <trkpt lat="47.88759" lon="7.12524">
        <ele>995</ele>
        <time>2014-06-22T10:40:18Z</time>
      </trkpt>
      <trkpt lat="47.8876" lon="7.12533">
        <ele>994</ele>
        <time>2014-06-22T10:40:27Z</time>
      </trkpt>
      <trkpt lat="47.88761" lon="7.12547">
        <ele>992</ele>
        <time>2014-06-22T10:40:36Z</time>
      </trkpt>
      <trkpt lat="47.88762" lon="7.12553">
        <ele>992</ele>
        <time>2014-06-22T10:40:38Z</time>
      </trkpt>
      <trkpt lat="47.88768" lon="7.12567">
        <ele>990</ele>
        <time>2014-06-22T10:40:47Z</time>
      </trkpt>
      <trkpt lat="47.88783" lon="7.12581">
        <ele>990</ele>
        <time>2014-06-22T10:41:01Z</time>
      </trkpt>
      <trkpt lat="47.88799" lon="7.12583">
        <ele>989</ele>
        <time>2014-06-22T10:41:12Z</time>
      </trkpt>
      <trkpt lat="47.88816" lon="7.12587">
        <ele>978</ele>
        <time>2014-06-22T10:41:20Z</time>
      </trkpt>
      <trkpt lat="47.88819" lon="7.12587">
        <ele>978</ele>
        <time>2014-06-22T10:41:22Z</time>
      </trkpt>
      <trkpt lat="47.88827" lon="7.12576">
        <ele>985</ele>
        <time>2014-06-22T10:41:32Z</time>
      </trkpt>
      <trkpt lat="47.88828" lon="7.1258">
        <ele>984</ele>
        <time>2014-06-22T10:41:53Z</time>
      </trkpt>
      <trkpt lat="47.88827" lon="7.12586">
        <ele>979</ele>
        <time>2014-06-22T10:41:55Z</time>
      </trkpt>
      <trkpt lat="47.88822" lon="7.12601">
        <ele>977</ele>
        <time>2014-06-22T10:42:06Z</time>
      </trkpt>
      <trkpt lat="47.88819" lon="7.126">
        <ele>977</ele>
        <time>2014-06-22T10:42:25Z</time>
      </trkpt>
      <trkpt lat="47.88815" lon="7.126">
        <ele>977</ele>
        <time>2014-06-22T10:43:02Z</time>
      </trkpt>
      <trkpt lat="47.88812" lon="7.12601">
        <ele>976</ele>
        <time>2014-06-22T10:43:05Z</time>
      </trkpt>
      <trkpt lat="47.88803" lon="7.12606">
        <ele>976</ele>
        <time>2014-06-22T10:43:18Z</time>
      </trkpt>
      <trkpt lat="47.88796" lon="7.12608">
        <ele>976</ele>
        <time>2014-06-22T10:43:28Z</time>
      </trkpt>
      <trkpt lat="47.88775" lon="7.1262">
        <ele>976</ele>
        <time>2014-06-22T10:43:40Z</time>
      </trkpt>
      <trkpt lat="47.88756" lon="7.12636">
        <ele>974</ele>
        <time>2014-06-22T10:43:49Z</time>
      </trkpt>
      <trkpt lat="47.88749" lon="7.12643">
        <ele>973</ele>
        <time>2014-06-22T10:43:53Z</time>
      </trkpt>
      <trkpt lat="47.88738" lon="7.12659">
        <ele>971</ele>
        <time>2014-06-22T10:44:02Z</time>
      </trkpt>
      <trkpt lat="47.88735" lon="7.12662">
        <ele>971</ele>
        <time>2014-06-22T10:44:04Z</time>
      </trkpt>
      <trkpt lat="47.88728" lon="7.12682">
        <ele>963</ele>
        <time>2014-06-22T10:44:15Z</time>
      </trkpt>
      <trkpt lat="47.88718" lon="7.12697">
        <ele>960</ele>
        <time>2014-06-22T10:44:25Z</time>
      </trkpt>
      <trkpt lat="47.88715" lon="7.127">
        <ele>960</ele>
        <time>2014-06-22T10:44:27Z</time>
      </trkpt>
      <trkpt lat="47.88705" lon="7.12712">
        <ele>958</ele>
        <time>2014-06-22T10:44:37Z</time>
      </trkpt>
      <trkpt lat="47.88702" lon="7.12716">
        <ele>958</ele>
        <time>2014-06-22T10:44:39Z</time>
      </trkpt>
      <trkpt lat="47.887" lon="7.1272">
        <ele>957</ele>
        <time>2014-06-22T10:44:41Z</time>
      </trkpt>
      <trkpt lat="47.88698" lon="7.12724">
        <ele>957</ele>
        <time>2014-06-22T10:44:43Z</time>
      </trkpt>
      <trkpt lat="47.88687" lon="7.12742">
        <ele>955</ele>
        <time>2014-06-22T10:44:52Z</time>
      </trkpt>
      <trkpt lat="47.88686" lon="7.12751">
        <ele>951</ele>
        <time>2014-06-22T10:44:58Z</time>
      </trkpt>
      <trkpt lat="47.88692" lon="7.12775">
        <ele>952</ele>
        <time>2014-06-22T10:45:09Z</time>
      </trkpt>
      <trkpt lat="47.88691" lon="7.12779">
        <ele>952</ele>
        <time>2014-06-22T10:45:11Z</time>
      </trkpt>
      <trkpt lat="47.88687" lon="7.12801">
        <ele>953</ele>
        <time>2014-06-22T10:45:23Z</time>
      </trkpt>
      <trkpt lat="47.88684" lon="7.12805">
        <ele>953</ele>
        <time>2014-06-22T10:45:26Z</time>
      </trkpt>
      <trkpt lat="47.88679" lon="7.12809">
        <ele>953</ele>
        <time>2014-06-22T10:45:30Z</time>
      </trkpt>
      <trkpt lat="47.88675" lon="7.12815">
        <ele>954</ele>
        <time>2014-06-22T10:45:49Z</time>
      </trkpt>
      <trkpt lat="47.88672" lon="7.12817">
        <ele>954</ele>
        <time>2014-06-22T10:46:02Z</time>
      </trkpt>
      <trkpt lat="47.88666" lon="7.12819">
        <ele>953</ele>
        <time>2014-06-22T10:46:08Z</time>
      </trkpt>
      <trkpt lat="47.88663" lon="7.12821">
        <ele>953</ele>
        <time>2014-06-22T10:46:10Z</time>
      </trkpt>
      <trkpt lat="47.88658" lon="7.12826">
        <ele>954</ele>
        <time>2014-06-22T10:46:14Z</time>
      </trkpt>
      <trkpt lat="47.88646" lon="7.12835">
        <ele>960</ele>
        <time>2014-06-22T10:46:26Z</time>
      </trkpt>
      <trkpt lat="47.88636" lon="7.12844">
        <ele>961</ele>
        <time>2014-06-22T10:46:35Z</time>
      </trkpt>
      <trkpt lat="47.88623" lon="7.12849">
        <ele>962</ele>
        <time>2014-06-22T10:46:45Z</time>
      </trkpt>
      <trkpt lat="47.88617" lon="7.12848">
        <ele>961</ele>
        <time>2014-06-22T10:46:49Z</time>
      </trkpt>
      <trkpt lat="47.88604" lon="7.1285">
        <ele>961</ele>
        <time>2014-06-22T10:47:00Z</time>
      </trkpt>
      <trkpt lat="47.88591" lon="7.12853">
        <ele>961</ele>
        <time>2014-06-22T10:47:11Z</time>
      </trkpt>
      <trkpt lat="47.88581" lon="7.12851">
        <ele>958</ele>
        <time>2014-06-22T10:47:22Z</time>
      </trkpt>
      <trkpt lat="47.88566" lon="7.12862">
        <ele>961</ele>
        <time>2014-06-22T10:47:34Z</time>
      </trkpt>
      <trkpt lat="47.88559" lon="7.12868">
        <ele>961</ele>
        <time>2014-06-22T10:47:40Z</time>
      </trkpt>
      <trkpt lat="47.88552" lon="7.1287">
        <ele>961</ele>
        <time>2014-06-22T10:47:45Z</time>
      </trkpt>
      <trkpt lat="47.8854" lon="7.12866">
        <ele>960</ele>
        <time>2014-06-22T10:47:55Z</time>
      </trkpt>
      <trkpt lat="47.88533" lon="7.12869">
        <ele>960</ele>
        <time>2014-06-22T10:48:04Z</time>
      </trkpt>
      <trkpt lat="47.88522" lon="7.12873">
        <ele>960</ele>
        <time>2014-06-22T10:48:17Z</time>
      </trkpt>
      <trkpt lat="47.88519" lon="7.12876">
        <ele>961</ele>
        <time>2014-06-22T10:48:20Z</time>
      </trkpt>
      <trkpt lat="47.88507" lon="7.12875">
        <ele>960</ele>
        <time>2014-06-22T10:48:29Z</time>
      </trkpt>
      <trkpt lat="47.88499" lon="7.1289">
        <ele>952</ele>
        <time>2014-06-22T10:48:41Z</time>
      </trkpt>
      <trkpt lat="47.8848" lon="7.12909">
        <ele>954</ele>
        <time>2014-06-22T10:48:52Z</time>
      </trkpt>
      <trkpt lat="47.88477" lon="7.12911">
        <ele>953</ele>
        <time>2014-06-22T10:48:55Z</time>
      </trkpt>
      <trkpt lat="47.88466" lon="7.12922">
        <ele>962</ele>
        <time>2014-06-22T10:49:05Z</time>
      </trkpt>
      <trkpt lat="47.88464" lon="7.12922">
        <ele>962</ele>
        <time>2014-06-22T10:49:08Z</time>
      </trkpt>
      <trkpt lat="47.88457" lon="7.12917">
        <ele>948</ele>
        <time>2014-06-22T10:49:19Z</time>
      </trkpt>
      <trkpt lat="47.88449" lon="7.12916">
        <ele>946</ele>
        <time>2014-06-22T10:49:24Z</time>
      </trkpt>
      <trkpt lat="47.88435" lon="7.12937">
        <ele>957</ele>
        <time>2014-06-22T10:49:35Z</time>
      </trkpt>
      <trkpt lat="47.88427" lon="7.12935">
        <ele>955</ele>
        <time>2014-06-22T10:49:47Z</time>
      </trkpt>
      <trkpt lat="47.88424" lon="7.12936">
        <ele>955</ele>
        <time>2014-06-22T10:49:50Z</time>
      </trkpt>
      <trkpt lat="47.88421" lon="7.12938">
        <ele>955</ele>
        <time>2014-06-22T10:49:53Z</time>
      </trkpt>
      <trkpt lat="47.88405" lon="7.12945">
        <ele>948</ele>
        <time>2014-06-22T10:50:04Z</time>
      </trkpt>
      <trkpt lat="47.88398" lon="7.12947">
        <ele>948</ele>
        <time>2014-06-22T10:50:09Z</time>
      </trkpt>
      <trkpt lat="47.88387" lon="7.12941">
        <ele>947</ele>
        <time>2014-06-22T10:50:23Z</time>
      </trkpt>
      <trkpt lat="47.88377" lon="7.12937">
        <ele>947</ele>
        <time>2014-06-22T10:50:33Z</time>
      </trkpt>
      <trkpt lat="47.88364" lon="7.12933">
        <ele>945</ele>
        <time>2014-06-22T10:50:43Z</time>
      </trkpt>
      <trkpt lat="47.88352" lon="7.12931">
        <ele>944</ele>
        <time>2014-06-22T10:50:54Z</time>
      </trkpt>
      <trkpt lat="47.88347" lon="7.12923">
        <ele>942</ele>
        <time>2014-06-22T10:50:58Z</time>
      </trkpt>
      <trkpt lat="47.88341" lon="7.1292">
        <ele>940</ele>
        <time>2014-06-22T10:51:03Z</time>
      </trkpt>
      <trkpt lat="47.88335" lon="7.12924">
        <ele>940</ele>
        <time>2014-06-22T10:51:07Z</time>
      </trkpt>
      <trkpt lat="47.88322" lon="7.12918">
        <ele>938</ele>
        <time>2014-06-22T10:51:17Z</time>
      </trkpt>
      <trkpt lat="47.88319" lon="7.12914">
        <ele>931</ele>
        <time>2014-06-22T10:51:19Z</time>
      </trkpt>
      <trkpt lat="47.88303" lon="7.12904">
        <ele>927</ele>
        <time>2014-06-22T10:51:29Z</time>
      </trkpt>
      <trkpt lat="47.88292" lon="7.12893">
        <ele>925</ele>
        <time>2014-06-22T10:51:39Z</time>
      </trkpt>
      <trkpt lat="47.88279" lon="7.12894">
        <ele>924</ele>
        <time>2014-06-22T10:51:49Z</time>
      </trkpt>
      <trkpt lat="47.88276" lon="7.12894">
        <ele>924</ele>
        <time>2014-06-22T10:51:52Z</time>
      </trkpt>
      <trkpt lat="47.88261" lon="7.12893">
        <ele>924</ele>
        <time>2014-06-22T10:52:03Z</time>
      </trkpt>
      <trkpt lat="47.88256" lon="7.12888">
        <ele>924</ele>
        <time>2014-06-22T10:52:09Z</time>
      </trkpt>
      <trkpt lat="47.88244" lon="7.12884">
        <ele>919</ele>
        <time>2014-06-22T10:52:20Z</time>
      </trkpt>
      <trkpt lat="47.88238" lon="7.12886">
        <ele>919</ele>
        <time>2014-06-22T10:52:24Z</time>
      </trkpt>
      <trkpt lat="47.88232" lon="7.12884">
        <ele>918</ele>
        <time>2014-06-22T10:52:29Z</time>
      </trkpt>
      <trkpt lat="47.88222" lon="7.12871">
        <ele>916</ele>
        <time>2014-06-22T10:52:39Z</time>
      </trkpt>
      <trkpt lat="47.88215" lon="7.12868">
        <ele>916</ele>
        <time>2014-06-22T10:52:43Z</time>
      </trkpt>
      <trkpt lat="47.88205" lon="7.12869">
        <ele>916</ele>
        <time>2014-06-22T10:52:49Z</time>
      </trkpt>
      <trkpt lat="47.88198" lon="7.12862">
        <ele>915</ele>
        <time>2014-06-22T10:53:01Z</time>
      </trkpt>
      <trkpt lat="47.88194" lon="7.1286">
        <ele>914</ele>
        <time>2014-06-22T10:53:05Z</time>
      </trkpt>
      <trkpt lat="47.88178" lon="7.12869">
        <ele>915</ele>
        <time>2014-06-22T10:53:17Z</time>
      </trkpt>
      <trkpt lat="47.88169" lon="7.12854">
        <ele>912</ele>
        <time>2014-06-22T10:53:28Z</time>
      </trkpt>
      <trkpt lat="47.88165" lon="7.12854">
        <ele>908</ele>
        <time>2014-06-22T10:53:30Z</time>
      </trkpt>
      <trkpt lat="47.88149" lon="7.12858">
        <ele>908</ele>
        <time>2014-06-22T10:53:40Z</time>
      </trkpt>
      <trkpt lat="47.8814" lon="7.12867">
        <ele>909</ele>
        <time>2014-06-22T10:53:47Z</time>
      </trkpt>
      <trkpt lat="47.88131" lon="7.12878">
        <ele>909</ele>
        <time>2014-06-22T10:53:57Z</time>
      </trkpt>
      <trkpt lat="47.88121" lon="7.12892">
        <ele>909</ele>
        <time>2014-06-22T10:54:07Z</time>
      </trkpt>
      <trkpt lat="47.88119" lon="7.12893">
        <ele>909</ele>
        <time>2014-06-22T10:54:09Z</time>
      </trkpt>
      <trkpt lat="47.88113" lon="7.12893">
        <ele>908</ele>
        <time>2014-06-22T10:54:13Z</time>
      </trkpt>
      <trkpt lat="47.88109" lon="7.12892">
        <ele>908</ele>
        <time>2014-06-22T10:54:15Z</time>
      </trkpt>
      <trkpt lat="47.88106" lon="7.12889">
        <ele>908</ele>
        <time>2014-06-22T10:54:18Z</time>
      </trkpt>
      <trkpt lat="47.88093" lon="7.12896">
        <ele>908</ele>
        <time>2014-06-22T10:54:30Z</time>
      </trkpt>
      <trkpt lat="47.88085" lon="7.12903">
        <ele>907</ele>
        <time>2014-06-22T10:54:40Z</time>
      </trkpt>
      <trkpt lat="47.88076" lon="7.12906">
        <ele>904</ele>
        <time>2014-06-22T10:54:51Z</time>
      </trkpt>
      <trkpt lat="47.88074" lon="7.12904">
        <ele>904</ele>
        <time>2014-06-22T10:55:17Z</time>
      </trkpt>
      <trkpt lat="47.88071" lon="7.12904">
        <ele>903</ele>
        <time>2014-06-22T10:55:22Z</time>
      </trkpt>
      <trkpt lat="47.88061" lon="7.12906">
        <ele>902</ele>
        <time>2014-06-22T10:55:32Z</time>
      </trkpt>
      <trkpt lat="47.88053" lon="7.12914">
        <ele>902</ele>
        <time>2014-06-22T10:55:40Z</time>
      </trkpt>
      <trkpt lat="47.88044" lon="7.12909">
        <ele>901</ele>
        <time>2014-06-22T10:55:52Z</time>
      </trkpt>
      <trkpt lat="47.88042" lon="7.12906">
        <ele>900</ele>
        <time>2014-06-22T10:55:55Z</time>
      </trkpt>
      <trkpt lat="47.88038" lon="7.12906">
        <ele>900</ele>
        <time>2014-06-22T10:55:58Z</time>
      </trkpt>
      <trkpt lat="47.88036" lon="7.12905">
        <ele>900</ele>
        <time>2014-06-22T10:56:00Z</time>
      </trkpt>
      <trkpt lat="47.88029" lon="7.12896">
        <ele>900</ele>
        <time>2014-06-22T10:56:11Z</time>
      </trkpt>
      <trkpt lat="47.88019" lon="7.12886">
        <ele>899</ele>
        <time>2014-06-22T10:56:20Z</time>
      </trkpt>
      <trkpt lat="47.88017" lon="7.12885">
        <ele>899</ele>
        <time>2014-06-22T10:56:29Z</time>
      </trkpt>
      <trkpt lat="47.87999" lon="7.12879">
        <ele>889</ele>
        <time>2014-06-22T10:56:40Z</time>
      </trkpt>
      <trkpt lat="47.87997" lon="7.12877">
        <ele>889</ele>
        <time>2014-06-22T10:56:42Z</time>
      </trkpt>
      <trkpt lat="47.87983" lon="7.12869">
        <ele>888</ele>
        <time>2014-06-22T10:56:51Z</time>
      </trkpt>
      <trkpt lat="47.8798" lon="7.12867">
        <ele>888</ele>
        <time>2014-06-22T10:56:53Z</time>
      </trkpt>
      <trkpt lat="47.87976" lon="7.12864">
        <ele>888</ele>
        <time>2014-06-22T10:56:55Z</time>
      </trkpt>
      <trkpt lat="47.87963" lon="7.12858">
        <ele>886</ele>
        <time>2014-06-22T10:57:07Z</time>
      </trkpt>
      <trkpt lat="47.87955" lon="7.12845">
        <ele>886</ele>
        <time>2014-06-22T10:57:18Z</time>
      </trkpt>
      <trkpt lat="47.87952" lon="7.12842">
        <ele>885</ele>
        <time>2014-06-22T10:57:20Z</time>
      </trkpt>
      <trkpt lat="47.8795" lon="7.12839">
        <ele>885</ele>
        <time>2014-06-22T10:57:21Z</time>
      </trkpt>
      <trkpt lat="47.87941" lon="7.12826">
        <ele>885</ele>
        <time>2014-06-22T10:57:30Z</time>
      </trkpt>
      <trkpt lat="47.87937" lon="7.12824">
        <ele>885</ele>
        <time>2014-06-22T10:57:33Z</time>
      </trkpt>
      <trkpt lat="47.87931" lon="7.1282">
        <ele>884</ele>
        <time>2014-06-22T10:57:37Z</time>
      </trkpt>
      <trkpt lat="47.87921" lon="7.12808">
        <ele>884</ele>
        <time>2014-06-22T10:57:49Z</time>
      </trkpt>
      <trkpt lat="47.87917" lon="7.12806">
        <ele>876</ele>
        <time>2014-06-22T10:57:51Z</time>
      </trkpt>
      <trkpt lat="47.87897" lon="7.12799">
        <ele>874</ele>
        <time>2014-06-22T10:58:03Z</time>
      </trkpt>
      <trkpt lat="47.87883" lon="7.1279">
        <ele>873</ele>
        <time>2014-06-22T10:58:13Z</time>
      </trkpt>
      <trkpt lat="47.87872" lon="7.12781">
        <ele>872</ele>
        <time>2014-06-22T10:58:24Z</time>
      </trkpt>
      <trkpt lat="47.8787" lon="7.12777">
        <ele>872</ele>
        <time>2014-06-22T10:58:28Z</time>
      </trkpt>
      <trkpt lat="47.87861" lon="7.12774">
        <ele>872</ele>
        <time>2014-06-22T10:58:41Z</time>
      </trkpt>
      <trkpt lat="47.87857" lon="7.12773">
        <ele>871</ele>
        <time>2014-06-22T10:58:46Z</time>
      </trkpt>
      <trkpt lat="47.87836" lon="7.12765">
        <ele>870</ele>
        <time>2014-06-22T10:58:59Z</time>
      </trkpt>
      <trkpt lat="47.87833" lon="7.12762">
        <ele>863</ele>
        <time>2014-06-22T10:59:01Z</time>
      </trkpt>
      <trkpt lat="47.8783" lon="7.1276">
        <ele>864</ele>
        <time>2014-06-22T10:59:03Z</time>
      </trkpt>
      <trkpt lat="47.87819" lon="7.12755">
        <ele>862</ele>
        <time>2014-06-22T10:59:13Z</time>
      </trkpt>
      <trkpt lat="47.87815" lon="7.12755">
        <ele>860</ele>
        <time>2014-06-22T10:59:16Z</time>
      </trkpt>
      <trkpt lat="47.87805" lon="7.12748">
        <ele>860</ele>
        <time>2014-06-22T10:59:28Z</time>
      </trkpt>
      <trkpt lat="47.87785" lon="7.12744">
        <ele>857</ele>
        <time>2014-06-22T10:59:38Z</time>
      </trkpt>
      <trkpt lat="47.87781" lon="7.12743">
        <ele>856</ele>
        <time>2014-06-22T10:59:40Z</time>
      </trkpt>
      <trkpt lat="47.8777" lon="7.12738">
        <ele>854</ele>
        <time>2014-06-22T10:59:49Z</time>
      </trkpt>
      <trkpt lat="47.87758" lon="7.12729">
        <ele>853</ele>
        <time>2014-06-22T11:00:01Z</time>
      </trkpt>
      <trkpt lat="47.87755" lon="7.12731">
        <ele>853</ele>
        <time>2014-06-22T11:00:04Z</time>
      </trkpt>
      <trkpt lat="47.87736" lon="7.12734">
        <ele>847</ele>
        <time>2014-06-22T11:00:17Z</time>
      </trkpt>
      <trkpt lat="47.87725" lon="7.12735">
        <ele>846</ele>
        <time>2014-06-22T11:00:28Z</time>
      </trkpt>
      <trkpt lat="47.87724" lon="7.12739">
        <ele>846</ele>
        <time>2014-06-22T11:00:31Z</time>
      </trkpt>
      <trkpt lat="47.87721" lon="7.12743">
        <ele>846</ele>
        <time>2014-06-22T11:00:34Z</time>
      </trkpt>
      <trkpt lat="47.87711" lon="7.12754">
        <ele>841</ele>
        <time>2014-06-22T11:00:45Z</time>
      </trkpt>
      <trkpt lat="47.87698" lon="7.12758">
        <ele>840</ele>
        <time>2014-06-22T11:00:56Z</time>
      </trkpt>
      <trkpt lat="47.87687" lon="7.12762">
        <ele>840</ele>
        <time>2014-06-22T11:01:08Z</time>
      </trkpt>
      <trkpt lat="47.87685" lon="7.12759">
        <ele>840</ele>
        <time>2014-06-22T11:01:16Z</time>
      </trkpt>
      <trkpt lat="47.87675" lon="7.12761">
        <ele>841</ele>
        <time>2014-06-22T11:01:28Z</time>
      </trkpt>
      <trkpt lat="47.87658" lon="7.12756">
        <ele>838</ele>
        <time>2014-06-22T11:01:40Z</time>
      </trkpt>
      <trkpt lat="47.87646" lon="7.12748">
        <ele>838</ele>
        <time>2014-06-22T11:01:53Z</time>
      </trkpt>
      <trkpt lat="47.87629" lon="7.12747">
        <ele>836</ele>
        <time>2014-06-22T11:02:02Z</time>
      </trkpt>
      <trkpt lat="47.87623" lon="7.12742">
        <ele>835</ele>
        <time>2014-06-22T11:02:06Z</time>
      </trkpt>
      <trkpt lat="47.87616" lon="7.12718">
        <ele>834</ele>
        <time>2014-06-22T11:02:18Z</time>
      </trkpt>
      <trkpt lat="47.87614" lon="7.12715">
        <ele>834</ele>
        <time>2014-06-22T11:02:23Z</time>
      </trkpt>
      <trkpt lat="47.87611" lon="7.12714">
        <ele>834</ele>
        <time>2014-06-22T11:02:27Z</time>
      </trkpt>
      <trkpt lat="47.876" lon="7.12712">
        <ele>833</ele>
        <time>2014-06-22T11:02:38Z</time>
      </trkpt>
      <trkpt lat="47.87585" lon="7.12711">
        <ele>832</ele>
        <time>2014-06-22T11:02:48Z</time>
      </trkpt>
      <trkpt lat="47.87573" lon="7.1272">
        <ele>827</ele>
        <time>2014-06-22T11:02:57Z</time>
      </trkpt>
      <trkpt lat="47.87561" lon="7.12736">
        <ele>827</ele>
        <time>2014-06-22T11:03:10Z</time>
      </trkpt>
      <trkpt lat="47.87553" lon="7.12746">
        <ele>827</ele>
        <time>2014-06-22T11:03:19Z</time>
      </trkpt>
      <trkpt lat="47.87544" lon="7.1276">
        <ele>825</ele>
        <time>2014-06-22T11:03:30Z</time>
      </trkpt>
      <trkpt lat="47.87532" lon="7.12774">
        <ele>825</ele>
        <time>2014-06-22T11:03:42Z</time>
      </trkpt>
      <trkpt lat="47.87522" lon="7.12783">
        <ele>824</ele>
        <time>2014-06-22T11:04:23Z</time>
      </trkpt>
      <trkpt lat="47.87525" lon="7.12783">
        <ele>824</ele>
        <time>2014-06-22T11:12:48Z</time>
      </trkpt>
      <trkpt lat="47.87536" lon="7.12773">
        <ele>825</ele>
        <time>2014-06-22T11:13:00Z</time>
      </trkpt>
      <trkpt lat="47.87546" lon="7.1276">
        <ele>825</ele>
        <time>2014-06-22T11:13:12Z</time>
      </trkpt>
      <trkpt lat="47.87545" lon="7.12748">
        <ele>827</ele>
        <time>2014-06-22T11:13:22Z</time>
      </trkpt>
      <trkpt lat="47.87537" lon="7.12742">
        <ele>827</ele>
        <time>2014-06-22T11:13:32Z</time>
      </trkpt>
      <trkpt lat="47.87535" lon="7.12731">
        <ele>827</ele>
        <time>2014-06-22T11:13:45Z</time>
      </trkpt>
      <trkpt lat="47.87533" lon="7.12727">
        <ele>827</ele>
        <time>2014-06-22T11:13:47Z</time>
      </trkpt>
      <trkpt lat="47.87531" lon="7.12723">
        <ele>827</ele>
        <time>2014-06-22T11:13:50Z</time>
      </trkpt>
      <trkpt lat="47.87523" lon="7.12718">
        <ele>827</ele>
        <time>2014-06-22T11:14:02Z</time>
      </trkpt>
      <trkpt lat="47.87515" lon="7.1272">
        <ele>827</ele>
        <time>2014-06-22T11:14:15Z</time>
      </trkpt>
      <trkpt lat="47.87507" lon="7.12714">
        <ele>826</ele>
        <time>2014-06-22T11:14:27Z</time>
      </trkpt>
      <trkpt lat="47.87498" lon="7.12708">
        <ele>830</ele>
        <time>2014-06-22T11:14:35Z</time>
      </trkpt>
      <trkpt lat="47.87493" lon="7.12702">
        <ele>830</ele>
        <time>2014-06-22T11:14:41Z</time>
      </trkpt>
      <trkpt lat="47.87484" lon="7.12697">
        <ele>831</ele>
        <time>2014-06-22T11:14:51Z</time>
      </trkpt>
      <trkpt lat="47.87475" lon="7.12688">
        <ele>831</ele>
        <time>2014-06-22T11:15:00Z</time>
      </trkpt>
      <trkpt lat="47.87459" lon="7.12684">
        <ele>832</ele>
        <time>2014-06-22T11:15:11Z</time>
      </trkpt>
      <trkpt lat="47.87456" lon="7.12686">
        <ele>833</ele>
        <time>2014-06-22T11:15:13Z</time>
      </trkpt>
      <trkpt lat="47.87453" lon="7.12686">
        <ele>833</ele>
        <time>2014-06-22T11:15:16Z</time>
      </trkpt>
      <trkpt lat="47.87443" lon="7.12682">
        <ele>834</ele>
        <time>2014-06-22T11:15:25Z</time>
      </trkpt>
      <trkpt lat="47.87429" lon="7.12683">
        <ele>835</ele>
        <time>2014-06-22T11:15:36Z</time>
      </trkpt>
      <trkpt lat="47.87418" lon="7.12681">
        <ele>836</ele>
        <time>2014-06-22T11:15:45Z</time>
      </trkpt>
      <trkpt lat="47.87409" lon="7.12673">
        <ele>840</ele>
        <time>2014-06-22T11:15:57Z</time>
      </trkpt>
      <trkpt lat="47.87406" lon="7.12669">
        <ele>840</ele>
        <time>2014-06-22T11:15:59Z</time>
      </trkpt>
      <trkpt lat="47.87396" lon="7.12663">
        <ele>835</ele>
        <time>2014-06-22T11:16:05Z</time>
      </trkpt>
      <trkpt lat="47.87395" lon="7.12659">
        <ele>835</ele>
        <time>2014-06-22T11:16:10Z</time>
      </trkpt>
      <trkpt lat="47.87383" lon="7.12655">
        <ele>835</ele>
        <time>2014-06-22T11:16:20Z</time>
      </trkpt>
      <trkpt lat="47.87367" lon="7.12649">
        <ele>835</ele>
        <time>2014-06-22T11:16:34Z</time>
      </trkpt>
      <trkpt lat="47.87364" lon="7.12648">
        <ele>835</ele>
        <time>2014-06-22T11:16:36Z</time>
      </trkpt>
      <trkpt lat="47.87361" lon="7.12646">
        <ele>835</ele>
        <time>2014-06-22T11:16:39Z</time>
      </trkpt>
      <trkpt lat="47.87358" lon="7.12645">
        <ele>835</ele>
        <time>2014-06-22T11:16:44Z</time>
      </trkpt>
      <trkpt lat="47.87352" lon="7.12651">
        <ele>837</ele>
        <time>2014-06-22T11:16:49Z</time>
      </trkpt>
      <trkpt lat="47.87342" lon="7.12663">
        <ele>840</ele>
        <time>2014-06-22T11:16:59Z</time>
      </trkpt>
      <trkpt lat="47.87335" lon="7.1268">
        <ele>845</ele>
        <time>2014-06-22T11:17:07Z</time>
      </trkpt>
      <trkpt lat="47.87327" lon="7.12704">
        <ele>851</ele>
        <time>2014-06-22T11:17:20Z</time>
      </trkpt>
      <trkpt lat="47.87323" lon="7.1271">
        <ele>851</ele>
        <time>2014-06-22T11:17:25Z</time>
      </trkpt>
      <trkpt lat="47.87323" lon="7.12714">
        <ele>852</ele>
        <time>2014-06-22T11:17:28Z</time>
      </trkpt>
      <trkpt lat="47.87323" lon="7.12728">
        <ele>854</ele>
        <time>2014-06-22T11:17:39Z</time>
      </trkpt>
      <trkpt lat="47.87323" lon="7.12733">
        <ele>854</ele>
        <time>2014-06-22T11:17:43Z</time>
      </trkpt>
      <trkpt lat="47.87319" lon="7.12741">
        <ele>855</ele>
        <time>2014-06-22T11:17:49Z</time>
      </trkpt>
      <trkpt lat="47.87317" lon="7.12751">
        <ele>858</ele>
        <time>2014-06-22T11:17:56Z</time>
      </trkpt>
      <trkpt lat="47.87314" lon="7.12764">
        <ele>858</ele>
        <time>2014-06-22T11:18:06Z</time>
      </trkpt>
      <trkpt lat="47.87307" lon="7.12777">
        <ele>859</ele>
        <time>2014-06-22T11:18:19Z</time>
      </trkpt>
      <trkpt lat="47.87302" lon="7.1277">
        <ele>859</ele>
        <time>2014-06-22T11:18:25Z</time>
      </trkpt>
      <trkpt lat="47.87291" lon="7.12761">
        <ele>860</ele>
        <time>2014-06-22T11:18:37Z</time>
      </trkpt>
      <trkpt lat="47.87277" lon="7.12757">
        <ele>860</ele>
        <time>2014-06-22T11:18:48Z</time>
      </trkpt>
      <trkpt lat="47.87266" lon="7.12746">
        <ele>857</ele>
        <time>2014-06-22T11:18:59Z</time>
      </trkpt>
      <trkpt lat="47.87253" lon="7.12749">
        <ele>860</ele>
        <time>2014-06-22T11:19:11Z</time>
      </trkpt>
      <trkpt lat="47.87244" lon="7.12748">
        <ele>861</ele>
        <time>2014-06-22T11:19:22Z</time>
      </trkpt>
      <trkpt lat="47.87236" lon="7.12742">
        <ele>861</ele>
        <time>2014-06-22T11:19:34Z</time>
      </trkpt>
      <trkpt lat="47.87234" lon="7.12739">
        <ele>861</ele>
        <time>2014-06-22T11:19:37Z</time>
      </trkpt>
      <trkpt lat="47.87224" lon="7.12737">
        <ele>861</ele>
        <time>2014-06-22T11:19:47Z</time>
      </trkpt>
      <trkpt lat="47.87217" lon="7.12737">
        <ele>861</ele>
        <time>2014-06-22T11:19:57Z</time>
      </trkpt>
      <trkpt lat="47.87215" lon="7.12737">
        <ele>862</ele>
        <time>2014-06-22T11:19:59Z</time>
      </trkpt>
      <trkpt lat="47.87211" lon="7.12735">
        <ele>862</ele>
        <time>2014-06-22T11:20:02Z</time>
      </trkpt>
      <trkpt lat="47.87201" lon="7.12727">
        <ele>862</ele>
        <time>2014-06-22T11:20:11Z</time>
      </trkpt>
      <trkpt lat="47.87199" lon="7.12724">
        <ele>862</ele>
        <time>2014-06-22T11:20:13Z</time>
      </trkpt>
      <trkpt lat="47.87196" lon="7.12721">
        <ele>862</ele>
        <time>2014-06-22T11:20:15Z</time>
      </trkpt>
      <trkpt lat="47.87188" lon="7.12706">
        <ele>862</ele>
        <time>2014-06-22T11:20:25Z</time>
      </trkpt>
      <trkpt lat="47.87185" lon="7.12693">
        <ele>862</ele>
        <time>2014-06-22T11:20:36Z</time>
      </trkpt>
      <trkpt lat="47.87183" lon="7.12689">
        <ele>862</ele>
        <time>2014-06-22T11:20:40Z</time>
      </trkpt>
      <trkpt lat="47.87175" lon="7.1267">
        <ele>864</ele>
        <time>2014-06-22T11:20:50Z</time>
      </trkpt>
      <trkpt lat="47.87174" lon="7.12662">
        <ele>861</ele>
        <time>2014-06-22T11:20:52Z</time>
      </trkpt>
      <trkpt lat="47.87168" lon="7.12643">
        <ele>857</ele>
        <time>2014-06-22T11:21:00Z</time>
      </trkpt>
      <trkpt lat="47.87159" lon="7.12632">
        <ele>868</ele>
        <time>2014-06-22T11:21:10Z</time>
      </trkpt>
      <trkpt lat="47.87152" lon="7.12623">
        <ele>868</ele>
        <time>2014-06-22T11:21:21Z</time>
      </trkpt>
      <trkpt lat="47.87143" lon="7.12613">
        <ele>869</ele>
        <time>2014-06-22T11:21:30Z</time>
      </trkpt>
      <trkpt lat="47.87134" lon="7.126">
        <ele>869</ele>
        <time>2014-06-22T11:21:40Z</time>
      </trkpt>
      <trkpt lat="47.8713" lon="7.12594">
        <ele>870</ele>
        <time>2014-06-22T11:21:44Z</time>
      </trkpt>
      <trkpt lat="47.87128" lon="7.12591">
        <ele>870</ele>
        <time>2014-06-22T11:21:46Z</time>
      </trkpt>
      <trkpt lat="47.87125" lon="7.12579">
        <ele>870</ele>
        <time>2014-06-22T11:21:52Z</time>
      </trkpt>
      <trkpt lat="47.87116" lon="7.12566">
        <ele>871</ele>
        <time>2014-06-22T11:22:03Z</time>
      </trkpt>
      <trkpt lat="47.87113" lon="7.12563">
        <ele>872</ele>
        <time>2014-06-22T11:22:06Z</time>
      </trkpt>
      <trkpt lat="47.87107" lon="7.12556">
        <ele>873</ele>
        <time>2014-06-22T11:22:16Z</time>
      </trkpt>
      <trkpt lat="47.87105" lon="7.12553">
        <ele>873</ele>
        <time>2014-06-22T11:22:20Z</time>
      </trkpt>
      <trkpt lat="47.87098" lon="7.12541">
        <ele>873</ele>
        <time>2014-06-22T11:22:31Z</time>
      </trkpt>
      <trkpt lat="47.87097" lon="7.12537">
        <ele>873</ele>
        <time>2014-06-22T11:22:33Z</time>
      </trkpt>
      <trkpt lat="47.87094" lon="7.12533">
        <ele>874</ele>
        <time>2014-06-22T11:22:36Z</time>
      </trkpt>
      <trkpt lat="47.87091" lon="7.12515">
        <ele>877</ele>
        <time>2014-06-22T11:22:47Z</time>
      </trkpt>
      <trkpt lat="47.87093" lon="7.12499">
        <ele>877</ele>
        <time>2014-06-22T11:22:54Z</time>
      </trkpt>
      <trkpt lat="47.87082" lon="7.12491">
        <ele>886</ele>
        <time>2014-06-22T11:23:05Z</time>
      </trkpt>
      <trkpt lat="47.87079" lon="7.12489">
        <ele>887</ele>
        <time>2014-06-22T11:23:08Z</time>
      </trkpt>
      <trkpt lat="47.87079" lon="7.12485">
        <ele>887</ele>
        <time>2014-06-22T11:23:14Z</time>
      </trkpt>
      <trkpt lat="47.87074" lon="7.12475">
        <ele>887</ele>
        <time>2014-06-22T11:23:27Z</time>
      </trkpt>
      <trkpt lat="47.87072" lon="7.12471">
        <ele>887</ele>
        <time>2014-06-22T11:23:33Z</time>
      </trkpt>
      <trkpt lat="47.87066" lon="7.1247">
        <ele>888</ele>
        <time>2014-06-22T11:23:44Z</time>
      </trkpt>
      <trkpt lat="47.87064" lon="7.12467">
        <ele>888</ele>
        <time>2014-06-22T11:23:48Z</time>
      </trkpt>
      <trkpt lat="47.87054" lon="7.12462">
        <ele>889</ele>
        <time>2014-06-22T11:24:03Z</time>
      </trkpt>
      <trkpt lat="47.87048" lon="7.12445">
        <ele>889</ele>
        <time>2014-06-22T11:24:13Z</time>
      </trkpt>
      <trkpt lat="47.87047" lon="7.12441">
        <ele>889</ele>
        <time>2014-06-22T11:24:15Z</time>
      </trkpt>
      <trkpt lat="47.8704" lon="7.12426">
        <ele>889</ele>
        <time>2014-06-22T11:24:25Z</time>
      </trkpt>
      <trkpt lat="47.87035" lon="7.12409">
        <ele>884</ele>
        <time>2014-06-22T11:24:36Z</time>
      </trkpt>
      <trkpt lat="47.87034" lon="7.12405">
        <ele>884</ele>
        <time>2014-06-22T11:24:38Z</time>
      </trkpt>
      <trkpt lat="47.87031" lon="7.12403">
        <ele>885</ele>
        <time>2014-06-22T11:24:41Z</time>
      </trkpt>
      <trkpt lat="47.87023" lon="7.12392">
        <ele>885</ele>
        <time>2014-06-22T11:24:51Z</time>
      </trkpt>
      <trkpt lat="47.87019" lon="7.12386">
        <ele>885</ele>
        <time>2014-06-22T11:25:04Z</time>
      </trkpt>
      <trkpt lat="47.87014" lon="7.12381">
        <ele>885</ele>
        <time>2014-06-22T11:25:09Z</time>
      </trkpt>
      <trkpt lat="47.87012" lon="7.12373">
        <ele>884</ele>
        <time>2014-06-22T11:25:19Z</time>
      </trkpt>
      <trkpt lat="47.8701" lon="7.12369">
        <ele>884</ele>
        <time>2014-06-22T11:25:21Z</time>
      </trkpt>
      <trkpt lat="47.86992" lon="7.12353">
        <ele>888</ele>
        <time>2014-06-22T11:25:32Z</time>
      </trkpt>
      <trkpt lat="47.86985" lon="7.12347">
        <ele>888</ele>
        <time>2014-06-22T11:25:39Z</time>
      </trkpt>
      <trkpt lat="47.86974" lon="7.12335">
        <ele>887</ele>
        <time>2014-06-22T11:25:50Z</time>
      </trkpt>
      <trkpt lat="47.86969" lon="7.12328">
        <ele>880</ele>
        <time>2014-06-22T11:25:55Z</time>
      </trkpt>
      <trkpt lat="47.86961" lon="7.12313">
        <ele>878</ele>
        <time>2014-06-22T11:26:07Z</time>
      </trkpt>
      <trkpt lat="47.86945" lon="7.123">
        <ele>877</ele>
        <time>2014-06-22T11:26:19Z</time>
      </trkpt>
      <trkpt lat="47.86934" lon="7.12294">
        <ele>876</ele>
        <time>2014-06-22T11:26:30Z</time>
      </trkpt>
      <trkpt lat="47.8692" lon="7.12291">
        <ele>876</ele>
        <time>2014-06-22T11:26:41Z</time>
      </trkpt>
      <trkpt lat="47.86916" lon="7.12288">
        <ele>870</ele>
        <time>2014-06-22T11:26:43Z</time>
      </trkpt>
      <trkpt lat="47.869" lon="7.12286">
        <ele>869</ele>
        <time>2014-06-22T11:26:54Z</time>
      </trkpt>
      <trkpt lat="47.86888" lon="7.12286">
        <ele>868</ele>
        <time>2014-06-22T11:27:04Z</time>
      </trkpt>
      <trkpt lat="47.86885" lon="7.12287">
        <ele>868</ele>
        <time>2014-06-22T11:27:07Z</time>
      </trkpt>
      <trkpt lat="47.86871" lon="7.12293">
        <ele>867</ele>
        <time>2014-06-22T11:27:19Z</time>
      </trkpt>
      <trkpt lat="47.86858" lon="7.123">
        <ele>866</ele>
        <time>2014-06-22T11:27:31Z</time>
      </trkpt>
      <trkpt lat="47.86854" lon="7.12307">
        <ele>866</ele>
        <time>2014-06-22T11:27:41Z</time>
      </trkpt>
      <trkpt lat="47.86841" lon="7.12314">
        <ele>865</ele>
        <time>2014-06-22T11:27:53Z</time>
      </trkpt>
      <trkpt lat="47.86831" lon="7.1232">
        <ele>861</ele>
        <time>2014-06-22T11:28:02Z</time>
      </trkpt>
      <trkpt lat="47.86822" lon="7.1233">
        <ele>862</ele>
        <time>2014-06-22T11:28:14Z</time>
      </trkpt>
      <trkpt lat="47.86816" lon="7.12334">
        <ele>862</ele>
        <time>2014-06-22T11:28:34Z</time>
      </trkpt>
      <trkpt lat="47.86807" lon="7.12332">
        <ele>862</ele>
        <time>2014-06-22T11:29:10Z</time>
      </trkpt>
      <trkpt lat="47.86806" lon="7.12337">
        <ele>862</ele>
        <time>2014-06-22T11:29:22Z</time>
      </trkpt>
      <trkpt lat="47.86801" lon="7.12349">
        <ele>862</ele>
        <time>2014-06-22T11:29:32Z</time>
      </trkpt>
      <trkpt lat="47.86802" lon="7.12353">
        <ele>862</ele>
        <time>2014-06-22T11:29:35Z</time>
      </trkpt>
      <trkpt lat="47.86805" lon="7.12354">
        <ele>862</ele>
        <time>2014-06-22T11:30:24Z</time>
      </trkpt>
      <trkpt lat="47.86817" lon="7.12346">
        <ele>862</ele>
        <time>2014-06-22T11:30:36Z</time>
      </trkpt>
      <trkpt lat="47.86816" lon="7.12338">
        <ele>862</ele>
        <time>2014-06-22T11:30:46Z</time>
      </trkpt>
      <trkpt lat="47.86809" lon="7.12339">
        <ele>862</ele>
        <time>2014-06-22T11:30:53Z</time>
      </trkpt>
      <trkpt lat="47.86802" lon="7.12339">
        <ele>862</ele>
        <time>2014-06-22T11:30:58Z</time>
      </trkpt>
      <trkpt lat="47.86795" lon="7.12341">
        <ele>862</ele>
        <time>2014-06-22T11:31:08Z</time>
      </trkpt>
      <trkpt lat="47.86791" lon="7.12345">
        <ele>862</ele>
        <time>2014-06-22T11:31:11Z</time>
      </trkpt>
      <trkpt lat="47.86781" lon="7.12346">
        <ele>862</ele>
        <time>2014-06-22T11:31:19Z</time>
      </trkpt>
      <trkpt lat="47.86774" lon="7.12355">
        <ele>863</ele>
        <time>2014-06-22T11:31:31Z</time>
      </trkpt>
      <trkpt lat="47.86771" lon="7.12357">
        <ele>863</ele>
        <time>2014-06-22T11:31:33Z</time>
      </trkpt>
      <trkpt lat="47.86758" lon="7.12364">
        <ele>863</ele>
        <time>2014-06-22T11:31:43Z</time>
      </trkpt>
      <trkpt lat="47.86754" lon="7.12366">
        <ele>863</ele>
        <time>2014-06-22T11:31:46Z</time>
      </trkpt>
      <trkpt lat="47.86742" lon="7.12372">
        <ele>866</ele>
        <time>2014-06-22T11:31:57Z</time>
      </trkpt>
      <trkpt lat="47.86733" lon="7.12378">
        <ele>866</ele>
        <time>2014-06-22T11:32:08Z</time>
      </trkpt>
      <trkpt lat="47.86728" lon="7.12382">
        <ele>867</ele>
        <time>2014-06-22T11:32:19Z</time>
      </trkpt>
      <trkpt lat="47.86717" lon="7.12392">
        <ele>867</ele>
        <time>2014-06-22T11:32:30Z</time>
      </trkpt>
      <trkpt lat="47.86715" lon="7.12395">
        <ele>867</ele>
        <time>2014-06-22T11:32:32Z</time>
      </trkpt>
      <trkpt lat="47.86712" lon="7.12402">
        <ele>868</ele>
        <time>2014-06-22T11:32:42Z</time>
      </trkpt>
      <trkpt lat="47.86709" lon="7.12407">
        <ele>868</ele>
        <time>2014-06-22T11:32:44Z</time>
      </trkpt>
      <trkpt lat="47.86704" lon="7.12411">
        <ele>869</ele>
        <time>2014-06-22T11:32:48Z</time>
      </trkpt>
      <trkpt lat="47.867" lon="7.12412">
        <ele>869</ele>
        <time>2014-06-22T11:32:50Z</time>
      </trkpt>
      <trkpt lat="47.86691" lon="7.1241">
        <ele>870</ele>
        <time>2014-06-22T11:33:00Z</time>
      </trkpt>
      <trkpt lat="47.86678" lon="7.12419">
        <ele>873</ele>
        <time>2014-06-22T11:33:10Z</time>
      </trkpt>
      <trkpt lat="47.86676" lon="7.12422">
        <ele>873</ele>
        <time>2014-06-22T11:33:14Z</time>
      </trkpt>
      <trkpt lat="47.86663" lon="7.12426">
        <ele>878</ele>
        <time>2014-06-22T11:33:24Z</time>
      </trkpt>
      <trkpt lat="47.86654" lon="7.12433">
        <ele>879</ele>
        <time>2014-06-22T11:33:35Z</time>
      </trkpt>
      <trkpt lat="47.86651" lon="7.12434">
        <ele>880</ele>
        <time>2014-06-22T11:33:37Z</time>
      </trkpt>
      <trkpt lat="47.86636" lon="7.12432">
        <ele>881</ele>
        <time>2014-06-22T11:33:48Z</time>
      </trkpt>
      <trkpt lat="47.8662" lon="7.12436">
        <ele>882</ele>
        <time>2014-06-22T11:33:59Z</time>
      </trkpt>
      <trkpt lat="47.86608" lon="7.12436">
        <ele>882</ele>
        <time>2014-06-22T11:34:05Z</time>
      </trkpt>
      <trkpt lat="47.86605" lon="7.12436">
        <ele>882</ele>
        <time>2014-06-22T11:34:07Z</time>
      </trkpt>
      <trkpt lat="47.86602" lon="7.12437">
        <ele>882</ele>
        <time>2014-06-22T11:34:10Z</time>
      </trkpt>
      <trkpt lat="47.86595" lon="7.12439">
        <ele>882</ele>
        <time>2014-06-22T11:34:17Z</time>
      </trkpt>
      <trkpt lat="47.86591" lon="7.12436">
        <ele>882</ele>
        <time>2014-06-22T11:34:20Z</time>
      </trkpt>
      <trkpt lat="47.86563" lon="7.12415">
        <ele>876</ele>
        <time>2014-06-22T11:34:29Z</time>
      </trkpt>
      <trkpt lat="47.86559" lon="7.12415">
        <ele>876</ele>
        <time>2014-06-22T11:34:31Z</time>
      </trkpt>
      <trkpt lat="47.86555" lon="7.12414">
        <ele>876</ele>
        <time>2014-06-22T11:34:34Z</time>
      </trkpt>
      <trkpt lat="47.86553" lon="7.12413">
        <ele>876</ele>
        <time>2014-06-22T11:34:37Z</time>
      </trkpt>
      <trkpt lat="47.86547" lon="7.12413">
        <ele>876</ele>
        <time>2014-06-22T11:34:42Z</time>
      </trkpt>
      <trkpt lat="47.8654" lon="7.12413">
        <ele>876</ele>
        <time>2014-06-22T11:34:47Z</time>
      </trkpt>
      <trkpt lat="47.86533" lon="7.12415">
        <ele>877</ele>
        <time>2014-06-22T11:34:53Z</time>
      </trkpt>
      <trkpt lat="47.86524" lon="7.12416">
        <ele>878</ele>
        <time>2014-06-22T11:35:04Z</time>
      </trkpt>
      <trkpt lat="47.86521" lon="7.12414">
        <ele>878</ele>
        <time>2014-06-22T11:35:07Z</time>
      </trkpt>
      <trkpt lat="47.86512" lon="7.12415">
        <ele>880</ele>
        <time>2014-06-22T11:35:17Z</time>
      </trkpt>
      <trkpt lat="47.86507" lon="7.12415">
        <ele>882</ele>
        <time>2014-06-22T11:35:24Z</time>
      </trkpt>
      <trkpt lat="47.865" lon="7.12415">
        <ele>884</ele>
        <time>2014-06-22T11:35:29Z</time>
      </trkpt>
      <trkpt lat="47.86491" lon="7.12412">
        <ele>885</ele>
        <time>2014-06-22T11:35:39Z</time>
      </trkpt>
      <trkpt lat="47.86486" lon="7.12413">
        <ele>885</ele>
        <time>2014-06-22T11:35:43Z</time>
      </trkpt>
      <trkpt lat="47.86472" lon="7.12412">
        <ele>886</ele>
        <time>2014-06-22T11:35:55Z</time>
      </trkpt>
      <trkpt lat="47.86458" lon="7.12414">
        <ele>888</ele>
        <time>2014-06-22T11:36:06Z</time>
      </trkpt>
      <trkpt lat="47.86448" lon="7.12414">
        <ele>890</ele>
        <time>2014-06-22T11:36:16Z</time>
      </trkpt>
      <trkpt lat="47.86442" lon="7.12409">
        <ele>891</ele>
        <time>2014-06-22T11:36:22Z</time>
      </trkpt>
      <trkpt lat="47.86439" lon="7.12408">
        <ele>892</ele>
        <time>2014-06-22T11:36:26Z</time>
      </trkpt>
      <trkpt lat="47.86428" lon="7.12396">
        <ele>892</ele>
        <time>2014-06-22T11:36:37Z</time>
      </trkpt>
      <trkpt lat="47.86423" lon="7.12392">
        <ele>891</ele>
        <time>2014-06-22T11:36:41Z</time>
      </trkpt>
      <trkpt lat="47.86413" lon="7.12387">
        <ele>903</ele>
        <time>2014-06-22T11:36:51Z</time>
      </trkpt>
      <trkpt lat="47.86401" lon="7.12382">
        <ele>903</ele>
        <time>2014-06-22T11:37:01Z</time>
      </trkpt>
      <trkpt lat="47.86397" lon="7.12376">
        <ele>903</ele>
        <time>2014-06-22T11:37:07Z</time>
      </trkpt>
      <trkpt lat="47.8639" lon="7.12364">
        <ele>902</ele>
        <time>2014-06-22T11:37:15Z</time>
      </trkpt>
      <trkpt lat="47.86387" lon="7.1236">
        <ele>902</ele>
        <time>2014-06-22T11:37:18Z</time>
      </trkpt>
      <trkpt lat="47.86382" lon="7.12349">
        <ele>902</ele>
        <time>2014-06-22T11:37:27Z</time>
      </trkpt>
      <trkpt lat="47.86373" lon="7.12334">
        <ele>903</ele>
        <time>2014-06-22T11:37:39Z</time>
      </trkpt>
      <trkpt lat="47.86365" lon="7.12327">
        <ele>892</ele>
        <time>2014-06-22T11:37:47Z</time>
      </trkpt>
      <trkpt lat="47.86351" lon="7.12323">
        <ele>896</ele>
        <time>2014-06-22T11:37:58Z</time>
      </trkpt>
      <trkpt lat="47.86338" lon="7.12321">
        <ele>899</ele>
        <time>2014-06-22T11:38:08Z</time>
      </trkpt>
      <trkpt lat="47.86329" lon="7.1232">
        <ele>910</ele>
        <time>2014-06-22T11:38:15Z</time>
      </trkpt>
      <trkpt lat="47.86326" lon="7.12318">
        <ele>910</ele>
        <time>2014-06-22T11:38:18Z</time>
      </trkpt>
      <trkpt lat="47.86317" lon="7.12313">
        <ele>911</ele>
        <time>2014-06-22T11:38:29Z</time>
      </trkpt>
      <trkpt lat="47.86303" lon="7.12305">
        <ele>913</ele>
        <time>2014-06-22T11:38:40Z</time>
      </trkpt>
      <trkpt lat="47.863" lon="7.12304">
        <ele>913</ele>
        <time>2014-06-22T11:38:42Z</time>
      </trkpt>
      <trkpt lat="47.86286" lon="7.123">
        <ele>915</ele>
        <time>2014-06-22T11:38:54Z</time>
      </trkpt>
      <trkpt lat="47.86282" lon="7.12299">
        <ele>916</ele>
        <time>2014-06-22T11:38:57Z</time>
      </trkpt>
      <trkpt lat="47.86278" lon="7.12297">
        <ele>916</ele>
        <time>2014-06-22T11:39:00Z</time>
      </trkpt>
      <trkpt lat="47.86265" lon="7.12296">
        <ele>918</ele>
        <time>2014-06-22T11:39:13Z</time>
      </trkpt>
      <trkpt lat="47.86257" lon="7.12288">
        <ele>917</ele>
        <time>2014-06-22T11:39:26Z</time>
      </trkpt>
      <trkpt lat="47.86254" lon="7.12288">
        <ele>918</ele>
        <time>2014-06-22T11:39:30Z</time>
      </trkpt>
      <trkpt lat="47.86248" lon="7.12287">
        <ele>937</ele>
        <time>2014-06-22T11:39:41Z</time>
      </trkpt>
      <trkpt lat="47.86242" lon="7.12283">
        <ele>937</ele>
        <time>2014-06-22T11:39:51Z</time>
      </trkpt>
      <trkpt lat="47.86232" lon="7.12278">
        <ele>938</ele>
        <time>2014-06-22T11:40:02Z</time>
      </trkpt>
      <trkpt lat="47.8623" lon="7.12276">
        <ele>938</ele>
        <time>2014-06-22T11:40:04Z</time>
      </trkpt>
      <trkpt lat="47.86221" lon="7.12268">
        <ele>938</ele>
        <time>2014-06-22T11:40:18Z</time>
      </trkpt>
      <trkpt lat="47.86214" lon="7.1226">
        <ele>940</ele>
        <time>2014-06-22T11:40:30Z</time>
      </trkpt>
      <trkpt lat="47.86212" lon="7.12247">
        <ele>927</ele>
        <time>2014-06-22T11:40:42Z</time>
      </trkpt>
      <trkpt lat="47.8621" lon="7.12245">
        <ele>928</ele>
        <time>2014-06-22T11:40:44Z</time>
      </trkpt>
      <trkpt lat="47.862" lon="7.12233">
        <ele>930</ele>
        <time>2014-06-22T11:40:56Z</time>
      </trkpt>
      <trkpt lat="47.86194" lon="7.12224">
        <ele>930</ele>
        <time>2014-06-22T11:41:11Z</time>
      </trkpt>
      <trkpt lat="47.86182" lon="7.12207">
        <ele>930</ele>
        <time>2014-06-22T11:41:22Z</time>
      </trkpt>
      <trkpt lat="47.86175" lon="7.12197">
        <ele>929</ele>
        <time>2014-06-22T11:41:33Z</time>
      </trkpt>
      <trkpt lat="47.86172" lon="7.12193">
        <ele>929</ele>
        <time>2014-06-22T11:41:35Z</time>
      </trkpt>
      <trkpt lat="47.86166" lon="7.12186">
        <ele>944</ele>
        <time>2014-06-22T11:41:39Z</time>
      </trkpt>
      <trkpt lat="47.86155" lon="7.12177">
        <ele>943</ele>
        <time>2014-06-22T11:41:45Z</time>
      </trkpt>
      <trkpt lat="47.86152" lon="7.12173">
        <ele>943</ele>
        <time>2014-06-22T11:41:48Z</time>
      </trkpt>
      <trkpt lat="47.86143" lon="7.12155">
        <ele>935</ele>
        <time>2014-06-22T11:42:01Z</time>
      </trkpt>
      <trkpt lat="47.86141" lon="7.12153">
        <ele>935</ele>
        <time>2014-06-22T11:42:03Z</time>
      </trkpt>
      <trkpt lat="47.86139" lon="7.1215">
        <ele>935</ele>
        <time>2014-06-22T11:42:08Z</time>
      </trkpt>
      <trkpt lat="47.86127" lon="7.12133">
        <ele>936</ele>
        <time>2014-06-22T11:42:19Z</time>
      </trkpt>
      <trkpt lat="47.86126" lon="7.12129">
        <ele>935</ele>
        <time>2014-06-22T11:42:23Z</time>
      </trkpt>
      <trkpt lat="47.86111" lon="7.12107">
        <ele>935</ele>
        <time>2014-06-22T11:42:36Z</time>
      </trkpt>
      <trkpt lat="47.86108" lon="7.12105">
        <ele>935</ele>
        <time>2014-06-22T11:42:39Z</time>
      </trkpt>
      <trkpt lat="47.86102" lon="7.12097">
        <ele>936</ele>
        <time>2014-06-22T11:42:51Z</time>
      </trkpt>
      <trkpt lat="47.86098" lon="7.12092">
        <ele>936</ele>
        <time>2014-06-22T11:42:53Z</time>
      </trkpt>
      <trkpt lat="47.86096" lon="7.1209">
        <ele>936</ele>
        <time>2014-06-22T11:42:54Z</time>
      </trkpt>
      <trkpt lat="47.86085" lon="7.12068">
        <ele>929</ele>
        <time>2014-06-22T11:43:04Z</time>
      </trkpt>
      <trkpt lat="47.86087" lon="7.12049">
        <ele>925</ele>
        <time>2014-06-22T11:43:12Z</time>
      </trkpt>
      <trkpt lat="47.86087" lon="7.12036">
        <ele>924</ele>
        <time>2014-06-22T11:43:19Z</time>
      </trkpt>
      <trkpt lat="47.86083" lon="7.12026">
        <ele>924</ele>
        <time>2014-06-22T11:43:23Z</time>
      </trkpt>
      <trkpt lat="47.86072" lon="7.12006">
        <ele>930</ele>
        <time>2014-06-22T11:43:34Z</time>
      </trkpt>
      <trkpt lat="47.86062" lon="7.11989">
        <ele>923</ele>
        <time>2014-06-22T11:43:45Z</time>
      </trkpt>
      <trkpt lat="47.86063" lon="7.11981">
        <ele>923</ele>
        <time>2014-06-22T11:43:47Z</time>
      </trkpt>
      <trkpt lat="47.86062" lon="7.11972">
        <ele>922</ele>
        <time>2014-06-22T11:43:52Z</time>
      </trkpt>
      <trkpt lat="47.86059" lon="7.11973">
        <ele>921</ele>
        <time>2014-06-22T11:43:59Z</time>
      </trkpt>
      <trkpt lat="47.86053" lon="7.11977">
        <ele>921</ele>
        <time>2014-06-22T11:44:10Z</time>
      </trkpt>
      <trkpt lat="47.86037" lon="7.11993">
        <ele>922</ele>
        <time>2014-06-22T11:44:21Z</time>
      </trkpt>
      <trkpt lat="47.86033" lon="7.12014">
        <ele>930</ele>
        <time>2014-06-22T11:44:29Z</time>
      </trkpt>
      <trkpt lat="47.86028" lon="7.12019">
        <ele>930</ele>
        <time>2014-06-22T11:44:33Z</time>
      </trkpt>
      <trkpt lat="47.86018" lon="7.12025">
        <ele>930</ele>
        <time>2014-06-22T11:44:40Z</time>
      </trkpt>
      <trkpt lat="47.86013" lon="7.12037">
        <ele>931</ele>
        <time>2014-06-22T11:44:50Z</time>
      </trkpt>
      <trkpt lat="47.86017" lon="7.12048">
        <ele>932</ele>
        <time>2014-06-22T11:44:55Z</time>
      </trkpt>
      <trkpt lat="47.86015" lon="7.12057">
        <ele>933</ele>
        <time>2014-06-22T11:45:02Z</time>
      </trkpt>
      <trkpt lat="47.86002" lon="7.12071">
        <ele>935</ele>
        <time>2014-06-22T11:45:16Z</time>
      </trkpt>
      <trkpt lat="47.85988" lon="7.12083">
        <ele>928</ele>
        <time>2014-06-22T11:45:25Z</time>
      </trkpt>
      <trkpt lat="47.85988" lon="7.12111">
        <ele>932</ele>
        <time>2014-06-22T11:45:34Z</time>
      </trkpt>
      <trkpt lat="47.85984" lon="7.12119">
        <ele>932</ele>
        <time>2014-06-22T11:45:38Z</time>
      </trkpt>
      <trkpt lat="47.85981" lon="7.1212">
        <ele>932</ele>
        <time>2014-06-22T11:45:40Z</time>
      </trkpt>
      <trkpt lat="47.85968" lon="7.12126">
        <ele>930</ele>
        <time>2014-06-22T11:45:48Z</time>
      </trkpt>
      <trkpt lat="47.85964" lon="7.1215">
        <ele>932</ele>
        <time>2014-06-22T11:46:00Z</time>
      </trkpt>
      <trkpt lat="47.85958" lon="7.12161">
        <ele>931</ele>
        <time>2014-06-22T11:46:13Z</time>
      </trkpt>
      <trkpt lat="47.85958" lon="7.12165">
        <ele>931</ele>
        <time>2014-06-22T11:46:19Z</time>
      </trkpt>
      <trkpt lat="47.85951" lon="7.12182">
        <ele>938</ele>
        <time>2014-06-22T11:46:32Z</time>
      </trkpt>
      <trkpt lat="47.85948" lon="7.12185">
        <ele>938</ele>
        <time>2014-06-22T11:46:36Z</time>
      </trkpt>
      <trkpt lat="47.85945" lon="7.12204">
        <ele>939</ele>
        <time>2014-06-22T11:46:48Z</time>
      </trkpt>
      <trkpt lat="47.85946" lon="7.12209">
        <ele>939</ele>
        <time>2014-06-22T11:46:51Z</time>
      </trkpt>
      <trkpt lat="47.85944" lon="7.12214">
        <ele>939</ele>
        <time>2014-06-22T11:46:54Z</time>
      </trkpt>
      <trkpt lat="47.85934" lon="7.12228">
        <ele>937</ele>
        <time>2014-06-22T11:47:07Z</time>
      </trkpt>
      <trkpt lat="47.85935" lon="7.12233">
        <ele>937</ele>
        <time>2014-06-22T11:47:10Z</time>
      </trkpt>
      <trkpt lat="47.85934" lon="7.12235">
        <ele>937</ele>
        <time>2014-06-22T11:50:15Z</time>
      </trkpt>
      <trkpt lat="47.85929" lon="7.12241">
        <ele>935</ele>
        <time>2014-06-22T11:50:27Z</time>
      </trkpt>
      <trkpt lat="47.85923" lon="7.12257">
        <ele>935</ele>
        <time>2014-06-22T11:50:38Z</time>
      </trkpt>
      <trkpt lat="47.85922" lon="7.12262">
        <ele>937</ele>
        <time>2014-06-22T11:50:40Z</time>
      </trkpt>
      <trkpt lat="47.85918" lon="7.1228">
        <ele>943</ele>
        <time>2014-06-22T11:50:50Z</time>
      </trkpt>
      <trkpt lat="47.85915" lon="7.123">
        <ele>920</ele>
        <time>2014-06-22T11:51:00Z</time>
      </trkpt>
      <trkpt lat="47.85906" lon="7.12328">
        <ele>926</ele>
        <time>2014-06-22T11:51:12Z</time>
      </trkpt>
      <trkpt lat="47.85905" lon="7.12332">
        <ele>926</ele>
        <time>2014-06-22T11:51:14Z</time>
      </trkpt>
      <trkpt lat="47.85905" lon="7.12337">
        <ele>928</ele>
        <time>2014-06-22T11:51:17Z</time>
      </trkpt>
      <trkpt lat="47.85898" lon="7.12358">
        <ele>924</ele>
        <time>2014-06-22T11:51:29Z</time>
      </trkpt>
      <trkpt lat="47.85897" lon="7.12361">
        <ele>924</ele>
        <time>2014-06-22T11:51:33Z</time>
      </trkpt>
      <trkpt lat="47.85889" lon="7.12375">
        <ele>922</ele>
        <time>2014-06-22T11:51:43Z</time>
      </trkpt>
      <trkpt lat="47.8589" lon="7.1238">
        <ele>923</ele>
        <time>2014-06-22T11:51:45Z</time>
      </trkpt>
      <trkpt lat="47.85889" lon="7.12402">
        <ele>925</ele>
        <time>2014-06-22T11:51:56Z</time>
      </trkpt>
      <trkpt lat="47.85885" lon="7.12411">
        <ele>924</ele>
        <time>2014-06-22T11:52:01Z</time>
      </trkpt>
      <trkpt lat="47.85876" lon="7.12424">
        <ele>928</ele>
        <time>2014-06-22T11:52:11Z</time>
      </trkpt>
      <trkpt lat="47.85877" lon="7.12434">
        <ele>929</ele>
        <time>2014-06-22T11:52:15Z</time>
      </trkpt>
      <trkpt lat="47.85876" lon="7.12439">
        <ele>929</ele>
        <time>2014-06-22T11:52:18Z</time>
      </trkpt>
      <trkpt lat="47.85875" lon="7.12449">
        <ele>929</ele>
        <time>2014-06-22T11:52:23Z</time>
      </trkpt>
      <trkpt lat="47.8587" lon="7.12474">
        <ele>930</ele>
        <time>2014-06-22T11:52:34Z</time>
      </trkpt>
      <trkpt lat="47.8587" lon="7.12503">
        <ele>939</ele>
        <time>2014-06-22T11:52:47Z</time>
      </trkpt>
      <trkpt lat="47.85869" lon="7.12508">
        <ele>939</ele>
        <time>2014-06-22T11:52:50Z</time>
      </trkpt>
      <trkpt lat="47.85869" lon="7.12514">
        <ele>939</ele>
        <time>2014-06-22T11:52:53Z</time>
      </trkpt>
      <trkpt lat="47.8587" lon="7.12519">
        <ele>940</ele>
        <time>2014-06-22T11:52:55Z</time>
      </trkpt>
      <trkpt lat="47.8587" lon="7.12528">
        <ele>941</ele>
        <time>2014-06-22T11:52:59Z</time>
      </trkpt>
      <trkpt lat="47.85868" lon="7.12533">
        <ele>941</ele>
        <time>2014-06-22T11:53:02Z</time>
      </trkpt>
      <trkpt lat="47.85854" lon="7.12544">
        <ele>940</ele>
        <time>2014-06-22T11:53:15Z</time>
      </trkpt>
      <trkpt lat="47.85849" lon="7.12542">
        <ele>939</ele>
        <time>2014-06-22T11:53:28Z</time>
      </trkpt>
      <trkpt lat="47.85838" lon="7.12541">
        <ele>937</ele>
        <time>2014-06-22T11:53:38Z</time>
      </trkpt>
      <trkpt lat="47.8583" lon="7.12538">
        <ele>926</ele>
        <time>2014-06-22T11:53:43Z</time>
      </trkpt>
      <trkpt lat="47.85811" lon="7.12547">
        <ele>928</ele>
        <time>2014-06-22T11:53:57Z</time>
      </trkpt>
      <trkpt lat="47.85804" lon="7.1254">
        <ele>927</ele>
        <time>2014-06-22T11:54:01Z</time>
      </trkpt>
      <trkpt lat="47.85799" lon="7.12537">
        <ele>926</ele>
        <time>2014-06-22T11:54:03Z</time>
      </trkpt>
      <trkpt lat="47.85781" lon="7.12536">
        <ele>926</ele>
        <time>2014-06-22T11:54:13Z</time>
      </trkpt>
      <trkpt lat="47.85773" lon="7.12528">
        <ele>924</ele>
        <time>2014-06-22T11:54:25Z</time>
      </trkpt>
      <trkpt lat="47.8577" lon="7.12522">
        <ele>923</ele>
        <time>2014-06-22T11:54:28Z</time>
      </trkpt>
      <trkpt lat="47.85767" lon="7.12519">
        <ele>923</ele>
        <time>2014-06-22T11:54:29Z</time>
      </trkpt>
      <trkpt lat="47.85765" lon="7.12517">
        <ele>922</ele>
        <time>2014-06-22T11:54:30Z</time>
      </trkpt>
      <trkpt lat="47.85763" lon="7.12514">
        <ele>921</ele>
        <time>2014-06-22T11:54:31Z</time>
      </trkpt>
      <trkpt lat="47.8576" lon="7.12514">
        <ele>921</ele>
        <time>2014-06-22T11:54:33Z</time>
      </trkpt>
      <trkpt lat="47.85753" lon="7.12515">
        <ele>920</ele>
        <time>2014-06-22T11:54:40Z</time>
      </trkpt>
      <trkpt lat="47.8575" lon="7.12515">
        <ele>920</ele>
        <time>2014-06-22T11:54:42Z</time>
      </trkpt>
      <trkpt lat="47.85733" lon="7.12517">
        <ele>927</ele>
        <time>2014-06-22T11:54:58Z</time>
      </trkpt>
      <trkpt lat="47.85725" lon="7.12517">
        <ele>929</ele>
        <time>2014-06-22T11:55:09Z</time>
      </trkpt>
      <trkpt lat="47.85706" lon="7.12503">
        <ele>930</ele>
        <time>2014-06-22T11:55:18Z</time>
      </trkpt>
      <trkpt lat="47.85692" lon="7.12494">
        <ele>916</ele>
        <time>2014-06-22T11:55:24Z</time>
      </trkpt>
      <trkpt lat="47.85689" lon="7.12493">
        <ele>916</ele>
        <time>2014-06-22T11:55:27Z</time>
      </trkpt>
      <trkpt lat="47.85677" lon="7.12489">
        <ele>919</ele>
        <time>2014-06-22T11:55:38Z</time>
      </trkpt>
      <trkpt lat="47.85673" lon="7.12487">
        <ele>919</ele>
        <time>2014-06-22T11:55:40Z</time>
      </trkpt>
      <trkpt lat="47.85669" lon="7.12485">
        <ele>919</ele>
        <time>2014-06-22T11:55:42Z</time>
      </trkpt>
      <trkpt lat="47.85649" lon="7.12473">
        <ele>925</ele>
        <time>2014-06-22T11:55:53Z</time>
      </trkpt>
      <trkpt lat="47.85647" lon="7.12477">
        <ele>926</ele>
        <time>2014-06-22T11:55:55Z</time>
      </trkpt>
      <trkpt lat="47.85627" lon="7.12471">
        <ele>927</ele>
        <time>2014-06-22T11:56:09Z</time>
      </trkpt>
      <trkpt lat="47.85625" lon="7.12465">
        <ele>927</ele>
        <time>2014-06-22T11:56:27Z</time>
      </trkpt>
      <trkpt lat="47.85622" lon="7.12461">
        <ele>926</ele>
        <time>2014-06-22T11:56:28Z</time>
      </trkpt>
      <trkpt lat="47.85618" lon="7.12456">
        <ele>926</ele>
        <time>2014-06-22T11:56:30Z</time>
      </trkpt>
      <trkpt lat="47.85604" lon="7.12443">
        <ele>925</ele>
        <time>2014-06-22T11:56:41Z</time>
      </trkpt>
      <trkpt lat="47.85594" lon="7.12433">
        <ele>924</ele>
        <time>2014-06-22T11:56:57Z</time>
      </trkpt>
      <trkpt lat="47.85592" lon="7.1243">
        <ele>924</ele>
        <time>2014-06-22T11:56:58Z</time>
      </trkpt>
      <trkpt lat="47.85587" lon="7.12424">
        <ele>923</ele>
        <time>2014-06-22T11:57:00Z</time>
      </trkpt>
      <trkpt lat="47.85585" lon="7.12421">
        <ele>923</ele>
        <time>2014-06-22T11:57:01Z</time>
      </trkpt>
      <trkpt lat="47.85583" lon="7.12418">
        <ele>924</ele>
        <time>2014-06-22T11:57:02Z</time>
      </trkpt>
      <trkpt lat="47.8558" lon="7.12414">
        <ele>923</ele>
        <time>2014-06-22T11:57:04Z</time>
      </trkpt>
      <trkpt lat="47.85571" lon="7.12409">
        <ele>925</ele>
        <time>2014-06-22T11:57:14Z</time>
      </trkpt>
      <trkpt lat="47.85568" lon="7.12406">
        <ele>926</ele>
        <time>2014-06-22T11:57:15Z</time>
      </trkpt>
      <trkpt lat="47.85565" lon="7.12401">
        <ele>926</ele>
        <time>2014-06-22T11:57:17Z</time>
      </trkpt>
      <trkpt lat="47.85561" lon="7.12393">
        <ele>927</ele>
        <time>2014-06-22T11:57:28Z</time>
      </trkpt>
      <trkpt lat="47.85558" lon="7.12391">
        <ele>927</ele>
        <time>2014-06-22T11:57:31Z</time>
      </trkpt>
      <trkpt lat="47.85551" lon="7.12382">
        <ele>927</ele>
        <time>2014-06-22T11:57:42Z</time>
      </trkpt>
      <trkpt lat="47.85534" lon="7.12355">
        <ele>927</ele>
        <time>2014-06-22T11:57:52Z</time>
      </trkpt>
      <trkpt lat="47.85525" lon="7.12345">
        <ele>928</ele>
        <time>2014-06-22T11:58:05Z</time>
      </trkpt>
      <trkpt lat="47.85522" lon="7.1234">
        <ele>928</ele>
        <time>2014-06-22T11:58:07Z</time>
      </trkpt>
      <trkpt lat="47.85519" lon="7.12337">
        <ele>929</ele>
        <time>2014-06-22T11:58:08Z</time>
      </trkpt>
      <trkpt lat="47.8551" lon="7.12326">
        <ele>920</ele>
        <time>2014-06-22T11:58:19Z</time>
      </trkpt>
      <trkpt lat="47.85508" lon="7.12323">
        <ele>920</ele>
        <time>2014-06-22T11:58:23Z</time>
      </trkpt>
      <trkpt lat="47.85506" lon="7.1232">
        <ele>919</ele>
        <time>2014-06-22T11:58:27Z</time>
      </trkpt>
      <trkpt lat="47.85504" lon="7.12306">
        <ele>913</ele>
        <time>2014-06-22T11:58:37Z</time>
      </trkpt>
      <trkpt lat="47.85506" lon="7.12301">
        <ele>911</ele>
        <time>2014-06-22T11:58:40Z</time>
      </trkpt>
      <trkpt lat="47.85505" lon="7.12297">
        <ele>910</ele>
        <time>2014-06-22T11:58:42Z</time>
      </trkpt>
      <trkpt lat="47.85502" lon="7.12292">
        <ele>909</ele>
        <time>2014-06-22T11:58:44Z</time>
      </trkpt>
      <trkpt lat="47.85499" lon="7.12289">
        <ele>926</ele>
        <time>2014-06-22T11:58:49Z</time>
      </trkpt>
      <trkpt lat="47.85491" lon="7.12281">
        <ele>924</ele>
        <time>2014-06-22T11:58:56Z</time>
      </trkpt>
      <trkpt lat="47.85474" lon="7.12264">
        <ele>923</ele>
        <time>2014-06-22T11:59:06Z</time>
      </trkpt>
      <trkpt lat="47.85458" lon="7.12258">
        <ele>926</ele>
        <time>2014-06-22T11:59:21Z</time>
      </trkpt>
      <trkpt lat="47.85455" lon="7.12257">
        <ele>927</ele>
        <time>2014-06-22T11:59:25Z</time>
      </trkpt>
      <trkpt lat="47.85452" lon="7.12255">
        <ele>927</ele>
        <time>2014-06-22T11:59:28Z</time>
      </trkpt>
      <trkpt lat="47.85427" lon="7.12234">
        <ele>917</ele>
        <time>2014-06-22T11:59:38Z</time>
      </trkpt>
      <trkpt lat="47.85424" lon="7.12232">
        <ele>916</ele>
        <time>2014-06-22T11:59:40Z</time>
      </trkpt>
      <trkpt lat="47.85413" lon="7.12221">
        <ele>930</ele>
        <time>2014-06-22T11:59:55Z</time>
      </trkpt>
      <trkpt lat="47.85404" lon="7.12216">
        <ele>930</ele>
        <time>2014-06-22T11:59:59Z</time>
      </trkpt>
      <trkpt lat="47.854" lon="7.12211">
        <ele>930</ele>
        <time>2014-06-22T12:00:09Z</time>
      </trkpt>
      <trkpt lat="47.85398" lon="7.12208">
        <ele>930</ele>
        <time>2014-06-22T12:00:20Z</time>
      </trkpt>
      <trkpt lat="47.85393" lon="7.12199">
        <ele>929</ele>
        <time>2014-06-22T12:00:23Z</time>
      </trkpt>
      <trkpt lat="47.85389" lon="7.12194">
        <ele>929</ele>
        <time>2014-06-22T12:00:24Z</time>
      </trkpt>
      <trkpt lat="47.85387" lon="7.1219">
        <ele>929</ele>
        <time>2014-06-22T12:00:25Z</time>
      </trkpt>
      <trkpt lat="47.85384" lon="7.12186">
        <ele>929</ele>
        <time>2014-06-22T12:00:26Z</time>
      </trkpt>
      <trkpt lat="47.8538" lon="7.12178">
        <ele>929</ele>
        <time>2014-06-22T12:00:28Z</time>
      </trkpt>
      <trkpt lat="47.85376" lon="7.12176">
        <ele>930</ele>
        <time>2014-06-22T12:00:29Z</time>
      </trkpt>
      <trkpt lat="47.85365" lon="7.12163">
        <ele>919</ele>
        <time>2014-06-22T12:00:49Z</time>
      </trkpt>
      <trkpt lat="47.85364" lon="7.12158">
        <ele>919</ele>
        <time>2014-06-22T12:00:51Z</time>
      </trkpt>
      <trkpt lat="47.85357" lon="7.12144">
        <ele>919</ele>
        <time>2014-06-22T12:01:01Z</time>
      </trkpt>
      <trkpt lat="47.85348" lon="7.12132">
        <ele>918</ele>
        <time>2014-06-22T12:01:17Z</time>
      </trkpt>
      <trkpt lat="47.85327" lon="7.12106">
        <ele>934</ele>
        <time>2014-06-22T12:01:28Z</time>
      </trkpt>
      <trkpt lat="47.85325" lon="7.12097">
        <ele>931</ele>
        <time>2014-06-22T12:01:34Z</time>
      </trkpt>
      <trkpt lat="47.85329" lon="7.12095">
        <ele>928</ele>
        <time>2014-06-22T12:01:36Z</time>
      </trkpt>
      <trkpt lat="47.8533" lon="7.12089">
        <ele>924</ele>
        <time>2014-06-22T12:01:42Z</time>
      </trkpt>
      <trkpt lat="47.85328" lon="7.12085">
        <ele>923</ele>
        <time>2014-06-22T12:01:45Z</time>
      </trkpt>
      <trkpt lat="47.85314" lon="7.12077">
        <ele>922</ele>
        <time>2014-06-22T12:01:58Z</time>
      </trkpt>
      <trkpt lat="47.85312" lon="7.12057">
        <ele>923</ele>
        <time>2014-06-22T12:02:11Z</time>
      </trkpt>
      <trkpt lat="47.85311" lon="7.12052">
        <ele>922</ele>
        <time>2014-06-22T12:02:14Z</time>
      </trkpt>
      <trkpt lat="47.8531" lon="7.12046">
        <ele>922</ele>
        <time>2014-06-22T12:02:17Z</time>
      </trkpt>
      <trkpt lat="47.8531" lon="7.12041">
        <ele>922</ele>
        <time>2014-06-22T12:02:19Z</time>
      </trkpt>
      <trkpt lat="47.85309" lon="7.12037">
        <ele>921</ele>
        <time>2014-06-22T12:02:22Z</time>
      </trkpt>
      <trkpt lat="47.85302" lon="7.12027">
        <ele>921</ele>
        <time>2014-06-22T12:02:26Z</time>
      </trkpt>
      <trkpt lat="47.85296" lon="7.12005">
        <ele>920</ele>
        <time>2014-06-22T12:02:36Z</time>
      </trkpt>
      <trkpt lat="47.85288" lon="7.11998">
        <ele>910</ele>
        <time>2014-06-22T12:02:47Z</time>
      </trkpt>
      <trkpt lat="47.85285" lon="7.11997">
        <ele>910</ele>
        <time>2014-06-22T12:02:48Z</time>
      </trkpt>
      <trkpt lat="47.85282" lon="7.11994">
        <ele>911</ele>
        <time>2014-06-22T12:02:53Z</time>
      </trkpt>
      <trkpt lat="47.85271" lon="7.11975">
        <ele>910</ele>
        <time>2014-06-22T12:03:03Z</time>
      </trkpt>
      <trkpt lat="47.85268" lon="7.11971">
        <ele>910</ele>
        <time>2014-06-22T12:03:06Z</time>
      </trkpt>
      <trkpt lat="47.85265" lon="7.11964">
        <ele>909</ele>
        <time>2014-06-22T12:03:12Z</time>
      </trkpt>
      <trkpt lat="47.8525" lon="7.11962">
        <ele>909</ele>
        <time>2014-06-22T12:03:22Z</time>
      </trkpt>
      <trkpt lat="47.85248" lon="7.1196">
        <ele>918</ele>
        <time>2014-06-22T12:03:24Z</time>
      </trkpt>
      <trkpt lat="47.85241" lon="7.11956">
        <ele>917</ele>
        <time>2014-06-22T12:03:34Z</time>
      </trkpt>
      <trkpt lat="47.85225" lon="7.11951">
        <ele>917</ele>
        <time>2014-06-22T12:03:44Z</time>
      </trkpt>
      <trkpt lat="47.85213" lon="7.1195">
        <ele>918</ele>
        <time>2014-06-22T12:03:56Z</time>
      </trkpt>
      <trkpt lat="47.85206" lon="7.11941">
        <ele>917</ele>
        <time>2014-06-22T12:04:07Z</time>
      </trkpt>
      <trkpt lat="47.8519" lon="7.11941">
        <ele>917</ele>
        <time>2014-06-22T12:04:20Z</time>
      </trkpt>
      <trkpt lat="47.8518" lon="7.11944">
        <ele>918</ele>
        <time>2014-06-22T12:04:29Z</time>
      </trkpt>
      <trkpt lat="47.85165" lon="7.11937">
        <ele>922</ele>
        <time>2014-06-22T12:04:39Z</time>
      </trkpt>
      <trkpt lat="47.85154" lon="7.11933">
        <ele>922</ele>
        <time>2014-06-22T12:04:54Z</time>
      </trkpt>
      <trkpt lat="47.85151" lon="7.11932">
        <ele>922</ele>
        <time>2014-06-22T12:04:55Z</time>
      </trkpt>
      <trkpt lat="47.8514" lon="7.11927">
        <ele>924</ele>
        <time>2014-06-22T12:05:00Z</time>
      </trkpt>
      <trkpt lat="47.85129" lon="7.11923">
        <ele>926</ele>
        <time>2014-06-22T12:05:10Z</time>
      </trkpt>
      <trkpt lat="47.85125" lon="7.11918">
        <ele>926</ele>
        <time>2014-06-22T12:05:12Z</time>
      </trkpt>
      <trkpt lat="47.85118" lon="7.11913">
        <ele>906</ele>
        <time>2014-06-22T12:05:15Z</time>
      </trkpt>
      <trkpt lat="47.85114" lon="7.11912">
        <ele>907</ele>
        <time>2014-06-22T12:05:17Z</time>
      </trkpt>
      <trkpt lat="47.85111" lon="7.11913">
        <ele>907</ele>
        <time>2014-06-22T12:05:19Z</time>
      </trkpt>
      <trkpt lat="47.85105" lon="7.11912">
        <ele>909</ele>
        <time>2014-06-22T12:05:28Z</time>
      </trkpt>
      <trkpt lat="47.85102" lon="7.11911">
        <ele>910</ele>
        <time>2014-06-22T12:05:32Z</time>
      </trkpt>
      <trkpt lat="47.8508" lon="7.11897">
        <ele>914</ele>
        <time>2014-06-22T12:05:44Z</time>
      </trkpt>
      <trkpt lat="47.85077" lon="7.11896">
        <ele>914</ele>
        <time>2014-06-22T12:05:46Z</time>
      </trkpt>
      <trkpt lat="47.85074" lon="7.11896">
        <ele>913</ele>
        <time>2014-06-22T12:05:50Z</time>
      </trkpt>
      <trkpt lat="47.85066" lon="7.11881">
        <ele>909</ele>
        <time>2014-06-22T12:06:01Z</time>
      </trkpt>
      <trkpt lat="47.85063" lon="7.11877">
        <ele>908</ele>
        <time>2014-06-22T12:06:04Z</time>
      </trkpt>
      <trkpt lat="47.85061" lon="7.11877">
        <ele>908</ele>
        <time>2014-06-22T12:06:05Z</time>
      </trkpt>
      <trkpt lat="47.85058" lon="7.11876">
        <ele>908</ele>
        <time>2014-06-22T12:06:08Z</time>
      </trkpt>
      <trkpt lat="47.85054" lon="7.11875">
        <ele>908</ele>
        <time>2014-06-22T12:06:12Z</time>
      </trkpt>
      <trkpt lat="47.85046" lon="7.11879">
        <ele>909</ele>
        <time>2014-06-22T12:06:26Z</time>
      </trkpt>
      <trkpt lat="47.85043" lon="7.11881">
        <ele>910</ele>
        <time>2014-06-22T12:06:40Z</time>
      </trkpt>
      <trkpt lat="47.85028" lon="7.11883">
        <ele>911</ele>
        <time>2014-06-22T12:06:51Z</time>
      </trkpt>
      <trkpt lat="47.85025" lon="7.11884">
        <ele>911</ele>
        <time>2014-06-22T12:06:56Z</time>
      </trkpt>
      <trkpt lat="47.85014" lon="7.11888">
        <ele>913</ele>
        <time>2014-06-22T12:07:07Z</time>
      </trkpt>
      <trkpt lat="47.84998" lon="7.119">
        <ele>921</ele>
        <time>2014-06-22T12:07:21Z</time>
      </trkpt>
      <trkpt lat="47.84994" lon="7.11899">
        <ele>921</ele>
        <time>2014-06-22T12:07:23Z</time>
      </trkpt>
      <trkpt lat="47.8499" lon="7.11896">
        <ele>920</ele>
        <time>2014-06-22T12:07:24Z</time>
      </trkpt>
      <trkpt lat="47.84988" lon="7.11895">
        <ele>920</ele>
        <time>2014-06-22T12:07:25Z</time>
      </trkpt>
      <trkpt lat="47.84984" lon="7.11893">
        <ele>919</ele>
        <time>2014-06-22T12:07:27Z</time>
      </trkpt>
      <trkpt lat="47.84982" lon="7.1189">
        <ele>919</ele>
        <time>2014-06-22T12:07:30Z</time>
      </trkpt>
      <trkpt lat="47.8498" lon="7.11886">
        <ele>918</ele>
        <time>2014-06-22T12:07:42Z</time>
      </trkpt>
      <trkpt lat="47.84968" lon="7.11879">
        <ele>917</ele>
        <time>2014-06-22T12:07:52Z</time>
      </trkpt>
      <trkpt lat="47.84966" lon="7.11878">
        <ele>917</ele>
        <time>2014-06-22T12:09:53Z</time>
      </trkpt>
      <trkpt lat="47.84963" lon="7.11877">
        <ele>917</ele>
        <time>2014-06-22T12:09:57Z</time>
      </trkpt>
      <trkpt lat="47.84953" lon="7.11874">
        <ele>917</ele>
        <time>2014-06-22T12:10:08Z</time>
      </trkpt>
      <trkpt lat="47.8495" lon="7.1187">
        <ele>917</ele>
        <time>2014-06-22T12:10:11Z</time>
      </trkpt>
      <trkpt lat="47.84943" lon="7.11855">
        <ele>916</ele>
        <time>2014-06-22T12:10:24Z</time>
      </trkpt>
      <trkpt lat="47.8494" lon="7.11852">
        <ele>916</ele>
        <time>2014-06-22T12:10:26Z</time>
      </trkpt>
      <trkpt lat="47.84937" lon="7.11848">
        <ele>916</ele>
        <time>2014-06-22T12:10:28Z</time>
      </trkpt>
      <trkpt lat="47.84927" lon="7.11836">
        <ele>916</ele>
        <time>2014-06-22T12:10:38Z</time>
      </trkpt>
      <trkpt lat="47.84922" lon="7.11825">
        <ele>911</ele>
        <time>2014-06-22T12:10:48Z</time>
      </trkpt>
      <trkpt lat="47.84919" lon="7.11815">
        <ele>907</ele>
        <time>2014-06-22T12:10:55Z</time>
      </trkpt>
      <trkpt lat="47.84911" lon="7.11799">
        <ele>911</ele>
        <time>2014-06-22T12:11:04Z</time>
      </trkpt>
      <trkpt lat="47.84907" lon="7.11797">
        <ele>911</ele>
        <time>2014-06-22T12:11:05Z</time>
      </trkpt>
      <trkpt lat="47.849" lon="7.11791">
        <ele>910</ele>
        <time>2014-06-22T12:11:09Z</time>
      </trkpt>
      <trkpt lat="47.84897" lon="7.1178">
        <ele>909</ele>
        <time>2014-06-22T12:11:19Z</time>
      </trkpt>
      <trkpt lat="47.84893" lon="7.11775">
        <ele>909</ele>
        <time>2014-06-22T12:11:21Z</time>
      </trkpt>
      <trkpt lat="47.84882" lon="7.11764">
        <ele>910</ele>
        <time>2014-06-22T12:11:31Z</time>
      </trkpt>
      <trkpt lat="47.84879" lon="7.11761">
        <ele>910</ele>
        <time>2014-06-22T12:11:37Z</time>
      </trkpt>
      <trkpt lat="47.84874" lon="7.11754">
        <ele>910</ele>
        <time>2014-06-22T12:11:53Z</time>
      </trkpt>
      <trkpt lat="47.8487" lon="7.11753">
        <ele>911</ele>
        <time>2014-06-22T12:12:03Z</time>
      </trkpt>
      <trkpt lat="47.84865" lon="7.11751">
        <ele>911</ele>
        <time>2014-06-22T12:12:20Z</time>
      </trkpt>
      <trkpt lat="47.84856" lon="7.11763">
        <ele>912</ele>
        <time>2014-06-22T12:12:30Z</time>
      </trkpt>
      <trkpt lat="47.8485" lon="7.11772">
        <ele>912</ele>
        <time>2014-06-22T12:12:56Z</time>
      </trkpt>
      <trkpt lat="47.84848" lon="7.11769">
        <ele>912</ele>
        <time>2014-06-22T12:13:11Z</time>
      </trkpt>
      <trkpt lat="47.84842" lon="7.11767">
        <ele>913</ele>
        <time>2014-06-22T12:13:18Z</time>
      </trkpt>
      <trkpt lat="47.84835" lon="7.11765">
        <ele>913</ele>
        <time>2014-06-22T12:13:31Z</time>
      </trkpt>
      <trkpt lat="47.84832" lon="7.11764">
        <ele>911</ele>
        <time>2014-06-22T12:13:32Z</time>
      </trkpt>
      <trkpt lat="47.84825" lon="7.1176">
        <ele>911</ele>
        <time>2014-06-22T12:13:37Z</time>
      </trkpt>
      <trkpt lat="47.84811" lon="7.11759">
        <ele>908</ele>
        <time>2014-06-22T12:13:47Z</time>
      </trkpt>
      <trkpt lat="47.84798" lon="7.11755">
        <ele>906</ele>
        <time>2014-06-22T12:13:57Z</time>
      </trkpt>
      <trkpt lat="47.84795" lon="7.11753">
        <ele>906</ele>
        <time>2014-06-22T12:13:59Z</time>
      </trkpt>
      <trkpt lat="47.84782" lon="7.11748">
        <ele>909</ele>
        <time>2014-06-22T12:14:11Z</time>
      </trkpt>
      <trkpt lat="47.84779" lon="7.11747">
        <ele>909</ele>
        <time>2014-06-22T12:14:15Z</time>
      </trkpt>
      <trkpt lat="47.84764" lon="7.11735">
        <ele>908</ele>
        <time>2014-06-22T12:14:26Z</time>
      </trkpt>
      <trkpt lat="47.84761" lon="7.11733">
        <ele>908</ele>
        <time>2014-06-22T12:14:29Z</time>
      </trkpt>
      <trkpt lat="47.84751" lon="7.11727">
        <ele>908</ele>
        <time>2014-06-22T12:14:39Z</time>
      </trkpt>
      <trkpt lat="47.84748" lon="7.11727">
        <ele>901</ele>
        <time>2014-06-22T12:14:41Z</time>
      </trkpt>
      <trkpt lat="47.84736" lon="7.11719">
        <ele>900</ele>
        <time>2014-06-22T12:14:52Z</time>
      </trkpt>
      <trkpt lat="47.8472" lon="7.11707">
        <ele>899</ele>
        <time>2014-06-22T12:15:03Z</time>
      </trkpt>
      <trkpt lat="47.84713" lon="7.11698">
        <ele>899</ele>
        <time>2014-06-22T12:15:10Z</time>
      </trkpt>
      <trkpt lat="47.8471" lon="7.11695">
        <ele>899</ele>
        <time>2014-06-22T12:15:13Z</time>
      </trkpt>
      <trkpt lat="47.84708" lon="7.11693">
        <ele>899</ele>
        <time>2014-06-22T12:15:16Z</time>
      </trkpt>
      <trkpt lat="47.84698" lon="7.11686">
        <ele>898</ele>
        <time>2014-06-22T12:15:30Z</time>
      </trkpt>
      <trkpt lat="47.84691" lon="7.11687">
        <ele>897</ele>
        <time>2014-06-22T12:15:42Z</time>
      </trkpt>
      <trkpt lat="47.84688" lon="7.11688">
        <ele>897</ele>
        <time>2014-06-22T12:15:48Z</time>
      </trkpt>
      <trkpt lat="47.84669" lon="7.11685">
        <ele>895</ele>
        <time>2014-06-22T12:15:59Z</time>
      </trkpt>
      <trkpt lat="47.84666" lon="7.11683">
        <ele>889</ele>
        <time>2014-06-22T12:16:02Z</time>
      </trkpt>
      <trkpt lat="47.84655" lon="7.11683">
        <ele>889</ele>
        <time>2014-06-22T12:16:08Z</time>
      </trkpt>
      <trkpt lat="47.84646" lon="7.11681">
        <ele>888</ele>
        <time>2014-06-22T12:16:18Z</time>
      </trkpt>
      <trkpt lat="47.84638" lon="7.11677">
        <ele>888</ele>
        <time>2014-06-22T12:16:26Z</time>
      </trkpt>
      <trkpt lat="47.84626" lon="7.11678">
        <ele>886</ele>
        <time>2014-06-22T12:16:36Z</time>
      </trkpt>
      <trkpt lat="47.84623" lon="7.11679">
        <ele>886</ele>
        <time>2014-06-22T12:16:40Z</time>
      </trkpt>
      <trkpt lat="47.84619" lon="7.1168">
        <ele>886</ele>
        <time>2014-06-22T12:16:42Z</time>
      </trkpt>
      <trkpt lat="47.84594" lon="7.11687">
        <ele>885</ele>
        <time>2014-06-22T12:16:53Z</time>
      </trkpt>
      <trkpt lat="47.84578" lon="7.11694">
        <ele>881</ele>
        <time>2014-06-22T12:17:03Z</time>
      </trkpt>
      <trkpt lat="47.84563" lon="7.1169">
        <ele>881</ele>
        <time>2014-06-22T12:17:13Z</time>
      </trkpt>
      <trkpt lat="47.84561" lon="7.11688">
        <ele>881</ele>
        <time>2014-06-22T12:17:15Z</time>
      </trkpt>
      <trkpt lat="47.84547" lon="7.11688">
        <ele>881</ele>
        <time>2014-06-22T12:17:25Z</time>
      </trkpt>
      <trkpt lat="47.84544" lon="7.11688">
        <ele>881</ele>
        <time>2014-06-22T12:17:28Z</time>
      </trkpt>
      <trkpt lat="47.84531" lon="7.11686">
        <ele>882</ele>
        <time>2014-06-22T12:17:42Z</time>
      </trkpt>
      <trkpt lat="47.84525" lon="7.1169">
        <ele>882</ele>
        <time>2014-06-22T12:17:53Z</time>
      </trkpt>
      <trkpt lat="47.84519" lon="7.11691">
        <ele>882</ele>
        <time>2014-06-22T12:17:54Z</time>
      </trkpt>
      <trkpt lat="47.84509" lon="7.11689">
        <ele>882</ele>
        <time>2014-06-22T12:18:06Z</time>
      </trkpt>
      <trkpt lat="47.84489" lon="7.11686">
        <ele>883</ele>
        <time>2014-06-22T12:18:17Z</time>
      </trkpt>
      <trkpt lat="47.84486" lon="7.11684">
        <ele>883</ele>
        <time>2014-06-22T12:18:19Z</time>
      </trkpt>
      <trkpt lat="47.8447" lon="7.11684">
        <ele>882</ele>
        <time>2014-06-22T12:18:29Z</time>
      </trkpt>
      <trkpt lat="47.84449" lon="7.11684">
        <ele>883</ele>
        <time>2014-06-22T12:18:40Z</time>
      </trkpt>
      <trkpt lat="47.84434" lon="7.11684">
        <ele>885</ele>
        <time>2014-06-22T12:18:48Z</time>
      </trkpt>
      <trkpt lat="47.84425" lon="7.11683">
        <ele>886</ele>
        <time>2014-06-22T12:18:52Z</time>
      </trkpt>
      <trkpt lat="47.84417" lon="7.11682">
        <ele>887</ele>
        <time>2014-06-22T12:18:57Z</time>
      </trkpt>
      <trkpt lat="47.84403" lon="7.11684">
        <ele>880</ele>
        <time>2014-06-22T12:19:06Z</time>
      </trkpt>
      <trkpt lat="47.84395" lon="7.11685">
        <ele>878</ele>
        <time>2014-06-22T12:19:10Z</time>
      </trkpt>
      <trkpt lat="47.84385" lon="7.11687">
        <ele>876</ele>
        <time>2014-06-22T12:19:19Z</time>
      </trkpt>
      <trkpt lat="47.84383" lon="7.11686">
        <ele>876</ele>
        <time>2014-06-22T12:19:21Z</time>
      </trkpt>
      <trkpt lat="47.8437" lon="7.11671">
        <ele>875</ele>
        <time>2014-06-22T12:19:31Z</time>
      </trkpt>
      <trkpt lat="47.84364" lon="7.11668">
        <ele>875</ele>
        <time>2014-06-22T12:19:37Z</time>
      </trkpt>
      <trkpt lat="47.84361" lon="7.1166">
        <ele>888</ele>
        <time>2014-06-22T12:19:45Z</time>
      </trkpt>
      <trkpt lat="47.84351" lon="7.11647">
        <ele>888</ele>
        <time>2014-06-22T12:19:56Z</time>
      </trkpt>
      <trkpt lat="47.84347" lon="7.11644">
        <ele>888</ele>
        <time>2014-06-22T12:19:58Z</time>
      </trkpt>
      <trkpt lat="47.84337" lon="7.11635">
        <ele>889</ele>
        <time>2014-06-22T12:20:04Z</time>
      </trkpt>
      <trkpt lat="47.8432" lon="7.11624">
        <ele>878</ele>
        <time>2014-06-22T12:20:14Z</time>
      </trkpt>
      <trkpt lat="47.84308" lon="7.1161">
        <ele>879</ele>
        <time>2014-06-22T12:20:28Z</time>
      </trkpt>
      <trkpt lat="47.84304" lon="7.11603">
        <ele>879</ele>
        <time>2014-06-22T12:20:37Z</time>
      </trkpt>
      <trkpt lat="47.84291" lon="7.11591">
        <ele>877</ele>
        <time>2014-06-22T12:20:50Z</time>
      </trkpt>
      <trkpt lat="47.84279" lon="7.11571">
        <ele>887</ele>
        <time>2014-06-22T12:21:01Z</time>
      </trkpt>
      <trkpt lat="47.84271" lon="7.11568">
        <ele>886</ele>
        <time>2014-06-22T12:21:05Z</time>
      </trkpt>
      <trkpt lat="47.84264" lon="7.1156">
        <ele>886</ele>
        <time>2014-06-22T12:21:19Z</time>
      </trkpt>
      <trkpt lat="47.84253" lon="7.11552">
        <ele>886</ele>
        <time>2014-06-22T12:21:26Z</time>
      </trkpt>
      <trkpt lat="47.84236" lon="7.11543">
        <ele>871</ele>
        <time>2014-06-22T12:21:36Z</time>
      </trkpt>
      <trkpt lat="47.84235" lon="7.11538">
        <ele>871</ele>
        <time>2014-06-22T12:21:40Z</time>
      </trkpt>
      <trkpt lat="47.84229" lon="7.11534">
        <ele>871</ele>
        <time>2014-06-22T12:21:45Z</time>
      </trkpt>
      <trkpt lat="47.84226" lon="7.1153">
        <ele>871</ele>
        <time>2014-06-22T12:21:47Z</time>
      </trkpt>
      <trkpt lat="47.84219" lon="7.1152">
        <ele>871</ele>
        <time>2014-06-22T12:21:59Z</time>
      </trkpt>
      <trkpt lat="47.84209" lon="7.11506">
        <ele>871</ele>
        <time>2014-06-22T12:22:09Z</time>
      </trkpt>
      <trkpt lat="47.842" lon="7.11485">
        <ele>875</ele>
        <time>2014-06-22T12:22:22Z</time>
      </trkpt>
      <trkpt lat="47.84197" lon="7.11483">
        <ele>874</ele>
        <time>2014-06-22T12:22:25Z</time>
      </trkpt>
      <trkpt lat="47.84186" lon="7.1147">
        <ele>873</ele>
        <time>2014-06-22T12:22:35Z</time>
      </trkpt>
      <trkpt lat="47.84181" lon="7.11464">
        <ele>873</ele>
        <time>2014-06-22T12:22:42Z</time>
      </trkpt>
      <trkpt lat="47.84161" lon="7.11453">
        <ele>859</ele>
        <time>2014-06-22T12:22:52Z</time>
      </trkpt>
      <trkpt lat="47.84151" lon="7.11448">
        <ele>858</ele>
        <time>2014-06-22T12:22:56Z</time>
      </trkpt>
      <trkpt lat="47.84145" lon="7.11443">
        <ele>858</ele>
        <time>2014-06-22T12:23:03Z</time>
      </trkpt>
      <trkpt lat="47.84142" lon="7.1144">
        <ele>858</ele>
        <time>2014-06-22T12:23:18Z</time>
      </trkpt>
      <trkpt lat="47.8414" lon="7.11437">
        <ele>858</ele>
        <time>2014-06-22T12:23:19Z</time>
      </trkpt>
      <trkpt lat="47.84125" lon="7.11436">
        <ele>856</ele>
        <time>2014-06-22T12:23:31Z</time>
      </trkpt>
      <trkpt lat="47.84112" lon="7.11439">
        <ele>855</ele>
        <time>2014-06-22T12:23:43Z</time>
      </trkpt>
      <trkpt lat="47.84114" lon="7.1144">
        <ele>855</ele>
        <time>2014-06-22T12:24:12Z</time>
      </trkpt>
      <trkpt lat="47.84111" lon="7.11442">
        <ele>855</ele>
        <time>2014-06-22T12:26:38Z</time>
      </trkpt>
      <trkpt lat="47.84109" lon="7.11445">
        <ele>855</ele>
        <time>2014-06-22T12:27:27Z</time>
      </trkpt>
      <trkpt lat="47.84096" lon="7.11447">
        <ele>854</ele>
        <time>2014-06-22T12:27:41Z</time>
      </trkpt>
      <trkpt lat="47.84088" lon="7.11445">
        <ele>853</ele>
        <time>2014-06-22T12:27:51Z</time>
      </trkpt>
      <trkpt lat="47.84087" lon="7.11441">
        <ele>853</ele>
        <time>2014-06-22T12:28:12Z</time>
      </trkpt>
      <trkpt lat="47.84086" lon="7.11437">
        <ele>853</ele>
        <time>2014-06-22T12:28:17Z</time>
      </trkpt>
      <trkpt lat="47.84083" lon="7.11421">
        <ele>852</ele>
        <time>2014-06-22T12:28:27Z</time>
      </trkpt>
      <trkpt lat="47.8408" lon="7.11419">
        <ele>852</ele>
        <time>2014-06-22T12:28:29Z</time>
      </trkpt>
      <trkpt lat="47.84067" lon="7.11409">
        <ele>852</ele>
        <time>2014-06-22T12:28:41Z</time>
      </trkpt>
      <trkpt lat="47.84056" lon="7.11396">
        <ele>853</ele>
        <time>2014-06-22T12:28:54Z</time>
      </trkpt>
      <trkpt lat="47.84055" lon="7.11392">
        <ele>853</ele>
        <time>2014-06-22T12:28:56Z</time>
      </trkpt>
      <trkpt lat="47.84051" lon="7.11385">
        <ele>853</ele>
        <time>2014-06-22T12:29:00Z</time>
      </trkpt>
      <trkpt lat="47.84049" lon="7.11379">
        <ele>852</ele>
        <time>2014-06-22T12:29:03Z</time>
      </trkpt>
      <trkpt lat="47.84043" lon="7.11364">
        <ele>851</ele>
        <time>2014-06-22T12:29:14Z</time>
      </trkpt>
      <trkpt lat="47.8404" lon="7.11353">
        <ele>851</ele>
        <time>2014-06-22T12:29:20Z</time>
      </trkpt>
      <trkpt lat="47.8404" lon="7.11347">
        <ele>850</ele>
        <time>2014-06-22T12:29:23Z</time>
      </trkpt>
      <trkpt lat="47.84026" lon="7.11334">
        <ele>853</ele>
        <time>2014-06-22T12:29:32Z</time>
      </trkpt>
      <trkpt lat="47.84027" lon="7.11329">
        <ele>838</ele>
        <time>2014-06-22T12:29:35Z</time>
      </trkpt>
      <trkpt lat="47.84023" lon="7.11328">
        <ele>840</ele>
        <time>2014-06-22T12:29:36Z</time>
      </trkpt>
      <trkpt lat="47.84018" lon="7.11322">
        <ele>841</ele>
        <time>2014-06-22T12:29:40Z</time>
      </trkpt>
      <trkpt lat="47.84017" lon="7.11313">
        <ele>838</ele>
        <time>2014-06-22T12:29:45Z</time>
      </trkpt>
      <trkpt lat="47.84029" lon="7.11292">
        <ele>830</ele>
        <time>2014-06-22T12:29:56Z</time>
      </trkpt>
      <trkpt lat="47.84025" lon="7.11275">
        <ele>829</ele>
        <time>2014-06-22T12:30:06Z</time>
      </trkpt>
      <trkpt lat="47.84023" lon="7.11271">
        <ele>829</ele>
        <time>2014-06-22T12:30:09Z</time>
      </trkpt>
      <trkpt lat="47.84016" lon="7.11255">
        <ele>829</ele>
        <time>2014-06-22T12:30:18Z</time>
      </trkpt>
      <trkpt lat="47.84013" lon="7.11254">
        <ele>830</ele>
        <time>2014-06-22T12:30:19Z</time>
      </trkpt>
      <trkpt lat="47.8401" lon="7.11251">
        <ele>830</ele>
        <time>2014-06-22T12:30:20Z</time>
      </trkpt>
      <trkpt lat="47.84007" lon="7.1125">
        <ele>831</ele>
        <time>2014-06-22T12:30:21Z</time>
      </trkpt>
      <trkpt lat="47.84" lon="7.11248">
        <ele>829</ele>
        <time>2014-06-22T12:30:23Z</time>
      </trkpt>
      <trkpt lat="47.83995" lon="7.11244">
        <ele>836</ele>
        <time>2014-06-22T12:30:25Z</time>
      </trkpt>
      <trkpt lat="47.83992" lon="7.11243">
        <ele>837</ele>
        <time>2014-06-22T12:30:26Z</time>
      </trkpt>
      <trkpt lat="47.83987" lon="7.11239">
        <ele>839</ele>
        <time>2014-06-22T12:30:28Z</time>
      </trkpt>
      <trkpt lat="47.83981" lon="7.11234">
        <ele>841</ele>
        <time>2014-06-22T12:30:31Z</time>
      </trkpt>
      <trkpt lat="47.83977" lon="7.11214">
        <ele>841</ele>
        <time>2014-06-22T12:30:41Z</time>
      </trkpt>
      <trkpt lat="47.83982" lon="7.11198">
        <ele>837</ele>
        <time>2014-06-22T12:30:52Z</time>
      </trkpt>
      <trkpt lat="47.83981" lon="7.11192">
        <ele>835</ele>
        <time>2014-06-22T12:30:55Z</time>
      </trkpt>
      <trkpt lat="47.83971" lon="7.11186">
        <ele>838</ele>
        <time>2014-06-22T12:31:02Z</time>
      </trkpt>
      <trkpt lat="47.83956" lon="7.11169">
        <ele>842</ele>
        <time>2014-06-22T12:31:13Z</time>
      </trkpt>
      <trkpt lat="47.83956" lon="7.11165">
        <ele>829</ele>
        <time>2014-06-22T12:31:15Z</time>
      </trkpt>
      <trkpt lat="47.83947" lon="7.11154">
        <ele>832</ele>
        <time>2014-06-22T12:31:23Z</time>
      </trkpt>
      <trkpt lat="47.83943" lon="7.1115">
        <ele>833</ele>
        <time>2014-06-22T12:31:26Z</time>
      </trkpt>
      <trkpt lat="47.83937" lon="7.1114">
        <ele>833</ele>
        <time>2014-06-22T12:31:32Z</time>
      </trkpt>
      <trkpt lat="47.83942" lon="7.11114">
        <ele>828</ele>
        <time>2014-06-22T12:31:43Z</time>
      </trkpt>
      <trkpt lat="47.83939" lon="7.11091">
        <ele>828</ele>
        <time>2014-06-22T12:31:56Z</time>
      </trkpt>
      <trkpt lat="47.83927" lon="7.11073">
        <ele>823</ele>
        <time>2014-06-22T12:32:07Z</time>
      </trkpt>
      <trkpt lat="47.83925" lon="7.11069">
        <ele>822</ele>
        <time>2014-06-22T12:32:10Z</time>
      </trkpt>
      <trkpt lat="47.83917" lon="7.11055">
        <ele>816</ele>
        <time>2014-06-22T12:32:22Z</time>
      </trkpt>
      <trkpt lat="47.83915" lon="7.11042">
        <ele>827</ele>
        <time>2014-06-22T12:32:27Z</time>
      </trkpt>
      <trkpt lat="47.83916" lon="7.11026">
        <ele>823</ele>
        <time>2014-06-22T12:32:33Z</time>
      </trkpt>
      <trkpt lat="47.83911" lon="7.11007">
        <ele>817</ele>
        <time>2014-06-22T12:32:43Z</time>
      </trkpt>
      <trkpt lat="47.83909" lon="7.11001">
        <ele>816</ele>
        <time>2014-06-22T12:32:45Z</time>
      </trkpt>
      <trkpt lat="47.83901" lon="7.10998">
        <ele>808</ele>
        <time>2014-06-22T12:32:51Z</time>
      </trkpt>
      <trkpt lat="47.83888" lon="7.10994">
        <ele>807</ele>
        <time>2014-06-22T12:33:02Z</time>
      </trkpt>
      <trkpt lat="47.83878" lon="7.10982">
        <ele>806</ele>
        <time>2014-06-22T12:33:13Z</time>
      </trkpt>
      <trkpt lat="47.83873" lon="7.10967">
        <ele>804</ele>
        <time>2014-06-22T12:33:23Z</time>
      </trkpt>
      <trkpt lat="47.8386" lon="7.10957">
        <ele>803</ele>
        <time>2014-06-22T12:33:34Z</time>
      </trkpt>
      <trkpt lat="47.83857" lon="7.10954">
        <ele>803</ele>
        <time>2014-06-22T12:33:37Z</time>
      </trkpt>
      <trkpt lat="47.83845" lon="7.10932">
        <ele>801</ele>
        <time>2014-06-22T12:33:46Z</time>
      </trkpt>
      <trkpt lat="47.83838" lon="7.10916">
        <ele>794</ele>
        <time>2014-06-22T12:33:57Z</time>
      </trkpt>
      <trkpt lat="47.83831" lon="7.10905">
        <ele>793</ele>
        <time>2014-06-22T12:34:08Z</time>
      </trkpt>
      <trkpt lat="47.83824" lon="7.10887">
        <ele>787</ele>
        <time>2014-06-22T12:34:18Z</time>
      </trkpt>
      <trkpt lat="47.83809" lon="7.10867">
        <ele>783</ele>
        <time>2014-06-22T12:34:28Z</time>
      </trkpt>
      <trkpt lat="47.83805" lon="7.1086">
        <ele>782</ele>
        <time>2014-06-22T12:34:34Z</time>
      </trkpt>
      <trkpt lat="47.83803" lon="7.10855">
        <ele>782</ele>
        <time>2014-06-22T12:34:37Z</time>
      </trkpt>
      <trkpt lat="47.83793" lon="7.10846">
        <ele>782</ele>
        <time>2014-06-22T12:34:46Z</time>
      </trkpt>
      <trkpt lat="47.83778" lon="7.10851">
        <ele>783</ele>
        <time>2014-06-22T12:34:58Z</time>
      </trkpt>
      <trkpt lat="47.83774" lon="7.10852">
        <ele>783</ele>
        <time>2014-06-22T12:35:00Z</time>
      </trkpt>
      <trkpt lat="47.83769" lon="7.10856">
        <ele>784</ele>
        <time>2014-06-22T12:35:11Z</time>
      </trkpt>
      <trkpt lat="47.83764" lon="7.10852">
        <ele>784</ele>
        <time>2014-06-22T12:35:33Z</time>
      </trkpt>
      <trkpt lat="47.8376" lon="7.10847">
        <ele>784</ele>
        <time>2014-06-22T12:35:51Z</time>
      </trkpt>
      <trkpt lat="47.83758" lon="7.10838">
        <ele>784</ele>
        <time>2014-06-22T12:35:59Z</time>
      </trkpt>
      <trkpt lat="47.83744" lon="7.10812">
        <ele>779</ele>
        <time>2014-06-22T12:36:10Z</time>
      </trkpt>
      <trkpt lat="47.83741" lon="7.10805">
        <ele>778</ele>
        <time>2014-06-22T12:36:14Z</time>
      </trkpt>
      <trkpt lat="47.8374" lon="7.10801">
        <ele>778</ele>
        <time>2014-06-22T12:36:16Z</time>
      </trkpt>
      <trkpt lat="47.83741" lon="7.10781">
        <ele>778</ele>
        <time>2014-06-22T12:36:26Z</time>
      </trkpt>
      <trkpt lat="47.83742" lon="7.10778">
        <ele>778</ele>
        <time>2014-06-22T12:36:28Z</time>
      </trkpt>
      <trkpt lat="47.83743" lon="7.10769">
        <ele>778</ele>
        <time>2014-06-22T12:36:33Z</time>
      </trkpt>
      <trkpt lat="47.83743" lon="7.10761">
        <ele>779</ele>
        <time>2014-06-22T12:36:40Z</time>
      </trkpt>
      <trkpt lat="47.83738" lon="7.10744">
        <ele>779</ele>
        <time>2014-06-22T12:36:51Z</time>
      </trkpt>
      <trkpt lat="47.83733" lon="7.10723">
        <ele>778</ele>
        <time>2014-06-22T12:37:03Z</time>
      </trkpt>
      <trkpt lat="47.83732" lon="7.10719">
        <ele>778</ele>
        <time>2014-06-22T12:37:06Z</time>
      </trkpt>
      <trkpt lat="47.83732" lon="7.10689">
        <ele>777</ele>
        <time>2014-06-22T12:37:17Z</time>
      </trkpt>
      <trkpt lat="47.83732" lon="7.1068">
        <ele>776</ele>
        <time>2014-06-22T12:37:22Z</time>
      </trkpt>
      <trkpt lat="47.83729" lon="7.10663">
        <ele>775</ele>
        <time>2014-06-22T12:37:33Z</time>
      </trkpt>
      <trkpt lat="47.83736" lon="7.1064">
        <ele>775</ele>
        <time>2014-06-22T12:37:43Z</time>
      </trkpt>
      <trkpt lat="47.83723" lon="7.10626">
        <ele>776</ele>
        <time>2014-06-22T12:37:54Z</time>
      </trkpt>
      <trkpt lat="47.8372" lon="7.10626">
        <ele>776</ele>
        <time>2014-06-22T12:37:55Z</time>
      </trkpt>
      <trkpt lat="47.83705" lon="7.10611">
        <ele>778</ele>
        <time>2014-06-22T12:38:05Z</time>
      </trkpt>
      <trkpt lat="47.83711" lon="7.10586">
        <ele>777</ele>
        <time>2014-06-22T12:38:15Z</time>
      </trkpt>
      <trkpt lat="47.83717" lon="7.10575">
        <ele>773</ele>
        <time>2014-06-22T12:38:21Z</time>
      </trkpt>
      <trkpt lat="47.83721" lon="7.1057">
        <ele>772</ele>
        <time>2014-06-22T12:38:23Z</time>
      </trkpt>
      <trkpt lat="47.83727" lon="7.10564">
        <ele>771</ele>
        <time>2014-06-22T12:38:26Z</time>
      </trkpt>
      <trkpt lat="47.83729" lon="7.10545">
        <ele>770</ele>
        <time>2014-06-22T12:38:35Z</time>
      </trkpt>
      <trkpt lat="47.8373" lon="7.10541">
        <ele>770</ele>
        <time>2014-06-22T12:38:37Z</time>
      </trkpt>
      <trkpt lat="47.83729" lon="7.1052">
        <ele>768</ele>
        <time>2014-06-22T12:38:47Z</time>
      </trkpt>
      <trkpt lat="47.83727" lon="7.105">
        <ele>766</ele>
        <time>2014-06-22T12:38:57Z</time>
      </trkpt>
      <trkpt lat="47.83728" lon="7.10485">
        <ele>758</ele>
        <time>2014-06-22T12:39:08Z</time>
      </trkpt>
      <trkpt lat="47.83722" lon="7.10481">
        <ele>759</ele>
        <time>2014-06-22T12:39:10Z</time>
      </trkpt>
      <trkpt lat="47.83719" lon="7.10479">
        <ele>759</ele>
        <time>2014-06-22T12:39:11Z</time>
      </trkpt>
      <trkpt lat="47.83717" lon="7.10476">
        <ele>759</ele>
        <time>2014-06-22T12:39:12Z</time>
      </trkpt>
      <trkpt lat="47.83707" lon="7.10469">
        <ele>760</ele>
        <time>2014-06-22T12:39:16Z</time>
      </trkpt>
      <trkpt lat="47.837" lon="7.10469">
        <ele>762</ele>
        <time>2014-06-22T12:39:21Z</time>
      </trkpt>
      <trkpt lat="47.83689" lon="7.10458">
        <ele>762</ele>
        <time>2014-06-22T12:39:32Z</time>
      </trkpt>
      <trkpt lat="47.83683" lon="7.10441">
        <ele>761</ele>
        <time>2014-06-22T12:39:43Z</time>
      </trkpt>
      <trkpt lat="47.83681" lon="7.1044">
        <ele>761</ele>
        <time>2014-06-22T12:39:49Z</time>
      </trkpt>
      <trkpt lat="47.83676" lon="7.10427">
        <ele>761</ele>
        <time>2014-06-22T12:39:59Z</time>
      </trkpt>
      <trkpt lat="47.83661" lon="7.10418">
        <ele>764</ele>
        <time>2014-06-22T12:40:08Z</time>
      </trkpt>
      <trkpt lat="47.83641" lon="7.10418">
        <ele>767</ele>
        <time>2014-06-22T12:40:20Z</time>
      </trkpt>
      <trkpt lat="47.83632" lon="7.10423">
        <ele>767</ele>
        <time>2014-06-22T12:40:32Z</time>
      </trkpt>
      <trkpt lat="47.83629" lon="7.10422">
        <ele>767</ele>
        <time>2014-06-22T12:40:37Z</time>
      </trkpt>
      <trkpt lat="47.83625" lon="7.10422">
        <ele>768</ele>
        <time>2014-06-22T12:40:41Z</time>
      </trkpt>
      <trkpt lat="47.83623" lon="7.1042">
        <ele>768</ele>
        <time>2014-06-22T12:40:43Z</time>
      </trkpt>
      <trkpt lat="47.83606" lon="7.10416">
        <ele>760</ele>
        <time>2014-06-22T12:40:53Z</time>
      </trkpt>
      <trkpt lat="47.836" lon="7.10412">
        <ele>761</ele>
        <time>2014-06-22T12:40:56Z</time>
      </trkpt>
      <trkpt lat="47.83597" lon="7.10407">
        <ele>761</ele>
        <time>2014-06-22T12:40:59Z</time>
      </trkpt>
      <trkpt lat="47.83595" lon="7.10401">
        <ele>761</ele>
        <time>2014-06-22T12:41:01Z</time>
      </trkpt>
      <trkpt lat="47.83584" lon="7.10388">
        <ele>759</ele>
        <time>2014-06-22T12:41:11Z</time>
      </trkpt>
      <trkpt lat="47.83583" lon="7.10384">
        <ele>765</ele>
        <time>2014-06-22T12:41:14Z</time>
      </trkpt>
      <trkpt lat="47.8357" lon="7.10367">
        <ele>765</ele>
        <time>2014-06-22T12:41:24Z</time>
      </trkpt>
      <trkpt lat="47.83568" lon="7.10365">
        <ele>765</ele>
        <time>2014-06-22T12:41:25Z</time>
      </trkpt>
      <trkpt lat="47.83562" lon="7.10361">
        <ele>765</ele>
        <time>2014-06-22T12:41:30Z</time>
      </trkpt>
      <trkpt lat="47.8356" lon="7.10364">
        <ele>765</ele>
        <time>2014-06-22T12:41:34Z</time>
      </trkpt>
      <trkpt lat="47.83558" lon="7.1036">
        <ele>765</ele>
        <time>2014-06-22T12:42:47Z</time>
      </trkpt>
      <trkpt lat="47.83557" lon="7.10354">
        <ele>765</ele>
        <time>2014-06-22T12:42:50Z</time>
      </trkpt>
      <trkpt lat="47.83553" lon="7.10337">
        <ele>765</ele>
        <time>2014-06-22T12:43:01Z</time>
      </trkpt>
      <trkpt lat="47.83554" lon="7.10332">
        <ele>765</ele>
        <time>2014-06-22T12:43:04Z</time>
      </trkpt>
      <trkpt lat="47.83556" lon="7.10317">
        <ele>765</ele>
        <time>2014-06-22T12:43:15Z</time>
      </trkpt>
      <trkpt lat="47.83559" lon="7.10309">
        <ele>765</ele>
        <time>2014-06-22T12:43:19Z</time>
      </trkpt>
      <trkpt lat="47.8356" lon="7.10304">
        <ele>764</ele>
        <time>2014-06-22T12:43:21Z</time>
      </trkpt>
      <trkpt lat="47.83552" lon="7.10285">
        <ele>765</ele>
        <time>2014-06-22T12:43:31Z</time>
      </trkpt>
      <trkpt lat="47.83552" lon="7.10258">
        <ele>763</ele>
        <time>2014-06-22T12:43:41Z</time>
      </trkpt>
      <trkpt lat="47.8355" lon="7.10234">
        <ele>756</ele>
        <time>2014-06-22T12:43:54Z</time>
      </trkpt>
      <trkpt lat="47.83549" lon="7.10226">
        <ele>756</ele>
        <time>2014-06-22T12:44:00Z</time>
      </trkpt>
      <trkpt lat="47.83546" lon="7.10209">
        <ele>755</ele>
        <time>2014-06-22T12:44:10Z</time>
      </trkpt>
      <trkpt lat="47.83544" lon="7.10205">
        <ele>754</ele>
        <time>2014-06-22T12:44:12Z</time>
      </trkpt>
      <trkpt lat="47.8354" lon="7.1019">
        <ele>753</ele>
        <time>2014-06-22T12:44:22Z</time>
      </trkpt>
      <trkpt lat="47.83539" lon="7.10185">
        <ele>753</ele>
        <time>2014-06-22T12:44:25Z</time>
      </trkpt>
      <trkpt lat="47.83536" lon="7.10176">
        <ele>753</ele>
        <time>2014-06-22T12:44:31Z</time>
      </trkpt>
      <trkpt lat="47.8353" lon="7.10161">
        <ele>742</ele>
        <time>2014-06-22T12:44:42Z</time>
      </trkpt>
      <trkpt lat="47.83512" lon="7.10148">
        <ele>744</ele>
        <time>2014-06-22T12:44:52Z</time>
      </trkpt>
      <trkpt lat="47.83509" lon="7.10145">
        <ele>744</ele>
        <time>2014-06-22T12:44:56Z</time>
      </trkpt>
      <trkpt lat="47.83506" lon="7.10117">
        <ele>737</ele>
        <time>2014-06-22T12:45:07Z</time>
      </trkpt>
      <trkpt lat="47.83504" lon="7.10108">
        <ele>736</ele>
        <time>2014-06-22T12:45:10Z</time>
      </trkpt>
      <trkpt lat="47.83497" lon="7.10098">
        <ele>737</ele>
        <time>2014-06-22T12:45:17Z</time>
      </trkpt>
      <trkpt lat="47.83492" lon="7.10081">
        <ele>728</ele>
        <time>2014-06-22T12:45:28Z</time>
      </trkpt>
      <trkpt lat="47.83483" lon="7.10065">
        <ele>721</ele>
        <time>2014-06-22T12:45:39Z</time>
      </trkpt>
      <trkpt lat="47.83481" lon="7.10061">
        <ele>720</ele>
        <time>2014-06-22T12:45:44Z</time>
      </trkpt>
      <trkpt lat="47.83469" lon="7.10049">
        <ele>716</ele>
        <time>2014-06-22T12:45:54Z</time>
      </trkpt>
      <trkpt lat="47.83458" lon="7.10048">
        <ele>715</ele>
        <time>2014-06-22T12:46:03Z</time>
      </trkpt>
      <trkpt lat="47.83446" lon="7.1005">
        <ele>715</ele>
        <time>2014-06-22T12:46:14Z</time>
      </trkpt>
      <trkpt lat="47.83433" lon="7.10051">
        <ele>714</ele>
        <time>2014-06-22T12:46:26Z</time>
      </trkpt>
      <trkpt lat="47.8343" lon="7.10051">
        <ele>714</ele>
        <time>2014-06-22T12:46:29Z</time>
      </trkpt>
      <trkpt lat="47.83421" lon="7.10063">
        <ele>717</ele>
        <time>2014-06-22T12:46:41Z</time>
      </trkpt>
      <trkpt lat="47.83416" lon="7.1007">
        <ele>709</ele>
        <time>2014-06-22T12:46:45Z</time>
      </trkpt>
      <trkpt lat="47.83405" lon="7.10081">
        <ele>710</ele>
        <time>2014-06-22T12:46:57Z</time>
      </trkpt>
      <trkpt lat="47.83402" lon="7.10082">
        <ele>708</ele>
        <time>2014-06-22T12:47:03Z</time>
      </trkpt>
      <trkpt lat="47.8339" lon="7.10094">
        <ele>720</ele>
        <time>2014-06-22T12:47:13Z</time>
      </trkpt>
      <trkpt lat="47.83388" lon="7.10098">
        <ele>720</ele>
        <time>2014-06-22T12:47:15Z</time>
      </trkpt>
      <trkpt lat="47.8338" lon="7.10103">
        <ele>719</ele>
        <time>2014-06-22T12:47:25Z</time>
      </trkpt>
      <trkpt lat="47.83376" lon="7.10105">
        <ele>719</ele>
        <time>2014-06-22T12:47:29Z</time>
      </trkpt>
      <trkpt lat="47.83373" lon="7.10108">
        <ele>719</ele>
        <time>2014-06-22T12:47:33Z</time>
      </trkpt>
      <trkpt lat="47.83357" lon="7.10123">
        <ele>718</ele>
        <time>2014-06-22T12:47:44Z</time>
      </trkpt>
      <trkpt lat="47.83344" lon="7.1013">
        <ele>719</ele>
        <time>2014-06-22T12:47:58Z</time>
      </trkpt>
      <trkpt lat="47.83341" lon="7.10133">
        <ele>719</ele>
        <time>2014-06-22T12:48:00Z</time>
      </trkpt>
      <trkpt lat="47.83328" lon="7.10139">
        <ele>706</ele>
        <time>2014-06-22T12:48:13Z</time>
      </trkpt>
      <trkpt lat="47.83324" lon="7.10141">
        <ele>706</ele>
        <time>2014-06-22T12:48:16Z</time>
      </trkpt>
      <trkpt lat="47.83322" lon="7.10142">
        <ele>706</ele>
        <time>2014-06-22T12:48:18Z</time>
      </trkpt>
      <trkpt lat="47.83312" lon="7.10143">
        <ele>705</ele>
        <time>2014-06-22T12:48:25Z</time>
      </trkpt>
      <trkpt lat="47.83299" lon="7.10146">
        <ele>704</ele>
        <time>2014-06-22T12:48:35Z</time>
      </trkpt>
      <trkpt lat="47.83289" lon="7.1015">
        <ele>703</ele>
        <time>2014-06-22T12:48:45Z</time>
      </trkpt>
      <trkpt lat="47.83286" lon="7.10151">
        <ele>703</ele>
        <time>2014-06-22T12:48:47Z</time>
      </trkpt>
      <trkpt lat="47.8328" lon="7.1015">
        <ele>703</ele>
        <time>2014-06-22T12:48:53Z</time>
      </trkpt>
      <trkpt lat="47.83278" lon="7.10149">
        <ele>702</ele>
        <time>2014-06-22T12:48:58Z</time>
      </trkpt>
      <trkpt lat="47.83264" lon="7.10146">
        <ele>702</ele>
        <time>2014-06-22T12:49:10Z</time>
      </trkpt>
      <trkpt lat="47.83254" lon="7.10146">
        <ele>702</ele>
        <time>2014-06-22T12:49:21Z</time>
      </trkpt>
      <trkpt lat="47.83246" lon="7.10151">
        <ele>701</ele>
        <time>2014-06-22T12:49:28Z</time>
      </trkpt>
      <trkpt lat="47.83242" lon="7.10153">
        <ele>701</ele>
        <time>2014-06-22T12:49:31Z</time>
      </trkpt>
      <trkpt lat="47.83226" lon="7.10157">
        <ele>700</ele>
        <time>2014-06-22T12:49:42Z</time>
      </trkpt>
      <trkpt lat="47.83219" lon="7.10135">
        <ele>696</ele>
        <time>2014-06-22T12:49:54Z</time>
      </trkpt>
      <trkpt lat="47.83218" lon="7.1013">
        <ele>695</ele>
        <time>2014-06-22T12:49:56Z</time>
      </trkpt>
      <trkpt lat="47.8321" lon="7.10116">
        <ele>693</ele>
        <time>2014-06-22T12:50:06Z</time>
      </trkpt>
      <trkpt lat="47.83202" lon="7.10102">
        <ele>692</ele>
        <time>2014-06-22T12:50:19Z</time>
      </trkpt>
      <trkpt lat="47.83195" lon="7.1009">
        <ele>691</ele>
        <time>2014-06-22T12:50:27Z</time>
      </trkpt>
      <trkpt lat="47.83192" lon="7.10089">
        <ele>691</ele>
        <time>2014-06-22T12:50:29Z</time>
      </trkpt>
      <trkpt lat="47.83172" lon="7.10072">
        <ele>679</ele>
        <time>2014-06-22T12:50:40Z</time>
      </trkpt>
      <trkpt lat="47.83169" lon="7.10069">
        <ele>678</ele>
        <time>2014-06-22T12:50:43Z</time>
      </trkpt>
      <trkpt lat="47.83169" lon="7.10059">
        <ele>674</ele>
        <time>2014-06-22T12:50:50Z</time>
      </trkpt>
      <trkpt lat="47.83166" lon="7.10043">
        <ele>672</ele>
        <time>2014-06-22T12:50:59Z</time>
      </trkpt>
      <trkpt lat="47.83158" lon="7.1004">
        <ele>671</ele>
        <time>2014-06-22T12:51:04Z</time>
      </trkpt>
      <trkpt lat="47.83145" lon="7.10035">
        <ele>669</ele>
        <time>2014-06-22T12:51:14Z</time>
      </trkpt>
      <trkpt lat="47.83129" lon="7.10033">
        <ele>669</ele>
        <time>2014-06-22T12:51:24Z</time>
      </trkpt>
      <trkpt lat="47.8312" lon="7.10034">
        <ele>669</ele>
        <time>2014-06-22T12:51:33Z</time>
      </trkpt>
      <trkpt lat="47.83117" lon="7.10035">
        <ele>669</ele>
        <time>2014-06-22T12:51:36Z</time>
      </trkpt>
      <trkpt lat="47.83107" lon="7.10038">
        <ele>669</ele>
        <time>2014-06-22T12:51:48Z</time>
      </trkpt>
      <trkpt lat="47.83103" lon="7.10037">
        <ele>669</ele>
        <time>2014-06-22T12:51:51Z</time>
      </trkpt>
      <trkpt lat="47.83101" lon="7.1004">
        <ele>669</ele>
        <time>2014-06-22T12:51:54Z</time>
      </trkpt>
      <trkpt lat="47.83098" lon="7.10042">
        <ele>669</ele>
        <time>2014-06-22T12:51:57Z</time>
      </trkpt>
      <trkpt lat="47.83083" lon="7.10047">
        <ele>662</ele>
        <time>2014-06-22T12:52:07Z</time>
      </trkpt>
      <trkpt lat="47.83074" lon="7.10053">
        <ele>663</ele>
        <time>2014-06-22T12:52:12Z</time>
      </trkpt>
      <trkpt lat="47.83061" lon="7.10071">
        <ele>665</ele>
        <time>2014-06-22T12:52:24Z</time>
      </trkpt>
      <trkpt lat="47.83059" lon="7.10076">
        <ele>665</ele>
        <time>2014-06-22T12:52:27Z</time>
      </trkpt>
      <trkpt lat="47.83048" lon="7.10088">
        <ele>674</ele>
        <time>2014-06-22T12:52:40Z</time>
      </trkpt>
      <trkpt lat="47.83046" lon="7.10089">
        <ele>674</ele>
        <time>2014-06-22T12:52:43Z</time>
      </trkpt>
      <trkpt lat="47.83043" lon="7.1009">
        <ele>673</ele>
        <time>2014-06-22T12:52:46Z</time>
      </trkpt>
      <trkpt lat="47.83037" lon="7.10094">
        <ele>672</ele>
        <time>2014-06-22T12:52:52Z</time>
      </trkpt>
      <trkpt lat="47.83026" lon="7.10104">
        <ele>671</ele>
        <time>2014-06-22T12:53:02Z</time>
      </trkpt>
      <trkpt lat="47.83024" lon="7.10107">
        <ele>671</ele>
        <time>2014-06-22T12:53:04Z</time>
      </trkpt>
      <trkpt lat="47.83012" lon="7.10109">
        <ele>669</ele>
        <time>2014-06-22T12:53:16Z</time>
      </trkpt>
      <trkpt lat="47.83008" lon="7.10109">
        <ele>669</ele>
        <time>2014-06-22T12:53:19Z</time>
      </trkpt>
      <trkpt lat="47.83006" lon="7.10112">
        <ele>669</ele>
        <time>2014-06-22T12:53:21Z</time>
      </trkpt>
      <trkpt lat="47.82986" lon="7.10119">
        <ele>659</ele>
        <time>2014-06-22T12:53:33Z</time>
      </trkpt>
      <trkpt lat="47.82978" lon="7.1012">
        <ele>659</ele>
        <time>2014-06-22T12:53:36Z</time>
      </trkpt>
      <trkpt lat="47.82967" lon="7.1013">
        <ele>658</ele>
        <time>2014-06-22T12:53:49Z</time>
      </trkpt>
      <trkpt lat="47.82965" lon="7.10131">
        <ele>658</ele>
        <time>2014-06-22T12:53:52Z</time>
      </trkpt>
      <trkpt lat="47.82953" lon="7.10134">
        <ele>657</ele>
        <time>2014-06-22T12:54:03Z</time>
      </trkpt>
      <trkpt lat="47.82945" lon="7.10141">
        <ele>657</ele>
        <time>2014-06-22T12:54:17Z</time>
      </trkpt>
      <trkpt lat="47.82943" lon="7.10149">
        <ele>656</ele>
        <time>2014-06-22T12:54:22Z</time>
      </trkpt>
      <trkpt lat="47.82927" lon="7.10151">
        <ele>655</ele>
        <time>2014-06-22T12:54:34Z</time>
      </trkpt>
      <trkpt lat="47.82923" lon="7.10158">
        <ele>653</ele>
        <time>2014-06-22T12:54:49Z</time>
      </trkpt>
      <trkpt lat="47.82928" lon="7.10155">
        <ele>654</ele>
        <time>2014-06-22T12:56:37Z</time>
      </trkpt>
      <trkpt lat="47.82926" lon="7.10152">
        <ele>654</ele>
        <time>2014-06-22T12:56:50Z</time>
      </trkpt>
      <trkpt lat="47.82922" lon="7.10152">
        <ele>654</ele>
        <time>2014-06-22T12:57:21Z</time>
      </trkpt>
      <trkpt lat="47.82912" lon="7.10154">
        <ele>652</ele>
        <time>2014-06-22T12:57:31Z</time>
      </trkpt>
      <trkpt lat="47.82903" lon="7.10159">
        <ele>652</ele>
        <time>2014-06-22T12:57:41Z</time>
      </trkpt>
      <trkpt lat="47.829" lon="7.10161">
        <ele>652</ele>
        <time>2014-06-22T12:57:43Z</time>
      </trkpt>
      <trkpt lat="47.82897" lon="7.10162">
        <ele>652</ele>
        <time>2014-06-22T12:57:45Z</time>
      </trkpt>
      <trkpt lat="47.82894" lon="7.10163">
        <ele>652</ele>
        <time>2014-06-22T12:57:47Z</time>
      </trkpt>
      <trkpt lat="47.82889" lon="7.10163">
        <ele>652</ele>
        <time>2014-06-22T12:57:49Z</time>
      </trkpt>
      <trkpt lat="47.82877" lon="7.10168">
        <ele>645</ele>
        <time>2014-06-22T12:58:02Z</time>
      </trkpt>
      <trkpt lat="47.82874" lon="7.10168">
        <ele>645</ele>
        <time>2014-06-22T12:58:04Z</time>
      </trkpt>
      <trkpt lat="47.82859" lon="7.10177">
        <ele>646</ele>
        <time>2014-06-22T12:58:14Z</time>
      </trkpt>
      <trkpt lat="47.82855" lon="7.10179">
        <ele>646</ele>
        <time>2014-06-22T12:58:17Z</time>
      </trkpt>
      <trkpt lat="47.82845" lon="7.1019">
        <ele>645</ele>
        <time>2014-06-22T12:58:28Z</time>
      </trkpt>
      <trkpt lat="47.82836" lon="7.10199">
        <ele>643</ele>
        <time>2014-06-22T12:58:39Z</time>
      </trkpt>
      <trkpt lat="47.82824" lon="7.10212">
        <ele>634</ele>
        <time>2014-06-22T12:58:50Z</time>
      </trkpt>
      <trkpt lat="47.8282" lon="7.10218">
        <ele>633</ele>
        <time>2014-06-22T12:58:55Z</time>
      </trkpt>
      <trkpt lat="47.82812" lon="7.10227">
        <ele>631</ele>
        <time>2014-06-22T12:59:08Z</time>
      </trkpt>
      <trkpt lat="47.82804" lon="7.10236">
        <ele>630</ele>
        <time>2014-06-22T12:59:17Z</time>
      </trkpt>
      <trkpt lat="47.82795" lon="7.10244">
        <ele>629</ele>
        <time>2014-06-22T12:59:27Z</time>
      </trkpt>
      <trkpt lat="47.82791" lon="7.10247">
        <ele>628</ele>
        <time>2014-06-22T12:59:29Z</time>
      </trkpt>
      <trkpt lat="47.82787" lon="7.10247">
        <ele>628</ele>
        <time>2014-06-22T12:59:32Z</time>
      </trkpt>
      <trkpt lat="47.82781" lon="7.10248">
        <ele>627</ele>
        <time>2014-06-22T12:59:37Z</time>
      </trkpt>
      <trkpt lat="47.8277" lon="7.1026">
        <ele>616</ele>
        <time>2014-06-22T12:59:48Z</time>
      </trkpt>
      <trkpt lat="47.82757" lon="7.10271">
        <ele>615</ele>
        <time>2014-06-22T12:59:59Z</time>
      </trkpt>
      <trkpt lat="47.82751" lon="7.10276">
        <ele>614</ele>
        <time>2014-06-22T13:00:04Z</time>
      </trkpt>
      <trkpt lat="47.8274" lon="7.10285">
        <ele>608</ele>
        <time>2014-06-22T13:00:14Z</time>
      </trkpt>
      <trkpt lat="47.82733" lon="7.1029">
        <ele>607</ele>
        <time>2014-06-22T13:00:18Z</time>
      </trkpt>
      <trkpt lat="47.82716" lon="7.10291">
        <ele>606</ele>
        <time>2014-06-22T13:00:31Z</time>
      </trkpt>
      <trkpt lat="47.82705" lon="7.10307">
        <ele>605</ele>
        <time>2014-06-22T13:00:41Z</time>
      </trkpt>
      <trkpt lat="47.82695" lon="7.10316">
        <ele>604</ele>
        <time>2014-06-22T13:00:52Z</time>
      </trkpt>
      <trkpt lat="47.82692" lon="7.10317">
        <ele>604</ele>
        <time>2014-06-22T13:00:55Z</time>
      </trkpt>
      <trkpt lat="47.82686" lon="7.1032">
        <ele>603</ele>
        <time>2014-06-22T13:01:00Z</time>
      </trkpt>
      <trkpt lat="47.8268" lon="7.10321">
        <ele>603</ele>
        <time>2014-06-22T13:01:07Z</time>
      </trkpt>
      <trkpt lat="47.82674" lon="7.10326">
        <ele>602</ele>
        <time>2014-06-22T13:01:14Z</time>
      </trkpt>
      <trkpt lat="47.82664" lon="7.10346">
        <ele>594</ele>
        <time>2014-06-22T13:01:25Z</time>
      </trkpt>
      <trkpt lat="47.82658" lon="7.10358">
        <ele>590</ele>
        <time>2014-06-22T13:01:32Z</time>
      </trkpt>
      <trkpt lat="47.82655" lon="7.10359">
        <ele>590</ele>
        <time>2014-06-22T13:01:36Z</time>
      </trkpt>
      <trkpt lat="47.82645" lon="7.10364">
        <ele>588</ele>
        <time>2014-06-22T13:01:46Z</time>
      </trkpt>
      <trkpt lat="47.82638" lon="7.10349">
        <ele>589</ele>
        <time>2014-06-22T13:01:58Z</time>
      </trkpt>
      <trkpt lat="47.82634" lon="7.1035">
        <ele>588</ele>
        <time>2014-06-22T13:02:10Z</time>
      </trkpt>
      <trkpt lat="47.82631" lon="7.10357">
        <ele>587</ele>
        <time>2014-06-22T13:02:17Z</time>
      </trkpt>
      <trkpt lat="47.82621" lon="7.10369">
        <ele>585</ele>
        <time>2014-06-22T13:02:32Z</time>
      </trkpt>
      <trkpt lat="47.82617" lon="7.10362">
        <ele>585</ele>
        <time>2014-06-22T13:02:40Z</time>
      </trkpt>
      <trkpt lat="47.82611" lon="7.10352">
        <ele>585</ele>
        <time>2014-06-22T13:03:18Z</time>
      </trkpt>
      <trkpt lat="47.82609" lon="7.1035">
        <ele>584</ele>
        <time>2014-06-22T13:03:22Z</time>
      </trkpt>
      <trkpt lat="47.82611" lon="7.10347">
        <ele>585</ele>
        <time>2014-06-22T13:03:42Z</time>
      </trkpt>
      <trkpt lat="47.82617" lon="7.10328">
        <ele>587</ele>
        <time>2014-06-22T13:03:55Z</time>
      </trkpt>
      <trkpt lat="47.82621" lon="7.1031">
        <ele>587</ele>
        <time>2014-06-22T13:04:08Z</time>
      </trkpt>
      <trkpt lat="47.82636" lon="7.10291">
        <ele>588</ele>
        <time>2014-06-22T13:04:20Z</time>
      </trkpt>
      <trkpt lat="47.82633" lon="7.1029">
        <ele>588</ele>
        <time>2014-06-22T13:04:31Z</time>
      </trkpt>
      <trkpt lat="47.82631" lon="7.10294">
        <ele>588</ele>
        <time>2014-06-22T13:04:55Z</time>
      </trkpt>
      <trkpt lat="47.8263" lon="7.10299">
        <ele>588</ele>
        <time>2014-06-22T13:04:57Z</time>
      </trkpt>
      <trkpt lat="47.8262" lon="7.10317">
        <ele>587</ele>
        <time>2014-06-22T13:05:06Z</time>
      </trkpt>
      <trkpt lat="47.82606" lon="7.10335">
        <ele>584</ele>
        <time>2014-06-22T13:05:16Z</time>
      </trkpt>
      <trkpt lat="47.82607" lon="7.1034">
        <ele>584</ele>
        <time>2014-06-22T13:05:18Z</time>
      </trkpt>
      <trkpt lat="47.82609" lon="7.10345">
        <ele>584</ele>
        <time>2014-06-22T13:05:21Z</time>
      </trkpt>
      <trkpt lat="47.82607" lon="7.10368">
        <ele>584</ele>
        <time>2014-06-22T13:05:34Z</time>
      </trkpt>
      <trkpt lat="47.82605" lon="7.10372">
        <ele>584</ele>
        <time>2014-06-22T13:05:36Z</time>
      </trkpt>
      <trkpt lat="47.826" lon="7.10378">
        <ele>583</ele>
        <time>2014-06-22T13:05:40Z</time>
      </trkpt>
      <trkpt lat="47.82598" lon="7.10377">
        <ele>583</ele>
        <time>2014-06-22T13:06:04Z</time>
      </trkpt>
      <trkpt lat="47.82611" lon="7.10362">
        <ele>584</ele>
        <time>2014-06-22T13:06:15Z</time>
      </trkpt>
      <trkpt lat="47.82618" lon="7.10345">
        <ele>586</ele>
        <time>2014-06-22T13:06:25Z</time>
      </trkpt>
      <trkpt lat="47.82619" lon="7.10325">
        <ele>587</ele>
        <time>2014-06-22T13:06:35Z</time>
      </trkpt>
      <trkpt lat="47.82621" lon="7.10307">
        <ele>587</ele>
        <time>2014-06-22T13:06:45Z</time>
      </trkpt>
      <trkpt lat="47.82624" lon="7.10303">
        <ele>587</ele>
        <time>2014-06-22T13:06:47Z</time>
      </trkpt>
      <trkpt lat="47.82632" lon="7.10284">
        <ele>588</ele>
        <time>2014-06-22T13:06:57Z</time>
      </trkpt>
      <trkpt lat="47.82638" lon="7.10267">
        <ele>589</ele>
        <time>2014-06-22T13:07:06Z</time>
      </trkpt>
      <trkpt lat="47.8264" lon="7.10262">
        <ele>589</ele>
        <time>2014-06-22T13:07:08Z</time>
      </trkpt>
      <trkpt lat="47.82646" lon="7.10246">
        <ele>585</ele>
        <time>2014-06-22T13:07:14Z</time>
      </trkpt>
      <trkpt lat="47.82651" lon="7.10222">
        <ele>582</ele>
        <time>2014-06-22T13:07:25Z</time>
      </trkpt>
      <trkpt lat="47.82655" lon="7.10198">
        <ele>580</ele>
        <time>2014-06-22T13:07:36Z</time>
      </trkpt>
      <trkpt lat="47.82658" lon="7.10187">
        <ele>581</ele>
        <time>2014-06-22T13:07:40Z</time>
      </trkpt>
      <trkpt lat="47.8266" lon="7.10183">
        <ele>582</ele>
        <time>2014-06-22T13:07:42Z</time>
      </trkpt>
      <trkpt lat="47.82663" lon="7.1018">
        <ele>583</ele>
        <time>2014-06-22T13:07:44Z</time>
      </trkpt>
      <trkpt lat="47.82667" lon="7.10174">
        <ele>592</ele>
        <time>2014-06-22T13:07:48Z</time>
      </trkpt>
      <trkpt lat="47.82671" lon="7.10152">
        <ele>592</ele>
        <time>2014-06-22T13:08:00Z</time>
      </trkpt>
      <trkpt lat="47.82677" lon="7.10129">
        <ele>593</ele>
        <time>2014-06-22T13:08:11Z</time>
      </trkpt>
      <trkpt lat="47.8268" lon="7.10102">
        <ele>587</ele>
        <time>2014-06-22T13:08:21Z</time>
      </trkpt>
      <trkpt lat="47.82682" lon="7.10088">
        <ele>584</ele>
        <time>2014-06-22T13:08:29Z</time>
      </trkpt>
      <trkpt lat="47.82689" lon="7.10066">
        <ele>581</ele>
        <time>2014-06-22T13:08:40Z</time>
      </trkpt>
      <trkpt lat="47.82687" lon="7.1004">
        <ele>580</ele>
        <time>2014-06-22T13:08:51Z</time>
      </trkpt>
      <trkpt lat="47.82689" lon="7.10031">
        <ele>579</ele>
        <time>2014-06-22T13:08:56Z</time>
      </trkpt>
      <trkpt lat="47.82692" lon="7.10011">
        <ele>577</ele>
        <time>2014-06-22T13:09:08Z</time>
      </trkpt>
      <trkpt lat="47.82698" lon="7.09992">
        <ele>570</ele>
        <time>2014-06-22T13:09:19Z</time>
      </trkpt>
      <trkpt lat="47.827" lon="7.09987">
        <ele>570</ele>
        <time>2014-06-22T13:09:21Z</time>
      </trkpt>
      <trkpt lat="47.82702" lon="7.09978">
        <ele>571</ele>
        <time>2014-06-22T13:09:26Z</time>
      </trkpt>
      <trkpt lat="47.82705" lon="7.09968">
        <ele>571</ele>
        <time>2014-06-22T13:09:31Z</time>
      </trkpt>
      <trkpt lat="47.82714" lon="7.09944">
        <ele>571</ele>
        <time>2014-06-22T13:09:42Z</time>
      </trkpt>
      <trkpt lat="47.82715" lon="7.0994">
        <ele>571</ele>
        <time>2014-06-22T13:09:44Z</time>
      </trkpt>
      <trkpt lat="47.8272" lon="7.09933">
        <ele>573</ele>
        <time>2014-06-22T13:09:50Z</time>
      </trkpt>
      <trkpt lat="47.82722" lon="7.0993">
        <ele>573</ele>
        <time>2014-06-22T13:09:53Z</time>
      </trkpt>
      <trkpt lat="47.82729" lon="7.09915">
        <ele>568</ele>
        <time>2014-06-22T13:10:05Z</time>
      </trkpt>
      <trkpt lat="47.82735" lon="7.09899">
        <ele>568</ele>
        <time>2014-06-22T13:10:18Z</time>
      </trkpt>
      <trkpt lat="47.82738" lon="7.09884">
        <ele>565</ele>
        <time>2014-06-22T13:10:26Z</time>
      </trkpt>
      <trkpt lat="47.82738" lon="7.09873">
        <ele>564</ele>
        <time>2014-06-22T13:10:30Z</time>
      </trkpt>
      <trkpt lat="47.82739" lon="7.09858">
        <ele>563</ele>
        <time>2014-06-22T13:10:36Z</time>
      </trkpt>
      <trkpt lat="47.8274" lon="7.09835">
        <ele>566</ele>
        <time>2014-06-22T13:10:47Z</time>
      </trkpt>
      <trkpt lat="47.82739" lon="7.09822">
        <ele>562</ele>
        <time>2014-06-22T13:10:57Z</time>
      </trkpt>
      <trkpt lat="47.82739" lon="7.09818">
        <ele>561</ele>
        <time>2014-06-22T13:11:01Z</time>
      </trkpt>
      <trkpt lat="47.82741" lon="7.09814">
        <ele>560</ele>
        <time>2014-06-22T13:11:04Z</time>
      </trkpt>
      <trkpt lat="47.82745" lon="7.09804">
        <ele>559</ele>
        <time>2014-06-22T13:11:08Z</time>
      </trkpt>
      <trkpt lat="47.82742" lon="7.09784">
        <ele>558</ele>
        <time>2014-06-22T13:11:19Z</time>
      </trkpt>
      <trkpt lat="47.82737" lon="7.0978">
        <ele>558</ele>
        <time>2014-06-22T13:11:27Z</time>
      </trkpt>
      <trkpt lat="47.82729" lon="7.09769">
        <ele>557</ele>
        <time>2014-06-22T13:11:37Z</time>
      </trkpt>
      <trkpt lat="47.82727" lon="7.09764">
        <ele>557</ele>
        <time>2014-06-22T13:11:40Z</time>
      </trkpt>
      <trkpt lat="47.82725" lon="7.09759">
        <ele>557</ele>
        <time>2014-06-22T13:11:45Z</time>
      </trkpt>
      <trkpt lat="47.82723" lon="7.0974">
        <ele>558</ele>
        <time>2014-06-22T13:11:56Z</time>
      </trkpt>
      <trkpt lat="47.82722" lon="7.09731">
        <ele>557</ele>
        <time>2014-06-22T13:12:00Z</time>
      </trkpt>
      <trkpt lat="47.82718" lon="7.09718">
        <ele>556</ele>
        <time>2014-06-22T13:12:06Z</time>
      </trkpt>
      <trkpt lat="47.82714" lon="7.0971">
        <ele>555</ele>
        <time>2014-06-22T13:12:11Z</time>
      </trkpt>
      <trkpt lat="47.82713" lon="7.09706">
        <ele>555</ele>
        <time>2014-06-22T13:12:13Z</time>
      </trkpt>
      <trkpt lat="47.82706" lon="7.0969">
        <ele>554</ele>
        <time>2014-06-22T13:12:24Z</time>
      </trkpt>
      <trkpt lat="47.82702" lon="7.09677">
        <ele>552</ele>
        <time>2014-06-22T13:12:34Z</time>
      </trkpt>
      <trkpt lat="47.82705" lon="7.09657">
        <ele>557</ele>
        <time>2014-06-22T13:12:42Z</time>
      </trkpt>
      <trkpt lat="47.82706" lon="7.09651">
        <ele>558</ele>
        <time>2014-06-22T13:12:44Z</time>
      </trkpt>
      <trkpt lat="47.82704" lon="7.09624">
        <ele>558</ele>
        <time>2014-06-22T13:12:55Z</time>
      </trkpt>
      <trkpt lat="47.82702" lon="7.09619">
        <ele>558</ele>
        <time>2014-06-22T13:12:58Z</time>
      </trkpt>
      <trkpt lat="47.82698" lon="7.09612">
        <ele>557</ele>
        <time>2014-06-22T13:13:04Z</time>
      </trkpt>
      <trkpt lat="47.82692" lon="7.09594">
        <ele>554</ele>
        <time>2014-06-22T13:13:16Z</time>
      </trkpt>
      <trkpt lat="47.82678" lon="7.09581">
        <ele>550</ele>
        <time>2014-06-22T13:13:26Z</time>
      </trkpt>
      <trkpt lat="47.82676" lon="7.09571">
        <ele>553</ele>
        <time>2014-06-22T13:13:32Z</time>
      </trkpt>
      <trkpt lat="47.82666" lon="7.09552">
        <ele>531</ele>
        <time>2014-06-22T13:13:42Z</time>
      </trkpt>
      <trkpt lat="47.82665" lon="7.09546">
        <ele>531</ele>
        <time>2014-06-22T13:13:44Z</time>
      </trkpt>
      <trkpt lat="47.82666" lon="7.09532">
        <ele>533</ele>
        <time>2014-06-22T13:13:50Z</time>
      </trkpt>
      <trkpt lat="47.82666" lon="7.09527">
        <ele>534</ele>
        <time>2014-06-22T13:13:52Z</time>
      </trkpt>
      <trkpt lat="47.82664" lon="7.09518">
        <ele>537</ele>
        <time>2014-06-22T13:13:56Z</time>
      </trkpt>
      <trkpt lat="47.8266" lon="7.09501">
        <ele>544</ele>
        <time>2014-06-22T13:14:06Z</time>
      </trkpt>
      <trkpt lat="47.82652" lon="7.09483">
        <ele>540</ele>
        <time>2014-06-22T13:14:17Z</time>
      </trkpt>
      <trkpt lat="47.82646" lon="7.09469">
        <ele>537</ele>
        <time>2014-06-22T13:14:24Z</time>
      </trkpt>
      <trkpt lat="47.82644" lon="7.09466">
        <ele>537</ele>
        <time>2014-06-22T13:14:26Z</time>
      </trkpt>
      <trkpt lat="47.82636" lon="7.09453">
        <ele>535</ele>
        <time>2014-06-22T13:14:35Z</time>
      </trkpt>
      <trkpt lat="47.82629" lon="7.09433">
        <ele>534</ele>
        <time>2014-06-22T13:14:46Z</time>
      </trkpt>
      <trkpt lat="47.82627" lon="7.09413">
        <ele>539</ele>
        <time>2014-06-22T13:14:56Z</time>
      </trkpt>
      <trkpt lat="47.82628" lon="7.09399">
        <ele>539</ele>
        <time>2014-06-22T13:15:08Z</time>
      </trkpt>
      <trkpt lat="47.82627" lon="7.09395">
        <ele>539</ele>
        <time>2014-06-22T13:15:11Z</time>
      </trkpt>
      <trkpt lat="47.82621" lon="7.09377">
        <ele>537</ele>
        <time>2014-06-22T13:15:21Z</time>
      </trkpt>
      <trkpt lat="47.82619" lon="7.09367">
        <ele>537</ele>
        <time>2014-06-22T13:15:27Z</time>
      </trkpt>
      <trkpt lat="47.82615" lon="7.09348">
        <ele>536</ele>
        <time>2014-06-22T13:15:39Z</time>
      </trkpt>
      <trkpt lat="47.82614" lon="7.09343">
        <ele>535</ele>
        <time>2014-06-22T13:15:42Z</time>
      </trkpt>
      <trkpt lat="47.8261" lon="7.09319">
        <ele>538</ele>
        <time>2014-06-22T13:15:54Z</time>
      </trkpt>
      <trkpt lat="47.8261" lon="7.09299">
        <ele>540</ele>
        <time>2014-06-22T13:16:06Z</time>
      </trkpt>
      <trkpt lat="47.82608" lon="7.09294">
        <ele>539</ele>
        <time>2014-06-22T13:16:09Z</time>
      </trkpt>
      <trkpt lat="47.82601" lon="7.09272">
        <ele>537</ele>
        <time>2014-06-22T13:16:20Z</time>
      </trkpt>
      <trkpt lat="47.82594" lon="7.09254">
        <ele>531</ele>
        <time>2014-06-22T13:16:30Z</time>
      </trkpt>
      <trkpt lat="47.82596" lon="7.09244">
        <ele>534</ele>
        <time>2014-06-22T13:16:36Z</time>
      </trkpt>
      <trkpt lat="47.82593" lon="7.0923">
        <ele>537</ele>
        <time>2014-06-22T13:16:45Z</time>
      </trkpt>
      <trkpt lat="47.82591" lon="7.09225">
        <ele>538</ele>
        <time>2014-06-22T13:16:47Z</time>
      </trkpt>
      <trkpt lat="47.82584" lon="7.09202">
        <ele>540</ele>
        <time>2014-06-22T13:16:58Z</time>
      </trkpt>
      <trkpt lat="47.82583" lon="7.09196">
        <ele>521</ele>
        <time>2014-06-22T13:17:01Z</time>
      </trkpt>
      <trkpt lat="47.82573" lon="7.09185">
        <ele>522</ele>
        <time>2014-06-22T13:17:11Z</time>
      </trkpt>
      <trkpt lat="47.8257" lon="7.09182">
        <ele>522</ele>
        <time>2014-06-22T13:17:13Z</time>
      </trkpt>
      <trkpt lat="47.82566" lon="7.0918">
        <ele>522</ele>
        <time>2014-06-22T13:17:15Z</time>
      </trkpt>
      <trkpt lat="47.82556" lon="7.09175">
        <ele>520</ele>
        <time>2014-06-22T13:17:24Z</time>
      </trkpt>
      <trkpt lat="47.82553" lon="7.09173">
        <ele>519</ele>
        <time>2014-06-22T13:17:27Z</time>
      </trkpt>
      <trkpt lat="47.82547" lon="7.09158">
        <ele>520</ele>
        <time>2014-06-22T13:17:39Z</time>
      </trkpt>
      <trkpt lat="47.82552" lon="7.09147">
        <ele>520</ele>
        <time>2014-06-22T13:17:49Z</time>
      </trkpt>
      <trkpt lat="47.82561" lon="7.09136">
        <ele>520</ele>
        <time>2014-06-22T13:18:01Z</time>
      </trkpt>
      <trkpt lat="47.82573" lon="7.09123">
        <ele>520</ele>
        <time>2014-06-22T13:18:12Z</time>
      </trkpt>
      <trkpt lat="47.82582" lon="7.09107">
        <ele>519</ele>
        <time>2014-06-22T13:18:23Z</time>
      </trkpt>
      <trkpt lat="47.82585" lon="7.09102">
        <ele>529</ele>
        <time>2014-06-22T13:18:25Z</time>
      </trkpt>
      <trkpt lat="47.82588" lon="7.09094">
        <ele>526</ele>
        <time>2014-06-22T13:18:29Z</time>
      </trkpt>
      <trkpt lat="47.82596" lon="7.0908">
        <ele>519</ele>
        <time>2014-06-22T13:18:39Z</time>
      </trkpt>
      <trkpt lat="47.82603" lon="7.09062">
        <ele>520</ele>
        <time>2014-06-22T13:18:46Z</time>
      </trkpt>
      <trkpt lat="47.82604" lon="7.09058">
        <ele>520</ele>
        <time>2014-06-22T13:18:51Z</time>
      </trkpt>
      <trkpt lat="47.82617" lon="7.09044">
        <ele>520</ele>
        <time>2014-06-22T13:19:02Z</time>
      </trkpt>
      <trkpt lat="47.82619" lon="7.0904">
        <ele>520</ele>
        <time>2014-06-22T13:19:04Z</time>
      </trkpt>
      <trkpt lat="47.82621" lon="7.09037">
        <ele>520</ele>
        <time>2014-06-22T13:19:06Z</time>
      </trkpt>
      <trkpt lat="47.82628" lon="7.0902">
        <ele>519</ele>
        <time>2014-06-22T13:19:17Z</time>
      </trkpt>
      <trkpt lat="47.82635" lon="7.09009">
        <ele>520</ele>
        <time>2014-06-22T13:19:28Z</time>
      </trkpt>
      <trkpt lat="47.82637" lon="7.08982">
        <ele>504</ele>
        <time>2014-06-22T13:19:40Z</time>
      </trkpt>
      <trkpt lat="47.82637" lon="7.08978">
        <ele>504</ele>
        <time>2014-06-22T13:19:42Z</time>
      </trkpt>
      <trkpt lat="47.82638" lon="7.08974">
        <ele>503</ele>
        <time>2014-06-22T13:19:44Z</time>
      </trkpt>
      <trkpt lat="47.82645" lon="7.0895">
        <ele>500</ele>
        <time>2014-06-22T13:19:55Z</time>
      </trkpt>
      <trkpt lat="47.82654" lon="7.08925">
        <ele>500</ele>
        <time>2014-06-22T13:20:07Z</time>
      </trkpt>
      <trkpt lat="47.82655" lon="7.08912">
        <ele>491</ele>
        <time>2014-06-22T13:20:14Z</time>
      </trkpt>
      <trkpt lat="47.82658" lon="7.08898">
        <ele>486</ele>
        <time>2014-06-22T13:20:24Z</time>
      </trkpt>
      <trkpt lat="47.82659" lon="7.08893">
        <ele>484</ele>
        <time>2014-06-22T13:20:27Z</time>
      </trkpt>
      <trkpt lat="47.82666" lon="7.08874">
        <ele>479</ele>
        <time>2014-06-22T13:20:40Z</time>
      </trkpt>
      <trkpt lat="47.82673" lon="7.08858">
        <ele>491</ele>
        <time>2014-06-22T13:20:51Z</time>
      </trkpt>
      <trkpt lat="47.82677" lon="7.0885">
        <ele>489</ele>
        <time>2014-06-22T13:20:56Z</time>
      </trkpt>
      <trkpt lat="47.82685" lon="7.0884">
        <ele>488</ele>
        <time>2014-06-22T13:21:05Z</time>
      </trkpt>
      <trkpt lat="47.82688" lon="7.08837">
        <ele>489</ele>
        <time>2014-06-22T13:21:08Z</time>
      </trkpt>
      <trkpt lat="47.82701" lon="7.08832">
        <ele>476</ele>
        <time>2014-06-22T13:21:20Z</time>
      </trkpt>
      <trkpt lat="47.82708" lon="7.08831">
        <ele>477</ele>
        <time>2014-06-22T13:21:27Z</time>
      </trkpt>
      <trkpt lat="47.82711" lon="7.08829">
        <ele>477</ele>
        <time>2014-06-22T13:21:30Z</time>
      </trkpt>
      <trkpt lat="47.82723" lon="7.08826">
        <ele>479</ele>
        <time>2014-06-22T13:21:41Z</time>
      </trkpt>
      <trkpt lat="47.82726" lon="7.08825">
        <ele>480</ele>
        <time>2014-06-22T13:21:44Z</time>
      </trkpt>
      <trkpt lat="47.8274" lon="7.0881">
        <ele>480</ele>
        <time>2014-06-22T13:21:55Z</time>
      </trkpt>
      <trkpt lat="47.82742" lon="7.08806">
        <ele>479</ele>
        <time>2014-06-22T13:21:57Z</time>
      </trkpt>
      <trkpt lat="47.82748" lon="7.08794">
        <ele>476</ele>
        <time>2014-06-22T13:22:04Z</time>
      </trkpt>
      <trkpt lat="47.82751" lon="7.08779">
        <ele>475</ele>
        <time>2014-06-22T13:22:14Z</time>
      </trkpt>
      <trkpt lat="47.82755" lon="7.08762">
        <ele>472</ele>
        <time>2014-06-22T13:22:25Z</time>
      </trkpt>
      <trkpt lat="47.8276" lon="7.08744">
        <ele>462</ele>
        <time>2014-06-22T13:22:36Z</time>
      </trkpt>
      <trkpt lat="47.82761" lon="7.08741">
        <ele>461</ele>
        <time>2014-06-22T13:22:38Z</time>
      </trkpt>
      <trkpt lat="47.82767" lon="7.08728">
        <ele>456</ele>
        <time>2014-06-22T13:22:49Z</time>
      </trkpt>
      <trkpt lat="47.82769" lon="7.0873">
        <ele>456</ele>
        <time>2014-06-22T13:23:01Z</time>
      </trkpt>
      <trkpt lat="47.82773" lon="7.08732">
        <ele>456</ele>
        <time>2014-06-22T13:23:17Z</time>
      </trkpt>
      <trkpt lat="47.82792" lon="7.08738">
        <ele>455</ele>
        <time>2014-06-22T13:23:29Z</time>
      </trkpt>
      <trkpt lat="47.82807" lon="7.08742">
        <ele>454</ele>
        <time>2014-06-22T13:23:39Z</time>
      </trkpt>
      <trkpt lat="47.82811" lon="7.08742">
        <ele>455</ele>
        <time>2014-06-22T13:23:42Z</time>
      </trkpt>
      <trkpt lat="47.82815" lon="7.08744">
        <ele>455</ele>
        <time>2014-06-22T13:23:44Z</time>
      </trkpt>
      <trkpt lat="47.82825" lon="7.08757">
        <ele>465</ele>
        <time>2014-06-22T13:23:55Z</time>
      </trkpt>
      <trkpt lat="47.82836" lon="7.08761">
        <ele>460</ele>
        <time>2014-06-22T13:24:02Z</time>
      </trkpt>
      <trkpt lat="47.82852" lon="7.08769">
        <ele>461</ele>
        <time>2014-06-22T13:24:13Z</time>
      </trkpt>
      <trkpt lat="47.82862" lon="7.08779">
        <ele>461</ele>
        <time>2014-06-22T13:24:23Z</time>
      </trkpt>
      <trkpt lat="47.82867" lon="7.08783">
        <ele>461</ele>
        <time>2014-06-22T13:24:27Z</time>
      </trkpt>
      <trkpt lat="47.82875" lon="7.08786">
        <ele>460</ele>
        <time>2014-06-22T13:24:37Z</time>
      </trkpt>
      <trkpt lat="47.82883" lon="7.08785">
        <ele>459</ele>
        <time>2014-06-22T13:24:43Z</time>
      </trkpt>
      <trkpt lat="47.8289" lon="7.08784">
        <ele>458</ele>
        <time>2014-06-22T13:24:51Z</time>
      </trkpt>
      <trkpt lat="47.82903" lon="7.08775">
        <ele>455</ele>
        <time>2014-06-22T13:25:03Z</time>
      </trkpt>
      <trkpt lat="47.82913" lon="7.08759">
        <ele>449</ele>
        <time>2014-06-22T13:25:14Z</time>
      </trkpt>
      <trkpt lat="47.82925" lon="7.08741">
        <ele>435</ele>
        <time>2014-06-22T13:25:24Z</time>
      </trkpt>
      <trkpt lat="47.82935" lon="7.08728">
        <ele>429</ele>
        <time>2014-06-22T13:25:37Z</time>
      </trkpt>
      <trkpt lat="47.82945" lon="7.08739">
        <ele>428</ele>
        <time>2014-06-22T13:25:50Z</time>
      </trkpt>
      <trkpt lat="47.82952" lon="7.08757">
        <ele>434</ele>
        <time>2014-06-22T13:26:00Z</time>
      </trkpt>
      <trkpt lat="47.82954" lon="7.08767">
        <ele>434</ele>
        <time>2014-06-22T13:26:06Z</time>
      </trkpt>
      <trkpt lat="47.82957" lon="7.08788">
        <ele>434</ele>
        <time>2014-06-22T13:26:16Z</time>
      </trkpt>
      <trkpt lat="47.82958" lon="7.08792">
        <ele>434</ele>
        <time>2014-06-22T13:26:18Z</time>
      </trkpt>
      <trkpt lat="47.82958" lon="7.08797">
        <ele>434</ele>
        <time>2014-06-22T13:26:20Z</time>
      </trkpt>
      <trkpt lat="47.82959" lon="7.08801">
        <ele>434</ele>
        <time>2014-06-22T13:26:22Z</time>
      </trkpt>
      <trkpt lat="47.82959" lon="7.08805">
        <ele>434</ele>
        <time>2014-06-22T13:26:24Z</time>
      </trkpt>
      <trkpt lat="47.82963" lon="7.08823">
        <ele>434</ele>
        <time>2014-06-22T13:26:36Z</time>
      </trkpt>
      <trkpt lat="47.8297" lon="7.08842">
        <ele>437</ele>
        <time>2014-06-22T13:26:47Z</time>
      </trkpt>
      <trkpt lat="47.82972" lon="7.08847">
        <ele>436</ele>
        <time>2014-06-22T13:26:50Z</time>
      </trkpt>
      <trkpt lat="47.82973" lon="7.08866">
        <ele>438</ele>
        <time>2014-06-22T13:27:03Z</time>
      </trkpt>
      <trkpt lat="47.82974" lon="7.08885">
        <ele>438</ele>
        <time>2014-06-22T13:27:15Z</time>
      </trkpt>
      <trkpt lat="47.82984" lon="7.08907">
        <ele>434</ele>
        <time>2014-06-22T13:27:26Z</time>
      </trkpt>
      <trkpt lat="47.82991" lon="7.08926">
        <ele>433</ele>
        <time>2014-06-22T13:27:37Z</time>
      </trkpt>
      <trkpt lat="47.82993" lon="7.08945">
        <ele>438</ele>
        <time>2014-06-22T13:27:48Z</time>
      </trkpt>
      <trkpt lat="47.82994" lon="7.08953">
        <ele>439</ele>
        <time>2014-06-22T13:27:56Z</time>
      </trkpt>
      <trkpt lat="47.82992" lon="7.08962">
        <ele>440</ele>
        <time>2014-06-22T13:28:03Z</time>
      </trkpt>
      <trkpt lat="47.82991" lon="7.08973">
        <ele>440</ele>
        <time>2014-06-22T13:28:09Z</time>
      </trkpt>
      <trkpt lat="47.8299" lon="7.08976">
        <ele>439</ele>
        <time>2014-06-22T13:28:12Z</time>
      </trkpt>
      <trkpt lat="47.82988" lon="7.0899">
        <ele>438</ele>
        <time>2014-06-22T13:28:21Z</time>
      </trkpt>
      <trkpt lat="47.8299" lon="7.09006">
        <ele>439</ele>
        <time>2014-06-22T13:28:33Z</time>
      </trkpt>
      <trkpt lat="47.83012" lon="7.09013">
        <ele>432</ele>
        <time>2014-06-22T13:28:45Z</time>
      </trkpt>
      <trkpt lat="47.83015" lon="7.09014">
        <ele>432</ele>
        <time>2014-06-22T13:28:48Z</time>
      </trkpt>
      <trkpt lat="47.83029" lon="7.09029">
        <ele>434</ele>
        <time>2014-06-22T13:28:59Z</time>
      </trkpt>
      <trkpt lat="47.83037" lon="7.09051">
        <ele>436</ele>
        <time>2014-06-22T13:29:11Z</time>
      </trkpt>
      <trkpt lat="47.83038" lon="7.09055">
        <ele>436</ele>
        <time>2014-06-22T13:29:13Z</time>
      </trkpt>
      <trkpt lat="47.83041" lon="7.09069">
        <ele>437</ele>
        <time>2014-06-22T13:29:21Z</time>
      </trkpt>
      <trkpt lat="47.8305" lon="7.09085">
        <ele>446</ele>
        <time>2014-06-22T13:29:32Z</time>
      </trkpt>
      <trkpt lat="47.83056" lon="7.09081">
        <ele>437</ele>
        <time>2014-06-22T13:29:43Z</time>
      </trkpt>
      <trkpt lat="47.83053" lon="7.09059">
        <ele>436</ele>
        <time>2014-06-22T13:29:54Z</time>
      </trkpt>
      <trkpt lat="47.83053" lon="7.09054">
        <ele>435</ele>
        <time>2014-06-22T13:29:56Z</time>
      </trkpt>
      <trkpt lat="47.83057" lon="7.09039">
        <ele>434</ele>
        <time>2014-06-22T13:30:04Z</time>
      </trkpt>
      <trkpt lat="47.83058" lon="7.09029">
        <ele>432</ele>
        <time>2014-06-22T13:30:09Z</time>
      </trkpt>
      <trkpt lat="47.83056" lon="7.0901">
        <ele>431</ele>
        <time>2014-06-22T13:30:19Z</time>
      </trkpt>
      <trkpt lat="47.83055" lon="7.08993">
        <ele>424</ele>
        <time>2014-06-22T13:30:30Z</time>
      </trkpt>
      <trkpt lat="47.83055" lon="7.08984">
        <ele>424</ele>
        <time>2014-06-22T13:30:34Z</time>
      </trkpt>
      <trkpt lat="47.83057" lon="7.0896">
        <ele>423</ele>
        <time>2014-06-22T13:30:45Z</time>
      </trkpt>
      <trkpt lat="47.83058" lon="7.0895">
        <ele>423</ele>
        <time>2014-06-22T13:30:50Z</time>
      </trkpt>
      <trkpt lat="47.8306" lon="7.08928">
        <ele>421</ele>
        <time>2014-06-22T13:31:02Z</time>
      </trkpt>
      <trkpt lat="47.83061" lon="7.08904">
        <ele>417</ele>
        <time>2014-06-22T13:31:14Z</time>
      </trkpt>
      <trkpt lat="47.8306" lon="7.08886">
        <ele>417</ele>
        <time>2014-06-22T13:31:21Z</time>
      </trkpt>
      <trkpt lat="47.83058" lon="7.08869">
        <ele>416</ele>
        <time>2014-06-22T13:31:29Z</time>
      </trkpt>
      <trkpt lat="47.83059" lon="7.08849">
        <ele>415</ele>
        <time>2014-06-22T13:31:39Z</time>
      </trkpt>
      <trkpt lat="47.83058" lon="7.08844">
        <ele>414</ele>
        <time>2014-06-22T13:31:43Z</time>
      </trkpt>
      <trkpt lat="47.83058" lon="7.08825">
        <ele>410</ele>
        <time>2014-06-22T13:31:56Z</time>
      </trkpt>
      <trkpt lat="47.83062" lon="7.08806">
        <ele>410</ele>
        <time>2014-06-22T13:32:11Z</time>
      </trkpt>
      <trkpt lat="47.83062" lon="7.08797">
        <ele>409</ele>
        <time>2014-06-22T13:32:21Z</time>
      </trkpt>
      <trkpt lat="47.83058" lon="7.08795">
        <ele>410</ele>
        <time>2014-06-22T13:33:58Z</time>
      </trkpt>
      <trkpt lat="47.83058" lon="7.08787">
        <ele>409</ele>
        <time>2014-06-22T13:34:43Z</time>
      </trkpt>
      <trkpt lat="47.83058" lon="7.08783">
        <ele>409</ele>
        <time>2014-06-22T13:34:45Z</time>
      </trkpt>
      <trkpt lat="47.83059" lon="7.08766">
        <ele>408</ele>
        <time>2014-06-22T13:35:20Z</time>
      </trkpt>
      <trkpt lat="47.83059" lon="7.08761">
        <ele>407</ele>
        <time>2014-06-22T13:35:24Z</time>
      </trkpt>
      <trkpt lat="47.83062" lon="7.08744">
        <ele>403</ele>
        <time>2014-06-22T13:35:36Z</time>
      </trkpt>
      <trkpt lat="47.83062" lon="7.08739">
        <ele>403</ele>
        <time>2014-06-22T13:35:41Z</time>
      </trkpt>
      <trkpt lat="47.83061" lon="7.08719">
        <ele>403</ele>
        <time>2014-06-22T13:35:54Z</time>
      </trkpt>
      <trkpt lat="47.8306" lon="7.08699">
        <ele>402</ele>
        <time>2014-06-22T13:36:05Z</time>
      </trkpt>
      <trkpt lat="47.83056" lon="7.08679">
        <ele>401</ele>
        <time>2014-06-22T13:36:16Z</time>
      </trkpt>
      <trkpt lat="47.83055" lon="7.08673">
        <ele>401</ele>
        <time>2014-06-22T13:36:19Z</time>
      </trkpt>
      <trkpt lat="47.83049" lon="7.08651">
        <ele>396</ele>
        <time>2014-06-22T13:36:31Z</time>
      </trkpt>
      <trkpt lat="47.83048" lon="7.08646">
        <ele>396</ele>
        <time>2014-06-22T13:36:34Z</time>
      </trkpt>
      <trkpt lat="47.83049" lon="7.08638">
        <ele>396</ele>
        <time>2014-06-22T13:36:39Z</time>
      </trkpt>
      <trkpt lat="47.83049" lon="7.08623">
        <ele>395</ele>
        <time>2014-06-22T13:36:47Z</time>
      </trkpt>
      <trkpt lat="47.83044" lon="7.08601">
        <ele>394</ele>
        <time>2014-06-22T13:36:58Z</time>
      </trkpt>
      <trkpt lat="47.83041" lon="7.08582">
        <ele>389</ele>
        <time>2014-06-22T13:37:08Z</time>
      </trkpt>
      <trkpt lat="47.83041" lon="7.08562">
        <ele>389</ele>
        <time>2014-06-22T13:37:18Z</time>
      </trkpt>
      <trkpt lat="47.83038" lon="7.08542">
        <ele>388</ele>
        <time>2014-06-22T13:37:28Z</time>
      </trkpt>
      <trkpt lat="47.83034" lon="7.08523">
        <ele>387</ele>
        <time>2014-06-22T13:37:39Z</time>
      </trkpt>
      <trkpt lat="47.83032" lon="7.08513">
        <ele>386</ele>
        <time>2014-06-22T13:37:45Z</time>
      </trkpt>
      <trkpt lat="47.83025" lon="7.08499">
        <ele>380</ele>
        <time>2014-06-22T13:37:57Z</time>
      </trkpt>
      <trkpt lat="47.83021" lon="7.08483">
        <ele>380</ele>
        <time>2014-06-22T13:38:06Z</time>
      </trkpt>
      <trkpt lat="47.8302" lon="7.08461">
        <ele>379</ele>
        <time>2014-06-22T13:38:17Z</time>
      </trkpt>
      <trkpt lat="47.83018" lon="7.08442">
        <ele>378</ele>
        <time>2014-06-22T13:38:27Z</time>
      </trkpt>
      <trkpt lat="47.83016" lon="7.08422">
        <ele>375</ele>
        <time>2014-06-22T13:38:37Z</time>
      </trkpt>
      <trkpt lat="47.83014" lon="7.08402">
        <ele>371</ele>
        <time>2014-06-22T13:38:47Z</time>
      </trkpt>
      <trkpt lat="47.83018" lon="7.08392">
        <ele>371</ele>
        <time>2014-06-22T13:38:53Z</time>
      </trkpt>
      <trkpt lat="47.83022" lon="7.08371">
        <ele>370</ele>
        <time>2014-06-22T13:39:05Z</time>
      </trkpt>
      <trkpt lat="47.83026" lon="7.0836">
        <ele>370</ele>
        <time>2014-06-22T13:39:11Z</time>
      </trkpt>
      <trkpt lat="47.83031" lon="7.08343">
        <ele>369</ele>
        <time>2014-06-22T13:39:21Z</time>
      </trkpt>
      <trkpt lat="47.83037" lon="7.08333">
        <ele>370</ele>
        <time>2014-06-22T13:39:46Z</time>
      </trkpt>
      <trkpt lat="47.83039" lon="7.08316">
        <ele>364</ele>
        <time>2014-06-22T13:39:58Z</time>
      </trkpt>
      <trkpt lat="47.83038" lon="7.08295">
        <ele>363</ele>
        <time>2014-06-22T13:40:11Z</time>
      </trkpt>
      <trkpt lat="47.83039" lon="7.08274">
        <ele>362</ele>
        <time>2014-06-22T13:40:23Z</time>
      </trkpt>
      <trkpt lat="47.83039" lon="7.08269">
        <ele>362</ele>
        <time>2014-06-22T13:40:25Z</time>
      </trkpt>
      <trkpt lat="47.83038" lon="7.08264">
        <ele>362</ele>
        <time>2014-06-22T13:40:28Z</time>
      </trkpt>
      <trkpt lat="47.83036" lon="7.08247">
        <ele>357</ele>
        <time>2014-06-22T13:40:38Z</time>
      </trkpt>
      <trkpt lat="47.83034" lon="7.08227">
        <ele>357</ele>
        <time>2014-06-22T13:40:48Z</time>
      </trkpt>
      <trkpt lat="47.83033" lon="7.08213">
        <ele>357</ele>
        <time>2014-06-22T13:40:57Z</time>
      </trkpt>
      <trkpt lat="47.83029" lon="7.08207">
        <ele>357</ele>
        <time>2014-06-22T13:41:10Z</time>
      </trkpt>
      <trkpt lat="47.83013" lon="7.08207">
        <ele>356</ele>
        <time>2014-06-22T13:41:21Z</time>
      </trkpt>
      <trkpt lat="47.83009" lon="7.08208">
        <ele>356</ele>
        <time>2014-06-22T13:41:23Z</time>
      </trkpt>
      <trkpt lat="47.82997" lon="7.08204">
        <ele>355</ele>
        <time>2014-06-22T13:41:33Z</time>
      </trkpt>
      <trkpt lat="47.82984" lon="7.08191">
        <ele>355</ele>
        <time>2014-06-22T13:41:45Z</time>
      </trkpt>
      <trkpt lat="47.82982" lon="7.08187">
        <ele>355</ele>
        <time>2014-06-22T13:41:48Z</time>
      </trkpt>
      <trkpt lat="47.82974" lon="7.08169">
        <ele>355</ele>
        <time>2014-06-22T13:42:01Z</time>
      </trkpt>
      <trkpt lat="47.82971" lon="7.08163">
        <ele>355</ele>
        <time>2014-06-22T13:42:05Z</time>
      </trkpt>
      <trkpt lat="47.82958" lon="7.08147">
        <ele>355</ele>
        <time>2014-06-22T13:42:19Z</time>
      </trkpt>
      <trkpt lat="47.8295" lon="7.08137">
        <ele>355</ele>
        <time>2014-06-22T13:42:30Z</time>
      </trkpt>
      <trkpt lat="47.82949" lon="7.08132">
        <ele>355</ele>
        <time>2014-06-22T13:42:33Z</time>
      </trkpt>
      <trkpt lat="47.82946" lon="7.08127">
        <ele>355</ele>
        <time>2014-06-22T13:42:36Z</time>
      </trkpt>
      <trkpt lat="47.82939" lon="7.08115">
        <ele>356</ele>
        <time>2014-06-22T13:42:43Z</time>
      </trkpt>
      <trkpt lat="47.82929" lon="7.08103">
        <ele>356</ele>
        <time>2014-06-22T13:42:55Z</time>
      </trkpt>
      <trkpt lat="47.8292" lon="7.08088">
        <ele>356</ele>
        <time>2014-06-22T13:43:07Z</time>
      </trkpt>
      <trkpt lat="47.82913" lon="7.08069">
        <ele>356</ele>
        <time>2014-06-22T13:43:20Z</time>
      </trkpt>
      <trkpt lat="47.82908" lon="7.08057">
        <ele>356</ele>
        <time>2014-06-22T13:43:30Z</time>
      </trkpt>
      <trkpt lat="47.82901" lon="7.08041">
        <ele>355</ele>
        <time>2014-06-22T13:43:41Z</time>
      </trkpt>
      <trkpt lat="47.829" lon="7.08036">
        <ele>355</ele>
        <time>2014-06-22T13:43:45Z</time>
      </trkpt>
      <trkpt lat="47.82899" lon="7.08031">
        <ele>355</ele>
        <time>2014-06-22T13:43:48Z</time>
      </trkpt>
      <trkpt lat="47.82897" lon="7.08019">
        <ele>355</ele>
        <time>2014-06-22T13:43:59Z</time>
      </trkpt>
      <trkpt lat="47.82888" lon="7.0801">
        <ele>355</ele>
        <time>2014-06-22T13:44:11Z</time>
      </trkpt>
      <trkpt lat="47.82887" lon="7.08005">
        <ele>355</ele>
        <time>2014-06-22T13:44:14Z</time>
      </trkpt>
      <trkpt lat="47.82884" lon="7.08002">
        <ele>355</ele>
        <time>2014-06-22T13:44:27Z</time>
      </trkpt>
      <trkpt lat="47.82873" lon="7.08002">
        <ele>356</ele>
        <time>2014-06-22T13:44:37Z</time>
      </trkpt>
      <trkpt lat="47.82866" lon="7.08011">
        <ele>356</ele>
        <time>2014-06-22T13:44:44Z</time>
      </trkpt>
      <trkpt lat="47.82858" lon="7.08019">
        <ele>356</ele>
        <time>2014-06-22T13:44:55Z</time>
      </trkpt>
      <trkpt lat="47.82855" lon="7.08022">
        <ele>356</ele>
        <time>2014-06-22T13:44:58Z</time>
      </trkpt>
      <trkpt lat="47.82843" lon="7.08024">
        <ele>356</ele>
        <time>2014-06-22T13:45:09Z</time>
      </trkpt>
      <trkpt lat="47.8284" lon="7.08021">
        <ele>356</ele>
        <time>2014-06-22T13:45:12Z</time>
      </trkpt>
    </trkseg>
  </trk>
</gpx>